<?xml version='1.0' encoding='UTF-8'?><gpx version="1.1" creator="JPX - https://github.com/jenetics/jpx" xmlns="http://www.topografix.com/GPX/1/1"><trk><trkseg><trkpt lat="43.5048747" lon="10.6202003"><ele>309.00000000000006</ele><time>2026-04-18T06:08:07.337Z</time></trkpt><trkpt lat="43.5048092" lon="10.6202489"><ele>309.0</ele><time>2026-04-18T06:08:09.337Z</time></trkpt><trkpt lat="43.5047413" lon="10.6202733"><ele>309.0</ele><time>2026-04-18T06:08:12.338Z</time></trkpt><trkpt lat="43.5046742" lon="10.6202701"><ele>309.0</ele><time>2026-04-18T06:08:21.342Z</time></trkpt><trkpt lat="43.5047373" lon="10.6202522"><ele>309.0</ele><time>2026-04-18T06:11:15.346Z</time></trkpt><trkpt lat="43.5046733" lon="10.6202753"><ele>309.00000000000006</ele><time>2026-04-18T06:19:38.345Z</time></trkpt><trkpt lat="43.5046292" lon="10.6201978"><ele>309.0</ele><time>2026-04-18T06:44:05.345Z</time></trkpt><trkpt lat="43.5046925" lon="10.6201591"><ele>309.00000000000006</ele><time>2026-04-18T06:44:33.346Z</time></trkpt><trkpt lat="43.5047503" lon="10.6201229"><ele>309.0</ele><time>2026-04-18T06:45:10.345Z</time></trkpt><trkpt lat="43.5048131" lon="10.6200138"><ele>309.0</ele><time>2026-04-18T06:45:29.343Z</time></trkpt><trkpt lat="43.5048604" lon="10.6199479"><ele>309.0</ele><time>2026-04-18T06:45:30.343Z</time></trkpt><trkpt lat="43.5049104" lon="10.6198853"><ele>309.0</ele><time>2026-04-18T06:45:31.343Z</time></trkpt><trkpt lat="43.5049567" lon="10.6198212"><ele>309.00000000000006</ele><time>2026-04-18T06:45:32.343Z</time></trkpt><trkpt lat="43.5049928" lon="10.6197467"><ele>309.0</ele><time>2026-04-18T06:45:33.343Z</time></trkpt><trkpt lat="43.5050263" lon="10.6196658"><ele>309.0</ele><time>2026-04-18T06:45:34.343Z</time></trkpt><trkpt lat="43.5050547" lon="10.6195805"><ele>309.0</ele><time>2026-04-18T06:45:35.343Z</time></trkpt><trkpt lat="43.5050854" lon="10.6194995"><ele>309.0</ele><time>2026-04-18T06:45:36.344Z</time></trkpt><trkpt lat="43.5051552" lon="10.6193814"><ele>309.0</ele><time>2026-04-18T06:45:38.346Z</time></trkpt><trkpt lat="43.505253" lon="10.6193535"><ele>309.0</ele><time>2026-04-18T06:45:40.345Z</time></trkpt><trkpt lat="43.5053205" lon="10.6193665"><ele>309.0</ele><time>2026-04-18T06:45:41.342Z</time></trkpt><trkpt lat="43.5054034" lon="10.6193913"><ele>307.5</ele><time>2026-04-18T06:45:42.343Z</time></trkpt><trkpt lat="43.5055032" lon="10.619422"><ele>306.0</ele><time>2026-04-18T06:45:43.347Z</time></trkpt><trkpt lat="43.5056003" lon="10.6194561"><ele>304.5</ele><time>2026-04-18T06:45:44.345Z</time></trkpt><trkpt lat="43.5056816" lon="10.6194743"><ele>303.0</ele><time>2026-04-18T06:45:45.343Z</time></trkpt><trkpt lat="43.5057571" lon="10.6194795"><ele>301.5</ele><time>2026-04-18T06:45:46.343Z</time></trkpt><trkpt lat="43.5058266" lon="10.6194703"><ele>300.0</ele><time>2026-04-18T06:45:47.343Z</time></trkpt><trkpt lat="43.5059081" lon="10.6194446"><ele>300.0</ele><time>2026-04-18T06:45:48.343Z</time></trkpt><trkpt lat="43.5059973" lon="10.619414"><ele>300.0</ele><time>2026-04-18T06:45:49.343Z</time></trkpt><trkpt lat="43.5060876" lon="10.6193852"><ele>300.0</ele><time>2026-04-18T06:45:50.345Z</time></trkpt><trkpt lat="43.5061777" lon="10.6193533"><ele>300.0</ele><time>2026-04-18T06:45:51.343Z</time></trkpt><trkpt lat="43.5062647" lon="10.6193336"><ele>300.0</ele><time>2026-04-18T06:45:52.343Z</time></trkpt><trkpt lat="43.5063508" lon="10.6193239"><ele>298.4285714285714</ele><time>2026-04-18T06:45:53.342Z</time></trkpt><trkpt lat="43.5064275" lon="10.6193217"><ele>296.85714285714283</ele><time>2026-04-18T06:45:54.349Z</time></trkpt><trkpt lat="43.5065048" lon="10.6193203"><ele>295.2857142857143</ele><time>2026-04-18T06:45:55.342Z</time></trkpt><trkpt lat="43.5065784" lon="10.6193074"><ele>293.71428571428567</ele><time>2026-04-18T06:45:56.346Z</time></trkpt><trkpt lat="43.5066503" lon="10.6192877"><ele>292.1428571428571</ele><time>2026-04-18T06:45:57.343Z</time></trkpt><trkpt lat="43.5067219" lon="10.6192619"><ele>290.57142857142856</ele><time>2026-04-18T06:45:58.346Z</time></trkpt><trkpt lat="43.5067838" lon="10.6192372"><ele>289.0</ele><time>2026-04-18T06:45:59.342Z</time></trkpt><trkpt lat="43.5068841" lon="10.6191932"><ele>289.0</ele><time>2026-04-18T06:46:01.346Z</time></trkpt><trkpt lat="43.5069715" lon="10.6190846"><ele>289.0</ele><time>2026-04-18T06:46:03.343Z</time></trkpt><trkpt lat="43.5070199" lon="10.6190198"><ele>289.0</ele><time>2026-04-18T06:46:04.345Z</time></trkpt><trkpt lat="43.5070713" lon="10.6189552"><ele>289.0</ele><time>2026-04-18T06:46:05.342Z</time></trkpt><trkpt lat="43.5071257" lon="10.61889"><ele>289.0</ele><time>2026-04-18T06:46:06.343Z</time></trkpt><trkpt lat="43.5071871" lon="10.6188352"><ele>289.0</ele><time>2026-04-18T06:46:07.345Z</time></trkpt><trkpt lat="43.5072557" lon="10.6187875"><ele>288.3333333333333</ele><time>2026-04-18T06:46:08.345Z</time></trkpt><trkpt lat="43.5073218" lon="10.6187509"><ele>287.66666666666663</ele><time>2026-04-18T06:46:09.345Z</time></trkpt><trkpt lat="43.5073866" lon="10.6187262"><ele>287.0</ele><time>2026-04-18T06:46:10.345Z</time></trkpt><trkpt lat="43.507456" lon="10.6187036"><ele>286.3333333333333</ele><time>2026-04-18T06:46:11.346Z</time></trkpt><trkpt lat="43.5075281" lon="10.6186697"><ele>285.6666666666667</ele><time>2026-04-18T06:46:12.346Z</time></trkpt><trkpt lat="43.5075999" lon="10.6186161"><ele>285.0</ele><time>2026-04-18T06:46:13.345Z</time></trkpt><trkpt lat="43.5076685" lon="10.6185467"><ele>285.0</ele><time>2026-04-18T06:46:14.343Z</time></trkpt><trkpt lat="43.5077323" lon="10.6184726"><ele>285.0</ele><time>2026-04-18T06:46:15.343Z</time></trkpt><trkpt lat="43.5077875" lon="10.6183917"><ele>285.0</ele><time>2026-04-18T06:46:16.344Z</time></trkpt><trkpt lat="43.5078386" lon="10.6183121"><ele>285.0</ele><time>2026-04-18T06:46:17.347Z</time></trkpt><trkpt lat="43.5078853" lon="10.6182308"><ele>285.0</ele><time>2026-04-18T06:46:18.343Z</time></trkpt><trkpt lat="43.50793" lon="10.6181488"><ele>285.0</ele><time>2026-04-18T06:46:19.343Z</time></trkpt><trkpt lat="43.5079718" lon="10.6180627"><ele>285.6666666666667</ele><time>2026-04-18T06:46:20.343Z</time></trkpt><trkpt lat="43.5080119" lon="10.6179736"><ele>286.3333333333333</ele><time>2026-04-18T06:46:21.347Z</time></trkpt><trkpt lat="43.5080442" lon="10.617884"><ele>287.0</ele><time>2026-04-18T06:46:22.343Z</time></trkpt><trkpt lat="43.5080769" lon="10.6177895"><ele>287.66666666666663</ele><time>2026-04-18T06:46:23.343Z</time></trkpt><trkpt lat="43.5081041" lon="10.6176939"><ele>288.3333333333333</ele><time>2026-04-18T06:46:24.343Z</time></trkpt><trkpt lat="43.5081345" lon="10.6175973"><ele>289.0</ele><time>2026-04-18T06:46:25.344Z</time></trkpt><trkpt lat="43.5081714" lon="10.6175011"><ele>289.0</ele><time>2026-04-18T06:46:26.344Z</time></trkpt><trkpt lat="43.5082097" lon="10.6174032"><ele>289.0</ele><time>2026-04-18T06:46:27.345Z</time></trkpt><trkpt lat="43.5082452" lon="10.6173062"><ele>289.0</ele><time>2026-04-18T06:46:28.343Z</time></trkpt><trkpt lat="43.5082828" lon="10.617211"><ele>289.0</ele><time>2026-04-18T06:46:29.344Z</time></trkpt><trkpt lat="43.5083242" lon="10.617113"><ele>289.0</ele><time>2026-04-18T06:46:30.343Z</time></trkpt><trkpt lat="43.5083738" lon="10.6170192"><ele>289.0</ele><time>2026-04-18T06:46:31.344Z</time></trkpt><trkpt lat="43.5084325" lon="10.61693"><ele>289.59999999999997</ele><time>2026-04-18T06:46:32.347Z</time></trkpt><trkpt lat="43.508496" lon="10.6168402"><ele>290.2</ele><time>2026-04-18T06:46:33.345Z</time></trkpt><trkpt lat="43.5085671" lon="10.6167478"><ele>290.79999999999995</ele><time>2026-04-18T06:46:34.345Z</time></trkpt><trkpt lat="43.5086424" lon="10.6166534"><ele>291.4</ele><time>2026-04-18T06:46:35.343Z</time></trkpt><trkpt lat="43.5087199" lon="10.6165577"><ele>292.0</ele><time>2026-04-18T06:46:36.347Z</time></trkpt><trkpt lat="43.5087935" lon="10.6164749"><ele>292.0</ele><time>2026-04-18T06:46:37.346Z</time></trkpt><trkpt lat="43.5088574" lon="10.6164051"><ele>292.0</ele><time>2026-04-18T06:46:38.342Z</time></trkpt><trkpt lat="43.5089134" lon="10.6163539"><ele>292.0</ele><time>2026-04-18T06:46:39.344Z</time></trkpt><trkpt lat="43.5090108" lon="10.6163509"><ele>292.0</ele><time>2026-04-18T06:46:41.346Z</time></trkpt><trkpt lat="43.5090906" lon="10.6164444"><ele>292.0</ele><time>2026-04-18T06:46:43.345Z</time></trkpt><trkpt lat="43.5091308" lon="10.6165223"><ele>292.0</ele><time>2026-04-18T06:46:44.346Z</time></trkpt><trkpt lat="43.5091765" lon="10.6166093"><ele>292.0</ele><time>2026-04-18T06:46:45.343Z</time></trkpt><trkpt lat="43.5092221" lon="10.6166987"><ele>292.0</ele><time>2026-04-18T06:46:46.343Z</time></trkpt><trkpt lat="43.5092665" lon="10.616789"><ele>292.0</ele><time>2026-04-18T06:46:47.345Z</time></trkpt><trkpt lat="43.5093187" lon="10.616891"><ele>292.0</ele><time>2026-04-18T06:46:48.345Z</time></trkpt><trkpt lat="43.5093772" lon="10.6169985"><ele>292.0</ele><time>2026-04-18T06:46:49.342Z</time></trkpt><trkpt lat="43.5094305" lon="10.6171205"><ele>291.0</ele><time>2026-04-18T06:46:50.342Z</time></trkpt><trkpt lat="43.5094895" lon="10.6172281"><ele>290.0</ele><time>2026-04-18T06:46:51.346Z</time></trkpt><trkpt lat="43.5095424" lon="10.6173367"><ele>289.0</ele><time>2026-04-18T06:46:52.344Z</time></trkpt><trkpt lat="43.5095986" lon="10.6174378"><ele>288.0</ele><time>2026-04-18T06:46:53.342Z</time></trkpt><trkpt lat="43.5096492" lon="10.6175331"><ele>287.0</ele><time>2026-04-18T06:46:54.347Z</time></trkpt><trkpt lat="43.5097026" lon="10.6176333"><ele>286.83333333333337</ele><time>2026-04-18T06:46:55.343Z</time></trkpt><trkpt lat="43.5097542" lon="10.6177257"><ele>286.6666666666667</ele><time>2026-04-18T06:46:56.343Z</time></trkpt><trkpt lat="43.5097988" lon="10.6178118"><ele>286.5</ele><time>2026-04-18T06:46:57.342Z</time></trkpt><trkpt lat="43.5098359" lon="10.6179011"><ele>286.3333333333333</ele><time>2026-04-18T06:46:58.343Z</time></trkpt><trkpt lat="43.5098714" lon="10.6179903"><ele>286.16666666666663</ele><time>2026-04-18T06:46:59.342Z</time></trkpt><trkpt lat="43.5099064" lon="10.6180678"><ele>286.0</ele><time>2026-04-18T06:47:00.346Z</time></trkpt><trkpt lat="43.5099598" lon="10.6181889"><ele>285.40000000000003</ele><time>2026-04-18T06:47:02.345Z</time></trkpt><trkpt lat="43.5100167" lon="10.6183205"><ele>284.8</ele><time>2026-04-18T06:47:04.342Z</time></trkpt><trkpt lat="43.5100554" lon="10.618395"><ele>284.20000000000005</ele><time>2026-04-18T06:47:05.343Z</time></trkpt><trkpt lat="43.5101477" lon="10.6185164"><ele>283.6</ele><time>2026-04-18T06:47:07.343Z</time></trkpt><trkpt lat="43.5102519" lon="10.6185836"><ele>283.0</ele><time>2026-04-18T06:47:09.344Z</time></trkpt><trkpt lat="43.5103219" lon="10.6185557"><ele>283.0</ele><time>2026-04-18T06:47:10.343Z</time></trkpt><trkpt lat="43.5104032" lon="10.6184971"><ele>283.0</ele><time>2026-04-18T06:47:11.346Z</time></trkpt><trkpt lat="43.5104832" lon="10.6184267"><ele>283.0</ele><time>2026-04-18T06:47:12.342Z</time></trkpt><trkpt lat="43.5105656" lon="10.6183554"><ele>283.0</ele><time>2026-04-18T06:47:13.342Z</time></trkpt><trkpt lat="43.5106468" lon="10.6182842"><ele>283.0</ele><time>2026-04-18T06:47:14.345Z</time></trkpt><trkpt lat="43.5107376" lon="10.618228"><ele>280.5</ele><time>2026-04-18T06:47:15.346Z</time></trkpt><trkpt lat="43.5108426" lon="10.6181995"><ele>278.0</ele><time>2026-04-18T06:47:16.346Z</time></trkpt><trkpt lat="43.5109524" lon="10.6181953"><ele>275.5</ele><time>2026-04-18T06:47:17.345Z</time></trkpt><trkpt lat="43.5110717" lon="10.6182109"><ele>273.0</ele><time>2026-04-18T06:47:18.341Z</time></trkpt><trkpt lat="43.5111888" lon="10.6182312"><ele>270.75</ele><time>2026-04-18T06:47:19.344Z</time></trkpt><trkpt lat="43.5113083" lon="10.6182544"><ele>268.5</ele><time>2026-04-18T06:47:20.345Z</time></trkpt><trkpt lat="43.5114282" lon="10.6182796"><ele>266.25</ele><time>2026-04-18T06:47:21.344Z</time></trkpt><trkpt lat="43.5115455" lon="10.6183121"><ele>264.0</ele><time>2026-04-18T06:47:22.343Z</time></trkpt><trkpt lat="43.5116527" lon="10.6183488"><ele>264.0</ele><time>2026-04-18T06:47:23.342Z</time></trkpt><trkpt lat="43.511754" lon="10.6183962"><ele>264.0</ele><time>2026-04-18T06:47:24.343Z</time></trkpt><trkpt lat="43.5118493" lon="10.6184547"><ele>264.0</ele><time>2026-04-18T06:47:25.345Z</time></trkpt><trkpt lat="43.5119373" lon="10.6185329"><ele>264.0</ele><time>2026-04-18T06:47:26.345Z</time></trkpt><trkpt lat="43.5120235" lon="10.6186209"><ele>264.0</ele><time>2026-04-18T06:47:27.344Z</time></trkpt><trkpt lat="43.512113" lon="10.6187065"><ele>261.75</ele><time>2026-04-18T06:47:28.342Z</time></trkpt><trkpt lat="43.5122092" lon="10.618787"><ele>259.5</ele><time>2026-04-18T06:47:29.345Z</time></trkpt><trkpt lat="43.5123139" lon="10.6188562"><ele>257.25</ele><time>2026-04-18T06:47:30.345Z</time></trkpt><trkpt lat="43.5124305" lon="10.6189182"><ele>255.0</ele><time>2026-04-18T06:47:31.345Z</time></trkpt><trkpt lat="43.5125608" lon="10.6189769"><ele>255.0</ele><time>2026-04-18T06:47:32.346Z</time></trkpt><trkpt lat="43.5126987" lon="10.6190388"><ele>255.0</ele><time>2026-04-18T06:47:33.342Z</time></trkpt><trkpt lat="43.5128444" lon="10.619108"><ele>255.0</ele><time>2026-04-18T06:47:34.345Z</time></trkpt><trkpt lat="43.5129919" lon="10.6191792"><ele>252.0</ele><time>2026-04-18T06:47:35.347Z</time></trkpt><trkpt lat="43.5131402" lon="10.6192542"><ele>249.0</ele><time>2026-04-18T06:47:36.345Z</time></trkpt><trkpt lat="43.5132871" lon="10.619325"><ele>246.0</ele><time>2026-04-18T06:47:37.345Z</time></trkpt><trkpt lat="43.513432" lon="10.6193949"><ele>246.0</ele><time>2026-04-18T06:47:38.345Z</time></trkpt><trkpt lat="43.5135677" lon="10.6194603"><ele>246.0</ele><time>2026-04-18T06:47:39.345Z</time></trkpt><trkpt lat="43.5136914" lon="10.619519"><ele>246.0</ele><time>2026-04-18T06:47:40.346Z</time></trkpt><trkpt lat="43.5138055" lon="10.6195744"><ele>246.0</ele><time>2026-04-18T06:47:41.344Z</time></trkpt><trkpt lat="43.5139064" lon="10.6196252"><ele>244.33333333333334</ele><time>2026-04-18T06:47:42.343Z</time></trkpt><trkpt lat="43.5139946" lon="10.6196783"><ele>242.66666666666669</ele><time>2026-04-18T06:47:43.343Z</time></trkpt><trkpt lat="43.5140684" lon="10.6197402"><ele>241.0</ele><time>2026-04-18T06:47:44.343Z</time></trkpt><trkpt lat="43.5141254" lon="10.6198126"><ele>239.33333333333334</ele><time>2026-04-18T06:47:45.343Z</time></trkpt><trkpt lat="43.5141627" lon="10.6198885"><ele>237.66666666666669</ele><time>2026-04-18T06:47:46.345Z</time></trkpt><trkpt lat="43.5141566" lon="10.6199833"><ele>236.0</ele><time>2026-04-18T06:47:47.342Z</time></trkpt><trkpt lat="43.5141225" lon="10.6201052"><ele>236.0</ele><time>2026-04-18T06:47:48.345Z</time></trkpt><trkpt lat="43.5140711" lon="10.6202189"><ele>236.00000000000003</ele><time>2026-04-18T06:47:49.345Z</time></trkpt><trkpt lat="43.5140067" lon="10.6203456"><ele>236.00000000000003</ele><time>2026-04-18T06:47:50.345Z</time></trkpt><trkpt lat="43.5139419" lon="10.6204502"><ele>236.0</ele><time>2026-04-18T06:47:51.345Z</time></trkpt><trkpt lat="43.5138787" lon="10.6205524"><ele>236.0</ele><time>2026-04-18T06:47:52.345Z</time></trkpt><trkpt lat="43.5138119" lon="10.6206499"><ele>235.66666666666669</ele><time>2026-04-18T06:47:53.345Z</time></trkpt><trkpt lat="43.5137485" lon="10.6207431"><ele>235.33333333333334</ele><time>2026-04-18T06:47:54.345Z</time></trkpt><trkpt lat="43.5136824" lon="10.6208327"><ele>235.0</ele><time>2026-04-18T06:47:55.345Z</time></trkpt><trkpt lat="43.5136156" lon="10.6209196"><ele>234.66666666666669</ele><time>2026-04-18T06:47:56.345Z</time></trkpt><trkpt lat="43.5135551" lon="10.6210046"><ele>234.33333333333334</ele><time>2026-04-18T06:47:57.346Z</time></trkpt><trkpt lat="43.5135062" lon="10.6210918"><ele>234.0</ele><time>2026-04-18T06:47:58.342Z</time></trkpt><trkpt lat="43.5134697" lon="10.6211804"><ele>232.66666666666666</ele><time>2026-04-18T06:47:59.345Z</time></trkpt><trkpt lat="43.5134457" lon="10.6212802"><ele>231.33333333333331</ele><time>2026-04-18T06:48:00.345Z</time></trkpt><trkpt lat="43.5134527" lon="10.6213852"><ele>230.0</ele><time>2026-04-18T06:48:01.346Z</time></trkpt><trkpt lat="43.5134749" lon="10.6214833"><ele>228.66666666666666</ele><time>2026-04-18T06:48:02.345Z</time></trkpt><trkpt lat="43.5135259" lon="10.6215695"><ele>227.33333333333331</ele><time>2026-04-18T06:48:03.345Z</time></trkpt><trkpt lat="43.5136231" lon="10.6216201"><ele>226.0</ele><time>2026-04-18T06:48:04.345Z</time></trkpt><trkpt lat="43.5137319" lon="10.6216529"><ele>225.25</ele><time>2026-04-18T06:48:05.345Z</time></trkpt><trkpt lat="43.5138454" lon="10.6216836"><ele>224.5</ele><time>2026-04-18T06:48:06.345Z</time></trkpt><trkpt lat="43.513959" lon="10.6217197"><ele>223.75</ele><time>2026-04-18T06:48:07.343Z</time></trkpt><trkpt lat="43.5140724" lon="10.6217651"><ele>223.0</ele><time>2026-04-18T06:48:08.343Z</time></trkpt><trkpt lat="43.5141817" lon="10.6218228"><ele>223.0</ele><time>2026-04-18T06:48:09.345Z</time></trkpt><trkpt lat="43.514289" lon="10.6218855"><ele>223.0</ele><time>2026-04-18T06:48:10.345Z</time></trkpt><trkpt lat="43.5143852" lon="10.6219534"><ele>223.0</ele><time>2026-04-18T06:48:11.345Z</time></trkpt><trkpt lat="43.5144815" lon="10.6220135"><ele>223.0</ele><time>2026-04-18T06:48:12.346Z</time></trkpt><trkpt lat="43.5145885" lon="10.6220666"><ele>223.0</ele><time>2026-04-18T06:48:13.345Z</time></trkpt><trkpt lat="43.5147145" lon="10.6221177"><ele>220.0</ele><time>2026-04-18T06:48:14.342Z</time></trkpt><trkpt lat="43.5148622" lon="10.6221557"><ele>217.0</ele><time>2026-04-18T06:48:15.345Z</time></trkpt><trkpt lat="43.5150298" lon="10.622177"><ele>214.0</ele><time>2026-04-18T06:48:16.346Z</time></trkpt><trkpt lat="43.5152027" lon="10.6221933"><ele>214.0</ele><time>2026-04-18T06:48:17.345Z</time></trkpt><trkpt lat="43.5153703" lon="10.6222065"><ele>214.0</ele><time>2026-04-18T06:48:18.344Z</time></trkpt><trkpt lat="43.5155338" lon="10.6222135"><ele>214.0</ele><time>2026-04-18T06:48:19.346Z</time></trkpt><trkpt lat="43.5156958" lon="10.6222148"><ele>212.0</ele><time>2026-04-18T06:48:20.344Z</time></trkpt><trkpt lat="43.5158506" lon="10.622222"><ele>210.0</ele><time>2026-04-18T06:48:21.345Z</time></trkpt><trkpt lat="43.5160047" lon="10.6222459"><ele>208.0</ele><time>2026-04-18T06:48:22.346Z</time></trkpt><trkpt lat="43.5161486" lon="10.6222895"><ele>206.75</ele><time>2026-04-18T06:48:23.345Z</time></trkpt><trkpt lat="43.5162779" lon="10.6223574"><ele>205.5</ele><time>2026-04-18T06:48:24.345Z</time></trkpt><trkpt lat="43.5163962" lon="10.6224537"><ele>204.25</ele><time>2026-04-18T06:48:25.346Z</time></trkpt><trkpt lat="43.5165029" lon="10.6225677"><ele>203.0</ele><time>2026-04-18T06:48:26.345Z</time></trkpt><trkpt lat="43.5165962" lon="10.6226923"><ele>202.75</ele><time>2026-04-18T06:48:27.342Z</time></trkpt><trkpt lat="43.5166794" lon="10.6228354"><ele>202.5</ele><time>2026-04-18T06:48:28.345Z</time></trkpt><trkpt lat="43.5167539" lon="10.622994"><ele>202.25</ele><time>2026-04-18T06:48:29.343Z</time></trkpt><trkpt lat="43.5168174" lon="10.6231563"><ele>202.0</ele><time>2026-04-18T06:48:30.346Z</time></trkpt><trkpt lat="43.5168708" lon="10.6233256"><ele>202.0</ele><time>2026-04-18T06:48:31.345Z</time></trkpt><trkpt lat="43.5169191" lon="10.6234995"><ele>202.0</ele><time>2026-04-18T06:48:32.345Z</time></trkpt><trkpt lat="43.5169624" lon="10.6236612"><ele>202.0</ele><time>2026-04-18T06:48:33.346Z</time></trkpt><trkpt lat="43.5170049" lon="10.6238003"><ele>202.0</ele><time>2026-04-18T06:48:34.346Z</time></trkpt><trkpt lat="43.5170617" lon="10.6239201"><ele>199.5</ele><time>2026-04-18T06:48:35.345Z</time></trkpt><trkpt lat="43.5171454" lon="10.6240266"><ele>197.0</ele><time>2026-04-18T06:48:36.342Z</time></trkpt><trkpt lat="43.5172641" lon="10.6241071"><ele>194.5</ele><time>2026-04-18T06:48:37.345Z</time></trkpt><trkpt lat="43.517407" lon="10.624167"><ele>192.0</ele><time>2026-04-18T06:48:38.342Z</time></trkpt><trkpt lat="43.5175638" lon="10.6242086"><ele>192.0</ele><time>2026-04-18T06:48:39.347Z</time></trkpt><trkpt lat="43.5177242" lon="10.6242419"><ele>192.0</ele><time>2026-04-18T06:48:40.346Z</time></trkpt><trkpt lat="43.5178832" lon="10.6242732"><ele>192.0</ele><time>2026-04-18T06:48:41.346Z</time></trkpt><trkpt lat="43.5180415" lon="10.6243144"><ele>188.0</ele><time>2026-04-18T06:48:42.342Z</time></trkpt><trkpt lat="43.5181985" lon="10.6243532"><ele>184.0</ele><time>2026-04-18T06:48:43.346Z</time></trkpt><trkpt lat="43.5183486" lon="10.6243852"><ele>180.0</ele><time>2026-04-18T06:48:44.347Z</time></trkpt><trkpt lat="43.5184968" lon="10.6244202"><ele>180.0</ele><time>2026-04-18T06:48:45.346Z</time></trkpt><trkpt lat="43.5186405" lon="10.6244585"><ele>180.0</ele><time>2026-04-18T06:48:46.345Z</time></trkpt><trkpt lat="43.5187761" lon="10.6244938"><ele>180.0</ele><time>2026-04-18T06:48:47.345Z</time></trkpt><trkpt lat="43.5189027" lon="10.6245279"><ele>180.0</ele><time>2026-04-18T06:48:48.345Z</time></trkpt><trkpt lat="43.519018" lon="10.6245587"><ele>178.4</ele><time>2026-04-18T06:48:49.345Z</time></trkpt><trkpt lat="43.5191197" lon="10.6245855"><ele>176.8</ele><time>2026-04-18T06:48:50.347Z</time></trkpt><trkpt lat="43.5192095" lon="10.6246162"><ele>175.2</ele><time>2026-04-18T06:48:51.346Z</time></trkpt><trkpt lat="43.5192865" lon="10.6246451"><ele>173.6</ele><time>2026-04-18T06:48:52.345Z</time></trkpt><trkpt lat="43.5193897" lon="10.6246971"><ele>172.0</ele><time>2026-04-18T06:48:54.345Z</time></trkpt><trkpt lat="43.5194547" lon="10.6247365"><ele>172.0</ele><time>2026-04-18T06:48:56.345Z</time></trkpt><trkpt lat="43.5195573" lon="10.6247651"><ele>172.0</ele><time>2026-04-18T06:48:58.345Z</time></trkpt><trkpt lat="43.5196209" lon="10.6247753"><ele>172.0</ele><time>2026-04-18T06:48:59.346Z</time></trkpt><trkpt lat="43.519683" lon="10.6248217"><ele>172.0</ele><time>2026-04-18T06:49:00.345Z</time></trkpt><trkpt lat="43.5197563" lon="10.6249054"><ele>172.0</ele><time>2026-04-18T06:49:01.345Z</time></trkpt><trkpt lat="43.5198295" lon="10.6249934"><ele>172.0</ele><time>2026-04-18T06:49:02.348Z</time></trkpt><trkpt lat="43.5199058" lon="10.6250702"><ele>170.6</ele><time>2026-04-18T06:49:03.346Z</time></trkpt><trkpt lat="43.5199872" lon="10.6251424"><ele>169.2</ele><time>2026-04-18T06:49:04.346Z</time></trkpt><trkpt lat="43.5200759" lon="10.6252245"><ele>167.8</ele><time>2026-04-18T06:49:05.343Z</time></trkpt><trkpt lat="43.5201708" lon="10.6253106"><ele>166.4</ele><time>2026-04-18T06:49:06.346Z</time></trkpt><trkpt lat="43.5202741" lon="10.6253871"><ele>165.0</ele><time>2026-04-18T06:49:07.342Z</time></trkpt><trkpt lat="43.5203757" lon="10.6254574"><ele>164.2</ele><time>2026-04-18T06:49:08.343Z</time></trkpt><trkpt lat="43.5204648" lon="10.6255234"><ele>163.4</ele><time>2026-04-18T06:49:09.346Z</time></trkpt><trkpt lat="43.520539" lon="10.6256021"><ele>162.60000000000002</ele><time>2026-04-18T06:49:10.342Z</time></trkpt><trkpt lat="43.5205954" lon="10.6256947"><ele>161.8</ele><time>2026-04-18T06:49:11.344Z</time></trkpt><trkpt lat="43.5206394" lon="10.6258171"><ele>161.0</ele><time>2026-04-18T06:49:12.344Z</time></trkpt><trkpt lat="43.5206729" lon="10.6259545"><ele>161.0</ele><time>2026-04-18T06:49:13.343Z</time></trkpt><trkpt lat="43.5207019" lon="10.6260765"><ele>161.0</ele><time>2026-04-18T06:49:14.346Z</time></trkpt><trkpt lat="43.5207413" lon="10.6261739"><ele>161.0</ele><time>2026-04-18T06:49:15.347Z</time></trkpt><trkpt lat="43.5207918" lon="10.6262521"><ele>161.0</ele><time>2026-04-18T06:49:16.346Z</time></trkpt><trkpt lat="43.5208566" lon="10.6263142"><ele>161.0</ele><time>2026-04-18T06:49:17.345Z</time></trkpt><trkpt lat="43.5209321" lon="10.6263671"><ele>161.0</ele><time>2026-04-18T06:49:18.343Z</time></trkpt><trkpt lat="43.5210174" lon="10.6264194"><ele>161.0</ele><time>2026-04-18T06:49:19.343Z</time></trkpt><trkpt lat="43.5211126" lon="10.6264767"><ele>161.0</ele><time>2026-04-18T06:49:20.343Z</time></trkpt><trkpt lat="43.5212174" lon="10.626543"><ele>161.0</ele><time>2026-04-18T06:49:21.344Z</time></trkpt><trkpt lat="43.5213308" lon="10.6266123"><ele>161.0</ele><time>2026-04-18T06:49:22.343Z</time></trkpt><trkpt lat="43.521449" lon="10.6266872"><ele>161.0</ele><time>2026-04-18T06:49:23.347Z</time></trkpt><trkpt lat="43.5215722" lon="10.6267613"><ele>161.0</ele><time>2026-04-18T06:49:24.342Z</time></trkpt><trkpt lat="43.5216998" lon="10.626827"><ele>161.0</ele><time>2026-04-18T06:49:25.343Z</time></trkpt><trkpt lat="43.5218278" lon="10.6268886"><ele>161.0</ele><time>2026-04-18T06:49:26.346Z</time></trkpt><trkpt lat="43.5219513" lon="10.6269442"><ele>160.0</ele><time>2026-04-18T06:49:27.343Z</time></trkpt><trkpt lat="43.5220684" lon="10.6269873"><ele>159.0</ele><time>2026-04-18T06:49:28.345Z</time></trkpt><trkpt lat="43.5221889" lon="10.6270267"><ele>158.0</ele><time>2026-04-18T06:49:29.343Z</time></trkpt><trkpt lat="43.5223185" lon="10.6270636"><ele>157.0</ele><time>2026-04-18T06:49:30.342Z</time></trkpt><trkpt lat="43.5224561" lon="10.6270994"><ele>157.0</ele><time>2026-04-18T06:49:31.343Z</time></trkpt><trkpt lat="43.5225935" lon="10.6271367"><ele>157.0</ele><time>2026-04-18T06:49:32.343Z</time></trkpt><trkpt lat="43.522727" lon="10.6271761"><ele>157.0</ele><time>2026-04-18T06:49:33.342Z</time></trkpt><trkpt lat="43.5228477" lon="10.6272128"><ele>157.0</ele><time>2026-04-18T06:49:34.343Z</time></trkpt><trkpt lat="43.5229526" lon="10.6272478"><ele>155.83333333333334</ele><time>2026-04-18T06:49:35.342Z</time></trkpt><trkpt lat="43.52304" lon="10.6272791"><ele>154.66666666666669</ele><time>2026-04-18T06:49:36.343Z</time></trkpt><trkpt lat="43.5231239" lon="10.6273102"><ele>153.5</ele><time>2026-04-18T06:49:37.342Z</time></trkpt><trkpt lat="43.5232069" lon="10.6273508"><ele>152.33333333333334</ele><time>2026-04-18T06:49:38.343Z</time></trkpt><trkpt lat="43.5232777" lon="10.6274123"><ele>151.16666666666666</ele><time>2026-04-18T06:49:39.342Z</time></trkpt><trkpt lat="43.5233425" lon="10.6275021"><ele>150.0</ele><time>2026-04-18T06:49:40.343Z</time></trkpt><trkpt lat="43.5234056" lon="10.6276017"><ele>150.0</ele><time>2026-04-18T06:49:41.343Z</time></trkpt><trkpt lat="43.5234702" lon="10.6276956"><ele>150.0</ele><time>2026-04-18T06:49:42.343Z</time></trkpt><trkpt lat="43.5235354" lon="10.6277649"><ele>150.0</ele><time>2026-04-18T06:49:43.343Z</time></trkpt><trkpt lat="43.5236006" lon="10.6278185"><ele>150.0</ele><time>2026-04-18T06:49:44.343Z</time></trkpt><trkpt lat="43.5236691" lon="10.6278543"><ele>150.0</ele><time>2026-04-18T06:49:45.344Z</time></trkpt><trkpt lat="43.5237495" lon="10.6278574"><ele>150.0</ele><time>2026-04-18T06:49:46.346Z</time></trkpt><trkpt lat="43.5238384" lon="10.6278508"><ele>149.0</ele><time>2026-04-18T06:49:47.345Z</time></trkpt><trkpt lat="43.5239188" lon="10.6278525"><ele>148.0</ele><time>2026-04-18T06:49:48.346Z</time></trkpt><trkpt lat="43.5240008" lon="10.6278446"><ele>147.0</ele><time>2026-04-18T06:49:49.346Z</time></trkpt><trkpt lat="43.5240708" lon="10.6278461"><ele>146.0</ele><time>2026-04-18T06:49:50.345Z</time></trkpt><trkpt lat="43.5241342" lon="10.6278507"><ele>145.0</ele><time>2026-04-18T06:49:51.347Z</time></trkpt><trkpt lat="43.5242267" lon="10.6278134"><ele>144.0</ele><time>2026-04-18T06:49:53.343Z</time></trkpt><trkpt lat="43.5242679" lon="10.6276933"><ele>143.6</ele><time>2026-04-18T06:49:55.345Z</time></trkpt><trkpt lat="43.52426" lon="10.6276019"><ele>143.2</ele><time>2026-04-18T06:49:56.345Z</time></trkpt><trkpt lat="43.5242527" lon="10.6274859"><ele>142.79999999999998</ele><time>2026-04-18T06:49:57.347Z</time></trkpt><trkpt lat="43.5242561" lon="10.6273498"><ele>142.4</ele><time>2026-04-18T06:49:58.344Z</time></trkpt><trkpt lat="43.5242706" lon="10.6271975"><ele>142.0</ele><time>2026-04-18T06:49:59.345Z</time></trkpt><trkpt lat="43.5242831" lon="10.6270439"><ele>142.16666666666669</ele><time>2026-04-18T06:50:00.343Z</time></trkpt><trkpt lat="43.5243005" lon="10.6269013"><ele>142.33333333333334</ele><time>2026-04-18T06:50:01.343Z</time></trkpt><trkpt lat="43.5243184" lon="10.6267758"><ele>142.5</ele><time>2026-04-18T06:50:02.346Z</time></trkpt><trkpt lat="43.5243334" lon="10.6266609"><ele>142.66666666666666</ele><time>2026-04-18T06:50:03.343Z</time></trkpt><trkpt lat="43.5243456" lon="10.6265584"><ele>142.83333333333331</ele><time>2026-04-18T06:50:04.343Z</time></trkpt><trkpt lat="43.5243556" lon="10.6264648"><ele>143.0</ele><time>2026-04-18T06:50:05.343Z</time></trkpt><trkpt lat="43.5243787" lon="10.6263756"><ele>143.0</ele><time>2026-04-18T06:50:06.345Z</time></trkpt><trkpt lat="43.5244153" lon="10.6262913"><ele>143.0</ele><time>2026-04-18T06:50:07.342Z</time></trkpt><trkpt lat="43.5244625" lon="10.6262006"><ele>143.0</ele><time>2026-04-18T06:50:08.342Z</time></trkpt><trkpt lat="43.5245281" lon="10.6260956"><ele>143.0</ele><time>2026-04-18T06:50:09.342Z</time></trkpt><trkpt lat="43.5246062" lon="10.6259648"><ele>143.0</ele><time>2026-04-18T06:50:10.345Z</time></trkpt><trkpt lat="43.5246909" lon="10.6258233"><ele>140.25</ele><time>2026-04-18T06:50:11.345Z</time></trkpt><trkpt lat="43.5247779" lon="10.6256735"><ele>137.5</ele><time>2026-04-18T06:50:12.346Z</time></trkpt><trkpt lat="43.5248645" lon="10.6255273"><ele>134.75</ele><time>2026-04-18T06:50:13.343Z</time></trkpt><trkpt lat="43.5249512" lon="10.6253877"><ele>132.0</ele><time>2026-04-18T06:50:14.346Z</time></trkpt><trkpt lat="43.5250327" lon="10.625252"><ele>131.0</ele><time>2026-04-18T06:50:15.343Z</time></trkpt><trkpt lat="43.5251138" lon="10.6251229"><ele>130.0</ele><time>2026-04-18T06:50:16.346Z</time></trkpt><trkpt lat="43.5252032" lon="10.6249967"><ele>129.0</ele><time>2026-04-18T06:50:17.346Z</time></trkpt><trkpt lat="43.5252967" lon="10.6248729"><ele>128.0</ele><time>2026-04-18T06:50:18.345Z</time></trkpt><trkpt lat="43.5253928" lon="10.6247497"><ele>127.25</ele><time>2026-04-18T06:50:19.346Z</time></trkpt><trkpt lat="43.5254925" lon="10.6246281"><ele>126.5</ele><time>2026-04-18T06:50:20.346Z</time></trkpt><trkpt lat="43.5255906" lon="10.6245119"><ele>125.75</ele><time>2026-04-18T06:50:21.343Z</time></trkpt><trkpt lat="43.5256833" lon="10.6243996"><ele>125.0</ele><time>2026-04-18T06:50:22.343Z</time></trkpt><trkpt lat="43.5257728" lon="10.624293"><ele>123.6</ele><time>2026-04-18T06:50:23.346Z</time></trkpt><trkpt lat="43.5258538" lon="10.624185"><ele>122.2</ele><time>2026-04-18T06:50:24.347Z</time></trkpt><trkpt lat="43.5259273" lon="10.6240784"><ele>120.80000000000001</ele><time>2026-04-18T06:50:25.346Z</time></trkpt><trkpt lat="43.5259976" lon="10.6239653"><ele>119.4</ele><time>2026-04-18T06:50:26.343Z</time></trkpt><trkpt lat="43.5260653" lon="10.6238511"><ele>118.0</ele><time>2026-04-18T06:50:27.344Z</time></trkpt><trkpt lat="43.5261274" lon="10.6237475"><ele>118.00000000000001</ele><time>2026-04-18T06:50:28.345Z</time></trkpt><trkpt lat="43.5261767" lon="10.6236591"><ele>118.0</ele><time>2026-04-18T06:50:29.346Z</time></trkpt><trkpt lat="43.5262164" lon="10.623574"><ele>118.0</ele><time>2026-04-18T06:50:30.343Z</time></trkpt><trkpt lat="43.5262387" lon="10.6234793"><ele>118.0</ele><time>2026-04-18T06:50:31.346Z</time></trkpt><trkpt lat="43.5262427" lon="10.6233723"><ele>118.00000000000001</ele><time>2026-04-18T06:50:32.346Z</time></trkpt><trkpt lat="43.5262192" lon="10.6232592"><ele>118.0</ele><time>2026-04-18T06:50:33.343Z</time></trkpt><trkpt lat="43.5261755" lon="10.6231426"><ele>117.80000000000001</ele><time>2026-04-18T06:50:34.343Z</time></trkpt><trkpt lat="43.5261099" lon="10.6230325"><ele>117.60000000000001</ele><time>2026-04-18T06:50:35.343Z</time></trkpt><trkpt lat="43.5260339" lon="10.6229308"><ele>117.39999999999999</ele><time>2026-04-18T06:50:36.345Z</time></trkpt><trkpt lat="43.5259592" lon="10.6228344"><ele>117.19999999999999</ele><time>2026-04-18T06:50:37.344Z</time></trkpt><trkpt lat="43.5258837" lon="10.6227443"><ele>117.0</ele><time>2026-04-18T06:50:38.343Z</time></trkpt><trkpt lat="43.5258055" lon="10.6226605"><ele>115.6</ele><time>2026-04-18T06:50:39.344Z</time></trkpt><trkpt lat="43.5257225" lon="10.622585"><ele>114.19999999999999</ele><time>2026-04-18T06:50:40.346Z</time></trkpt><trkpt lat="43.5256338" lon="10.622514"><ele>112.8</ele><time>2026-04-18T06:50:41.344Z</time></trkpt><trkpt lat="43.5255448" lon="10.6224477"><ele>111.4</ele><time>2026-04-18T06:50:42.343Z</time></trkpt><trkpt lat="43.5254608" lon="10.6223813"><ele>110.0</ele><time>2026-04-18T06:50:43.343Z</time></trkpt><trkpt lat="43.5253955" lon="10.6223144"><ele>109.99999999999999</ele><time>2026-04-18T06:50:44.351Z</time></trkpt><trkpt lat="43.5253388" lon="10.622236"><ele>110.0</ele><time>2026-04-18T06:50:45.343Z</time></trkpt><trkpt lat="43.5252955" lon="10.6221596"><ele>110.0</ele><time>2026-04-18T06:50:46.343Z</time></trkpt><trkpt lat="43.5252472" lon="10.622039"><ele>110.0</ele><time>2026-04-18T06:50:48.344Z</time></trkpt><trkpt lat="43.5251921" lon="10.6218931"><ele>109.99999999999999</ele><time>2026-04-18T06:50:50.343Z</time></trkpt><trkpt lat="43.5251734" lon="10.621809"><ele>110.0</ele><time>2026-04-18T06:50:51.343Z</time></trkpt><trkpt lat="43.5251745" lon="10.6217202"><ele>110.6</ele><time>2026-04-18T06:50:52.342Z</time></trkpt><trkpt lat="43.5252337" lon="10.621604"><ele>111.2</ele><time>2026-04-18T06:50:54.343Z</time></trkpt><trkpt lat="43.5253057" lon="10.6215571"><ele>111.80000000000001</ele><time>2026-04-18T06:50:56.343Z</time></trkpt><trkpt lat="43.5254172" lon="10.6215365"><ele>112.4</ele><time>2026-04-18T06:50:58.343Z</time></trkpt><trkpt lat="43.5255006" lon="10.6215367"><ele>113.0</ele><time>2026-04-18T06:50:59.342Z</time></trkpt><trkpt lat="43.5256059" lon="10.6215416"><ele>113.0</ele><time>2026-04-18T06:51:00.345Z</time></trkpt><trkpt lat="43.5257179" lon="10.6215413"><ele>113.00000000000001</ele><time>2026-04-18T06:51:01.341Z</time></trkpt><trkpt lat="43.5258264" lon="10.621538"><ele>113.00000000000001</ele><time>2026-04-18T06:51:02.345Z</time></trkpt><trkpt lat="43.5259325" lon="10.6215389"><ele>113.0</ele><time>2026-04-18T06:51:03.345Z</time></trkpt><trkpt lat="43.5260423" lon="10.6215444"><ele>113.0</ele><time>2026-04-18T06:51:04.345Z</time></trkpt><trkpt lat="43.5261572" lon="10.6215477"><ele>112.25</ele><time>2026-04-18T06:51:05.341Z</time></trkpt><trkpt lat="43.5262783" lon="10.6215515"><ele>111.5</ele><time>2026-04-18T06:51:06.341Z</time></trkpt><trkpt lat="43.5263925" lon="10.6215563"><ele>110.75</ele><time>2026-04-18T06:51:07.345Z</time></trkpt><trkpt lat="43.5265056" lon="10.6215598"><ele>110.0</ele><time>2026-04-18T06:51:08.345Z</time></trkpt><trkpt lat="43.5266209" lon="10.6215628"><ele>110.0</ele><time>2026-04-18T06:51:09.346Z</time></trkpt><trkpt lat="43.5267317" lon="10.6215661"><ele>110.0</ele><time>2026-04-18T06:51:10.345Z</time></trkpt><trkpt lat="43.526835" lon="10.6215712"><ele>110.0</ele><time>2026-04-18T06:51:11.352Z</time></trkpt><trkpt lat="43.526929" lon="10.6215748"><ele>110.0</ele><time>2026-04-18T06:51:12.345Z</time></trkpt><trkpt lat="43.5270123" lon="10.621575"><ele>110.0</ele><time>2026-04-18T06:51:13.346Z</time></trkpt><trkpt lat="43.5270958" lon="10.6215764"><ele>109.0</ele><time>2026-04-18T06:51:14.344Z</time></trkpt><trkpt lat="43.527189" lon="10.6215791"><ele>108.0</ele><time>2026-04-18T06:51:15.346Z</time></trkpt><trkpt lat="43.5272893" lon="10.6215876"><ele>107.0</ele><time>2026-04-18T06:51:16.345Z</time></trkpt><trkpt lat="43.5273887" lon="10.6215918"><ele>106.0</ele><time>2026-04-18T06:51:17.343Z</time></trkpt><trkpt lat="43.5274871" lon="10.6215889"><ele>105.0</ele><time>2026-04-18T06:51:18.343Z</time></trkpt><trkpt lat="43.5275807" lon="10.6215715"><ele>105.0</ele><time>2026-04-18T06:51:19.342Z</time></trkpt><trkpt lat="43.5276704" lon="10.6215337"><ele>105.0</ele><time>2026-04-18T06:51:20.342Z</time></trkpt><trkpt lat="43.5277584" lon="10.6214843"><ele>105.0</ele><time>2026-04-18T06:51:21.343Z</time></trkpt><trkpt lat="43.5278465" lon="10.621432"><ele>105.0</ele><time>2026-04-18T06:51:22.344Z</time></trkpt><trkpt lat="43.5279376" lon="10.6213777"><ele>105.0</ele><time>2026-04-18T06:51:23.342Z</time></trkpt><trkpt lat="43.528037" lon="10.6213182"><ele>105.0</ele><time>2026-04-18T06:51:24.341Z</time></trkpt><trkpt lat="43.5281382" lon="10.6212594"><ele>105.0</ele><time>2026-04-18T06:51:25.341Z</time></trkpt><trkpt lat="43.5282414" lon="10.6212014"><ele>105.0</ele><time>2026-04-18T06:51:26.342Z</time></trkpt><trkpt lat="43.5283403" lon="10.6211493"><ele>105.0</ele><time>2026-04-18T06:51:27.342Z</time></trkpt><trkpt lat="43.5284336" lon="10.6210998"><ele>105.0</ele><time>2026-04-18T06:51:28.344Z</time></trkpt><trkpt lat="43.5285277" lon="10.6210545"><ele>105.0</ele><time>2026-04-18T06:51:29.342Z</time></trkpt><trkpt lat="43.5286291" lon="10.6210172"><ele>105.0</ele><time>2026-04-18T06:51:30.345Z</time></trkpt><trkpt lat="43.5287358" lon="10.6209781"><ele>105.0</ele><time>2026-04-18T06:51:31.345Z</time></trkpt><trkpt lat="43.528849" lon="10.6209319"><ele>105.0</ele><time>2026-04-18T06:51:32.342Z</time></trkpt><trkpt lat="43.5289676" lon="10.6208909"><ele>103.5</ele><time>2026-04-18T06:51:33.345Z</time></trkpt><trkpt lat="43.5290946" lon="10.6208563"><ele>102.0</ele><time>2026-04-18T06:51:34.346Z</time></trkpt><trkpt lat="43.5292231" lon="10.6208307"><ele>100.5</ele><time>2026-04-18T06:51:35.341Z</time></trkpt><trkpt lat="43.5293534" lon="10.6208248"><ele>99.0</ele><time>2026-04-18T06:51:36.346Z</time></trkpt><trkpt lat="43.5294865" lon="10.6208343"><ele>98.0</ele><time>2026-04-18T06:51:37.345Z</time></trkpt><trkpt lat="43.5296244" lon="10.6208542"><ele>97.0</ele><time>2026-04-18T06:51:38.345Z</time></trkpt><trkpt lat="43.5297627" lon="10.6208865"><ele>96.0</ele><time>2026-04-18T06:51:39.345Z</time></trkpt><trkpt lat="43.5299014" lon="10.620927"><ele>95.0</ele><time>2026-04-18T06:51:40.346Z</time></trkpt><trkpt lat="43.530043" lon="10.6209677"><ele>95.0</ele><time>2026-04-18T06:51:41.345Z</time></trkpt><trkpt lat="43.5301834" lon="10.621006"><ele>95.0</ele><time>2026-04-18T06:51:42.345Z</time></trkpt><trkpt lat="43.530319" lon="10.6210475"><ele>95.0</ele><time>2026-04-18T06:51:43.346Z</time></trkpt><trkpt lat="43.5304503" lon="10.6210785"><ele>95.0</ele><time>2026-04-18T06:51:44.345Z</time></trkpt><trkpt lat="43.5305831" lon="10.6210884"><ele>93.25</ele><time>2026-04-18T06:51:45.343Z</time></trkpt><trkpt lat="43.5307124" lon="10.6210699"><ele>91.5</ele><time>2026-04-18T06:51:46.346Z</time></trkpt><trkpt lat="43.5308326" lon="10.6210178"><ele>89.75</ele><time>2026-04-18T06:51:47.342Z</time></trkpt><trkpt lat="43.5309376" lon="10.6209327"><ele>88.0</ele><time>2026-04-18T06:51:48.345Z</time></trkpt><trkpt lat="43.5310242" lon="10.6208184"><ele>88.0</ele><time>2026-04-18T06:51:49.343Z</time></trkpt><trkpt lat="43.5311028" lon="10.6206903"><ele>88.0</ele><time>2026-04-18T06:51:50.343Z</time></trkpt><trkpt lat="43.5311609" lon="10.6205576"><ele>88.0</ele><time>2026-04-18T06:51:51.343Z</time></trkpt><trkpt lat="43.5312137" lon="10.6204295"><ele>88.0</ele><time>2026-04-18T06:51:52.344Z</time></trkpt><trkpt lat="43.5312623" lon="10.6203206"><ele>88.0</ele><time>2026-04-18T06:51:53.343Z</time></trkpt><trkpt lat="43.531301" lon="10.6202297"><ele>86.4</ele><time>2026-04-18T06:51:54.343Z</time></trkpt><trkpt lat="43.5313558" lon="10.6200982"><ele>84.80000000000001</ele><time>2026-04-18T06:51:56.343Z</time></trkpt><trkpt lat="43.5313909" lon="10.6200139"><ele>83.2</ele><time>2026-04-18T06:51:58.343Z</time></trkpt><trkpt lat="43.5314346" lon="10.6198705"><ele>81.6</ele><time>2026-04-18T06:52:24.343Z</time></trkpt><trkpt lat="43.531482" lon="10.6197856"><ele>80.0</ele><time>2026-04-18T06:52:25.343Z</time></trkpt><trkpt lat="43.5315467" lon="10.6196912"><ele>80.0</ele><time>2026-04-18T06:52:26.343Z</time></trkpt><trkpt lat="43.5316282" lon="10.6196008"><ele>80.0</ele><time>2026-04-18T06:52:27.343Z</time></trkpt><trkpt lat="43.5317197" lon="10.6195195"><ele>80.0</ele><time>2026-04-18T06:52:28.343Z</time></trkpt><trkpt lat="43.531821" lon="10.6194508"><ele>80.0</ele><time>2026-04-18T06:52:29.344Z</time></trkpt><trkpt lat="43.531932" lon="10.6193933"><ele>80.0</ele><time>2026-04-18T06:52:30.343Z</time></trkpt><trkpt lat="43.53205" lon="10.6193535"><ele>78.25</ele><time>2026-04-18T06:52:31.343Z</time></trkpt><trkpt lat="43.5321812" lon="10.6193282"><ele>76.5</ele><time>2026-04-18T06:52:32.346Z</time></trkpt><trkpt lat="43.5323246" lon="10.6193225"><ele>74.75</ele><time>2026-04-18T06:52:33.344Z</time></trkpt><trkpt lat="43.5324736" lon="10.6193463"><ele>73.0</ele><time>2026-04-18T06:52:34.343Z</time></trkpt><trkpt lat="43.5326273" lon="10.6193961"><ele>73.0</ele><time>2026-04-18T06:52:35.343Z</time></trkpt><trkpt lat="43.5327921" lon="10.6194496"><ele>73.0</ele><time>2026-04-18T06:52:36.345Z</time></trkpt><trkpt lat="43.5329665" lon="10.6195032"><ele>73.0</ele><time>2026-04-18T06:52:37.345Z</time></trkpt><trkpt lat="43.5331444" lon="10.6195606"><ele>71.66666666666666</ele><time>2026-04-18T06:52:38.346Z</time></trkpt><trkpt lat="43.533323" lon="10.6196146"><ele>70.33333333333333</ele><time>2026-04-18T06:52:39.346Z</time></trkpt><trkpt lat="43.533495" lon="10.6196601"><ele>69.0</ele><time>2026-04-18T06:52:40.346Z</time></trkpt><trkpt lat="43.5336568" lon="10.6197042"><ele>68.66666666666667</ele><time>2026-04-18T06:52:41.345Z</time></trkpt><trkpt lat="43.5338103" lon="10.6197479"><ele>68.33333333333334</ele><time>2026-04-18T06:52:42.346Z</time></trkpt><trkpt lat="43.5339596" lon="10.6197871"><ele>68.0</ele><time>2026-04-18T06:52:43.342Z</time></trkpt><trkpt lat="43.5341096" lon="10.6198252"><ele>68.0</ele><time>2026-04-18T06:52:44.344Z</time></trkpt><trkpt lat="43.534259" lon="10.6198634"><ele>68.0</ele><time>2026-04-18T06:52:45.346Z</time></trkpt><trkpt lat="43.5344099" lon="10.6198959"><ele>68.0</ele><time>2026-04-18T06:52:46.342Z</time></trkpt><trkpt lat="43.534571" lon="10.6199023"><ele>67.66666666666667</ele><time>2026-04-18T06:52:47.343Z</time></trkpt><trkpt lat="43.5347391" lon="10.6198795"><ele>67.33333333333333</ele><time>2026-04-18T06:52:48.343Z</time></trkpt><trkpt lat="43.5349112" lon="10.6198396"><ele>67.0</ele><time>2026-04-18T06:52:49.342Z</time></trkpt><trkpt lat="43.5350836" lon="10.6197961"><ele>67.0</ele><time>2026-04-18T06:52:50.342Z</time></trkpt><trkpt lat="43.5352512" lon="10.619752"><ele>67.0</ele><time>2026-04-18T06:52:51.342Z</time></trkpt><trkpt lat="43.5354107" lon="10.6197064"><ele>67.0</ele><time>2026-04-18T06:52:52.343Z</time></trkpt><trkpt lat="43.5355657" lon="10.6196654"><ele>66.0</ele><time>2026-04-18T06:52:53.342Z</time></trkpt><trkpt lat="43.5357143" lon="10.6196255"><ele>65.0</ele><time>2026-04-18T06:52:54.342Z</time></trkpt><trkpt lat="43.5358651" lon="10.6195856"><ele>64.0</ele><time>2026-04-18T06:52:55.344Z</time></trkpt><trkpt lat="43.5360212" lon="10.6195449"><ele>64.0</ele><time>2026-04-18T06:52:56.343Z</time></trkpt><trkpt lat="43.5361815" lon="10.6194998"><ele>64.0</ele><time>2026-04-18T06:52:57.344Z</time></trkpt><trkpt lat="43.536349" lon="10.6194498"><ele>64.0</ele><time>2026-04-18T06:52:58.343Z</time></trkpt><trkpt lat="43.5365126" lon="10.6194021"><ele>64.66666666666666</ele><time>2026-04-18T06:52:59.343Z</time></trkpt><trkpt lat="43.5366811" lon="10.6193548"><ele>65.33333333333333</ele><time>2026-04-18T06:53:00.342Z</time></trkpt><trkpt lat="43.5368561" lon="10.6193064"><ele>66.0</ele><time>2026-04-18T06:53:01.343Z</time></trkpt><trkpt lat="43.5370414" lon="10.6192754"><ele>65.66666666666667</ele><time>2026-04-18T06:53:02.342Z</time></trkpt><trkpt lat="43.5372325" lon="10.6192567"><ele>65.33333333333334</ele><time>2026-04-18T06:53:03.345Z</time></trkpt><trkpt lat="43.5374276" lon="10.6192418"><ele>65.0</ele><time>2026-04-18T06:53:04.343Z</time></trkpt><trkpt lat="43.5376228" lon="10.6192275"><ele>65.0</ele><time>2026-04-18T06:53:05.344Z</time></trkpt><trkpt lat="43.5378165" lon="10.6192168"><ele>65.0</ele><time>2026-04-18T06:53:06.344Z</time></trkpt><trkpt lat="43.5380067" lon="10.6192075"><ele>65.0</ele><time>2026-04-18T06:53:07.345Z</time></trkpt><trkpt lat="43.5381943" lon="10.6192004"><ele>63.66666666666667</ele><time>2026-04-18T06:53:08.345Z</time></trkpt><trkpt lat="43.5383751" lon="10.6192036"><ele>62.33333333333333</ele><time>2026-04-18T06:53:09.345Z</time></trkpt><trkpt lat="43.5385546" lon="10.6192202"><ele>61.0</ele><time>2026-04-18T06:53:10.345Z</time></trkpt><trkpt lat="43.5387328" lon="10.6192465"><ele>61.0</ele><time>2026-04-18T06:53:11.345Z</time></trkpt><trkpt lat="43.5389097" lon="10.6192711"><ele>61.0</ele><time>2026-04-18T06:53:12.345Z</time></trkpt><trkpt lat="43.5390802" lon="10.6192945"><ele>61.0</ele><time>2026-04-18T06:53:13.345Z</time></trkpt><trkpt lat="43.539247" lon="10.6193184"><ele>61.0</ele><time>2026-04-18T06:53:14.346Z</time></trkpt><trkpt lat="43.5394209" lon="10.619337"><ele>61.0</ele><time>2026-04-18T06:53:15.345Z</time></trkpt><trkpt lat="43.5395995" lon="10.6193436"><ele>61.0</ele><time>2026-04-18T06:53:16.347Z</time></trkpt><trkpt lat="43.539783" lon="10.6193315"><ele>61.0</ele><time>2026-04-18T06:53:17.346Z</time></trkpt><trkpt lat="43.5399693" lon="10.6193043"><ele>61.0</ele><time>2026-04-18T06:53:18.342Z</time></trkpt><trkpt lat="43.5401566" lon="10.6192739"><ele>61.0</ele><time>2026-04-18T06:53:19.344Z</time></trkpt><trkpt lat="43.5403433" lon="10.6192411"><ele>60.666666666666664</ele><time>2026-04-18T06:53:20.344Z</time></trkpt><trkpt lat="43.5405312" lon="10.6192107"><ele>60.33333333333333</ele><time>2026-04-18T06:53:21.344Z</time></trkpt><trkpt lat="43.5407148" lon="10.6191842"><ele>60.0</ele><time>2026-04-18T06:53:22.343Z</time></trkpt><trkpt lat="43.5408914" lon="10.6191591"><ele>60.0</ele><time>2026-04-18T06:53:23.343Z</time></trkpt><trkpt lat="43.5410677" lon="10.6191425"><ele>60.0</ele><time>2026-04-18T06:53:24.343Z</time></trkpt><trkpt lat="43.5412474" lon="10.619137"><ele>60.0</ele><time>2026-04-18T06:53:25.346Z</time></trkpt><trkpt lat="43.5414313" lon="10.6191479"><ele>59.66666666666667</ele><time>2026-04-18T06:53:26.346Z</time></trkpt><trkpt lat="43.541618" lon="10.6191799"><ele>59.333333333333336</ele><time>2026-04-18T06:53:27.346Z</time></trkpt><trkpt lat="43.541805" lon="10.61923"><ele>59.0</ele><time>2026-04-18T06:53:28.347Z</time></trkpt><trkpt lat="43.5419886" lon="10.6192884"><ele>59.0</ele><time>2026-04-18T06:53:29.346Z</time></trkpt><trkpt lat="43.5421703" lon="10.6193614"><ele>59.0</ele><time>2026-04-18T06:53:30.345Z</time></trkpt><trkpt lat="43.5423519" lon="10.6194509"><ele>59.0</ele><time>2026-04-18T06:53:31.346Z</time></trkpt><trkpt lat="43.5425322" lon="10.6195481"><ele>59.0</ele><time>2026-04-18T06:53:32.346Z</time></trkpt><trkpt lat="43.5427136" lon="10.6196456"><ele>59.0</ele><time>2026-04-18T06:53:33.345Z</time></trkpt><trkpt lat="43.5429015" lon="10.6197427"><ele>59.0</ele><time>2026-04-18T06:53:34.349Z</time></trkpt><trkpt lat="43.5430945" lon="10.6198375"><ele>58.333333333333336</ele><time>2026-04-18T06:53:35.345Z</time></trkpt><trkpt lat="43.5432882" lon="10.6199341"><ele>57.66666666666667</ele><time>2026-04-18T06:53:36.345Z</time></trkpt><trkpt lat="43.5434816" lon="10.6200265"><ele>57.0</ele><time>2026-04-18T06:53:37.347Z</time></trkpt><trkpt lat="43.5436778" lon="10.6201212"><ele>57.0</ele><time>2026-04-18T06:53:38.346Z</time></trkpt><trkpt lat="43.5438715" lon="10.6202217"><ele>57.0</ele><time>2026-04-18T06:53:39.346Z</time></trkpt><trkpt lat="43.5440632" lon="10.6203311"><ele>57.0</ele><time>2026-04-18T06:53:40.346Z</time></trkpt><trkpt lat="43.5442458" lon="10.6204407"><ele>56.66666666666667</ele><time>2026-04-18T06:53:41.345Z</time></trkpt><trkpt lat="43.5444173" lon="10.6205553"><ele>56.333333333333336</ele><time>2026-04-18T06:53:42.346Z</time></trkpt><trkpt lat="43.5445836" lon="10.6206725"><ele>56.0</ele><time>2026-04-18T06:53:43.346Z</time></trkpt><trkpt lat="43.5447471" lon="10.6207863"><ele>55.333333333333336</ele><time>2026-04-18T06:53:44.346Z</time></trkpt><trkpt lat="43.5449066" lon="10.6209032"><ele>54.66666666666667</ele><time>2026-04-18T06:53:45.346Z</time></trkpt><trkpt lat="43.5450681" lon="10.6210342"><ele>54.0</ele><time>2026-04-18T06:53:46.345Z</time></trkpt><trkpt lat="43.5452329" lon="10.6211818"><ele>53.0</ele><time>2026-04-18T06:53:47.346Z</time></trkpt><trkpt lat="43.5454016" lon="10.6213365"><ele>52.0</ele><time>2026-04-18T06:53:48.344Z</time></trkpt><trkpt lat="43.5455699" lon="10.6214989"><ele>51.0</ele><time>2026-04-18T06:53:49.343Z</time></trkpt><trkpt lat="43.545738" lon="10.621659"><ele>51.0</ele><time>2026-04-18T06:53:50.343Z</time></trkpt><trkpt lat="43.5459038" lon="10.6218142"><ele>51.0</ele><time>2026-04-18T06:53:51.343Z</time></trkpt><trkpt lat="43.5460663" lon="10.621959"><ele>51.0</ele><time>2026-04-18T06:53:52.343Z</time></trkpt><trkpt lat="43.546235" lon="10.6220863"><ele>51.0</ele><time>2026-04-18T06:53:53.344Z</time></trkpt><trkpt lat="43.5464057" lon="10.6221964"><ele>51.0</ele><time>2026-04-18T06:53:54.344Z</time></trkpt><trkpt lat="43.5465705" lon="10.6222921"><ele>51.0</ele><time>2026-04-18T06:53:55.343Z</time></trkpt><trkpt lat="43.5467364" lon="10.6223834"><ele>51.0</ele><time>2026-04-18T06:53:56.343Z</time></trkpt><trkpt lat="43.546911" lon="10.6224628"><ele>51.0</ele><time>2026-04-18T06:53:57.344Z</time></trkpt><trkpt lat="43.5470939" lon="10.6225227"><ele>51.0</ele><time>2026-04-18T06:53:58.347Z</time></trkpt><trkpt lat="43.5472873" lon="10.622567"><ele>54.0</ele><time>2026-04-18T06:53:59.345Z</time></trkpt><trkpt lat="43.5474829" lon="10.6226241"><ele>57.0</ele><time>2026-04-18T06:54:00.347Z</time></trkpt><trkpt lat="43.5476721" lon="10.6226998"><ele>60.0</ele><time>2026-04-18T06:54:01.346Z</time></trkpt><trkpt lat="43.5478524" lon="10.6227873"><ele>59.0</ele><time>2026-04-18T06:54:02.343Z</time></trkpt><trkpt lat="43.5480211" lon="10.6228728"><ele>58.0</ele><time>2026-04-18T06:54:03.347Z</time></trkpt><trkpt lat="43.5481746" lon="10.6229618"><ele>57.0</ele><time>2026-04-18T06:54:04.346Z</time></trkpt><trkpt lat="43.5483131" lon="10.623072"><ele>57.0</ele><time>2026-04-18T06:54:05.345Z</time></trkpt><trkpt lat="43.5484381" lon="10.6232077"><ele>57.0</ele><time>2026-04-18T06:54:06.343Z</time></trkpt><trkpt lat="43.548546" lon="10.6233762"><ele>57.0</ele><time>2026-04-18T06:54:07.346Z</time></trkpt><trkpt lat="43.5486296" lon="10.6235918"><ele>56.0</ele><time>2026-04-18T06:54:08.346Z</time></trkpt><trkpt lat="43.5486964" lon="10.6238241"><ele>55.0</ele><time>2026-04-18T06:54:09.349Z</time></trkpt><trkpt lat="43.548755" lon="10.6240406"><ele>54.0</ele><time>2026-04-18T06:54:10.345Z</time></trkpt><trkpt lat="43.5488181" lon="10.6242345"><ele>55.0</ele><time>2026-04-18T06:54:11.347Z</time></trkpt><trkpt lat="43.5488935" lon="10.6244152"><ele>56.0</ele><time>2026-04-18T06:54:12.343Z</time></trkpt><trkpt lat="43.5489949" lon="10.6245847"><ele>57.0</ele><time>2026-04-18T06:54:13.346Z</time></trkpt><trkpt lat="43.5491153" lon="10.6247447"><ele>57.0</ele><time>2026-04-18T06:54:14.345Z</time></trkpt><trkpt lat="43.5492414" lon="10.6249101"><ele>57.0</ele><time>2026-04-18T06:54:15.347Z</time></trkpt><trkpt lat="43.5493643" lon="10.6250672"><ele>57.0</ele><time>2026-04-18T06:54:16.345Z</time></trkpt><trkpt lat="43.5494808" lon="10.6252096"><ele>56.25</ele><time>2026-04-18T06:54:17.346Z</time></trkpt><trkpt lat="43.5495924" lon="10.6253298"><ele>55.5</ele><time>2026-04-18T06:54:18.346Z</time></trkpt><trkpt lat="43.5497153" lon="10.6254269"><ele>54.75</ele><time>2026-04-18T06:54:19.346Z</time></trkpt><trkpt lat="43.5498595" lon="10.6254955"><ele>54.0</ele><time>2026-04-18T06:54:20.342Z</time></trkpt><trkpt lat="43.5500234" lon="10.6255448"><ele>54.0</ele><time>2026-04-18T06:54:21.344Z</time></trkpt><trkpt lat="43.5501972" lon="10.6255892"><ele>54.0</ele><time>2026-04-18T06:54:22.344Z</time></trkpt><trkpt lat="43.5503777" lon="10.6256332"><ele>54.0</ele><time>2026-04-18T06:54:23.345Z</time></trkpt><trkpt lat="43.5505571" lon="10.6256831"><ele>53.66666666666667</ele><time>2026-04-18T06:54:24.346Z</time></trkpt><trkpt lat="43.5507271" lon="10.6257299"><ele>53.333333333333336</ele><time>2026-04-18T06:54:25.346Z</time></trkpt><trkpt lat="43.5508994" lon="10.6257553"><ele>53.0</ele><time>2026-04-18T06:54:26.342Z</time></trkpt><trkpt lat="43.551084" lon="10.6257593"><ele>52.333333333333336</ele><time>2026-04-18T06:54:27.343Z</time></trkpt><trkpt lat="43.5512699" lon="10.6257522"><ele>51.66666666666667</ele><time>2026-04-18T06:54:28.344Z</time></trkpt><trkpt lat="43.5514549" lon="10.6257307"><ele>51.0</ele><time>2026-04-18T06:54:29.344Z</time></trkpt><trkpt lat="43.5516339" lon="10.6257035"><ele>51.0</ele><time>2026-04-18T06:54:30.343Z</time></trkpt><trkpt lat="43.5518042" lon="10.6256809"><ele>51.0</ele><time>2026-04-18T06:54:31.343Z</time></trkpt><trkpt lat="43.5519641" lon="10.6256749"><ele>51.0</ele><time>2026-04-18T06:54:32.343Z</time></trkpt><trkpt lat="43.5521204" lon="10.6257024"><ele>52.0</ele><time>2026-04-18T06:54:33.346Z</time></trkpt><trkpt lat="43.5522749" lon="10.6257685"><ele>53.0</ele><time>2026-04-18T06:54:34.343Z</time></trkpt><trkpt lat="43.5524289" lon="10.6258594"><ele>54.0</ele><time>2026-04-18T06:54:35.344Z</time></trkpt><trkpt lat="43.5525849" lon="10.6259789"><ele>54.0</ele><time>2026-04-18T06:54:36.343Z</time></trkpt><trkpt lat="43.5527401" lon="10.6261202"><ele>54.0</ele><time>2026-04-18T06:54:37.344Z</time></trkpt><trkpt lat="43.5528936" lon="10.6262776"><ele>54.0</ele><time>2026-04-18T06:54:38.343Z</time></trkpt><trkpt lat="43.5530391" lon="10.6264389"><ele>54.0</ele><time>2026-04-18T06:54:39.345Z</time></trkpt><trkpt lat="43.5531754" lon="10.6265905"><ele>54.0</ele><time>2026-04-18T06:54:40.343Z</time></trkpt><trkpt lat="43.5533085" lon="10.6267252"><ele>54.0</ele><time>2026-04-18T06:54:41.344Z</time></trkpt><trkpt lat="43.5534416" lon="10.6268258"><ele>54.0</ele><time>2026-04-18T06:54:42.343Z</time></trkpt><trkpt lat="43.5535752" lon="10.6268796"><ele>54.0</ele><time>2026-04-18T06:54:43.345Z</time></trkpt><trkpt lat="43.5537143" lon="10.6269016"><ele>54.0</ele><time>2026-04-18T06:54:44.342Z</time></trkpt><trkpt lat="43.5538588" lon="10.6269094"><ele>54.0</ele><time>2026-04-18T06:54:45.342Z</time></trkpt><trkpt lat="43.5540008" lon="10.6269306"><ele>51.75</ele><time>2026-04-18T06:54:46.345Z</time></trkpt><trkpt lat="43.5541303" lon="10.6269873"><ele>49.5</ele><time>2026-04-18T06:54:47.344Z</time></trkpt><trkpt lat="43.5542488" lon="10.6270692"><ele>47.25</ele><time>2026-04-18T06:54:48.343Z</time></trkpt><trkpt lat="43.5543654" lon="10.6271445"><ele>45.0</ele><time>2026-04-18T06:54:49.349Z</time></trkpt><trkpt lat="43.5544835" lon="10.6271974"><ele>45.4</ele><time>2026-04-18T06:54:50.344Z</time></trkpt><trkpt lat="43.5546004" lon="10.6272229"><ele>45.8</ele><time>2026-04-18T06:54:51.343Z</time></trkpt><trkpt lat="43.5547035" lon="10.6272245"><ele>46.2</ele><time>2026-04-18T06:54:52.345Z</time></trkpt><trkpt lat="43.5547811" lon="10.6272134"><ele>46.6</ele><time>2026-04-18T06:54:53.344Z</time></trkpt><trkpt lat="43.5548741" lon="10.6272183"><ele>47.0</ele><time>2026-04-18T06:54:55.343Z</time></trkpt><trkpt lat="43.5548654" lon="10.6273303"><ele>47.0</ele><time>2026-04-18T06:54:57.347Z</time></trkpt><trkpt lat="43.5548178" lon="10.6274112"><ele>47.0</ele><time>2026-04-18T06:54:58.346Z</time></trkpt><trkpt lat="43.5547509" lon="10.627514"><ele>47.0</ele><time>2026-04-18T06:54:59.345Z</time></trkpt><trkpt lat="43.5546596" lon="10.6276464"><ele>47.0</ele><time>2026-04-18T06:55:00.344Z</time></trkpt><trkpt lat="43.5545613" lon="10.62779"><ele>46.2</ele><time>2026-04-18T06:55:01.343Z</time></trkpt><trkpt lat="43.5544554" lon="10.6279266"><ele>45.400000000000006</ele><time>2026-04-18T06:55:02.342Z</time></trkpt><trkpt lat="43.5543684" lon="10.6280243"><ele>44.599999999999994</ele><time>2026-04-18T06:55:03.345Z</time></trkpt><trkpt lat="43.5543017" lon="10.6280956"><ele>43.8</ele><time>2026-04-18T06:55:04.347Z</time></trkpt><trkpt lat="43.5542359" lon="10.6281499"><ele>43.0</ele><time>2026-04-18T06:55:05.347Z</time></trkpt><trkpt lat="43.5541603" lon="10.6281838"><ele>43.0</ele><time>2026-04-18T06:55:06.347Z</time></trkpt><trkpt lat="43.5540747" lon="10.628215"><ele>43.0</ele><time>2026-04-18T06:55:07.346Z</time></trkpt><trkpt lat="43.5539949" lon="10.6282558"><ele>43.0</ele><time>2026-04-18T06:55:08.343Z</time></trkpt><trkpt lat="43.5539225" lon="10.6283103"><ele>43.0</ele><time>2026-04-18T06:55:09.343Z</time></trkpt><trkpt lat="43.5538581" lon="10.6283832"><ele>43.0</ele><time>2026-04-18T06:55:10.342Z</time></trkpt><trkpt lat="43.5538018" lon="10.6284757"><ele>43.0</ele><time>2026-04-18T06:55:11.342Z</time></trkpt><trkpt lat="43.5537732" lon="10.6286018"><ele>43.0</ele><time>2026-04-18T06:55:12.344Z</time></trkpt><trkpt lat="43.5537462" lon="10.6287565"><ele>43.0</ele><time>2026-04-18T06:55:13.341Z</time></trkpt><trkpt lat="43.5537218" lon="10.6289331"><ele>43.0</ele><time>2026-04-18T06:55:14.342Z</time></trkpt><trkpt lat="43.5536991" lon="10.6291169"><ele>43.0</ele><time>2026-04-18T06:55:15.346Z</time></trkpt><trkpt lat="43.553676" lon="10.6292945"><ele>43.75</ele><time>2026-04-18T06:55:16.345Z</time></trkpt><trkpt lat="43.5536508" lon="10.6294665"><ele>44.5</ele><time>2026-04-18T06:55:17.345Z</time></trkpt><trkpt lat="43.5536303" lon="10.6296173"><ele>45.25</ele><time>2026-04-18T06:55:18.344Z</time></trkpt><trkpt lat="43.5536077" lon="10.6297658"><ele>46.0</ele><time>2026-04-18T06:55:19.345Z</time></trkpt><trkpt lat="43.5535858" lon="10.6299283"><ele>46.0</ele><time>2026-04-18T06:55:20.345Z</time></trkpt><trkpt lat="43.5535692" lon="10.630106"><ele>46.0</ele><time>2026-04-18T06:55:21.345Z</time></trkpt><trkpt lat="43.5535512" lon="10.6302975"><ele>46.0</ele><time>2026-04-18T06:55:22.344Z</time></trkpt><trkpt lat="43.5535302" lon="10.6305015"><ele>46.0</ele><time>2026-04-18T06:55:23.345Z</time></trkpt><trkpt lat="43.553507" lon="10.6307185"><ele>46.0</ele><time>2026-04-18T06:55:24.344Z</time></trkpt><trkpt lat="43.5534742" lon="10.6309428"><ele>46.0</ele><time>2026-04-18T06:55:25.344Z</time></trkpt><trkpt lat="43.5534423" lon="10.6311726"><ele>46.0</ele><time>2026-04-18T06:55:26.343Z</time></trkpt><trkpt lat="43.5534072" lon="10.6314002"><ele>46.0</ele><time>2026-04-18T06:55:27.342Z</time></trkpt><trkpt lat="43.553373" lon="10.631618"><ele>46.0</ele><time>2026-04-18T06:55:28.344Z</time></trkpt><trkpt lat="43.5533355" lon="10.6318193"><ele>46.0</ele><time>2026-04-18T06:55:29.344Z</time></trkpt><trkpt lat="43.5532917" lon="10.632014"><ele>46.0</ele><time>2026-04-18T06:55:30.348Z</time></trkpt><trkpt lat="43.5532482" lon="10.6321944"><ele>46.0</ele><time>2026-04-18T06:55:31.346Z</time></trkpt><trkpt lat="43.553199" lon="10.6323653"><ele>46.0</ele><time>2026-04-18T06:55:32.344Z</time></trkpt><trkpt lat="43.5531486" lon="10.632529"><ele>46.0</ele><time>2026-04-18T06:55:33.347Z</time></trkpt><trkpt lat="43.5531065" lon="10.6326849"><ele>46.8</ele><time>2026-04-18T06:55:34.344Z</time></trkpt><trkpt lat="43.5530717" lon="10.6328203"><ele>47.599999999999994</ele><time>2026-04-18T06:55:35.344Z</time></trkpt><trkpt lat="43.5530431" lon="10.6329368"><ele>48.4</ele><time>2026-04-18T06:55:36.343Z</time></trkpt><trkpt lat="43.553014" lon="10.6330309"><ele>49.2</ele><time>2026-04-18T06:55:37.345Z</time></trkpt><trkpt lat="43.5529179" lon="10.6331298"><ele>50.0</ele><time>2026-04-18T06:55:39.345Z</time></trkpt><trkpt lat="43.5528474" lon="10.6331314"><ele>51.25</ele><time>2026-04-18T06:55:40.345Z</time></trkpt><trkpt lat="43.552761" lon="10.6330937"><ele>52.5</ele><time>2026-04-18T06:55:41.344Z</time></trkpt><trkpt lat="43.552655" lon="10.6330258"><ele>53.75</ele><time>2026-04-18T06:55:42.346Z</time></trkpt><trkpt lat="43.5525322" lon="10.6329442"><ele>55.0</ele><time>2026-04-18T06:55:43.344Z</time></trkpt><trkpt lat="43.5523957" lon="10.6328577"><ele>53.666666666666664</ele><time>2026-04-18T06:55:44.346Z</time></trkpt><trkpt lat="43.5522554" lon="10.6327759"><ele>52.33333333333333</ele><time>2026-04-18T06:55:45.345Z</time></trkpt><trkpt lat="43.5521153" lon="10.6326837"><ele>51.0</ele><time>2026-04-18T06:55:46.345Z</time></trkpt><trkpt lat="43.5519715" lon="10.632569"><ele>51.0</ele><time>2026-04-18T06:55:47.343Z</time></trkpt><trkpt lat="43.5518294" lon="10.6324293"><ele>51.0</ele><time>2026-04-18T06:55:48.345Z</time></trkpt><trkpt lat="43.5516955" lon="10.6322755"><ele>51.0</ele><time>2026-04-18T06:55:49.345Z</time></trkpt><trkpt lat="43.5515708" lon="10.6321308"><ele>51.0</ele><time>2026-04-18T06:55:50.345Z</time></trkpt><trkpt lat="43.5514433" lon="10.6320138"><ele>51.0</ele><time>2026-04-18T06:55:51.346Z</time></trkpt><trkpt lat="43.5513108" lon="10.631916"><ele>51.0</ele><time>2026-04-18T06:55:52.346Z</time></trkpt><trkpt lat="43.5511619" lon="10.6318358"><ele>50.66666666666667</ele><time>2026-04-18T06:55:53.346Z</time></trkpt><trkpt lat="43.5509986" lon="10.6317772"><ele>50.333333333333336</ele><time>2026-04-18T06:55:54.342Z</time></trkpt><trkpt lat="43.5508384" lon="10.6317476"><ele>50.0</ele><time>2026-04-18T06:55:55.347Z</time></trkpt><trkpt lat="43.5506817" lon="10.631743"><ele>50.0</ele><time>2026-04-18T06:55:56.346Z</time></trkpt><trkpt lat="43.5505245" lon="10.6317606"><ele>50.0</ele><time>2026-04-18T06:55:57.345Z</time></trkpt><trkpt lat="43.550359" lon="10.6317814"><ele>50.0</ele><time>2026-04-18T06:55:58.346Z</time></trkpt><trkpt lat="43.550188" lon="10.6317997"><ele>50.66666666666667</ele><time>2026-04-18T06:55:59.345Z</time></trkpt><trkpt lat="43.5500134" lon="10.6318229"><ele>51.33333333333333</ele><time>2026-04-18T06:56:00.346Z</time></trkpt><trkpt lat="43.5498351" lon="10.6318484"><ele>52.0</ele><time>2026-04-18T06:56:01.345Z</time></trkpt><trkpt lat="43.5496629" lon="10.6318659"><ele>52.25</ele><time>2026-04-18T06:56:02.345Z</time></trkpt><trkpt lat="43.5495174" lon="10.631878"><ele>52.5</ele><time>2026-04-18T06:56:03.343Z</time></trkpt><trkpt lat="43.5493924" lon="10.6318917"><ele>52.75</ele><time>2026-04-18T06:56:04.345Z</time></trkpt><trkpt lat="43.5492696" lon="10.6319264"><ele>53.0</ele><time>2026-04-18T06:56:05.345Z</time></trkpt><trkpt lat="43.5491481" lon="10.6319938"><ele>54.333333333333336</ele><time>2026-04-18T06:56:06.345Z</time></trkpt><trkpt lat="43.5490205" lon="10.6320872"><ele>55.66666666666667</ele><time>2026-04-18T06:56:07.346Z</time></trkpt><trkpt lat="43.5488812" lon="10.6321946"><ele>57.0</ele><time>2026-04-18T06:56:08.346Z</time></trkpt><trkpt lat="43.548734" lon="10.6323063"><ele>55.33333333333333</ele><time>2026-04-18T06:56:09.345Z</time></trkpt><trkpt lat="43.5485839" lon="10.632422"><ele>53.666666666666664</ele><time>2026-04-18T06:56:10.346Z</time></trkpt><trkpt lat="43.5484304" lon="10.6325404"><ele>52.0</ele><time>2026-04-18T06:56:11.346Z</time></trkpt><trkpt lat="43.5482771" lon="10.6326587"><ele>52.0</ele><time>2026-04-18T06:56:12.345Z</time></trkpt><trkpt lat="43.5481226" lon="10.6327762"><ele>52.0</ele><time>2026-04-18T06:56:13.345Z</time></trkpt><trkpt lat="43.5479628" lon="10.6328907"><ele>52.0</ele><time>2026-04-18T06:56:14.345Z</time></trkpt><trkpt lat="43.5478051" lon="10.6330074"><ele>53.0</ele><time>2026-04-18T06:56:15.345Z</time></trkpt><trkpt lat="43.54765" lon="10.6331202"><ele>54.0</ele><time>2026-04-18T06:56:16.345Z</time></trkpt><trkpt lat="43.5475024" lon="10.6332275"><ele>55.0</ele><time>2026-04-18T06:56:17.345Z</time></trkpt><trkpt lat="43.5473606" lon="10.6333274"><ele>55.0</ele><time>2026-04-18T06:56:18.345Z</time></trkpt><trkpt lat="43.5472304" lon="10.6334221"><ele>55.0</ele><time>2026-04-18T06:56:19.344Z</time></trkpt><trkpt lat="43.5471075" lon="10.6335116"><ele>55.0</ele><time>2026-04-18T06:56:20.345Z</time></trkpt><trkpt lat="43.5469881" lon="10.6336028"><ele>55.0</ele><time>2026-04-18T06:56:21.345Z</time></trkpt><trkpt lat="43.5468672" lon="10.6337168"><ele>55.0</ele><time>2026-04-18T06:56:22.345Z</time></trkpt><trkpt lat="43.5467442" lon="10.6338567"><ele>55.0</ele><time>2026-04-18T06:56:23.345Z</time></trkpt><trkpt lat="43.5466179" lon="10.6340172"><ele>55.0</ele><time>2026-04-18T06:56:24.345Z</time></trkpt><trkpt lat="43.5464865" lon="10.6341909"><ele>55.0</ele><time>2026-04-18T06:56:25.345Z</time></trkpt><trkpt lat="43.5463492" lon="10.6343696"><ele>55.0</ele><time>2026-04-18T06:56:26.345Z</time></trkpt><trkpt lat="43.5462121" lon="10.6345458"><ele>55.0</ele><time>2026-04-18T06:56:27.345Z</time></trkpt><trkpt lat="43.5460785" lon="10.6347176"><ele>54.33333333333333</ele><time>2026-04-18T06:56:28.345Z</time></trkpt><trkpt lat="43.5459469" lon="10.6348808"><ele>53.66666666666667</ele><time>2026-04-18T06:56:29.342Z</time></trkpt><trkpt lat="43.5458188" lon="10.6350389"><ele>53.0</ele><time>2026-04-18T06:56:30.346Z</time></trkpt><trkpt lat="43.545698" lon="10.6351816"><ele>54.333333333333336</ele><time>2026-04-18T06:56:31.346Z</time></trkpt><trkpt lat="43.5455693" lon="10.6353099"><ele>55.66666666666667</ele><time>2026-04-18T06:56:32.345Z</time></trkpt><trkpt lat="43.5454343" lon="10.635416"><ele>57.0</ele><time>2026-04-18T06:56:33.345Z</time></trkpt><trkpt lat="43.545286" lon="10.6354942"><ele>58.0</ele><time>2026-04-18T06:56:34.345Z</time></trkpt><trkpt lat="43.54513" lon="10.6355411"><ele>59.0</ele><time>2026-04-18T06:56:35.346Z</time></trkpt><trkpt lat="43.544979" lon="10.6355633"><ele>60.0</ele><time>2026-04-18T06:56:36.345Z</time></trkpt><trkpt lat="43.5448357" lon="10.6355844"><ele>60.0</ele><time>2026-04-18T06:56:37.345Z</time></trkpt><trkpt lat="43.5447" lon="10.6356124"><ele>60.0</ele><time>2026-04-18T06:56:38.345Z</time></trkpt><trkpt lat="43.5445656" lon="10.6356581"><ele>60.0</ele><time>2026-04-18T06:56:39.348Z</time></trkpt><trkpt lat="43.5444335" lon="10.6357322"><ele>60.0</ele><time>2026-04-18T06:56:40.344Z</time></trkpt><trkpt lat="43.5443019" lon="10.6358325"><ele>60.33333333333333</ele><time>2026-04-18T06:56:41.347Z</time></trkpt><trkpt lat="43.5441625" lon="10.6359577"><ele>60.666666666666664</ele><time>2026-04-18T06:56:42.345Z</time></trkpt><trkpt lat="43.5440269" lon="10.6361066"><ele>61.0</ele><time>2026-04-18T06:56:43.345Z</time></trkpt><trkpt lat="43.5438853" lon="10.6362661"><ele>61.0</ele><time>2026-04-18T06:56:44.345Z</time></trkpt><trkpt lat="43.5437387" lon="10.6364455"><ele>61.0</ele><time>2026-04-18T06:56:45.346Z</time></trkpt><trkpt lat="43.5435871" lon="10.6366316"><ele>61.0</ele><time>2026-04-18T06:56:46.345Z</time></trkpt><trkpt lat="43.5434306" lon="10.6368175"><ele>60.33333333333333</ele><time>2026-04-18T06:56:47.346Z</time></trkpt><trkpt lat="43.5432701" lon="10.6370128"><ele>59.66666666666667</ele><time>2026-04-18T06:56:48.347Z</time></trkpt><trkpt lat="43.543107" lon="10.6372133"><ele>59.0</ele><time>2026-04-18T06:56:49.345Z</time></trkpt><trkpt lat="43.5429422" lon="10.6374163"><ele>60.0</ele><time>2026-04-18T06:56:50.345Z</time></trkpt><trkpt lat="43.5427708" lon="10.6376191"><ele>61.0</ele><time>2026-04-18T06:56:51.346Z</time></trkpt><trkpt lat="43.5425975" lon="10.6378175"><ele>61.0</ele><time>2026-04-18T06:56:52.345Z</time></trkpt><trkpt lat="43.5424282" lon="10.638004"><ele>61.0</ele><time>2026-04-18T06:56:53.343Z</time></trkpt><trkpt lat="43.5422598" lon="10.6381962"><ele>61.0</ele><time>2026-04-18T06:56:54.345Z</time></trkpt><trkpt lat="43.5420929" lon="10.638393"><ele>59.5</ele><time>2026-04-18T06:56:55.345Z</time></trkpt><trkpt lat="43.5419196" lon="10.6385918"><ele>58.0</ele><time>2026-04-18T06:56:56.345Z</time></trkpt><trkpt lat="43.5417464" lon="10.6387957"><ele>58.0</ele><time>2026-04-18T06:56:57.345Z</time></trkpt><trkpt lat="43.5415792" lon="10.6389936"><ele>58.0</ele><time>2026-04-18T06:56:58.342Z</time></trkpt><trkpt lat="43.5414239" lon="10.6391853"><ele>58.0</ele><time>2026-04-18T06:56:59.346Z</time></trkpt><trkpt lat="43.5412805" lon="10.6393787"><ele>57.33333333333333</ele><time>2026-04-18T06:57:00.345Z</time></trkpt><trkpt lat="43.5411429" lon="10.6395815"><ele>56.66666666666667</ele><time>2026-04-18T06:57:01.345Z</time></trkpt><trkpt lat="43.5410129" lon="10.6397919"><ele>56.0</ele><time>2026-04-18T06:57:02.345Z</time></trkpt><trkpt lat="43.5408913" lon="10.640017"><ele>56.0</ele><time>2026-04-18T06:57:03.346Z</time></trkpt><trkpt lat="43.5407749" lon="10.6402524"><ele>56.0</ele><time>2026-04-18T06:57:04.345Z</time></trkpt><trkpt lat="43.5406585" lon="10.6404925"><ele>56.0</ele><time>2026-04-18T06:57:05.345Z</time></trkpt><trkpt lat="43.5405342" lon="10.6407311"><ele>56.333333333333336</ele><time>2026-04-18T06:57:06.345Z</time></trkpt><trkpt lat="43.5404074" lon="10.6409734"><ele>56.66666666666667</ele><time>2026-04-18T06:57:07.345Z</time></trkpt><trkpt lat="43.5402727" lon="10.6412157"><ele>57.0</ele><time>2026-04-18T06:57:08.345Z</time></trkpt><trkpt lat="43.5401314" lon="10.6414544"><ele>57.5</ele><time>2026-04-18T06:57:09.347Z</time></trkpt><trkpt lat="43.5399809" lon="10.6416864"><ele>58.0</ele><time>2026-04-18T06:57:10.345Z</time></trkpt><trkpt lat="43.5398242" lon="10.6419086"><ele>58.0</ele><time>2026-04-18T06:57:11.345Z</time></trkpt><trkpt lat="43.5396654" lon="10.6421234"><ele>58.0</ele><time>2026-04-18T06:57:12.345Z</time></trkpt><trkpt lat="43.5395127" lon="10.6423313"><ele>58.0</ele><time>2026-04-18T06:57:13.345Z</time></trkpt><trkpt lat="43.5393675" lon="10.6425312"><ele>58.0</ele><time>2026-04-18T06:57:14.345Z</time></trkpt><trkpt lat="43.5392307" lon="10.6427197"><ele>58.0</ele><time>2026-04-18T06:57:15.349Z</time></trkpt><trkpt lat="43.5391059" lon="10.6428993"><ele>58.0</ele><time>2026-04-18T06:57:16.342Z</time></trkpt><trkpt lat="43.5389864" lon="10.6430755"><ele>60.33333333333333</ele><time>2026-04-18T06:57:17.345Z</time></trkpt><trkpt lat="43.53887" lon="10.6432586"><ele>62.66666666666667</ele><time>2026-04-18T06:57:18.343Z</time></trkpt><trkpt lat="43.5387565" lon="10.6434496"><ele>65.0</ele><time>2026-04-18T06:57:19.343Z</time></trkpt><trkpt lat="43.5386477" lon="10.6436498"><ele>65.0</ele><time>2026-04-18T06:57:20.343Z</time></trkpt><trkpt lat="43.5385403" lon="10.6438611"><ele>65.0</ele><time>2026-04-18T06:57:21.343Z</time></trkpt><trkpt lat="43.5384336" lon="10.6440681"><ele>65.0</ele><time>2026-04-18T06:57:22.345Z</time></trkpt><trkpt lat="43.5383368" lon="10.6442667"><ele>65.0</ele><time>2026-04-18T06:57:23.343Z</time></trkpt><trkpt lat="43.5382487" lon="10.6444503"><ele>65.0</ele><time>2026-04-18T06:57:24.346Z</time></trkpt><trkpt lat="43.5381723" lon="10.6446217"><ele>65.0</ele><time>2026-04-18T06:57:25.343Z</time></trkpt><trkpt lat="43.5381009" lon="10.6447756"><ele>65.0</ele><time>2026-04-18T06:57:26.343Z</time></trkpt><trkpt lat="43.5380448" lon="10.6449143"><ele>66.16666666666667</ele><time>2026-04-18T06:57:27.346Z</time></trkpt><trkpt lat="43.5380022" lon="10.645034"><ele>67.33333333333334</ele><time>2026-04-18T06:57:28.345Z</time></trkpt><trkpt lat="43.5379689" lon="10.6451373"><ele>68.5</ele><time>2026-04-18T06:57:29.345Z</time></trkpt><trkpt lat="43.5379427" lon="10.6452299"><ele>69.66666666666667</ele><time>2026-04-18T06:57:30.343Z</time></trkpt><trkpt lat="43.5379241" lon="10.6453136"><ele>70.83333333333333</ele><time>2026-04-18T06:57:31.345Z</time></trkpt><trkpt lat="43.5379284" lon="10.645469"><ele>72.0</ele><time>2026-04-18T06:57:33.344Z</time></trkpt><trkpt lat="43.5379545" lon="10.6455526"><ele>72.6</ele><time>2026-04-18T06:57:34.343Z</time></trkpt><trkpt lat="43.5379941" lon="10.6456467"><ele>73.2</ele><time>2026-04-18T06:57:35.344Z</time></trkpt><trkpt lat="43.5380384" lon="10.645759"><ele>73.8</ele><time>2026-04-18T06:57:36.343Z</time></trkpt><trkpt lat="43.5380726" lon="10.6458937"><ele>74.4</ele><time>2026-04-18T06:57:37.346Z</time></trkpt><trkpt lat="43.5380993" lon="10.6460342"><ele>75.0</ele><time>2026-04-18T06:57:38.344Z</time></trkpt><trkpt lat="43.5381235" lon="10.6461649"><ele>75.0</ele><time>2026-04-18T06:57:39.346Z</time></trkpt><trkpt lat="43.5381552" lon="10.6462804"><ele>75.0</ele><time>2026-04-18T06:57:40.345Z</time></trkpt><trkpt lat="43.5382068" lon="10.6463824"><ele>75.0</ele><time>2026-04-18T06:57:41.344Z</time></trkpt><trkpt lat="43.5382814" lon="10.6464837"><ele>75.0</ele><time>2026-04-18T06:57:42.344Z</time></trkpt><trkpt lat="43.5383648" lon="10.6465846"><ele>75.0</ele><time>2026-04-18T06:57:43.344Z</time></trkpt><trkpt lat="43.5384533" lon="10.6466896"><ele>75.0</ele><time>2026-04-18T06:57:44.343Z</time></trkpt><trkpt lat="43.5385497" lon="10.6468026"><ele>75.0</ele><time>2026-04-18T06:57:45.345Z</time></trkpt><trkpt lat="43.5386486" lon="10.6469236"><ele>75.0</ele><time>2026-04-18T06:57:46.343Z</time></trkpt><trkpt lat="43.5387404" lon="10.6470429"><ele>75.0</ele><time>2026-04-18T06:57:47.345Z</time></trkpt><trkpt lat="43.5388251" lon="10.6471417"><ele>76.2</ele><time>2026-04-18T06:57:48.345Z</time></trkpt><trkpt lat="43.5389113" lon="10.6472208"><ele>77.4</ele><time>2026-04-18T06:57:49.346Z</time></trkpt><trkpt lat="43.5390084" lon="10.6472777"><ele>78.6</ele><time>2026-04-18T06:57:50.343Z</time></trkpt><trkpt lat="43.539118" lon="10.6473193"><ele>79.8</ele><time>2026-04-18T06:57:51.343Z</time></trkpt><trkpt lat="43.5392297" lon="10.6473568"><ele>81.0</ele><time>2026-04-18T06:57:52.343Z</time></trkpt><trkpt lat="43.5393341" lon="10.6474151"><ele>81.0</ele><time>2026-04-18T06:57:53.343Z</time></trkpt><trkpt lat="43.539431" lon="10.6475024"><ele>81.0</ele><time>2026-04-18T06:57:54.342Z</time></trkpt><trkpt lat="43.5395184" lon="10.6475982"><ele>81.0</ele><time>2026-04-18T06:57:55.343Z</time></trkpt><trkpt lat="43.5395934" lon="10.647697"><ele>81.0</ele><time>2026-04-18T06:57:56.344Z</time></trkpt><trkpt lat="43.5396593" lon="10.6478094"><ele>81.0</ele><time>2026-04-18T06:57:57.343Z</time></trkpt><trkpt lat="43.5397068" lon="10.6479466"><ele>85.0</ele><time>2026-04-18T06:57:58.342Z</time></trkpt><trkpt lat="43.5397473" lon="10.6481094"><ele>89.0</ele><time>2026-04-18T06:57:59.343Z</time></trkpt><trkpt lat="43.5397875" lon="10.6482842"><ele>93.0</ele><time>2026-04-18T06:58:00.344Z</time></trkpt><trkpt lat="43.5398262" lon="10.6484664"><ele>97.0</ele><time>2026-04-18T06:58:01.345Z</time></trkpt><trkpt lat="43.5398677" lon="10.6486413"><ele>97.0</ele><time>2026-04-18T06:58:02.342Z</time></trkpt><trkpt lat="43.5399096" lon="10.6488128"><ele>97.0</ele><time>2026-04-18T06:58:03.344Z</time></trkpt><trkpt lat="43.5399503" lon="10.6489562"><ele>97.0</ele><time>2026-04-18T06:58:04.343Z</time></trkpt><trkpt lat="43.5399991" lon="10.6490924"><ele>97.0</ele><time>2026-04-18T06:58:05.343Z</time></trkpt><trkpt lat="43.5400535" lon="10.6492098"><ele>97.0</ele><time>2026-04-18T06:58:06.343Z</time></trkpt><trkpt lat="43.5401111" lon="10.6493414"><ele>97.0</ele><time>2026-04-18T06:58:07.344Z</time></trkpt><trkpt lat="43.5401755" lon="10.6494812"><ele>97.0</ele><time>2026-04-18T06:58:08.344Z</time></trkpt><trkpt lat="43.5402412" lon="10.6496109"><ele>97.0</ele><time>2026-04-18T06:58:09.343Z</time></trkpt><trkpt lat="43.5403007" lon="10.6497325"><ele>97.39999999999999</ele><time>2026-04-18T06:58:10.343Z</time></trkpt><trkpt lat="43.5403569" lon="10.6498634"><ele>97.8</ele><time>2026-04-18T06:58:11.343Z</time></trkpt><trkpt lat="43.5404162" lon="10.6499897"><ele>98.2</ele><time>2026-04-18T06:58:12.343Z</time></trkpt><trkpt lat="43.5404805" lon="10.6501146"><ele>98.6</ele><time>2026-04-18T06:58:13.346Z</time></trkpt><trkpt lat="43.5405385" lon="10.6502288"><ele>99.0</ele><time>2026-04-18T06:58:14.343Z</time></trkpt><trkpt lat="43.540585" lon="10.6503246"><ele>102.83333333333333</ele><time>2026-04-18T06:58:15.343Z</time></trkpt><trkpt lat="43.540626" lon="10.6504091"><ele>106.66666666666666</ele><time>2026-04-18T06:58:16.343Z</time></trkpt><trkpt lat="43.5406586" lon="10.6504966"><ele>110.5</ele><time>2026-04-18T06:58:17.343Z</time></trkpt><trkpt lat="43.5406795" lon="10.6505807"><ele>114.33333333333333</ele><time>2026-04-18T06:58:18.343Z</time></trkpt><trkpt lat="43.5407086" lon="10.6507325"><ele>118.16666666666666</ele><time>2026-04-18T06:58:20.342Z</time></trkpt><trkpt lat="43.5406695" lon="10.6508555"><ele>122.0</ele><time>2026-04-18T06:58:22.342Z</time></trkpt><trkpt lat="43.540576" lon="10.6509361"><ele>121.99999999999999</ele><time>2026-04-18T06:58:24.342Z</time></trkpt><trkpt lat="43.5404916" lon="10.6509364"><ele>122.0</ele><time>2026-04-18T06:58:25.345Z</time></trkpt><trkpt lat="43.5403935" lon="10.6509545"><ele>122.0</ele><time>2026-04-18T06:58:26.343Z</time></trkpt><trkpt lat="43.5403127" lon="10.6509656"><ele>122.0</ele><time>2026-04-18T06:58:27.345Z</time></trkpt><trkpt lat="43.5402361" lon="10.6509714"><ele>121.99999999999999</ele><time>2026-04-18T06:58:28.343Z</time></trkpt><trkpt lat="43.5401506" lon="10.6509783"><ele>122.0</ele><time>2026-04-18T06:58:29.344Z</time></trkpt><trkpt lat="43.5400653" lon="10.6509498"><ele>121.66666666666666</ele><time>2026-04-18T06:58:30.343Z</time></trkpt><trkpt lat="43.5399838" lon="10.6509249"><ele>121.33333333333333</ele><time>2026-04-18T06:58:31.344Z</time></trkpt><trkpt lat="43.5398945" lon="10.6509326"><ele>121.0</ele><time>2026-04-18T06:58:32.344Z</time></trkpt><trkpt lat="43.5398105" lon="10.6509558"><ele>120.66666666666666</ele><time>2026-04-18T06:58:33.343Z</time></trkpt><trkpt lat="43.5397268" lon="10.6509803"><ele>120.33333333333333</ele><time>2026-04-18T06:58:34.343Z</time></trkpt><trkpt lat="43.5396306" lon="10.6510301"><ele>120.0</ele><time>2026-04-18T06:58:35.342Z</time></trkpt><trkpt lat="43.5395338" lon="10.6510831"><ele>122.16666666666667</ele><time>2026-04-18T06:58:36.344Z</time></trkpt><trkpt lat="43.5394558" lon="10.6511457"><ele>124.33333333333334</ele><time>2026-04-18T06:58:37.343Z</time></trkpt><trkpt lat="43.5393834" lon="10.6512082"><ele>126.5</ele><time>2026-04-18T06:58:38.343Z</time></trkpt><trkpt lat="43.5393141" lon="10.6512614"><ele>128.66666666666669</ele><time>2026-04-18T06:58:39.343Z</time></trkpt><trkpt lat="43.5392544" lon="10.6513036"><ele>130.83333333333334</ele><time>2026-04-18T06:58:40.344Z</time></trkpt><trkpt lat="43.539175" lon="10.6513583"><ele>133.0</ele><time>2026-04-18T06:58:42.345Z</time></trkpt><trkpt lat="43.5391305" lon="10.6514404"><ele>133.0</ele><time>2026-04-18T06:58:44.347Z</time></trkpt><trkpt lat="43.539168" lon="10.6515312"><ele>133.0</ele><time>2026-04-18T06:58:46.343Z</time></trkpt><trkpt lat="43.5392468" lon="10.6516586"><ele>133.0</ele><time>2026-04-18T06:58:48.344Z</time></trkpt><trkpt lat="43.5392745" lon="10.6517876"><ele>133.0</ele><time>2026-04-18T06:58:50.345Z</time></trkpt><trkpt lat="43.5392155" lon="10.6518691"><ele>133.0</ele><time>2026-04-18T06:58:52.344Z</time></trkpt><trkpt lat="43.5391414" lon="10.6518641"><ele>133.0</ele><time>2026-04-18T06:58:53.343Z</time></trkpt><trkpt lat="43.5390665" lon="10.651831"><ele>133.0</ele><time>2026-04-18T06:58:54.343Z</time></trkpt><trkpt lat="43.5389936" lon="10.6517836"><ele>133.0</ele><time>2026-04-18T06:58:55.345Z</time></trkpt><trkpt lat="43.538927" lon="10.6517307"><ele>133.0</ele><time>2026-04-18T06:58:56.347Z</time></trkpt><trkpt lat="43.5388605" lon="10.651674"><ele>133.0</ele><time>2026-04-18T06:58:57.344Z</time></trkpt><trkpt lat="43.5387877" lon="10.6516162"><ele>133.0</ele><time>2026-04-18T06:58:58.344Z</time></trkpt><trkpt lat="43.5387016" lon="10.6515582"><ele>136.33333333333334</ele><time>2026-04-18T06:58:59.343Z</time></trkpt><trkpt lat="43.5386123" lon="10.6514968"><ele>139.66666666666669</ele><time>2026-04-18T06:59:00.345Z</time></trkpt><trkpt lat="43.5385265" lon="10.6514361"><ele>143.0</ele><time>2026-04-18T06:59:01.343Z</time></trkpt><trkpt lat="43.5384518" lon="10.6513722"><ele>146.33333333333334</ele><time>2026-04-18T06:59:02.344Z</time></trkpt><trkpt lat="43.5383869" lon="10.6513128"><ele>149.66666666666666</ele><time>2026-04-18T06:59:03.343Z</time></trkpt><trkpt lat="43.5383317" lon="10.6512592"><ele>153.0</ele><time>2026-04-18T06:59:04.344Z</time></trkpt><trkpt lat="43.5382277" lon="10.6511739"><ele>153.0</ele><time>2026-04-18T06:59:06.347Z</time></trkpt><trkpt lat="43.5381477" lon="10.6511397"><ele>153.0</ele><time>2026-04-18T06:59:08.344Z</time></trkpt><trkpt lat="43.5380459" lon="10.6511777"><ele>153.0</ele><time>2026-04-18T06:59:10.345Z</time></trkpt><trkpt lat="43.5379885" lon="10.6512158"><ele>153.0</ele><time>2026-04-18T06:59:11.344Z</time></trkpt><trkpt lat="43.5379296" lon="10.651266"><ele>153.0</ele><time>2026-04-18T06:59:12.345Z</time></trkpt><trkpt lat="43.5378722" lon="10.6513322"><ele>153.0</ele><time>2026-04-18T06:59:13.344Z</time></trkpt><trkpt lat="43.5378097" lon="10.6513996"><ele>153.0</ele><time>2026-04-18T06:59:14.344Z</time></trkpt><trkpt lat="43.537736" lon="10.6514667"><ele>153.0</ele><time>2026-04-18T06:59:15.344Z</time></trkpt><trkpt lat="43.5376638" lon="10.6515149"><ele>153.0</ele><time>2026-04-18T06:59:16.345Z</time></trkpt><trkpt lat="43.537585" lon="10.6515633"><ele>153.0</ele><time>2026-04-18T06:59:17.344Z</time></trkpt><trkpt lat="43.5375034" lon="10.6516006"><ele>153.0</ele><time>2026-04-18T06:59:18.345Z</time></trkpt><trkpt lat="43.5374389" lon="10.651617"><ele>153.0</ele><time>2026-04-18T06:59:19.344Z</time></trkpt><trkpt lat="43.5373692" lon="10.6516224"><ele>153.0</ele><time>2026-04-18T06:59:20.344Z</time></trkpt><trkpt lat="43.5373034" lon="10.6516081"><ele>153.0</ele><time>2026-04-18T06:59:21.345Z</time></trkpt><trkpt lat="43.5372362" lon="10.6515672"><ele>153.0</ele><time>2026-04-18T06:59:22.344Z</time></trkpt><trkpt lat="43.5371699" lon="10.6515361"><ele>153.0</ele><time>2026-04-18T06:59:23.344Z</time></trkpt><trkpt lat="43.5370956" lon="10.6515"><ele>153.0</ele><time>2026-04-18T06:59:24.344Z</time></trkpt><trkpt lat="43.5370201" lon="10.6514474"><ele>153.0</ele><time>2026-04-18T06:59:25.344Z</time></trkpt><trkpt lat="43.5369448" lon="10.6513884"><ele>152.6</ele><time>2026-04-18T06:59:26.345Z</time></trkpt><trkpt lat="43.5368746" lon="10.6513368"><ele>152.20000000000002</ele><time>2026-04-18T06:59:27.344Z</time></trkpt><trkpt lat="43.5368073" lon="10.6512907"><ele>151.8</ele><time>2026-04-18T06:59:28.344Z</time></trkpt><trkpt lat="43.5367013" lon="10.6512124"><ele>151.4</ele><time>2026-04-18T06:59:30.344Z</time></trkpt><trkpt lat="43.5365934" lon="10.6511821"><ele>151.0</ele><time>2026-04-18T06:59:32.344Z</time></trkpt><trkpt lat="43.5365286" lon="10.6511837"><ele>151.0</ele><time>2026-04-18T06:59:33.345Z</time></trkpt><trkpt lat="43.5364407" lon="10.6511876"><ele>151.0</ele><time>2026-04-18T06:59:34.345Z</time></trkpt><trkpt lat="43.5363535" lon="10.6511959"><ele>151.0</ele><time>2026-04-18T06:59:35.345Z</time></trkpt><trkpt lat="43.5362662" lon="10.6512048"><ele>151.0</ele><time>2026-04-18T06:59:36.344Z</time></trkpt><trkpt lat="43.5361812" lon="10.6512013"><ele>151.0</ele><time>2026-04-18T06:59:37.344Z</time></trkpt><trkpt lat="43.5360943" lon="10.6511911"><ele>151.0</ele><time>2026-04-18T06:59:38.345Z</time></trkpt><trkpt lat="43.5360018" lon="10.6511853"><ele>149.2</ele><time>2026-04-18T06:59:39.345Z</time></trkpt><trkpt lat="43.5359078" lon="10.6511864"><ele>147.39999999999998</ele><time>2026-04-18T06:59:40.343Z</time></trkpt><trkpt lat="43.5358055" lon="10.6511883"><ele>145.6</ele><time>2026-04-18T06:59:41.344Z</time></trkpt><trkpt lat="43.5357097" lon="10.6511907"><ele>143.79999999999998</ele><time>2026-04-18T06:59:42.344Z</time></trkpt><trkpt lat="43.535614" lon="10.6511866"><ele>142.0</ele><time>2026-04-18T06:59:43.344Z</time></trkpt><trkpt lat="43.5355143" lon="10.6511856"><ele>142.0</ele><time>2026-04-18T06:59:44.344Z</time></trkpt><trkpt lat="43.5354309" lon="10.6511851"><ele>142.0</ele><time>2026-04-18T06:59:45.345Z</time></trkpt><trkpt lat="43.5353592" lon="10.6511982"><ele>142.0</ele><time>2026-04-18T06:59:46.344Z</time></trkpt><trkpt lat="43.535296" lon="10.6512204"><ele>142.0</ele><time>2026-04-18T06:59:47.344Z</time></trkpt><trkpt lat="43.535232" lon="10.6512544"><ele>142.0</ele><time>2026-04-18T06:59:48.343Z</time></trkpt><trkpt lat="43.5351623" lon="10.6513136"><ele>142.0</ele><time>2026-04-18T06:59:49.345Z</time></trkpt><trkpt lat="43.5350844" lon="10.6513881"><ele>139.16666666666669</ele><time>2026-04-18T06:59:50.345Z</time></trkpt><trkpt lat="43.5350035" lon="10.6514543"><ele>136.33333333333334</ele><time>2026-04-18T06:59:51.347Z</time></trkpt><trkpt lat="43.534933" lon="10.6515085"><ele>133.5</ele><time>2026-04-18T06:59:52.346Z</time></trkpt><trkpt lat="43.5348713" lon="10.6515827"><ele>130.66666666666666</ele><time>2026-04-18T06:59:53.346Z</time></trkpt><trkpt lat="43.5348237" lon="10.6516696"><ele>127.83333333333333</ele><time>2026-04-18T06:59:54.346Z</time></trkpt><trkpt lat="43.5347935" lon="10.651788"><ele>125.0</ele><time>2026-04-18T06:59:55.346Z</time></trkpt><trkpt lat="43.5347831" lon="10.6519205"><ele>124.16666666666666</ele><time>2026-04-18T06:59:56.346Z</time></trkpt><trkpt lat="43.5347901" lon="10.6520482"><ele>123.33333333333333</ele><time>2026-04-18T06:59:57.347Z</time></trkpt><trkpt lat="43.5347968" lon="10.6521651"><ele>122.5</ele><time>2026-04-18T06:59:58.343Z</time></trkpt><trkpt lat="43.5347969" lon="10.6522639"><ele>121.66666666666666</ele><time>2026-04-18T06:59:59.345Z</time></trkpt><trkpt lat="43.5347909" lon="10.6523568"><ele>120.83333333333333</ele><time>2026-04-18T07:00:00.344Z</time></trkpt><trkpt lat="43.5347896" lon="10.6525304"><ele>120.0</ele><time>2026-04-18T07:00:02.344Z</time></trkpt><trkpt lat="43.5347993" lon="10.6526293"><ele>120.0</ele><time>2026-04-18T07:00:03.343Z</time></trkpt><trkpt lat="43.5348244" lon="10.6527361"><ele>120.0</ele><time>2026-04-18T07:00:04.343Z</time></trkpt><trkpt lat="43.5348639" lon="10.6528494"><ele>120.0</ele><time>2026-04-18T07:00:05.344Z</time></trkpt><trkpt lat="43.5349016" lon="10.6529694"><ele>120.0</ele><time>2026-04-18T07:00:06.344Z</time></trkpt><trkpt lat="43.5349396" lon="10.6530888"><ele>120.0</ele><time>2026-04-18T07:00:07.344Z</time></trkpt><trkpt lat="43.5349796" lon="10.653196"><ele>120.0</ele><time>2026-04-18T07:00:08.345Z</time></trkpt><trkpt lat="43.5350109" lon="10.6532928"><ele>118.71428571428572</ele><time>2026-04-18T07:00:09.344Z</time></trkpt><trkpt lat="43.5350396" lon="10.6533856"><ele>117.42857142857142</ele><time>2026-04-18T07:00:10.344Z</time></trkpt><trkpt lat="43.5350629" lon="10.6534737"><ele>116.14285714285714</ele><time>2026-04-18T07:00:11.344Z</time></trkpt><trkpt lat="43.5350842" lon="10.6535628"><ele>114.85714285714286</ele><time>2026-04-18T07:00:12.344Z</time></trkpt><trkpt lat="43.535094" lon="10.6536545"><ele>113.57142857142858</ele><time>2026-04-18T07:00:13.345Z</time></trkpt><trkpt lat="43.5350946" lon="10.6537546"><ele>112.28571428571428</ele><time>2026-04-18T07:00:14.345Z</time></trkpt><trkpt lat="43.5350893" lon="10.6538603"><ele>111.0</ele><time>2026-04-18T07:00:15.344Z</time></trkpt><trkpt lat="43.5350694" lon="10.6539556"><ele>110.66666666666667</ele><time>2026-04-18T07:00:16.343Z</time></trkpt><trkpt lat="43.5350392" lon="10.6540478"><ele>110.33333333333334</ele><time>2026-04-18T07:00:17.346Z</time></trkpt><trkpt lat="43.5349992" lon="10.6541505"><ele>110.0</ele><time>2026-04-18T07:00:18.344Z</time></trkpt><trkpt lat="43.5349496" lon="10.6542565"><ele>109.66666666666667</ele><time>2026-04-18T07:00:19.345Z</time></trkpt><trkpt lat="43.5348966" lon="10.6543631"><ele>109.33333333333334</ele><time>2026-04-18T07:00:20.349Z</time></trkpt><trkpt lat="43.534841" lon="10.6544727"><ele>109.0</ele><time>2026-04-18T07:00:21.343Z</time></trkpt><trkpt lat="43.534778" lon="10.6545847"><ele>109.0</ele><time>2026-04-18T07:00:22.344Z</time></trkpt><trkpt lat="43.5347097" lon="10.6546865"><ele>109.0</ele><time>2026-04-18T07:00:23.344Z</time></trkpt><trkpt lat="43.5346284" lon="10.6547888"><ele>109.0</ele><time>2026-04-18T07:00:24.343Z</time></trkpt><trkpt lat="43.5345409" lon="10.6548755"><ele>109.0</ele><time>2026-04-18T07:00:25.348Z</time></trkpt><trkpt lat="43.5344467" lon="10.654954"><ele>109.0</ele><time>2026-04-18T07:00:26.346Z</time></trkpt><trkpt lat="43.5343495" lon="10.655028"><ele>109.0</ele><time>2026-04-18T07:00:27.344Z</time></trkpt><trkpt lat="43.5342558" lon="10.6551018"><ele>109.0</ele><time>2026-04-18T07:00:28.343Z</time></trkpt><trkpt lat="43.5341627" lon="10.6551735"><ele>109.0</ele><time>2026-04-18T07:00:29.343Z</time></trkpt><trkpt lat="43.5340753" lon="10.6552464"><ele>109.0</ele><time>2026-04-18T07:00:30.344Z</time></trkpt><trkpt lat="43.5339966" lon="10.6553265"><ele>109.0</ele><time>2026-04-18T07:00:31.343Z</time></trkpt><trkpt lat="43.5339228" lon="10.655416"><ele>109.6</ele><time>2026-04-18T07:00:32.343Z</time></trkpt><trkpt lat="43.5338573" lon="10.6555213"><ele>110.2</ele><time>2026-04-18T07:00:33.344Z</time></trkpt><trkpt lat="43.5338022" lon="10.6556361"><ele>110.79999999999998</ele><time>2026-04-18T07:00:34.343Z</time></trkpt><trkpt lat="43.5337529" lon="10.6557643"><ele>111.39999999999999</ele><time>2026-04-18T07:00:35.344Z</time></trkpt><trkpt lat="43.5337099" lon="10.6559143"><ele>112.0</ele><time>2026-04-18T07:00:36.344Z</time></trkpt><trkpt lat="43.5336695" lon="10.6560744"><ele>114.19999999999999</ele><time>2026-04-18T07:00:37.344Z</time></trkpt><trkpt lat="43.5336314" lon="10.6562262"><ele>116.39999999999999</ele><time>2026-04-18T07:00:38.342Z</time></trkpt><trkpt lat="43.5335962" lon="10.656359"><ele>118.60000000000001</ele><time>2026-04-18T07:00:39.342Z</time></trkpt><trkpt lat="43.5335658" lon="10.6564801"><ele>120.80000000000001</ele><time>2026-04-18T07:00:40.341Z</time></trkpt><trkpt lat="43.5335334" lon="10.6565935"><ele>123.0</ele><time>2026-04-18T07:00:41.342Z</time></trkpt><trkpt lat="43.5334932" lon="10.6567098"><ele>123.0</ele><time>2026-04-18T07:00:42.341Z</time></trkpt><trkpt lat="43.5334462" lon="10.6568314"><ele>123.00000000000001</ele><time>2026-04-18T07:00:43.342Z</time></trkpt><trkpt lat="43.5333988" lon="10.6569532"><ele>123.00000000000001</ele><time>2026-04-18T07:00:44.341Z</time></trkpt><trkpt lat="43.5333488" lon="10.6570721"><ele>123.0</ele><time>2026-04-18T07:00:45.345Z</time></trkpt><trkpt lat="43.5332922" lon="10.6571839"><ele>123.0</ele><time>2026-04-18T07:00:46.342Z</time></trkpt><trkpt lat="43.5332323" lon="10.657286"><ele>124.5</ele><time>2026-04-18T07:00:47.342Z</time></trkpt><trkpt lat="43.5331747" lon="10.6573779"><ele>126.0</ele><time>2026-04-18T07:00:48.343Z</time></trkpt><trkpt lat="43.533107" lon="10.6574544"><ele>127.5</ele><time>2026-04-18T07:00:49.344Z</time></trkpt><trkpt lat="43.5330404" lon="10.6575237"><ele>129.0</ele><time>2026-04-18T07:00:50.343Z</time></trkpt><trkpt lat="43.5329665" lon="10.6575794"><ele>130.5</ele><time>2026-04-18T07:00:51.345Z</time></trkpt><trkpt lat="43.5328756" lon="10.6576073"><ele>132.0</ele><time>2026-04-18T07:00:52.345Z</time></trkpt><trkpt lat="43.5327808" lon="10.6576343"><ele>133.4</ele><time>2026-04-18T07:00:53.342Z</time></trkpt><trkpt lat="43.5326727" lon="10.6576567"><ele>134.79999999999998</ele><time>2026-04-18T07:00:54.343Z</time></trkpt><trkpt lat="43.532564" lon="10.6576742"><ele>136.2</ele><time>2026-04-18T07:00:55.343Z</time></trkpt><trkpt lat="43.532463" lon="10.657684"><ele>137.6</ele><time>2026-04-18T07:00:56.342Z</time></trkpt><trkpt lat="43.5323813" lon="10.657676"><ele>139.0</ele><time>2026-04-18T07:00:57.343Z</time></trkpt><trkpt lat="43.5322952" lon="10.6576596"><ele>139.0</ele><time>2026-04-18T07:00:59.345Z</time></trkpt><trkpt lat="43.5323489" lon="10.657756"><ele>139.0</ele><time>2026-04-18T07:01:15.346Z</time></trkpt><trkpt lat="43.5324437" lon="10.6577987"><ele>139.0</ele><time>2026-04-18T07:01:17.345Z</time></trkpt><trkpt lat="43.5324872" lon="10.6578963"><ele>139.0</ele><time>2026-04-18T07:01:19.345Z</time></trkpt><trkpt lat="43.5324624" lon="10.6580251"><ele>139.0</ele><time>2026-04-18T07:01:21.344Z</time></trkpt><trkpt lat="43.5323779" lon="10.6581291"><ele>141.0</ele><time>2026-04-18T07:01:23.343Z</time></trkpt><trkpt lat="43.5323136" lon="10.6581527"><ele>143.0</ele><time>2026-04-18T07:01:24.343Z</time></trkpt><trkpt lat="43.5322418" lon="10.6581476"><ele>145.0</ele><time>2026-04-18T07:01:25.346Z</time></trkpt><trkpt lat="43.532178" lon="10.658123"><ele>147.0</ele><time>2026-04-18T07:01:26.345Z</time></trkpt><trkpt lat="43.5321148" lon="10.6580814"><ele>149.0</ele><time>2026-04-18T07:01:27.342Z</time></trkpt><trkpt lat="43.5320483" lon="10.6580296"><ele>151.0</ele><time>2026-04-18T07:01:28.346Z</time></trkpt><trkpt lat="43.531976" lon="10.6579783"><ele>153.0</ele><time>2026-04-18T07:01:29.342Z</time></trkpt><trkpt lat="43.531902" lon="10.6579297"><ele>154.0</ele><time>2026-04-18T07:01:30.342Z</time></trkpt><trkpt lat="43.5318297" lon="10.6578971"><ele>155.0</ele><time>2026-04-18T07:01:31.343Z</time></trkpt><trkpt lat="43.5317625" lon="10.6578906"><ele>156.0</ele><time>2026-04-18T07:01:32.343Z</time></trkpt><trkpt lat="43.531698" lon="10.6579035"><ele>157.0</ele><time>2026-04-18T07:01:33.344Z</time></trkpt><trkpt lat="43.531637" lon="10.6579332"><ele>158.0</ele><time>2026-04-18T07:01:34.344Z</time></trkpt><trkpt lat="43.5315709" lon="10.6580603"><ele>159.0</ele><time>2026-04-18T07:01:36.343Z</time></trkpt><trkpt lat="43.5316024" lon="10.6582132"><ele>159.0</ele><time>2026-04-18T07:01:38.343Z</time></trkpt><trkpt lat="43.5316547" lon="10.6582765"><ele>159.0</ele><time>2026-04-18T07:01:39.344Z</time></trkpt><trkpt lat="43.5317732" lon="10.6583816"><ele>159.0</ele><time>2026-04-18T07:01:41.341Z</time></trkpt><trkpt lat="43.5318449" lon="10.6584431"><ele>159.0</ele><time>2026-04-18T07:01:42.345Z</time></trkpt><trkpt lat="43.5319127" lon="10.6585177"><ele>159.0</ele><time>2026-04-18T07:01:43.345Z</time></trkpt><trkpt lat="43.5319763" lon="10.6586126"><ele>159.4</ele><time>2026-04-18T07:01:44.345Z</time></trkpt><trkpt lat="43.5320419" lon="10.6587296"><ele>159.8</ele><time>2026-04-18T07:01:45.345Z</time></trkpt><trkpt lat="43.5321012" lon="10.6588541"><ele>160.20000000000002</ele><time>2026-04-18T07:01:46.343Z</time></trkpt><trkpt lat="43.5321575" lon="10.6589789"><ele>160.60000000000002</ele><time>2026-04-18T07:01:47.342Z</time></trkpt><trkpt lat="43.5322206" lon="10.6591106"><ele>161.0</ele><time>2026-04-18T07:01:48.342Z</time></trkpt><trkpt lat="43.5322925" lon="10.6592377"><ele>161.0</ele><time>2026-04-18T07:01:49.344Z</time></trkpt><trkpt lat="43.5323735" lon="10.6593583"><ele>161.0</ele><time>2026-04-18T07:01:50.344Z</time></trkpt><trkpt lat="43.5324614" lon="10.6594893"><ele>161.0</ele><time>2026-04-18T07:01:51.347Z</time></trkpt><trkpt lat="43.5325471" lon="10.6596263"><ele>161.0</ele><time>2026-04-18T07:01:52.342Z</time></trkpt><trkpt lat="43.5326376" lon="10.6597663"><ele>159.75</ele><time>2026-04-18T07:01:53.346Z</time></trkpt><trkpt lat="43.532734" lon="10.6599143"><ele>158.5</ele><time>2026-04-18T07:01:54.345Z</time></trkpt><trkpt lat="43.5328328" lon="10.6600617"><ele>157.25</ele><time>2026-04-18T07:01:55.345Z</time></trkpt><trkpt lat="43.5329254" lon="10.6602137"><ele>156.0</ele><time>2026-04-18T07:01:56.347Z</time></trkpt><trkpt lat="43.5330136" lon="10.6603621"><ele>159.25</ele><time>2026-04-18T07:01:57.346Z</time></trkpt><trkpt lat="43.5331017" lon="10.6605045"><ele>162.5</ele><time>2026-04-18T07:01:58.348Z</time></trkpt><trkpt lat="43.5331917" lon="10.6606369"><ele>165.75</ele><time>2026-04-18T07:01:59.344Z</time></trkpt><trkpt lat="43.5332831" lon="10.6607546"><ele>169.0</ele><time>2026-04-18T07:02:00.343Z</time></trkpt><trkpt lat="43.533374" lon="10.6608489"><ele>169.0</ele><time>2026-04-18T07:02:01.344Z</time></trkpt><trkpt lat="43.5334545" lon="10.660922"><ele>169.0</ele><time>2026-04-18T07:02:02.344Z</time></trkpt><trkpt lat="43.5335162" lon="10.6609687"><ele>169.0</ele><time>2026-04-18T07:02:03.344Z</time></trkpt><trkpt lat="43.5335909" lon="10.6610303"><ele>169.0</ele><time>2026-04-18T07:02:05.343Z</time></trkpt><trkpt lat="43.5336914" lon="10.6611077"><ele>169.0</ele><time>2026-04-18T07:02:08.344Z</time></trkpt><trkpt lat="43.5337629" lon="10.661131"><ele>169.0</ele><time>2026-04-18T07:02:09.344Z</time></trkpt><trkpt lat="43.5338424" lon="10.6611502"><ele>168.0</ele><time>2026-04-18T07:02:10.343Z</time></trkpt><trkpt lat="43.5339257" lon="10.6611642"><ele>167.0</ele><time>2026-04-18T07:02:11.344Z</time></trkpt><trkpt lat="43.5340082" lon="10.6611772"><ele>166.0</ele><time>2026-04-18T07:02:12.344Z</time></trkpt><trkpt lat="43.5340822" lon="10.66119"><ele>165.0</ele><time>2026-04-18T07:02:13.344Z</time></trkpt><trkpt lat="43.5341507" lon="10.6612063"><ele>164.0</ele><time>2026-04-18T07:02:14.345Z</time></trkpt><trkpt lat="43.5342452" lon="10.66125"><ele>163.0</ele><time>2026-04-18T07:02:16.345Z</time></trkpt><trkpt lat="43.5342707" lon="10.6613312"><ele>163.0</ele><time>2026-04-18T07:02:18.344Z</time></trkpt><trkpt lat="43.53421" lon="10.6614861"><ele>163.0</ele><time>2026-04-18T07:02:20.346Z</time></trkpt><trkpt lat="43.5341579" lon="10.6616125"><ele>163.0</ele><time>2026-04-18T07:02:21.346Z</time></trkpt><trkpt lat="43.534103" lon="10.66176"><ele>163.0</ele><time>2026-04-18T07:02:22.345Z</time></trkpt><trkpt lat="43.5340476" lon="10.6619197"><ele>161.5</ele><time>2026-04-18T07:02:23.345Z</time></trkpt><trkpt lat="43.5339878" lon="10.6620966"><ele>160.0</ele><time>2026-04-18T07:02:24.346Z</time></trkpt><trkpt lat="43.5339224" lon="10.6622855"><ele>158.5</ele><time>2026-04-18T07:02:25.345Z</time></trkpt><trkpt lat="43.5338561" lon="10.6624731"><ele>157.0</ele><time>2026-04-18T07:02:26.344Z</time></trkpt><trkpt lat="43.5337885" lon="10.662663"><ele>156.0</ele><time>2026-04-18T07:02:27.345Z</time></trkpt><trkpt lat="43.5337282" lon="10.6628614"><ele>155.0</ele><time>2026-04-18T07:02:28.345Z</time></trkpt><trkpt lat="43.5336702" lon="10.6630707"><ele>154.0</ele><time>2026-04-18T07:02:29.343Z</time></trkpt><trkpt lat="43.533619" lon="10.663285"><ele>156.75</ele><time>2026-04-18T07:02:30.346Z</time></trkpt><trkpt lat="43.5335759" lon="10.6634915"><ele>159.5</ele><time>2026-04-18T07:02:31.344Z</time></trkpt><trkpt lat="43.5335363" lon="10.6636862"><ele>162.25</ele><time>2026-04-18T07:02:32.343Z</time></trkpt><trkpt lat="43.5335055" lon="10.6638696"><ele>165.0</ele><time>2026-04-18T07:02:33.342Z</time></trkpt><trkpt lat="43.5334798" lon="10.6640377"><ele>165.0</ele><time>2026-04-18T07:02:34.343Z</time></trkpt><trkpt lat="43.5334613" lon="10.6641958"><ele>165.0</ele><time>2026-04-18T07:02:35.341Z</time></trkpt><trkpt lat="43.5334448" lon="10.664344"><ele>165.0</ele><time>2026-04-18T07:02:36.343Z</time></trkpt><trkpt lat="43.5334244" lon="10.6644854"><ele>165.0</ele><time>2026-04-18T07:02:37.342Z</time></trkpt><trkpt lat="43.533387" lon="10.6646204"><ele>165.0</ele><time>2026-04-18T07:02:38.342Z</time></trkpt><trkpt lat="43.5333248" lon="10.6647479"><ele>162.5</ele><time>2026-04-18T07:02:39.346Z</time></trkpt><trkpt lat="43.5332329" lon="10.6648598"><ele>160.0</ele><time>2026-04-18T07:02:40.345Z</time></trkpt><trkpt lat="43.5331336" lon="10.664951"><ele>157.5</ele><time>2026-04-18T07:02:41.345Z</time></trkpt><trkpt lat="43.5330371" lon="10.665021"><ele>155.0</ele><time>2026-04-18T07:02:42.345Z</time></trkpt><trkpt lat="43.5329382" lon="10.6650649"><ele>154.5</ele><time>2026-04-18T07:02:43.345Z</time></trkpt><trkpt lat="43.5328299" lon="10.6650752"><ele>154.0</ele><time>2026-04-18T07:02:44.347Z</time></trkpt><trkpt lat="43.5326981" lon="10.665054"><ele>153.5</ele><time>2026-04-18T07:02:45.345Z</time></trkpt><trkpt lat="43.532564" lon="10.6650186"><ele>153.0</ele><time>2026-04-18T07:02:46.345Z</time></trkpt><trkpt lat="43.5324363" lon="10.6649929"><ele>153.0</ele><time>2026-04-18T07:02:47.345Z</time></trkpt><trkpt lat="43.5323219" lon="10.6649952"><ele>153.0</ele><time>2026-04-18T07:02:48.343Z</time></trkpt><trkpt lat="43.5322148" lon="10.6650391"><ele>153.0</ele><time>2026-04-18T07:02:49.343Z</time></trkpt><trkpt lat="43.5321199" lon="10.6651244"><ele>153.0</ele><time>2026-04-18T07:02:50.341Z</time></trkpt><trkpt lat="43.5320393" lon="10.6652547"><ele>150.5</ele><time>2026-04-18T07:02:51.343Z</time></trkpt><trkpt lat="43.5319653" lon="10.6654071"><ele>148.0</ele><time>2026-04-18T07:02:52.343Z</time></trkpt><trkpt lat="43.5318858" lon="10.6655764"><ele>145.5</ele><time>2026-04-18T07:02:53.342Z</time></trkpt><trkpt lat="43.5318038" lon="10.6657559"><ele>143.0</ele><time>2026-04-18T07:02:54.342Z</time></trkpt><trkpt lat="43.5317219" lon="10.6659387"><ele>144.0</ele><time>2026-04-18T07:02:55.346Z</time></trkpt><trkpt lat="43.5316426" lon="10.6661148"><ele>145.0</ele><time>2026-04-18T07:02:56.343Z</time></trkpt><trkpt lat="43.5315612" lon="10.6662767"><ele>146.0</ele><time>2026-04-18T07:02:57.344Z</time></trkpt><trkpt lat="43.5314791" lon="10.6664294"><ele>147.0</ele><time>2026-04-18T07:02:58.345Z</time></trkpt><trkpt lat="43.5313938" lon="10.6665801"><ele>147.0</ele><time>2026-04-18T07:02:59.343Z</time></trkpt><trkpt lat="43.5312967" lon="10.6667271"><ele>147.0</ele><time>2026-04-18T07:03:00.344Z</time></trkpt><trkpt lat="43.5311956" lon="10.6668811"><ele>147.0</ele><time>2026-04-18T07:03:01.344Z</time></trkpt><trkpt lat="43.531092" lon="10.6670461"><ele>150.0</ele><time>2026-04-18T07:03:02.346Z</time></trkpt><trkpt lat="43.530985" lon="10.6672015"><ele>153.0</ele><time>2026-04-18T07:03:03.346Z</time></trkpt><trkpt lat="43.5308842" lon="10.6673419"><ele>156.0</ele><time>2026-04-18T07:03:04.343Z</time></trkpt><trkpt lat="43.5307901" lon="10.667468"><ele>159.0</ele><time>2026-04-18T07:03:05.343Z</time></trkpt><trkpt lat="43.5306891" lon="10.6675841"><ele>159.0</ele><time>2026-04-18T07:03:06.345Z</time></trkpt><trkpt lat="43.5305766" lon="10.6677057"><ele>159.0</ele><time>2026-04-18T07:03:07.344Z</time></trkpt><trkpt lat="43.5304592" lon="10.6678246"><ele>159.0</ele><time>2026-04-18T07:03:08.344Z</time></trkpt><trkpt lat="43.5303494" lon="10.6679335"><ele>159.0</ele><time>2026-04-18T07:03:09.345Z</time></trkpt><trkpt lat="43.5302552" lon="10.6680529"><ele>160.33333333333334</ele><time>2026-04-18T07:03:10.344Z</time></trkpt><trkpt lat="43.5301564" lon="10.6681885"><ele>161.66666666666669</ele><time>2026-04-18T07:03:11.344Z</time></trkpt><trkpt lat="43.5300508" lon="10.6683432"><ele>163.0</ele><time>2026-04-18T07:03:12.345Z</time></trkpt><trkpt lat="43.5299365" lon="10.6685114"><ele>165.66666666666669</ele><time>2026-04-18T07:03:13.346Z</time></trkpt><trkpt lat="43.5298158" lon="10.6686926"><ele>168.33333333333334</ele><time>2026-04-18T07:03:14.344Z</time></trkpt><trkpt lat="43.5297012" lon="10.6688596"><ele>171.0</ele><time>2026-04-18T07:03:15.342Z</time></trkpt><trkpt lat="43.5295962" lon="10.6690136"><ele>169.0</ele><time>2026-04-18T07:03:16.343Z</time></trkpt><trkpt lat="43.5294922" lon="10.6691478"><ele>167.0</ele><time>2026-04-18T07:03:17.343Z</time></trkpt><trkpt lat="43.5293898" lon="10.6692668"><ele>165.0</ele><time>2026-04-18T07:03:18.343Z</time></trkpt><trkpt lat="43.5292922" lon="10.6693744"><ele>163.0</ele><time>2026-04-18T07:03:19.343Z</time></trkpt><trkpt lat="43.5291944" lon="10.669475"><ele>163.0</ele><time>2026-04-18T07:03:20.343Z</time></trkpt><trkpt lat="43.5291017" lon="10.6695604"><ele>163.0</ele><time>2026-04-18T07:03:21.342Z</time></trkpt><trkpt lat="43.5290104" lon="10.6696411"><ele>163.0</ele><time>2026-04-18T07:03:22.342Z</time></trkpt><trkpt lat="43.5289223" lon="10.6697284"><ele>163.0</ele><time>2026-04-18T07:03:23.343Z</time></trkpt><trkpt lat="43.5288405" lon="10.6698168"><ele>163.0</ele><time>2026-04-18T07:03:24.343Z</time></trkpt><trkpt lat="43.5287573" lon="10.6699113"><ele>162.5</ele><time>2026-04-18T07:03:25.343Z</time></trkpt><trkpt lat="43.5286721" lon="10.6700124"><ele>162.0</ele><time>2026-04-18T07:03:26.343Z</time></trkpt><trkpt lat="43.5285894" lon="10.6701136"><ele>161.5</ele><time>2026-04-18T07:03:27.345Z</time></trkpt><trkpt lat="43.5285065" lon="10.6702197"><ele>161.0</ele><time>2026-04-18T07:03:28.344Z</time></trkpt><trkpt lat="43.5284221" lon="10.6703283"><ele>161.0</ele><time>2026-04-18T07:03:29.344Z</time></trkpt><trkpt lat="43.5283369" lon="10.6704409"><ele>161.0</ele><time>2026-04-18T07:03:30.346Z</time></trkpt><trkpt lat="43.528247" lon="10.6705529"><ele>161.0</ele><time>2026-04-18T07:03:31.342Z</time></trkpt><trkpt lat="43.528153" lon="10.6706762"><ele>161.0</ele><time>2026-04-18T07:03:32.345Z</time></trkpt><trkpt lat="43.5280494" lon="10.6708031"><ele>161.0</ele><time>2026-04-18T07:03:33.343Z</time></trkpt><trkpt lat="43.5279455" lon="10.6709347"><ele>161.0</ele><time>2026-04-18T07:03:34.342Z</time></trkpt><trkpt lat="43.5278388" lon="10.6710747"><ele>161.0</ele><time>2026-04-18T07:03:35.345Z</time></trkpt><trkpt lat="43.527727" lon="10.671218"><ele>161.0</ele><time>2026-04-18T07:03:36.345Z</time></trkpt><trkpt lat="43.5276209" lon="10.6713657"><ele>162.66666666666666</ele><time>2026-04-18T07:03:37.343Z</time></trkpt><trkpt lat="43.527527" lon="10.6715249"><ele>164.33333333333334</ele><time>2026-04-18T07:03:38.345Z</time></trkpt><trkpt lat="43.5274407" lon="10.6717101"><ele>166.0</ele><time>2026-04-18T07:03:39.345Z</time></trkpt><trkpt lat="43.5273553" lon="10.6718981"><ele>167.25</ele><time>2026-04-18T07:03:40.345Z</time></trkpt><trkpt lat="43.5272762" lon="10.6720684"><ele>168.5</ele><time>2026-04-18T07:03:41.344Z</time></trkpt><trkpt lat="43.5272017" lon="10.6722153"><ele>169.75</ele><time>2026-04-18T07:03:42.342Z</time></trkpt><trkpt lat="43.5271228" lon="10.6723384"><ele>171.0</ele><time>2026-04-18T07:03:43.346Z</time></trkpt><trkpt lat="43.5270255" lon="10.6724391"><ele>171.0</ele><time>2026-04-18T07:03:44.343Z</time></trkpt><trkpt lat="43.5269178" lon="10.6725116"><ele>171.0</ele><time>2026-04-18T07:03:45.346Z</time></trkpt><trkpt lat="43.5268006" lon="10.6725421"><ele>171.0</ele><time>2026-04-18T07:03:46.342Z</time></trkpt><trkpt lat="43.5266749" lon="10.6725361"><ele>171.0</ele><time>2026-04-18T07:03:47.345Z</time></trkpt><trkpt lat="43.5265514" lon="10.6725175"><ele>171.0</ele><time>2026-04-18T07:03:48.344Z</time></trkpt><trkpt lat="43.5264294" lon="10.6725155"><ele>171.0</ele><time>2026-04-18T07:03:49.344Z</time></trkpt><trkpt lat="43.5263077" lon="10.6725348"><ele>171.0</ele><time>2026-04-18T07:03:50.347Z</time></trkpt><trkpt lat="43.5261935" lon="10.6725735"><ele>171.0</ele><time>2026-04-18T07:03:51.344Z</time></trkpt><trkpt lat="43.5260903" lon="10.6726345"><ele>170.8</ele><time>2026-04-18T07:03:52.343Z</time></trkpt><trkpt lat="43.5260058" lon="10.6727109"><ele>170.60000000000002</ele><time>2026-04-18T07:03:53.343Z</time></trkpt><trkpt lat="43.5259417" lon="10.6728004"><ele>170.4</ele><time>2026-04-18T07:03:54.344Z</time></trkpt><trkpt lat="43.525886" lon="10.6729047"><ele>170.2</ele><time>2026-04-18T07:03:55.346Z</time></trkpt><trkpt lat="43.525838" lon="10.6730245"><ele>170.0</ele><time>2026-04-18T07:03:56.344Z</time></trkpt><trkpt lat="43.5258026" lon="10.6731586"><ele>170.0</ele><time>2026-04-18T07:03:57.344Z</time></trkpt><trkpt lat="43.5257867" lon="10.6733079"><ele>170.0</ele><time>2026-04-18T07:03:58.345Z</time></trkpt><trkpt lat="43.5257837" lon="10.6734667"><ele>170.0</ele><time>2026-04-18T07:03:59.344Z</time></trkpt><trkpt lat="43.5257775" lon="10.6736279"><ele>170.0</ele><time>2026-04-18T07:04:00.346Z</time></trkpt><trkpt lat="43.525762" lon="10.6737826"><ele>172.0</ele><time>2026-04-18T07:04:01.345Z</time></trkpt><trkpt lat="43.5257465" lon="10.6739328"><ele>174.0</ele><time>2026-04-18T07:04:02.344Z</time></trkpt><trkpt lat="43.5257322" lon="10.6740847"><ele>176.0</ele><time>2026-04-18T07:04:03.344Z</time></trkpt><trkpt lat="43.5257113" lon="10.6742414"><ele>178.0</ele><time>2026-04-18T07:04:04.343Z</time></trkpt><trkpt lat="43.5256862" lon="10.6744047"><ele>179.25</ele><time>2026-04-18T07:04:05.343Z</time></trkpt><trkpt lat="43.5256604" lon="10.6745746"><ele>180.5</ele><time>2026-04-18T07:04:06.343Z</time></trkpt><trkpt lat="43.5256376" lon="10.6747508"><ele>181.75</ele><time>2026-04-18T07:04:07.343Z</time></trkpt><trkpt lat="43.5256113" lon="10.6749186"><ele>183.0</ele><time>2026-04-18T07:04:08.347Z</time></trkpt><trkpt lat="43.5255838" lon="10.6750726"><ele>183.0</ele><time>2026-04-18T07:04:09.347Z</time></trkpt><trkpt lat="43.5255585" lon="10.6752095"><ele>183.0</ele><time>2026-04-18T07:04:10.346Z</time></trkpt><trkpt lat="43.5255365" lon="10.6753371"><ele>183.0</ele><time>2026-04-18T07:04:11.343Z</time></trkpt><trkpt lat="43.5255078" lon="10.6754602"><ele>183.0</ele><time>2026-04-18T07:04:12.343Z</time></trkpt><trkpt lat="43.5254696" lon="10.6755739"><ele>183.0</ele><time>2026-04-18T07:04:13.342Z</time></trkpt><trkpt lat="43.5254301" lon="10.675682"><ele>183.0</ele><time>2026-04-18T07:04:14.345Z</time></trkpt><trkpt lat="43.5253873" lon="10.6757766"><ele>183.0</ele><time>2026-04-18T07:04:15.343Z</time></trkpt><trkpt lat="43.525334" lon="10.6758604"><ele>183.0</ele><time>2026-04-18T07:04:16.344Z</time></trkpt><trkpt lat="43.5252823" lon="10.6759456"><ele>183.0</ele><time>2026-04-18T07:04:17.344Z</time></trkpt><trkpt lat="43.5252232" lon="10.676022"><ele>183.0</ele><time>2026-04-18T07:04:18.344Z</time></trkpt><trkpt lat="43.5251554" lon="10.6760975"><ele>183.0</ele><time>2026-04-18T07:04:19.344Z</time></trkpt><trkpt lat="43.5250745" lon="10.6761672"><ele>182.83333333333334</ele><time>2026-04-18T07:04:20.345Z</time></trkpt><trkpt lat="43.5249972" lon="10.6762343"><ele>182.66666666666666</ele><time>2026-04-18T07:04:21.344Z</time></trkpt><trkpt lat="43.5249263" lon="10.6762976"><ele>182.5</ele><time>2026-04-18T07:04:22.344Z</time></trkpt><trkpt lat="43.5248601" lon="10.6763577"><ele>182.33333333333331</ele><time>2026-04-18T07:04:23.344Z</time></trkpt><trkpt lat="43.5248097" lon="10.676413"><ele>182.16666666666666</ele><time>2026-04-18T07:04:24.342Z</time></trkpt><trkpt lat="43.5247598" lon="10.6764682"><ele>182.0</ele><time>2026-04-18T07:04:25.343Z</time></trkpt><trkpt lat="43.5247091" lon="10.6765277"><ele>182.0</ele><time>2026-04-18T07:04:26.343Z</time></trkpt><trkpt lat="43.5246697" lon="10.6765974"><ele>182.0</ele><time>2026-04-18T07:04:27.343Z</time></trkpt><trkpt lat="43.5246369" lon="10.6766738"><ele>182.0</ele><time>2026-04-18T07:04:28.343Z</time></trkpt><trkpt lat="43.5245962" lon="10.6767427"><ele>182.0</ele><time>2026-04-18T07:04:29.343Z</time></trkpt><trkpt lat="43.5245376" lon="10.676872"><ele>182.0</ele><time>2026-04-18T07:04:31.342Z</time></trkpt><trkpt lat="43.5245049" lon="10.6769651"><ele>182.0</ele><time>2026-04-18T07:04:33.344Z</time></trkpt><trkpt lat="43.5244807" lon="10.6770784"><ele>181.57142857142858</ele><time>2026-04-18T07:04:37.342Z</time></trkpt><trkpt lat="43.5245164" lon="10.6771869"><ele>181.14285714285714</ele><time>2026-04-18T07:04:39.343Z</time></trkpt><trkpt lat="43.5245637" lon="10.6772513"><ele>180.71428571428572</ele><time>2026-04-18T07:04:40.344Z</time></trkpt><trkpt lat="43.524613" lon="10.6773295"><ele>180.28571428571428</ele><time>2026-04-18T07:04:41.343Z</time></trkpt><trkpt lat="43.5246639" lon="10.6774026"><ele>179.85714285714286</ele><time>2026-04-18T07:04:42.343Z</time></trkpt><trkpt lat="43.5247036" lon="10.677473"><ele>179.42857142857144</ele><time>2026-04-18T07:04:43.343Z</time></trkpt><trkpt lat="43.5247301" lon="10.6775522"><ele>179.0</ele><time>2026-04-18T07:04:44.343Z</time></trkpt><trkpt lat="43.5247356" lon="10.6777089"><ele>177.83333333333331</ele><time>2026-04-18T07:04:46.343Z</time></trkpt><trkpt lat="43.5247142" lon="10.6777927"><ele>176.66666666666666</ele><time>2026-04-18T07:04:47.343Z</time></trkpt><trkpt lat="43.5247072" lon="10.6778965"><ele>175.5</ele><time>2026-04-18T07:04:48.344Z</time></trkpt><trkpt lat="43.5247095" lon="10.6780148"><ele>174.33333333333334</ele><time>2026-04-18T07:04:49.343Z</time></trkpt><trkpt lat="43.5247099" lon="10.6781437"><ele>173.16666666666669</ele><time>2026-04-18T07:04:50.342Z</time></trkpt><trkpt lat="43.5247201" lon="10.6782803"><ele>172.0</ele><time>2026-04-18T07:04:51.342Z</time></trkpt><trkpt lat="43.5247434" lon="10.6784189"><ele>172.0</ele><time>2026-04-18T07:04:52.343Z</time></trkpt><trkpt lat="43.5247783" lon="10.6785568"><ele>172.0</ele><time>2026-04-18T07:04:53.343Z</time></trkpt><trkpt lat="43.5248074" lon="10.67869"><ele>172.0</ele><time>2026-04-18T07:04:54.343Z</time></trkpt><trkpt lat="43.5248378" lon="10.6788261"><ele>172.0</ele><time>2026-04-18T07:04:55.344Z</time></trkpt><trkpt lat="43.5248651" lon="10.6789659"><ele>172.0</ele><time>2026-04-18T07:04:56.343Z</time></trkpt><trkpt lat="43.5248851" lon="10.6791172"><ele>173.39999999999998</ele><time>2026-04-18T07:04:57.344Z</time></trkpt><trkpt lat="43.5248987" lon="10.6792778"><ele>174.79999999999998</ele><time>2026-04-18T07:04:58.342Z</time></trkpt><trkpt lat="43.5248925" lon="10.6794375"><ele>176.2</ele><time>2026-04-18T07:04:59.347Z</time></trkpt><trkpt lat="43.5248707" lon="10.6795816"><ele>177.6</ele><time>2026-04-18T07:05:00.343Z</time></trkpt><trkpt lat="43.5248509" lon="10.6797075"><ele>179.0</ele><time>2026-04-18T07:05:01.343Z</time></trkpt><trkpt lat="43.5248332" lon="10.6798208"><ele>179.6</ele><time>2026-04-18T07:05:02.343Z</time></trkpt><trkpt lat="43.524834" lon="10.6799302"><ele>180.2</ele><time>2026-04-18T07:05:03.343Z</time></trkpt><trkpt lat="43.5248505" lon="10.6800484"><ele>180.79999999999998</ele><time>2026-04-18T07:05:04.343Z</time></trkpt><trkpt lat="43.5248818" lon="10.6801852"><ele>181.39999999999998</ele><time>2026-04-18T07:05:05.343Z</time></trkpt><trkpt lat="43.5249208" lon="10.6803418"><ele>182.0</ele><time>2026-04-18T07:05:06.342Z</time></trkpt><trkpt lat="43.5249597" lon="10.6805115"><ele>180.25</ele><time>2026-04-18T07:05:07.346Z</time></trkpt><trkpt lat="43.5249796" lon="10.680698"><ele>178.5</ele><time>2026-04-18T07:05:08.346Z</time></trkpt><trkpt lat="43.524988" lon="10.6808757"><ele>176.75</ele><time>2026-04-18T07:05:09.342Z</time></trkpt><trkpt lat="43.5249837" lon="10.6810504"><ele>175.0</ele><time>2026-04-18T07:05:10.343Z</time></trkpt><trkpt lat="43.5249765" lon="10.6812318"><ele>174.25</ele><time>2026-04-18T07:05:11.343Z</time></trkpt><trkpt lat="43.5249734" lon="10.6814261"><ele>173.5</ele><time>2026-04-18T07:05:12.346Z</time></trkpt><trkpt lat="43.524972" lon="10.6816294"><ele>172.75</ele><time>2026-04-18T07:05:13.346Z</time></trkpt><trkpt lat="43.5249689" lon="10.6818245"><ele>172.0</ele><time>2026-04-18T07:05:14.342Z</time></trkpt><trkpt lat="43.5249702" lon="10.6820046"><ele>171.66666666666669</ele><time>2026-04-18T07:05:15.344Z</time></trkpt><trkpt lat="43.5249689" lon="10.6821665"><ele>171.33333333333334</ele><time>2026-04-18T07:05:16.344Z</time></trkpt><trkpt lat="43.5249681" lon="10.6822962"><ele>171.0</ele><time>2026-04-18T07:05:17.346Z</time></trkpt><trkpt lat="43.5249774" lon="10.6824026"><ele>170.66666666666666</ele><time>2026-04-18T07:05:18.347Z</time></trkpt><trkpt lat="43.5249973" lon="10.6824937"><ele>170.33333333333331</ele><time>2026-04-18T07:05:19.344Z</time></trkpt><trkpt lat="43.5250256" lon="10.6825721"><ele>170.0</ele><time>2026-04-18T07:05:20.344Z</time></trkpt><trkpt lat="43.5250672" lon="10.6826431"><ele>170.0</ele><time>2026-04-18T07:05:21.344Z</time></trkpt><trkpt lat="43.5251404" lon="10.6826949"><ele>170.0</ele><time>2026-04-18T07:05:22.345Z</time></trkpt><trkpt lat="43.5252292" lon="10.6827323"><ele>170.0</ele><time>2026-04-18T07:05:23.345Z</time></trkpt><trkpt lat="43.5253241" lon="10.6827704"><ele>170.0</ele><time>2026-04-18T07:05:24.344Z</time></trkpt><trkpt lat="43.5254104" lon="10.6828306"><ele>170.0</ele><time>2026-04-18T07:05:25.344Z</time></trkpt><trkpt lat="43.5254845" lon="10.6829251"><ele>168.8</ele><time>2026-04-18T07:05:26.346Z</time></trkpt><trkpt lat="43.5255401" lon="10.6830406"><ele>167.6</ele><time>2026-04-18T07:05:27.343Z</time></trkpt><trkpt lat="43.525579" lon="10.683148"><ele>166.39999999999998</ele><time>2026-04-18T07:05:28.342Z</time></trkpt><trkpt lat="43.525603" lon="10.683238"><ele>165.2</ele><time>2026-04-18T07:05:29.342Z</time></trkpt><trkpt lat="43.52561" lon="10.6833732"><ele>164.0</ele><time>2026-04-18T07:05:31.347Z</time></trkpt><trkpt lat="43.5255421" lon="10.6834807"><ele>164.0</ele><time>2026-04-18T07:05:33.344Z</time></trkpt><trkpt lat="43.5254766" lon="10.6835368"><ele>164.0</ele><time>2026-04-18T07:05:34.343Z</time></trkpt><trkpt lat="43.5253914" lon="10.6835966"><ele>164.0</ele><time>2026-04-18T07:05:35.342Z</time></trkpt><trkpt lat="43.525291" lon="10.6836678"><ele>164.0</ele><time>2026-04-18T07:05:36.342Z</time></trkpt><trkpt lat="43.5251806" lon="10.6837432"><ele>164.0</ele><time>2026-04-18T07:05:37.343Z</time></trkpt><trkpt lat="43.5250714" lon="10.6838098"><ele>162.16666666666666</ele><time>2026-04-18T07:05:38.347Z</time></trkpt><trkpt lat="43.5249687" lon="10.6838716"><ele>160.33333333333331</ele><time>2026-04-18T07:05:39.347Z</time></trkpt><trkpt lat="43.5248766" lon="10.6839175"><ele>158.5</ele><time>2026-04-18T07:05:40.346Z</time></trkpt><trkpt lat="43.5247925" lon="10.6839353"><ele>156.66666666666666</ele><time>2026-04-18T07:05:41.343Z</time></trkpt><trkpt lat="43.5247175" lon="10.6839287"><ele>154.83333333333334</ele><time>2026-04-18T07:05:42.346Z</time></trkpt><trkpt lat="43.524654" lon="10.6839136"><ele>153.0</ele><time>2026-04-18T07:05:43.342Z</time></trkpt><trkpt lat="43.5245653" lon="10.6839038"><ele>151.16666666666666</ele><time>2026-04-18T07:05:45.343Z</time></trkpt><trkpt lat="43.5244847" lon="10.6839854"><ele>149.33333333333334</ele><time>2026-04-18T07:05:47.345Z</time></trkpt><trkpt lat="43.5244576" lon="10.6840721"><ele>147.5</ele><time>2026-04-18T07:05:48.343Z</time></trkpt><trkpt lat="43.5244545" lon="10.6841837"><ele>145.66666666666669</ele><time>2026-04-18T07:05:49.343Z</time></trkpt><trkpt lat="43.5244678" lon="10.6842835"><ele>143.83333333333334</ele><time>2026-04-18T07:05:50.343Z</time></trkpt><trkpt lat="43.5244927" lon="10.684376"><ele>142.0</ele><time>2026-04-18T07:05:51.344Z</time></trkpt><trkpt lat="43.5245389" lon="10.6844682"><ele>142.75</ele><time>2026-04-18T07:05:52.344Z</time></trkpt><trkpt lat="43.5245844" lon="10.6845477"><ele>143.5</ele><time>2026-04-18T07:05:53.343Z</time></trkpt><trkpt lat="43.5246922" lon="10.6846023"><ele>144.25</ele><time>2026-04-18T07:05:54.343Z</time></trkpt><trkpt lat="43.5248303" lon="10.6846087"><ele>145.0</ele><time>2026-04-18T07:05:55.343Z</time></trkpt><trkpt lat="43.5249581" lon="10.6846305"><ele>145.0</ele><time>2026-04-18T07:05:56.343Z</time></trkpt><trkpt lat="43.5250617" lon="10.6846766"><ele>145.0</ele><time>2026-04-18T07:05:57.347Z</time></trkpt><trkpt lat="43.525153" lon="10.6847512"><ele>145.0</ele><time>2026-04-18T07:05:58.344Z</time></trkpt><trkpt lat="43.5252202" lon="10.6848556"><ele>145.0</ele><time>2026-04-18T07:05:59.348Z</time></trkpt><trkpt lat="43.5252714" lon="10.6849898"><ele>145.0</ele><time>2026-04-18T07:06:00.344Z</time></trkpt><trkpt lat="43.5253101" lon="10.6851545"><ele>146.0</ele><time>2026-04-18T07:06:01.345Z</time></trkpt><trkpt lat="43.5253467" lon="10.685338"><ele>147.0</ele><time>2026-04-18T07:06:02.346Z</time></trkpt><trkpt lat="43.5253911" lon="10.6855274"><ele>148.0</ele><time>2026-04-18T07:06:03.343Z</time></trkpt><trkpt lat="43.5254358" lon="10.6857133"><ele>149.0</ele><time>2026-04-18T07:06:04.343Z</time></trkpt><trkpt lat="43.5254801" lon="10.6858904"><ele>149.0</ele><time>2026-04-18T07:06:05.345Z</time></trkpt><trkpt lat="43.5255143" lon="10.6860656"><ele>149.0</ele><time>2026-04-18T07:06:06.343Z</time></trkpt><trkpt lat="43.5255393" lon="10.6862406"><ele>149.0</ele><time>2026-04-18T07:06:07.345Z</time></trkpt><trkpt lat="43.5255545" lon="10.6864054"><ele>149.0</ele><time>2026-04-18T07:06:08.346Z</time></trkpt><trkpt lat="43.5255628" lon="10.6865682"><ele>146.0</ele><time>2026-04-18T07:06:09.346Z</time></trkpt><trkpt lat="43.5255614" lon="10.6867289"><ele>143.0</ele><time>2026-04-18T07:06:10.346Z</time></trkpt><trkpt lat="43.5255512" lon="10.6868885"><ele>140.0</ele><time>2026-04-18T07:06:11.347Z</time></trkpt><trkpt lat="43.5255266" lon="10.687051"><ele>137.0</ele><time>2026-04-18T07:06:12.345Z</time></trkpt><trkpt lat="43.5254858" lon="10.6872176"><ele>135.25</ele><time>2026-04-18T07:06:13.343Z</time></trkpt><trkpt lat="43.5254363" lon="10.6873896"><ele>133.5</ele><time>2026-04-18T07:06:14.347Z</time></trkpt><trkpt lat="43.5253824" lon="10.6875645"><ele>131.75</ele><time>2026-04-18T07:06:15.346Z</time></trkpt><trkpt lat="43.5253282" lon="10.6877461"><ele>130.0</ele><time>2026-04-18T07:06:16.346Z</time></trkpt><trkpt lat="43.5252752" lon="10.6879389"><ele>127.0</ele><time>2026-04-18T07:06:17.346Z</time></trkpt><trkpt lat="43.525231" lon="10.688146"><ele>124.0</ele><time>2026-04-18T07:06:18.347Z</time></trkpt><trkpt lat="43.5251921" lon="10.6883529"><ele>121.0</ele><time>2026-04-18T07:06:19.342Z</time></trkpt><trkpt lat="43.525161" lon="10.6885643"><ele>120.66666666666667</ele><time>2026-04-18T07:06:20.343Z</time></trkpt><trkpt lat="43.5251351" lon="10.6887847"><ele>120.33333333333334</ele><time>2026-04-18T07:06:21.346Z</time></trkpt><trkpt lat="43.5251088" lon="10.6890034"><ele>120.0</ele><time>2026-04-18T07:06:22.347Z</time></trkpt><trkpt lat="43.5250788" lon="10.6892113"><ele>120.0</ele><time>2026-04-18T07:06:23.346Z</time></trkpt><trkpt lat="43.5250504" lon="10.6894124"><ele>120.0</ele><time>2026-04-18T07:06:24.345Z</time></trkpt><trkpt lat="43.5250251" lon="10.6895969"><ele>120.0</ele><time>2026-04-18T07:06:25.343Z</time></trkpt><trkpt lat="43.5249996" lon="10.6897713"><ele>120.0</ele><time>2026-04-18T07:06:26.342Z</time></trkpt><trkpt lat="43.5249836" lon="10.6899445"><ele>120.0</ele><time>2026-04-18T07:06:27.343Z</time></trkpt><trkpt lat="43.524994" lon="10.6901318"><ele>120.0</ele><time>2026-04-18T07:06:28.342Z</time></trkpt><trkpt lat="43.5250204" lon="10.6903305"><ele>120.0</ele><time>2026-04-18T07:06:29.344Z</time></trkpt><trkpt lat="43.5250537" lon="10.6905452"><ele>120.0</ele><time>2026-04-18T07:06:30.345Z</time></trkpt><trkpt lat="43.5250822" lon="10.6907708"><ele>118.66666666666666</ele><time>2026-04-18T07:06:31.346Z</time></trkpt><trkpt lat="43.5251105" lon="10.6909887"><ele>117.33333333333333</ele><time>2026-04-18T07:06:32.348Z</time></trkpt><trkpt lat="43.5251419" lon="10.6911968"><ele>116.0</ele><time>2026-04-18T07:06:33.346Z</time></trkpt><trkpt lat="43.5251811" lon="10.6913982"><ele>114.5</ele><time>2026-04-18T07:06:34.347Z</time></trkpt><trkpt lat="43.5252296" lon="10.6915979"><ele>113.0</ele><time>2026-04-18T07:06:35.344Z</time></trkpt><trkpt lat="43.525282" lon="10.6917947"><ele>111.5</ele><time>2026-04-18T07:06:36.344Z</time></trkpt><trkpt lat="43.5253281" lon="10.6919797"><ele>110.0</ele><time>2026-04-18T07:06:37.344Z</time></trkpt><trkpt lat="43.5253584" lon="10.6921557"><ele>109.75</ele><time>2026-04-18T07:06:38.343Z</time></trkpt><trkpt lat="43.5253809" lon="10.6923391"><ele>109.5</ele><time>2026-04-18T07:06:39.343Z</time></trkpt><trkpt lat="43.525399" lon="10.6925315"><ele>109.25</ele><time>2026-04-18T07:06:40.345Z</time></trkpt><trkpt lat="43.5254123" lon="10.692721"><ele>109.0</ele><time>2026-04-18T07:06:41.346Z</time></trkpt><trkpt lat="43.5254175" lon="10.6929117"><ele>109.0</ele><time>2026-04-18T07:06:42.344Z</time></trkpt><trkpt lat="43.5254176" lon="10.6930885"><ele>109.0</ele><time>2026-04-18T07:06:43.344Z</time></trkpt><trkpt lat="43.5254221" lon="10.6932481"><ele>109.0</ele><time>2026-04-18T07:06:44.345Z</time></trkpt><trkpt lat="43.5254432" lon="10.693397"><ele>109.0</ele><time>2026-04-18T07:06:45.343Z</time></trkpt><trkpt lat="43.5254849" lon="10.6935598"><ele>108.5</ele><time>2026-04-18T07:06:46.344Z</time></trkpt><trkpt lat="43.5255508" lon="10.6937329"><ele>108.0</ele><time>2026-04-18T07:06:47.343Z</time></trkpt><trkpt lat="43.5256291" lon="10.6939069"><ele>107.5</ele><time>2026-04-18T07:06:48.344Z</time></trkpt><trkpt lat="43.5257091" lon="10.6940853"><ele>107.0</ele><time>2026-04-18T07:06:49.346Z</time></trkpt><trkpt lat="43.5257758" lon="10.6942523"><ele>106.5</ele><time>2026-04-18T07:06:50.347Z</time></trkpt><trkpt lat="43.525819" lon="10.6944292"><ele>106.0</ele><time>2026-04-18T07:06:51.346Z</time></trkpt><trkpt lat="43.5258402" lon="10.6946136"><ele>105.5</ele><time>2026-04-18T07:06:52.343Z</time></trkpt><trkpt lat="43.5258422" lon="10.6947942"><ele>105.0</ele><time>2026-04-18T07:06:53.347Z</time></trkpt><trkpt lat="43.5258144" lon="10.6949602"><ele>105.0</ele><time>2026-04-18T07:06:54.347Z</time></trkpt><trkpt lat="43.5257651" lon="10.6951013"><ele>105.0</ele><time>2026-04-18T07:06:55.346Z</time></trkpt><trkpt lat="43.5257014" lon="10.6952152"><ele>105.0</ele><time>2026-04-18T07:06:56.344Z</time></trkpt><trkpt lat="43.5256396" lon="10.6953201"><ele>105.0</ele><time>2026-04-18T07:06:57.345Z</time></trkpt><trkpt lat="43.5255909" lon="10.6954312"><ele>105.0</ele><time>2026-04-18T07:06:58.346Z</time></trkpt><trkpt lat="43.5255842" lon="10.695564"><ele>103.75</ele><time>2026-04-18T07:06:59.346Z</time></trkpt><trkpt lat="43.5256095" lon="10.6957105"><ele>102.5</ele><time>2026-04-18T07:07:00.346Z</time></trkpt><trkpt lat="43.5256636" lon="10.6958848"><ele>101.25</ele><time>2026-04-18T07:07:01.345Z</time></trkpt><trkpt lat="43.5257101" lon="10.6960749"><ele>100.0</ele><time>2026-04-18T07:07:02.346Z</time></trkpt><trkpt lat="43.5257256" lon="10.6962668"><ele>98.75</ele><time>2026-04-18T07:07:03.347Z</time></trkpt><trkpt lat="43.5257195" lon="10.6964393"><ele>97.5</ele><time>2026-04-18T07:07:04.344Z</time></trkpt><trkpt lat="43.5257036" lon="10.6965915"><ele>96.25</ele><time>2026-04-18T07:07:05.343Z</time></trkpt><trkpt lat="43.5256836" lon="10.6967354"><ele>95.0</ele><time>2026-04-18T07:07:06.344Z</time></trkpt><trkpt lat="43.5256618" lon="10.6968952"><ele>94.5</ele><time>2026-04-18T07:07:07.345Z</time></trkpt><trkpt lat="43.5256298" lon="10.6970661"><ele>94.0</ele><time>2026-04-18T07:07:08.342Z</time></trkpt><trkpt lat="43.5255772" lon="10.6972283"><ele>93.5</ele><time>2026-04-18T07:07:09.347Z</time></trkpt><trkpt lat="43.5255123" lon="10.6973735"><ele>93.0</ele><time>2026-04-18T07:07:10.346Z</time></trkpt><trkpt lat="43.5254554" lon="10.6975073"><ele>93.0</ele><time>2026-04-18T07:07:11.346Z</time></trkpt><trkpt lat="43.5254164" lon="10.6976472"><ele>93.0</ele><time>2026-04-18T07:07:12.346Z</time></trkpt><trkpt lat="43.5253976" lon="10.6978017"><ele>93.0</ele><time>2026-04-18T07:07:13.346Z</time></trkpt><trkpt lat="43.5253966" lon="10.6979704"><ele>93.0</ele><time>2026-04-18T07:07:14.343Z</time></trkpt><trkpt lat="43.525419" lon="10.6981418"><ele>92.0</ele><time>2026-04-18T07:07:15.343Z</time></trkpt><trkpt lat="43.5254603" lon="10.6983168"><ele>91.0</ele><time>2026-04-18T07:07:16.347Z</time></trkpt><trkpt lat="43.5254955" lon="10.6984827"><ele>90.0</ele><time>2026-04-18T07:07:17.346Z</time></trkpt><trkpt lat="43.5255132" lon="10.6986514"><ele>89.0</ele><time>2026-04-18T07:07:18.346Z</time></trkpt><trkpt lat="43.5255073" lon="10.6988189"><ele>88.25</ele><time>2026-04-18T07:07:19.346Z</time></trkpt><trkpt lat="43.5254773" lon="10.6989859"><ele>87.5</ele><time>2026-04-18T07:07:20.345Z</time></trkpt><trkpt lat="43.5254317" lon="10.6991433"><ele>86.75</ele><time>2026-04-18T07:07:21.345Z</time></trkpt><trkpt lat="43.5253808" lon="10.6992808"><ele>86.0</ele><time>2026-04-18T07:07:22.347Z</time></trkpt><trkpt lat="43.525331" lon="10.6993988"><ele>81.2</ele><time>2026-04-18T07:07:23.349Z</time></trkpt><trkpt lat="43.5252963" lon="10.6995111"><ele>76.39999999999999</ele><time>2026-04-18T07:07:24.346Z</time></trkpt><trkpt lat="43.5252806" lon="10.6996273"><ele>71.6</ele><time>2026-04-18T07:07:25.344Z</time></trkpt><trkpt lat="43.5252751" lon="10.6997482"><ele>66.8</ele><time>2026-04-18T07:07:26.344Z</time></trkpt><trkpt lat="43.5252828" lon="10.6998739"><ele>62.0</ele><time>2026-04-18T07:07:27.343Z</time></trkpt><trkpt lat="43.5253153" lon="10.70002"><ele>62.0</ele><time>2026-04-18T07:07:28.342Z</time></trkpt><trkpt lat="43.5253695" lon="10.7001933"><ele>62.0</ele><time>2026-04-18T07:07:29.344Z</time></trkpt><trkpt lat="43.5254595" lon="10.7004057"><ele>62.0</ele><time>2026-04-18T07:07:30.343Z</time></trkpt><trkpt lat="43.5255514" lon="10.7006187"><ele>61.5</ele><time>2026-04-18T07:07:31.343Z</time></trkpt><trkpt lat="43.5256245" lon="10.700814"><ele>61.0</ele><time>2026-04-18T07:07:32.346Z</time></trkpt><trkpt lat="43.5256719" lon="10.7009914"><ele>60.5</ele><time>2026-04-18T07:07:33.347Z</time></trkpt><trkpt lat="43.5256956" lon="10.7011704"><ele>60.0</ele><time>2026-04-18T07:07:34.343Z</time></trkpt><trkpt lat="43.5257102" lon="10.7013598"><ele>60.0</ele><time>2026-04-18T07:07:35.346Z</time></trkpt><trkpt lat="43.5257185" lon="10.7015495"><ele>60.0</ele><time>2026-04-18T07:07:36.346Z</time></trkpt><trkpt lat="43.5257275" lon="10.7017322"><ele>60.0</ele><time>2026-04-18T07:07:37.346Z</time></trkpt><trkpt lat="43.5257436" lon="10.7019124"><ele>60.0</ele><time>2026-04-18T07:07:38.343Z</time></trkpt><trkpt lat="43.5257778" lon="10.7020853"><ele>59.4</ele><time>2026-04-18T07:07:39.346Z</time></trkpt><trkpt lat="43.5258239" lon="10.7022451"><ele>58.8</ele><time>2026-04-18T07:07:40.347Z</time></trkpt><trkpt lat="43.5258685" lon="10.7023866"><ele>58.2</ele><time>2026-04-18T07:07:41.346Z</time></trkpt><trkpt lat="43.5259022" lon="10.7025027"><ele>57.6</ele><time>2026-04-18T07:07:42.346Z</time></trkpt><trkpt lat="43.5259274" lon="10.7025939"><ele>57.0</ele><time>2026-04-18T07:07:43.346Z</time></trkpt><trkpt lat="43.5259625" lon="10.7026837"><ele>57.0</ele><time>2026-04-18T07:07:45.344Z</time></trkpt><trkpt lat="43.5260663" lon="10.7026815"><ele>57.0</ele><time>2026-04-18T07:07:54.345Z</time></trkpt><trkpt lat="43.5261383" lon="10.7026369"><ele>57.0</ele><time>2026-04-18T07:07:55.342Z</time></trkpt><trkpt lat="43.5262291" lon="10.7025615"><ele>57.0</ele><time>2026-04-18T07:07:56.344Z</time></trkpt><trkpt lat="43.5263399" lon="10.7024756"><ele>57.0</ele><time>2026-04-18T07:07:57.346Z</time></trkpt><trkpt lat="43.5264645" lon="10.7024027"><ele>56.75</ele><time>2026-04-18T07:07:58.345Z</time></trkpt><trkpt lat="43.5265977" lon="10.7023426"><ele>56.5</ele><time>2026-04-18T07:07:59.345Z</time></trkpt><trkpt lat="43.526745" lon="10.7023035"><ele>56.25</ele><time>2026-04-18T07:08:00.345Z</time></trkpt><trkpt lat="43.5268994" lon="10.7022887"><ele>56.0</ele><time>2026-04-18T07:08:01.345Z</time></trkpt><trkpt lat="43.5270592" lon="10.7022872"><ele>56.0</ele><time>2026-04-18T07:08:02.345Z</time></trkpt><trkpt lat="43.5272321" lon="10.7022895"><ele>56.0</ele><time>2026-04-18T07:08:03.345Z</time></trkpt><trkpt lat="43.5274137" lon="10.702283"><ele>56.0</ele><time>2026-04-18T07:08:04.345Z</time></trkpt><trkpt lat="43.5276101" lon="10.7022727"><ele>56.0</ele><time>2026-04-18T07:08:05.344Z</time></trkpt><trkpt lat="43.5278156" lon="10.7022661"><ele>56.0</ele><time>2026-04-18T07:08:06.344Z</time></trkpt><trkpt lat="43.5280256" lon="10.7022594"><ele>56.0</ele><time>2026-04-18T07:08:07.345Z</time></trkpt><trkpt lat="43.5282437" lon="10.7022541"><ele>55.66666666666667</ele><time>2026-04-18T07:08:08.344Z</time></trkpt><trkpt lat="43.5284655" lon="10.702249"><ele>55.33333333333333</ele><time>2026-04-18T07:08:09.347Z</time></trkpt><trkpt lat="43.528691" lon="10.7022412"><ele>55.0</ele><time>2026-04-18T07:08:10.345Z</time></trkpt><trkpt lat="43.528918" lon="10.7022315"><ele>55.0</ele><time>2026-04-18T07:08:11.345Z</time></trkpt><trkpt lat="43.5291436" lon="10.7022164"><ele>55.0</ele><time>2026-04-18T07:08:12.345Z</time></trkpt><trkpt lat="43.5293656" lon="10.7021935"><ele>55.0</ele><time>2026-04-18T07:08:13.345Z</time></trkpt><trkpt lat="43.5295882" lon="10.702163"><ele>54.5</ele><time>2026-04-18T07:08:14.345Z</time></trkpt><trkpt lat="43.5298113" lon="10.7021358"><ele>54.0</ele><time>2026-04-18T07:08:15.345Z</time></trkpt><trkpt lat="43.5300362" lon="10.7021084"><ele>54.0</ele><time>2026-04-18T07:08:16.342Z</time></trkpt><trkpt lat="43.5302595" lon="10.7020788"><ele>54.0</ele><time>2026-04-18T07:08:17.342Z</time></trkpt><trkpt lat="43.5304866" lon="10.7020466"><ele>54.5</ele><time>2026-04-18T07:08:18.345Z</time></trkpt><trkpt lat="43.5307102" lon="10.7020163"><ele>55.0</ele><time>2026-04-18T07:08:19.345Z</time></trkpt><trkpt lat="43.5309342" lon="10.7019849"><ele>55.0</ele><time>2026-04-18T07:08:20.341Z</time></trkpt><trkpt lat="43.5311595" lon="10.7019459"><ele>55.0</ele><time>2026-04-18T07:08:21.342Z</time></trkpt><trkpt lat="43.5313845" lon="10.7019032"><ele>55.0</ele><time>2026-04-18T07:08:22.345Z</time></trkpt><trkpt lat="43.5316082" lon="10.7018628"><ele>55.0</ele><time>2026-04-18T07:08:23.342Z</time></trkpt><trkpt lat="43.5318285" lon="10.70182"><ele>55.0</ele><time>2026-04-18T07:08:24.345Z</time></trkpt><trkpt lat="43.5320443" lon="10.701773"><ele>55.0</ele><time>2026-04-18T07:08:25.348Z</time></trkpt><trkpt lat="43.532258" lon="10.7017278"><ele>55.0</ele><time>2026-04-18T07:08:26.344Z</time></trkpt><trkpt lat="43.5324712" lon="10.7016827"><ele>55.0</ele><time>2026-04-18T07:08:27.345Z</time></trkpt><trkpt lat="43.5326773" lon="10.7016373"><ele>55.0</ele><time>2026-04-18T07:08:28.345Z</time></trkpt><trkpt lat="43.5328789" lon="10.7015932"><ele>55.0</ele><time>2026-04-18T07:08:29.345Z</time></trkpt><trkpt lat="43.5330751" lon="10.7015465"><ele>55.0</ele><time>2026-04-18T07:08:30.345Z</time></trkpt><trkpt lat="43.5332686" lon="10.7015062"><ele>55.33333333333333</ele><time>2026-04-18T07:08:31.348Z</time></trkpt><trkpt lat="43.5334614" lon="10.7014599"><ele>55.66666666666667</ele><time>2026-04-18T07:08:32.342Z</time></trkpt><trkpt lat="43.5336579" lon="10.7014118"><ele>56.0</ele><time>2026-04-18T07:08:33.343Z</time></trkpt><trkpt lat="43.533852" lon="10.7013663"><ele>56.66666666666667</ele><time>2026-04-18T07:08:34.342Z</time></trkpt><trkpt lat="43.5340394" lon="10.7013241"><ele>57.33333333333333</ele><time>2026-04-18T07:08:35.345Z</time></trkpt><trkpt lat="43.5342218" lon="10.701288"><ele>58.0</ele><time>2026-04-18T07:08:36.343Z</time></trkpt><trkpt lat="43.5343945" lon="10.7012512"><ele>57.33333333333333</ele><time>2026-04-18T07:08:37.342Z</time></trkpt><trkpt lat="43.5345594" lon="10.7012156"><ele>56.66666666666667</ele><time>2026-04-18T07:08:38.345Z</time></trkpt><trkpt lat="43.5347185" lon="10.7011837"><ele>56.0</ele><time>2026-04-18T07:08:39.344Z</time></trkpt><trkpt lat="43.5348707" lon="10.7011556"><ele>56.0</ele><time>2026-04-18T07:08:40.346Z</time></trkpt><trkpt lat="43.5350165" lon="10.7011291"><ele>56.0</ele><time>2026-04-18T07:08:41.342Z</time></trkpt><trkpt lat="43.5351538" lon="10.701104"><ele>56.0</ele><time>2026-04-18T07:08:42.343Z</time></trkpt><trkpt lat="43.5352838" lon="10.7010797"><ele>56.0</ele><time>2026-04-18T07:08:43.342Z</time></trkpt><trkpt lat="43.535413" lon="10.701055"><ele>56.25</ele><time>2026-04-18T07:08:44.343Z</time></trkpt><trkpt lat="43.53554" lon="10.7010281"><ele>56.5</ele><time>2026-04-18T07:08:45.342Z</time></trkpt><trkpt lat="43.5356695" lon="10.7009996"><ele>56.75</ele><time>2026-04-18T07:08:46.342Z</time></trkpt><trkpt lat="43.5358029" lon="10.7009716"><ele>57.0</ele><time>2026-04-18T07:08:47.344Z</time></trkpt><trkpt lat="43.5359394" lon="10.7009413"><ele>57.0</ele><time>2026-04-18T07:08:48.346Z</time></trkpt><trkpt lat="43.5360827" lon="10.7009113"><ele>57.0</ele><time>2026-04-18T07:08:49.345Z</time></trkpt><trkpt lat="43.5362321" lon="10.7008784"><ele>57.0</ele><time>2026-04-18T07:08:50.346Z</time></trkpt><trkpt lat="43.5363871" lon="10.7008473"><ele>56.33333333333333</ele><time>2026-04-18T07:08:51.346Z</time></trkpt><trkpt lat="43.5365426" lon="10.7008185"><ele>55.666666666666664</ele><time>2026-04-18T07:08:52.345Z</time></trkpt><trkpt lat="43.536698" lon="10.7007926"><ele>55.0</ele><time>2026-04-18T07:08:53.345Z</time></trkpt><trkpt lat="43.5368472" lon="10.7007627"><ele>55.0</ele><time>2026-04-18T07:08:54.345Z</time></trkpt><trkpt lat="43.5369828" lon="10.7007365"><ele>55.0</ele><time>2026-04-18T07:08:55.347Z</time></trkpt><trkpt lat="43.5371106" lon="10.7007124"><ele>55.0</ele><time>2026-04-18T07:08:56.345Z</time></trkpt><trkpt lat="43.5372237" lon="10.700694"><ele>55.0</ele><time>2026-04-18T07:08:57.345Z</time></trkpt><trkpt lat="43.5373126" lon="10.7006847"><ele>55.166666666666664</ele><time>2026-04-18T07:08:58.345Z</time></trkpt><trkpt lat="43.5374023" lon="10.7007155"><ele>55.33333333333333</ele><time>2026-04-18T07:09:00.345Z</time></trkpt><trkpt lat="43.5374234" lon="10.7008546"><ele>55.5</ele><time>2026-04-18T07:09:02.344Z</time></trkpt><trkpt lat="43.537434" lon="10.7009501"><ele>55.66666666666667</ele><time>2026-04-18T07:09:03.345Z</time></trkpt><trkpt lat="43.5374482" lon="10.7010507"><ele>55.833333333333336</ele><time>2026-04-18T07:09:04.344Z</time></trkpt><trkpt lat="43.5374648" lon="10.7011571"><ele>56.0</ele><time>2026-04-18T07:09:05.342Z</time></trkpt><trkpt lat="43.5374784" lon="10.7012766"><ele>56.00000000000001</ele><time>2026-04-18T07:09:06.341Z</time></trkpt><trkpt lat="43.5374921" lon="10.7014028"><ele>56.0</ele><time>2026-04-18T07:09:07.342Z</time></trkpt><trkpt lat="43.537501" lon="10.7015225"><ele>56.0</ele><time>2026-04-18T07:09:08.342Z</time></trkpt><trkpt lat="43.537509" lon="10.7016381"><ele>56.0</ele><time>2026-04-18T07:09:09.346Z</time></trkpt><trkpt lat="43.5375171" lon="10.7017473"><ele>56.00000000000001</ele><time>2026-04-18T07:09:10.345Z</time></trkpt><trkpt lat="43.5375312" lon="10.7018472"><ele>56.0</ele><time>2026-04-18T07:09:11.345Z</time></trkpt><trkpt lat="43.5375465" lon="10.7019465"><ele>55.50000000000001</ele><time>2026-04-18T07:09:12.345Z</time></trkpt><trkpt lat="43.5375622" lon="10.7020511"><ele>55.0</ele><time>2026-04-18T07:09:13.345Z</time></trkpt><trkpt lat="43.537575" lon="10.7021616"><ele>54.5</ele><time>2026-04-18T07:09:14.345Z</time></trkpt><trkpt lat="43.537592" lon="10.7022675"><ele>54.0</ele><time>2026-04-18T07:09:15.344Z</time></trkpt><trkpt lat="43.5376099" lon="10.7023657"><ele>53.50000000000001</ele><time>2026-04-18T07:09:16.342Z</time></trkpt><trkpt lat="43.537631" lon="10.7024589"><ele>53.0</ele><time>2026-04-18T07:09:17.345Z</time></trkpt><trkpt lat="43.537662" lon="10.7025444"><ele>53.00000000000001</ele><time>2026-04-18T07:09:18.346Z</time></trkpt><trkpt lat="43.5377057" lon="10.7026204"><ele>53.0</ele><time>2026-04-18T07:09:19.346Z</time></trkpt><trkpt lat="43.5377693" lon="10.7026869"><ele>53.0</ele><time>2026-04-18T07:09:20.346Z</time></trkpt><trkpt lat="43.5378434" lon="10.7027515"><ele>53.0</ele><time>2026-04-18T07:09:21.347Z</time></trkpt><trkpt lat="43.5379193" lon="10.7028152"><ele>53.00000000000001</ele><time>2026-04-18T07:09:22.344Z</time></trkpt><trkpt lat="43.5379988" lon="10.7028892"><ele>53.0</ele><time>2026-04-18T07:09:23.346Z</time></trkpt><trkpt lat="43.5380874" lon="10.7029706"><ele>52.8</ele><time>2026-04-18T07:09:24.345Z</time></trkpt><trkpt lat="43.5381752" lon="10.7030519"><ele>52.599999999999994</ele><time>2026-04-18T07:09:25.345Z</time></trkpt><trkpt lat="43.538257" lon="10.7031281"><ele>52.400000000000006</ele><time>2026-04-18T07:09:26.345Z</time></trkpt><trkpt lat="43.5383339" lon="10.7031989"><ele>52.2</ele><time>2026-04-18T07:09:27.347Z</time></trkpt><trkpt lat="43.5384075" lon="10.7032652"><ele>52.0</ele><time>2026-04-18T07:09:28.345Z</time></trkpt><trkpt lat="43.5384715" lon="10.7033349"><ele>51.99999999999999</ele><time>2026-04-18T07:09:29.349Z</time></trkpt><trkpt lat="43.5385254" lon="10.7034065"><ele>52.0</ele><time>2026-04-18T07:09:30.346Z</time></trkpt><trkpt lat="43.5385671" lon="10.7034873"><ele>52.0</ele><time>2026-04-18T07:09:31.346Z</time></trkpt><trkpt lat="43.5385976" lon="10.7035816"><ele>52.0</ele><time>2026-04-18T07:09:32.342Z</time></trkpt><trkpt lat="43.5386133" lon="10.7036918"><ele>51.99999999999999</ele><time>2026-04-18T07:09:33.344Z</time></trkpt><trkpt lat="43.5386175" lon="10.7038075"><ele>52.0</ele><time>2026-04-18T07:09:34.342Z</time></trkpt><trkpt lat="43.5386233" lon="10.7039237"><ele>51.666666666666664</ele><time>2026-04-18T07:09:35.346Z</time></trkpt><trkpt lat="43.5386422" lon="10.7040312"><ele>51.33333333333333</ele><time>2026-04-18T07:09:36.346Z</time></trkpt><trkpt lat="43.5386769" lon="10.7041321"><ele>51.0</ele><time>2026-04-18T07:09:37.345Z</time></trkpt><trkpt lat="43.5387299" lon="10.7042296"><ele>50.66666666666667</ele><time>2026-04-18T07:09:38.345Z</time></trkpt><trkpt lat="43.5387957" lon="10.7043227"><ele>50.333333333333336</ele><time>2026-04-18T07:09:39.345Z</time></trkpt><trkpt lat="43.5388666" lon="10.7044072"><ele>50.0</ele><time>2026-04-18T07:09:40.346Z</time></trkpt><trkpt lat="43.5389282" lon="10.7044865"><ele>50.00000000000001</ele><time>2026-04-18T07:09:41.345Z</time></trkpt><trkpt lat="43.538977" lon="10.7045661"><ele>50.0</ele><time>2026-04-18T07:09:42.345Z</time></trkpt><trkpt lat="43.5390128" lon="10.7046453"><ele>50.0</ele><time>2026-04-18T07:09:43.345Z</time></trkpt><trkpt lat="43.5390324" lon="10.7047334"><ele>50.0</ele><time>2026-04-18T07:09:44.347Z</time></trkpt><trkpt lat="43.5390356" lon="10.7048278"><ele>50.00000000000001</ele><time>2026-04-18T07:09:45.345Z</time></trkpt><trkpt lat="43.5390275" lon="10.704988"><ele>50.0</ele><time>2026-04-18T07:09:47.345Z</time></trkpt><trkpt lat="43.5390124" lon="10.7051142"><ele>50.00000000000001</ele><time>2026-04-18T07:09:49.342Z</time></trkpt><trkpt lat="43.5390052" lon="10.7052319"><ele>50.0</ele><time>2026-04-18T07:09:51.346Z</time></trkpt><trkpt lat="43.5389957" lon="10.705329"><ele>50.0</ele><time>2026-04-18T07:09:53.345Z</time></trkpt><trkpt lat="43.5389899" lon="10.7054525"><ele>50.0</ele><time>2026-04-18T07:09:56.346Z</time></trkpt><trkpt lat="43.5389953" lon="10.7055464"><ele>50.00000000000001</ele><time>2026-04-18T07:09:59.346Z</time></trkpt><trkpt lat="43.5390462" lon="10.7054877"><ele>50.0</ele><time>2026-04-18T07:15:10.342Z</time></trkpt><trkpt lat="43.539052" lon="10.7053769"><ele>50.0</ele><time>2026-04-18T07:15:13.345Z</time></trkpt><trkpt lat="43.5390494" lon="10.7052617"><ele>50.0</ele><time>2026-04-18T07:15:15.344Z</time></trkpt><trkpt lat="43.5390594" lon="10.7051346"><ele>50.0</ele><time>2026-04-18T07:15:17.344Z</time></trkpt><trkpt lat="43.5390718" lon="10.7049818"><ele>50.0</ele><time>2026-04-18T07:15:19.343Z</time></trkpt><trkpt lat="43.5390831" lon="10.7048119"><ele>50.0</ele><time>2026-04-18T07:15:21.343Z</time></trkpt><trkpt lat="43.539064" lon="10.7046546"><ele>50.0</ele><time>2026-04-18T07:15:23.345Z</time></trkpt><trkpt lat="43.5389977" lon="10.7045188"><ele>50.0</ele><time>2026-04-18T07:15:25.343Z</time></trkpt><trkpt lat="43.5389512" lon="10.7044598"><ele>50.0</ele><time>2026-04-18T07:15:26.342Z</time></trkpt><trkpt lat="43.5388549" lon="10.704347"><ele>50.0</ele><time>2026-04-18T07:15:28.342Z</time></trkpt><trkpt lat="43.5388066" lon="10.7042838"><ele>50.0</ele><time>2026-04-18T07:15:29.341Z</time></trkpt><trkpt lat="43.5387257" lon="10.7041561"><ele>50.00000000000001</ele><time>2026-04-18T07:15:31.345Z</time></trkpt><trkpt lat="43.5386972" lon="10.7040744"><ele>50.0</ele><time>2026-04-18T07:15:32.342Z</time></trkpt><trkpt lat="43.5386756" lon="10.7039868"><ele>50.0</ele><time>2026-04-18T07:15:33.343Z</time></trkpt><trkpt lat="43.5386625" lon="10.7038946"><ele>50.0</ele><time>2026-04-18T07:15:34.346Z</time></trkpt><trkpt lat="43.5386593" lon="10.7037959"><ele>50.0</ele><time>2026-04-18T07:15:35.342Z</time></trkpt><trkpt lat="43.5386523" lon="10.7036892"><ele>50.00000000000001</ele><time>2026-04-18T07:15:36.342Z</time></trkpt><trkpt lat="43.5386401" lon="10.7035871"><ele>50.0</ele><time>2026-04-18T07:15:37.346Z</time></trkpt><trkpt lat="43.5386139" lon="10.7034852"><ele>50.4</ele><time>2026-04-18T07:15:38.345Z</time></trkpt><trkpt lat="43.5385725" lon="10.7033937"><ele>50.8</ele><time>2026-04-18T07:15:39.342Z</time></trkpt><trkpt lat="43.5385171" lon="10.7033105"><ele>51.2</ele><time>2026-04-18T07:15:40.345Z</time></trkpt><trkpt lat="43.5384429" lon="10.70323"><ele>51.6</ele><time>2026-04-18T07:15:41.343Z</time></trkpt><trkpt lat="43.5383632" lon="10.7031496"><ele>52.0</ele><time>2026-04-18T07:15:42.342Z</time></trkpt><trkpt lat="43.5382803" lon="10.7030729"><ele>51.99999999999999</ele><time>2026-04-18T07:15:43.345Z</time></trkpt><trkpt lat="43.5382032" lon="10.7030011"><ele>52.0</ele><time>2026-04-18T07:15:44.345Z</time></trkpt><trkpt lat="43.5381357" lon="10.7029311"><ele>52.0</ele><time>2026-04-18T07:15:45.346Z</time></trkpt><trkpt lat="43.5380703" lon="10.7028717"><ele>52.0</ele><time>2026-04-18T07:15:46.346Z</time></trkpt><trkpt lat="43.5380071" lon="10.7028195"><ele>51.99999999999999</ele><time>2026-04-18T07:15:47.345Z</time></trkpt><trkpt lat="43.5379486" lon="10.7027703"><ele>52.0</ele><time>2026-04-18T07:15:48.345Z</time></trkpt><trkpt lat="43.5378907" lon="10.7027256"><ele>52.166666666666664</ele><time>2026-04-18T07:15:49.342Z</time></trkpt><trkpt lat="43.5378307" lon="10.7026829"><ele>52.33333333333333</ele><time>2026-04-18T07:15:50.341Z</time></trkpt><trkpt lat="43.5377717" lon="10.7026371"><ele>52.5</ele><time>2026-04-18T07:15:51.343Z</time></trkpt><trkpt lat="43.5377182" lon="10.7025868"><ele>52.66666666666667</ele><time>2026-04-18T07:15:52.341Z</time></trkpt><trkpt lat="43.5376422" lon="10.7024601"><ele>52.833333333333336</ele><time>2026-04-18T07:15:54.342Z</time></trkpt><trkpt lat="43.5376172" lon="10.7023753"><ele>53.0</ele><time>2026-04-18T07:15:55.341Z</time></trkpt><trkpt lat="43.5376006" lon="10.7022782"><ele>53.00000000000001</ele><time>2026-04-18T07:15:56.341Z</time></trkpt><trkpt lat="43.5375865" lon="10.70217"><ele>53.0</ele><time>2026-04-18T07:15:57.341Z</time></trkpt><trkpt lat="43.537573" lon="10.7020574"><ele>53.0</ele><time>2026-04-18T07:15:58.343Z</time></trkpt><trkpt lat="43.5375553" lon="10.7019405"><ele>53.0</ele><time>2026-04-18T07:15:59.342Z</time></trkpt><trkpt lat="43.5375381" lon="10.701822"><ele>53.00000000000001</ele><time>2026-04-18T07:16:00.342Z</time></trkpt><trkpt lat="43.5375215" lon="10.7017053"><ele>53.0</ele><time>2026-04-18T07:16:01.342Z</time></trkpt><trkpt lat="43.537505" lon="10.701591"><ele>53.50000000000001</ele><time>2026-04-18T07:16:02.342Z</time></trkpt><trkpt lat="43.537484" lon="10.7014774"><ele>54.0</ele><time>2026-04-18T07:16:03.343Z</time></trkpt><trkpt lat="43.5374649" lon="10.7013629"><ele>54.5</ele><time>2026-04-18T07:16:04.343Z</time></trkpt><trkpt lat="43.5374464" lon="10.7012586"><ele>55.0</ele><time>2026-04-18T07:16:05.345Z</time></trkpt><trkpt lat="43.5374346" lon="10.7011699"><ele>55.50000000000001</ele><time>2026-04-18T07:16:06.344Z</time></trkpt><trkpt lat="43.5374132" lon="10.7010189"><ele>56.0</ele><time>2026-04-18T07:16:08.345Z</time></trkpt><trkpt lat="43.5373948" lon="10.7008889"><ele>56.199999999999996</ele><time>2026-04-18T07:16:10.343Z</time></trkpt><trkpt lat="43.537367" lon="10.7007535"><ele>56.39999999999999</ele><time>2026-04-18T07:16:12.342Z</time></trkpt><trkpt lat="43.5373534" lon="10.7006647"><ele>56.6</ele><time>2026-04-18T07:16:14.343Z</time></trkpt><trkpt lat="43.5374683" lon="10.7006292"><ele>56.8</ele><time>2026-04-18T07:16:22.342Z</time></trkpt><trkpt lat="43.5375575" lon="10.7006143"><ele>57.0</ele><time>2026-04-18T07:16:23.342Z</time></trkpt><trkpt lat="43.5376556" lon="10.7006016"><ele>57.0</ele><time>2026-04-18T07:16:24.342Z</time></trkpt><trkpt lat="43.5377664" lon="10.7005853"><ele>57.0</ele><time>2026-04-18T07:16:25.342Z</time></trkpt><trkpt lat="43.5378839" lon="10.700568"><ele>57.0</ele><time>2026-04-18T07:16:26.341Z</time></trkpt><trkpt lat="43.5381581" lon="10.7005278"><ele>57.0</ele><time>2026-04-18T07:16:28.344Z</time></trkpt><trkpt lat="43.5383092" lon="10.7005002"><ele>57.0</ele><time>2026-04-18T07:16:29.342Z</time></trkpt><trkpt lat="43.5384686" lon="10.7004707"><ele>57.0</ele><time>2026-04-18T07:16:30.345Z</time></trkpt><trkpt lat="43.5386323" lon="10.7004448"><ele>56.66666666666667</ele><time>2026-04-18T07:16:31.345Z</time></trkpt><trkpt lat="43.5387945" lon="10.7004217"><ele>56.333333333333336</ele><time>2026-04-18T07:16:32.345Z</time></trkpt><trkpt lat="43.5389597" lon="10.7003982"><ele>56.0</ele><time>2026-04-18T07:16:33.345Z</time></trkpt><trkpt lat="43.5391226" lon="10.7003738"><ele>56.0</ele><time>2026-04-18T07:16:34.346Z</time></trkpt><trkpt lat="43.5392861" lon="10.7003543"><ele>56.0</ele><time>2026-04-18T07:16:35.345Z</time></trkpt><trkpt lat="43.539448" lon="10.7003358"><ele>56.0</ele><time>2026-04-18T07:16:36.345Z</time></trkpt><trkpt lat="43.5396126" lon="10.7003188"><ele>56.333333333333336</ele><time>2026-04-18T07:16:37.346Z</time></trkpt><trkpt lat="43.5397806" lon="10.7003027"><ele>56.66666666666667</ele><time>2026-04-18T07:16:38.343Z</time></trkpt><trkpt lat="43.539944" lon="10.700284"><ele>57.0</ele><time>2026-04-18T07:16:39.347Z</time></trkpt><trkpt lat="43.540104" lon="10.7002628"><ele>57.33333333333333</ele><time>2026-04-18T07:16:40.345Z</time></trkpt><trkpt lat="43.5402614" lon="10.7002398"><ele>57.666666666666664</ele><time>2026-04-18T07:16:41.346Z</time></trkpt><trkpt lat="43.5404166" lon="10.7002208"><ele>58.0</ele><time>2026-04-18T07:16:42.343Z</time></trkpt><trkpt lat="43.5405608" lon="10.7002019"><ele>58.0</ele><time>2026-04-18T07:16:43.348Z</time></trkpt><trkpt lat="43.5406985" lon="10.7001803"><ele>58.0</ele><time>2026-04-18T07:16:44.342Z</time></trkpt><trkpt lat="43.5408348" lon="10.7001573"><ele>58.0</ele><time>2026-04-18T07:16:45.342Z</time></trkpt><trkpt lat="43.5409639" lon="10.7001355"><ele>58.0</ele><time>2026-04-18T07:16:46.346Z</time></trkpt><trkpt lat="43.5410868" lon="10.700114"><ele>58.0</ele><time>2026-04-18T07:16:47.345Z</time></trkpt><trkpt lat="43.5412007" lon="10.7000869"><ele>58.0</ele><time>2026-04-18T07:16:48.344Z</time></trkpt><trkpt lat="43.5413006" lon="10.7000641"><ele>58.0</ele><time>2026-04-18T07:16:49.343Z</time></trkpt><trkpt lat="43.5413932" lon="10.7000544"><ele>58.0</ele><time>2026-04-18T07:16:50.343Z</time></trkpt><trkpt lat="43.5414858" lon="10.7000732"><ele>58.0</ele><time>2026-04-18T07:16:51.343Z</time></trkpt><trkpt lat="43.5415717" lon="10.7001177"><ele>57.599999999999994</ele><time>2026-04-18T07:16:52.343Z</time></trkpt><trkpt lat="43.5416397" lon="10.7001838"><ele>57.199999999999996</ele><time>2026-04-18T07:16:53.343Z</time></trkpt><trkpt lat="43.5416962" lon="10.7002736"><ele>56.8</ele><time>2026-04-18T07:16:54.342Z</time></trkpt><trkpt lat="43.5417337" lon="10.7003853"><ele>56.4</ele><time>2026-04-18T07:16:55.344Z</time></trkpt><trkpt lat="43.541761" lon="10.7005214"><ele>56.0</ele><time>2026-04-18T07:16:56.343Z</time></trkpt><trkpt lat="43.5417808" lon="10.700679"><ele>56.0</ele><time>2026-04-18T07:16:57.343Z</time></trkpt><trkpt lat="43.5418048" lon="10.7008514"><ele>56.0</ele><time>2026-04-18T07:16:58.343Z</time></trkpt><trkpt lat="43.5418293" lon="10.7010405"><ele>56.0</ele><time>2026-04-18T07:16:59.343Z</time></trkpt><trkpt lat="43.5418563" lon="10.7012362"><ele>56.0</ele><time>2026-04-18T07:17:00.343Z</time></trkpt><trkpt lat="43.5418849" lon="10.7014362"><ele>55.5</ele><time>2026-04-18T07:17:01.348Z</time></trkpt><trkpt lat="43.541914" lon="10.7016331"><ele>55.0</ele><time>2026-04-18T07:17:02.345Z</time></trkpt><trkpt lat="43.5419391" lon="10.7018249"><ele>54.5</ele><time>2026-04-18T07:17:03.345Z</time></trkpt><trkpt lat="43.5419623" lon="10.7020158"><ele>54.0</ele><time>2026-04-18T07:17:04.341Z</time></trkpt><trkpt lat="43.5419871" lon="10.7022069"><ele>54.0</ele><time>2026-04-18T07:17:05.343Z</time></trkpt><trkpt lat="43.5420105" lon="10.7023889"><ele>54.0</ele><time>2026-04-18T07:17:06.345Z</time></trkpt><trkpt lat="43.5420395" lon="10.7025607"><ele>54.0</ele><time>2026-04-18T07:17:07.345Z</time></trkpt><trkpt lat="43.5420685" lon="10.7027305"><ele>54.0</ele><time>2026-04-18T07:17:08.346Z</time></trkpt><trkpt lat="43.542097" lon="10.702906"><ele>53.0</ele><time>2026-04-18T07:17:09.345Z</time></trkpt><trkpt lat="43.5421216" lon="10.7030973"><ele>52.0</ele><time>2026-04-18T07:17:10.345Z</time></trkpt><trkpt lat="43.5421467" lon="10.7033076"><ele>51.0</ele><time>2026-04-18T07:17:11.345Z</time></trkpt><trkpt lat="43.5421792" lon="10.7035382"><ele>51.0</ele><time>2026-04-18T07:17:12.346Z</time></trkpt><trkpt lat="43.5422136" lon="10.7037762"><ele>51.0</ele><time>2026-04-18T07:17:13.345Z</time></trkpt><trkpt lat="43.5422486" lon="10.7040163"><ele>51.0</ele><time>2026-04-18T07:17:14.345Z</time></trkpt><trkpt lat="43.5422832" lon="10.7042554"><ele>50.33333333333333</ele><time>2026-04-18T07:17:15.345Z</time></trkpt><trkpt lat="43.5423156" lon="10.7044793"><ele>49.666666666666664</ele><time>2026-04-18T07:17:16.347Z</time></trkpt><trkpt lat="43.5423438" lon="10.704694"><ele>49.0</ele><time>2026-04-18T07:17:17.346Z</time></trkpt><trkpt lat="43.542372" lon="10.7049078"><ele>49.0</ele><time>2026-04-18T07:17:18.343Z</time></trkpt><trkpt lat="43.542399" lon="10.7051296"><ele>49.0</ele><time>2026-04-18T07:17:19.343Z</time></trkpt><trkpt lat="43.5424254" lon="10.7053528"><ele>49.0</ele><time>2026-04-18T07:17:20.344Z</time></trkpt><trkpt lat="43.542452" lon="10.7055721"><ele>49.33333333333333</ele><time>2026-04-18T07:17:21.342Z</time></trkpt><trkpt lat="43.5424799" lon="10.7057879"><ele>49.66666666666667</ele><time>2026-04-18T07:17:22.343Z</time></trkpt><trkpt lat="43.5425129" lon="10.7060152"><ele>50.0</ele><time>2026-04-18T07:17:23.343Z</time></trkpt><trkpt lat="43.5425499" lon="10.7062629"><ele>50.333333333333336</ele><time>2026-04-18T07:17:24.342Z</time></trkpt><trkpt lat="43.5425871" lon="10.7065211"><ele>50.66666666666667</ele><time>2026-04-18T07:17:25.345Z</time></trkpt><trkpt lat="43.5426205" lon="10.7067811"><ele>51.0</ele><time>2026-04-18T07:17:26.345Z</time></trkpt><trkpt lat="43.542652" lon="10.7070354"><ele>50.33333333333333</ele><time>2026-04-18T07:17:27.345Z</time></trkpt><trkpt lat="43.5426868" lon="10.7072794"><ele>49.666666666666664</ele><time>2026-04-18T07:17:28.345Z</time></trkpt><trkpt lat="43.54272" lon="10.707511"><ele>49.0</ele><time>2026-04-18T07:17:29.347Z</time></trkpt><trkpt lat="43.5427532" lon="10.7077445"><ele>48.666666666666664</ele><time>2026-04-18T07:17:30.346Z</time></trkpt><trkpt lat="43.542791" lon="10.7079921"><ele>48.33333333333333</ele><time>2026-04-18T07:17:31.343Z</time></trkpt><trkpt lat="43.5428281" lon="10.7082551"><ele>48.0</ele><time>2026-04-18T07:17:32.346Z</time></trkpt><trkpt lat="43.5428672" lon="10.7085369"><ele>48.0</ele><time>2026-04-18T07:17:33.343Z</time></trkpt><trkpt lat="43.542907" lon="10.7088325"><ele>48.0</ele><time>2026-04-18T07:17:34.343Z</time></trkpt><trkpt lat="43.5429484" lon="10.70913"><ele>48.0</ele><time>2026-04-18T07:17:35.343Z</time></trkpt><trkpt lat="43.5429887" lon="10.7094343"><ele>48.0</ele><time>2026-04-18T07:17:36.343Z</time></trkpt><trkpt lat="43.5430288" lon="10.7097427"><ele>48.0</ele><time>2026-04-18T07:17:37.343Z</time></trkpt><trkpt lat="43.5430689" lon="10.710053"><ele>46.5</ele><time>2026-04-18T07:17:38.343Z</time></trkpt><trkpt lat="43.5431071" lon="10.7103666"><ele>45.0</ele><time>2026-04-18T07:17:39.343Z</time></trkpt><trkpt lat="43.5431552" lon="10.7106725"><ele>45.0</ele><time>2026-04-18T07:17:40.346Z</time></trkpt><trkpt lat="43.5431973" lon="10.710968"><ele>45.0</ele><time>2026-04-18T07:17:41.345Z</time></trkpt><trkpt lat="43.5432325" lon="10.711244"><ele>45.0</ele><time>2026-04-18T07:17:42.345Z</time></trkpt><trkpt lat="43.5432643" lon="10.7115055"><ele>44.333333333333336</ele><time>2026-04-18T07:17:43.343Z</time></trkpt><trkpt lat="43.5432954" lon="10.7117605"><ele>43.66666666666667</ele><time>2026-04-18T07:17:44.342Z</time></trkpt><trkpt lat="43.5433287" lon="10.7120089"><ele>43.0</ele><time>2026-04-18T07:17:45.343Z</time></trkpt><trkpt lat="43.5433621" lon="10.7122572"><ele>43.0</ele><time>2026-04-18T07:17:46.347Z</time></trkpt><trkpt lat="43.5433954" lon="10.7125039"><ele>43.0</ele><time>2026-04-18T07:17:47.346Z</time></trkpt><trkpt lat="43.5434281" lon="10.7127472"><ele>43.0</ele><time>2026-04-18T07:17:48.344Z</time></trkpt><trkpt lat="43.5434618" lon="10.71299"><ele>42.66666666666667</ele><time>2026-04-18T07:17:49.343Z</time></trkpt><trkpt lat="43.5434937" lon="10.7132287"><ele>42.333333333333336</ele><time>2026-04-18T07:17:50.344Z</time></trkpt><trkpt lat="43.5435234" lon="10.7134654"><ele>42.0</ele><time>2026-04-18T07:17:51.343Z</time></trkpt><trkpt lat="43.5435548" lon="10.7136974"><ele>41.666666666666664</ele><time>2026-04-18T07:17:52.343Z</time></trkpt><trkpt lat="43.5435853" lon="10.7139226"><ele>41.33333333333333</ele><time>2026-04-18T07:17:53.343Z</time></trkpt><trkpt lat="43.5436138" lon="10.7141319"><ele>41.0</ele><time>2026-04-18T07:17:54.343Z</time></trkpt><trkpt lat="43.5436404" lon="10.7143222"><ele>42.0</ele><time>2026-04-18T07:17:55.344Z</time></trkpt><trkpt lat="43.5436638" lon="10.7144939"><ele>43.0</ele><time>2026-04-18T07:17:56.343Z</time></trkpt><trkpt lat="43.5436856" lon="10.7146443"><ele>44.0</ele><time>2026-04-18T07:17:57.343Z</time></trkpt><trkpt lat="43.5437063" lon="10.7147695"><ele>45.0</ele><time>2026-04-18T07:17:58.343Z</time></trkpt><trkpt lat="43.5437284" lon="10.7148742"><ele>46.0</ele><time>2026-04-18T07:17:59.343Z</time></trkpt><trkpt lat="43.5437469" lon="10.7149601"><ele>46.0</ele><time>2026-04-18T07:18:00.345Z</time></trkpt><trkpt lat="43.5437657" lon="10.7150885"><ele>46.0</ele><time>2026-04-18T07:18:02.343Z</time></trkpt><trkpt lat="43.5437429" lon="10.7151764"><ele>46.0</ele><time>2026-04-18T07:18:05.343Z</time></trkpt><trkpt lat="43.5436654" lon="10.715121"><ele>46.0</ele><time>2026-04-18T07:18:08.343Z</time></trkpt><trkpt lat="43.5436119" lon="10.7150038"><ele>46.0</ele><time>2026-04-18T07:18:10.343Z</time></trkpt><trkpt lat="43.543588" lon="10.7149095"><ele>46.0</ele><time>2026-04-18T07:18:11.343Z</time></trkpt><trkpt lat="43.5435602" lon="10.7147985"><ele>46.0</ele><time>2026-04-18T07:18:12.343Z</time></trkpt><trkpt lat="43.5435317" lon="10.7146974"><ele>46.0</ele><time>2026-04-18T07:18:13.345Z</time></trkpt><trkpt lat="43.5435044" lon="10.7146047"><ele>46.0</ele><time>2026-04-18T07:18:14.345Z</time></trkpt><trkpt lat="43.5434764" lon="10.7145061"><ele>46.0</ele><time>2026-04-18T07:18:15.345Z</time></trkpt><trkpt lat="43.5434438" lon="10.7144"><ele>46.0</ele><time>2026-04-18T07:18:16.344Z</time></trkpt><trkpt lat="43.5434031" lon="10.7143021"><ele>46.0</ele><time>2026-04-18T07:18:17.344Z</time></trkpt><trkpt lat="43.5433553" lon="10.7142163"><ele>45.285714285714285</ele><time>2026-04-18T07:18:18.344Z</time></trkpt><trkpt lat="43.5433048" lon="10.7141443"><ele>44.57142857142857</ele><time>2026-04-18T07:18:19.347Z</time></trkpt><trkpt lat="43.5432448" lon="10.7140807"><ele>43.857142857142854</ele><time>2026-04-18T07:18:20.345Z</time></trkpt><trkpt lat="43.5431793" lon="10.714033"><ele>43.14285714285714</ele><time>2026-04-18T07:18:21.346Z</time></trkpt><trkpt lat="43.5431122" lon="10.714006"><ele>42.42857142857143</ele><time>2026-04-18T07:18:22.343Z</time></trkpt><trkpt lat="43.5430409" lon="10.7139954"><ele>41.71428571428571</ele><time>2026-04-18T07:18:23.347Z</time></trkpt><trkpt lat="43.5429748" lon="10.7139915"><ele>41.0</ele><time>2026-04-18T07:18:24.345Z</time></trkpt><trkpt lat="43.5428851" lon="10.7139754"><ele>41.0</ele><time>2026-04-18T07:18:26.345Z</time></trkpt><trkpt lat="43.5427795" lon="10.7140127"><ele>41.0</ele><time>2026-04-18T07:18:46.346Z</time></trkpt><trkpt lat="43.5426612" lon="10.7140169"><ele>41.0</ele><time>2026-04-18T07:18:48.343Z</time></trkpt><trkpt lat="43.542583" lon="10.7140115"><ele>41.0</ele><time>2026-04-18T07:18:49.345Z</time></trkpt><trkpt lat="43.5424931" lon="10.7140102"><ele>41.0</ele><time>2026-04-18T07:18:50.343Z</time></trkpt><trkpt lat="43.5423942" lon="10.7140164"><ele>41.0</ele><time>2026-04-18T07:18:51.346Z</time></trkpt><trkpt lat="43.542289" lon="10.7140312"><ele>41.0</ele><time>2026-04-18T07:18:52.346Z</time></trkpt><trkpt lat="43.5421776" lon="10.7140559"><ele>41.0</ele><time>2026-04-18T07:18:53.343Z</time></trkpt><trkpt lat="43.5420636" lon="10.7140819"><ele>41.0</ele><time>2026-04-18T07:18:54.346Z</time></trkpt><trkpt lat="43.5419517" lon="10.7141084"><ele>41.0</ele><time>2026-04-18T07:18:55.346Z</time></trkpt><trkpt lat="43.5418464" lon="10.7141321"><ele>40.8</ele><time>2026-04-18T07:18:56.344Z</time></trkpt><trkpt lat="43.5417506" lon="10.714161"><ele>40.599999999999994</ele><time>2026-04-18T07:18:57.345Z</time></trkpt><trkpt lat="43.5416598" lon="10.7141911"><ele>40.4</ele><time>2026-04-18T07:18:58.344Z</time></trkpt><trkpt lat="43.5415684" lon="10.7142291"><ele>40.2</ele><time>2026-04-18T07:18:59.344Z</time></trkpt><trkpt lat="43.5414718" lon="10.7142639"><ele>40.0</ele><time>2026-04-18T07:19:00.347Z</time></trkpt><trkpt lat="43.5413736" lon="10.7142981"><ele>40.0</ele><time>2026-04-18T07:19:01.342Z</time></trkpt><trkpt lat="43.5412782" lon="10.7143454"><ele>40.0</ele><time>2026-04-18T07:19:02.346Z</time></trkpt><trkpt lat="43.5411866" lon="10.7143905"><ele>40.0</ele><time>2026-04-18T07:19:03.347Z</time></trkpt><trkpt lat="43.5410911" lon="10.7144248"><ele>40.0</ele><time>2026-04-18T07:19:04.347Z</time></trkpt><trkpt lat="43.5409923" lon="10.7144477"><ele>40.0</ele><time>2026-04-18T07:19:05.346Z</time></trkpt><trkpt lat="43.540895" lon="10.7144716"><ele>41.2</ele><time>2026-04-18T07:19:06.345Z</time></trkpt><trkpt lat="43.540794" lon="10.7144813"><ele>42.4</ele><time>2026-04-18T07:19:07.345Z</time></trkpt><trkpt lat="43.5406945" lon="10.7144941"><ele>43.599999999999994</ele><time>2026-04-18T07:19:08.345Z</time></trkpt><trkpt lat="43.5406026" lon="10.7145051"><ele>44.8</ele><time>2026-04-18T07:19:09.346Z</time></trkpt><trkpt lat="43.5405193" lon="10.7145117"><ele>46.0</ele><time>2026-04-18T07:19:10.349Z</time></trkpt><trkpt lat="43.5404328" lon="10.7145185"><ele>47.199999999999996</ele><time>2026-04-18T07:19:11.345Z</time></trkpt><trkpt lat="43.5403345" lon="10.7145246"><ele>48.4</ele><time>2026-04-18T07:19:12.345Z</time></trkpt><trkpt lat="43.540235" lon="10.7145299"><ele>49.6</ele><time>2026-04-18T07:19:13.345Z</time></trkpt><trkpt lat="43.5401401" lon="10.7145321"><ele>50.8</ele><time>2026-04-18T07:19:14.346Z</time></trkpt><trkpt lat="43.5400479" lon="10.7145258"><ele>52.0</ele><time>2026-04-18T07:19:15.347Z</time></trkpt><trkpt lat="43.5399612" lon="10.7145227"><ele>51.99999999999999</ele><time>2026-04-18T07:19:16.343Z</time></trkpt><trkpt lat="43.5398736" lon="10.7145152"><ele>52.0</ele><time>2026-04-18T07:19:17.344Z</time></trkpt><trkpt lat="43.5397946" lon="10.7145042"><ele>52.0</ele><time>2026-04-18T07:19:18.345Z</time></trkpt><trkpt lat="43.539723" lon="10.7144908"><ele>52.0</ele><time>2026-04-18T07:19:19.343Z</time></trkpt><trkpt lat="43.5396579" lon="10.714478"><ele>51.99999999999999</ele><time>2026-04-18T07:19:20.343Z</time></trkpt><trkpt lat="43.5395425" lon="10.7144765"><ele>52.0</ele><time>2026-04-18T07:19:22.344Z</time></trkpt><trkpt lat="43.5394481" lon="10.7145379"><ele>51.8</ele><time>2026-04-18T07:19:24.343Z</time></trkpt><trkpt lat="43.5393707" lon="10.7146505"><ele>51.6</ele><time>2026-04-18T07:19:26.343Z</time></trkpt><trkpt lat="43.5393062" lon="10.7147772"><ele>51.4</ele><time>2026-04-18T07:19:28.347Z</time></trkpt><trkpt lat="43.5392306" lon="10.7148966"><ele>51.199999999999996</ele><time>2026-04-18T07:19:30.345Z</time></trkpt><trkpt lat="43.5391436" lon="10.7149458"><ele>51.0</ele><time>2026-04-18T07:19:32.342Z</time></trkpt><trkpt lat="43.5390862" lon="10.7148911"><ele>51.0</ele><time>2026-04-18T07:19:34.345Z</time></trkpt><trkpt lat="43.5390573" lon="10.7147534"><ele>51.0</ele><time>2026-04-18T07:19:36.347Z</time></trkpt><trkpt lat="43.53904" lon="10.714664"><ele>51.0</ele><time>2026-04-18T07:19:37.343Z</time></trkpt><trkpt lat="43.5390158" lon="10.7145692"><ele>51.0</ele><time>2026-04-18T07:19:38.343Z</time></trkpt><trkpt lat="43.538987" lon="10.7144765"><ele>51.0</ele><time>2026-04-18T07:19:39.344Z</time></trkpt><trkpt lat="43.5389522" lon="10.7143904"><ele>51.0</ele><time>2026-04-18T07:19:40.351Z</time></trkpt><trkpt lat="43.5389079" lon="10.7143154"><ele>49.666666666666664</ele><time>2026-04-18T07:19:41.344Z</time></trkpt><trkpt lat="43.538853" lon="10.7142559"><ele>48.333333333333336</ele><time>2026-04-18T07:19:42.347Z</time></trkpt><trkpt lat="43.538797" lon="10.7142075"><ele>47.0</ele><time>2026-04-18T07:19:43.345Z</time></trkpt><trkpt lat="43.538742" lon="10.7141585"><ele>45.66666666666667</ele><time>2026-04-18T07:19:44.346Z</time></trkpt><trkpt lat="43.5386888" lon="10.7141117"><ele>44.333333333333336</ele><time>2026-04-18T07:19:45.349Z</time></trkpt><trkpt lat="43.5385999" lon="10.7140176"><ele>43.0</ele><time>2026-04-18T07:19:47.346Z</time></trkpt><trkpt lat="43.538511" lon="10.7139346"><ele>43.0</ele><time>2026-04-18T07:19:49.345Z</time></trkpt><trkpt lat="43.5384136" lon="10.7138719"><ele>43.0</ele><time>2026-04-18T07:19:51.344Z</time></trkpt><trkpt lat="43.5383148" lon="10.7138273"><ele>43.0</ele><time>2026-04-18T07:19:53.347Z</time></trkpt><trkpt lat="43.5382506" lon="10.7137382"><ele>43.0</ele><time>2026-04-18T07:19:55.345Z</time></trkpt><trkpt lat="43.5382211" lon="10.713607"><ele>43.0</ele><time>2026-04-18T07:19:57.343Z</time></trkpt><trkpt lat="43.5382202" lon="10.7135005"><ele>42.8</ele><time>2026-04-18T07:19:59.343Z</time></trkpt><trkpt lat="43.5382446" lon="10.7134192"><ele>42.599999999999994</ele><time>2026-04-18T07:20:01.343Z</time></trkpt><trkpt lat="43.538285" lon="10.7132972"><ele>42.400000000000006</ele><time>2026-04-18T07:20:04.344Z</time></trkpt><trkpt lat="43.5382762" lon="10.7131789"><ele>42.2</ele><time>2026-04-18T07:20:07.343Z</time></trkpt><trkpt lat="43.5381863" lon="10.7131053"><ele>42.0</ele><time>2026-04-18T07:20:10.343Z</time></trkpt><trkpt lat="43.5380853" lon="10.7130288"><ele>42.0</ele><time>2026-04-18T07:20:12.343Z</time></trkpt><trkpt lat="43.5380307" lon="10.7129735"><ele>42.0</ele><time>2026-04-18T07:20:13.343Z</time></trkpt><trkpt lat="43.5379739" lon="10.7129036"><ele>42.0</ele><time>2026-04-18T07:20:14.345Z</time></trkpt><trkpt lat="43.5379186" lon="10.7128219"><ele>42.0</ele><time>2026-04-18T07:20:15.344Z</time></trkpt><trkpt lat="43.5378608" lon="10.7127452"><ele>42.0</ele><time>2026-04-18T07:20:16.343Z</time></trkpt><trkpt lat="43.5378008" lon="10.7126702"><ele>42.0</ele><time>2026-04-18T07:20:17.344Z</time></trkpt><trkpt lat="43.5377369" lon="10.7125996"><ele>42.0</ele><time>2026-04-18T07:20:18.343Z</time></trkpt><trkpt lat="43.5376698" lon="10.7125302"><ele>42.0</ele><time>2026-04-18T07:20:19.345Z</time></trkpt><trkpt lat="43.5375985" lon="10.7124557"><ele>42.0</ele><time>2026-04-18T07:20:20.343Z</time></trkpt><trkpt lat="43.5375224" lon="10.712374"><ele>42.0</ele><time>2026-04-18T07:20:21.346Z</time></trkpt><trkpt lat="43.5374427" lon="10.7122948"><ele>42.0</ele><time>2026-04-18T07:20:22.344Z</time></trkpt><trkpt lat="43.5373637" lon="10.712216"><ele>42.0</ele><time>2026-04-18T07:20:23.343Z</time></trkpt><trkpt lat="43.5372884" lon="10.7121383"><ele>42.0</ele><time>2026-04-18T07:20:24.344Z</time></trkpt><trkpt lat="43.5372146" lon="10.7120622"><ele>42.0</ele><time>2026-04-18T07:20:25.343Z</time></trkpt><trkpt lat="43.5371462" lon="10.7119962"><ele>42.0</ele><time>2026-04-18T07:20:26.343Z</time></trkpt><trkpt lat="43.5370815" lon="10.7119335"><ele>42.0</ele><time>2026-04-18T07:20:27.345Z</time></trkpt><trkpt lat="43.5370137" lon="10.7118728"><ele>42.0</ele><time>2026-04-18T07:20:28.344Z</time></trkpt><trkpt lat="43.5369423" lon="10.7118219"><ele>42.0</ele><time>2026-04-18T07:20:29.344Z</time></trkpt><trkpt lat="43.5368692" lon="10.7117864"><ele>42.0</ele><time>2026-04-18T07:20:30.344Z</time></trkpt><trkpt lat="43.5367959" lon="10.71177"><ele>42.0</ele><time>2026-04-18T07:20:31.346Z</time></trkpt><trkpt lat="43.5367189" lon="10.7117519"><ele>42.0</ele><time>2026-04-18T07:20:32.344Z</time></trkpt><trkpt lat="43.5366346" lon="10.7117353"><ele>42.0</ele><time>2026-04-18T07:20:33.345Z</time></trkpt><trkpt lat="43.5365472" lon="10.711718"><ele>42.0</ele><time>2026-04-18T07:20:34.345Z</time></trkpt><trkpt lat="43.5364615" lon="10.7117059"><ele>42.0</ele><time>2026-04-18T07:20:35.345Z</time></trkpt><trkpt lat="43.5363749" lon="10.7116962"><ele>42.0</ele><time>2026-04-18T07:20:36.346Z</time></trkpt><trkpt lat="43.5362923" lon="10.7116882"><ele>42.0</ele><time>2026-04-18T07:20:37.345Z</time></trkpt><trkpt lat="43.5362124" lon="10.7116769"><ele>42.0</ele><time>2026-04-18T07:20:38.344Z</time></trkpt><trkpt lat="43.5361247" lon="10.7116588"><ele>42.0</ele><time>2026-04-18T07:20:39.345Z</time></trkpt><trkpt lat="43.5360324" lon="10.7116364"><ele>42.0</ele><time>2026-04-18T07:20:40.344Z</time></trkpt><trkpt lat="43.5359452" lon="10.7116211"><ele>41.833333333333336</ele><time>2026-04-18T07:20:41.345Z</time></trkpt><trkpt lat="43.5358591" lon="10.7116053"><ele>41.666666666666664</ele><time>2026-04-18T07:20:42.346Z</time></trkpt><trkpt lat="43.5357798" lon="10.7115778"><ele>41.5</ele><time>2026-04-18T07:20:43.345Z</time></trkpt><trkpt lat="43.5357066" lon="10.7115501"><ele>41.33333333333333</ele><time>2026-04-18T07:20:44.345Z</time></trkpt><trkpt lat="43.5356322" lon="10.7115191"><ele>41.166666666666664</ele><time>2026-04-18T07:20:45.344Z</time></trkpt><trkpt lat="43.5355572" lon="10.711487"><ele>41.0</ele><time>2026-04-18T07:20:46.344Z</time></trkpt><trkpt lat="43.5354788" lon="10.711455"><ele>41.0</ele><time>2026-04-18T07:20:47.345Z</time></trkpt><trkpt lat="43.5354006" lon="10.7114269"><ele>41.0</ele><time>2026-04-18T07:20:48.345Z</time></trkpt><trkpt lat="43.5353204" lon="10.711396"><ele>41.0</ele><time>2026-04-18T07:20:49.346Z</time></trkpt><trkpt lat="43.5352415" lon="10.7113639"><ele>41.0</ele><time>2026-04-18T07:20:50.343Z</time></trkpt><trkpt lat="43.5351663" lon="10.7113307"><ele>41.0</ele><time>2026-04-18T07:20:51.343Z</time></trkpt><trkpt lat="43.5350944" lon="10.7112964"><ele>41.0</ele><time>2026-04-18T07:20:52.344Z</time></trkpt><trkpt lat="43.5350201" lon="10.7112582"><ele>41.0</ele><time>2026-04-18T07:20:53.343Z</time></trkpt><trkpt lat="43.5349458" lon="10.7112181"><ele>41.0</ele><time>2026-04-18T07:20:54.345Z</time></trkpt><trkpt lat="43.5348644" lon="10.7111797"><ele>41.0</ele><time>2026-04-18T07:20:55.344Z</time></trkpt><trkpt lat="43.5347848" lon="10.7111413"><ele>41.0</ele><time>2026-04-18T07:20:56.343Z</time></trkpt><trkpt lat="43.5347114" lon="10.7111076"><ele>41.0</ele><time>2026-04-18T07:20:57.343Z</time></trkpt><trkpt lat="43.5346429" lon="10.711072"><ele>41.0</ele><time>2026-04-18T07:20:58.344Z</time></trkpt><trkpt lat="43.5345793" lon="10.7110355"><ele>41.14285714285714</ele><time>2026-04-18T07:20:59.344Z</time></trkpt><trkpt lat="43.5345179" lon="10.7109958"><ele>41.285714285714285</ele><time>2026-04-18T07:21:00.343Z</time></trkpt><trkpt lat="43.5344566" lon="10.7109478"><ele>41.42857142857143</ele><time>2026-04-18T07:21:01.344Z</time></trkpt><trkpt lat="43.534395" lon="10.7108989"><ele>41.57142857142857</ele><time>2026-04-18T07:21:02.343Z</time></trkpt><trkpt lat="43.5343366" lon="10.7108591"><ele>41.714285714285715</ele><time>2026-04-18T07:21:03.343Z</time></trkpt><trkpt lat="43.5342456" lon="10.7108365"><ele>41.857142857142854</ele><time>2026-04-18T07:21:05.342Z</time></trkpt><trkpt lat="43.5341901" lon="10.7108909"><ele>42.0</ele><time>2026-04-18T07:21:07.344Z</time></trkpt><trkpt lat="43.5341529" lon="10.7110094"><ele>41.833333333333336</ele><time>2026-04-18T07:21:09.349Z</time></trkpt><trkpt lat="43.5341143" lon="10.7111685"><ele>41.666666666666664</ele><time>2026-04-18T07:21:11.343Z</time></trkpt><trkpt lat="43.5340981" lon="10.7112567"><ele>41.5</ele><time>2026-04-18T07:21:12.343Z</time></trkpt><trkpt lat="43.5340639" lon="10.7114144"><ele>41.33333333333333</ele><time>2026-04-18T07:21:14.346Z</time></trkpt><trkpt lat="43.5340383" lon="10.7114954"><ele>41.166666666666664</ele><time>2026-04-18T07:21:15.347Z</time></trkpt><trkpt lat="43.5340085" lon="10.7115774"><ele>41.0</ele><time>2026-04-18T07:21:16.344Z</time></trkpt><trkpt lat="43.5339406" lon="10.7116964"><ele>41.0</ele><time>2026-04-18T07:21:18.342Z</time></trkpt><trkpt lat="43.5338461" lon="10.711732"><ele>41.0</ele><time>2026-04-18T07:21:20.346Z</time></trkpt><trkpt lat="43.5337738" lon="10.7117486"><ele>41.0</ele><time>2026-04-18T07:21:21.344Z</time></trkpt><trkpt lat="43.5336866" lon="10.7117769"><ele>41.0</ele><time>2026-04-18T07:21:22.345Z</time></trkpt><trkpt lat="43.5335943" lon="10.7118137"><ele>41.0</ele><time>2026-04-18T07:21:23.341Z</time></trkpt><trkpt lat="43.5335011" lon="10.7118556"><ele>41.5</ele><time>2026-04-18T07:21:24.342Z</time></trkpt><trkpt lat="43.5334053" lon="10.7119014"><ele>42.0</ele><time>2026-04-18T07:21:25.342Z</time></trkpt><trkpt lat="43.5332977" lon="10.7119524"><ele>42.5</ele><time>2026-04-18T07:21:26.343Z</time></trkpt><trkpt lat="43.5331854" lon="10.712004"><ele>43.0</ele><time>2026-04-18T07:21:27.35Z</time></trkpt><trkpt lat="43.5330717" lon="10.7120531"><ele>43.25</ele><time>2026-04-18T07:21:28.345Z</time></trkpt><trkpt lat="43.5329523" lon="10.7120989"><ele>43.5</ele><time>2026-04-18T07:21:29.345Z</time></trkpt><trkpt lat="43.5328289" lon="10.7121428"><ele>43.75</ele><time>2026-04-18T07:21:30.343Z</time></trkpt><trkpt lat="43.5327002" lon="10.7121895"><ele>44.0</ele><time>2026-04-18T07:21:31.345Z</time></trkpt><trkpt lat="43.5325779" lon="10.7122417"><ele>44.0</ele><time>2026-04-18T07:21:32.345Z</time></trkpt><trkpt lat="43.5324565" lon="10.7122905"><ele>44.0</ele><time>2026-04-18T07:21:33.345Z</time></trkpt><trkpt lat="43.5323349" lon="10.7123375"><ele>44.0</ele><time>2026-04-18T07:21:34.346Z</time></trkpt><trkpt lat="43.5322133" lon="10.7123828"><ele>44.0</ele><time>2026-04-18T07:21:35.345Z</time></trkpt><trkpt lat="43.5320968" lon="10.7124246"><ele>43.5</ele><time>2026-04-18T07:21:36.345Z</time></trkpt><trkpt lat="43.5319785" lon="10.7124702"><ele>43.0</ele><time>2026-04-18T07:21:37.346Z</time></trkpt><trkpt lat="43.5318615" lon="10.7125158"><ele>42.5</ele><time>2026-04-18T07:21:38.344Z</time></trkpt><trkpt lat="43.5317468" lon="10.7125625"><ele>42.0</ele><time>2026-04-18T07:21:39.347Z</time></trkpt><trkpt lat="43.5316287" lon="10.7126102"><ele>42.0</ele><time>2026-04-18T07:21:40.345Z</time></trkpt><trkpt lat="43.5315116" lon="10.7126558"><ele>42.0</ele><time>2026-04-18T07:21:41.345Z</time></trkpt><trkpt lat="43.5313936" lon="10.7126998"><ele>42.0</ele><time>2026-04-18T07:21:42.345Z</time></trkpt><trkpt lat="43.5312836" lon="10.7127467"><ele>42.0</ele><time>2026-04-18T07:21:43.345Z</time></trkpt><trkpt lat="43.5311817" lon="10.7127899"><ele>42.25</ele><time>2026-04-18T07:21:44.346Z</time></trkpt><trkpt lat="43.5310753" lon="10.7128334"><ele>42.5</ele><time>2026-04-18T07:21:45.344Z</time></trkpt><trkpt lat="43.5309637" lon="10.7128785"><ele>42.75</ele><time>2026-04-18T07:21:46.345Z</time></trkpt><trkpt lat="43.5308519" lon="10.712925"><ele>43.0</ele><time>2026-04-18T07:21:47.346Z</time></trkpt><trkpt lat="43.5307398" lon="10.7129765"><ele>43.0</ele><time>2026-04-18T07:21:48.342Z</time></trkpt><trkpt lat="43.5306254" lon="10.7130332"><ele>43.0</ele><time>2026-04-18T07:21:49.341Z</time></trkpt><trkpt lat="43.5305117" lon="10.713083"><ele>43.0</ele><time>2026-04-18T07:21:50.343Z</time></trkpt><trkpt lat="43.5304" lon="10.7131319"><ele>43.0</ele><time>2026-04-18T07:21:51.342Z</time></trkpt><trkpt lat="43.5302884" lon="10.7131756"><ele>43.25</ele><time>2026-04-18T07:21:52.343Z</time></trkpt><trkpt lat="43.530171" lon="10.713219"><ele>43.5</ele><time>2026-04-18T07:21:53.341Z</time></trkpt><trkpt lat="43.5300505" lon="10.7132609"><ele>43.75</ele><time>2026-04-18T07:21:54.342Z</time></trkpt><trkpt lat="43.529932" lon="10.7133068"><ele>44.0</ele><time>2026-04-18T07:21:55.346Z</time></trkpt><trkpt lat="43.5298119" lon="10.7133534"><ele>44.0</ele><time>2026-04-18T07:21:56.344Z</time></trkpt><trkpt lat="43.5296889" lon="10.7134001"><ele>44.0</ele><time>2026-04-18T07:21:57.346Z</time></trkpt><trkpt lat="43.5295686" lon="10.7134481"><ele>44.0</ele><time>2026-04-18T07:21:58.345Z</time></trkpt><trkpt lat="43.5294485" lon="10.7134973"><ele>44.0</ele><time>2026-04-18T07:21:59.343Z</time></trkpt><trkpt lat="43.5293267" lon="10.7135478"><ele>43.75</ele><time>2026-04-18T07:22:00.345Z</time></trkpt><trkpt lat="43.5292058" lon="10.7135949"><ele>43.5</ele><time>2026-04-18T07:22:01.345Z</time></trkpt><trkpt lat="43.5290929" lon="10.7136405"><ele>43.25</ele><time>2026-04-18T07:22:02.345Z</time></trkpt><trkpt lat="43.5289832" lon="10.7136849"><ele>43.0</ele><time>2026-04-18T07:22:03.347Z</time></trkpt><trkpt lat="43.5288723" lon="10.71373"><ele>43.0</ele><time>2026-04-18T07:22:04.347Z</time></trkpt><trkpt lat="43.5287514" lon="10.7137782"><ele>43.0</ele><time>2026-04-18T07:22:05.345Z</time></trkpt><trkpt lat="43.5286192" lon="10.7138284"><ele>43.0</ele><time>2026-04-18T07:22:06.345Z</time></trkpt><trkpt lat="43.5284823" lon="10.7138844"><ele>43.0</ele><time>2026-04-18T07:22:07.345Z</time></trkpt><trkpt lat="43.5283405" lon="10.7139419"><ele>43.66666666666667</ele><time>2026-04-18T07:22:08.345Z</time></trkpt><trkpt lat="43.528194" lon="10.7140009"><ele>44.333333333333336</ele><time>2026-04-18T07:22:09.345Z</time></trkpt><trkpt lat="43.5280458" lon="10.7140608"><ele>45.0</ele><time>2026-04-18T07:22:10.346Z</time></trkpt><trkpt lat="43.527892" lon="10.7141202"><ele>45.0</ele><time>2026-04-18T07:22:11.345Z</time></trkpt><trkpt lat="43.5277403" lon="10.714182"><ele>45.0</ele><time>2026-04-18T07:22:12.345Z</time></trkpt><trkpt lat="43.5275885" lon="10.7142451"><ele>45.0</ele><time>2026-04-18T07:22:13.344Z</time></trkpt><trkpt lat="43.5274383" lon="10.714307"><ele>45.0</ele><time>2026-04-18T07:22:14.347Z</time></trkpt><trkpt lat="43.5272911" lon="10.7143715"><ele>45.0</ele><time>2026-04-18T07:22:15.346Z</time></trkpt><trkpt lat="43.527149" lon="10.7144306"><ele>45.0</ele><time>2026-04-18T07:22:16.345Z</time></trkpt><trkpt lat="43.52701" lon="10.7144836"><ele>45.0</ele><time>2026-04-18T07:22:17.347Z</time></trkpt><trkpt lat="43.52687" lon="10.714539"><ele>46.75</ele><time>2026-04-18T07:22:18.344Z</time></trkpt><trkpt lat="43.5267332" lon="10.7145967"><ele>48.5</ele><time>2026-04-18T07:22:19.345Z</time></trkpt><trkpt lat="43.526601" lon="10.7146554"><ele>50.25</ele><time>2026-04-18T07:22:20.345Z</time></trkpt><trkpt lat="43.5264701" lon="10.7147106"><ele>52.0</ele><time>2026-04-18T07:22:21.344Z</time></trkpt><trkpt lat="43.5263384" lon="10.7147666"><ele>50.5</ele><time>2026-04-18T07:22:22.345Z</time></trkpt><trkpt lat="43.5262102" lon="10.7148205"><ele>49.0</ele><time>2026-04-18T07:22:23.344Z</time></trkpt><trkpt lat="43.52608" lon="10.7148737"><ele>47.5</ele><time>2026-04-18T07:22:24.344Z</time></trkpt><trkpt lat="43.5259572" lon="10.714924"><ele>46.0</ele><time>2026-04-18T07:22:25.346Z</time></trkpt><trkpt lat="43.5258414" lon="10.7149683"><ele>46.0</ele><time>2026-04-18T07:22:26.343Z</time></trkpt><trkpt lat="43.525738" lon="10.7150083"><ele>46.0</ele><time>2026-04-18T07:22:27.342Z</time></trkpt><trkpt lat="43.5256397" lon="10.715049"><ele>46.0</ele><time>2026-04-18T07:22:28.346Z</time></trkpt><trkpt lat="43.5255388" lon="10.7150873"><ele>46.0</ele><time>2026-04-18T07:22:29.345Z</time></trkpt><trkpt lat="43.5254311" lon="10.7151273"><ele>46.0</ele><time>2026-04-18T07:22:30.345Z</time></trkpt><trkpt lat="43.5253184" lon="10.7151688"><ele>45.599999999999994</ele><time>2026-04-18T07:22:31.345Z</time></trkpt><trkpt lat="43.5252102" lon="10.7152134"><ele>45.2</ele><time>2026-04-18T07:22:32.345Z</time></trkpt><trkpt lat="43.5251063" lon="10.7152606"><ele>44.8</ele><time>2026-04-18T07:22:33.346Z</time></trkpt><trkpt lat="43.5250155" lon="10.7153011"><ele>44.400000000000006</ele><time>2026-04-18T07:22:34.346Z</time></trkpt><trkpt lat="43.5249368" lon="10.7153336"><ele>44.0</ele><time>2026-04-18T07:22:35.345Z</time></trkpt><trkpt lat="43.5248689" lon="10.7153577"><ele>44.400000000000006</ele><time>2026-04-18T07:22:36.342Z</time></trkpt><trkpt lat="43.5247502" lon="10.7153865"><ele>44.8</ele><time>2026-04-18T07:22:38.342Z</time></trkpt><trkpt lat="43.5246612" lon="10.7154623"><ele>45.2</ele><time>2026-04-18T07:22:40.342Z</time></trkpt><trkpt lat="43.5245973" lon="10.7156066"><ele>45.599999999999994</ele><time>2026-04-18T07:22:42.343Z</time></trkpt><trkpt lat="43.5245654" lon="10.7156949"><ele>46.0</ele><time>2026-04-18T07:22:43.345Z</time></trkpt><trkpt lat="43.5245471" lon="10.7157969"><ele>46.0</ele><time>2026-04-18T07:22:44.345Z</time></trkpt><trkpt lat="43.5245356" lon="10.7159085"><ele>46.0</ele><time>2026-04-18T07:22:45.346Z</time></trkpt><trkpt lat="43.5245272" lon="10.716023"><ele>46.0</ele><time>2026-04-18T07:22:46.343Z</time></trkpt><trkpt lat="43.5245244" lon="10.7161371"><ele>46.0</ele><time>2026-04-18T07:22:47.346Z</time></trkpt><trkpt lat="43.5245219" lon="10.716247"><ele>46.0</ele><time>2026-04-18T07:22:48.343Z</time></trkpt><trkpt lat="43.5245186" lon="10.7163579"><ele>46.0</ele><time>2026-04-18T07:22:49.343Z</time></trkpt><trkpt lat="43.5245121" lon="10.7164759"><ele>45.599999999999994</ele><time>2026-04-18T07:22:50.343Z</time></trkpt><trkpt lat="43.5244987" lon="10.7166012"><ele>45.2</ele><time>2026-04-18T07:22:51.346Z</time></trkpt><trkpt lat="43.5244817" lon="10.7167191"><ele>44.8</ele><time>2026-04-18T07:22:52.341Z</time></trkpt><trkpt lat="43.5244586" lon="10.7168315"><ele>44.400000000000006</ele><time>2026-04-18T07:22:53.345Z</time></trkpt><trkpt lat="43.5244247" lon="10.7169499"><ele>44.0</ele><time>2026-04-18T07:22:54.346Z</time></trkpt><trkpt lat="43.5243854" lon="10.7170701"><ele>44.0</ele><time>2026-04-18T07:22:55.347Z</time></trkpt><trkpt lat="43.5243424" lon="10.7171904"><ele>44.0</ele><time>2026-04-18T07:22:56.346Z</time></trkpt><trkpt lat="43.524303" lon="10.7173097"><ele>44.0</ele><time>2026-04-18T07:22:57.345Z</time></trkpt><trkpt lat="43.5242602" lon="10.7174283"><ele>44.0</ele><time>2026-04-18T07:22:58.346Z</time></trkpt><trkpt lat="43.5242167" lon="10.7175552"><ele>44.0</ele><time>2026-04-18T07:22:59.346Z</time></trkpt><trkpt lat="43.524176" lon="10.7176868"><ele>44.75</ele><time>2026-04-18T07:23:00.346Z</time></trkpt><trkpt lat="43.5241365" lon="10.7178308"><ele>45.5</ele><time>2026-04-18T07:23:01.345Z</time></trkpt><trkpt lat="43.5241023" lon="10.7179902"><ele>46.25</ele><time>2026-04-18T07:23:02.346Z</time></trkpt><trkpt lat="43.5240703" lon="10.7181512"><ele>47.0</ele><time>2026-04-18T07:23:03.346Z</time></trkpt><trkpt lat="43.5240423" lon="10.7183129"><ele>47.0</ele><time>2026-04-18T07:23:04.345Z</time></trkpt><trkpt lat="43.5240129" lon="10.7184705"><ele>47.0</ele><time>2026-04-18T07:23:05.346Z</time></trkpt><trkpt lat="43.5239755" lon="10.7186113"><ele>47.0</ele><time>2026-04-18T07:23:06.343Z</time></trkpt><trkpt lat="43.5239386" lon="10.7187351"><ele>47.0</ele><time>2026-04-18T07:23:07.346Z</time></trkpt><trkpt lat="43.5239121" lon="10.7188486"><ele>47.0</ele><time>2026-04-18T07:23:08.346Z</time></trkpt><trkpt lat="43.5238821" lon="10.7189517"><ele>47.166666666666664</ele><time>2026-04-18T07:23:09.347Z</time></trkpt><trkpt lat="43.5238473" lon="10.719052"><ele>47.33333333333333</ele><time>2026-04-18T07:23:10.346Z</time></trkpt><trkpt lat="43.5238149" lon="10.7191493"><ele>47.5</ele><time>2026-04-18T07:23:11.345Z</time></trkpt><trkpt lat="43.5237883" lon="10.7192443"><ele>47.666666666666664</ele><time>2026-04-18T07:23:12.346Z</time></trkpt><trkpt lat="43.5237649" lon="10.719333"><ele>47.833333333333336</ele><time>2026-04-18T07:23:13.344Z</time></trkpt><trkpt lat="43.5237379" lon="10.7194861"><ele>48.0</ele><time>2026-04-18T07:23:15.345Z</time></trkpt><trkpt lat="43.5236906" lon="10.7196156"><ele>47.5</ele><time>2026-04-18T07:23:17.345Z</time></trkpt><trkpt lat="43.5236653" lon="10.7196966"><ele>47.0</ele><time>2026-04-18T07:23:18.341Z</time></trkpt><trkpt lat="43.523634" lon="10.7197873"><ele>46.5</ele><time>2026-04-18T07:23:19.344Z</time></trkpt><trkpt lat="43.523602" lon="10.7198921"><ele>46.0</ele><time>2026-04-18T07:23:20.343Z</time></trkpt><trkpt lat="43.5235682" lon="10.7200012"><ele>45.5</ele><time>2026-04-18T07:23:21.343Z</time></trkpt><trkpt lat="43.5235318" lon="10.7201119"><ele>45.0</ele><time>2026-04-18T07:23:22.343Z</time></trkpt><trkpt lat="43.5234929" lon="10.7202218"><ele>45.2</ele><time>2026-04-18T07:23:23.346Z</time></trkpt><trkpt lat="43.5234502" lon="10.72033"><ele>45.4</ele><time>2026-04-18T07:23:24.343Z</time></trkpt><trkpt lat="43.5234094" lon="10.7204457"><ele>45.599999999999994</ele><time>2026-04-18T07:23:25.347Z</time></trkpt><trkpt lat="43.5233763" lon="10.7205677"><ele>45.8</ele><time>2026-04-18T07:23:26.346Z</time></trkpt><trkpt lat="43.5233476" lon="10.720696"><ele>46.0</ele><time>2026-04-18T07:23:27.343Z</time></trkpt><trkpt lat="43.5233243" lon="10.7208295"><ele>46.0</ele><time>2026-04-18T07:23:28.347Z</time></trkpt><trkpt lat="43.523302" lon="10.7209663"><ele>46.0</ele><time>2026-04-18T07:23:29.346Z</time></trkpt><trkpt lat="43.5232727" lon="10.7211069"><ele>46.0</ele><time>2026-04-18T07:23:30.346Z</time></trkpt><trkpt lat="43.5232356" lon="10.7212402"><ele>46.0</ele><time>2026-04-18T07:23:31.346Z</time></trkpt><trkpt lat="43.5231969" lon="10.7213599"><ele>46.0</ele><time>2026-04-18T07:23:32.346Z</time></trkpt><trkpt lat="43.5231538" lon="10.7214801"><ele>46.0</ele><time>2026-04-18T07:23:33.35Z</time></trkpt><trkpt lat="43.5231062" lon="10.7215919"><ele>46.0</ele><time>2026-04-18T07:23:34.345Z</time></trkpt><trkpt lat="43.523058" lon="10.7216899"><ele>46.0</ele><time>2026-04-18T07:23:35.347Z</time></trkpt><trkpt lat="43.5230105" lon="10.7217732"><ele>46.0</ele><time>2026-04-18T07:23:36.344Z</time></trkpt><trkpt lat="43.5229664" lon="10.7218508"><ele>46.0</ele><time>2026-04-18T07:23:37.344Z</time></trkpt><trkpt lat="43.5229222" lon="10.7219247"><ele>46.0</ele><time>2026-04-18T07:23:38.345Z</time></trkpt><trkpt lat="43.5228787" lon="10.722001"><ele>46.66666666666667</ele><time>2026-04-18T07:23:39.345Z</time></trkpt><trkpt lat="43.5228359" lon="10.7220834"><ele>47.333333333333336</ele><time>2026-04-18T07:23:40.344Z</time></trkpt><trkpt lat="43.5227849" lon="10.7221686"><ele>48.0</ele><time>2026-04-18T07:23:41.345Z</time></trkpt><trkpt lat="43.5227237" lon="10.7222591"><ele>48.66666666666667</ele><time>2026-04-18T07:23:42.346Z</time></trkpt><trkpt lat="43.522658" lon="10.7223424"><ele>49.333333333333336</ele><time>2026-04-18T07:23:43.342Z</time></trkpt><trkpt lat="43.5225875" lon="10.7224203"><ele>50.0</ele><time>2026-04-18T07:23:44.343Z</time></trkpt><trkpt lat="43.5225177" lon="10.7224943"><ele>50.00000000000001</ele><time>2026-04-18T07:23:45.346Z</time></trkpt><trkpt lat="43.5224525" lon="10.7225696"><ele>50.0</ele><time>2026-04-18T07:23:46.343Z</time></trkpt><trkpt lat="43.5223841" lon="10.7226355"><ele>50.0</ele><time>2026-04-18T07:23:47.346Z</time></trkpt><trkpt lat="43.5223159" lon="10.7227072"><ele>50.0</ele><time>2026-04-18T07:23:48.345Z</time></trkpt><trkpt lat="43.5222469" lon="10.72278"><ele>50.00000000000001</ele><time>2026-04-18T07:23:49.348Z</time></trkpt><trkpt lat="43.5221785" lon="10.7228436"><ele>50.0</ele><time>2026-04-18T07:23:50.342Z</time></trkpt><trkpt lat="43.5221066" lon="10.7229045"><ele>50.0</ele><time>2026-04-18T07:23:51.345Z</time></trkpt><trkpt lat="43.5220337" lon="10.7229622"><ele>50.0</ele><time>2026-04-18T07:23:52.341Z</time></trkpt><trkpt lat="43.5219537" lon="10.7230253"><ele>50.0</ele><time>2026-04-18T07:23:53.346Z</time></trkpt><trkpt lat="43.5218727" lon="10.7230898"><ele>50.0</ele><time>2026-04-18T07:23:54.344Z</time></trkpt><trkpt lat="43.5217889" lon="10.723165"><ele>50.0</ele><time>2026-04-18T07:23:55.343Z</time></trkpt><trkpt lat="43.5216991" lon="10.7232482"><ele>50.0</ele><time>2026-04-18T07:23:56.346Z</time></trkpt><trkpt lat="43.5216073" lon="10.7233442"><ele>50.0</ele><time>2026-04-18T07:23:57.346Z</time></trkpt><trkpt lat="43.5215211" lon="10.7234429"><ele>50.0</ele><time>2026-04-18T07:23:58.342Z</time></trkpt><trkpt lat="43.5214412" lon="10.7235407"><ele>50.0</ele><time>2026-04-18T07:23:59.347Z</time></trkpt><trkpt lat="43.5213631" lon="10.7236484"><ele>50.0</ele><time>2026-04-18T07:24:00.343Z</time></trkpt><trkpt lat="43.5212872" lon="10.7237628"><ele>49.25</ele><time>2026-04-18T07:24:01.343Z</time></trkpt><trkpt lat="43.521219" lon="10.7238845"><ele>48.5</ele><time>2026-04-18T07:24:02.346Z</time></trkpt><trkpt lat="43.5211505" lon="10.7240133"><ele>47.75</ele><time>2026-04-18T07:24:03.346Z</time></trkpt><trkpt lat="43.5210804" lon="10.7241382"><ele>47.0</ele><time>2026-04-18T07:24:04.345Z</time></trkpt><trkpt lat="43.5210087" lon="10.7242503"><ele>47.0</ele><time>2026-04-18T07:24:05.346Z</time></trkpt><trkpt lat="43.520943" lon="10.7243478"><ele>47.0</ele><time>2026-04-18T07:24:06.343Z</time></trkpt><trkpt lat="43.5208785" lon="10.724437"><ele>47.0</ele><time>2026-04-18T07:24:07.343Z</time></trkpt><trkpt lat="43.5208236" lon="10.7245361"><ele>47.0</ele><time>2026-04-18T07:24:08.348Z</time></trkpt><trkpt lat="43.5207804" lon="10.7246339"><ele>47.0</ele><time>2026-04-18T07:24:09.343Z</time></trkpt><trkpt lat="43.520748" lon="10.72473"><ele>47.0</ele><time>2026-04-18T07:24:10.346Z</time></trkpt><trkpt lat="43.5207268" lon="10.7248258"><ele>47.2</ele><time>2026-04-18T07:24:11.343Z</time></trkpt><trkpt lat="43.5207209" lon="10.7249307"><ele>47.400000000000006</ele><time>2026-04-18T07:24:12.344Z</time></trkpt><trkpt lat="43.5207293" lon="10.7250557"><ele>47.599999999999994</ele><time>2026-04-18T07:24:13.343Z</time></trkpt><trkpt lat="43.5207408" lon="10.7251889"><ele>47.8</ele><time>2026-04-18T07:24:14.342Z</time></trkpt><trkpt lat="43.5207543" lon="10.72533"><ele>48.0</ele><time>2026-04-18T07:24:15.342Z</time></trkpt><trkpt lat="43.5207644" lon="10.7254654"><ele>48.2</ele><time>2026-04-18T07:24:16.346Z</time></trkpt><trkpt lat="43.52078" lon="10.7255948"><ele>48.4</ele><time>2026-04-18T07:24:17.343Z</time></trkpt><trkpt lat="43.5208079" lon="10.7257336"><ele>48.6</ele><time>2026-04-18T07:24:18.346Z</time></trkpt><trkpt lat="43.5208452" lon="10.7258734"><ele>48.800000000000004</ele><time>2026-04-18T07:24:19.347Z</time></trkpt><trkpt lat="43.5208797" lon="10.7260049"><ele>49.0</ele><time>2026-04-18T07:24:20.343Z</time></trkpt><trkpt lat="43.5209131" lon="10.7261198"><ele>49.33333333333333</ele><time>2026-04-18T07:24:21.343Z</time></trkpt><trkpt lat="43.5209374" lon="10.7262095"><ele>49.666666666666664</ele><time>2026-04-18T07:24:22.342Z</time></trkpt><trkpt lat="43.5209456" lon="10.7263384"><ele>50.0</ele><time>2026-04-18T07:24:24.343Z</time></trkpt><trkpt lat="43.5208525" lon="10.7264395"><ele>50.33333333333333</ele><time>2026-04-18T07:24:26.342Z</time></trkpt><trkpt lat="43.520782" lon="10.7264912"><ele>50.666666666666664</ele><time>2026-04-18T07:24:27.342Z</time></trkpt><trkpt lat="43.5207149" lon="10.726532"><ele>51.0</ele><time>2026-04-18T07:24:28.344Z</time></trkpt><trkpt lat="43.5206523" lon="10.7265681"><ele>51.0</ele><time>2026-04-18T07:24:29.342Z</time></trkpt><trkpt lat="43.5205848" lon="10.7266105"><ele>51.0</ele><time>2026-04-18T07:24:30.346Z</time></trkpt><trkpt lat="43.5205094" lon="10.7266568"><ele>51.0</ele><time>2026-04-18T07:24:31.345Z</time></trkpt><trkpt lat="43.5204277" lon="10.7267178"><ele>51.0</ele><time>2026-04-18T07:24:32.344Z</time></trkpt><trkpt lat="43.5203454" lon="10.7267863"><ele>51.0</ele><time>2026-04-18T07:24:33.345Z</time></trkpt><trkpt lat="43.5202699" lon="10.7268535"><ele>51.0</ele><time>2026-04-18T07:24:34.346Z</time></trkpt><trkpt lat="43.5201967" lon="10.7269245"><ele>51.0</ele><time>2026-04-18T07:24:35.343Z</time></trkpt><trkpt lat="43.5201201" lon="10.7269936"><ele>51.0</ele><time>2026-04-18T07:24:36.343Z</time></trkpt><trkpt lat="43.5200445" lon="10.7270578"><ele>51.0</ele><time>2026-04-18T07:24:37.344Z</time></trkpt><trkpt lat="43.5199775" lon="10.7271199"><ele>51.0</ele><time>2026-04-18T07:24:38.343Z</time></trkpt><trkpt lat="43.5199111" lon="10.7271738"><ele>51.0</ele><time>2026-04-18T07:24:39.343Z</time></trkpt><trkpt lat="43.5198417" lon="10.7272291"><ele>51.0</ele><time>2026-04-18T07:24:40.345Z</time></trkpt><trkpt lat="43.5197777" lon="10.7272861"><ele>51.0</ele><time>2026-04-18T07:24:41.343Z</time></trkpt><trkpt lat="43.5197272" lon="10.7273429"><ele>51.0</ele><time>2026-04-18T07:24:42.343Z</time></trkpt><trkpt lat="43.51968" lon="10.7274544"><ele>51.0</ele><time>2026-04-18T07:24:44.345Z</time></trkpt><trkpt lat="43.5196566" lon="10.7275824"><ele>51.0</ele><time>2026-04-18T07:24:46.346Z</time></trkpt><trkpt lat="43.5196298" lon="10.7277068"><ele>51.0</ele><time>2026-04-18T07:24:48.344Z</time></trkpt><trkpt lat="43.5196279" lon="10.7278335"><ele>51.0</ele><time>2026-04-18T07:24:50.344Z</time></trkpt><trkpt lat="43.519622" lon="10.7279528"><ele>51.0</ele><time>2026-04-18T07:24:52.343Z</time></trkpt><trkpt lat="43.5196059" lon="10.7280821"><ele>51.0</ele><time>2026-04-18T07:24:54.343Z</time></trkpt><trkpt lat="43.5195911" lon="10.728226"><ele>51.0</ele><time>2026-04-18T07:24:56.343Z</time></trkpt><trkpt lat="43.519577" lon="10.7283816"><ele>51.0</ele><time>2026-04-18T07:24:58.344Z</time></trkpt><trkpt lat="43.5195576" lon="10.7285262"><ele>51.0</ele><time>2026-04-18T07:25:00.344Z</time></trkpt><trkpt lat="43.5195613" lon="10.728703"><ele>52.5</ele><time>2026-04-18T07:25:02.343Z</time></trkpt><trkpt lat="43.5195697" lon="10.7288004"><ele>54.0</ele><time>2026-04-18T07:25:03.343Z</time></trkpt><trkpt lat="43.5195846" lon="10.7289067"><ele>55.5</ele><time>2026-04-18T07:25:04.343Z</time></trkpt><trkpt lat="43.5196001" lon="10.7290143"><ele>57.0</ele><time>2026-04-18T07:25:05.346Z</time></trkpt><trkpt lat="43.5196205" lon="10.7291219"><ele>58.5</ele><time>2026-04-18T07:25:06.346Z</time></trkpt><trkpt lat="43.519638" lon="10.7292249"><ele>60.0</ele><time>2026-04-18T07:25:07.346Z</time></trkpt><trkpt lat="43.5196534" lon="10.7293198"><ele>60.4</ele><time>2026-04-18T07:25:08.345Z</time></trkpt><trkpt lat="43.5196819" lon="10.7294794"><ele>60.8</ele><time>2026-04-18T07:25:10.345Z</time></trkpt><trkpt lat="43.5196854" lon="10.7296129"><ele>61.2</ele><time>2026-04-18T07:25:12.345Z</time></trkpt><trkpt lat="43.5196509" lon="10.7297728"><ele>61.6</ele><time>2026-04-18T07:25:14.343Z</time></trkpt><trkpt lat="43.5196225" lon="10.7299098"><ele>62.0</ele><time>2026-04-18T07:25:16.343Z</time></trkpt><trkpt lat="43.5195851" lon="10.73006"><ele>62.0</ele><time>2026-04-18T07:25:18.344Z</time></trkpt><trkpt lat="43.5195802" lon="10.7302049"><ele>62.0</ele><time>2026-04-18T07:25:20.345Z</time></trkpt><trkpt lat="43.5196" lon="10.7303561"><ele>62.0</ele><time>2026-04-18T07:25:22.344Z</time></trkpt><trkpt lat="43.5195972" lon="10.7304943"><ele>62.0</ele><time>2026-04-18T07:25:24.345Z</time></trkpt><trkpt lat="43.5195918" lon="10.7306368"><ele>62.0</ele><time>2026-04-18T07:25:26.346Z</time></trkpt><trkpt lat="43.5196285" lon="10.7307676"><ele>63.0</ele><time>2026-04-18T07:25:28.343Z</time></trkpt><trkpt lat="43.5196581" lon="10.7309124"><ele>64.0</ele><time>2026-04-18T07:25:30.343Z</time></trkpt><trkpt lat="43.5196676" lon="10.7310721"><ele>65.0</ele><time>2026-04-18T07:25:32.343Z</time></trkpt><trkpt lat="43.5196764" lon="10.7312312"><ele>66.0</ele><time>2026-04-18T07:25:34.343Z</time></trkpt><trkpt lat="43.5196907" lon="10.7313786"><ele>67.0</ele><time>2026-04-18T07:25:36.344Z</time></trkpt><trkpt lat="43.5196978" lon="10.7315031"><ele>69.4</ele><time>2026-04-18T07:25:38.343Z</time></trkpt><trkpt lat="43.5197156" lon="10.7316087"><ele>71.80000000000001</ele><time>2026-04-18T07:25:40.344Z</time></trkpt><trkpt lat="43.5197311" lon="10.7317211"><ele>74.2</ele><time>2026-04-18T07:25:42.343Z</time></trkpt><trkpt lat="43.5197609" lon="10.7318486"><ele>76.60000000000001</ele><time>2026-04-18T07:25:44.345Z</time></trkpt><trkpt lat="43.5197996" lon="10.7319959"><ele>79.0</ele><time>2026-04-18T07:25:46.344Z</time></trkpt><trkpt lat="43.5198259" lon="10.73212"><ele>80.4</ele><time>2026-04-18T07:25:48.346Z</time></trkpt><trkpt lat="43.5198402" lon="10.732231"><ele>81.80000000000001</ele><time>2026-04-18T07:25:50.342Z</time></trkpt><trkpt lat="43.5198526" lon="10.732352"><ele>83.19999999999999</ele><time>2026-04-18T07:25:52.343Z</time></trkpt><trkpt lat="43.5198489" lon="10.7325123"><ele>84.6</ele><time>2026-04-18T07:25:54.347Z</time></trkpt><trkpt lat="43.5198374" lon="10.7325996"><ele>86.0</ele><time>2026-04-18T07:25:55.345Z</time></trkpt><trkpt lat="43.5198174" lon="10.7327651"><ele>88.5</ele><time>2026-04-18T07:25:57.343Z</time></trkpt><trkpt lat="43.5198287" lon="10.7329234"><ele>91.0</ele><time>2026-04-18T07:25:59.342Z</time></trkpt><trkpt lat="43.5198408" lon="10.7330819"><ele>93.5</ele><time>2026-04-18T07:26:01.343Z</time></trkpt><trkpt lat="43.5198519" lon="10.7332367"><ele>96.0</ele><time>2026-04-18T07:26:03.346Z</time></trkpt><trkpt lat="43.5198611" lon="10.7333844"><ele>96.0</ele><time>2026-04-18T07:26:05.342Z</time></trkpt><trkpt lat="43.5198555" lon="10.7335417"><ele>96.0</ele><time>2026-04-18T07:26:07.342Z</time></trkpt><trkpt lat="43.5198287" lon="10.7337076"><ele>96.0</ele><time>2026-04-18T07:26:09.342Z</time></trkpt><trkpt lat="43.5198168" lon="10.7337979"><ele>96.0</ele><time>2026-04-18T07:26:10.343Z</time></trkpt><trkpt lat="43.519808" lon="10.7338916"><ele>96.0</ele><time>2026-04-18T07:26:11.342Z</time></trkpt><trkpt lat="43.5198021" lon="10.7339887"><ele>96.0</ele><time>2026-04-18T07:26:12.344Z</time></trkpt><trkpt lat="43.5197965" lon="10.7340774"><ele>96.4</ele><time>2026-04-18T07:26:13.344Z</time></trkpt><trkpt lat="43.5197902" lon="10.7342237"><ele>96.8</ele><time>2026-04-18T07:26:15.346Z</time></trkpt><trkpt lat="43.5198249" lon="10.734325"><ele>97.2</ele><time>2026-04-18T07:26:17.347Z</time></trkpt><trkpt lat="43.5198995" lon="10.7343964"><ele>97.60000000000001</ele><time>2026-04-18T07:26:19.346Z</time></trkpt><trkpt lat="43.5200172" lon="10.7344747"><ele>98.0</ele><time>2026-04-18T07:26:21.349Z</time></trkpt><trkpt lat="43.5200809" lon="10.7345152"><ele>97.99999999999999</ele><time>2026-04-18T07:26:22.346Z</time></trkpt><trkpt lat="43.5201476" lon="10.7345596"><ele>98.0</ele><time>2026-04-18T07:26:23.346Z</time></trkpt><trkpt lat="43.5202118" lon="10.7346141"><ele>98.0</ele><time>2026-04-18T07:26:24.343Z</time></trkpt><trkpt lat="43.5202799" lon="10.7346727"><ele>98.0</ele><time>2026-04-18T07:26:25.343Z</time></trkpt><trkpt lat="43.5203505" lon="10.734733"><ele>97.99999999999999</ele><time>2026-04-18T07:26:26.343Z</time></trkpt><trkpt lat="43.5204173" lon="10.7347919"><ele>98.0</ele><time>2026-04-18T07:26:27.344Z</time></trkpt><trkpt lat="43.5204802" lon="10.7348484"><ele>100.0</ele><time>2026-04-18T07:26:28.342Z</time></trkpt><trkpt lat="43.5205428" lon="10.7349043"><ele>102.0</ele><time>2026-04-18T07:26:29.343Z</time></trkpt><trkpt lat="43.5206017" lon="10.7349653"><ele>104.0</ele><time>2026-04-18T07:26:30.342Z</time></trkpt><trkpt lat="43.5206532" lon="10.735037"><ele>106.0</ele><time>2026-04-18T07:26:31.343Z</time></trkpt><trkpt lat="43.5206924" lon="10.7351145"><ele>108.0</ele><time>2026-04-18T07:26:32.345Z</time></trkpt><trkpt lat="43.5207176" lon="10.7351997"><ele>110.0</ele><time>2026-04-18T07:26:33.347Z</time></trkpt><trkpt lat="43.520736" lon="10.7352885"><ele>112.0</ele><time>2026-04-18T07:26:34.344Z</time></trkpt><trkpt lat="43.5207566" lon="10.7353785"><ele>112.42857142857143</ele><time>2026-04-18T07:26:35.344Z</time></trkpt><trkpt lat="43.5207859" lon="10.7354606"><ele>112.85714285714286</ele><time>2026-04-18T07:26:36.346Z</time></trkpt><trkpt lat="43.5208256" lon="10.7355343"><ele>113.28571428571428</ele><time>2026-04-18T07:26:37.345Z</time></trkpt><trkpt lat="43.5208754" lon="10.7356039"><ele>113.71428571428571</ele><time>2026-04-18T07:26:38.348Z</time></trkpt><trkpt lat="43.5209295" lon="10.7356775"><ele>114.14285714285714</ele><time>2026-04-18T07:26:39.347Z</time></trkpt><trkpt lat="43.5209875" lon="10.7357471"><ele>114.57142857142856</ele><time>2026-04-18T07:26:40.344Z</time></trkpt><trkpt lat="43.5210477" lon="10.7358151"><ele>114.99999999999999</ele><time>2026-04-18T07:26:41.343Z</time></trkpt><trkpt lat="43.5211112" lon="10.735874"><ele>115.00000000000001</ele><time>2026-04-18T07:26:42.345Z</time></trkpt><trkpt lat="43.5211793" lon="10.7359209"><ele>115.0</ele><time>2026-04-18T07:26:43.344Z</time></trkpt><trkpt lat="43.521245" lon="10.7359684"><ele>115.0</ele><time>2026-04-18T07:26:44.343Z</time></trkpt><trkpt lat="43.5213071" lon="10.7360183"><ele>115.0</ele><time>2026-04-18T07:26:45.343Z</time></trkpt><trkpt lat="43.52141" lon="10.736133"><ele>115.00000000000001</ele><time>2026-04-18T07:26:47.344Z</time></trkpt><trkpt lat="43.5214605" lon="10.7361907"><ele>115.0</ele><time>2026-04-18T07:26:48.345Z</time></trkpt><trkpt lat="43.5215152" lon="10.7362597"><ele>118.16666666666667</ele><time>2026-04-18T07:26:49.345Z</time></trkpt><trkpt lat="43.5215748" lon="10.7363311"><ele>121.33333333333334</ele><time>2026-04-18T07:26:50.345Z</time></trkpt><trkpt lat="43.5216243" lon="10.7364119"><ele>124.5</ele><time>2026-04-18T07:26:51.345Z</time></trkpt><trkpt lat="43.5216623" lon="10.7364869"><ele>127.66666666666666</ele><time>2026-04-18T07:26:52.345Z</time></trkpt><trkpt lat="43.5217302" lon="10.7366108"><ele>130.83333333333331</ele><time>2026-04-18T07:26:54.348Z</time></trkpt><trkpt lat="43.5217803" lon="10.7366781"><ele>134.0</ele><time>2026-04-18T07:26:55.345Z</time></trkpt><trkpt lat="43.5218316" lon="10.7367586"><ele>134.0</ele><time>2026-04-18T07:26:56.344Z</time></trkpt><trkpt lat="43.5218853" lon="10.7368443"><ele>134.0</ele><time>2026-04-18T07:26:57.344Z</time></trkpt><trkpt lat="43.5219401" lon="10.7369218"><ele>134.0</ele><time>2026-04-18T07:26:58.346Z</time></trkpt><trkpt lat="43.5219921" lon="10.7369892"><ele>134.0</ele><time>2026-04-18T07:26:59.345Z</time></trkpt><trkpt lat="43.5220646" lon="10.737083"><ele>134.0</ele><time>2026-04-18T07:27:01.345Z</time></trkpt><trkpt lat="43.5221119" lon="10.7371856"><ele>134.0</ele><time>2026-04-18T07:27:04.343Z</time></trkpt><trkpt lat="43.5220906" lon="10.7372956"><ele>133.66666666666666</ele><time>2026-04-18T07:27:06.344Z</time></trkpt><trkpt lat="43.5220706" lon="10.7373808"><ele>133.33333333333331</ele><time>2026-04-18T07:27:07.344Z</time></trkpt><trkpt lat="43.522044" lon="10.7374718"><ele>133.0</ele><time>2026-04-18T07:27:08.344Z</time></trkpt><trkpt lat="43.5220094" lon="10.7375656"><ele>132.66666666666666</ele><time>2026-04-18T07:27:09.344Z</time></trkpt><trkpt lat="43.5219709" lon="10.7376636"><ele>132.33333333333334</ele><time>2026-04-18T07:27:10.344Z</time></trkpt><trkpt lat="43.521922" lon="10.7377604"><ele>132.0</ele><time>2026-04-18T07:27:11.343Z</time></trkpt><trkpt lat="43.5218703" lon="10.7378484"><ele>134.0</ele><time>2026-04-18T07:27:12.344Z</time></trkpt><trkpt lat="43.5218195" lon="10.7379134"><ele>136.0</ele><time>2026-04-18T07:27:13.346Z</time></trkpt><trkpt lat="43.5217236" lon="10.7380036"><ele>138.0</ele><time>2026-04-18T07:27:15.344Z</time></trkpt><trkpt lat="43.5216275" lon="10.7380663"><ele>140.0</ele><time>2026-04-18T07:27:17.342Z</time></trkpt><trkpt lat="43.5215818" lon="10.7381304"><ele>142.0</ele><time>2026-04-18T07:27:42.343Z</time></trkpt><trkpt lat="43.521649" lon="10.7381307"><ele>144.0</ele><time>2026-04-18T07:28:18.342Z</time></trkpt><trkpt lat="43.5217036" lon="10.7382375"><ele>144.0</ele><time>2026-04-18T07:28:20.342Z</time></trkpt><trkpt lat="43.5217178" lon="10.738328"><ele>144.0</ele><time>2026-04-18T07:28:21.343Z</time></trkpt><trkpt lat="43.5217357" lon="10.7384501"><ele>144.0</ele><time>2026-04-18T07:28:22.345Z</time></trkpt><trkpt lat="43.5217558" lon="10.7385799"><ele>144.0</ele><time>2026-04-18T07:28:23.341Z</time></trkpt><trkpt lat="43.5217854" lon="10.7387163"><ele>144.0</ele><time>2026-04-18T07:28:24.344Z</time></trkpt><trkpt lat="43.5218236" lon="10.7388553"><ele>144.0</ele><time>2026-04-18T07:28:25.343Z</time></trkpt><trkpt lat="43.5218685" lon="10.7390033"><ele>144.0</ele><time>2026-04-18T07:28:26.343Z</time></trkpt><trkpt lat="43.5219207" lon="10.739158"><ele>144.0</ele><time>2026-04-18T07:28:27.342Z</time></trkpt><trkpt lat="43.5219793" lon="10.7393068"><ele>144.0</ele><time>2026-04-18T07:28:28.348Z</time></trkpt><trkpt lat="43.5220407" lon="10.7394602"><ele>147.0</ele><time>2026-04-18T07:28:29.341Z</time></trkpt><trkpt lat="43.522098" lon="10.7396144"><ele>150.0</ele><time>2026-04-18T07:28:30.346Z</time></trkpt><trkpt lat="43.5221547" lon="10.7397728"><ele>153.0</ele><time>2026-04-18T07:28:31.342Z</time></trkpt><trkpt lat="43.522216" lon="10.7399368"><ele>156.0</ele><time>2026-04-18T07:28:32.345Z</time></trkpt><trkpt lat="43.522277" lon="10.7401082"><ele>157.0</ele><time>2026-04-18T07:28:33.342Z</time></trkpt><trkpt lat="43.5223356" lon="10.7402769"><ele>158.0</ele><time>2026-04-18T07:28:34.342Z</time></trkpt><trkpt lat="43.5223988" lon="10.7404406"><ele>159.0</ele><time>2026-04-18T07:28:35.345Z</time></trkpt><trkpt lat="43.5224651" lon="10.7405949"><ele>160.0</ele><time>2026-04-18T07:28:36.342Z</time></trkpt><trkpt lat="43.5225287" lon="10.74074"><ele>160.0</ele><time>2026-04-18T07:28:37.344Z</time></trkpt><trkpt lat="43.5225841" lon="10.7408675"><ele>160.0</ele><time>2026-04-18T07:28:38.342Z</time></trkpt><trkpt lat="43.52264" lon="10.7409915"><ele>160.0</ele><time>2026-04-18T07:28:39.342Z</time></trkpt><trkpt lat="43.5226993" lon="10.7411163"><ele>160.0</ele><time>2026-04-18T07:28:40.342Z</time></trkpt><trkpt lat="43.5227703" lon="10.7412374"><ele>160.0</ele><time>2026-04-18T07:28:41.341Z</time></trkpt><trkpt lat="43.5228496" lon="10.7413511"><ele>159.75</ele><time>2026-04-18T07:28:42.345Z</time></trkpt><trkpt lat="43.522946" lon="10.7414505"><ele>159.5</ele><time>2026-04-18T07:28:43.346Z</time></trkpt><trkpt lat="43.5230533" lon="10.7415409"><ele>159.25</ele><time>2026-04-18T07:28:44.345Z</time></trkpt><trkpt lat="43.5231629" lon="10.7416306"><ele>159.0</ele><time>2026-04-18T07:28:45.347Z</time></trkpt><trkpt lat="43.5232679" lon="10.7417237"><ele>159.0</ele><time>2026-04-18T07:28:46.342Z</time></trkpt><trkpt lat="43.5233684" lon="10.7418127"><ele>159.0</ele><time>2026-04-18T07:28:47.345Z</time></trkpt><trkpt lat="43.5234651" lon="10.7419019"><ele>159.0</ele><time>2026-04-18T07:28:48.344Z</time></trkpt><trkpt lat="43.5235542" lon="10.7419813"><ele>159.0</ele><time>2026-04-18T07:28:49.343Z</time></trkpt><trkpt lat="43.5236368" lon="10.7420301"><ele>159.0</ele><time>2026-04-18T07:28:50.343Z</time></trkpt><trkpt lat="43.5237122" lon="10.7420414"><ele>159.6</ele><time>2026-04-18T07:28:51.344Z</time></trkpt><trkpt lat="43.5237923" lon="10.7420277"><ele>160.2</ele><time>2026-04-18T07:28:52.344Z</time></trkpt><trkpt lat="43.5238809" lon="10.7419948"><ele>160.79999999999998</ele><time>2026-04-18T07:28:53.344Z</time></trkpt><trkpt lat="43.5239833" lon="10.741952"><ele>161.4</ele><time>2026-04-18T07:28:54.344Z</time></trkpt><trkpt lat="43.5240997" lon="10.7419049"><ele>162.0</ele><time>2026-04-18T07:28:55.343Z</time></trkpt><trkpt lat="43.5242212" lon="10.7418554"><ele>162.6</ele><time>2026-04-18T07:28:56.342Z</time></trkpt><trkpt lat="43.524333" lon="10.7418125"><ele>163.2</ele><time>2026-04-18T07:28:57.342Z</time></trkpt><trkpt lat="43.5244376" lon="10.7417773"><ele>163.8</ele><time>2026-04-18T07:28:58.342Z</time></trkpt><trkpt lat="43.5245315" lon="10.741752"><ele>164.4</ele><time>2026-04-18T07:28:59.343Z</time></trkpt><trkpt lat="43.5246224" lon="10.7417415"><ele>165.0</ele><time>2026-04-18T07:29:00.346Z</time></trkpt><trkpt lat="43.5247106" lon="10.7417485"><ele>166.4</ele><time>2026-04-18T07:29:01.344Z</time></trkpt><trkpt lat="43.5248027" lon="10.7417686"><ele>167.8</ele><time>2026-04-18T07:29:02.345Z</time></trkpt><trkpt lat="43.5248974" lon="10.7417894"><ele>169.2</ele><time>2026-04-18T07:29:03.342Z</time></trkpt><trkpt lat="43.5249958" lon="10.7417934"><ele>170.6</ele><time>2026-04-18T07:29:04.345Z</time></trkpt><trkpt lat="43.5250995" lon="10.7417803"><ele>172.0</ele><time>2026-04-18T07:29:05.343Z</time></trkpt><trkpt lat="43.5252077" lon="10.7417481"><ele>172.0</ele><time>2026-04-18T07:29:06.344Z</time></trkpt><trkpt lat="43.5253182" lon="10.7416978"><ele>172.0</ele><time>2026-04-18T07:29:07.347Z</time></trkpt><trkpt lat="43.5254268" lon="10.7416348"><ele>172.0</ele><time>2026-04-18T07:29:08.342Z</time></trkpt><trkpt lat="43.5255301" lon="10.741564"><ele>172.0</ele><time>2026-04-18T07:29:09.349Z</time></trkpt><trkpt lat="43.5256222" lon="10.7414874"><ele>171.5</ele><time>2026-04-18T07:29:10.343Z</time></trkpt><trkpt lat="43.5256998" lon="10.7414144"><ele>171.0</ele><time>2026-04-18T07:29:11.342Z</time></trkpt><trkpt lat="43.5257725" lon="10.7413525"><ele>170.5</ele><time>2026-04-18T07:29:12.343Z</time></trkpt><trkpt lat="43.5258345" lon="10.7413017"><ele>170.0</ele><time>2026-04-18T07:29:13.342Z</time></trkpt><trkpt lat="43.5259085" lon="10.7412351"><ele>169.5</ele><time>2026-04-18T07:29:15.343Z</time></trkpt><trkpt lat="43.5259784" lon="10.741278"><ele>169.0</ele><time>2026-04-18T07:29:17.342Z</time></trkpt><trkpt lat="43.526074" lon="10.7414066"><ele>169.0</ele><time>2026-04-18T07:29:19.345Z</time></trkpt><trkpt lat="43.5261301" lon="10.7414992"><ele>169.0</ele><time>2026-04-18T07:29:20.343Z</time></trkpt><trkpt lat="43.526198" lon="10.7416021"><ele>169.0</ele><time>2026-04-18T07:29:21.344Z</time></trkpt><trkpt lat="43.5262663" lon="10.7416971"><ele>169.0</ele><time>2026-04-18T07:29:22.342Z</time></trkpt><trkpt lat="43.5263421" lon="10.741798"><ele>169.0</ele><time>2026-04-18T07:29:23.343Z</time></trkpt><trkpt lat="43.5264219" lon="10.7419061"><ele>169.5</ele><time>2026-04-18T07:29:24.344Z</time></trkpt><trkpt lat="43.5265024" lon="10.7420242"><ele>170.0</ele><time>2026-04-18T07:29:25.344Z</time></trkpt><trkpt lat="43.52658" lon="10.7421468"><ele>170.5</ele><time>2026-04-18T07:29:26.345Z</time></trkpt><trkpt lat="43.5266638" lon="10.7422601"><ele>171.0</ele><time>2026-04-18T07:29:27.345Z</time></trkpt><trkpt lat="43.526743" lon="10.742369"><ele>171.0</ele><time>2026-04-18T07:29:28.346Z</time></trkpt><trkpt lat="43.5268137" lon="10.7424804"><ele>171.0</ele><time>2026-04-18T07:29:29.346Z</time></trkpt><trkpt lat="43.5268805" lon="10.7426"><ele>171.0</ele><time>2026-04-18T07:29:30.345Z</time></trkpt><trkpt lat="43.5269428" lon="10.7427237"><ele>171.0</ele><time>2026-04-18T07:29:31.345Z</time></trkpt><trkpt lat="43.5269913" lon="10.742848"><ele>171.0</ele><time>2026-04-18T07:29:32.346Z</time></trkpt><trkpt lat="43.527028" lon="10.7429695"><ele>171.0</ele><time>2026-04-18T07:29:33.344Z</time></trkpt><trkpt lat="43.5270593" lon="10.7430876"><ele>171.0</ele><time>2026-04-18T07:29:34.342Z</time></trkpt><trkpt lat="43.5270901" lon="10.7432022"><ele>171.0</ele><time>2026-04-18T07:29:35.345Z</time></trkpt><trkpt lat="43.5271199" lon="10.7432954"><ele>171.0</ele><time>2026-04-18T07:29:36.345Z</time></trkpt><trkpt lat="43.5271493" lon="10.7434259"><ele>171.0</ele><time>2026-04-18T07:29:38.346Z</time></trkpt><trkpt lat="43.5271777" lon="10.743512"><ele>171.0</ele><time>2026-04-18T07:29:40.344Z</time></trkpt><trkpt lat="43.5272115" lon="10.7436112"><ele>171.0</ele><time>2026-04-18T07:29:42.344Z</time></trkpt><trkpt lat="43.5272493" lon="10.7437452"><ele>171.0</ele><time>2026-04-18T07:29:44.344Z</time></trkpt><trkpt lat="43.527291" lon="10.743903"><ele>171.0</ele><time>2026-04-18T07:29:46.344Z</time></trkpt><trkpt lat="43.5273393" lon="10.7440414"><ele>171.0</ele><time>2026-04-18T07:29:48.343Z</time></trkpt><trkpt lat="43.5274066" lon="10.7441563"><ele>171.0</ele><time>2026-04-18T07:29:50.343Z</time></trkpt><trkpt lat="43.5275095" lon="10.7442357"><ele>171.0</ele><time>2026-04-18T07:29:52.342Z</time></trkpt><trkpt lat="43.5275838" lon="10.7442714"><ele>171.0</ele><time>2026-04-18T07:29:53.342Z</time></trkpt><trkpt lat="43.5276576" lon="10.7443033"><ele>171.0</ele><time>2026-04-18T07:29:54.344Z</time></trkpt><trkpt lat="43.527736" lon="10.744337"><ele>171.0</ele><time>2026-04-18T07:29:55.343Z</time></trkpt><trkpt lat="43.5278158" lon="10.7443817"><ele>171.0</ele><time>2026-04-18T07:29:56.342Z</time></trkpt><trkpt lat="43.5278939" lon="10.7444439"><ele>171.0</ele><time>2026-04-18T07:29:57.344Z</time></trkpt><trkpt lat="43.5279632" lon="10.7445035"><ele>170.0</ele><time>2026-04-18T07:29:58.343Z</time></trkpt><trkpt lat="43.5280253" lon="10.7445605"><ele>169.0</ele><time>2026-04-18T07:29:59.342Z</time></trkpt><trkpt lat="43.5280864" lon="10.7446197"><ele>168.0</ele><time>2026-04-18T07:30:00.343Z</time></trkpt><trkpt lat="43.5281415" lon="10.7446844"><ele>167.0</ele><time>2026-04-18T07:30:01.344Z</time></trkpt><trkpt lat="43.5282006" lon="10.7447693"><ele>166.0</ele><time>2026-04-18T07:30:02.345Z</time></trkpt><trkpt lat="43.5282516" lon="10.7448726"><ele>165.0</ele><time>2026-04-18T07:30:03.343Z</time></trkpt><trkpt lat="43.5282971" lon="10.7449812"><ele>165.0</ele><time>2026-04-18T07:30:04.343Z</time></trkpt><trkpt lat="43.5283371" lon="10.7450818"><ele>165.0</ele><time>2026-04-18T07:30:05.343Z</time></trkpt><trkpt lat="43.5283723" lon="10.745172"><ele>165.0</ele><time>2026-04-18T07:30:06.343Z</time></trkpt><trkpt lat="43.5283985" lon="10.7452536"><ele>165.0</ele><time>2026-04-18T07:30:07.343Z</time></trkpt><trkpt lat="43.5284488" lon="10.7453694"><ele>165.0</ele><time>2026-04-18T07:30:09.343Z</time></trkpt><trkpt lat="43.5285084" lon="10.7454136"><ele>165.0</ele><time>2026-04-18T07:30:12.342Z</time></trkpt><trkpt lat="43.5285637" lon="10.7453489"><ele>165.0</ele><time>2026-04-18T07:30:26.343Z</time></trkpt><trkpt lat="43.5286059" lon="10.7452709"><ele>165.0</ele><time>2026-04-18T07:30:34.343Z</time></trkpt><trkpt lat="43.5287016" lon="10.7452584"><ele>165.0</ele><time>2026-04-18T07:30:37.343Z</time></trkpt><trkpt lat="43.5287745" lon="10.745233"><ele>165.0</ele><time>2026-04-18T07:30:39.344Z</time></trkpt><trkpt lat="43.5288592" lon="10.74521"><ele>165.0</ele><time>2026-04-18T07:30:41.343Z</time></trkpt><trkpt lat="43.528966" lon="10.745191"><ele>165.0</ele><time>2026-04-18T07:30:43.346Z</time></trkpt><trkpt lat="43.529073" lon="10.7451658"><ele>163.83333333333334</ele><time>2026-04-18T07:30:45.346Z</time></trkpt><trkpt lat="43.5291682" lon="10.7451152"><ele>162.66666666666666</ele><time>2026-04-18T07:30:47.343Z</time></trkpt><trkpt lat="43.5292565" lon="10.7450773"><ele>161.5</ele><time>2026-04-18T07:30:49.343Z</time></trkpt><trkpt lat="43.5293284" lon="10.745054"><ele>160.33333333333331</ele><time>2026-04-18T07:30:51.344Z</time></trkpt><trkpt lat="43.5294027" lon="10.7451049"><ele>159.16666666666666</ele><time>2026-04-18T07:30:57.344Z</time></trkpt><trkpt lat="43.529469" lon="10.7451421"><ele>158.0</ele><time>2026-04-18T07:30:59.343Z</time></trkpt><trkpt lat="43.5295541" lon="10.745201"><ele>157.83333333333331</ele><time>2026-04-18T07:31:01.344Z</time></trkpt><trkpt lat="43.5296352" lon="10.7452582"><ele>157.66666666666666</ele><time>2026-04-18T07:31:03.345Z</time></trkpt><trkpt lat="43.5297036" lon="10.7452913"><ele>157.5</ele><time>2026-04-18T07:31:05.344Z</time></trkpt><trkpt lat="43.5297745" lon="10.7452774"><ele>157.33333333333334</ele><time>2026-04-18T07:31:07.345Z</time></trkpt><trkpt lat="43.5298702" lon="10.7452349"><ele>157.16666666666669</ele><time>2026-04-18T07:31:09.343Z</time></trkpt><trkpt lat="43.5299348" lon="10.7452076"><ele>157.0</ele><time>2026-04-18T07:31:10.345Z</time></trkpt><trkpt lat="43.5300024" lon="10.7451674"><ele>156.83333333333334</ele><time>2026-04-18T07:31:11.344Z</time></trkpt><trkpt lat="43.5300681" lon="10.7451132"><ele>156.66666666666669</ele><time>2026-04-18T07:31:12.343Z</time></trkpt><trkpt lat="43.5301389" lon="10.7450476"><ele>156.5</ele><time>2026-04-18T07:31:13.344Z</time></trkpt><trkpt lat="43.5301993" lon="10.7449732"><ele>156.33333333333334</ele><time>2026-04-18T07:31:14.344Z</time></trkpt><trkpt lat="43.530266" lon="10.7449086"><ele>156.16666666666666</ele><time>2026-04-18T07:31:15.344Z</time></trkpt><trkpt lat="43.5303338" lon="10.7448479"><ele>156.0</ele><time>2026-04-18T07:31:16.345Z</time></trkpt><trkpt lat="43.5304131" lon="10.744799"><ele>156.0</ele><time>2026-04-18T07:31:17.343Z</time></trkpt><trkpt lat="43.530491" lon="10.7447522"><ele>156.0</ele><time>2026-04-18T07:31:18.343Z</time></trkpt><trkpt lat="43.5305727" lon="10.7447058"><ele>156.0</ele><time>2026-04-18T07:31:19.343Z</time></trkpt><trkpt lat="43.5306485" lon="10.744659"><ele>156.0</ele><time>2026-04-18T07:31:20.343Z</time></trkpt><trkpt lat="43.5307214" lon="10.7446088"><ele>156.0</ele><time>2026-04-18T07:31:21.343Z</time></trkpt><trkpt lat="43.5307903" lon="10.7445513"><ele>156.0</ele><time>2026-04-18T07:31:22.343Z</time></trkpt><trkpt lat="43.530846" lon="10.7444724"><ele>156.0</ele><time>2026-04-18T07:31:23.344Z</time></trkpt><trkpt lat="43.530885" lon="10.7443696"><ele>156.0</ele><time>2026-04-18T07:31:24.343Z</time></trkpt><trkpt lat="43.5309147" lon="10.744255"><ele>156.0</ele><time>2026-04-18T07:31:25.344Z</time></trkpt><trkpt lat="43.5309346" lon="10.7441195"><ele>156.0</ele><time>2026-04-18T07:31:26.344Z</time></trkpt><trkpt lat="43.5309472" lon="10.7439786"><ele>156.0</ele><time>2026-04-18T07:31:27.343Z</time></trkpt><trkpt lat="43.5309514" lon="10.7438375"><ele>156.0</ele><time>2026-04-18T07:31:28.343Z</time></trkpt><trkpt lat="43.5309435" lon="10.7436901"><ele>156.0</ele><time>2026-04-18T07:31:29.343Z</time></trkpt><trkpt lat="43.5309225" lon="10.7435381"><ele>156.0</ele><time>2026-04-18T07:31:30.343Z</time></trkpt><trkpt lat="43.5309035" lon="10.7433976"><ele>156.0</ele><time>2026-04-18T07:31:31.343Z</time></trkpt><trkpt lat="43.5308852" lon="10.7432675"><ele>156.0</ele><time>2026-04-18T07:31:32.343Z</time></trkpt><trkpt lat="43.53087" lon="10.7431457"><ele>157.0</ele><time>2026-04-18T07:31:33.343Z</time></trkpt><trkpt lat="43.5308596" lon="10.7430277"><ele>158.0</ele><time>2026-04-18T07:31:34.343Z</time></trkpt><trkpt lat="43.5308612" lon="10.7429126"><ele>159.0</ele><time>2026-04-18T07:31:35.343Z</time></trkpt><trkpt lat="43.5308749" lon="10.7428096"><ele>160.0</ele><time>2026-04-18T07:31:36.343Z</time></trkpt><trkpt lat="43.5308973" lon="10.7427083"><ele>161.0</ele><time>2026-04-18T07:31:37.344Z</time></trkpt><trkpt lat="43.5309202" lon="10.7426229"><ele>162.0</ele><time>2026-04-18T07:31:38.344Z</time></trkpt><trkpt lat="43.5309441" lon="10.74249"><ele>162.66666666666666</ele><time>2026-04-18T07:31:40.343Z</time></trkpt><trkpt lat="43.5309306" lon="10.7423341"><ele>163.33333333333334</ele><time>2026-04-18T07:31:42.344Z</time></trkpt><trkpt lat="43.5309092" lon="10.7422424"><ele>164.0</ele><time>2026-04-18T07:31:43.346Z</time></trkpt><trkpt lat="43.53088" lon="10.742146"><ele>164.66666666666669</ele><time>2026-04-18T07:31:44.343Z</time></trkpt><trkpt lat="43.5308463" lon="10.7420401"><ele>165.33333333333334</ele><time>2026-04-18T07:31:45.343Z</time></trkpt><trkpt lat="43.5308137" lon="10.7419367"><ele>166.0</ele><time>2026-04-18T07:31:46.343Z</time></trkpt><trkpt lat="43.5307847" lon="10.7418366"><ele>166.5</ele><time>2026-04-18T07:31:47.343Z</time></trkpt><trkpt lat="43.5307599" lon="10.7417536"><ele>167.0</ele><time>2026-04-18T07:31:48.343Z</time></trkpt><trkpt lat="43.5307313" lon="10.7416258"><ele>167.5</ele><time>2026-04-18T07:31:50.343Z</time></trkpt><trkpt lat="43.5307144" lon="10.7415307"><ele>168.0</ele><time>2026-04-18T07:31:52.343Z</time></trkpt><trkpt lat="43.5307221" lon="10.7413985"><ele>168.5</ele><time>2026-04-18T07:31:55.343Z</time></trkpt><trkpt lat="43.5307518" lon="10.7412857"><ele>169.0</ele><time>2026-04-18T07:31:57.343Z</time></trkpt><trkpt lat="43.5308044" lon="10.7411157"><ele>168.85714285714286</ele><time>2026-04-18T07:31:59.343Z</time></trkpt><trkpt lat="43.5308379" lon="10.74104"><ele>168.71428571428572</ele><time>2026-04-18T07:32:00.342Z</time></trkpt><trkpt lat="43.5308759" lon="10.7409664"><ele>168.57142857142856</ele><time>2026-04-18T07:32:01.344Z</time></trkpt><trkpt lat="43.530915" lon="10.7408853"><ele>168.42857142857144</ele><time>2026-04-18T07:32:02.343Z</time></trkpt><trkpt lat="43.5309485" lon="10.7407948"><ele>168.28571428571428</ele><time>2026-04-18T07:32:03.343Z</time></trkpt><trkpt lat="43.5309802" lon="10.7406948"><ele>168.14285714285714</ele><time>2026-04-18T07:32:04.344Z</time></trkpt><trkpt lat="43.5310128" lon="10.740585"><ele>168.0</ele><time>2026-04-18T07:32:05.345Z</time></trkpt><trkpt lat="43.5310479" lon="10.7404654"><ele>168.0</ele><time>2026-04-18T07:32:06.344Z</time></trkpt><trkpt lat="43.531079" lon="10.740353"><ele>168.0</ele><time>2026-04-18T07:32:07.342Z</time></trkpt><trkpt lat="43.5311071" lon="10.7402599"><ele>168.0</ele><time>2026-04-18T07:32:08.343Z</time></trkpt><trkpt lat="43.5311318" lon="10.7401756"><ele>168.0</ele><time>2026-04-18T07:32:09.343Z</time></trkpt><trkpt lat="43.5311719" lon="10.7400243"><ele>168.0</ele><time>2026-04-18T07:32:11.343Z</time></trkpt><trkpt lat="43.5311905" lon="10.7399124"><ele>168.0</ele><time>2026-04-18T07:32:13.344Z</time></trkpt><trkpt lat="43.531218" lon="10.7398292"><ele>165.16666666666666</ele><time>2026-04-18T07:32:15.343Z</time></trkpt><trkpt lat="43.5312628" lon="10.7397556"><ele>162.33333333333334</ele><time>2026-04-18T07:32:17.343Z</time></trkpt><trkpt lat="43.5313225" lon="10.7396724"><ele>159.5</ele><time>2026-04-18T07:32:19.342Z</time></trkpt><trkpt lat="43.531404" lon="10.7395807"><ele>156.66666666666669</ele><time>2026-04-18T07:32:21.343Z</time></trkpt><trkpt lat="43.5314565" lon="10.7395235"><ele>153.83333333333334</ele><time>2026-04-18T07:32:22.343Z</time></trkpt><trkpt lat="43.5315061" lon="10.7394644"><ele>151.0</ele><time>2026-04-18T07:32:23.342Z</time></trkpt><trkpt lat="43.5315568" lon="10.7393932"><ele>152.16666666666669</ele><time>2026-04-18T07:32:24.343Z</time></trkpt><trkpt lat="43.5316245" lon="10.7393243"><ele>153.33333333333334</ele><time>2026-04-18T07:32:25.342Z</time></trkpt><trkpt lat="43.5316973" lon="10.7392538"><ele>154.5</ele><time>2026-04-18T07:32:26.342Z</time></trkpt><trkpt lat="43.53177" lon="10.7391848"><ele>155.66666666666666</ele><time>2026-04-18T07:32:27.347Z</time></trkpt><trkpt lat="43.5318441" lon="10.7391254"><ele>156.83333333333331</ele><time>2026-04-18T07:32:28.344Z</time></trkpt><trkpt lat="43.5319291" lon="10.739049"><ele>158.0</ele><time>2026-04-18T07:32:29.343Z</time></trkpt><trkpt lat="43.5320131" lon="10.7389851"><ele>155.0</ele><time>2026-04-18T07:32:30.343Z</time></trkpt><trkpt lat="43.5320919" lon="10.738927"><ele>152.0</ele><time>2026-04-18T07:32:31.344Z</time></trkpt><trkpt lat="43.5321668" lon="10.7388467"><ele>149.0</ele><time>2026-04-18T07:32:32.343Z</time></trkpt><trkpt lat="43.5322445" lon="10.7387792"><ele>146.0</ele><time>2026-04-18T07:32:33.348Z</time></trkpt><trkpt lat="43.5323272" lon="10.7387144"><ele>143.0</ele><time>2026-04-18T07:32:34.345Z</time></trkpt><trkpt lat="43.5324231" lon="10.7386422"><ele>143.0</ele><time>2026-04-18T07:32:35.344Z</time></trkpt><trkpt lat="43.5325173" lon="10.7385631"><ele>143.0</ele><time>2026-04-18T07:32:36.343Z</time></trkpt><trkpt lat="43.532609" lon="10.7384915"><ele>143.0</ele><time>2026-04-18T07:32:37.342Z</time></trkpt><trkpt lat="43.5326981" lon="10.7384267"><ele>143.0</ele><time>2026-04-18T07:32:38.344Z</time></trkpt><trkpt lat="43.5327817" lon="10.7383636"><ele>143.0</ele><time>2026-04-18T07:32:39.343Z</time></trkpt><trkpt lat="43.5328582" lon="10.738304"><ele>144.0</ele><time>2026-04-18T07:32:40.342Z</time></trkpt><trkpt lat="43.5329324" lon="10.7382386"><ele>145.0</ele><time>2026-04-18T07:32:41.346Z</time></trkpt><trkpt lat="43.5330073" lon="10.7381469"><ele>146.0</ele><time>2026-04-18T07:32:42.346Z</time></trkpt><trkpt lat="43.5330856" lon="10.7380586"><ele>147.0</ele><time>2026-04-18T07:32:43.346Z</time></trkpt><trkpt lat="43.5331581" lon="10.7379816"><ele>148.0</ele><time>2026-04-18T07:32:44.345Z</time></trkpt><trkpt lat="43.533229" lon="10.7379083"><ele>148.0</ele><time>2026-04-18T07:32:45.346Z</time></trkpt><trkpt lat="43.5333002" lon="10.737829"><ele>148.0</ele><time>2026-04-18T07:32:46.343Z</time></trkpt><trkpt lat="43.5333713" lon="10.7377688"><ele>148.0</ele><time>2026-04-18T07:32:47.346Z</time></trkpt><trkpt lat="43.5334358" lon="10.7377218"><ele>148.0</ele><time>2026-04-18T07:32:48.343Z</time></trkpt><trkpt lat="43.5334952" lon="10.7376887"><ele>148.0</ele><time>2026-04-18T07:32:49.344Z</time></trkpt><trkpt lat="43.5335564" lon="10.7376643"><ele>148.0</ele><time>2026-04-18T07:32:50.345Z</time></trkpt><trkpt lat="43.5336242" lon="10.7376404"><ele>148.0</ele><time>2026-04-18T07:32:51.346Z</time></trkpt><trkpt lat="43.5336962" lon="10.7376158"><ele>147.33333333333334</ele><time>2026-04-18T07:32:52.346Z</time></trkpt><trkpt lat="43.5337714" lon="10.7375808"><ele>146.66666666666669</ele><time>2026-04-18T07:32:53.346Z</time></trkpt><trkpt lat="43.5338529" lon="10.7375422"><ele>146.0</ele><time>2026-04-18T07:32:54.346Z</time></trkpt><trkpt lat="43.5339385" lon="10.737502"><ele>145.33333333333334</ele><time>2026-04-18T07:32:55.346Z</time></trkpt><trkpt lat="43.5340277" lon="10.737457"><ele>144.66666666666666</ele><time>2026-04-18T07:32:56.343Z</time></trkpt><trkpt lat="43.5341149" lon="10.7374102"><ele>144.0</ele><time>2026-04-18T07:32:57.344Z</time></trkpt><trkpt lat="43.5342017" lon="10.7373649"><ele>144.0</ele><time>2026-04-18T07:32:58.346Z</time></trkpt><trkpt lat="43.5342881" lon="10.7373217"><ele>144.0</ele><time>2026-04-18T07:32:59.343Z</time></trkpt><trkpt lat="43.5343717" lon="10.7372772"><ele>144.0</ele><time>2026-04-18T07:33:00.343Z</time></trkpt><trkpt lat="43.5344549" lon="10.7372316"><ele>144.0</ele><time>2026-04-18T07:33:01.347Z</time></trkpt><trkpt lat="43.5345393" lon="10.7371831"><ele>144.0</ele><time>2026-04-18T07:33:02.342Z</time></trkpt><trkpt lat="43.5346291" lon="10.7371347"><ele>143.0</ele><time>2026-04-18T07:33:03.344Z</time></trkpt><trkpt lat="43.5347229" lon="10.7370879"><ele>142.0</ele><time>2026-04-18T07:33:04.344Z</time></trkpt><trkpt lat="43.5348147" lon="10.7370418"><ele>141.0</ele><time>2026-04-18T07:33:05.344Z</time></trkpt><trkpt lat="43.534902" lon="10.7369904"><ele>140.0</ele><time>2026-04-18T07:33:06.343Z</time></trkpt><trkpt lat="43.5349824" lon="10.7369306"><ele>139.0</ele><time>2026-04-18T07:33:07.346Z</time></trkpt><trkpt lat="43.5350643" lon="10.736856"><ele>138.8</ele><time>2026-04-18T07:33:08.346Z</time></trkpt><trkpt lat="43.5351479" lon="10.736779"><ele>138.60000000000002</ele><time>2026-04-18T07:33:09.346Z</time></trkpt><trkpt lat="43.5352359" lon="10.7366965"><ele>138.4</ele><time>2026-04-18T07:33:10.346Z</time></trkpt><trkpt lat="43.5353219" lon="10.7366089"><ele>138.20000000000002</ele><time>2026-04-18T07:33:11.347Z</time></trkpt><trkpt lat="43.5354008" lon="10.7365279"><ele>138.0</ele><time>2026-04-18T07:33:12.346Z</time></trkpt><trkpt lat="43.5354737" lon="10.7364585"><ele>137.6</ele><time>2026-04-18T07:33:13.346Z</time></trkpt><trkpt lat="43.5355402" lon="10.7363932"><ele>137.20000000000002</ele><time>2026-04-18T07:33:14.342Z</time></trkpt><trkpt lat="43.5356092" lon="10.7363291"><ele>136.8</ele><time>2026-04-18T07:33:15.346Z</time></trkpt><trkpt lat="43.5356874" lon="10.7362616"><ele>136.4</ele><time>2026-04-18T07:33:16.346Z</time></trkpt><trkpt lat="43.5357665" lon="10.7361884"><ele>136.0</ele><time>2026-04-18T07:33:17.346Z</time></trkpt><trkpt lat="43.535848" lon="10.736113"><ele>135.33333333333334</ele><time>2026-04-18T07:33:18.346Z</time></trkpt><trkpt lat="43.5359288" lon="10.7360412"><ele>134.66666666666669</ele><time>2026-04-18T07:33:19.347Z</time></trkpt><trkpt lat="43.5360071" lon="10.7359773"><ele>134.0</ele><time>2026-04-18T07:33:20.342Z</time></trkpt><trkpt lat="43.536079" lon="10.7359191"><ele>133.33333333333334</ele><time>2026-04-18T07:33:21.343Z</time></trkpt><trkpt lat="43.5361419" lon="10.7358645"><ele>132.66666666666666</ele><time>2026-04-18T07:33:22.346Z</time></trkpt><trkpt lat="43.5362033" lon="10.7358071"><ele>132.0</ele><time>2026-04-18T07:33:23.347Z</time></trkpt><trkpt lat="43.5362633" lon="10.7357453"><ele>131.14285714285714</ele><time>2026-04-18T07:33:24.346Z</time></trkpt><trkpt lat="43.536323" lon="10.7356875"><ele>130.28571428571428</ele><time>2026-04-18T07:33:25.346Z</time></trkpt><trkpt lat="43.536386" lon="10.7356282"><ele>129.42857142857144</ele><time>2026-04-18T07:33:26.346Z</time></trkpt><trkpt lat="43.5364448" lon="10.7355694"><ele>128.57142857142856</ele><time>2026-04-18T07:33:27.346Z</time></trkpt><trkpt lat="43.5365077" lon="10.7355099"><ele>127.71428571428572</ele><time>2026-04-18T07:33:28.346Z</time></trkpt><trkpt lat="43.536567" lon="10.7354558"><ele>126.85714285714286</ele><time>2026-04-18T07:33:29.346Z</time></trkpt><trkpt lat="43.5366263" lon="10.7354012"><ele>126.0</ele><time>2026-04-18T07:33:30.345Z</time></trkpt><trkpt lat="43.5366833" lon="10.7353514"><ele>126.0</ele><time>2026-04-18T07:33:31.342Z</time></trkpt><trkpt lat="43.5367426" lon="10.7352948"><ele>126.0</ele><time>2026-04-18T07:33:32.343Z</time></trkpt><trkpt lat="43.5368048" lon="10.7352365"><ele>126.0</ele><time>2026-04-18T07:33:33.346Z</time></trkpt><trkpt lat="43.5368648" lon="10.7351793"><ele>126.0</ele><time>2026-04-18T07:33:34.343Z</time></trkpt><trkpt lat="43.5369223" lon="10.7351288"><ele>126.0</ele><time>2026-04-18T07:33:35.346Z</time></trkpt><trkpt lat="43.5369773" lon="10.7350728"><ele>126.0</ele><time>2026-04-18T07:33:36.347Z</time></trkpt><trkpt lat="43.5370375" lon="10.7350181"><ele>126.0</ele><time>2026-04-18T07:33:37.346Z</time></trkpt><trkpt lat="43.5371033" lon="10.7349568"><ele>125.42857142857143</ele><time>2026-04-18T07:33:38.346Z</time></trkpt><trkpt lat="43.5371639" lon="10.7348961"><ele>124.85714285714286</ele><time>2026-04-18T07:33:39.346Z</time></trkpt><trkpt lat="43.5372235" lon="10.734841"><ele>124.28571428571428</ele><time>2026-04-18T07:33:40.342Z</time></trkpt><trkpt lat="43.5372804" lon="10.73479"><ele>123.71428571428571</ele><time>2026-04-18T07:33:41.342Z</time></trkpt><trkpt lat="43.5373369" lon="10.7347349"><ele>123.14285714285714</ele><time>2026-04-18T07:33:42.343Z</time></trkpt><trkpt lat="43.5373921" lon="10.7346756"><ele>122.57142857142856</ele><time>2026-04-18T07:33:43.344Z</time></trkpt><trkpt lat="43.5374497" lon="10.7346071"><ele>121.99999999999999</ele><time>2026-04-18T07:33:44.346Z</time></trkpt><trkpt lat="43.5375101" lon="10.7345394"><ele>121.99999999999999</ele><time>2026-04-18T07:33:45.347Z</time></trkpt><trkpt lat="43.5375642" lon="10.7344726"><ele>122.0</ele><time>2026-04-18T07:33:46.346Z</time></trkpt><trkpt lat="43.5376153" lon="10.7344046"><ele>121.99999999999999</ele><time>2026-04-18T07:33:47.346Z</time></trkpt><trkpt lat="43.5376634" lon="10.7343335"><ele>121.99999999999999</ele><time>2026-04-18T07:33:48.343Z</time></trkpt><trkpt lat="43.5377084" lon="10.7342551"><ele>122.0</ele><time>2026-04-18T07:33:49.344Z</time></trkpt><trkpt lat="43.5377458" lon="10.7341662"><ele>121.99999999999999</ele><time>2026-04-18T07:33:50.343Z</time></trkpt><trkpt lat="43.5377713" lon="10.7340582"><ele>121.99999999999999</ele><time>2026-04-18T07:33:51.346Z</time></trkpt><trkpt lat="43.5377893" lon="10.7339354"><ele>120.19999999999999</ele><time>2026-04-18T07:33:52.342Z</time></trkpt><trkpt lat="43.5378068" lon="10.7338038"><ele>118.39999999999999</ele><time>2026-04-18T07:33:53.342Z</time></trkpt><trkpt lat="43.5378178" lon="10.7336747"><ele>116.60000000000001</ele><time>2026-04-18T07:33:54.344Z</time></trkpt><trkpt lat="43.5378209" lon="10.7335525"><ele>114.80000000000001</ele><time>2026-04-18T07:33:55.344Z</time></trkpt><trkpt lat="43.5378176" lon="10.7334344"><ele>113.0</ele><time>2026-04-18T07:33:56.343Z</time></trkpt><trkpt lat="43.5378077" lon="10.7333139"><ele>111.66666666666666</ele><time>2026-04-18T07:33:57.343Z</time></trkpt><trkpt lat="43.5377953" lon="10.7331909"><ele>110.33333333333333</ele><time>2026-04-18T07:33:58.342Z</time></trkpt><trkpt lat="43.5377803" lon="10.7330721"><ele>109.0</ele><time>2026-04-18T07:33:59.343Z</time></trkpt><trkpt lat="43.5377639" lon="10.7329622"><ele>107.66666666666666</ele><time>2026-04-18T07:34:00.343Z</time></trkpt><trkpt lat="43.5377503" lon="10.7328551"><ele>106.33333333333333</ele><time>2026-04-18T07:34:01.346Z</time></trkpt><trkpt lat="43.5377429" lon="10.7327499"><ele>105.0</ele><time>2026-04-18T07:34:02.343Z</time></trkpt><trkpt lat="43.5377398" lon="10.7326435"><ele>104.0</ele><time>2026-04-18T07:34:03.343Z</time></trkpt><trkpt lat="43.5377414" lon="10.7325343"><ele>103.0</ele><time>2026-04-18T07:34:04.343Z</time></trkpt><trkpt lat="43.5377505" lon="10.7324194"><ele>102.0</ele><time>2026-04-18T07:34:05.344Z</time></trkpt><trkpt lat="43.5377673" lon="10.7323036"><ele>101.0</ele><time>2026-04-18T07:34:06.343Z</time></trkpt><trkpt lat="43.537791" lon="10.7322004"><ele>100.0</ele><time>2026-04-18T07:34:07.343Z</time></trkpt><trkpt lat="43.5378221" lon="10.7321004"><ele>99.0</ele><time>2026-04-18T07:34:08.343Z</time></trkpt><trkpt lat="43.5378615" lon="10.7319999"><ele>99.66666666666667</ele><time>2026-04-18T07:34:09.343Z</time></trkpt><trkpt lat="43.5379104" lon="10.7318965"><ele>100.33333333333334</ele><time>2026-04-18T07:34:10.344Z</time></trkpt><trkpt lat="43.5379643" lon="10.7317991"><ele>101.0</ele><time>2026-04-18T07:34:11.343Z</time></trkpt><trkpt lat="43.5380138" lon="10.7317174"><ele>101.66666666666667</ele><time>2026-04-18T07:34:12.346Z</time></trkpt><trkpt lat="43.5380689" lon="10.7316455"><ele>102.33333333333334</ele><time>2026-04-18T07:34:13.346Z</time></trkpt><trkpt lat="43.5381382" lon="10.7315823"><ele>103.0</ele><time>2026-04-18T07:34:14.346Z</time></trkpt><trkpt lat="43.5382229" lon="10.7315184"><ele>103.0</ele><time>2026-04-18T07:34:15.343Z</time></trkpt><trkpt lat="43.5383208" lon="10.7314478"><ele>103.0</ele><time>2026-04-18T07:34:16.343Z</time></trkpt><trkpt lat="43.5384265" lon="10.7313726"><ele>103.0</ele><time>2026-04-18T07:34:17.343Z</time></trkpt><trkpt lat="43.5385312" lon="10.7312969"><ele>103.0</ele><time>2026-04-18T07:34:18.343Z</time></trkpt><trkpt lat="43.5386302" lon="10.7312276"><ele>103.60000000000001</ele><time>2026-04-18T07:34:19.345Z</time></trkpt><trkpt lat="43.5387204" lon="10.73116"><ele>104.2</ele><time>2026-04-18T07:34:20.345Z</time></trkpt><trkpt lat="43.5388023" lon="10.7310931"><ele>104.8</ele><time>2026-04-18T07:34:21.344Z</time></trkpt><trkpt lat="43.5388773" lon="10.7310322"><ele>105.4</ele><time>2026-04-18T07:34:22.345Z</time></trkpt><trkpt lat="43.5389487" lon="10.7309721"><ele>106.0</ele><time>2026-04-18T07:34:23.343Z</time></trkpt><trkpt lat="43.5390184" lon="10.730908"><ele>103.19999999999999</ele><time>2026-04-18T07:34:24.344Z</time></trkpt><trkpt lat="43.5390825" lon="10.7308314"><ele>100.39999999999999</ele><time>2026-04-18T07:34:25.347Z</time></trkpt><trkpt lat="43.5391437" lon="10.7307439"><ele>97.6</ele><time>2026-04-18T07:34:26.348Z</time></trkpt><trkpt lat="43.5392034" lon="10.7306428"><ele>94.8</ele><time>2026-04-18T07:34:27.347Z</time></trkpt><trkpt lat="43.5392679" lon="10.7305268"><ele>92.0</ele><time>2026-04-18T07:34:28.346Z</time></trkpt><trkpt lat="43.5393348" lon="10.7304053"><ele>92.0</ele><time>2026-04-18T07:34:29.345Z</time></trkpt><trkpt lat="43.5393987" lon="10.7302939"><ele>92.0</ele><time>2026-04-18T07:34:30.344Z</time></trkpt><trkpt lat="43.5394583" lon="10.7301878"><ele>92.0</ele><time>2026-04-18T07:34:31.345Z</time></trkpt><trkpt lat="43.539517" lon="10.7300914"><ele>92.0</ele><time>2026-04-18T07:34:32.345Z</time></trkpt><trkpt lat="43.5395773" lon="10.7300076"><ele>92.0</ele><time>2026-04-18T07:34:33.346Z</time></trkpt><trkpt lat="43.5396451" lon="10.7299308"><ele>89.19999999999999</ele><time>2026-04-18T07:34:34.346Z</time></trkpt><trkpt lat="43.5397233" lon="10.7298614"><ele>86.39999999999999</ele><time>2026-04-18T07:34:35.345Z</time></trkpt><trkpt lat="43.539813" lon="10.7298008"><ele>83.6</ele><time>2026-04-18T07:34:36.343Z</time></trkpt><trkpt lat="43.5399122" lon="10.7297415"><ele>80.8</ele><time>2026-04-18T07:34:37.342Z</time></trkpt><trkpt lat="43.5400148" lon="10.7296813"><ele>78.0</ele><time>2026-04-18T07:34:38.343Z</time></trkpt><trkpt lat="43.5401136" lon="10.7296204"><ele>78.0</ele><time>2026-04-18T07:34:39.342Z</time></trkpt><trkpt lat="43.5402067" lon="10.7295633"><ele>78.0</ele><time>2026-04-18T07:34:40.343Z</time></trkpt><trkpt lat="43.5402859" lon="10.7295127"><ele>78.0</ele><time>2026-04-18T07:34:41.343Z</time></trkpt><trkpt lat="43.5403587" lon="10.7294783"><ele>78.0</ele><time>2026-04-18T07:34:42.342Z</time></trkpt><trkpt lat="43.5404285" lon="10.7294613"><ele>78.0</ele><time>2026-04-18T07:34:43.343Z</time></trkpt><trkpt lat="43.5404987" lon="10.7294532"><ele>78.0</ele><time>2026-04-18T07:34:44.343Z</time></trkpt><trkpt lat="43.540563" lon="10.7294486"><ele>78.0</ele><time>2026-04-18T07:34:45.344Z</time></trkpt><trkpt lat="43.5406643" lon="10.7294249"><ele>78.0</ele><time>2026-04-18T07:34:47.347Z</time></trkpt><trkpt lat="43.5407564" lon="10.7293703"><ele>78.0</ele><time>2026-04-18T07:34:49.345Z</time></trkpt><trkpt lat="43.5408384" lon="10.7292625"><ele>78.0</ele><time>2026-04-18T07:34:51.345Z</time></trkpt><trkpt lat="43.5408771" lon="10.7291862"><ele>78.0</ele><time>2026-04-18T07:34:52.345Z</time></trkpt><trkpt lat="43.5409135" lon="10.7290985"><ele>76.33333333333333</ele><time>2026-04-18T07:34:53.345Z</time></trkpt><trkpt lat="43.5409424" lon="10.7290062"><ele>74.66666666666667</ele><time>2026-04-18T07:34:54.344Z</time></trkpt><trkpt lat="43.54097" lon="10.7289077"><ele>73.0</ele><time>2026-04-18T07:34:55.345Z</time></trkpt><trkpt lat="43.540998" lon="10.7288055"><ele>71.33333333333334</ele><time>2026-04-18T07:34:56.343Z</time></trkpt><trkpt lat="43.5410277" lon="10.7287001"><ele>69.66666666666667</ele><time>2026-04-18T07:34:57.344Z</time></trkpt><trkpt lat="43.5410628" lon="10.7285936"><ele>68.0</ele><time>2026-04-18T07:34:58.342Z</time></trkpt><trkpt lat="43.5410954" lon="10.7284837"><ele>66.83333333333334</ele><time>2026-04-18T07:34:59.342Z</time></trkpt><trkpt lat="43.5411255" lon="10.7283732"><ele>65.66666666666667</ele><time>2026-04-18T07:35:00.342Z</time></trkpt><trkpt lat="43.541158" lon="10.7282676"><ele>64.5</ele><time>2026-04-18T07:35:01.344Z</time></trkpt><trkpt lat="43.5411889" lon="10.7281702"><ele>63.33333333333333</ele><time>2026-04-18T07:35:02.342Z</time></trkpt><trkpt lat="43.5412202" lon="10.7280771"><ele>62.166666666666664</ele><time>2026-04-18T07:35:03.348Z</time></trkpt><trkpt lat="43.5412517" lon="10.7279906"><ele>61.0</ele><time>2026-04-18T07:35:04.343Z</time></trkpt><trkpt lat="43.541285" lon="10.7279062"><ele>60.599999999999994</ele><time>2026-04-18T07:35:05.342Z</time></trkpt><trkpt lat="43.5413166" lon="10.7278013"><ele>60.199999999999996</ele><time>2026-04-18T07:35:06.344Z</time></trkpt><trkpt lat="43.5413407" lon="10.7276766"><ele>59.800000000000004</ele><time>2026-04-18T07:35:07.342Z</time></trkpt><trkpt lat="43.541362" lon="10.7275361"><ele>59.400000000000006</ele><time>2026-04-18T07:35:08.343Z</time></trkpt><trkpt lat="43.5413821" lon="10.7274002"><ele>59.0</ele><time>2026-04-18T07:35:09.342Z</time></trkpt><trkpt lat="43.5414046" lon="10.7272756"><ele>59.0</ele><time>2026-04-18T07:35:10.342Z</time></trkpt><trkpt lat="43.5414359" lon="10.7271728"><ele>59.00000000000001</ele><time>2026-04-18T07:35:11.342Z</time></trkpt><trkpt lat="43.5414872" lon="10.7270752"><ele>59.00000000000001</ele><time>2026-04-18T07:35:12.342Z</time></trkpt><trkpt lat="43.5415527" lon="10.7269772"><ele>59.0</ele><time>2026-04-18T07:35:13.346Z</time></trkpt><trkpt lat="43.5416298" lon="10.7268721"><ele>59.0</ele><time>2026-04-18T07:35:14.344Z</time></trkpt><trkpt lat="43.5417061" lon="10.7267586"><ele>59.0</ele><time>2026-04-18T07:35:15.346Z</time></trkpt><trkpt lat="43.5417814" lon="10.726648"><ele>59.00000000000001</ele><time>2026-04-18T07:35:16.341Z</time></trkpt><trkpt lat="43.5418551" lon="10.7265348"><ele>59.00000000000001</ele><time>2026-04-18T07:35:17.344Z</time></trkpt><trkpt lat="43.5419323" lon="10.7264273"><ele>59.0</ele><time>2026-04-18T07:35:18.342Z</time></trkpt><trkpt lat="43.5420125" lon="10.7263178"><ele>59.0</ele><time>2026-04-18T07:35:19.342Z</time></trkpt><trkpt lat="43.5420865" lon="10.7262109"><ele>59.00000000000001</ele><time>2026-04-18T07:35:20.348Z</time></trkpt><trkpt lat="43.5421545" lon="10.7261118"><ele>59.0</ele><time>2026-04-18T07:35:21.343Z</time></trkpt><trkpt lat="43.5422196" lon="10.7260211"><ele>59.0</ele><time>2026-04-18T07:35:22.342Z</time></trkpt><trkpt lat="43.5422785" lon="10.7259331"><ele>59.0</ele><time>2026-04-18T07:35:23.342Z</time></trkpt><trkpt lat="43.5423305" lon="10.7258523"><ele>59.00000000000001</ele><time>2026-04-18T07:35:24.344Z</time></trkpt><trkpt lat="43.5423771" lon="10.7257866"><ele>59.0</ele><time>2026-04-18T07:35:25.342Z</time></trkpt><trkpt lat="43.5424522" lon="10.7256909"><ele>60.400000000000006</ele><time>2026-04-18T07:35:27.346Z</time></trkpt><trkpt lat="43.5425295" lon="10.7256384"><ele>61.800000000000004</ele><time>2026-04-18T07:35:29.345Z</time></trkpt><trkpt lat="43.542625" lon="10.72561"><ele>63.199999999999996</ele><time>2026-04-18T07:35:31.342Z</time></trkpt><trkpt lat="43.5427249" lon="10.725602"><ele>64.6</ele><time>2026-04-18T07:35:33.344Z</time></trkpt><trkpt lat="43.5428111" lon="10.7255536"><ele>66.0</ele><time>2026-04-18T07:35:35.342Z</time></trkpt><trkpt lat="43.5428873" lon="10.7254502"><ele>69.0</ele><time>2026-04-18T07:35:37.343Z</time></trkpt><trkpt lat="43.542936" lon="10.7253134"><ele>72.0</ele><time>2026-04-18T07:35:39.346Z</time></trkpt><trkpt lat="43.5429529" lon="10.7251694"><ele>75.0</ele><time>2026-04-18T07:35:41.342Z</time></trkpt><trkpt lat="43.5429703" lon="10.7250186"><ele>78.0</ele><time>2026-04-18T07:35:43.345Z</time></trkpt><trkpt lat="43.5429882" lon="10.7248731"><ele>81.0</ele><time>2026-04-18T07:35:45.345Z</time></trkpt><trkpt lat="43.5430067" lon="10.7247545"><ele>83.8</ele><time>2026-04-18T07:35:47.345Z</time></trkpt><trkpt lat="43.5430346" lon="10.7246382"><ele>86.6</ele><time>2026-04-18T07:35:49.345Z</time></trkpt><trkpt lat="43.5430866" lon="10.7245389"><ele>89.4</ele><time>2026-04-18T07:35:51.345Z</time></trkpt><trkpt lat="43.543158" lon="10.7244791"><ele>92.2</ele><time>2026-04-18T07:35:53.342Z</time></trkpt><trkpt lat="43.5432469" lon="10.7244326"><ele>95.0</ele><time>2026-04-18T07:35:55.347Z</time></trkpt><trkpt lat="43.5433402" lon="10.7243798"><ele>95.6</ele><time>2026-04-18T07:35:57.348Z</time></trkpt><trkpt lat="43.5434224" lon="10.7243151"><ele>96.2</ele><time>2026-04-18T07:35:59.342Z</time></trkpt><trkpt lat="43.5434709" lon="10.7242373"><ele>96.80000000000001</ele><time>2026-04-18T07:36:01.343Z</time></trkpt><trkpt lat="43.5435051" lon="10.7241191"><ele>97.4</ele><time>2026-04-18T07:36:03.344Z</time></trkpt><trkpt lat="43.5435457" lon="10.7239831"><ele>98.0</ele><time>2026-04-18T07:36:05.343Z</time></trkpt><trkpt lat="43.5436039" lon="10.72386"><ele>97.99999999999999</ele><time>2026-04-18T07:36:07.343Z</time></trkpt><trkpt lat="43.5436809" lon="10.723739"><ele>98.0</ele><time>2026-04-18T07:36:09.343Z</time></trkpt><trkpt lat="43.5437332" lon="10.7236897"><ele>98.0</ele><time>2026-04-18T07:36:10.342Z</time></trkpt><trkpt lat="43.5438325" lon="10.7235825"><ele>98.0</ele><time>2026-04-18T07:36:12.342Z</time></trkpt><trkpt lat="43.5438833" lon="10.7235157"><ele>97.99999999999999</ele><time>2026-04-18T07:36:13.342Z</time></trkpt><trkpt lat="43.5439303" lon="10.7234447"><ele>98.0</ele><time>2026-04-18T07:36:14.343Z</time></trkpt><trkpt lat="43.5439663" lon="10.7233668"><ele>101.16666666666666</ele><time>2026-04-18T07:36:15.346Z</time></trkpt><trkpt lat="43.5439948" lon="10.7232853"><ele>104.33333333333333</ele><time>2026-04-18T07:36:16.343Z</time></trkpt><trkpt lat="43.5440222" lon="10.7232034"><ele>107.5</ele><time>2026-04-18T07:36:17.343Z</time></trkpt><trkpt lat="43.5440434" lon="10.7231193"><ele>110.66666666666666</ele><time>2026-04-18T07:36:18.343Z</time></trkpt><trkpt lat="43.544066" lon="10.7230206"><ele>113.83333333333333</ele><time>2026-04-18T07:36:19.342Z</time></trkpt><trkpt lat="43.5440957" lon="10.7229062"><ele>117.0</ele><time>2026-04-18T07:36:20.342Z</time></trkpt><trkpt lat="43.5441316" lon="10.7227837"><ele>118.25</ele><time>2026-04-18T07:36:21.343Z</time></trkpt><trkpt lat="43.5441785" lon="10.7226513"><ele>119.5</ele><time>2026-04-18T07:36:22.346Z</time></trkpt><trkpt lat="43.5442381" lon="10.7225046"><ele>120.75</ele><time>2026-04-18T07:36:23.343Z</time></trkpt><trkpt lat="43.544302" lon="10.7223639"><ele>122.0</ele><time>2026-04-18T07:36:24.343Z</time></trkpt><trkpt lat="43.5443617" lon="10.7222337"><ele>121.99999999999999</ele><time>2026-04-18T07:36:25.343Z</time></trkpt><trkpt lat="43.544415" lon="10.7221245"><ele>122.0</ele><time>2026-04-18T07:36:26.343Z</time></trkpt><trkpt lat="43.5444667" lon="10.7220364"><ele>122.0</ele><time>2026-04-18T07:36:27.342Z</time></trkpt><trkpt lat="43.5445164" lon="10.7219605"><ele>122.0</ele><time>2026-04-18T07:36:28.343Z</time></trkpt><trkpt lat="43.5445724" lon="10.7218896"><ele>121.99999999999999</ele><time>2026-04-18T07:36:29.342Z</time></trkpt><trkpt lat="43.5446342" lon="10.7218161"><ele>122.0</ele><time>2026-04-18T07:36:30.342Z</time></trkpt><trkpt lat="43.5447041" lon="10.7217435"><ele>121.66666666666666</ele><time>2026-04-18T07:36:31.345Z</time></trkpt><trkpt lat="43.5447786" lon="10.7216805"><ele>121.33333333333333</ele><time>2026-04-18T07:36:32.345Z</time></trkpt><trkpt lat="43.5448586" lon="10.7216306"><ele>121.0</ele><time>2026-04-18T07:36:33.342Z</time></trkpt><trkpt lat="43.5449377" lon="10.7215887"><ele>120.66666666666666</ele><time>2026-04-18T07:36:34.345Z</time></trkpt><trkpt lat="43.5450163" lon="10.7215571"><ele>120.33333333333333</ele><time>2026-04-18T07:36:35.343Z</time></trkpt><trkpt lat="43.5450961" lon="10.7215264"><ele>120.0</ele><time>2026-04-18T07:36:36.342Z</time></trkpt><trkpt lat="43.5451804" lon="10.7214917"><ele>120.0</ele><time>2026-04-18T07:36:37.342Z</time></trkpt><trkpt lat="43.5452612" lon="10.7214455"><ele>120.0</ele><time>2026-04-18T07:36:38.342Z</time></trkpt><trkpt lat="43.5453431" lon="10.7213951"><ele>120.0</ele><time>2026-04-18T07:36:39.342Z</time></trkpt><trkpt lat="43.5454234" lon="10.7213496"><ele>120.0</ele><time>2026-04-18T07:36:40.343Z</time></trkpt><trkpt lat="43.5454982" lon="10.7213063"><ele>120.0</ele><time>2026-04-18T07:36:41.341Z</time></trkpt><trkpt lat="43.5455672" lon="10.72127"><ele>120.0</ele><time>2026-04-18T07:36:42.343Z</time></trkpt><trkpt lat="43.5456261" lon="10.7212365"><ele>119.5</ele><time>2026-04-18T07:36:43.342Z</time></trkpt><trkpt lat="43.5457196" lon="10.7211929"><ele>119.0</ele><time>2026-04-18T07:36:45.342Z</time></trkpt><trkpt lat="43.5457663" lon="10.7210989"><ele>118.5</ele><time>2026-04-18T07:36:48.345Z</time></trkpt><trkpt lat="43.5457205" lon="10.7210084"><ele>118.0</ele><time>2026-04-18T07:36:50.343Z</time></trkpt><trkpt lat="43.5456667" lon="10.7209538"><ele>117.5</ele><time>2026-04-18T07:36:51.342Z</time></trkpt><trkpt lat="43.5455862" lon="10.7208868"><ele>117.0</ele><time>2026-04-18T07:36:52.344Z</time></trkpt><trkpt lat="43.5454939" lon="10.7208219"><ele>117.8</ele><time>2026-04-18T07:36:53.343Z</time></trkpt><trkpt lat="43.5453912" lon="10.7207717"><ele>118.6</ele><time>2026-04-18T07:36:54.343Z</time></trkpt><trkpt lat="43.5452922" lon="10.7207375"><ele>119.39999999999999</ele><time>2026-04-18T07:36:55.343Z</time></trkpt><trkpt lat="43.5451885" lon="10.7207001"><ele>120.19999999999999</ele><time>2026-04-18T07:36:56.344Z</time></trkpt><trkpt lat="43.5451101" lon="10.7206555"><ele>121.0</ele><time>2026-04-18T07:36:57.343Z</time></trkpt><trkpt lat="43.5450469" lon="10.7205988"><ele>121.0</ele><time>2026-04-18T07:36:58.343Z</time></trkpt><trkpt lat="43.5449959" lon="10.7204528"><ele>121.0</ele><time>2026-04-18T07:37:00.343Z</time></trkpt><trkpt lat="43.5450073" lon="10.720353"><ele>121.0</ele><time>2026-04-18T07:37:01.344Z</time></trkpt><trkpt lat="43.5450433" lon="10.7202425"><ele>121.0</ele><time>2026-04-18T07:37:02.343Z</time></trkpt><trkpt lat="43.5451004" lon="10.7201383"><ele>121.0</ele><time>2026-04-18T07:37:03.345Z</time></trkpt><trkpt lat="43.5451908" lon="10.72004"><ele>120.6</ele><time>2026-04-18T07:37:04.346Z</time></trkpt><trkpt lat="43.5452855" lon="10.7199404"><ele>120.19999999999999</ele><time>2026-04-18T07:37:05.342Z</time></trkpt><trkpt lat="43.5453773" lon="10.7198473"><ele>119.80000000000001</ele><time>2026-04-18T07:37:06.345Z</time></trkpt><trkpt lat="43.5454723" lon="10.7197723"><ele>119.4</ele><time>2026-04-18T07:37:07.343Z</time></trkpt><trkpt lat="43.5455709" lon="10.7197159"><ele>119.0</ele><time>2026-04-18T07:37:08.343Z</time></trkpt><trkpt lat="43.5456652" lon="10.7196749"><ele>118.99999999999999</ele><time>2026-04-18T07:37:09.345Z</time></trkpt><trkpt lat="43.5457564" lon="10.7196377"><ele>119.0</ele><time>2026-04-18T07:37:10.344Z</time></trkpt><trkpt lat="43.5458431" lon="10.7196041"><ele>119.0</ele><time>2026-04-18T07:37:11.343Z</time></trkpt><trkpt lat="43.5459265" lon="10.7195741"><ele>119.0</ele><time>2026-04-18T07:37:12.344Z</time></trkpt><trkpt lat="43.5460092" lon="10.7195402"><ele>118.99999999999999</ele><time>2026-04-18T07:37:13.344Z</time></trkpt><trkpt lat="43.5460956" lon="10.7195003"><ele>119.0</ele><time>2026-04-18T07:37:14.343Z</time></trkpt><trkpt lat="43.5461844" lon="10.7194593"><ele>119.66666666666666</ele><time>2026-04-18T07:37:15.347Z</time></trkpt><trkpt lat="43.54627" lon="10.7194254"><ele>120.33333333333333</ele><time>2026-04-18T07:37:16.343Z</time></trkpt><trkpt lat="43.5463501" lon="10.7193959"><ele>121.0</ele><time>2026-04-18T07:37:17.343Z</time></trkpt><trkpt lat="43.5464221" lon="10.7193709"><ele>121.66666666666666</ele><time>2026-04-18T07:37:18.343Z</time></trkpt><trkpt lat="43.5464856" lon="10.7193556"><ele>122.33333333333333</ele><time>2026-04-18T07:37:19.343Z</time></trkpt><trkpt lat="43.5466008" lon="10.7193494"><ele>123.0</ele><time>2026-04-18T07:37:21.343Z</time></trkpt><trkpt lat="43.5466663" lon="10.7193556"><ele>120.4</ele><time>2026-04-18T07:37:22.342Z</time></trkpt><trkpt lat="43.5467455" lon="10.7193626"><ele>117.80000000000001</ele><time>2026-04-18T07:37:23.343Z</time></trkpt><trkpt lat="43.5468355" lon="10.719368"><ele>115.2</ele><time>2026-04-18T07:37:24.343Z</time></trkpt><trkpt lat="43.5469309" lon="10.7193711"><ele>112.6</ele><time>2026-04-18T07:37:25.344Z</time></trkpt><trkpt lat="43.5470369" lon="10.719374"><ele>110.0</ele><time>2026-04-18T07:37:26.342Z</time></trkpt><trkpt lat="43.5471459" lon="10.7193726"><ele>109.5</ele><time>2026-04-18T07:37:27.348Z</time></trkpt><trkpt lat="43.5472603" lon="10.7193696"><ele>109.0</ele><time>2026-04-18T07:37:28.342Z</time></trkpt><trkpt lat="43.5473788" lon="10.7193621"><ele>108.5</ele><time>2026-04-18T07:37:29.344Z</time></trkpt><trkpt lat="43.5474946" lon="10.7193591"><ele>108.0</ele><time>2026-04-18T07:37:30.344Z</time></trkpt><trkpt lat="43.5476158" lon="10.7193571"><ele>108.0</ele><time>2026-04-18T07:37:31.347Z</time></trkpt><trkpt lat="43.5477382" lon="10.7193502"><ele>108.0</ele><time>2026-04-18T07:37:32.345Z</time></trkpt><trkpt lat="43.5478632" lon="10.719336"><ele>108.0</ele><time>2026-04-18T07:37:33.344Z</time></trkpt><trkpt lat="43.547993" lon="10.7193281"><ele>108.0</ele><time>2026-04-18T07:37:34.344Z</time></trkpt><trkpt lat="43.5481276" lon="10.719325"><ele>109.5</ele><time>2026-04-18T07:37:35.343Z</time></trkpt><trkpt lat="43.5482686" lon="10.7193235"><ele>111.0</ele><time>2026-04-18T07:37:36.347Z</time></trkpt><trkpt lat="43.5484168" lon="10.7193228"><ele>112.5</ele><time>2026-04-18T07:37:37.345Z</time></trkpt><trkpt lat="43.5485673" lon="10.7193256"><ele>114.0</ele><time>2026-04-18T07:37:38.344Z</time></trkpt><trkpt lat="43.5487128" lon="10.7193316"><ele>114.5</ele><time>2026-04-18T07:37:39.343Z</time></trkpt><trkpt lat="43.5488499" lon="10.7193515"><ele>115.0</ele><time>2026-04-18T07:37:40.343Z</time></trkpt><trkpt lat="43.5489805" lon="10.7193895"><ele>115.5</ele><time>2026-04-18T07:37:41.343Z</time></trkpt><trkpt lat="43.5491026" lon="10.7194399"><ele>116.0</ele><time>2026-04-18T07:37:42.343Z</time></trkpt><trkpt lat="43.5492071" lon="10.7194945"><ele>117.16666666666666</ele><time>2026-04-18T07:37:43.345Z</time></trkpt><trkpt lat="43.5492882" lon="10.7195677"><ele>118.33333333333333</ele><time>2026-04-18T07:37:44.345Z</time></trkpt><trkpt lat="43.5493551" lon="10.7196519"><ele>119.5</ele><time>2026-04-18T07:37:45.342Z</time></trkpt><trkpt lat="43.5494116" lon="10.719743"><ele>120.66666666666666</ele><time>2026-04-18T07:37:46.346Z</time></trkpt><trkpt lat="43.5494614" lon="10.7198274"><ele>121.83333333333333</ele><time>2026-04-18T07:37:47.345Z</time></trkpt><trkpt lat="43.5495076" lon="10.7199082"><ele>123.0</ele><time>2026-04-18T07:37:48.345Z</time></trkpt><trkpt lat="43.5495552" lon="10.7199925"><ele>123.0</ele><time>2026-04-18T07:37:49.346Z</time></trkpt><trkpt lat="43.5496066" lon="10.7200869"><ele>123.00000000000001</ele><time>2026-04-18T07:37:50.345Z</time></trkpt><trkpt lat="43.5496508" lon="10.7201922"><ele>123.00000000000001</ele><time>2026-04-18T07:37:51.343Z</time></trkpt><trkpt lat="43.5496852" lon="10.7203098"><ele>123.0</ele><time>2026-04-18T07:37:52.342Z</time></trkpt><trkpt lat="43.549704" lon="10.7204355"><ele>123.0</ele><time>2026-04-18T07:37:53.343Z</time></trkpt><trkpt lat="43.5497043" lon="10.7205675"><ele>124.0</ele><time>2026-04-18T07:37:54.344Z</time></trkpt><trkpt lat="43.5496967" lon="10.7207057"><ele>125.00000000000001</ele><time>2026-04-18T07:37:55.345Z</time></trkpt><trkpt lat="43.5496832" lon="10.7208476"><ele>126.00000000000001</ele><time>2026-04-18T07:37:56.343Z</time></trkpt><trkpt lat="43.549678" lon="10.7209958"><ele>127.0</ele><time>2026-04-18T07:37:57.345Z</time></trkpt><trkpt lat="43.5496723" lon="10.7211327"><ele>128.0</ele><time>2026-04-18T07:37:58.344Z</time></trkpt><trkpt lat="43.5496626" lon="10.7212505"><ele>128.85714285714286</ele><time>2026-04-18T07:37:59.343Z</time></trkpt><trkpt lat="43.5496414" lon="10.7213482"><ele>129.7142857142857</ele><time>2026-04-18T07:38:00.344Z</time></trkpt><trkpt lat="43.5495911" lon="10.7214746"><ele>130.57142857142856</ele><time>2026-04-18T07:38:02.345Z</time></trkpt><trkpt lat="43.5495737" lon="10.7215595"><ele>131.42857142857142</ele><time>2026-04-18T07:38:04.343Z</time></trkpt><trkpt lat="43.5495948" lon="10.7216463"><ele>132.28571428571428</ele><time>2026-04-18T07:48:37.343Z</time></trkpt><trkpt lat="43.5496189" lon="10.7217326"><ele>133.14285714285714</ele><time>2026-04-18T07:48:38.343Z</time></trkpt><trkpt lat="43.5496463" lon="10.7218239"><ele>134.0</ele><time>2026-04-18T07:48:39.348Z</time></trkpt><trkpt lat="43.5496791" lon="10.7219213"><ele>134.4</ele><time>2026-04-18T07:48:40.343Z</time></trkpt><trkpt lat="43.5497205" lon="10.7220299"><ele>134.8</ele><time>2026-04-18T07:48:41.343Z</time></trkpt><trkpt lat="43.5497599" lon="10.72215"><ele>135.2</ele><time>2026-04-18T07:48:42.343Z</time></trkpt><trkpt lat="43.5497915" lon="10.7222724"><ele>135.6</ele><time>2026-04-18T07:48:43.345Z</time></trkpt><trkpt lat="43.5498185" lon="10.7223958"><ele>136.0</ele><time>2026-04-18T07:48:44.344Z</time></trkpt><trkpt lat="43.5498293" lon="10.7225224"><ele>136.0</ele><time>2026-04-18T07:48:45.343Z</time></trkpt><trkpt lat="43.5498341" lon="10.7226475"><ele>136.0</ele><time>2026-04-18T07:48:46.341Z</time></trkpt><trkpt lat="43.5498317" lon="10.7227667"><ele>136.0</ele><time>2026-04-18T07:48:47.344Z</time></trkpt><trkpt lat="43.5498369" lon="10.7228834"><ele>136.0</ele><time>2026-04-18T07:48:48.343Z</time></trkpt><trkpt lat="43.5498604" lon="10.7230064"><ele>136.0</ele><time>2026-04-18T07:48:49.343Z</time></trkpt><trkpt lat="43.549903" lon="10.7231355"><ele>135.4</ele><time>2026-04-18T07:48:50.342Z</time></trkpt><trkpt lat="43.549946" lon="10.7232691"><ele>134.8</ele><time>2026-04-18T07:48:51.343Z</time></trkpt><trkpt lat="43.549982" lon="10.7234069"><ele>134.20000000000002</ele><time>2026-04-18T07:48:52.343Z</time></trkpt><trkpt lat="43.5500071" lon="10.7235523"><ele>133.6</ele><time>2026-04-18T07:48:53.342Z</time></trkpt><trkpt lat="43.5500344" lon="10.723695"><ele>133.0</ele><time>2026-04-18T07:48:54.342Z</time></trkpt><trkpt lat="43.5500701" lon="10.7238331"><ele>131.6</ele><time>2026-04-18T07:48:55.344Z</time></trkpt><trkpt lat="43.550131" lon="10.7239655"><ele>130.20000000000002</ele><time>2026-04-18T07:48:56.343Z</time></trkpt><trkpt lat="43.5501983" lon="10.7240806"><ele>128.8</ele><time>2026-04-18T07:48:57.343Z</time></trkpt><trkpt lat="43.5502715" lon="10.7241776"><ele>127.4</ele><time>2026-04-18T07:48:58.342Z</time></trkpt><trkpt lat="43.5503588" lon="10.7242406"><ele>126.0</ele><time>2026-04-18T07:48:59.343Z</time></trkpt><trkpt lat="43.5504602" lon="10.7242771"><ele>126.0</ele><time>2026-04-18T07:49:00.342Z</time></trkpt><trkpt lat="43.550577" lon="10.7242959"><ele>126.0</ele><time>2026-04-18T07:49:01.342Z</time></trkpt><trkpt lat="43.5507042" lon="10.724306"><ele>126.0</ele><time>2026-04-18T07:49:02.344Z</time></trkpt><trkpt lat="43.5508498" lon="10.7243254"><ele>126.0</ele><time>2026-04-18T07:49:03.344Z</time></trkpt><trkpt lat="43.5510014" lon="10.7243552"><ele>118.33333333333334</ele><time>2026-04-18T07:49:04.343Z</time></trkpt><trkpt lat="43.5511554" lon="10.7244006"><ele>110.66666666666667</ele><time>2026-04-18T07:49:05.343Z</time></trkpt><trkpt lat="43.5513163" lon="10.7244567"><ele>103.0</ele><time>2026-04-18T07:49:06.343Z</time></trkpt><trkpt lat="43.5514665" lon="10.7245125"><ele>102.5</ele><time>2026-04-18T07:49:07.343Z</time></trkpt><trkpt lat="43.5516045" lon="10.7245671"><ele>102.0</ele><time>2026-04-18T07:49:08.342Z</time></trkpt><trkpt lat="43.551734" lon="10.7246062"><ele>101.5</ele><time>2026-04-18T07:49:09.343Z</time></trkpt><trkpt lat="43.5518621" lon="10.724627"><ele>101.0</ele><time>2026-04-18T07:49:10.343Z</time></trkpt><trkpt lat="43.5520026" lon="10.7246269"><ele>99.5</ele><time>2026-04-18T07:49:11.342Z</time></trkpt><trkpt lat="43.5521477" lon="10.724613"><ele>98.0</ele><time>2026-04-18T07:49:12.342Z</time></trkpt><trkpt lat="43.5522946" lon="10.7245909"><ele>96.5</ele><time>2026-04-18T07:49:13.342Z</time></trkpt><trkpt lat="43.5524455" lon="10.7245728"><ele>95.0</ele><time>2026-04-18T07:49:14.343Z</time></trkpt><trkpt lat="43.5526018" lon="10.724584"><ele>95.0</ele><time>2026-04-18T07:49:15.345Z</time></trkpt><trkpt lat="43.5527685" lon="10.7246155"><ele>95.0</ele><time>2026-04-18T07:49:16.346Z</time></trkpt><trkpt lat="43.552942" lon="10.7246503"><ele>95.0</ele><time>2026-04-18T07:49:17.343Z</time></trkpt><trkpt lat="43.5531219" lon="10.724684"><ele>92.0</ele><time>2026-04-18T07:49:18.343Z</time></trkpt><trkpt lat="43.5533011" lon="10.724726"><ele>89.0</ele><time>2026-04-18T07:49:19.344Z</time></trkpt><trkpt lat="43.5534795" lon="10.7247656"><ele>86.0</ele><time>2026-04-18T07:49:20.343Z</time></trkpt><trkpt lat="43.5536538" lon="10.7247999"><ele>84.33333333333334</ele><time>2026-04-18T07:49:21.343Z</time></trkpt><trkpt lat="43.5538269" lon="10.7248314"><ele>82.66666666666667</ele><time>2026-04-18T07:49:22.342Z</time></trkpt><trkpt lat="43.5539978" lon="10.724869"><ele>81.0</ele><time>2026-04-18T07:49:23.343Z</time></trkpt><trkpt lat="43.5541668" lon="10.7248946"><ele>81.0</ele><time>2026-04-18T07:49:24.343Z</time></trkpt><trkpt lat="43.5543391" lon="10.7249045"><ele>81.0</ele><time>2026-04-18T07:49:25.343Z</time></trkpt><trkpt lat="43.5545143" lon="10.7249049"><ele>81.0</ele><time>2026-04-18T07:49:26.343Z</time></trkpt><trkpt lat="43.5546928" lon="10.7248987"><ele>78.0</ele><time>2026-04-18T07:49:27.345Z</time></trkpt><trkpt lat="43.5548748" lon="10.7248914"><ele>75.0</ele><time>2026-04-18T07:49:28.349Z</time></trkpt><trkpt lat="43.5550585" lon="10.7248867"><ele>72.0</ele><time>2026-04-18T07:49:29.347Z</time></trkpt><trkpt lat="43.5552371" lon="10.724886"><ele>70.33333333333333</ele><time>2026-04-18T07:49:30.344Z</time></trkpt><trkpt lat="43.5554091" lon="10.7248866"><ele>68.66666666666666</ele><time>2026-04-18T07:49:31.344Z</time></trkpt><trkpt lat="43.5555822" lon="10.7248888"><ele>67.0</ele><time>2026-04-18T07:49:32.343Z</time></trkpt><trkpt lat="43.5557538" lon="10.7248989"><ele>67.0</ele><time>2026-04-18T07:49:33.345Z</time></trkpt><trkpt lat="43.5559216" lon="10.7249186"><ele>67.0</ele><time>2026-04-18T07:49:34.342Z</time></trkpt><trkpt lat="43.5560901" lon="10.7249546"><ele>67.0</ele><time>2026-04-18T07:49:35.343Z</time></trkpt><trkpt lat="43.5562578" lon="10.7250131"><ele>66.33333333333333</ele><time>2026-04-18T07:49:36.343Z</time></trkpt><trkpt lat="43.5564197" lon="10.7250718"><ele>65.66666666666667</ele><time>2026-04-18T07:49:37.343Z</time></trkpt><trkpt lat="43.556583" lon="10.725131"><ele>65.0</ele><time>2026-04-18T07:49:38.343Z</time></trkpt><trkpt lat="43.5567424" lon="10.7251923"><ele>60.66666666666667</ele><time>2026-04-18T07:49:39.342Z</time></trkpt><trkpt lat="43.5568962" lon="10.7252496"><ele>56.33333333333333</ele><time>2026-04-18T07:49:40.343Z</time></trkpt><trkpt lat="43.5570437" lon="10.725314"><ele>52.0</ele><time>2026-04-18T07:49:41.343Z</time></trkpt><trkpt lat="43.5571829" lon="10.7253898"><ele>51.5</ele><time>2026-04-18T07:49:42.342Z</time></trkpt><trkpt lat="43.5573089" lon="10.7254891"><ele>51.0</ele><time>2026-04-18T07:49:43.342Z</time></trkpt><trkpt lat="43.5574211" lon="10.7256147"><ele>50.5</ele><time>2026-04-18T07:49:44.347Z</time></trkpt><trkpt lat="43.557529" lon="10.7257694"><ele>50.0</ele><time>2026-04-18T07:49:45.345Z</time></trkpt><trkpt lat="43.5576389" lon="10.7259442"><ele>49.333333333333336</ele><time>2026-04-18T07:49:46.346Z</time></trkpt><trkpt lat="43.5577518" lon="10.7261337"><ele>48.66666666666667</ele><time>2026-04-18T07:49:47.345Z</time></trkpt><trkpt lat="43.557868" lon="10.7263216"><ele>48.0</ele><time>2026-04-18T07:49:48.342Z</time></trkpt><trkpt lat="43.5579847" lon="10.7265076"><ele>47.666666666666664</ele><time>2026-04-18T07:49:49.345Z</time></trkpt><trkpt lat="43.5581018" lon="10.7267006"><ele>47.33333333333333</ele><time>2026-04-18T07:49:50.342Z</time></trkpt><trkpt lat="43.5582232" lon="10.7268961"><ele>47.0</ele><time>2026-04-18T07:49:51.342Z</time></trkpt><trkpt lat="43.5583482" lon="10.7271004"><ele>47.0</ele><time>2026-04-18T07:49:52.344Z</time></trkpt><trkpt lat="43.558477" lon="10.72731"><ele>47.0</ele><time>2026-04-18T07:49:53.347Z</time></trkpt><trkpt lat="43.5586073" lon="10.7275191"><ele>47.0</ele><time>2026-04-18T07:49:54.345Z</time></trkpt><trkpt lat="43.5587388" lon="10.7277306"><ele>47.0</ele><time>2026-04-18T07:49:55.342Z</time></trkpt><trkpt lat="43.5588693" lon="10.7279398"><ele>47.0</ele><time>2026-04-18T07:49:56.345Z</time></trkpt><trkpt lat="43.5589927" lon="10.7281421"><ele>47.0</ele><time>2026-04-18T07:49:57.345Z</time></trkpt><trkpt lat="43.5591111" lon="10.7283347"><ele>47.0</ele><time>2026-04-18T07:49:58.346Z</time></trkpt><trkpt lat="43.5592221" lon="10.7285215"><ele>47.0</ele><time>2026-04-18T07:49:59.344Z</time></trkpt><trkpt lat="43.559337" lon="10.7287086"><ele>47.0</ele><time>2026-04-18T07:50:00.343Z</time></trkpt><trkpt lat="43.5594489" lon="10.7288929"><ele>46.33333333333333</ele><time>2026-04-18T07:50:01.346Z</time></trkpt><trkpt lat="43.5595597" lon="10.7290784"><ele>45.666666666666664</ele><time>2026-04-18T07:50:02.347Z</time></trkpt><trkpt lat="43.5596726" lon="10.7292639"><ele>45.0</ele><time>2026-04-18T07:50:03.346Z</time></trkpt><trkpt lat="43.5597876" lon="10.72945"><ele>45.0</ele><time>2026-04-18T07:50:04.345Z</time></trkpt><trkpt lat="43.5599066" lon="10.7296345"><ele>45.0</ele><time>2026-04-18T07:50:05.342Z</time></trkpt><trkpt lat="43.5600229" lon="10.729825"><ele>45.0</ele><time>2026-04-18T07:50:06.342Z</time></trkpt><trkpt lat="43.5601475" lon="10.7300207"><ele>45.0</ele><time>2026-04-18T07:50:07.344Z</time></trkpt><trkpt lat="43.5602729" lon="10.730218"><ele>45.0</ele><time>2026-04-18T07:50:08.345Z</time></trkpt><trkpt lat="43.5603969" lon="10.7304157"><ele>45.0</ele><time>2026-04-18T07:50:09.346Z</time></trkpt><trkpt lat="43.560523" lon="10.7306148"><ele>45.0</ele><time>2026-04-18T07:50:10.345Z</time></trkpt><trkpt lat="43.5606481" lon="10.7308102"><ele>45.0</ele><time>2026-04-18T07:50:11.345Z</time></trkpt><trkpt lat="43.5607708" lon="10.7310064"><ele>45.0</ele><time>2026-04-18T07:50:12.345Z</time></trkpt><trkpt lat="43.5608965" lon="10.731202"><ele>44.666666666666664</ele><time>2026-04-18T07:50:13.346Z</time></trkpt><trkpt lat="43.561022" lon="10.7313953"><ele>44.33333333333333</ele><time>2026-04-18T07:50:14.346Z</time></trkpt><trkpt lat="43.5611486" lon="10.7315931"><ele>44.0</ele><time>2026-04-18T07:50:15.347Z</time></trkpt><trkpt lat="43.5612694" lon="10.7317896"><ele>44.33333333333333</ele><time>2026-04-18T07:50:16.345Z</time></trkpt><trkpt lat="43.5613899" lon="10.7319838"><ele>44.666666666666664</ele><time>2026-04-18T07:50:17.345Z</time></trkpt><trkpt lat="43.561515" lon="10.7321765"><ele>45.0</ele><time>2026-04-18T07:50:18.342Z</time></trkpt><trkpt lat="43.5616376" lon="10.7323746"><ele>45.0</ele><time>2026-04-18T07:50:19.345Z</time></trkpt><trkpt lat="43.5617633" lon="10.7325737"><ele>45.0</ele><time>2026-04-18T07:50:20.344Z</time></trkpt><trkpt lat="43.5618919" lon="10.7327775"><ele>45.0</ele><time>2026-04-18T07:50:21.347Z</time></trkpt><trkpt lat="43.5620214" lon="10.7329847"><ele>45.666666666666664</ele><time>2026-04-18T07:50:22.345Z</time></trkpt><trkpt lat="43.5621505" lon="10.7331962"><ele>46.33333333333333</ele><time>2026-04-18T07:50:23.347Z</time></trkpt><trkpt lat="43.5622796" lon="10.7334091"><ele>47.0</ele><time>2026-04-18T07:50:24.343Z</time></trkpt><trkpt lat="43.5624107" lon="10.733626"><ele>47.0</ele><time>2026-04-18T07:50:25.344Z</time></trkpt><trkpt lat="43.5625418" lon="10.7338407"><ele>47.0</ele><time>2026-04-18T07:50:26.346Z</time></trkpt><trkpt lat="43.5626718" lon="10.7340578"><ele>47.0</ele><time>2026-04-18T07:50:27.343Z</time></trkpt><trkpt lat="43.5628023" lon="10.7342728"><ele>47.33333333333333</ele><time>2026-04-18T07:50:28.343Z</time></trkpt><trkpt lat="43.5629333" lon="10.7344897"><ele>47.666666666666664</ele><time>2026-04-18T07:50:29.346Z</time></trkpt><trkpt lat="43.5630559" lon="10.734711"><ele>48.0</ele><time>2026-04-18T07:50:30.345Z</time></trkpt><trkpt lat="43.5631687" lon="10.7349424"><ele>48.0</ele><time>2026-04-18T07:50:31.342Z</time></trkpt><trkpt lat="43.5632725" lon="10.7351858"><ele>48.0</ele><time>2026-04-18T07:50:32.345Z</time></trkpt><trkpt lat="43.5633722" lon="10.7354357"><ele>48.0</ele><time>2026-04-18T07:50:33.345Z</time></trkpt><trkpt lat="43.5634703" lon="10.7356848"><ele>48.0</ele><time>2026-04-18T07:50:34.345Z</time></trkpt><trkpt lat="43.5635731" lon="10.7359311"><ele>48.0</ele><time>2026-04-18T07:50:35.347Z</time></trkpt><trkpt lat="43.5636769" lon="10.7361703"><ele>48.0</ele><time>2026-04-18T07:50:36.346Z</time></trkpt><trkpt lat="43.5637773" lon="10.7364069"><ele>48.0</ele><time>2026-04-18T07:50:37.344Z</time></trkpt><trkpt lat="43.5638735" lon="10.736637"><ele>48.0</ele><time>2026-04-18T07:50:38.343Z</time></trkpt><trkpt lat="43.563972" lon="10.7368653"><ele>48.0</ele><time>2026-04-18T07:50:39.346Z</time></trkpt><trkpt lat="43.5640676" lon="10.7370896"><ele>48.0</ele><time>2026-04-18T07:50:40.345Z</time></trkpt><trkpt lat="43.5641639" lon="10.7373071"><ele>48.0</ele><time>2026-04-18T07:50:41.346Z</time></trkpt><trkpt lat="43.5642576" lon="10.7375236"><ele>48.0</ele><time>2026-04-18T07:50:42.345Z</time></trkpt><trkpt lat="43.5643463" lon="10.7377362"><ele>48.0</ele><time>2026-04-18T07:50:43.345Z</time></trkpt><trkpt lat="43.5644339" lon="10.7379422"><ele>48.0</ele><time>2026-04-18T07:50:44.346Z</time></trkpt><trkpt lat="43.5645187" lon="10.7381346"><ele>48.0</ele><time>2026-04-18T07:50:45.343Z</time></trkpt><trkpt lat="43.564596" lon="10.7383206"><ele>48.25</ele><time>2026-04-18T07:50:46.345Z</time></trkpt><trkpt lat="43.5646781" lon="10.7384915"><ele>48.5</ele><time>2026-04-18T07:50:47.346Z</time></trkpt><trkpt lat="43.5647592" lon="10.7386452"><ele>48.75</ele><time>2026-04-18T07:50:48.346Z</time></trkpt><trkpt lat="43.564834" lon="10.7387772"><ele>49.0</ele><time>2026-04-18T07:50:49.344Z</time></trkpt><trkpt lat="43.5649056" lon="10.7388888"><ele>49.33333333333333</ele><time>2026-04-18T07:50:50.343Z</time></trkpt><trkpt lat="43.5649666" lon="10.7389881"><ele>49.666666666666664</ele><time>2026-04-18T07:50:51.343Z</time></trkpt><trkpt lat="43.5650181" lon="10.7390823"><ele>50.0</ele><time>2026-04-18T07:50:52.345Z</time></trkpt><trkpt lat="43.565052" lon="10.7391857"><ele>50.33333333333333</ele><time>2026-04-18T07:50:53.343Z</time></trkpt><trkpt lat="43.5650644" lon="10.7392976"><ele>50.666666666666664</ele><time>2026-04-18T07:50:54.344Z</time></trkpt><trkpt lat="43.5650534" lon="10.7394216"><ele>51.0</ele><time>2026-04-18T07:50:55.347Z</time></trkpt><trkpt lat="43.5650221" lon="10.7395485"><ele>51.5</ele><time>2026-04-18T07:50:56.345Z</time></trkpt><trkpt lat="43.5649413" lon="10.7396879"><ele>52.0</ele><time>2026-04-18T07:50:57.346Z</time></trkpt><trkpt lat="43.5648473" lon="10.7398451"><ele>52.5</ele><time>2026-04-18T07:50:58.345Z</time></trkpt><trkpt lat="43.5647445" lon="10.740022"><ele>53.0</ele><time>2026-04-18T07:50:59.342Z</time></trkpt><trkpt lat="43.564637" lon="10.7402107"><ele>53.0</ele><time>2026-04-18T07:51:00.347Z</time></trkpt><trkpt lat="43.5645296" lon="10.7404044"><ele>53.0</ele><time>2026-04-18T07:51:01.346Z</time></trkpt><trkpt lat="43.5644224" lon="10.7405973"><ele>53.0</ele><time>2026-04-18T07:51:02.346Z</time></trkpt><trkpt lat="43.5643107" lon="10.7407957"><ele>52.333333333333336</ele><time>2026-04-18T07:51:03.343Z</time></trkpt><trkpt lat="43.5641927" lon="10.7409992"><ele>51.66666666666667</ele><time>2026-04-18T07:51:04.343Z</time></trkpt><trkpt lat="43.5640671" lon="10.7412083"><ele>51.0</ele><time>2026-04-18T07:51:05.347Z</time></trkpt><trkpt lat="43.5639403" lon="10.7414282"><ele>50.66666666666667</ele><time>2026-04-18T07:51:06.343Z</time></trkpt><trkpt lat="43.5638147" lon="10.7416559"><ele>50.333333333333336</ele><time>2026-04-18T07:51:07.345Z</time></trkpt><trkpt lat="43.5636892" lon="10.7418796"><ele>50.0</ele><time>2026-04-18T07:51:08.346Z</time></trkpt><trkpt lat="43.563568" lon="10.7421063"><ele>51.66666666666667</ele><time>2026-04-18T07:51:09.345Z</time></trkpt><trkpt lat="43.56345" lon="10.7423258"><ele>53.33333333333333</ele><time>2026-04-18T07:51:10.342Z</time></trkpt><trkpt lat="43.5633296" lon="10.7425402"><ele>55.0</ele><time>2026-04-18T07:51:11.343Z</time></trkpt><trkpt lat="43.5632102" lon="10.7427496"><ele>56.0</ele><time>2026-04-18T07:51:12.343Z</time></trkpt><trkpt lat="43.5630889" lon="10.7429623"><ele>57.0</ele><time>2026-04-18T07:51:13.342Z</time></trkpt><trkpt lat="43.5629653" lon="10.7431711"><ele>58.0</ele><time>2026-04-18T07:51:14.345Z</time></trkpt><trkpt lat="43.5628473" lon="10.7433789"><ele>57.0</ele><time>2026-04-18T07:51:15.345Z</time></trkpt><trkpt lat="43.5627357" lon="10.7435806"><ele>56.0</ele><time>2026-04-18T07:51:16.345Z</time></trkpt><trkpt lat="43.5626292" lon="10.7437696"><ele>55.0</ele><time>2026-04-18T07:51:17.342Z</time></trkpt><trkpt lat="43.5625307" lon="10.7439601"><ele>55.0</ele><time>2026-04-18T07:51:18.343Z</time></trkpt><trkpt lat="43.562439" lon="10.7441613"><ele>55.0</ele><time>2026-04-18T07:51:19.342Z</time></trkpt><trkpt lat="43.5623618" lon="10.7443708"><ele>55.0</ele><time>2026-04-18T07:51:20.342Z</time></trkpt><trkpt lat="43.5622944" lon="10.7445897"><ele>56.0</ele><time>2026-04-18T07:51:21.342Z</time></trkpt><trkpt lat="43.562235" lon="10.7448118"><ele>57.0</ele><time>2026-04-18T07:51:22.343Z</time></trkpt><trkpt lat="43.5621915" lon="10.7450326"><ele>58.0</ele><time>2026-04-18T07:51:23.342Z</time></trkpt><trkpt lat="43.5621603" lon="10.7452564"><ele>58.0</ele><time>2026-04-18T07:51:24.343Z</time></trkpt><trkpt lat="43.5621406" lon="10.7454771"><ele>58.0</ele><time>2026-04-18T07:51:25.342Z</time></trkpt><trkpt lat="43.5621276" lon="10.7456973"><ele>58.0</ele><time>2026-04-18T07:51:26.342Z</time></trkpt><trkpt lat="43.5621208" lon="10.7459158"><ele>56.666666666666664</ele><time>2026-04-18T07:51:27.345Z</time></trkpt><trkpt lat="43.5621189" lon="10.7461324"><ele>55.33333333333333</ele><time>2026-04-18T07:51:28.342Z</time></trkpt><trkpt lat="43.5621287" lon="10.7463464"><ele>54.0</ele><time>2026-04-18T07:51:29.344Z</time></trkpt><trkpt lat="43.5621474" lon="10.7465493"><ele>54.0</ele><time>2026-04-18T07:51:30.344Z</time></trkpt><trkpt lat="43.5621724" lon="10.7467384"><ele>54.0</ele><time>2026-04-18T07:51:31.346Z</time></trkpt><trkpt lat="43.5622062" lon="10.7469148"><ele>54.0</ele><time>2026-04-18T07:51:32.346Z</time></trkpt><trkpt lat="43.5622503" lon="10.74709"><ele>54.0</ele><time>2026-04-18T07:51:33.346Z</time></trkpt><trkpt lat="43.5623079" lon="10.7472764"><ele>53.66666666666667</ele><time>2026-04-18T07:51:34.345Z</time></trkpt><trkpt lat="43.5623757" lon="10.7474757"><ele>53.333333333333336</ele><time>2026-04-18T07:51:35.343Z</time></trkpt><trkpt lat="43.5624427" lon="10.7476846"><ele>53.0</ele><time>2026-04-18T07:51:36.343Z</time></trkpt><trkpt lat="43.5625107" lon="10.7478968"><ele>53.0</ele><time>2026-04-18T07:51:37.346Z</time></trkpt><trkpt lat="43.562575" lon="10.7480981"><ele>53.0</ele><time>2026-04-18T07:51:38.346Z</time></trkpt><trkpt lat="43.5626341" lon="10.7482822"><ele>53.0</ele><time>2026-04-18T07:51:39.345Z</time></trkpt><trkpt lat="43.5626834" lon="10.7484396"><ele>53.0</ele><time>2026-04-18T07:51:40.346Z</time></trkpt><trkpt lat="43.5627183" lon="10.7485633"><ele>52.8</ele><time>2026-04-18T07:51:41.345Z</time></trkpt><trkpt lat="43.5627329" lon="10.7486709"><ele>52.599999999999994</ele><time>2026-04-18T07:51:42.342Z</time></trkpt><trkpt lat="43.562715" lon="10.7487757"><ele>52.400000000000006</ele><time>2026-04-18T07:51:43.344Z</time></trkpt><trkpt lat="43.562659" lon="10.7488733"><ele>52.2</ele><time>2026-04-18T07:51:44.343Z</time></trkpt><trkpt lat="43.5625663" lon="10.7489435"><ele>52.0</ele><time>2026-04-18T07:51:45.346Z</time></trkpt><trkpt lat="43.5624428" lon="10.7489561"><ele>52.0</ele><time>2026-04-18T07:51:46.345Z</time></trkpt><trkpt lat="43.5623132" lon="10.748947"><ele>52.0</ele><time>2026-04-18T07:51:47.346Z</time></trkpt><trkpt lat="43.5621783" lon="10.7489214"><ele>52.0</ele><time>2026-04-18T07:51:48.346Z</time></trkpt><trkpt lat="43.5620363" lon="10.7488928"><ele>52.0</ele><time>2026-04-18T07:51:49.342Z</time></trkpt><trkpt lat="43.5618894" lon="10.7488637"><ele>51.5</ele><time>2026-04-18T07:51:50.344Z</time></trkpt><trkpt lat="43.5617388" lon="10.7488336"><ele>51.0</ele><time>2026-04-18T07:51:51.343Z</time></trkpt><trkpt lat="43.5615865" lon="10.7488068"><ele>50.5</ele><time>2026-04-18T07:51:52.346Z</time></trkpt><trkpt lat="43.5614446" lon="10.7487908"><ele>50.0</ele><time>2026-04-18T07:51:53.342Z</time></trkpt><trkpt lat="43.5613112" lon="10.7487877"><ele>50.5</ele><time>2026-04-18T07:51:54.343Z</time></trkpt><trkpt lat="43.5611839" lon="10.7488038"><ele>51.0</ele><time>2026-04-18T07:51:55.344Z</time></trkpt><trkpt lat="43.5610639" lon="10.7488339"><ele>51.5</ele><time>2026-04-18T07:51:56.343Z</time></trkpt><trkpt lat="43.5609434" lon="10.748867"><ele>52.0</ele><time>2026-04-18T07:51:57.344Z</time></trkpt><trkpt lat="43.5608203" lon="10.7488967"><ele>52.0</ele><time>2026-04-18T07:51:58.342Z</time></trkpt><trkpt lat="43.5606947" lon="10.7489302"><ele>52.0</ele><time>2026-04-18T07:51:59.343Z</time></trkpt><trkpt lat="43.5605669" lon="10.7489673"><ele>52.0</ele><time>2026-04-18T07:52:00.342Z</time></trkpt><trkpt lat="43.5604436" lon="10.7490009"><ele>52.0</ele><time>2026-04-18T07:52:01.343Z</time></trkpt><trkpt lat="43.5603192" lon="10.7490342"><ele>51.75</ele><time>2026-04-18T07:52:02.343Z</time></trkpt><trkpt lat="43.5601861" lon="10.7490673"><ele>51.5</ele><time>2026-04-18T07:52:03.344Z</time></trkpt><trkpt lat="43.5600519" lon="10.7491075"><ele>51.25</ele><time>2026-04-18T07:52:04.344Z</time></trkpt><trkpt lat="43.5599167" lon="10.749151"><ele>51.0</ele><time>2026-04-18T07:52:05.343Z</time></trkpt><trkpt lat="43.5597818" lon="10.7492043"><ele>51.0</ele><time>2026-04-18T07:52:06.345Z</time></trkpt><trkpt lat="43.5596536" lon="10.7492739"><ele>51.0</ele><time>2026-04-18T07:52:07.344Z</time></trkpt><trkpt lat="43.5595437" lon="10.7493788"><ele>51.0</ele><time>2026-04-18T07:52:08.343Z</time></trkpt><trkpt lat="43.559451" lon="10.7494987"><ele>51.0</ele><time>2026-04-18T07:52:09.344Z</time></trkpt><trkpt lat="43.5593776" lon="10.7496182"><ele>51.0</ele><time>2026-04-18T07:52:10.344Z</time></trkpt><trkpt lat="43.5593135" lon="10.7497305"><ele>51.0</ele><time>2026-04-18T07:52:11.344Z</time></trkpt><trkpt lat="43.5592523" lon="10.7498294"><ele>51.0</ele><time>2026-04-18T07:52:12.344Z</time></trkpt><trkpt lat="43.5592005" lon="10.7499113"><ele>51.0</ele><time>2026-04-18T07:52:13.343Z</time></trkpt><trkpt lat="43.5591501" lon="10.7499823"><ele>51.0</ele><time>2026-04-18T07:52:14.345Z</time></trkpt><trkpt lat="43.5590996" lon="10.7500543"><ele>51.0</ele><time>2026-04-18T07:52:15.344Z</time></trkpt><trkpt lat="43.5590439" lon="10.7501362"><ele>51.714285714285715</ele><time>2026-04-18T07:52:16.344Z</time></trkpt><trkpt lat="43.5589819" lon="10.7502186"><ele>52.42857142857143</ele><time>2026-04-18T07:52:17.346Z</time></trkpt><trkpt lat="43.5589272" lon="10.7502924"><ele>53.14285714285714</ele><time>2026-04-18T07:52:18.346Z</time></trkpt><trkpt lat="43.5588821" lon="10.7503613"><ele>53.85714285714286</ele><time>2026-04-18T07:52:19.342Z</time></trkpt><trkpt lat="43.5588518" lon="10.750442"><ele>54.57142857142857</ele><time>2026-04-18T07:52:20.344Z</time></trkpt><trkpt lat="43.5588463" lon="10.7505307"><ele>55.285714285714285</ele><time>2026-04-18T07:52:21.345Z</time></trkpt><trkpt lat="43.558867" lon="10.750624"><ele>56.0</ele><time>2026-04-18T07:52:22.343Z</time></trkpt><trkpt lat="43.5589211" lon="10.750725"><ele>56.0</ele><time>2026-04-18T07:52:23.347Z</time></trkpt><trkpt lat="43.5589932" lon="10.7508362"><ele>55.99999999999999</ele><time>2026-04-18T07:52:24.343Z</time></trkpt><trkpt lat="43.5590581" lon="10.7509611"><ele>55.99999999999999</ele><time>2026-04-18T07:52:25.344Z</time></trkpt><trkpt lat="43.5591103" lon="10.7510964"><ele>56.0</ele><time>2026-04-18T07:52:26.342Z</time></trkpt><trkpt lat="43.5591459" lon="10.7512433"><ele>56.0</ele><time>2026-04-18T07:52:27.345Z</time></trkpt><trkpt lat="43.5591722" lon="10.75141"><ele>57.0</ele><time>2026-04-18T07:52:28.343Z</time></trkpt><trkpt lat="43.5591863" lon="10.751582"><ele>57.99999999999999</ele><time>2026-04-18T07:52:29.344Z</time></trkpt><trkpt lat="43.5591985" lon="10.7517479"><ele>58.99999999999999</ele><time>2026-04-18T07:52:30.343Z</time></trkpt><trkpt lat="43.5592033" lon="10.7518881"><ele>60.0</ele><time>2026-04-18T07:52:31.343Z</time></trkpt><trkpt lat="43.5591998" lon="10.7520041"><ele>61.0</ele><time>2026-04-18T07:52:32.347Z</time></trkpt><trkpt lat="43.5591889" lon="10.7521048"><ele>61.83333333333333</ele><time>2026-04-18T07:52:33.343Z</time></trkpt><trkpt lat="43.5591581" lon="10.7521863"><ele>62.666666666666664</ele><time>2026-04-18T07:52:34.344Z</time></trkpt><trkpt lat="43.5590946" lon="10.7522382"><ele>63.5</ele><time>2026-04-18T07:52:35.344Z</time></trkpt><trkpt lat="43.5590083" lon="10.7522877"><ele>64.33333333333333</ele><time>2026-04-18T07:52:36.345Z</time></trkpt><trkpt lat="43.5589021" lon="10.7523211"><ele>65.16666666666667</ele><time>2026-04-18T07:52:37.343Z</time></trkpt><trkpt lat="43.5588049" lon="10.7523687"><ele>66.0</ele><time>2026-04-18T07:52:38.345Z</time></trkpt><trkpt lat="43.5587214" lon="10.752431"><ele>66.39999999999999</ele><time>2026-04-18T07:52:39.343Z</time></trkpt><trkpt lat="43.5586484" lon="10.752504"><ele>66.8</ele><time>2026-04-18T07:52:40.346Z</time></trkpt><trkpt lat="43.5585786" lon="10.7525853"><ele>67.19999999999999</ele><time>2026-04-18T07:52:41.343Z</time></trkpt><trkpt lat="43.5585201" lon="10.7526879"><ele>67.6</ele><time>2026-04-18T07:52:42.346Z</time></trkpt><trkpt lat="43.5584767" lon="10.7528215"><ele>68.0</ele><time>2026-04-18T07:52:43.344Z</time></trkpt><trkpt lat="43.5584479" lon="10.7530101"><ele>69.66666666666667</ele><time>2026-04-18T07:52:44.345Z</time></trkpt><trkpt lat="43.5584291" lon="10.7532231"><ele>71.33333333333333</ele><time>2026-04-18T07:52:45.343Z</time></trkpt><trkpt lat="43.5584083" lon="10.7534371"><ele>73.0</ele><time>2026-04-18T07:52:46.343Z</time></trkpt><trkpt lat="43.5583872" lon="10.7536482"><ele>76.33333333333333</ele><time>2026-04-18T07:52:47.342Z</time></trkpt><trkpt lat="43.5583571" lon="10.7538579"><ele>79.66666666666667</ele><time>2026-04-18T07:52:48.343Z</time></trkpt><trkpt lat="43.5583193" lon="10.754072"><ele>83.0</ele><time>2026-04-18T07:52:49.343Z</time></trkpt><trkpt lat="43.5582803" lon="10.7542828"><ele>84.75</ele><time>2026-04-18T07:52:50.344Z</time></trkpt><trkpt lat="43.5582403" lon="10.7544851"><ele>86.5</ele><time>2026-04-18T07:52:51.342Z</time></trkpt><trkpt lat="43.5582023" lon="10.7546753"><ele>88.25</ele><time>2026-04-18T07:52:52.343Z</time></trkpt><trkpt lat="43.5581684" lon="10.7548472"><ele>90.0</ele><time>2026-04-18T07:52:53.343Z</time></trkpt><trkpt lat="43.5581233" lon="10.7550089"><ele>90.0</ele><time>2026-04-18T07:52:54.343Z</time></trkpt><trkpt lat="43.5580747" lon="10.7551732"><ele>90.0</ele><time>2026-04-18T07:52:55.343Z</time></trkpt><trkpt lat="43.5580139" lon="10.7553359"><ele>90.0</ele><time>2026-04-18T07:52:56.342Z</time></trkpt><trkpt lat="43.5579478" lon="10.7554824"><ele>90.0</ele><time>2026-04-18T07:52:57.343Z</time></trkpt><trkpt lat="43.557886" lon="10.7556128"><ele>90.0</ele><time>2026-04-18T07:52:58.342Z</time></trkpt><trkpt lat="43.5578332" lon="10.755734"><ele>90.0</ele><time>2026-04-18T07:52:59.343Z</time></trkpt><trkpt lat="43.5577838" lon="10.7558541"><ele>90.0</ele><time>2026-04-18T07:53:00.343Z</time></trkpt><trkpt lat="43.5577568" lon="10.7559723"><ele>90.0</ele><time>2026-04-18T07:53:01.343Z</time></trkpt><trkpt lat="43.5577517" lon="10.75609"><ele>90.0</ele><time>2026-04-18T07:53:02.343Z</time></trkpt><trkpt lat="43.5577629" lon="10.7562084"><ele>90.5</ele><time>2026-04-18T07:53:03.344Z</time></trkpt><trkpt lat="43.5578107" lon="10.756363"><ele>91.0</ele><time>2026-04-18T07:53:04.343Z</time></trkpt><trkpt lat="43.5578625" lon="10.7565035"><ele>91.5</ele><time>2026-04-18T07:53:05.342Z</time></trkpt><trkpt lat="43.5579126" lon="10.7566526"><ele>92.0</ele><time>2026-04-18T07:53:06.343Z</time></trkpt><trkpt lat="43.5579361" lon="10.7568049"><ele>93.5</ele><time>2026-04-18T07:53:07.344Z</time></trkpt><trkpt lat="43.5579435" lon="10.7569548"><ele>95.0</ele><time>2026-04-18T07:53:08.343Z</time></trkpt><trkpt lat="43.5579403" lon="10.757102"><ele>96.5</ele><time>2026-04-18T07:53:09.343Z</time></trkpt><trkpt lat="43.5579259" lon="10.7572642"><ele>98.0</ele><time>2026-04-18T07:53:10.343Z</time></trkpt><trkpt lat="43.5579013" lon="10.7574434"><ele>98.0</ele><time>2026-04-18T07:53:11.341Z</time></trkpt><trkpt lat="43.5578687" lon="10.7576309"><ele>98.0</ele><time>2026-04-18T07:53:12.342Z</time></trkpt><trkpt lat="43.557836" lon="10.75782"><ele>98.0</ele><time>2026-04-18T07:53:13.343Z</time></trkpt><trkpt lat="43.5577943" lon="10.7580164"><ele>98.0</ele><time>2026-04-18T07:53:14.345Z</time></trkpt><trkpt lat="43.5577616" lon="10.7581974"><ele>98.5</ele><time>2026-04-18T07:53:15.344Z</time></trkpt><trkpt lat="43.5577208" lon="10.7583733"><ele>99.0</ele><time>2026-04-18T07:53:16.344Z</time></trkpt><trkpt lat="43.5576676" lon="10.7585437"><ele>99.5</ele><time>2026-04-18T07:53:17.344Z</time></trkpt><trkpt lat="43.5575999" lon="10.758707"><ele>100.0</ele><time>2026-04-18T07:53:18.346Z</time></trkpt><trkpt lat="43.5575185" lon="10.75886"><ele>102.25</ele><time>2026-04-18T07:53:19.342Z</time></trkpt><trkpt lat="43.5574285" lon="10.7590036"><ele>104.5</ele><time>2026-04-18T07:53:20.343Z</time></trkpt><trkpt lat="43.5573338" lon="10.7591288"><ele>106.75</ele><time>2026-04-18T07:53:21.344Z</time></trkpt><trkpt lat="43.5572449" lon="10.7592383"><ele>109.0</ele><time>2026-04-18T07:53:22.341Z</time></trkpt><trkpt lat="43.5571641" lon="10.7593432"><ele>109.4</ele><time>2026-04-18T07:53:23.342Z</time></trkpt><trkpt lat="43.5570973" lon="10.7594432"><ele>109.80000000000001</ele><time>2026-04-18T07:53:24.342Z</time></trkpt><trkpt lat="43.557045" lon="10.7595478"><ele>110.19999999999999</ele><time>2026-04-18T07:53:25.342Z</time></trkpt><trkpt lat="43.5570051" lon="10.7596544"><ele>110.6</ele><time>2026-04-18T07:53:26.343Z</time></trkpt><trkpt lat="43.5569807" lon="10.75976"><ele>111.0</ele><time>2026-04-18T07:53:27.343Z</time></trkpt><trkpt lat="43.5569828" lon="10.759891"><ele>111.0</ele><time>2026-04-18T07:53:28.342Z</time></trkpt><trkpt lat="43.557035" lon="10.7600725"><ele>111.0</ele><time>2026-04-18T07:53:29.341Z</time></trkpt><trkpt lat="43.5570893" lon="10.7602611"><ele>111.0</ele><time>2026-04-18T07:53:30.343Z</time></trkpt><trkpt lat="43.5571483" lon="10.7604747"><ele>114.0</ele><time>2026-04-18T07:53:31.342Z</time></trkpt><trkpt lat="43.557218" lon="10.7607013"><ele>117.0</ele><time>2026-04-18T07:53:32.342Z</time></trkpt><trkpt lat="43.5572787" lon="10.7609346"><ele>120.0</ele><time>2026-04-18T07:53:33.343Z</time></trkpt><trkpt lat="43.5573259" lon="10.7611635"><ele>121.33333333333334</ele><time>2026-04-18T07:53:34.343Z</time></trkpt><trkpt lat="43.5573679" lon="10.7613861"><ele>122.66666666666667</ele><time>2026-04-18T07:53:35.342Z</time></trkpt><trkpt lat="43.5574184" lon="10.7616127"><ele>124.0</ele><time>2026-04-18T07:53:36.342Z</time></trkpt><trkpt lat="43.5574587" lon="10.7618258"><ele>124.75</ele><time>2026-04-18T07:53:37.342Z</time></trkpt><trkpt lat="43.5575016" lon="10.7620365"><ele>125.5</ele><time>2026-04-18T07:53:38.343Z</time></trkpt><trkpt lat="43.5575406" lon="10.7622332"><ele>126.25</ele><time>2026-04-18T07:53:39.344Z</time></trkpt><trkpt lat="43.5575757" lon="10.7624018"><ele>127.0</ele><time>2026-04-18T07:53:40.342Z</time></trkpt><trkpt lat="43.5575966" lon="10.762563"><ele>128.25</ele><time>2026-04-18T07:53:41.343Z</time></trkpt><trkpt lat="43.5576002" lon="10.7627283"><ele>129.5</ele><time>2026-04-18T07:53:42.343Z</time></trkpt><trkpt lat="43.5575882" lon="10.7629075"><ele>130.75</ele><time>2026-04-18T07:53:43.342Z</time></trkpt><trkpt lat="43.5575856" lon="10.763084"><ele>132.0</ele><time>2026-04-18T07:53:44.343Z</time></trkpt><trkpt lat="43.5575801" lon="10.7632347"><ele>132.0</ele><time>2026-04-18T07:53:45.342Z</time></trkpt><trkpt lat="43.5575747" lon="10.7633568"><ele>132.0</ele><time>2026-04-18T07:53:46.342Z</time></trkpt><trkpt lat="43.5575771" lon="10.7634744"><ele>132.0</ele><time>2026-04-18T07:53:47.342Z</time></trkpt><trkpt lat="43.5575887" lon="10.7635981"><ele>132.0</ele><time>2026-04-18T07:53:48.342Z</time></trkpt><trkpt lat="43.5576198" lon="10.7637107"><ele>132.0</ele><time>2026-04-18T07:53:49.342Z</time></trkpt><trkpt lat="43.5576541" lon="10.7638217"><ele>132.0</ele><time>2026-04-18T07:53:50.343Z</time></trkpt><trkpt lat="43.5576732" lon="10.7639356"><ele>133.16666666666666</ele><time>2026-04-18T07:53:51.344Z</time></trkpt><trkpt lat="43.5576847" lon="10.7640485"><ele>134.33333333333334</ele><time>2026-04-18T07:53:52.342Z</time></trkpt><trkpt lat="43.5576839" lon="10.7641529"><ele>135.5</ele><time>2026-04-18T07:53:53.343Z</time></trkpt><trkpt lat="43.557665" lon="10.7642531"><ele>136.66666666666669</ele><time>2026-04-18T07:53:54.344Z</time></trkpt><trkpt lat="43.5576145" lon="10.7643387"><ele>137.83333333333334</ele><time>2026-04-18T07:53:55.342Z</time></trkpt><trkpt lat="43.5575609" lon="10.7644221"><ele>139.0</ele><time>2026-04-18T07:53:56.342Z</time></trkpt><trkpt lat="43.5574468" lon="10.7644851"><ele>141.0</ele><time>2026-04-18T07:53:57.342Z</time></trkpt><trkpt lat="43.5573512" lon="10.764582"><ele>143.0</ele><time>2026-04-18T07:53:58.347Z</time></trkpt><trkpt lat="43.5572733" lon="10.7647121"><ele>145.0</ele><time>2026-04-18T07:53:59.345Z</time></trkpt><trkpt lat="43.5572106" lon="10.7648682"><ele>147.0</ele><time>2026-04-18T07:54:00.343Z</time></trkpt><trkpt lat="43.5571483" lon="10.7650366"><ele>146.75</ele><time>2026-04-18T07:54:01.343Z</time></trkpt><trkpt lat="43.5570884" lon="10.7652169"><ele>146.5</ele><time>2026-04-18T07:54:02.342Z</time></trkpt><trkpt lat="43.5570312" lon="10.7653955"><ele>146.25</ele><time>2026-04-18T07:54:03.342Z</time></trkpt><trkpt lat="43.5569764" lon="10.7655606"><ele>146.0</ele><time>2026-04-18T07:54:04.343Z</time></trkpt><trkpt lat="43.556924" lon="10.7657074"><ele>146.0</ele><time>2026-04-18T07:54:05.346Z</time></trkpt><trkpt lat="43.5568605" lon="10.7658316"><ele>146.0</ele><time>2026-04-18T07:54:06.345Z</time></trkpt><trkpt lat="43.556782" lon="10.7659454"><ele>146.0</ele><time>2026-04-18T07:54:07.342Z</time></trkpt><trkpt lat="43.5566907" lon="10.7660554"><ele>146.0</ele><time>2026-04-18T07:54:08.344Z</time></trkpt><trkpt lat="43.5565875" lon="10.7661689"><ele>147.0</ele><time>2026-04-18T07:54:09.343Z</time></trkpt><trkpt lat="43.5564869" lon="10.7662716"><ele>148.0</ele><time>2026-04-18T07:54:10.346Z</time></trkpt><trkpt lat="43.556393" lon="10.766365"><ele>149.0</ele><time>2026-04-18T07:54:11.343Z</time></trkpt><trkpt lat="43.5563121" lon="10.7664467"><ele>150.0</ele><time>2026-04-18T07:54:12.344Z</time></trkpt><trkpt lat="43.5562449" lon="10.7665067"><ele>151.0</ele><time>2026-04-18T07:54:13.343Z</time></trkpt><trkpt lat="43.556175" lon="10.7665508"><ele>151.0</ele><time>2026-04-18T07:54:14.343Z</time></trkpt><trkpt lat="43.5560963" lon="10.7665727"><ele>151.0</ele><time>2026-04-18T07:54:15.343Z</time></trkpt><trkpt lat="43.556017" lon="10.7665882"><ele>151.0</ele><time>2026-04-18T07:54:16.343Z</time></trkpt><trkpt lat="43.5559398" lon="10.7666094"><ele>151.0</ele><time>2026-04-18T07:54:17.343Z</time></trkpt><trkpt lat="43.5558675" lon="10.7666374"><ele>151.0</ele><time>2026-04-18T07:54:18.344Z</time></trkpt><trkpt lat="43.5557951" lon="10.7666874"><ele>151.0</ele><time>2026-04-18T07:54:19.343Z</time></trkpt><trkpt lat="43.5557237" lon="10.7667598"><ele>151.0</ele><time>2026-04-18T07:54:20.343Z</time></trkpt><trkpt lat="43.5556711" lon="10.7668372"><ele>151.0</ele><time>2026-04-18T07:54:21.343Z</time></trkpt><trkpt lat="43.5556406" lon="10.7669278"><ele>151.0</ele><time>2026-04-18T07:54:22.343Z</time></trkpt><trkpt lat="43.5556268" lon="10.7670208"><ele>151.0</ele><time>2026-04-18T07:54:23.342Z</time></trkpt><trkpt lat="43.5556455" lon="10.7671376"><ele>151.0</ele><time>2026-04-18T07:54:24.346Z</time></trkpt><trkpt lat="43.5556764" lon="10.7672661"><ele>151.0</ele><time>2026-04-18T07:54:25.343Z</time></trkpt><trkpt lat="43.5557107" lon="10.7673898"><ele>150.8</ele><time>2026-04-18T07:54:26.343Z</time></trkpt><trkpt lat="43.555746" lon="10.7675139"><ele>150.6</ele><time>2026-04-18T07:54:27.343Z</time></trkpt><trkpt lat="43.5558016" lon="10.7676492"><ele>150.4</ele><time>2026-04-18T07:54:28.343Z</time></trkpt><trkpt lat="43.5558654" lon="10.7677615"><ele>150.2</ele><time>2026-04-18T07:54:29.343Z</time></trkpt><trkpt lat="43.5559312" lon="10.7678654"><ele>150.0</ele><time>2026-04-18T07:54:30.344Z</time></trkpt><trkpt lat="43.5559741" lon="10.7679609"><ele>149.16666666666666</ele><time>2026-04-18T07:54:31.343Z</time></trkpt><trkpt lat="43.555992" lon="10.76806"><ele>148.33333333333334</ele><time>2026-04-18T07:54:32.343Z</time></trkpt><trkpt lat="43.5559875" lon="10.7681578"><ele>147.5</ele><time>2026-04-18T07:54:33.343Z</time></trkpt><trkpt lat="43.5559651" lon="10.7682516"><ele>146.66666666666669</ele><time>2026-04-18T07:54:34.343Z</time></trkpt><trkpt lat="43.555917" lon="10.7683489"><ele>145.83333333333334</ele><time>2026-04-18T07:54:35.343Z</time></trkpt><trkpt lat="43.5558146" lon="10.768456"><ele>145.0</ele><time>2026-04-18T07:54:36.344Z</time></trkpt><trkpt lat="43.5556902" lon="10.7685673"><ele>143.33333333333334</ele><time>2026-04-18T07:54:37.343Z</time></trkpt><trkpt lat="43.5555314" lon="10.7687293"><ele>141.66666666666666</ele><time>2026-04-18T07:54:38.343Z</time></trkpt><trkpt lat="43.5553807" lon="10.7688998"><ele>140.0</ele><time>2026-04-18T07:54:39.344Z</time></trkpt><trkpt lat="43.5552371" lon="10.7690537"><ele>139.5</ele><time>2026-04-18T07:54:40.343Z</time></trkpt><trkpt lat="43.5551299" lon="10.769201"><ele>139.0</ele><time>2026-04-18T07:54:41.343Z</time></trkpt><trkpt lat="43.5550239" lon="10.7693326"><ele>138.5</ele><time>2026-04-18T07:54:42.345Z</time></trkpt><trkpt lat="43.5549224" lon="10.7694527"><ele>138.0</ele><time>2026-04-18T07:54:43.343Z</time></trkpt><trkpt lat="43.5548229" lon="10.7695641"><ele>137.25</ele><time>2026-04-18T07:54:44.343Z</time></trkpt><trkpt lat="43.5547322" lon="10.7696684"><ele>136.5</ele><time>2026-04-18T07:54:45.343Z</time></trkpt><trkpt lat="43.5546518" lon="10.7697952"><ele>135.75</ele><time>2026-04-18T07:54:46.344Z</time></trkpt><trkpt lat="43.5545795" lon="10.7699474"><ele>135.0</ele><time>2026-04-18T07:54:47.345Z</time></trkpt><trkpt lat="43.5545044" lon="10.7701204"><ele>136.75</ele><time>2026-04-18T07:54:48.344Z</time></trkpt><trkpt lat="43.5544276" lon="10.7703003"><ele>138.5</ele><time>2026-04-18T07:54:49.343Z</time></trkpt><trkpt lat="43.5543595" lon="10.7704791"><ele>140.25</ele><time>2026-04-18T07:54:50.344Z</time></trkpt><trkpt lat="43.5543019" lon="10.7706577"><ele>142.0</ele><time>2026-04-18T07:54:51.344Z</time></trkpt><trkpt lat="43.5542452" lon="10.7708226"><ele>142.0</ele><time>2026-04-18T07:54:52.344Z</time></trkpt><trkpt lat="43.5541973" lon="10.7709706"><ele>142.0</ele><time>2026-04-18T07:54:53.343Z</time></trkpt><trkpt lat="43.5541584" lon="10.7710948"><ele>142.0</ele><time>2026-04-18T07:54:54.343Z</time></trkpt><trkpt lat="43.5541193" lon="10.7712132"><ele>142.0</ele><time>2026-04-18T07:54:55.343Z</time></trkpt><trkpt lat="43.5540869" lon="10.7713334"><ele>142.0</ele><time>2026-04-18T07:54:56.343Z</time></trkpt><trkpt lat="43.5540694" lon="10.771471"><ele>142.0</ele><time>2026-04-18T07:54:57.343Z</time></trkpt><trkpt lat="43.5540674" lon="10.7716301"><ele>142.0</ele><time>2026-04-18T07:54:58.343Z</time></trkpt><trkpt lat="43.5540718" lon="10.7718124"><ele>142.0</ele><time>2026-04-18T07:54:59.344Z</time></trkpt><trkpt lat="43.5540763" lon="10.7720038"><ele>142.0</ele><time>2026-04-18T07:55:00.343Z</time></trkpt><trkpt lat="43.5540872" lon="10.7722127"><ele>142.0</ele><time>2026-04-18T07:55:01.344Z</time></trkpt><trkpt lat="43.5541049" lon="10.7724308"><ele>142.0</ele><time>2026-04-18T07:55:02.343Z</time></trkpt><trkpt lat="43.5541165" lon="10.77265"><ele>142.0</ele><time>2026-04-18T07:55:03.343Z</time></trkpt><trkpt lat="43.5541239" lon="10.7728723"><ele>142.75</ele><time>2026-04-18T07:55:04.343Z</time></trkpt><trkpt lat="43.5541327" lon="10.7730833"><ele>143.5</ele><time>2026-04-18T07:55:05.343Z</time></trkpt><trkpt lat="43.5541429" lon="10.7732855"><ele>144.25</ele><time>2026-04-18T07:55:06.343Z</time></trkpt><trkpt lat="43.5541528" lon="10.7734698"><ele>145.0</ele><time>2026-04-18T07:55:07.343Z</time></trkpt><trkpt lat="43.5541603" lon="10.7736474"><ele>146.75</ele><time>2026-04-18T07:55:08.343Z</time></trkpt><trkpt lat="43.5541681" lon="10.7738148"><ele>148.5</ele><time>2026-04-18T07:55:09.343Z</time></trkpt><trkpt lat="43.5541721" lon="10.7739743"><ele>150.25</ele><time>2026-04-18T07:55:10.343Z</time></trkpt><trkpt lat="43.5541698" lon="10.7741339"><ele>152.0</ele><time>2026-04-18T07:55:11.344Z</time></trkpt><trkpt lat="43.5541672" lon="10.7742911"><ele>153.6</ele><time>2026-04-18T07:55:12.344Z</time></trkpt><trkpt lat="43.554158" lon="10.7744521"><ele>155.2</ele><time>2026-04-18T07:55:13.343Z</time></trkpt><trkpt lat="43.5541398" lon="10.7746092"><ele>156.8</ele><time>2026-04-18T07:55:14.344Z</time></trkpt><trkpt lat="43.5541206" lon="10.7747627"><ele>158.4</ele><time>2026-04-18T07:55:15.343Z</time></trkpt><trkpt lat="43.5541082" lon="10.7749031"><ele>160.0</ele><time>2026-04-18T07:55:16.344Z</time></trkpt><trkpt lat="43.5540954" lon="10.7750226"><ele>160.0</ele><time>2026-04-18T07:55:17.343Z</time></trkpt><trkpt lat="43.5540981" lon="10.7751282"><ele>160.0</ele><time>2026-04-18T07:55:18.345Z</time></trkpt><trkpt lat="43.5541157" lon="10.775228"><ele>160.0</ele><time>2026-04-18T07:55:19.343Z</time></trkpt><trkpt lat="43.5541448" lon="10.7753301"><ele>160.0</ele><time>2026-04-18T07:55:20.345Z</time></trkpt><trkpt lat="43.5542018" lon="10.7754303"><ele>160.0</ele><time>2026-04-18T07:55:21.343Z</time></trkpt><trkpt lat="43.5542703" lon="10.7755232"><ele>160.0</ele><time>2026-04-18T07:55:22.344Z</time></trkpt><trkpt lat="43.5543535" lon="10.7756132"><ele>160.0</ele><time>2026-04-18T07:55:23.344Z</time></trkpt><trkpt lat="43.5544418" lon="10.7757004"><ele>160.0</ele><time>2026-04-18T07:55:24.344Z</time></trkpt><trkpt lat="43.5545264" lon="10.775799"><ele>160.0</ele><time>2026-04-18T07:55:25.343Z</time></trkpt><trkpt lat="43.5546085" lon="10.7759089"><ele>160.0</ele><time>2026-04-18T07:55:26.343Z</time></trkpt><trkpt lat="43.5546796" lon="10.7760206"><ele>160.0</ele><time>2026-04-18T07:55:27.343Z</time></trkpt><trkpt lat="43.554745" lon="10.7761323"><ele>164.2</ele><time>2026-04-18T07:55:28.343Z</time></trkpt><trkpt lat="43.5548118" lon="10.7762425"><ele>168.4</ele><time>2026-04-18T07:55:29.343Z</time></trkpt><trkpt lat="43.554884" lon="10.7763617"><ele>172.60000000000002</ele><time>2026-04-18T07:55:30.343Z</time></trkpt><trkpt lat="43.5549458" lon="10.7764855"><ele>176.8</ele><time>2026-04-18T07:55:31.344Z</time></trkpt><trkpt lat="43.5549861" lon="10.7766058"><ele>181.0</ele><time>2026-04-18T07:55:32.343Z</time></trkpt><trkpt lat="43.55501" lon="10.7767226"><ele>181.0</ele><time>2026-04-18T07:55:33.344Z</time></trkpt><trkpt lat="43.5550079" lon="10.7768402"><ele>181.0</ele><time>2026-04-18T07:55:34.346Z</time></trkpt><trkpt lat="43.5549962" lon="10.7769657"><ele>181.0</ele><time>2026-04-18T07:55:35.343Z</time></trkpt><trkpt lat="43.5549887" lon="10.7770889"><ele>181.0</ele><time>2026-04-18T07:55:36.344Z</time></trkpt><trkpt lat="43.5549823" lon="10.7772169"><ele>181.0</ele><time>2026-04-18T07:55:37.344Z</time></trkpt><trkpt lat="43.55499" lon="10.7773358"><ele>181.0</ele><time>2026-04-18T07:55:38.344Z</time></trkpt><trkpt lat="43.5550094" lon="10.7774444"><ele>181.33333333333334</ele><time>2026-04-18T07:55:39.344Z</time></trkpt><trkpt lat="43.5550442" lon="10.777542"><ele>181.66666666666669</ele><time>2026-04-18T07:55:40.343Z</time></trkpt><trkpt lat="43.5550925" lon="10.7776333"><ele>182.0</ele><time>2026-04-18T07:55:41.344Z</time></trkpt><trkpt lat="43.555163" lon="10.7777088"><ele>182.33333333333334</ele><time>2026-04-18T07:55:42.344Z</time></trkpt><trkpt lat="43.5552393" lon="10.7777939"><ele>182.66666666666666</ele><time>2026-04-18T07:55:43.343Z</time></trkpt><trkpt lat="43.5553199" lon="10.7778673"><ele>183.0</ele><time>2026-04-18T07:55:44.344Z</time></trkpt><trkpt lat="43.5553792" lon="10.7779431"><ele>183.0</ele><time>2026-04-18T07:55:45.343Z</time></trkpt><trkpt lat="43.5554217" lon="10.7780119"><ele>183.0</ele><time>2026-04-18T07:55:46.344Z</time></trkpt><trkpt lat="43.5554532" lon="10.778179"><ele>183.0</ele><time>2026-04-18T07:55:48.344Z</time></trkpt><trkpt lat="43.5554561" lon="10.7782904"><ele>183.0</ele><time>2026-04-18T07:55:49.345Z</time></trkpt><trkpt lat="43.5554629" lon="10.7784192"><ele>183.0</ele><time>2026-04-18T07:55:50.344Z</time></trkpt><trkpt lat="43.5554695" lon="10.778562"><ele>182.4</ele><time>2026-04-18T07:55:51.344Z</time></trkpt><trkpt lat="43.5554744" lon="10.7787135"><ele>181.8</ele><time>2026-04-18T07:55:52.343Z</time></trkpt><trkpt lat="43.5554746" lon="10.7788674"><ele>181.2</ele><time>2026-04-18T07:55:53.344Z</time></trkpt><trkpt lat="43.555471" lon="10.7790131"><ele>180.6</ele><time>2026-04-18T07:55:54.344Z</time></trkpt><trkpt lat="43.5554674" lon="10.7791515"><ele>180.0</ele><time>2026-04-18T07:55:55.345Z</time></trkpt><trkpt lat="43.5554637" lon="10.7792805"><ele>179.66666666666666</ele><time>2026-04-18T07:55:56.345Z</time></trkpt><trkpt lat="43.5554589" lon="10.7794018"><ele>179.33333333333334</ele><time>2026-04-18T07:55:57.344Z</time></trkpt><trkpt lat="43.5554549" lon="10.7795201"><ele>179.0</ele><time>2026-04-18T07:55:58.345Z</time></trkpt><trkpt lat="43.5554536" lon="10.7796426"><ele>178.66666666666669</ele><time>2026-04-18T07:55:59.344Z</time></trkpt><trkpt lat="43.5554614" lon="10.779768"><ele>178.33333333333334</ele><time>2026-04-18T07:56:00.344Z</time></trkpt><trkpt lat="43.555481" lon="10.7798947"><ele>178.0</ele><time>2026-04-18T07:56:01.342Z</time></trkpt><trkpt lat="43.5555124" lon="10.7800231"><ele>178.0</ele><time>2026-04-18T07:56:02.342Z</time></trkpt><trkpt lat="43.5555509" lon="10.780159"><ele>178.0</ele><time>2026-04-18T07:56:03.343Z</time></trkpt><trkpt lat="43.5555966" lon="10.7802975"><ele>178.0</ele><time>2026-04-18T07:56:04.342Z</time></trkpt><trkpt lat="43.5556459" lon="10.7804381"><ele>178.0</ele><time>2026-04-18T07:56:05.343Z</time></trkpt><trkpt lat="43.5556936" lon="10.7805754"><ele>178.0</ele><time>2026-04-18T07:56:06.342Z</time></trkpt><trkpt lat="43.5557343" lon="10.7807118"><ele>178.60000000000002</ele><time>2026-04-18T07:56:07.343Z</time></trkpt><trkpt lat="43.5557639" lon="10.7808455"><ele>179.20000000000002</ele><time>2026-04-18T07:56:08.343Z</time></trkpt><trkpt lat="43.555784" lon="10.7809712"><ele>179.8</ele><time>2026-04-18T07:56:09.344Z</time></trkpt><trkpt lat="43.5557952" lon="10.7811088"><ele>180.4</ele><time>2026-04-18T07:56:10.343Z</time></trkpt><trkpt lat="43.5557998" lon="10.7812512"><ele>181.0</ele><time>2026-04-18T07:56:11.342Z</time></trkpt><trkpt lat="43.5558031" lon="10.7813984"><ele>181.0</ele><time>2026-04-18T07:56:12.342Z</time></trkpt><trkpt lat="43.5558005" lon="10.781526"><ele>181.0</ele><time>2026-04-18T07:56:13.343Z</time></trkpt><trkpt lat="43.5557854" lon="10.7816504"><ele>181.0</ele><time>2026-04-18T07:56:14.342Z</time></trkpt><trkpt lat="43.555766" lon="10.7817771"><ele>181.0</ele><time>2026-04-18T07:56:15.343Z</time></trkpt><trkpt lat="43.5557375" lon="10.7818933"><ele>181.0</ele><time>2026-04-18T07:56:16.342Z</time></trkpt><trkpt lat="43.5557128" lon="10.7819907"><ele>181.0</ele><time>2026-04-18T07:56:17.342Z</time></trkpt><trkpt lat="43.5556889" lon="10.7820886"><ele>179.66666666666669</ele><time>2026-04-18T07:56:18.343Z</time></trkpt><trkpt lat="43.5556704" lon="10.782173"><ele>178.33333333333334</ele><time>2026-04-18T07:56:19.342Z</time></trkpt><trkpt lat="43.5556494" lon="10.7822583"><ele>177.0</ele><time>2026-04-18T07:56:20.343Z</time></trkpt><trkpt lat="43.5556297" lon="10.7823483"><ele>175.66666666666666</ele><time>2026-04-18T07:56:21.343Z</time></trkpt><trkpt lat="43.5556117" lon="10.782436"><ele>174.33333333333331</ele><time>2026-04-18T07:56:22.346Z</time></trkpt><trkpt lat="43.5555825" lon="10.7825757"><ele>173.0</ele><time>2026-04-18T07:56:24.343Z</time></trkpt><trkpt lat="43.5555629" lon="10.7827527"><ele>171.33333333333331</ele><time>2026-04-18T07:56:26.343Z</time></trkpt><trkpt lat="43.5555538" lon="10.7828511"><ele>169.66666666666666</ele><time>2026-04-18T07:56:27.343Z</time></trkpt><trkpt lat="43.5555378" lon="10.7829533"><ele>168.0</ele><time>2026-04-18T07:56:28.343Z</time></trkpt><trkpt lat="43.5555281" lon="10.7830655"><ele>166.33333333333334</ele><time>2026-04-18T07:56:29.342Z</time></trkpt><trkpt lat="43.5555203" lon="10.7831917"><ele>164.66666666666669</ele><time>2026-04-18T07:56:30.343Z</time></trkpt><trkpt lat="43.5555123" lon="10.7833192"><ele>163.0</ele><time>2026-04-18T07:56:31.343Z</time></trkpt><trkpt lat="43.5554997" lon="10.7834423"><ele>161.83333333333334</ele><time>2026-04-18T07:56:32.343Z</time></trkpt><trkpt lat="43.5554859" lon="10.7835673"><ele>160.66666666666669</ele><time>2026-04-18T07:56:33.343Z</time></trkpt><trkpt lat="43.5554696" lon="10.7836839"><ele>159.5</ele><time>2026-04-18T07:56:34.342Z</time></trkpt><trkpt lat="43.555455" lon="10.7837913"><ele>158.33333333333334</ele><time>2026-04-18T07:56:35.343Z</time></trkpt><trkpt lat="43.5554415" lon="10.7838955"><ele>157.16666666666666</ele><time>2026-04-18T07:56:36.346Z</time></trkpt><trkpt lat="43.5554399" lon="10.7840058"><ele>156.0</ele><time>2026-04-18T07:56:37.343Z</time></trkpt><trkpt lat="43.5554495" lon="10.7841146"><ele>156.0</ele><time>2026-04-18T07:56:38.343Z</time></trkpt><trkpt lat="43.5554671" lon="10.7842346"><ele>156.0</ele><time>2026-04-18T07:56:39.342Z</time></trkpt><trkpt lat="43.5554895" lon="10.7843656"><ele>156.0</ele><time>2026-04-18T07:56:40.345Z</time></trkpt><trkpt lat="43.5555239" lon="10.7845002"><ele>156.0</ele><time>2026-04-18T07:56:41.342Z</time></trkpt><trkpt lat="43.5555693" lon="10.7846285"><ele>156.0</ele><time>2026-04-18T07:56:42.346Z</time></trkpt><trkpt lat="43.5556114" lon="10.7847477"><ele>156.16666666666666</ele><time>2026-04-18T07:56:43.346Z</time></trkpt><trkpt lat="43.5556527" lon="10.7848594"><ele>156.33333333333334</ele><time>2026-04-18T07:56:44.347Z</time></trkpt><trkpt lat="43.5556852" lon="10.7849693"><ele>156.5</ele><time>2026-04-18T07:56:45.346Z</time></trkpt><trkpt lat="43.5557062" lon="10.785077"><ele>156.66666666666669</ele><time>2026-04-18T07:56:46.343Z</time></trkpt><trkpt lat="43.5557196" lon="10.785188"><ele>156.83333333333334</ele><time>2026-04-18T07:56:47.344Z</time></trkpt><trkpt lat="43.5557133" lon="10.7853021"><ele>157.0</ele><time>2026-04-18T07:56:48.342Z</time></trkpt><trkpt lat="43.5556984" lon="10.7854086"><ele>157.0</ele><time>2026-04-18T07:56:49.343Z</time></trkpt><trkpt lat="43.5556805" lon="10.7855052"><ele>157.0</ele><time>2026-04-18T07:56:50.346Z</time></trkpt><trkpt lat="43.555659" lon="10.7855977"><ele>157.0</ele><time>2026-04-18T07:56:51.343Z</time></trkpt><trkpt lat="43.5556489" lon="10.7856849"><ele>157.0</ele><time>2026-04-18T07:56:52.342Z</time></trkpt><trkpt lat="43.5556709" lon="10.7858545"><ele>157.0</ele><time>2026-04-18T07:56:54.343Z</time></trkpt><trkpt lat="43.5557049" lon="10.7859361"><ele>157.0</ele><time>2026-04-18T07:56:55.342Z</time></trkpt><trkpt lat="43.5557499" lon="10.7860016"><ele>156.83333333333334</ele><time>2026-04-18T07:56:56.349Z</time></trkpt><trkpt lat="43.5558037" lon="10.7860589"><ele>156.66666666666669</ele><time>2026-04-18T07:56:57.343Z</time></trkpt><trkpt lat="43.5558667" lon="10.786115"><ele>156.5</ele><time>2026-04-18T07:56:58.343Z</time></trkpt><trkpt lat="43.5559343" lon="10.7861715"><ele>156.33333333333334</ele><time>2026-04-18T07:56:59.344Z</time></trkpt><trkpt lat="43.5560086" lon="10.7862366"><ele>156.16666666666666</ele><time>2026-04-18T07:57:00.343Z</time></trkpt><trkpt lat="43.5560795" lon="10.7863138"><ele>156.0</ele><time>2026-04-18T07:57:01.346Z</time></trkpt><trkpt lat="43.5561481" lon="10.7863945"><ele>155.5</ele><time>2026-04-18T07:57:02.343Z</time></trkpt><trkpt lat="43.5562124" lon="10.7864814"><ele>155.0</ele><time>2026-04-18T07:57:03.343Z</time></trkpt><trkpt lat="43.556278" lon="10.7865714"><ele>154.5</ele><time>2026-04-18T07:57:04.346Z</time></trkpt><trkpt lat="43.5563385" lon="10.7866604"><ele>154.0</ele><time>2026-04-18T07:57:05.346Z</time></trkpt><trkpt lat="43.5563951" lon="10.7867483"><ele>153.5</ele><time>2026-04-18T07:57:06.345Z</time></trkpt><trkpt lat="43.5564518" lon="10.7868337"><ele>153.0</ele><time>2026-04-18T07:57:07.345Z</time></trkpt><trkpt lat="43.556504" lon="10.7869172"><ele>152.83333333333334</ele><time>2026-04-18T07:57:08.343Z</time></trkpt><trkpt lat="43.5565582" lon="10.7870017"><ele>152.66666666666666</ele><time>2026-04-18T07:57:09.343Z</time></trkpt><trkpt lat="43.5566145" lon="10.7870853"><ele>152.5</ele><time>2026-04-18T07:57:10.343Z</time></trkpt><trkpt lat="43.5566685" lon="10.7871704"><ele>152.33333333333331</ele><time>2026-04-18T07:57:11.342Z</time></trkpt><trkpt lat="43.5567217" lon="10.7872583"><ele>152.16666666666666</ele><time>2026-04-18T07:57:12.343Z</time></trkpt><trkpt lat="43.5567738" lon="10.7873483"><ele>152.0</ele><time>2026-04-18T07:57:13.349Z</time></trkpt><trkpt lat="43.5568254" lon="10.7874429"><ele>152.0</ele><time>2026-04-18T07:57:14.343Z</time></trkpt><trkpt lat="43.556878" lon="10.787548"><ele>152.0</ele><time>2026-04-18T07:57:15.343Z</time></trkpt><trkpt lat="43.5569237" lon="10.7876639"><ele>152.0</ele><time>2026-04-18T07:57:16.343Z</time></trkpt><trkpt lat="43.556967" lon="10.7877908"><ele>152.0</ele><time>2026-04-18T07:57:17.343Z</time></trkpt><trkpt lat="43.5570012" lon="10.7879161"><ele>152.0</ele><time>2026-04-18T07:57:18.342Z</time></trkpt><trkpt lat="43.5570343" lon="10.788036"><ele>152.79999999999998</ele><time>2026-04-18T07:57:19.348Z</time></trkpt><trkpt lat="43.5570645" lon="10.7881563"><ele>153.6</ele><time>2026-04-18T07:57:20.346Z</time></trkpt><trkpt lat="43.5570991" lon="10.7882822"><ele>154.39999999999998</ele><time>2026-04-18T07:57:21.346Z</time></trkpt><trkpt lat="43.5571388" lon="10.7884165"><ele>155.2</ele><time>2026-04-18T07:57:22.347Z</time></trkpt><trkpt lat="43.5571887" lon="10.7885486"><ele>156.0</ele><time>2026-04-18T07:57:23.347Z</time></trkpt><trkpt lat="43.5572437" lon="10.7886819"><ele>156.0</ele><time>2026-04-18T07:57:24.347Z</time></trkpt><trkpt lat="43.5572956" lon="10.7888183"><ele>156.0</ele><time>2026-04-18T07:57:25.346Z</time></trkpt><trkpt lat="43.5573382" lon="10.7889535"><ele>156.0</ele><time>2026-04-18T07:57:26.346Z</time></trkpt><trkpt lat="43.5573682" lon="10.7890854"><ele>156.0</ele><time>2026-04-18T07:57:27.343Z</time></trkpt><trkpt lat="43.5573896" lon="10.7892161"><ele>156.0</ele><time>2026-04-18T07:57:28.347Z</time></trkpt><trkpt lat="43.5574069" lon="10.7893482"><ele>155.2</ele><time>2026-04-18T07:57:29.344Z</time></trkpt><trkpt lat="43.5574279" lon="10.7894815"><ele>154.39999999999998</ele><time>2026-04-18T07:57:30.344Z</time></trkpt><trkpt lat="43.5574505" lon="10.7896187"><ele>153.6</ele><time>2026-04-18T07:57:31.344Z</time></trkpt><trkpt lat="43.5574718" lon="10.7897442"><ele>152.79999999999998</ele><time>2026-04-18T07:57:32.345Z</time></trkpt><trkpt lat="43.557501" lon="10.7898516"><ele>152.0</ele><time>2026-04-18T07:57:33.343Z</time></trkpt><trkpt lat="43.5575391" lon="10.7899571"><ele>152.0</ele><time>2026-04-18T07:57:34.343Z</time></trkpt><trkpt lat="43.5575903" lon="10.7900636"><ele>152.0</ele><time>2026-04-18T07:57:35.344Z</time></trkpt><trkpt lat="43.5576466" lon="10.790174"><ele>152.0</ele><time>2026-04-18T07:57:36.346Z</time></trkpt><trkpt lat="43.5577002" lon="10.7902823"><ele>152.0</ele><time>2026-04-18T07:57:37.343Z</time></trkpt><trkpt lat="43.5577502" lon="10.7903887"><ele>152.0</ele><time>2026-04-18T07:57:38.342Z</time></trkpt><trkpt lat="43.5578044" lon="10.7904918"><ele>150.5</ele><time>2026-04-18T07:57:39.343Z</time></trkpt><trkpt lat="43.5578627" lon="10.7905995"><ele>149.0</ele><time>2026-04-18T07:57:40.343Z</time></trkpt><trkpt lat="43.5579185" lon="10.7907068"><ele>147.5</ele><time>2026-04-18T07:57:41.342Z</time></trkpt><trkpt lat="43.5579696" lon="10.7908105"><ele>146.0</ele><time>2026-04-18T07:57:42.342Z</time></trkpt><trkpt lat="43.5580175" lon="10.7909029"><ele>144.5</ele><time>2026-04-18T07:57:43.343Z</time></trkpt><trkpt lat="43.5580607" lon="10.7909952"><ele>143.0</ele><time>2026-04-18T07:57:44.343Z</time></trkpt><trkpt lat="43.558093" lon="10.791088"><ele>142.16666666666666</ele><time>2026-04-18T07:57:45.343Z</time></trkpt><trkpt lat="43.5581118" lon="10.791183"><ele>141.33333333333331</ele><time>2026-04-18T07:57:46.343Z</time></trkpt><trkpt lat="43.558119" lon="10.7912857"><ele>140.5</ele><time>2026-04-18T07:57:47.344Z</time></trkpt><trkpt lat="43.5581171" lon="10.7913946"><ele>139.66666666666666</ele><time>2026-04-18T07:57:48.343Z</time></trkpt><trkpt lat="43.5581052" lon="10.7915079"><ele>138.83333333333334</ele><time>2026-04-18T07:57:49.343Z</time></trkpt><trkpt lat="43.5580851" lon="10.7916277"><ele>138.0</ele><time>2026-04-18T07:57:50.344Z</time></trkpt><trkpt lat="43.5580568" lon="10.7917456"><ele>138.5</ele><time>2026-04-18T07:57:51.343Z</time></trkpt><trkpt lat="43.558023" lon="10.7918521"><ele>139.0</ele><time>2026-04-18T07:57:52.344Z</time></trkpt><trkpt lat="43.5579725" lon="10.7919502"><ele>139.5</ele><time>2026-04-18T07:57:53.343Z</time></trkpt><trkpt lat="43.5579268" lon="10.7920368"><ele>140.0</ele><time>2026-04-18T07:57:54.343Z</time></trkpt><trkpt lat="43.5578909" lon="10.7921195"><ele>140.5</ele><time>2026-04-18T07:57:55.344Z</time></trkpt><trkpt lat="43.5578685" lon="10.7922052"><ele>141.0</ele><time>2026-04-18T07:57:56.343Z</time></trkpt><trkpt lat="43.5578587" lon="10.7922976"><ele>141.0</ele><time>2026-04-18T07:57:57.343Z</time></trkpt><trkpt lat="43.5578653" lon="10.7923975"><ele>141.0</ele><time>2026-04-18T07:57:58.344Z</time></trkpt><trkpt lat="43.5578868" lon="10.7925116"><ele>141.0</ele><time>2026-04-18T07:57:59.343Z</time></trkpt><trkpt lat="43.5579126" lon="10.7926424"><ele>141.0</ele><time>2026-04-18T07:58:00.346Z</time></trkpt><trkpt lat="43.5579453" lon="10.7927831"><ele>141.0</ele><time>2026-04-18T07:58:01.345Z</time></trkpt><trkpt lat="43.5579822" lon="10.7929322"><ele>143.25</ele><time>2026-04-18T07:58:02.343Z</time></trkpt><trkpt lat="43.5580221" lon="10.7930946"><ele>145.5</ele><time>2026-04-18T07:58:03.345Z</time></trkpt><trkpt lat="43.5580654" lon="10.793264"><ele>147.75</ele><time>2026-04-18T07:58:04.342Z</time></trkpt><trkpt lat="43.5581074" lon="10.7934243"><ele>150.0</ele><time>2026-04-18T07:58:05.342Z</time></trkpt><trkpt lat="43.5581469" lon="10.7935696"><ele>150.0</ele><time>2026-04-18T07:58:06.345Z</time></trkpt><trkpt lat="43.5581805" lon="10.7936971"><ele>150.0</ele><time>2026-04-18T07:58:07.344Z</time></trkpt><trkpt lat="43.5582045" lon="10.7938182"><ele>150.0</ele><time>2026-04-18T07:58:08.343Z</time></trkpt><trkpt lat="43.5582206" lon="10.7939393"><ele>150.0</ele><time>2026-04-18T07:58:09.344Z</time></trkpt><trkpt lat="43.5582397" lon="10.7940603"><ele>150.0</ele><time>2026-04-18T07:58:10.344Z</time></trkpt><trkpt lat="43.5582613" lon="10.7941851"><ele>150.0</ele><time>2026-04-18T07:58:11.345Z</time></trkpt><trkpt lat="43.5582923" lon="10.7943025"><ele>150.0</ele><time>2026-04-18T07:58:12.343Z</time></trkpt><trkpt lat="43.5583416" lon="10.794418"><ele>150.0</ele><time>2026-04-18T07:58:13.346Z</time></trkpt><trkpt lat="43.5584029" lon="10.7945393"><ele>150.0</ele><time>2026-04-18T07:58:14.345Z</time></trkpt><trkpt lat="43.5584665" lon="10.7946647"><ele>150.0</ele><time>2026-04-18T07:58:15.343Z</time></trkpt><trkpt lat="43.5585303" lon="10.7947949"><ele>150.25</ele><time>2026-04-18T07:58:16.344Z</time></trkpt><trkpt lat="43.5585951" lon="10.7949234"><ele>150.5</ele><time>2026-04-18T07:58:17.344Z</time></trkpt><trkpt lat="43.5586658" lon="10.7950505"><ele>150.75</ele><time>2026-04-18T07:58:18.346Z</time></trkpt><trkpt lat="43.5587423" lon="10.7951759"><ele>151.0</ele><time>2026-04-18T07:58:19.346Z</time></trkpt><trkpt lat="43.5588196" lon="10.7952887"><ele>151.0</ele><time>2026-04-18T07:58:20.343Z</time></trkpt><trkpt lat="43.558904" lon="10.7953977"><ele>151.0</ele><time>2026-04-18T07:58:21.345Z</time></trkpt><trkpt lat="43.558996" lon="10.7954981"><ele>151.0</ele><time>2026-04-18T07:58:22.342Z</time></trkpt><trkpt lat="43.5590884" lon="10.7955936"><ele>151.0</ele><time>2026-04-18T07:58:23.342Z</time></trkpt><trkpt lat="43.5591804" lon="10.7956849"><ele>151.0</ele><time>2026-04-18T07:58:24.343Z</time></trkpt><trkpt lat="43.5592571" lon="10.7957607"><ele>151.0</ele><time>2026-04-18T07:58:25.345Z</time></trkpt><trkpt lat="43.5593231" lon="10.795813"><ele>151.0</ele><time>2026-04-18T07:58:26.344Z</time></trkpt><trkpt lat="43.5593836" lon="10.7958625"><ele>151.0</ele><time>2026-04-18T07:58:27.343Z</time></trkpt><trkpt lat="43.5594448" lon="10.7959209"><ele>151.0</ele><time>2026-04-18T07:58:28.343Z</time></trkpt><trkpt lat="43.5595083" lon="10.7959999"><ele>151.0</ele><time>2026-04-18T07:58:29.343Z</time></trkpt><trkpt lat="43.5595704" lon="10.7960936"><ele>154.4</ele><time>2026-04-18T07:58:30.344Z</time></trkpt><trkpt lat="43.5596292" lon="10.7962024"><ele>157.8</ele><time>2026-04-18T07:58:31.344Z</time></trkpt><trkpt lat="43.5596928" lon="10.7963197"><ele>161.20000000000002</ele><time>2026-04-18T07:58:32.343Z</time></trkpt><trkpt lat="43.559758" lon="10.7964309"><ele>164.6</ele><time>2026-04-18T07:58:33.344Z</time></trkpt><trkpt lat="43.5598263" lon="10.7965348"><ele>168.0</ele><time>2026-04-18T07:58:34.345Z</time></trkpt><trkpt lat="43.5598991" lon="10.7966383"><ele>168.0</ele><time>2026-04-18T07:58:35.344Z</time></trkpt><trkpt lat="43.5599704" lon="10.7967343"><ele>168.0</ele><time>2026-04-18T07:58:36.345Z</time></trkpt><trkpt lat="43.5600296" lon="10.7968375"><ele>168.0</ele><time>2026-04-18T07:58:37.343Z</time></trkpt><trkpt lat="43.5600871" lon="10.7969408"><ele>168.0</ele><time>2026-04-18T07:58:38.343Z</time></trkpt><trkpt lat="43.560144" lon="10.7970463"><ele>168.0</ele><time>2026-04-18T07:58:39.342Z</time></trkpt><trkpt lat="43.5602065" lon="10.7971459"><ele>168.0</ele><time>2026-04-18T07:58:40.347Z</time></trkpt><trkpt lat="43.5602725" lon="10.7972311"><ele>168.0</ele><time>2026-04-18T07:58:41.343Z</time></trkpt><trkpt lat="43.5603377" lon="10.7973116"><ele>168.0</ele><time>2026-04-18T07:58:42.343Z</time></trkpt><trkpt lat="43.560402" lon="10.7973812"><ele>168.0</ele><time>2026-04-18T07:58:43.344Z</time></trkpt><trkpt lat="43.5604727" lon="10.797437"><ele>168.0</ele><time>2026-04-18T07:58:44.342Z</time></trkpt><trkpt lat="43.5605578" lon="10.7974693"><ele>168.0</ele><time>2026-04-18T07:58:45.343Z</time></trkpt><trkpt lat="43.5606557" lon="10.7974844"><ele>168.0</ele><time>2026-04-18T07:58:46.343Z</time></trkpt><trkpt lat="43.5607599" lon="10.7974853"><ele>168.0</ele><time>2026-04-18T07:58:47.342Z</time></trkpt><trkpt lat="43.5608691" lon="10.7974746"><ele>168.0</ele><time>2026-04-18T07:58:48.342Z</time></trkpt><trkpt lat="43.5609741" lon="10.7974667"><ele>168.0</ele><time>2026-04-18T07:58:49.344Z</time></trkpt><trkpt lat="43.5610751" lon="10.7974673"><ele>168.0</ele><time>2026-04-18T07:58:50.345Z</time></trkpt><trkpt lat="43.5611769" lon="10.7974792"><ele>168.0</ele><time>2026-04-18T07:58:51.343Z</time></trkpt><trkpt lat="43.5612818" lon="10.7974969"><ele>168.0</ele><time>2026-04-18T07:58:52.345Z</time></trkpt><trkpt lat="43.5613866" lon="10.7975238"><ele>168.0</ele><time>2026-04-18T07:58:53.342Z</time></trkpt><trkpt lat="43.5614916" lon="10.7975513"><ele>168.0</ele><time>2026-04-18T07:58:54.343Z</time></trkpt><trkpt lat="43.5615982" lon="10.7975764"><ele>168.0</ele><time>2026-04-18T07:58:55.343Z</time></trkpt><trkpt lat="43.5617035" lon="10.7976088"><ele>168.0</ele><time>2026-04-18T07:58:56.343Z</time></trkpt><trkpt lat="43.5618071" lon="10.797646"><ele>168.0</ele><time>2026-04-18T07:58:57.343Z</time></trkpt><trkpt lat="43.5619068" lon="10.7976801"><ele>168.0</ele><time>2026-04-18T07:58:58.342Z</time></trkpt><trkpt lat="43.5620021" lon="10.7977074"><ele>168.0</ele><time>2026-04-18T07:58:59.344Z</time></trkpt><trkpt lat="43.5620949" lon="10.7977364"><ele>168.0</ele><time>2026-04-18T07:59:00.342Z</time></trkpt><trkpt lat="43.5621809" lon="10.7977725"><ele>170.0</ele><time>2026-04-18T07:59:01.343Z</time></trkpt><trkpt lat="43.5622579" lon="10.7978184"><ele>172.0</ele><time>2026-04-18T07:59:02.345Z</time></trkpt><trkpt lat="43.5623336" lon="10.7978721"><ele>174.0</ele><time>2026-04-18T07:59:03.344Z</time></trkpt><trkpt lat="43.5624103" lon="10.7979369"><ele>176.0</ele><time>2026-04-18T07:59:04.343Z</time></trkpt><trkpt lat="43.5624942" lon="10.7980196"><ele>178.0</ele><time>2026-04-18T07:59:05.343Z</time></trkpt><trkpt lat="43.5625784" lon="10.7981115"><ele>178.0</ele><time>2026-04-18T07:59:06.342Z</time></trkpt><trkpt lat="43.5626665" lon="10.7982115"><ele>178.0</ele><time>2026-04-18T07:59:07.344Z</time></trkpt><trkpt lat="43.5627594" lon="10.7983111"><ele>178.0</ele><time>2026-04-18T07:59:08.342Z</time></trkpt><trkpt lat="43.5628547" lon="10.7984065"><ele>178.0</ele><time>2026-04-18T07:59:09.343Z</time></trkpt><trkpt lat="43.5629547" lon="10.7984935"><ele>180.2</ele><time>2026-04-18T07:59:10.343Z</time></trkpt><trkpt lat="43.5630477" lon="10.7985689"><ele>182.4</ele><time>2026-04-18T07:59:11.342Z</time></trkpt><trkpt lat="43.5631355" lon="10.7986444"><ele>184.6</ele><time>2026-04-18T07:59:12.342Z</time></trkpt><trkpt lat="43.5632232" lon="10.7987213"><ele>186.79999999999998</ele><time>2026-04-18T07:59:13.342Z</time></trkpt><trkpt lat="43.5633099" lon="10.7987989"><ele>189.0</ele><time>2026-04-18T07:59:14.341Z</time></trkpt><trkpt lat="43.5634012" lon="10.7988773"><ele>189.0</ele><time>2026-04-18T07:59:15.342Z</time></trkpt><trkpt lat="43.5634827" lon="10.7989499"><ele>189.0</ele><time>2026-04-18T07:59:16.341Z</time></trkpt><trkpt lat="43.5635578" lon="10.7990196"><ele>189.0</ele><time>2026-04-18T07:59:17.342Z</time></trkpt><trkpt lat="43.5635959" lon="10.7990973"><ele>189.0</ele><time>2026-04-18T07:59:18.341Z</time></trkpt><trkpt lat="43.5636621" lon="10.7991762"><ele>189.0</ele><time>2026-04-18T07:59:19.343Z</time></trkpt><trkpt lat="43.5637269" lon="10.7992608"><ele>189.0</ele><time>2026-04-18T07:59:20.343Z</time></trkpt><trkpt lat="43.5637811" lon="10.7993543"><ele>188.2</ele><time>2026-04-18T07:59:21.342Z</time></trkpt><trkpt lat="43.5638245" lon="10.7994636"><ele>187.39999999999998</ele><time>2026-04-18T07:59:22.343Z</time></trkpt><trkpt lat="43.5638636" lon="10.799584"><ele>186.6</ele><time>2026-04-18T07:59:23.342Z</time></trkpt><trkpt lat="43.5639133" lon="10.7997067"><ele>185.8</ele><time>2026-04-18T07:59:24.346Z</time></trkpt><trkpt lat="43.5639844" lon="10.7998167"><ele>185.0</ele><time>2026-04-18T07:59:25.349Z</time></trkpt><trkpt lat="43.5640638" lon="10.7999045"><ele>185.0</ele><time>2026-04-18T07:59:26.345Z</time></trkpt><trkpt lat="43.5641478" lon="10.7999801"><ele>185.0</ele><time>2026-04-18T07:59:27.342Z</time></trkpt><trkpt lat="43.5642423" lon="10.8000498"><ele>185.0</ele><time>2026-04-18T07:59:28.342Z</time></trkpt><trkpt lat="43.5643328" lon="10.8001108"><ele>185.0</ele><time>2026-04-18T07:59:29.342Z</time></trkpt><trkpt lat="43.5644179" lon="10.8001611"><ele>185.0</ele><time>2026-04-18T07:59:30.343Z</time></trkpt><trkpt lat="43.5644964" lon="10.8002032"><ele>184.16666666666666</ele><time>2026-04-18T07:59:31.343Z</time></trkpt><trkpt lat="43.5645635" lon="10.8002339"><ele>183.33333333333331</ele><time>2026-04-18T07:59:32.343Z</time></trkpt><trkpt lat="43.5646278" lon="10.8002639"><ele>182.5</ele><time>2026-04-18T07:59:33.342Z</time></trkpt><trkpt lat="43.5647454" lon="10.8003144"><ele>181.66666666666666</ele><time>2026-04-18T07:59:35.342Z</time></trkpt><trkpt lat="43.5648095" lon="10.8003403"><ele>180.83333333333334</ele><time>2026-04-18T07:59:36.343Z</time></trkpt><trkpt lat="43.5648755" lon="10.8003688"><ele>180.0</ele><time>2026-04-18T07:59:37.343Z</time></trkpt><trkpt lat="43.564942" lon="10.8003939"><ele>180.0</ele><time>2026-04-18T07:59:38.346Z</time></trkpt><trkpt lat="43.5650083" lon="10.8004122"><ele>180.0</ele><time>2026-04-18T07:59:39.346Z</time></trkpt><trkpt lat="43.5650717" lon="10.8004207"><ele>180.0</ele><time>2026-04-18T07:59:40.347Z</time></trkpt><trkpt lat="43.5651392" lon="10.8004223"><ele>180.0</ele><time>2026-04-18T07:59:41.342Z</time></trkpt><trkpt lat="43.5652047" lon="10.8004218"><ele>180.0</ele><time>2026-04-18T07:59:42.346Z</time></trkpt><trkpt lat="43.5652739" lon="10.8004168"><ele>180.0</ele><time>2026-04-18T07:59:43.346Z</time></trkpt><trkpt lat="43.5653425" lon="10.8004171"><ele>180.0</ele><time>2026-04-18T07:59:44.342Z</time></trkpt><trkpt lat="43.565408" lon="10.8004252"><ele>180.33333333333334</ele><time>2026-04-18T07:59:45.343Z</time></trkpt><trkpt lat="43.5654701" lon="10.8004403"><ele>180.66666666666666</ele><time>2026-04-18T07:59:46.342Z</time></trkpt><trkpt lat="43.565588" lon="10.8005051"><ele>181.0</ele><time>2026-04-18T07:59:48.342Z</time></trkpt><trkpt lat="43.5656483" lon="10.8005595"><ele>181.33333333333331</ele><time>2026-04-18T07:59:49.342Z</time></trkpt><trkpt lat="43.5657084" lon="10.8006344"><ele>181.66666666666666</ele><time>2026-04-18T07:59:50.342Z</time></trkpt><trkpt lat="43.565767" lon="10.8007245"><ele>182.0</ele><time>2026-04-18T07:59:51.347Z</time></trkpt><trkpt lat="43.5658309" lon="10.8008126"><ele>182.0</ele><time>2026-04-18T07:59:52.346Z</time></trkpt><trkpt lat="43.565906" lon="10.8008927"><ele>182.0</ele><time>2026-04-18T07:59:53.346Z</time></trkpt><trkpt lat="43.565986" lon="10.8009736"><ele>182.0</ele><time>2026-04-18T07:59:54.344Z</time></trkpt><trkpt lat="43.5660771" lon="10.8010537"><ele>182.0</ele><time>2026-04-18T07:59:55.344Z</time></trkpt><trkpt lat="43.5661772" lon="10.8011321"><ele>182.0</ele><time>2026-04-18T07:59:56.343Z</time></trkpt><trkpt lat="43.5662871" lon="10.8012083"><ele>182.25</ele><time>2026-04-18T07:59:57.344Z</time></trkpt><trkpt lat="43.5664058" lon="10.8012817"><ele>182.5</ele><time>2026-04-18T07:59:58.344Z</time></trkpt><trkpt lat="43.5665292" lon="10.8013545"><ele>182.75</ele><time>2026-04-18T07:59:59.343Z</time></trkpt><trkpt lat="43.5666549" lon="10.8014324"><ele>183.0</ele><time>2026-04-18T08:00:00.343Z</time></trkpt><trkpt lat="43.5667873" lon="10.8015157"><ele>183.0</ele><time>2026-04-18T08:00:01.344Z</time></trkpt><trkpt lat="43.566926" lon="10.8016018"><ele>183.0</ele><time>2026-04-18T08:00:02.344Z</time></trkpt><trkpt lat="43.5670697" lon="10.801683"><ele>183.0</ele><time>2026-04-18T08:00:03.344Z</time></trkpt><trkpt lat="43.5672093" lon="10.8017595"><ele>183.0</ele><time>2026-04-18T08:00:04.343Z</time></trkpt><trkpt lat="43.5673427" lon="10.8018233"><ele>183.0</ele><time>2026-04-18T08:00:05.344Z</time></trkpt><trkpt lat="43.5674778" lon="10.8018743"><ele>183.0</ele><time>2026-04-18T08:00:06.343Z</time></trkpt><trkpt lat="43.5676055" lon="10.8019062"><ele>183.0</ele><time>2026-04-18T08:00:07.344Z</time></trkpt><trkpt lat="43.5677328" lon="10.8019249"><ele>182.5</ele><time>2026-04-18T08:00:08.342Z</time></trkpt><trkpt lat="43.5678607" lon="10.8019334"><ele>182.0</ele><time>2026-04-18T08:00:09.343Z</time></trkpt><trkpt lat="43.5679934" lon="10.8019409"><ele>181.5</ele><time>2026-04-18T08:00:10.342Z</time></trkpt><trkpt lat="43.5681334" lon="10.8019489"><ele>181.0</ele><time>2026-04-18T08:00:11.344Z</time></trkpt><trkpt lat="43.5682803" lon="10.8019556"><ele>181.0</ele><time>2026-04-18T08:00:12.342Z</time></trkpt><trkpt lat="43.5684355" lon="10.8019604"><ele>181.0</ele><time>2026-04-18T08:00:13.342Z</time></trkpt><trkpt lat="43.5685961" lon="10.8019655"><ele>181.0</ele><time>2026-04-18T08:00:14.342Z</time></trkpt><trkpt lat="43.5687464" lon="10.8019657"><ele>184.25</ele><time>2026-04-18T08:00:15.343Z</time></trkpt><trkpt lat="43.5688881" lon="10.8019603"><ele>187.5</ele><time>2026-04-18T08:00:16.343Z</time></trkpt><trkpt lat="43.5690192" lon="10.8019387"><ele>190.75</ele><time>2026-04-18T08:00:17.343Z</time></trkpt><trkpt lat="43.5691442" lon="10.8018946"><ele>194.0</ele><time>2026-04-18T08:00:18.343Z</time></trkpt><trkpt lat="43.5692557" lon="10.8018493"><ele>194.00000000000003</ele><time>2026-04-18T08:00:19.342Z</time></trkpt><trkpt lat="43.5693558" lon="10.8018259"><ele>194.0</ele><time>2026-04-18T08:00:20.343Z</time></trkpt><trkpt lat="43.5694452" lon="10.8018345"><ele>194.0</ele><time>2026-04-18T08:00:21.343Z</time></trkpt><trkpt lat="43.5695235" lon="10.8018685"><ele>194.0</ele><time>2026-04-18T08:00:22.341Z</time></trkpt><trkpt lat="43.569591" lon="10.801928"><ele>194.00000000000003</ele><time>2026-04-18T08:00:23.342Z</time></trkpt><trkpt lat="43.5696491" lon="10.8020172"><ele>194.0</ele><time>2026-04-18T08:00:24.343Z</time></trkpt><trkpt lat="43.5696994" lon="10.802129"><ele>196.2</ele><time>2026-04-18T08:00:25.342Z</time></trkpt><trkpt lat="43.5697429" lon="10.8022518"><ele>198.39999999999998</ele><time>2026-04-18T08:00:26.341Z</time></trkpt><trkpt lat="43.5697909" lon="10.8023655"><ele>200.6</ele><time>2026-04-18T08:00:27.346Z</time></trkpt><trkpt lat="43.5698374" lon="10.8024774"><ele>202.8</ele><time>2026-04-18T08:00:28.342Z</time></trkpt><trkpt lat="43.5698839" lon="10.8025895"><ele>205.0</ele><time>2026-04-18T08:00:29.342Z</time></trkpt><trkpt lat="43.5699324" lon="10.8027134"><ele>205.0</ele><time>2026-04-18T08:00:30.346Z</time></trkpt><trkpt lat="43.5699825" lon="10.8028511"><ele>205.0</ele><time>2026-04-18T08:00:31.342Z</time></trkpt><trkpt lat="43.5700384" lon="10.8029908"><ele>205.0</ele><time>2026-04-18T08:00:32.343Z</time></trkpt><trkpt lat="43.5700954" lon="10.8031188"><ele>205.0</ele><time>2026-04-18T08:00:33.343Z</time></trkpt><trkpt lat="43.5701646" lon="10.8032272"><ele>205.0</ele><time>2026-04-18T08:00:34.342Z</time></trkpt><trkpt lat="43.5702523" lon="10.8033175"><ele>205.0</ele><time>2026-04-18T08:00:35.343Z</time></trkpt><trkpt lat="43.5703573" lon="10.8033966"><ele>205.0</ele><time>2026-04-18T08:00:36.343Z</time></trkpt><trkpt lat="43.5704758" lon="10.8034753"><ele>205.0</ele><time>2026-04-18T08:00:37.342Z</time></trkpt><trkpt lat="43.570593" lon="10.8035539"><ele>205.0</ele><time>2026-04-18T08:00:38.342Z</time></trkpt><trkpt lat="43.5707065" lon="10.80362"><ele>204.25</ele><time>2026-04-18T08:00:39.343Z</time></trkpt><trkpt lat="43.5708118" lon="10.8036879"><ele>203.5</ele><time>2026-04-18T08:00:40.343Z</time></trkpt><trkpt lat="43.5709041" lon="10.803773"><ele>202.75</ele><time>2026-04-18T08:00:41.342Z</time></trkpt><trkpt lat="43.5709864" lon="10.8038888"><ele>202.0</ele><time>2026-04-18T08:00:42.346Z</time></trkpt><trkpt lat="43.5710521" lon="10.8040436"><ele>202.0</ele><time>2026-04-18T08:00:43.341Z</time></trkpt><trkpt lat="43.5710946" lon="10.8042194"><ele>202.0</ele><time>2026-04-18T08:00:44.343Z</time></trkpt><trkpt lat="43.5711204" lon="10.8044037"><ele>202.0</ele><time>2026-04-18T08:00:45.343Z</time></trkpt><trkpt lat="43.5711244" lon="10.8045869"><ele>202.0</ele><time>2026-04-18T08:00:46.344Z</time></trkpt><trkpt lat="43.571108" lon="10.8047954"><ele>198.66666666666666</ele><time>2026-04-18T08:00:47.345Z</time></trkpt><trkpt lat="43.5710833" lon="10.80502"><ele>195.33333333333331</ele><time>2026-04-18T08:00:48.343Z</time></trkpt><trkpt lat="43.5710578" lon="10.8052473"><ele>192.0</ele><time>2026-04-18T08:00:49.343Z</time></trkpt><trkpt lat="43.5710336" lon="10.8054687"><ele>188.33333333333334</ele><time>2026-04-18T08:00:50.343Z</time></trkpt><trkpt lat="43.5710121" lon="10.8056811"><ele>184.66666666666669</ele><time>2026-04-18T08:00:51.342Z</time></trkpt><trkpt lat="43.5710022" lon="10.8058846"><ele>181.0</ele><time>2026-04-18T08:00:52.342Z</time></trkpt><trkpt lat="43.5710098" lon="10.8060874"><ele>179.33333333333334</ele><time>2026-04-18T08:00:53.343Z</time></trkpt><trkpt lat="43.5710317" lon="10.8063082"><ele>177.66666666666666</ele><time>2026-04-18T08:00:54.342Z</time></trkpt><trkpt lat="43.5710611" lon="10.8065426"><ele>176.0</ele><time>2026-04-18T08:00:55.342Z</time></trkpt><trkpt lat="43.5710931" lon="10.8067745"><ele>177.0</ele><time>2026-04-18T08:00:56.344Z</time></trkpt><trkpt lat="43.5711282" lon="10.806987"><ele>178.0</ele><time>2026-04-18T08:00:57.343Z</time></trkpt><trkpt lat="43.5711561" lon="10.8071743"><ele>179.0</ele><time>2026-04-18T08:00:58.342Z</time></trkpt><trkpt lat="43.5711669" lon="10.8073489"><ele>180.0</ele><time>2026-04-18T08:00:59.342Z</time></trkpt><trkpt lat="43.5711495" lon="10.8075237"><ele>179.0</ele><time>2026-04-18T08:01:00.342Z</time></trkpt><trkpt lat="43.5711108" lon="10.8076928"><ele>178.0</ele><time>2026-04-18T08:01:01.342Z</time></trkpt><trkpt lat="43.5710416" lon="10.8078572"><ele>177.0</ele><time>2026-04-18T08:01:02.343Z</time></trkpt><trkpt lat="43.5709466" lon="10.8080188"><ele>176.0</ele><time>2026-04-18T08:01:03.342Z</time></trkpt><trkpt lat="43.5708334" lon="10.8081952"><ele>176.0</ele><time>2026-04-18T08:01:04.342Z</time></trkpt><trkpt lat="43.5707232" lon="10.8083684"><ele>176.0</ele><time>2026-04-18T08:01:05.342Z</time></trkpt><trkpt lat="43.5706203" lon="10.8085293"><ele>176.0</ele><time>2026-04-18T08:01:06.343Z</time></trkpt><trkpt lat="43.5705223" lon="10.8086737"><ele>174.5</ele><time>2026-04-18T08:01:07.342Z</time></trkpt><trkpt lat="43.5704241" lon="10.8087913"><ele>173.0</ele><time>2026-04-18T08:01:08.342Z</time></trkpt><trkpt lat="43.5703245" lon="10.8088742"><ele>171.5</ele><time>2026-04-18T08:01:09.343Z</time></trkpt><trkpt lat="43.5702209" lon="10.8089155"><ele>170.0</ele><time>2026-04-18T08:01:10.343Z</time></trkpt><trkpt lat="43.570109" lon="10.8089055"><ele>170.0</ele><time>2026-04-18T08:01:11.343Z</time></trkpt><trkpt lat="43.5699862" lon="10.8088658"><ele>170.0</ele><time>2026-04-18T08:01:12.342Z</time></trkpt><trkpt lat="43.569867" lon="10.8087904"><ele>170.0</ele><time>2026-04-18T08:01:13.342Z</time></trkpt><trkpt lat="43.5697481" lon="10.8087116"><ele>170.0</ele><time>2026-04-18T08:01:14.345Z</time></trkpt><trkpt lat="43.5696321" lon="10.8086634"><ele>169.5</ele><time>2026-04-18T08:01:15.342Z</time></trkpt><trkpt lat="43.5695168" lon="10.8086483"><ele>169.0</ele><time>2026-04-18T08:01:16.343Z</time></trkpt><trkpt lat="43.5693979" lon="10.8086922"><ele>168.5</ele><time>2026-04-18T08:01:17.346Z</time></trkpt><trkpt lat="43.5692729" lon="10.8087827"><ele>168.0</ele><time>2026-04-18T08:01:18.345Z</time></trkpt><trkpt lat="43.5691481" lon="10.8089022"><ele>168.0</ele><time>2026-04-18T08:01:19.343Z</time></trkpt><trkpt lat="43.5690319" lon="10.8090323"><ele>168.0</ele><time>2026-04-18T08:01:20.343Z</time></trkpt><trkpt lat="43.5689261" lon="10.8091831"><ele>168.0</ele><time>2026-04-18T08:01:21.344Z</time></trkpt><trkpt lat="43.5688254" lon="10.8093426"><ele>168.25</ele><time>2026-04-18T08:01:22.346Z</time></trkpt><trkpt lat="43.5687295" lon="10.8094934"><ele>168.5</ele><time>2026-04-18T08:01:23.345Z</time></trkpt><trkpt lat="43.5686445" lon="10.8096331"><ele>168.75</ele><time>2026-04-18T08:01:24.347Z</time></trkpt><trkpt lat="43.5685618" lon="10.8097479"><ele>169.0</ele><time>2026-04-18T08:01:25.345Z</time></trkpt><trkpt lat="43.5684737" lon="10.8098283"><ele>169.0</ele><time>2026-04-18T08:01:26.346Z</time></trkpt><trkpt lat="43.568373" lon="10.8098823"><ele>169.0</ele><time>2026-04-18T08:01:27.345Z</time></trkpt><trkpt lat="43.5682643" lon="10.8099167"><ele>169.0</ele><time>2026-04-18T08:01:28.346Z</time></trkpt><trkpt lat="43.5681499" lon="10.8099539"><ele>169.0</ele><time>2026-04-18T08:01:29.345Z</time></trkpt><trkpt lat="43.568042" lon="10.8100212"><ele>169.0</ele><time>2026-04-18T08:01:30.342Z</time></trkpt><trkpt lat="43.567942" lon="10.8101295"><ele>169.0</ele><time>2026-04-18T08:01:31.342Z</time></trkpt><trkpt lat="43.567854" lon="10.8102794"><ele>169.0</ele><time>2026-04-18T08:01:32.344Z</time></trkpt><trkpt lat="43.5677817" lon="10.8104404"><ele>169.0</ele><time>2026-04-18T08:01:33.344Z</time></trkpt><trkpt lat="43.5677247" lon="10.8106009"><ele>170.25</ele><time>2026-04-18T08:01:34.343Z</time></trkpt><trkpt lat="43.5676922" lon="10.8107639"><ele>171.5</ele><time>2026-04-18T08:01:35.342Z</time></trkpt><trkpt lat="43.5677" lon="10.8109279"><ele>172.75</ele><time>2026-04-18T08:01:36.341Z</time></trkpt><trkpt lat="43.5677411" lon="10.8110955"><ele>174.0</ele><time>2026-04-18T08:01:37.342Z</time></trkpt><trkpt lat="43.5677983" lon="10.8112684"><ele>174.5</ele><time>2026-04-18T08:01:38.342Z</time></trkpt><trkpt lat="43.567861" lon="10.8114513"><ele>175.0</ele><time>2026-04-18T08:01:39.342Z</time></trkpt><trkpt lat="43.5679208" lon="10.8116327"><ele>175.5</ele><time>2026-04-18T08:01:40.342Z</time></trkpt><trkpt lat="43.5679716" lon="10.8117991"><ele>176.0</ele><time>2026-04-18T08:01:41.343Z</time></trkpt><trkpt lat="43.5680165" lon="10.8119526"><ele>176.0</ele><time>2026-04-18T08:01:42.346Z</time></trkpt><trkpt lat="43.5680566" lon="10.8121007"><ele>176.0</ele><time>2026-04-18T08:01:43.346Z</time></trkpt><trkpt lat="43.5680984" lon="10.8122588"><ele>176.0</ele><time>2026-04-18T08:01:44.346Z</time></trkpt><trkpt lat="43.5681381" lon="10.812423"><ele>176.0</ele><time>2026-04-18T08:01:45.343Z</time></trkpt><trkpt lat="43.568173" lon="10.8125804"><ele>175.20000000000002</ele><time>2026-04-18T08:01:46.345Z</time></trkpt><trkpt lat="43.5682024" lon="10.8127229"><ele>174.4</ele><time>2026-04-18T08:01:47.346Z</time></trkpt><trkpt lat="43.5682165" lon="10.8128522"><ele>173.6</ele><time>2026-04-18T08:01:48.342Z</time></trkpt><trkpt lat="43.5682144" lon="10.8129849"><ele>172.8</ele><time>2026-04-18T08:01:49.344Z</time></trkpt><trkpt lat="43.5681817" lon="10.8131306"><ele>172.0</ele><time>2026-04-18T08:01:50.345Z</time></trkpt><trkpt lat="43.5681275" lon="10.8132825"><ele>172.0</ele><time>2026-04-18T08:01:51.346Z</time></trkpt><trkpt lat="43.5680711" lon="10.8134375"><ele>172.0</ele><time>2026-04-18T08:01:52.345Z</time></trkpt><trkpt lat="43.5680329" lon="10.8135933"><ele>172.0</ele><time>2026-04-18T08:01:53.347Z</time></trkpt><trkpt lat="43.5680181" lon="10.8137638"><ele>172.0</ele><time>2026-04-18T08:01:54.346Z</time></trkpt><trkpt lat="43.5680284" lon="10.8139537"><ele>172.33333333333334</ele><time>2026-04-18T08:01:55.346Z</time></trkpt><trkpt lat="43.5680447" lon="10.8141587"><ele>172.66666666666666</ele><time>2026-04-18T08:01:56.342Z</time></trkpt><trkpt lat="43.5680694" lon="10.8143723"><ele>173.0</ele><time>2026-04-18T08:01:57.342Z</time></trkpt><trkpt lat="43.5680968" lon="10.8145974"><ele>174.66666666666666</ele><time>2026-04-18T08:01:58.343Z</time></trkpt><trkpt lat="43.5681191" lon="10.8148268"><ele>176.33333333333334</ele><time>2026-04-18T08:01:59.345Z</time></trkpt><trkpt lat="43.5681404" lon="10.8150499"><ele>178.0</ele><time>2026-04-18T08:02:00.342Z</time></trkpt><trkpt lat="43.5681632" lon="10.8152611"><ele>179.0</ele><time>2026-04-18T08:02:01.345Z</time></trkpt><trkpt lat="43.5681939" lon="10.8154658"><ele>180.0</ele><time>2026-04-18T08:02:02.343Z</time></trkpt><trkpt lat="43.5682343" lon="10.81567"><ele>181.0</ele><time>2026-04-18T08:02:03.343Z</time></trkpt><trkpt lat="43.5682945" lon="10.8158703"><ele>180.0</ele><time>2026-04-18T08:02:04.344Z</time></trkpt><trkpt lat="43.5683707" lon="10.8160702"><ele>179.0</ele><time>2026-04-18T08:02:05.345Z</time></trkpt><trkpt lat="43.5684571" lon="10.8162685"><ele>178.0</ele><time>2026-04-18T08:02:06.343Z</time></trkpt><trkpt lat="43.568552" lon="10.8164687"><ele>178.0</ele><time>2026-04-18T08:02:07.344Z</time></trkpt><trkpt lat="43.5686535" lon="10.816668"><ele>178.0</ele><time>2026-04-18T08:02:08.344Z</time></trkpt><trkpt lat="43.568758" lon="10.8168675"><ele>178.0</ele><time>2026-04-18T08:02:09.345Z</time></trkpt><trkpt lat="43.5688574" lon="10.8170646"><ele>179.33333333333334</ele><time>2026-04-18T08:02:10.343Z</time></trkpt><trkpt lat="43.5689489" lon="10.8172498"><ele>180.66666666666666</ele><time>2026-04-18T08:02:11.344Z</time></trkpt><trkpt lat="43.5690341" lon="10.8174247"><ele>182.0</ele><time>2026-04-18T08:02:12.347Z</time></trkpt><trkpt lat="43.5691112" lon="10.8175924"><ele>179.5</ele><time>2026-04-18T08:02:13.346Z</time></trkpt><trkpt lat="43.5691838" lon="10.8177555"><ele>177.0</ele><time>2026-04-18T08:02:14.346Z</time></trkpt><trkpt lat="43.5692504" lon="10.8179186"><ele>174.5</ele><time>2026-04-18T08:02:15.346Z</time></trkpt><trkpt lat="43.5693102" lon="10.8180762"><ele>172.0</ele><time>2026-04-18T08:02:16.345Z</time></trkpt><trkpt lat="43.5693729" lon="10.8182291"><ele>172.0</ele><time>2026-04-18T08:02:17.342Z</time></trkpt><trkpt lat="43.5694322" lon="10.8183819"><ele>172.0</ele><time>2026-04-18T08:02:18.346Z</time></trkpt><trkpt lat="43.5694768" lon="10.8185408"><ele>172.0</ele><time>2026-04-18T08:02:19.342Z</time></trkpt><trkpt lat="43.5695074" lon="10.8187014"><ele>172.0</ele><time>2026-04-18T08:02:20.344Z</time></trkpt><trkpt lat="43.5695208" lon="10.8188677"><ele>171.5</ele><time>2026-04-18T08:02:21.344Z</time></trkpt><trkpt lat="43.5695133" lon="10.8190271"><ele>171.0</ele><time>2026-04-18T08:02:22.344Z</time></trkpt><trkpt lat="43.5694811" lon="10.8191744"><ele>170.5</ele><time>2026-04-18T08:02:23.347Z</time></trkpt><trkpt lat="43.5694254" lon="10.8193169"><ele>170.0</ele><time>2026-04-18T08:02:24.346Z</time></trkpt><trkpt lat="43.5693555" lon="10.8194673"><ele>169.75</ele><time>2026-04-18T08:02:25.342Z</time></trkpt><trkpt lat="43.5692781" lon="10.8196178"><ele>169.5</ele><time>2026-04-18T08:02:26.342Z</time></trkpt><trkpt lat="43.5691935" lon="10.8197744"><ele>169.25</ele><time>2026-04-18T08:02:27.343Z</time></trkpt><trkpt lat="43.5691154" lon="10.8199271"><ele>169.0</ele><time>2026-04-18T08:02:28.342Z</time></trkpt><trkpt lat="43.5690446" lon="10.8200777"><ele>167.25</ele><time>2026-04-18T08:02:29.343Z</time></trkpt><trkpt lat="43.56898" lon="10.8202261"><ele>165.5</ele><time>2026-04-18T08:02:30.343Z</time></trkpt><trkpt lat="43.5689241" lon="10.8203782"><ele>163.75</ele><time>2026-04-18T08:02:31.343Z</time></trkpt><trkpt lat="43.5688789" lon="10.8205285"><ele>162.0</ele><time>2026-04-18T08:02:32.342Z</time></trkpt><trkpt lat="43.5688633" lon="10.8206782"><ele>162.0</ele><time>2026-04-18T08:02:33.343Z</time></trkpt><trkpt lat="43.568872" lon="10.8208373"><ele>162.0</ele><time>2026-04-18T08:02:34.342Z</time></trkpt><trkpt lat="43.5689033" lon="10.8210088"><ele>162.0</ele><time>2026-04-18T08:02:35.342Z</time></trkpt><trkpt lat="43.5689411" lon="10.8211933"><ele>162.0</ele><time>2026-04-18T08:02:36.343Z</time></trkpt><trkpt lat="43.5689744" lon="10.821401"><ele>159.0</ele><time>2026-04-18T08:02:37.342Z</time></trkpt><trkpt lat="43.5690123" lon="10.82161"><ele>156.0</ele><time>2026-04-18T08:02:38.343Z</time></trkpt><trkpt lat="43.5690439" lon="10.8218155"><ele>153.0</ele><time>2026-04-18T08:02:39.342Z</time></trkpt><trkpt lat="43.5690721" lon="10.8220066"><ele>151.75</ele><time>2026-04-18T08:02:40.344Z</time></trkpt><trkpt lat="43.5690868" lon="10.8221959"><ele>150.5</ele><time>2026-04-18T08:02:41.346Z</time></trkpt><trkpt lat="43.5690871" lon="10.8223835"><ele>149.25</ele><time>2026-04-18T08:02:42.343Z</time></trkpt><trkpt lat="43.5690754" lon="10.8225773"><ele>148.0</ele><time>2026-04-18T08:02:43.347Z</time></trkpt><trkpt lat="43.5690564" lon="10.8227802"><ele>147.33333333333334</ele><time>2026-04-18T08:02:44.347Z</time></trkpt><trkpt lat="43.5690386" lon="10.8229872"><ele>146.66666666666666</ele><time>2026-04-18T08:02:45.343Z</time></trkpt><trkpt lat="43.5690222" lon="10.8231997"><ele>146.0</ele><time>2026-04-18T08:02:46.341Z</time></trkpt><trkpt lat="43.569004" lon="10.8234119"><ele>144.75</ele><time>2026-04-18T08:02:47.342Z</time></trkpt><trkpt lat="43.568979" lon="10.8236173"><ele>143.5</ele><time>2026-04-18T08:02:48.342Z</time></trkpt><trkpt lat="43.5689535" lon="10.8238087"><ele>142.25</ele><time>2026-04-18T08:02:49.344Z</time></trkpt><trkpt lat="43.5689224" lon="10.8240089"><ele>141.0</ele><time>2026-04-18T08:02:50.342Z</time></trkpt><trkpt lat="43.5688888" lon="10.824207"><ele>140.2</ele><time>2026-04-18T08:02:51.343Z</time></trkpt><trkpt lat="43.5688571" lon="10.8243882"><ele>139.39999999999998</ele><time>2026-04-18T08:02:52.342Z</time></trkpt><trkpt lat="43.5688274" lon="10.8245531"><ele>138.6</ele><time>2026-04-18T08:02:53.343Z</time></trkpt><trkpt lat="43.5688042" lon="10.8246828"><ele>137.79999999999998</ele><time>2026-04-18T08:02:54.342Z</time></trkpt><trkpt lat="43.5687873" lon="10.8247898"><ele>137.0</ele><time>2026-04-18T08:02:55.343Z</time></trkpt><trkpt lat="43.5687774" lon="10.8248763"><ele>137.0</ele><time>2026-04-18T08:02:56.346Z</time></trkpt><trkpt lat="43.5687461" lon="10.8250108"><ele>137.0</ele><time>2026-04-18T08:02:58.346Z</time></trkpt><trkpt lat="43.5686741" lon="10.8250598"><ele>137.0</ele><time>2026-04-18T08:03:00.346Z</time></trkpt><trkpt lat="43.5685855" lon="10.8249906"><ele>137.0</ele><time>2026-04-18T08:03:02.344Z</time></trkpt><trkpt lat="43.5685546" lon="10.8248925"><ele>137.0</ele><time>2026-04-18T08:03:03.343Z</time></trkpt><trkpt lat="43.5685418" lon="10.8247385"><ele>136.75</ele><time>2026-04-18T08:03:04.342Z</time></trkpt><trkpt lat="43.5685326" lon="10.8245512"><ele>136.5</ele><time>2026-04-18T08:03:05.343Z</time></trkpt><trkpt lat="43.5685165" lon="10.8243591"><ele>136.25</ele><time>2026-04-18T08:03:06.344Z</time></trkpt><trkpt lat="43.5684934" lon="10.8241476"><ele>136.0</ele><time>2026-04-18T08:03:07.342Z</time></trkpt><trkpt lat="43.5684647" lon="10.8239245"><ele>134.33333333333334</ele><time>2026-04-18T08:03:08.345Z</time></trkpt><trkpt lat="43.5684394" lon="10.8236945"><ele>132.66666666666666</ele><time>2026-04-18T08:03:09.342Z</time></trkpt><trkpt lat="43.5684198" lon="10.8234573"><ele>131.0</ele><time>2026-04-18T08:03:10.343Z</time></trkpt><trkpt lat="43.5684017" lon="10.8232201"><ele>130.66666666666666</ele><time>2026-04-18T08:03:11.342Z</time></trkpt><trkpt lat="43.5683848" lon="10.8229911"><ele>130.33333333333334</ele><time>2026-04-18T08:03:12.342Z</time></trkpt><trkpt lat="43.5683676" lon="10.8227718"><ele>130.0</ele><time>2026-04-18T08:03:13.342Z</time></trkpt><trkpt lat="43.5683506" lon="10.8225718"><ele>130.0</ele><time>2026-04-18T08:03:14.344Z</time></trkpt><trkpt lat="43.5683294" lon="10.8223882"><ele>130.0</ele><time>2026-04-18T08:03:15.343Z</time></trkpt><trkpt lat="43.5682966" lon="10.8222251"><ele>130.0</ele><time>2026-04-18T08:03:16.342Z</time></trkpt><trkpt lat="43.5682492" lon="10.8220874"><ele>130.0</ele><time>2026-04-18T08:03:17.345Z</time></trkpt><trkpt lat="43.5681739" lon="10.8219708"><ele>130.0</ele><time>2026-04-18T08:03:18.346Z</time></trkpt><trkpt lat="43.5680757" lon="10.8218795"><ele>130.0</ele><time>2026-04-18T08:03:19.344Z</time></trkpt><trkpt lat="43.5679653" lon="10.8218136"><ele>130.0</ele><time>2026-04-18T08:03:20.343Z</time></trkpt><trkpt lat="43.5678327" lon="10.8217779"><ele>130.0</ele><time>2026-04-18T08:03:21.344Z</time></trkpt><trkpt lat="43.5676839" lon="10.8217572"><ele>129.0</ele><time>2026-04-18T08:03:22.344Z</time></trkpt><trkpt lat="43.5675351" lon="10.8217303"><ele>128.0</ele><time>2026-04-18T08:03:23.344Z</time></trkpt><trkpt lat="43.5673912" lon="10.8216983"><ele>127.0</ele><time>2026-04-18T08:03:24.344Z</time></trkpt><trkpt lat="43.5672544" lon="10.8216603"><ele>126.0</ele><time>2026-04-18T08:03:25.343Z</time></trkpt><trkpt lat="43.5671303" lon="10.8216222"><ele>122.8</ele><time>2026-04-18T08:03:26.344Z</time></trkpt><trkpt lat="43.567017" lon="10.8215853"><ele>119.6</ele><time>2026-04-18T08:03:27.346Z</time></trkpt><trkpt lat="43.566911" lon="10.8215486"><ele>116.4</ele><time>2026-04-18T08:03:28.346Z</time></trkpt><trkpt lat="43.5668075" lon="10.8215181"><ele>113.2</ele><time>2026-04-18T08:03:29.344Z</time></trkpt><trkpt lat="43.5667077" lon="10.8214855"><ele>110.0</ele><time>2026-04-18T08:03:30.348Z</time></trkpt><trkpt lat="43.5666069" lon="10.8214506"><ele>110.0</ele><time>2026-04-18T08:03:31.344Z</time></trkpt><trkpt lat="43.5665078" lon="10.8214197"><ele>110.0</ele><time>2026-04-18T08:03:32.344Z</time></trkpt><trkpt lat="43.5664144" lon="10.8213888"><ele>110.0</ele><time>2026-04-18T08:03:33.344Z</time></trkpt><trkpt lat="43.5663226" lon="10.8213579"><ele>110.0</ele><time>2026-04-18T08:03:34.344Z</time></trkpt><trkpt lat="43.566233" lon="10.8213358"><ele>110.0</ele><time>2026-04-18T08:03:35.345Z</time></trkpt><trkpt lat="43.5661386" lon="10.8213214"><ele>107.8</ele><time>2026-04-18T08:03:36.345Z</time></trkpt><trkpt lat="43.5660374" lon="10.8213022"><ele>105.6</ele><time>2026-04-18T08:03:37.344Z</time></trkpt><trkpt lat="43.5659255" lon="10.8212787"><ele>103.4</ele><time>2026-04-18T08:03:38.344Z</time></trkpt><trkpt lat="43.5658133" lon="10.8212496"><ele>101.2</ele><time>2026-04-18T08:03:39.344Z</time></trkpt><trkpt lat="43.5657003" lon="10.8212073"><ele>99.0</ele><time>2026-04-18T08:03:40.343Z</time></trkpt><trkpt lat="43.5655851" lon="10.8211462"><ele>99.0</ele><time>2026-04-18T08:03:41.344Z</time></trkpt><trkpt lat="43.5654611" lon="10.8210526"><ele>99.0</ele><time>2026-04-18T08:03:42.344Z</time></trkpt><trkpt lat="43.5653295" lon="10.8209175"><ele>99.0</ele><time>2026-04-18T08:03:43.346Z</time></trkpt><trkpt lat="43.565191" lon="10.8207638"><ele>99.0</ele><time>2026-04-18T08:03:44.343Z</time></trkpt><trkpt lat="43.5650519" lon="10.8206144"><ele>99.0</ele><time>2026-04-18T08:03:45.346Z</time></trkpt><trkpt lat="43.5649168" lon="10.820465"><ele>99.0</ele><time>2026-04-18T08:03:46.342Z</time></trkpt><trkpt lat="43.5647863" lon="10.8203175"><ele>99.0</ele><time>2026-04-18T08:03:47.342Z</time></trkpt><trkpt lat="43.5646671" lon="10.8201768"><ele>99.0</ele><time>2026-04-18T08:03:48.342Z</time></trkpt><trkpt lat="43.5645574" lon="10.8200462"><ele>99.0</ele><time>2026-04-18T08:03:49.346Z</time></trkpt><trkpt lat="43.5644544" lon="10.8199142"><ele>99.0</ele><time>2026-04-18T08:03:50.343Z</time></trkpt><trkpt lat="43.5643621" lon="10.8197719"><ele>96.0</ele><time>2026-04-18T08:03:51.344Z</time></trkpt><trkpt lat="43.5642803" lon="10.8196166"><ele>93.0</ele><time>2026-04-18T08:03:52.343Z</time></trkpt><trkpt lat="43.5642045" lon="10.8194527"><ele>90.0</ele><time>2026-04-18T08:03:53.342Z</time></trkpt><trkpt lat="43.5641366" lon="10.8192856"><ele>87.0</ele><time>2026-04-18T08:03:54.342Z</time></trkpt><trkpt lat="43.5640752" lon="10.8191295"><ele>87.0</ele><time>2026-04-18T08:03:55.342Z</time></trkpt><trkpt lat="43.56402" lon="10.8189872"><ele>87.0</ele><time>2026-04-18T08:03:56.344Z</time></trkpt><trkpt lat="43.5639689" lon="10.8188629"><ele>87.0</ele><time>2026-04-18T08:03:57.343Z</time></trkpt><trkpt lat="43.5639208" lon="10.8187515"><ele>87.0</ele><time>2026-04-18T08:03:58.342Z</time></trkpt><trkpt lat="43.5638717" lon="10.8186581"><ele>87.0</ele><time>2026-04-18T08:03:59.344Z</time></trkpt><trkpt lat="43.5638158" lon="10.818587"><ele>87.0</ele><time>2026-04-18T08:04:00.342Z</time></trkpt><trkpt lat="43.5637498" lon="10.8185436"><ele>87.0</ele><time>2026-04-18T08:04:01.342Z</time></trkpt><trkpt lat="43.5636766" lon="10.8185158"><ele>87.0</ele><time>2026-04-18T08:04:02.344Z</time></trkpt><trkpt lat="43.563599" lon="10.8185024"><ele>87.0</ele><time>2026-04-18T08:04:03.343Z</time></trkpt><trkpt lat="43.5635168" lon="10.8185115"><ele>87.0</ele><time>2026-04-18T08:04:04.346Z</time></trkpt><trkpt lat="43.563424" lon="10.8185432"><ele>87.0</ele><time>2026-04-18T08:04:05.346Z</time></trkpt><trkpt lat="43.5633255" lon="10.8185977"><ele>85.0</ele><time>2026-04-18T08:04:06.346Z</time></trkpt><trkpt lat="43.5632225" lon="10.8186723"><ele>83.0</ele><time>2026-04-18T08:04:07.345Z</time></trkpt><trkpt lat="43.5631156" lon="10.8187488"><ele>81.0</ele><time>2026-04-18T08:04:08.345Z</time></trkpt><trkpt lat="43.5630071" lon="10.8188304"><ele>79.0</ele><time>2026-04-18T08:04:09.343Z</time></trkpt><trkpt lat="43.5628969" lon="10.8189105"><ele>80.25</ele><time>2026-04-18T08:04:10.342Z</time></trkpt><trkpt lat="43.5627897" lon="10.8189943"><ele>81.5</ele><time>2026-04-18T08:04:11.343Z</time></trkpt><trkpt lat="43.5626864" lon="10.8190687"><ele>82.75</ele><time>2026-04-18T08:04:12.342Z</time></trkpt><trkpt lat="43.5625848" lon="10.819134"><ele>84.0</ele><time>2026-04-18T08:04:13.342Z</time></trkpt><trkpt lat="43.5624894" lon="10.819186"><ele>84.0</ele><time>2026-04-18T08:04:14.342Z</time></trkpt><trkpt lat="43.562396" lon="10.8192112"><ele>84.0</ele><time>2026-04-18T08:04:15.349Z</time></trkpt><trkpt lat="43.5622961" lon="10.819218"><ele>84.0</ele><time>2026-04-18T08:04:16.342Z</time></trkpt><trkpt lat="43.5622041" lon="10.8191922"><ele>84.0</ele><time>2026-04-18T08:04:17.342Z</time></trkpt><trkpt lat="43.5621153" lon="10.8191347"><ele>84.0</ele><time>2026-04-18T08:04:18.342Z</time></trkpt><trkpt lat="43.5620366" lon="10.8190429"><ele>85.0</ele><time>2026-04-18T08:04:19.342Z</time></trkpt><trkpt lat="43.5619598" lon="10.8189364"><ele>86.0</ele><time>2026-04-18T08:04:20.343Z</time></trkpt><trkpt lat="43.561883" lon="10.8188062"><ele>87.0</ele><time>2026-04-18T08:04:21.343Z</time></trkpt><trkpt lat="43.5618022" lon="10.8186543"><ele>88.0</ele><time>2026-04-18T08:04:22.343Z</time></trkpt><trkpt lat="43.5617126" lon="10.8184922"><ele>86.0</ele><time>2026-04-18T08:04:23.343Z</time></trkpt><trkpt lat="43.5616145" lon="10.8183166"><ele>84.0</ele><time>2026-04-18T08:04:24.343Z</time></trkpt><trkpt lat="43.5615095" lon="10.8181347"><ele>82.0</ele><time>2026-04-18T08:04:25.342Z</time></trkpt><trkpt lat="43.561401" lon="10.8179429"><ele>82.0</ele><time>2026-04-18T08:04:26.342Z</time></trkpt><trkpt lat="43.5612936" lon="10.817751"><ele>82.0</ele><time>2026-04-18T08:04:27.343Z</time></trkpt><trkpt lat="43.5611909" lon="10.817563"><ele>82.0</ele><time>2026-04-18T08:04:28.342Z</time></trkpt><trkpt lat="43.5610918" lon="10.8173861"><ele>81.5</ele><time>2026-04-18T08:04:29.344Z</time></trkpt><trkpt lat="43.5609953" lon="10.8172254"><ele>81.0</ele><time>2026-04-18T08:04:30.344Z</time></trkpt><trkpt lat="43.5609004" lon="10.8170747"><ele>80.5</ele><time>2026-04-18T08:04:31.342Z</time></trkpt><trkpt lat="43.5607991" lon="10.816933"><ele>80.0</ele><time>2026-04-18T08:04:32.344Z</time></trkpt><trkpt lat="43.5606862" lon="10.8167958"><ele>80.0</ele><time>2026-04-18T08:04:33.343Z</time></trkpt><trkpt lat="43.5605606" lon="10.8166664"><ele>80.0</ele><time>2026-04-18T08:04:34.342Z</time></trkpt><trkpt lat="43.5604293" lon="10.8165372"><ele>80.0</ele><time>2026-04-18T08:04:35.343Z</time></trkpt><trkpt lat="43.560297" lon="10.8164073"><ele>79.25</ele><time>2026-04-18T08:04:36.342Z</time></trkpt><trkpt lat="43.5601729" lon="10.8162829"><ele>78.5</ele><time>2026-04-18T08:04:37.344Z</time></trkpt><trkpt lat="43.5600506" lon="10.8161613"><ele>77.75</ele><time>2026-04-18T08:04:38.344Z</time></trkpt><trkpt lat="43.5599416" lon="10.8160503"><ele>77.0</ele><time>2026-04-18T08:04:39.344Z</time></trkpt><trkpt lat="43.5598426" lon="10.8159495"><ele>77.0</ele><time>2026-04-18T08:04:40.345Z</time></trkpt><trkpt lat="43.5597474" lon="10.8158618"><ele>77.0</ele><time>2026-04-18T08:04:41.346Z</time></trkpt><trkpt lat="43.5596435" lon="10.8157833"><ele>77.0</ele><time>2026-04-18T08:04:42.346Z</time></trkpt><trkpt lat="43.5595316" lon="10.8157195"><ele>77.0</ele><time>2026-04-18T08:04:43.345Z</time></trkpt><trkpt lat="43.5593973" lon="10.815673"><ele>78.33333333333334</ele><time>2026-04-18T08:04:44.345Z</time></trkpt><trkpt lat="43.5592469" lon="10.8156382"><ele>79.66666666666667</ele><time>2026-04-18T08:04:45.345Z</time></trkpt><trkpt lat="43.5590891" lon="10.8156058"><ele>81.0</ele><time>2026-04-18T08:04:46.346Z</time></trkpt><trkpt lat="43.5589302" lon="10.8155672"><ele>81.0</ele><time>2026-04-18T08:04:47.343Z</time></trkpt><trkpt lat="43.5587694" lon="10.8155314"><ele>81.0</ele><time>2026-04-18T08:04:48.344Z</time></trkpt><trkpt lat="43.5586122" lon="10.8154968"><ele>81.0</ele><time>2026-04-18T08:04:49.342Z</time></trkpt><trkpt lat="43.5584577" lon="10.815466"><ele>80.66666666666667</ele><time>2026-04-18T08:04:50.343Z</time></trkpt><trkpt lat="43.558307" lon="10.8154291"><ele>80.33333333333334</ele><time>2026-04-18T08:04:51.345Z</time></trkpt><trkpt lat="43.5581524" lon="10.8153952"><ele>80.0</ele><time>2026-04-18T08:04:52.344Z</time></trkpt><trkpt lat="43.5580002" lon="10.8153637"><ele>79.0</ele><time>2026-04-18T08:04:53.343Z</time></trkpt><trkpt lat="43.5578485" lon="10.8153273"><ele>78.0</ele><time>2026-04-18T08:04:54.344Z</time></trkpt><trkpt lat="43.5576983" lon="10.8152887"><ele>77.0</ele><time>2026-04-18T08:04:55.342Z</time></trkpt><trkpt lat="43.5575557" lon="10.8152513"><ele>77.0</ele><time>2026-04-18T08:04:56.343Z</time></trkpt><trkpt lat="43.5574194" lon="10.8152191"><ele>77.0</ele><time>2026-04-18T08:04:57.345Z</time></trkpt><trkpt lat="43.5572786" lon="10.8151973"><ele>77.0</ele><time>2026-04-18T08:04:58.343Z</time></trkpt><trkpt lat="43.5571414" lon="10.8151748"><ele>77.0</ele><time>2026-04-18T08:04:59.343Z</time></trkpt><trkpt lat="43.5569989" lon="10.8151606"><ele>78.33333333333334</ele><time>2026-04-18T08:05:00.343Z</time></trkpt><trkpt lat="43.5568517" lon="10.8151718"><ele>79.66666666666667</ele><time>2026-04-18T08:05:01.343Z</time></trkpt><trkpt lat="43.5567038" lon="10.8152053"><ele>81.0</ele><time>2026-04-18T08:05:02.346Z</time></trkpt><trkpt lat="43.5565536" lon="10.8152549"><ele>81.0</ele><time>2026-04-18T08:05:03.344Z</time></trkpt><trkpt lat="43.5563975" lon="10.8153103"><ele>81.0</ele><time>2026-04-18T08:05:04.346Z</time></trkpt><trkpt lat="43.5562438" lon="10.8153646"><ele>81.0</ele><time>2026-04-18T08:05:05.344Z</time></trkpt><trkpt lat="43.5560948" lon="10.8154152"><ele>83.0</ele><time>2026-04-18T08:05:06.346Z</time></trkpt><trkpt lat="43.5559529" lon="10.815464"><ele>85.0</ele><time>2026-04-18T08:05:07.346Z</time></trkpt><trkpt lat="43.5558186" lon="10.8155186"><ele>87.0</ele><time>2026-04-18T08:05:08.347Z</time></trkpt><trkpt lat="43.5556927" lon="10.815578"><ele>89.0</ele><time>2026-04-18T08:05:09.345Z</time></trkpt><trkpt lat="43.5555739" lon="10.81565"><ele>89.0</ele><time>2026-04-18T08:05:10.345Z</time></trkpt><trkpt lat="43.5554733" lon="10.8157413"><ele>89.0</ele><time>2026-04-18T08:05:11.346Z</time></trkpt><trkpt lat="43.5553777" lon="10.8158569"><ele>89.0</ele><time>2026-04-18T08:05:12.345Z</time></trkpt><trkpt lat="43.5552891" lon="10.81599"><ele>89.0</ele><time>2026-04-18T08:05:13.345Z</time></trkpt><trkpt lat="43.5552048" lon="10.8161363"><ele>91.66666666666667</ele><time>2026-04-18T08:05:14.342Z</time></trkpt><trkpt lat="43.5551142" lon="10.8163038"><ele>94.33333333333334</ele><time>2026-04-18T08:05:15.345Z</time></trkpt><trkpt lat="43.5550147" lon="10.816488"><ele>97.0</ele><time>2026-04-18T08:05:16.343Z</time></trkpt><trkpt lat="43.5549109" lon="10.8166783"><ele>98.33333333333334</ele><time>2026-04-18T08:05:17.344Z</time></trkpt><trkpt lat="43.5548058" lon="10.8168756"><ele>99.66666666666666</ele><time>2026-04-18T08:05:18.346Z</time></trkpt><trkpt lat="43.5546987" lon="10.817074"><ele>101.0</ele><time>2026-04-18T08:05:19.341Z</time></trkpt><trkpt lat="43.5545905" lon="10.8172776"><ele>101.66666666666666</ele><time>2026-04-18T08:05:20.343Z</time></trkpt><trkpt lat="43.5544787" lon="10.8174769"><ele>102.33333333333334</ele><time>2026-04-18T08:05:21.343Z</time></trkpt><trkpt lat="43.5543698" lon="10.8176756"><ele>103.0</ele><time>2026-04-18T08:05:22.343Z</time></trkpt><trkpt lat="43.5542633" lon="10.8178726"><ele>105.0</ele><time>2026-04-18T08:05:23.344Z</time></trkpt><trkpt lat="43.554154" lon="10.8180715"><ele>107.0</ele><time>2026-04-18T08:05:24.343Z</time></trkpt><trkpt lat="43.5540408" lon="10.8182755"><ele>109.0</ele><time>2026-04-18T08:05:25.345Z</time></trkpt><trkpt lat="43.5539271" lon="10.8184827"><ele>110.33333333333334</ele><time>2026-04-18T08:05:26.341Z</time></trkpt><trkpt lat="43.5538105" lon="10.8186887"><ele>111.66666666666666</ele><time>2026-04-18T08:05:27.348Z</time></trkpt><trkpt lat="43.5536924" lon="10.818893"><ele>113.0</ele><time>2026-04-18T08:05:28.343Z</time></trkpt><trkpt lat="43.5535782" lon="10.8190952"><ele>114.0</ele><time>2026-04-18T08:05:29.343Z</time></trkpt><trkpt lat="43.5534668" lon="10.8192926"><ele>115.0</ele><time>2026-04-18T08:05:30.347Z</time></trkpt><trkpt lat="43.5533593" lon="10.8194885"><ele>116.0</ele><time>2026-04-18T08:05:31.345Z</time></trkpt><trkpt lat="43.5532498" lon="10.8196863"><ele>118.0</ele><time>2026-04-18T08:05:32.345Z</time></trkpt><trkpt lat="43.5531402" lon="10.8198864"><ele>120.0</ele><time>2026-04-18T08:05:33.344Z</time></trkpt><trkpt lat="43.5530265" lon="10.8200952"><ele>122.0</ele><time>2026-04-18T08:05:34.344Z</time></trkpt><trkpt lat="43.5529074" lon="10.8203109"><ele>123.33333333333333</ele><time>2026-04-18T08:05:35.345Z</time></trkpt><trkpt lat="43.5527872" lon="10.8205252"><ele>124.66666666666666</ele><time>2026-04-18T08:05:36.345Z</time></trkpt><trkpt lat="43.5526667" lon="10.8207437"><ele>126.0</ele><time>2026-04-18T08:05:37.346Z</time></trkpt><trkpt lat="43.552545" lon="10.8209653"><ele>127.66666666666666</ele><time>2026-04-18T08:05:38.341Z</time></trkpt><trkpt lat="43.5524293" lon="10.8211834"><ele>129.33333333333331</ele><time>2026-04-18T08:05:39.345Z</time></trkpt><trkpt lat="43.5523125" lon="10.8213935"><ele>131.0</ele><time>2026-04-18T08:05:40.345Z</time></trkpt><trkpt lat="43.5522042" lon="10.8215863"><ele>131.0</ele><time>2026-04-18T08:05:41.342Z</time></trkpt><trkpt lat="43.5521053" lon="10.821768"><ele>131.0</ele><time>2026-04-18T08:05:42.343Z</time></trkpt><trkpt lat="43.5520098" lon="10.8219459"><ele>131.0</ele><time>2026-04-18T08:05:43.343Z</time></trkpt><trkpt lat="43.551921" lon="10.8221162"><ele>132.5</ele><time>2026-04-18T08:05:44.342Z</time></trkpt><trkpt lat="43.5518377" lon="10.822274"><ele>134.0</ele><time>2026-04-18T08:05:45.345Z</time></trkpt><trkpt lat="43.55176" lon="10.8224168"><ele>135.5</ele><time>2026-04-18T08:05:46.345Z</time></trkpt><trkpt lat="43.551681" lon="10.8225548"><ele>137.0</ele><time>2026-04-18T08:05:47.342Z</time></trkpt><trkpt lat="43.5516085" lon="10.8226841"><ele>139.0</ele><time>2026-04-18T08:05:48.343Z</time></trkpt><trkpt lat="43.5515424" lon="10.8228021"><ele>141.0</ele><time>2026-04-18T08:05:49.342Z</time></trkpt><trkpt lat="43.5514686" lon="10.8228954"><ele>143.0</ele><time>2026-04-18T08:05:50.342Z</time></trkpt><trkpt lat="43.5513827" lon="10.8229633"><ele>145.0</ele><time>2026-04-18T08:05:51.343Z</time></trkpt><trkpt lat="43.5512846" lon="10.8230095"><ele>147.0</ele><time>2026-04-18T08:05:52.345Z</time></trkpt><trkpt lat="43.5511778" lon="10.8230245"><ele>147.0</ele><time>2026-04-18T08:05:53.344Z</time></trkpt><trkpt lat="43.5510601" lon="10.8230278"><ele>147.0</ele><time>2026-04-18T08:05:54.343Z</time></trkpt><trkpt lat="43.550935" lon="10.823023"><ele>147.0</ele><time>2026-04-18T08:05:55.343Z</time></trkpt><trkpt lat="43.5508001" lon="10.8229989"><ele>147.0</ele><time>2026-04-18T08:05:56.345Z</time></trkpt><trkpt lat="43.5506568" lon="10.8229589"><ele>147.0</ele><time>2026-04-18T08:05:57.343Z</time></trkpt><trkpt lat="43.550505" lon="10.8229095"><ele>147.0</ele><time>2026-04-18T08:05:58.342Z</time></trkpt><trkpt lat="43.550344" lon="10.8228584"><ele>147.0</ele><time>2026-04-18T08:05:59.342Z</time></trkpt><trkpt lat="43.5501819" lon="10.8228114"><ele>148.0</ele><time>2026-04-18T08:06:00.345Z</time></trkpt><trkpt lat="43.5500203" lon="10.8227599"><ele>149.0</ele><time>2026-04-18T08:06:01.343Z</time></trkpt><trkpt lat="43.5498551" lon="10.8227123"><ele>150.0</ele><time>2026-04-18T08:06:02.344Z</time></trkpt><trkpt lat="43.549692" lon="10.8226656"><ele>148.33333333333334</ele><time>2026-04-18T08:06:03.343Z</time></trkpt><trkpt lat="43.5495344" lon="10.8226196"><ele>146.66666666666669</ele><time>2026-04-18T08:06:04.342Z</time></trkpt><trkpt lat="43.549384" lon="10.8225746"><ele>145.0</ele><time>2026-04-18T08:06:05.345Z</time></trkpt><trkpt lat="43.5492363" lon="10.8225358"><ele>145.0</ele><time>2026-04-18T08:06:06.345Z</time></trkpt><trkpt lat="43.5491007" lon="10.8224966"><ele>145.0</ele><time>2026-04-18T08:06:07.345Z</time></trkpt><trkpt lat="43.5489675" lon="10.8224543"><ele>145.0</ele><time>2026-04-18T08:06:08.345Z</time></trkpt><trkpt lat="43.5488392" lon="10.8224089"><ele>145.0</ele><time>2026-04-18T08:06:09.341Z</time></trkpt><trkpt lat="43.5487127" lon="10.8223564"><ele>147.25</ele><time>2026-04-18T08:06:10.342Z</time></trkpt><trkpt lat="43.5485911" lon="10.8222902"><ele>149.5</ele><time>2026-04-18T08:06:11.341Z</time></trkpt><trkpt lat="43.5484787" lon="10.822203"><ele>151.75</ele><time>2026-04-18T08:06:12.341Z</time></trkpt><trkpt lat="43.5483719" lon="10.8220976"><ele>154.0</ele><time>2026-04-18T08:06:13.341Z</time></trkpt><trkpt lat="43.5482792" lon="10.8219822"><ele>154.0</ele><time>2026-04-18T08:06:14.343Z</time></trkpt><trkpt lat="43.5481961" lon="10.8218676"><ele>154.0</ele><time>2026-04-18T08:06:15.345Z</time></trkpt><trkpt lat="43.5481197" lon="10.8217576"><ele>154.0</ele><time>2026-04-18T08:06:16.341Z</time></trkpt><trkpt lat="43.5480514" lon="10.8216505"><ele>154.0</ele><time>2026-04-18T08:06:17.342Z</time></trkpt><trkpt lat="43.5479857" lon="10.8215484"><ele>154.0</ele><time>2026-04-18T08:06:18.341Z</time></trkpt><trkpt lat="43.5479269" lon="10.8214533"><ele>151.8</ele><time>2026-04-18T08:06:19.342Z</time></trkpt><trkpt lat="43.5478751" lon="10.8213769"><ele>149.60000000000002</ele><time>2026-04-18T08:06:20.345Z</time></trkpt><trkpt lat="43.5477867" lon="10.8212515"><ele>147.4</ele><time>2026-04-18T08:06:22.342Z</time></trkpt><trkpt lat="43.5477292" lon="10.8211824"><ele>145.20000000000002</ele><time>2026-04-18T08:06:23.341Z</time></trkpt><trkpt lat="43.5476652" lon="10.8211018"><ele>143.0</ele><time>2026-04-18T08:06:24.343Z</time></trkpt><trkpt lat="43.5475981" lon="10.8210158"><ele>143.16666666666666</ele><time>2026-04-18T08:06:25.342Z</time></trkpt><trkpt lat="43.5475264" lon="10.8209259"><ele>143.33333333333331</ele><time>2026-04-18T08:06:26.343Z</time></trkpt><trkpt lat="43.5474607" lon="10.8208344"><ele>143.5</ele><time>2026-04-18T08:06:27.342Z</time></trkpt><trkpt lat="43.5474007" lon="10.8207468"><ele>143.66666666666666</ele><time>2026-04-18T08:06:28.342Z</time></trkpt><trkpt lat="43.5473397" lon="10.8206586"><ele>143.83333333333334</ele><time>2026-04-18T08:06:29.341Z</time></trkpt><trkpt lat="43.5472855" lon="10.8205773"><ele>144.0</ele><time>2026-04-18T08:06:30.343Z</time></trkpt><trkpt lat="43.5472357" lon="10.8205054"><ele>144.0</ele><time>2026-04-18T08:06:31.342Z</time></trkpt><trkpt lat="43.5471922" lon="10.8204378"><ele>144.0</ele><time>2026-04-18T08:06:32.343Z</time></trkpt><trkpt lat="43.5470867" lon="10.820355"><ele>144.0</ele><time>2026-04-18T08:06:34.346Z</time></trkpt><trkpt lat="43.5470227" lon="10.8203526"><ele>144.0</ele><time>2026-04-18T08:06:35.343Z</time></trkpt><trkpt lat="43.5469543" lon="10.8203788"><ele>144.0</ele><time>2026-04-18T08:06:36.344Z</time></trkpt><trkpt lat="43.5468927" lon="10.8204323"><ele>144.0</ele><time>2026-04-18T08:06:37.343Z</time></trkpt><trkpt lat="43.5468389" lon="10.8205061"><ele>141.0</ele><time>2026-04-18T08:06:38.346Z</time></trkpt><trkpt lat="43.5467878" lon="10.8206035"><ele>138.0</ele><time>2026-04-18T08:06:39.345Z</time></trkpt><trkpt lat="43.5467565" lon="10.8207433"><ele>135.0</ele><time>2026-04-18T08:06:40.346Z</time></trkpt><trkpt lat="43.5467277" lon="10.8209016"><ele>132.0</ele><time>2026-04-18T08:06:41.345Z</time></trkpt><trkpt lat="43.5467042" lon="10.8210653"><ele>129.0</ele><time>2026-04-18T08:06:42.345Z</time></trkpt><trkpt lat="43.546676" lon="10.8212169"><ele>128.6</ele><time>2026-04-18T08:06:43.343Z</time></trkpt><trkpt lat="43.5466461" lon="10.8213624"><ele>128.2</ele><time>2026-04-18T08:06:44.345Z</time></trkpt><trkpt lat="43.5466182" lon="10.8215069"><ele>127.79999999999998</ele><time>2026-04-18T08:06:45.343Z</time></trkpt><trkpt lat="43.5465898" lon="10.821647"><ele>127.39999999999999</ele><time>2026-04-18T08:06:46.343Z</time></trkpt><trkpt lat="43.5465598" lon="10.8217855"><ele>127.0</ele><time>2026-04-18T08:06:47.346Z</time></trkpt><trkpt lat="43.5465299" lon="10.8219234"><ele>126.50000000000001</ele><time>2026-04-18T08:06:48.341Z</time></trkpt><trkpt lat="43.5464973" lon="10.8220633"><ele>126.0</ele><time>2026-04-18T08:06:49.344Z</time></trkpt><trkpt lat="43.5464695" lon="10.8221902"><ele>125.5</ele><time>2026-04-18T08:06:50.344Z</time></trkpt><trkpt lat="43.5464458" lon="10.8223056"><ele>125.0</ele><time>2026-04-18T08:06:51.347Z</time></trkpt><trkpt lat="43.5464199" lon="10.8224084"><ele>124.50000000000001</ele><time>2026-04-18T08:06:52.345Z</time></trkpt><trkpt lat="43.5463951" lon="10.8225046"><ele>124.0</ele><time>2026-04-18T08:06:53.342Z</time></trkpt><trkpt lat="43.5463745" lon="10.8225977"><ele>123.6</ele><time>2026-04-18T08:06:54.343Z</time></trkpt><trkpt lat="43.5463517" lon="10.8226814"><ele>123.2</ele><time>2026-04-18T08:06:55.344Z</time></trkpt><trkpt lat="43.5462945" lon="10.8228115"><ele>122.79999999999998</ele><time>2026-04-18T08:06:57.349Z</time></trkpt><trkpt lat="43.5462058" lon="10.8228779"><ele>122.39999999999999</ele><time>2026-04-18T08:06:59.345Z</time></trkpt><trkpt lat="43.5461018" lon="10.8228617"><ele>122.0</ele><time>2026-04-18T08:07:01.344Z</time></trkpt><trkpt lat="43.5459962" lon="10.8227593"><ele>119.6</ele><time>2026-04-18T08:07:03.347Z</time></trkpt><trkpt lat="43.5459415" lon="10.8226589"><ele>117.19999999999999</ele><time>2026-04-18T08:07:04.344Z</time></trkpt><trkpt lat="43.5458851" lon="10.8225307"><ele>114.8</ele><time>2026-04-18T08:07:05.344Z</time></trkpt><trkpt lat="43.545831" lon="10.8223893"><ele>112.4</ele><time>2026-04-18T08:07:06.344Z</time></trkpt><trkpt lat="43.5457764" lon="10.8222522"><ele>110.0</ele><time>2026-04-18T08:07:07.345Z</time></trkpt><trkpt lat="43.5457307" lon="10.822122"><ele>110.0</ele><time>2026-04-18T08:07:08.344Z</time></trkpt><trkpt lat="43.5456892" lon="10.8219803"><ele>110.0</ele><time>2026-04-18T08:07:09.344Z</time></trkpt><trkpt lat="43.5456521" lon="10.8218184"><ele>110.0</ele><time>2026-04-18T08:07:10.344Z</time></trkpt><trkpt lat="43.5456145" lon="10.8216399"><ele>110.0</ele><time>2026-04-18T08:07:11.344Z</time></trkpt><trkpt lat="43.5455779" lon="10.8214508"><ele>110.0</ele><time>2026-04-18T08:07:12.344Z</time></trkpt><trkpt lat="43.5455432" lon="10.8212684"><ele>110.0</ele><time>2026-04-18T08:07:13.344Z</time></trkpt><trkpt lat="43.5455086" lon="10.8210936"><ele>110.0</ele><time>2026-04-18T08:07:14.343Z</time></trkpt><trkpt lat="43.5454735" lon="10.8209327"><ele>110.0</ele><time>2026-04-18T08:07:15.345Z</time></trkpt><trkpt lat="43.5454384" lon="10.8207752"><ele>109.75</ele><time>2026-04-18T08:07:16.344Z</time></trkpt><trkpt lat="43.5453993" lon="10.8206264"><ele>109.5</ele><time>2026-04-18T08:07:17.344Z</time></trkpt><trkpt lat="43.5453571" lon="10.8204803"><ele>109.25</ele><time>2026-04-18T08:07:18.344Z</time></trkpt><trkpt lat="43.5453034" lon="10.820349"><ele>109.0</ele><time>2026-04-18T08:07:19.344Z</time></trkpt><trkpt lat="43.5452292" lon="10.8202314"><ele>106.0</ele><time>2026-04-18T08:07:20.346Z</time></trkpt><trkpt lat="43.5451401" lon="10.8201187"><ele>103.0</ele><time>2026-04-18T08:07:21.345Z</time></trkpt><trkpt lat="43.5450472" lon="10.8200069"><ele>100.0</ele><time>2026-04-18T08:07:22.342Z</time></trkpt><trkpt lat="43.5449548" lon="10.8198901"><ele>97.0</ele><time>2026-04-18T08:07:23.343Z</time></trkpt><trkpt lat="43.544871" lon="10.8197732"><ele>97.0</ele><time>2026-04-18T08:07:24.345Z</time></trkpt><trkpt lat="43.5448082" lon="10.8196471"><ele>97.0</ele><time>2026-04-18T08:07:25.345Z</time></trkpt><trkpt lat="43.5447568" lon="10.819513"><ele>97.0</ele><time>2026-04-18T08:07:26.345Z</time></trkpt><trkpt lat="43.5447151" lon="10.8193575"><ele>97.0</ele><time>2026-04-18T08:07:27.345Z</time></trkpt><trkpt lat="43.5446817" lon="10.8191826"><ele>98.0</ele><time>2026-04-18T08:07:28.342Z</time></trkpt><trkpt lat="43.5446512" lon="10.8189817"><ele>99.0</ele><time>2026-04-18T08:07:29.346Z</time></trkpt><trkpt lat="43.5446212" lon="10.8187561"><ele>100.0</ele><time>2026-04-18T08:07:30.346Z</time></trkpt><trkpt lat="43.5445884" lon="10.8185151"><ele>98.66666666666667</ele><time>2026-04-18T08:07:31.345Z</time></trkpt><trkpt lat="43.5445549" lon="10.818272"><ele>97.33333333333334</ele><time>2026-04-18T08:07:32.342Z</time></trkpt><trkpt lat="43.5445245" lon="10.8180366"><ele>96.0</ele><time>2026-04-18T08:07:33.342Z</time></trkpt><trkpt lat="43.5444951" lon="10.8178127"><ele>92.75</ele><time>2026-04-18T08:07:34.342Z</time></trkpt><trkpt lat="43.5444625" lon="10.8175986"><ele>89.5</ele><time>2026-04-18T08:07:35.341Z</time></trkpt><trkpt lat="43.5444316" lon="10.8174073"><ele>86.25</ele><time>2026-04-18T08:07:36.342Z</time></trkpt><trkpt lat="43.5444062" lon="10.8172465"><ele>83.0</ele><time>2026-04-18T08:07:37.342Z</time></trkpt><trkpt lat="43.5443802" lon="10.8171079"><ele>83.0</ele><time>2026-04-18T08:07:38.347Z</time></trkpt><trkpt lat="43.5443455" lon="10.8169846"><ele>83.0</ele><time>2026-04-18T08:07:39.342Z</time></trkpt><trkpt lat="43.5443019" lon="10.816879"><ele>83.0</ele><time>2026-04-18T08:07:40.342Z</time></trkpt><trkpt lat="43.5442478" lon="10.816793"><ele>83.0</ele><time>2026-04-18T08:07:41.342Z</time></trkpt><trkpt lat="43.5441802" lon="10.8167332"><ele>83.0</ele><time>2026-04-18T08:07:42.343Z</time></trkpt><trkpt lat="43.5440979" lon="10.8167024"><ele>83.0</ele><time>2026-04-18T08:07:43.342Z</time></trkpt><trkpt lat="43.5440038" lon="10.8167116"><ele>83.5</ele><time>2026-04-18T08:07:44.342Z</time></trkpt><trkpt lat="43.5439013" lon="10.8167378"><ele>84.0</ele><time>2026-04-18T08:07:45.343Z</time></trkpt><trkpt lat="43.5437694" lon="10.8167976"><ele>84.5</ele><time>2026-04-18T08:07:46.343Z</time></trkpt><trkpt lat="43.5436314" lon="10.8168694"><ele>85.0</ele><time>2026-04-18T08:07:47.345Z</time></trkpt><trkpt lat="43.5434888" lon="10.8169429"><ele>83.75</ele><time>2026-04-18T08:07:48.343Z</time></trkpt><trkpt lat="43.5433472" lon="10.8170141"><ele>82.5</ele><time>2026-04-18T08:07:49.344Z</time></trkpt><trkpt lat="43.5432177" lon="10.8170815"><ele>81.25</ele><time>2026-04-18T08:07:50.344Z</time></trkpt><trkpt lat="43.5431054" lon="10.8171346"><ele>80.0</ele><time>2026-04-18T08:07:51.346Z</time></trkpt><trkpt lat="43.5430107" lon="10.8171842"><ele>80.0</ele><time>2026-04-18T08:07:52.345Z</time></trkpt><trkpt lat="43.5429236" lon="10.8172474"><ele>80.0</ele><time>2026-04-18T08:07:53.342Z</time></trkpt><trkpt lat="43.5428422" lon="10.8173234"><ele>80.0</ele><time>2026-04-18T08:07:54.346Z</time></trkpt><trkpt lat="43.5427737" lon="10.817426"><ele>80.0</ele><time>2026-04-18T08:07:55.346Z</time></trkpt><trkpt lat="43.5427231" lon="10.8175509"><ele>80.0</ele><time>2026-04-18T08:07:56.346Z</time></trkpt><trkpt lat="43.5426854" lon="10.8176931"><ele>83.0</ele><time>2026-04-18T08:07:57.343Z</time></trkpt><trkpt lat="43.5426557" lon="10.817849"><ele>86.0</ele><time>2026-04-18T08:07:58.345Z</time></trkpt><trkpt lat="43.5426416" lon="10.8180329"><ele>89.0</ele><time>2026-04-18T08:07:59.346Z</time></trkpt><trkpt lat="43.5426313" lon="10.8182288"><ele>92.0</ele><time>2026-04-18T08:08:00.342Z</time></trkpt><trkpt lat="43.5426198" lon="10.8184391"><ele>93.66666666666667</ele><time>2026-04-18T08:08:01.347Z</time></trkpt><trkpt lat="43.5426066" lon="10.8186617"><ele>95.33333333333334</ele><time>2026-04-18T08:08:02.344Z</time></trkpt><trkpt lat="43.5425965" lon="10.8188899"><ele>97.0</ele><time>2026-04-18T08:08:03.345Z</time></trkpt><trkpt lat="43.542585" lon="10.8191087"><ele>97.0</ele><time>2026-04-18T08:08:04.345Z</time></trkpt><trkpt lat="43.5425716" lon="10.8193108"><ele>97.0</ele><time>2026-04-18T08:08:05.346Z</time></trkpt><trkpt lat="43.5425511" lon="10.8195013"><ele>97.0</ele><time>2026-04-18T08:08:06.345Z</time></trkpt><trkpt lat="43.5425271" lon="10.8196976"><ele>97.0</ele><time>2026-04-18T08:08:07.345Z</time></trkpt><trkpt lat="43.5425013" lon="10.8198949"><ele>98.0</ele><time>2026-04-18T08:08:08.342Z</time></trkpt><trkpt lat="43.5424692" lon="10.8200882"><ele>99.0</ele><time>2026-04-18T08:08:09.342Z</time></trkpt><trkpt lat="43.5424339" lon="10.8202814"><ele>100.0</ele><time>2026-04-18T08:08:10.342Z</time></trkpt><trkpt lat="43.5423953" lon="10.8204717"><ele>101.0</ele><time>2026-04-18T08:08:11.343Z</time></trkpt><trkpt lat="43.5423523" lon="10.8206575"><ele>101.75</ele><time>2026-04-18T08:08:12.343Z</time></trkpt><trkpt lat="43.5423072" lon="10.8208368"><ele>102.5</ele><time>2026-04-18T08:08:13.342Z</time></trkpt><trkpt lat="43.5422541" lon="10.821009"><ele>103.25</ele><time>2026-04-18T08:08:14.343Z</time></trkpt><trkpt lat="43.5421858" lon="10.8211723"><ele>104.0</ele><time>2026-04-18T08:08:15.343Z</time></trkpt><trkpt lat="43.5421039" lon="10.8213306"><ele>108.0</ele><time>2026-04-18T08:08:16.342Z</time></trkpt><trkpt lat="43.5420164" lon="10.8214797"><ele>112.0</ele><time>2026-04-18T08:08:17.342Z</time></trkpt><trkpt lat="43.5419333" lon="10.8216318"><ele>116.0</ele><time>2026-04-18T08:08:18.343Z</time></trkpt><trkpt lat="43.5418639" lon="10.8217988"><ele>120.0</ele><time>2026-04-18T08:08:19.345Z</time></trkpt><trkpt lat="43.5418107" lon="10.8219702"><ele>120.5</ele><time>2026-04-18T08:08:20.343Z</time></trkpt><trkpt lat="43.5417817" lon="10.8221374"><ele>121.0</ele><time>2026-04-18T08:08:21.345Z</time></trkpt><trkpt lat="43.5417699" lon="10.8223081"><ele>121.5</ele><time>2026-04-18T08:08:22.347Z</time></trkpt><trkpt lat="43.5417674" lon="10.8224796"><ele>122.0</ele><time>2026-04-18T08:08:23.342Z</time></trkpt><trkpt lat="43.5417677" lon="10.8226482"><ele>122.75</ele><time>2026-04-18T08:08:24.343Z</time></trkpt><trkpt lat="43.5417548" lon="10.8228121"><ele>123.5</ele><time>2026-04-18T08:08:25.345Z</time></trkpt><trkpt lat="43.5417298" lon="10.8229768"><ele>124.25</ele><time>2026-04-18T08:08:26.342Z</time></trkpt><trkpt lat="43.5416918" lon="10.8231447"><ele>125.0</ele><time>2026-04-18T08:08:27.347Z</time></trkpt><trkpt lat="43.541649" lon="10.8233087"><ele>125.0</ele><time>2026-04-18T08:08:28.342Z</time></trkpt><trkpt lat="43.5416005" lon="10.8234874"><ele>125.0</ele><time>2026-04-18T08:08:29.346Z</time></trkpt><trkpt lat="43.541544" lon="10.823676"><ele>125.0</ele><time>2026-04-18T08:08:30.345Z</time></trkpt><trkpt lat="43.5414776" lon="10.8238794"><ele>125.0</ele><time>2026-04-18T08:08:31.345Z</time></trkpt><trkpt lat="43.5414123" lon="10.8240802"><ele>125.0</ele><time>2026-04-18T08:08:32.342Z</time></trkpt><trkpt lat="43.5413498" lon="10.8242639"><ele>125.0</ele><time>2026-04-18T08:08:33.343Z</time></trkpt><trkpt lat="43.5412961" lon="10.8244288"><ele>125.0</ele><time>2026-04-18T08:08:34.342Z</time></trkpt><trkpt lat="43.5412475" lon="10.824574"><ele>125.0</ele><time>2026-04-18T08:08:35.342Z</time></trkpt><trkpt lat="43.5412043" lon="10.8247173"><ele>129.0</ele><time>2026-04-18T08:08:36.347Z</time></trkpt><trkpt lat="43.5411617" lon="10.8248633"><ele>133.0</ele><time>2026-04-18T08:08:37.342Z</time></trkpt><trkpt lat="43.54112" lon="10.8250148"><ele>137.0</ele><time>2026-04-18T08:08:38.343Z</time></trkpt><trkpt lat="43.5410755" lon="10.8251803"><ele>141.0</ele><time>2026-04-18T08:08:39.342Z</time></trkpt><trkpt lat="43.5410244" lon="10.8253643"><ele>141.0</ele><time>2026-04-18T08:08:40.342Z</time></trkpt><trkpt lat="43.5409694" lon="10.8255627"><ele>141.0</ele><time>2026-04-18T08:08:41.342Z</time></trkpt><trkpt lat="43.5409124" lon="10.8257732"><ele>141.0</ele><time>2026-04-18T08:08:42.342Z</time></trkpt><trkpt lat="43.5408508" lon="10.8260057"><ele>141.66666666666666</ele><time>2026-04-18T08:08:43.345Z</time></trkpt><trkpt lat="43.5407887" lon="10.8262408"><ele>142.33333333333331</ele><time>2026-04-18T08:08:44.342Z</time></trkpt><trkpt lat="43.54073" lon="10.8264578"><ele>143.0</ele><time>2026-04-18T08:08:45.344Z</time></trkpt><trkpt lat="43.5406778" lon="10.8266581"><ele>142.5</ele><time>2026-04-18T08:08:46.342Z</time></trkpt><trkpt lat="43.5406303" lon="10.8268411"><ele>142.0</ele><time>2026-04-18T08:08:47.342Z</time></trkpt><trkpt lat="43.5405831" lon="10.8270121"><ele>141.5</ele><time>2026-04-18T08:08:48.342Z</time></trkpt><trkpt lat="43.5405288" lon="10.8271825"><ele>141.0</ele><time>2026-04-18T08:08:49.343Z</time></trkpt><trkpt lat="43.5404667" lon="10.8273527"><ele>141.0</ele><time>2026-04-18T08:08:50.342Z</time></trkpt><trkpt lat="43.5404046" lon="10.8275197"><ele>141.0</ele><time>2026-04-18T08:08:51.345Z</time></trkpt><trkpt lat="43.5403358" lon="10.8276723"><ele>141.0</ele><time>2026-04-18T08:08:52.342Z</time></trkpt><trkpt lat="43.5402666" lon="10.8277997"><ele>141.0</ele><time>2026-04-18T08:08:53.346Z</time></trkpt><trkpt lat="43.5402012" lon="10.8279046"><ele>143.0</ele><time>2026-04-18T08:08:54.342Z</time></trkpt><trkpt lat="43.5401424" lon="10.8279978"><ele>145.0</ele><time>2026-04-18T08:08:55.345Z</time></trkpt><trkpt lat="43.5400983" lon="10.8280748"><ele>147.0</ele><time>2026-04-18T08:08:56.346Z</time></trkpt><trkpt lat="43.5400479" lon="10.8281874"><ele>149.0</ele><time>2026-04-18T08:08:58.346Z</time></trkpt><trkpt lat="43.5400277" lon="10.8283309"><ele>151.0</ele><time>2026-04-18T08:09:00.344Z</time></trkpt><trkpt lat="43.5400391" lon="10.828498"><ele>151.2</ele><time>2026-04-18T08:09:02.344Z</time></trkpt><trkpt lat="43.5400529" lon="10.8285972"><ele>151.39999999999998</ele><time>2026-04-18T08:09:03.344Z</time></trkpt><trkpt lat="43.5400729" lon="10.8287117"><ele>151.6</ele><time>2026-04-18T08:09:04.344Z</time></trkpt><trkpt lat="43.5400945" lon="10.8288491"><ele>151.79999999999998</ele><time>2026-04-18T08:09:05.344Z</time></trkpt><trkpt lat="43.540118" lon="10.8290059"><ele>152.0</ele><time>2026-04-18T08:09:06.344Z</time></trkpt><trkpt lat="43.5401443" lon="10.8291778"><ele>152.25</ele><time>2026-04-18T08:09:07.348Z</time></trkpt><trkpt lat="43.5401712" lon="10.8293557"><ele>152.5</ele><time>2026-04-18T08:09:08.346Z</time></trkpt><trkpt lat="43.5401982" lon="10.8295309"><ele>152.75</ele><time>2026-04-18T08:09:09.345Z</time></trkpt><trkpt lat="43.5402219" lon="10.829699"><ele>153.0</ele><time>2026-04-18T08:09:10.342Z</time></trkpt><trkpt lat="43.540245" lon="10.8298675"><ele>153.0</ele><time>2026-04-18T08:09:11.344Z</time></trkpt><trkpt lat="43.5402681" lon="10.8300454"><ele>153.0</ele><time>2026-04-18T08:09:12.346Z</time></trkpt><trkpt lat="43.5402866" lon="10.8302292"><ele>153.0</ele><time>2026-04-18T08:09:13.342Z</time></trkpt><trkpt lat="43.5402959" lon="10.8304166"><ele>153.0</ele><time>2026-04-18T08:09:14.347Z</time></trkpt><trkpt lat="43.5402973" lon="10.8305999"><ele>154.0</ele><time>2026-04-18T08:09:15.344Z</time></trkpt><trkpt lat="43.5402936" lon="10.8307806"><ele>155.0</ele><time>2026-04-18T08:09:16.344Z</time></trkpt><trkpt lat="43.5402871" lon="10.8309603"><ele>156.0</ele><time>2026-04-18T08:09:17.345Z</time></trkpt><trkpt lat="43.5402758" lon="10.8311386"><ele>157.0</ele><time>2026-04-18T08:09:18.346Z</time></trkpt><trkpt lat="43.5402618" lon="10.8313185"><ele>158.25</ele><time>2026-04-18T08:09:19.342Z</time></trkpt><trkpt lat="43.5402498" lon="10.8314907"><ele>159.5</ele><time>2026-04-18T08:09:20.343Z</time></trkpt><trkpt lat="43.5402412" lon="10.8316626"><ele>160.75</ele><time>2026-04-18T08:09:21.343Z</time></trkpt><trkpt lat="43.5402325" lon="10.8318323"><ele>162.0</ele><time>2026-04-18T08:09:22.342Z</time></trkpt><trkpt lat="43.5402301" lon="10.8320004"><ele>162.25</ele><time>2026-04-18T08:09:23.344Z</time></trkpt><trkpt lat="43.5402392" lon="10.8321632"><ele>162.5</ele><time>2026-04-18T08:09:24.342Z</time></trkpt><trkpt lat="43.5402579" lon="10.8323256"><ele>162.75</ele><time>2026-04-18T08:09:25.342Z</time></trkpt><trkpt lat="43.5402834" lon="10.8324964"><ele>163.0</ele><time>2026-04-18T08:09:26.346Z</time></trkpt><trkpt lat="43.5403164" lon="10.8326659"><ele>163.0</ele><time>2026-04-18T08:09:27.342Z</time></trkpt><trkpt lat="43.5403425" lon="10.8328207"><ele>163.0</ele><time>2026-04-18T08:09:28.347Z</time></trkpt><trkpt lat="43.5403613" lon="10.8329565"><ele>163.0</ele><time>2026-04-18T08:09:29.345Z</time></trkpt><trkpt lat="43.5403738" lon="10.8330919"><ele>163.0</ele><time>2026-04-18T08:09:30.344Z</time></trkpt><trkpt lat="43.5403824" lon="10.8332315"><ele>163.0</ele><time>2026-04-18T08:09:31.344Z</time></trkpt><trkpt lat="43.5403891" lon="10.8333881"><ele>163.5</ele><time>2026-04-18T08:09:32.342Z</time></trkpt><trkpt lat="43.5403897" lon="10.8335611"><ele>164.0</ele><time>2026-04-18T08:09:33.348Z</time></trkpt><trkpt lat="43.5403847" lon="10.8337526"><ele>164.5</ele><time>2026-04-18T08:09:34.345Z</time></trkpt><trkpt lat="43.5403793" lon="10.8339503"><ele>165.0</ele><time>2026-04-18T08:09:35.344Z</time></trkpt><trkpt lat="43.5403725" lon="10.8341535"><ele>163.66666666666666</ele><time>2026-04-18T08:09:36.343Z</time></trkpt><trkpt lat="43.5403654" lon="10.8343592"><ele>162.33333333333331</ele><time>2026-04-18T08:09:37.345Z</time></trkpt><trkpt lat="43.540354" lon="10.8345673"><ele>161.0</ele><time>2026-04-18T08:09:38.345Z</time></trkpt><trkpt lat="43.5403363" lon="10.8347762"><ele>161.0</ele><time>2026-04-18T08:09:39.347Z</time></trkpt><trkpt lat="43.5403238" lon="10.8349782"><ele>161.0</ele><time>2026-04-18T08:09:40.344Z</time></trkpt><trkpt lat="43.5403113" lon="10.8351735"><ele>161.0</ele><time>2026-04-18T08:09:41.346Z</time></trkpt><trkpt lat="43.5402975" lon="10.8353557"><ele>161.0</ele><time>2026-04-18T08:09:42.343Z</time></trkpt><trkpt lat="43.5402901" lon="10.8355257"><ele>160.8</ele><time>2026-04-18T08:09:43.346Z</time></trkpt><trkpt lat="43.5402821" lon="10.8356825"><ele>160.60000000000002</ele><time>2026-04-18T08:09:44.343Z</time></trkpt><trkpt lat="43.5402724" lon="10.8358354"><ele>160.4</ele><time>2026-04-18T08:09:45.343Z</time></trkpt><trkpt lat="43.5402647" lon="10.8359824"><ele>160.2</ele><time>2026-04-18T08:09:46.346Z</time></trkpt><trkpt lat="43.5402579" lon="10.8361272"><ele>160.0</ele><time>2026-04-18T08:09:47.342Z</time></trkpt><trkpt lat="43.5402566" lon="10.836272"><ele>159.25</ele><time>2026-04-18T08:09:48.344Z</time></trkpt><trkpt lat="43.5402535" lon="10.8364228"><ele>158.5</ele><time>2026-04-18T08:09:49.344Z</time></trkpt><trkpt lat="43.540253" lon="10.8365763"><ele>157.75</ele><time>2026-04-18T08:09:50.345Z</time></trkpt><trkpt lat="43.5402564" lon="10.836745"><ele>157.0</ele><time>2026-04-18T08:09:51.346Z</time></trkpt><trkpt lat="43.5402633" lon="10.8369257"><ele>157.0</ele><time>2026-04-18T08:09:52.344Z</time></trkpt><trkpt lat="43.5402732" lon="10.8371111"><ele>157.0</ele><time>2026-04-18T08:09:53.345Z</time></trkpt><trkpt lat="43.5402878" lon="10.8373024"><ele>157.0</ele><time>2026-04-18T08:09:54.344Z</time></trkpt><trkpt lat="43.5403124" lon="10.837499"><ele>157.0</ele><time>2026-04-18T08:09:55.344Z</time></trkpt><trkpt lat="43.5403453" lon="10.8376981"><ele>157.66666666666669</ele><time>2026-04-18T08:09:56.345Z</time></trkpt><trkpt lat="43.5403796" lon="10.8379096"><ele>158.33333333333334</ele><time>2026-04-18T08:09:57.345Z</time></trkpt><trkpt lat="43.5404164" lon="10.8381229"><ele>159.0</ele><time>2026-04-18T08:09:58.345Z</time></trkpt><trkpt lat="43.5404518" lon="10.8383423"><ele>162.0</ele><time>2026-04-18T08:09:59.343Z</time></trkpt><trkpt lat="43.5404883" lon="10.8385683"><ele>165.0</ele><time>2026-04-18T08:10:00.346Z</time></trkpt><trkpt lat="43.5405277" lon="10.8387963"><ele>168.0</ele><time>2026-04-18T08:10:01.344Z</time></trkpt><trkpt lat="43.5405664" lon="10.8390252"><ele>168.0</ele><time>2026-04-18T08:10:02.346Z</time></trkpt><trkpt lat="43.5406075" lon="10.8392563"><ele>168.0</ele><time>2026-04-18T08:10:03.343Z</time></trkpt><trkpt lat="43.5406484" lon="10.8394778"><ele>168.0</ele><time>2026-04-18T08:10:04.346Z</time></trkpt><trkpt lat="43.5406841" lon="10.8396631"><ele>169.4</ele><time>2026-04-18T08:10:05.346Z</time></trkpt><trkpt lat="43.5407087" lon="10.8397979"><ele>170.8</ele><time>2026-04-18T08:10:06.343Z</time></trkpt><trkpt lat="43.5407214" lon="10.8399015"><ele>172.2</ele><time>2026-04-18T08:10:07.347Z</time></trkpt><trkpt lat="43.5407062" lon="10.839736"><ele>173.6</ele><time>2026-04-18T08:10:45.343Z</time></trkpt><trkpt lat="43.5406617" lon="10.8396652"><ele>175.0</ele><time>2026-04-18T08:10:49.343Z</time></trkpt><trkpt lat="43.5405734" lon="10.8396064"><ele>175.0</ele><time>2026-04-18T08:10:51.343Z</time></trkpt><trkpt lat="43.5405115" lon="10.8395769"><ele>175.0</ele><time>2026-04-18T08:10:52.343Z</time></trkpt><trkpt lat="43.5404499" lon="10.839556"><ele>175.0</ele><time>2026-04-18T08:10:53.342Z</time></trkpt><trkpt lat="43.540355" lon="10.839546"><ele>175.0</ele><time>2026-04-18T08:10:55.346Z</time></trkpt><trkpt lat="43.5402684" lon="10.8395175"><ele>175.0</ele><time>2026-04-18T08:10:58.347Z</time></trkpt><trkpt lat="43.5401758" lon="10.8394613"><ele>175.0</ele><time>2026-04-18T08:11:00.345Z</time></trkpt><trkpt lat="43.5401127" lon="10.8394212"><ele>175.2</ele><time>2026-04-18T08:11:01.343Z</time></trkpt><trkpt lat="43.5400409" lon="10.8393698"><ele>175.4</ele><time>2026-04-18T08:11:02.342Z</time></trkpt><trkpt lat="43.539965" lon="10.8393135"><ele>175.60000000000002</ele><time>2026-04-18T08:11:03.342Z</time></trkpt><trkpt lat="43.5398883" lon="10.8392507"><ele>175.8</ele><time>2026-04-18T08:11:04.343Z</time></trkpt><trkpt lat="43.5398074" lon="10.8391839"><ele>176.0</ele><time>2026-04-18T08:11:05.344Z</time></trkpt><trkpt lat="43.5397222" lon="10.8391109"><ele>175.0</ele><time>2026-04-18T08:11:06.342Z</time></trkpt><trkpt lat="43.5396398" lon="10.8390412"><ele>174.0</ele><time>2026-04-18T08:11:07.342Z</time></trkpt><trkpt lat="43.5395614" lon="10.8389792"><ele>173.0</ele><time>2026-04-18T08:11:08.343Z</time></trkpt><trkpt lat="43.5394893" lon="10.838922"><ele>172.0</ele><time>2026-04-18T08:11:09.342Z</time></trkpt><trkpt lat="43.5394181" lon="10.8388635"><ele>171.0</ele><time>2026-04-18T08:11:10.343Z</time></trkpt><trkpt lat="43.5393468" lon="10.8388035"><ele>170.0</ele><time>2026-04-18T08:11:11.342Z</time></trkpt><trkpt lat="43.5392782" lon="10.8387424"><ele>169.83333333333331</ele><time>2026-04-18T08:11:12.343Z</time></trkpt><trkpt lat="43.5392071" lon="10.8386791"><ele>169.66666666666666</ele><time>2026-04-18T08:11:13.341Z</time></trkpt><trkpt lat="43.5391318" lon="10.8386139"><ele>169.5</ele><time>2026-04-18T08:11:14.342Z</time></trkpt><trkpt lat="43.5390564" lon="10.8385472"><ele>169.33333333333334</ele><time>2026-04-18T08:11:15.343Z</time></trkpt><trkpt lat="43.5389825" lon="10.8384849"><ele>169.16666666666669</ele><time>2026-04-18T08:11:16.341Z</time></trkpt><trkpt lat="43.5389081" lon="10.8384222"><ele>169.0</ele><time>2026-04-18T08:11:17.343Z</time></trkpt><trkpt lat="43.5388228" lon="10.8383592"><ele>168.33333333333334</ele><time>2026-04-18T08:11:18.342Z</time></trkpt><trkpt lat="43.5387328" lon="10.838293"><ele>167.66666666666669</ele><time>2026-04-18T08:11:19.342Z</time></trkpt><trkpt lat="43.5386454" lon="10.8382273"><ele>167.0</ele><time>2026-04-18T08:11:20.342Z</time></trkpt><trkpt lat="43.538566" lon="10.838162"><ele>166.33333333333334</ele><time>2026-04-18T08:11:21.343Z</time></trkpt><trkpt lat="43.5384957" lon="10.8381049"><ele>165.66666666666666</ele><time>2026-04-18T08:11:22.341Z</time></trkpt><trkpt lat="43.5384327" lon="10.8380515"><ele>165.0</ele><time>2026-04-18T08:11:23.341Z</time></trkpt><trkpt lat="43.538378" lon="10.8380075"><ele>165.0</ele><time>2026-04-18T08:11:24.343Z</time></trkpt><trkpt lat="43.5382818" lon="10.8379308"><ele>165.0</ele><time>2026-04-18T08:11:26.342Z</time></trkpt><trkpt lat="43.5381794" lon="10.8378433"><ele>165.0</ele><time>2026-04-18T08:11:28.342Z</time></trkpt><trkpt lat="43.5380751" lon="10.8377486"><ele>165.0</ele><time>2026-04-18T08:11:30.345Z</time></trkpt><trkpt lat="43.5380216" lon="10.8376961"><ele>165.0</ele><time>2026-04-18T08:11:31.341Z</time></trkpt><trkpt lat="43.537967" lon="10.8376498"><ele>164.00000000000003</ele><time>2026-04-18T08:11:32.342Z</time></trkpt><trkpt lat="43.5379121" lon="10.8376054"><ele>163.0</ele><time>2026-04-18T08:11:33.343Z</time></trkpt><trkpt lat="43.5378536" lon="10.8375567"><ele>162.0</ele><time>2026-04-18T08:11:34.342Z</time></trkpt><trkpt lat="43.537795" lon="10.8375094"><ele>161.0</ele><time>2026-04-18T08:11:35.341Z</time></trkpt><trkpt lat="43.5377385" lon="10.8374679"><ele>160.0</ele><time>2026-04-18T08:11:36.343Z</time></trkpt><trkpt lat="43.5376777" lon="10.837431"><ele>159.00000000000003</ele><time>2026-04-18T08:11:37.342Z</time></trkpt><trkpt lat="43.5376094" lon="10.8373916"><ele>158.0</ele><time>2026-04-18T08:11:38.343Z</time></trkpt><trkpt lat="43.53754" lon="10.837349"><ele>158.0</ele><time>2026-04-18T08:11:39.342Z</time></trkpt><trkpt lat="43.537461" lon="10.8373086"><ele>158.0</ele><time>2026-04-18T08:11:40.341Z</time></trkpt><trkpt lat="43.5373775" lon="10.8372705"><ele>158.0</ele><time>2026-04-18T08:11:41.341Z</time></trkpt><trkpt lat="43.537292" lon="10.837242"><ele>158.0</ele><time>2026-04-18T08:11:42.341Z</time></trkpt><trkpt lat="43.5372068" lon="10.8372157"><ele>158.0</ele><time>2026-04-18T08:11:43.342Z</time></trkpt><trkpt lat="43.5371274" lon="10.8371859"><ele>158.0</ele><time>2026-04-18T08:11:44.344Z</time></trkpt><trkpt lat="43.5370567" lon="10.8371492"><ele>157.83333333333331</ele><time>2026-04-18T08:11:45.344Z</time></trkpt><trkpt lat="43.5369877" lon="10.8370989"><ele>157.66666666666666</ele><time>2026-04-18T08:11:46.342Z</time></trkpt><trkpt lat="43.5369166" lon="10.837035"><ele>157.5</ele><time>2026-04-18T08:11:47.342Z</time></trkpt><trkpt lat="43.5368406" lon="10.836964"><ele>157.33333333333334</ele><time>2026-04-18T08:11:48.347Z</time></trkpt><trkpt lat="43.536758" lon="10.836898"><ele>157.16666666666669</ele><time>2026-04-18T08:11:49.346Z</time></trkpt><trkpt lat="43.5366726" lon="10.8368352"><ele>157.0</ele><time>2026-04-18T08:11:50.343Z</time></trkpt><trkpt lat="43.536587" lon="10.8367744"><ele>157.0</ele><time>2026-04-18T08:11:51.343Z</time></trkpt><trkpt lat="43.5365032" lon="10.8367136"><ele>157.0</ele><time>2026-04-18T08:11:52.344Z</time></trkpt><trkpt lat="43.5364248" lon="10.836643"><ele>157.0</ele><time>2026-04-18T08:11:53.344Z</time></trkpt><trkpt lat="43.5363513" lon="10.8365648"><ele>157.0</ele><time>2026-04-18T08:11:54.344Z</time></trkpt><trkpt lat="43.5362843" lon="10.8364837"><ele>157.0</ele><time>2026-04-18T08:11:55.346Z</time></trkpt><trkpt lat="43.5362182" lon="10.8364049"><ele>159.16666666666669</ele><time>2026-04-18T08:11:56.345Z</time></trkpt><trkpt lat="43.5361456" lon="10.8363407"><ele>161.33333333333334</ele><time>2026-04-18T08:11:57.346Z</time></trkpt><trkpt lat="43.5360685" lon="10.8362938"><ele>163.5</ele><time>2026-04-18T08:11:58.345Z</time></trkpt><trkpt lat="43.535987" lon="10.8362488"><ele>165.66666666666666</ele><time>2026-04-18T08:11:59.342Z</time></trkpt><trkpt lat="43.5359137" lon="10.836196"><ele>167.83333333333331</ele><time>2026-04-18T08:12:00.343Z</time></trkpt><trkpt lat="43.5358476" lon="10.8361256"><ele>170.0</ele><time>2026-04-18T08:12:01.342Z</time></trkpt><trkpt lat="43.5357834" lon="10.8360358"><ele>168.4</ele><time>2026-04-18T08:12:02.342Z</time></trkpt><trkpt lat="43.5357172" lon="10.8359333"><ele>166.8</ele><time>2026-04-18T08:12:03.342Z</time></trkpt><trkpt lat="43.5356456" lon="10.8358246"><ele>165.2</ele><time>2026-04-18T08:12:04.341Z</time></trkpt><trkpt lat="43.5355665" lon="10.8357124"><ele>163.6</ele><time>2026-04-18T08:12:05.343Z</time></trkpt><trkpt lat="43.5354842" lon="10.8356003"><ele>162.0</ele><time>2026-04-18T08:12:06.343Z</time></trkpt><trkpt lat="43.5354003" lon="10.8354943"><ele>163.6</ele><time>2026-04-18T08:12:07.342Z</time></trkpt><trkpt lat="43.5353111" lon="10.8353958"><ele>165.2</ele><time>2026-04-18T08:12:08.342Z</time></trkpt><trkpt lat="43.5352222" lon="10.8353098"><ele>166.8</ele><time>2026-04-18T08:12:09.342Z</time></trkpt><trkpt lat="43.5351453" lon="10.8352456"><ele>168.4</ele><time>2026-04-18T08:12:10.342Z</time></trkpt><trkpt lat="43.5350741" lon="10.8351881"><ele>170.0</ele><time>2026-04-18T08:12:11.343Z</time></trkpt><trkpt lat="43.5350073" lon="10.8351311"><ele>170.0</ele><time>2026-04-18T08:12:12.342Z</time></trkpt><trkpt lat="43.5349545" lon="10.8350725"><ele>170.0</ele><time>2026-04-18T08:12:13.341Z</time></trkpt><trkpt lat="43.5348897" lon="10.8349534"><ele>170.0</ele><time>2026-04-18T08:12:15.342Z</time></trkpt><trkpt lat="43.5348302" lon="10.8347752"><ele>170.0</ele><time>2026-04-18T08:12:17.342Z</time></trkpt><trkpt lat="43.5347878" lon="10.8346695"><ele>170.0</ele><time>2026-04-18T08:12:18.345Z</time></trkpt><trkpt lat="43.5347373" lon="10.8345679"><ele>170.0</ele><time>2026-04-18T08:12:19.341Z</time></trkpt><trkpt lat="43.5346797" lon="10.834479"><ele>170.0</ele><time>2026-04-18T08:12:20.342Z</time></trkpt><trkpt lat="43.5346118" lon="10.8343918"><ele>170.0</ele><time>2026-04-18T08:12:21.342Z</time></trkpt><trkpt lat="43.5345364" lon="10.834296"><ele>170.0</ele><time>2026-04-18T08:12:22.342Z</time></trkpt><trkpt lat="43.5344547" lon="10.8342002"><ele>170.0</ele><time>2026-04-18T08:12:23.347Z</time></trkpt><trkpt lat="43.5343765" lon="10.8341139"><ele>170.33333333333331</ele><time>2026-04-18T08:12:24.346Z</time></trkpt><trkpt lat="43.5343031" lon="10.8340413"><ele>170.66666666666666</ele><time>2026-04-18T08:12:25.346Z</time></trkpt><trkpt lat="43.5342366" lon="10.8339763"><ele>171.0</ele><time>2026-04-18T08:12:26.342Z</time></trkpt><trkpt lat="43.5341749" lon="10.8339194"><ele>171.33333333333334</ele><time>2026-04-18T08:12:27.343Z</time></trkpt><trkpt lat="43.5341153" lon="10.8338696"><ele>171.66666666666669</ele><time>2026-04-18T08:12:28.342Z</time></trkpt><trkpt lat="43.5340536" lon="10.8338209"><ele>172.0</ele><time>2026-04-18T08:12:29.345Z</time></trkpt><trkpt lat="43.5339868" lon="10.8337661"><ele>172.0</ele><time>2026-04-18T08:12:30.342Z</time></trkpt><trkpt lat="43.5339184" lon="10.8336997"><ele>172.0</ele><time>2026-04-18T08:12:31.345Z</time></trkpt><trkpt lat="43.5338573" lon="10.8336095"><ele>172.0</ele><time>2026-04-18T08:12:32.345Z</time></trkpt><trkpt lat="43.5338048" lon="10.8335058"><ele>172.0</ele><time>2026-04-18T08:12:33.344Z</time></trkpt><trkpt lat="43.5337539" lon="10.8333994"><ele>172.0</ele><time>2026-04-18T08:12:34.345Z</time></trkpt><trkpt lat="43.5336984" lon="10.8332928"><ele>171.39999999999998</ele><time>2026-04-18T08:12:35.341Z</time></trkpt><trkpt lat="43.5336356" lon="10.833184"><ele>170.79999999999998</ele><time>2026-04-18T08:12:36.342Z</time></trkpt><trkpt lat="43.5335668" lon="10.8330723"><ele>170.2</ele><time>2026-04-18T08:12:37.342Z</time></trkpt><trkpt lat="43.5335025" lon="10.8329557"><ele>169.6</ele><time>2026-04-18T08:12:38.343Z</time></trkpt><trkpt lat="43.5334458" lon="10.8328313"><ele>169.0</ele><time>2026-04-18T08:12:39.342Z</time></trkpt><trkpt lat="43.53339" lon="10.8326949"><ele>169.2</ele><time>2026-04-18T08:12:40.342Z</time></trkpt><trkpt lat="43.5333395" lon="10.8325617"><ele>169.39999999999998</ele><time>2026-04-18T08:12:41.345Z</time></trkpt><trkpt lat="43.5332912" lon="10.8324364"><ele>169.6</ele><time>2026-04-18T08:12:42.342Z</time></trkpt><trkpt lat="43.5332359" lon="10.8323266"><ele>169.8</ele><time>2026-04-18T08:12:43.342Z</time></trkpt><trkpt lat="43.5331696" lon="10.8322225"><ele>170.0</ele><time>2026-04-18T08:12:44.342Z</time></trkpt><trkpt lat="43.5330959" lon="10.8321181"><ele>170.0</ele><time>2026-04-18T08:12:45.343Z</time></trkpt><trkpt lat="43.5330174" lon="10.8320117"><ele>170.0</ele><time>2026-04-18T08:12:46.342Z</time></trkpt><trkpt lat="43.5329444" lon="10.8318962"><ele>170.0</ele><time>2026-04-18T08:12:47.342Z</time></trkpt><trkpt lat="43.5328773" lon="10.8317739"><ele>170.0</ele><time>2026-04-18T08:12:48.342Z</time></trkpt><trkpt lat="43.5328201" lon="10.8316526"><ele>170.0</ele><time>2026-04-18T08:12:49.348Z</time></trkpt><trkpt lat="43.532772" lon="10.8315394"><ele>170.0</ele><time>2026-04-18T08:12:50.345Z</time></trkpt><trkpt lat="43.5327263" lon="10.8314405"><ele>170.0</ele><time>2026-04-18T08:12:51.345Z</time></trkpt><trkpt lat="43.53268" lon="10.8313492"><ele>170.0</ele><time>2026-04-18T08:12:52.346Z</time></trkpt><trkpt lat="43.5326336" lon="10.8312667"><ele>170.0</ele><time>2026-04-18T08:12:53.345Z</time></trkpt><trkpt lat="43.5325844" lon="10.8311939"><ele>170.0</ele><time>2026-04-18T08:12:54.347Z</time></trkpt><trkpt lat="43.5325279" lon="10.8311256"><ele>170.0</ele><time>2026-04-18T08:12:55.345Z</time></trkpt><trkpt lat="43.5324655" lon="10.8310598"><ele>170.0</ele><time>2026-04-18T08:12:56.342Z</time></trkpt><trkpt lat="43.5323929" lon="10.830993"><ele>170.0</ele><time>2026-04-18T08:12:57.344Z</time></trkpt><trkpt lat="43.5323127" lon="10.8309294"><ele>170.0</ele><time>2026-04-18T08:12:58.344Z</time></trkpt><trkpt lat="43.5322287" lon="10.8308797"><ele>170.0</ele><time>2026-04-18T08:12:59.344Z</time></trkpt><trkpt lat="43.5321427" lon="10.830836"><ele>170.0</ele><time>2026-04-18T08:13:00.344Z</time></trkpt><trkpt lat="43.5320492" lon="10.8307902"><ele>172.2</ele><time>2026-04-18T08:13:01.345Z</time></trkpt><trkpt lat="43.5319511" lon="10.830742"><ele>174.4</ele><time>2026-04-18T08:13:02.343Z</time></trkpt><trkpt lat="43.5318549" lon="10.8306948"><ele>176.60000000000002</ele><time>2026-04-18T08:13:03.344Z</time></trkpt><trkpt lat="43.5317569" lon="10.8306494"><ele>178.8</ele><time>2026-04-18T08:13:04.347Z</time></trkpt><trkpt lat="43.5316632" lon="10.8306031"><ele>181.0</ele><time>2026-04-18T08:13:05.344Z</time></trkpt><trkpt lat="43.5315684" lon="10.8305547"><ele>181.0</ele><time>2026-04-18T08:13:06.346Z</time></trkpt><trkpt lat="43.5314751" lon="10.8305047"><ele>181.0</ele><time>2026-04-18T08:13:07.342Z</time></trkpt><trkpt lat="43.5313863" lon="10.8304623"><ele>181.0</ele><time>2026-04-18T08:13:08.343Z</time></trkpt><trkpt lat="43.5313073" lon="10.8304238"><ele>181.0</ele><time>2026-04-18T08:13:09.344Z</time></trkpt><trkpt lat="43.5312373" lon="10.8303873"><ele>181.0</ele><time>2026-04-18T08:13:10.342Z</time></trkpt><trkpt lat="43.5311754" lon="10.8303393"><ele>181.0</ele><time>2026-04-18T08:13:11.345Z</time></trkpt><trkpt lat="43.5311226" lon="10.8302859"><ele>180.5</ele><time>2026-04-18T08:13:12.343Z</time></trkpt><trkpt lat="43.5310405" lon="10.8301626"><ele>180.0</ele><time>2026-04-18T08:13:14.342Z</time></trkpt><trkpt lat="43.5310086" lon="10.8300805"><ele>179.5</ele><time>2026-04-18T08:13:15.342Z</time></trkpt><trkpt lat="43.5309865" lon="10.8299884"><ele>179.0</ele><time>2026-04-18T08:13:16.345Z</time></trkpt><trkpt lat="43.5309675" lon="10.8298881"><ele>178.5</ele><time>2026-04-18T08:13:17.342Z</time></trkpt><trkpt lat="43.5309495" lon="10.8297853"><ele>178.0</ele><time>2026-04-18T08:13:18.342Z</time></trkpt><trkpt lat="43.5309374" lon="10.8296838"><ele>178.0</ele><time>2026-04-18T08:13:19.342Z</time></trkpt><trkpt lat="43.5309288" lon="10.8295854"><ele>178.0</ele><time>2026-04-18T08:13:20.343Z</time></trkpt><trkpt lat="43.5309221" lon="10.8294886"><ele>178.0</ele><time>2026-04-18T08:13:21.343Z</time></trkpt><trkpt lat="43.5309174" lon="10.8293967"><ele>178.0</ele><time>2026-04-18T08:13:22.342Z</time></trkpt><trkpt lat="43.5309112" lon="10.8293084"><ele>178.0</ele><time>2026-04-18T08:13:23.343Z</time></trkpt><trkpt lat="43.5308846" lon="10.8291419"><ele>178.0</ele><time>2026-04-18T08:13:25.343Z</time></trkpt><trkpt lat="43.5308651" lon="10.8290587"><ele>177.66666666666669</ele><time>2026-04-18T08:13:26.345Z</time></trkpt><trkpt lat="43.5308375" lon="10.8289742"><ele>177.33333333333334</ele><time>2026-04-18T08:13:27.346Z</time></trkpt><trkpt lat="43.5307989" lon="10.8288824"><ele>177.0</ele><time>2026-04-18T08:13:28.344Z</time></trkpt><trkpt lat="43.5307524" lon="10.8287875"><ele>176.66666666666666</ele><time>2026-04-18T08:13:29.343Z</time></trkpt><trkpt lat="43.5306986" lon="10.8286908"><ele>176.33333333333331</ele><time>2026-04-18T08:13:30.344Z</time></trkpt><trkpt lat="43.5306429" lon="10.8285923"><ele>176.0</ele><time>2026-04-18T08:13:31.344Z</time></trkpt><trkpt lat="43.5305819" lon="10.8284967"><ele>175.20000000000002</ele><time>2026-04-18T08:13:32.345Z</time></trkpt><trkpt lat="43.5305184" lon="10.8284029"><ele>174.4</ele><time>2026-04-18T08:13:33.344Z</time></trkpt><trkpt lat="43.5304536" lon="10.8283127"><ele>173.6</ele><time>2026-04-18T08:13:34.346Z</time></trkpt><trkpt lat="43.5303852" lon="10.8282247"><ele>172.8</ele><time>2026-04-18T08:13:35.341Z</time></trkpt><trkpt lat="43.5303179" lon="10.8281412"><ele>172.0</ele><time>2026-04-18T08:13:36.343Z</time></trkpt><trkpt lat="43.530256" lon="10.8280641"><ele>171.33333333333334</ele><time>2026-04-18T08:13:37.343Z</time></trkpt><trkpt lat="43.5301976" lon="10.8279941"><ele>170.66666666666669</ele><time>2026-04-18T08:13:38.342Z</time></trkpt><trkpt lat="43.5301428" lon="10.8279239"><ele>170.0</ele><time>2026-04-18T08:13:39.343Z</time></trkpt><trkpt lat="43.5300723" lon="10.8278048"><ele>169.33333333333334</ele><time>2026-04-18T08:13:41.342Z</time></trkpt><trkpt lat="43.5300425" lon="10.8277259"><ele>168.66666666666666</ele><time>2026-04-18T08:13:43.342Z</time></trkpt><trkpt lat="43.5299803" lon="10.8276361"><ele>168.0</ele><time>2026-04-18T08:13:46.342Z</time></trkpt><trkpt lat="43.529923" lon="10.8275333"><ele>168.0</ele><time>2026-04-18T08:13:49.342Z</time></trkpt><trkpt lat="43.5298847" lon="10.8274565"><ele>168.0</ele><time>2026-04-18T08:13:51.342Z</time></trkpt><trkpt lat="43.529843" lon="10.8273779"><ele>168.0</ele><time>2026-04-18T08:13:53.343Z</time></trkpt><trkpt lat="43.5298069" lon="10.8273061"><ele>168.0</ele><time>2026-04-18T08:13:55.342Z</time></trkpt><trkpt lat="43.5297596" lon="10.8271934"><ele>168.0</ele><time>2026-04-18T08:13:58.342Z</time></trkpt><trkpt lat="43.5297264" lon="10.8271135"><ele>168.0</ele><time>2026-04-18T08:14:00.343Z</time></trkpt><trkpt lat="43.5296781" lon="10.8270302"><ele>168.0</ele><time>2026-04-18T08:14:02.342Z</time></trkpt><trkpt lat="43.5296332" lon="10.8269529"><ele>168.0</ele><time>2026-04-18T08:14:04.342Z</time></trkpt><trkpt lat="43.5295753" lon="10.8268563"><ele>168.0</ele><time>2026-04-18T08:14:07.342Z</time></trkpt><trkpt lat="43.5295271" lon="10.826793"><ele>168.0</ele><time>2026-04-18T08:14:09.342Z</time></trkpt><trkpt lat="43.5294611" lon="10.8267108"><ele>168.0</ele><time>2026-04-18T08:14:11.345Z</time></trkpt><trkpt lat="43.5293964" lon="10.8266005"><ele>168.0</ele><time>2026-04-18T08:14:13.343Z</time></trkpt><trkpt lat="43.5293293" lon="10.8264782"><ele>165.83333333333334</ele><time>2026-04-18T08:14:15.343Z</time></trkpt><trkpt lat="43.5292649" lon="10.8263533"><ele>163.66666666666666</ele><time>2026-04-18T08:14:17.347Z</time></trkpt><trkpt lat="43.5291971" lon="10.8262241"><ele>161.5</ele><time>2026-04-18T08:14:19.346Z</time></trkpt><trkpt lat="43.529159" lon="10.8261482"><ele>159.33333333333331</ele><time>2026-04-18T08:14:20.345Z</time></trkpt><trkpt lat="43.529118" lon="10.8260686"><ele>157.16666666666666</ele><time>2026-04-18T08:14:21.344Z</time></trkpt><trkpt lat="43.5290811" lon="10.8259904"><ele>155.0</ele><time>2026-04-18T08:14:22.345Z</time></trkpt><trkpt lat="43.5290423" lon="10.8259108"><ele>153.0</ele><time>2026-04-18T08:14:23.346Z</time></trkpt><trkpt lat="43.5290047" lon="10.8258188"><ele>151.0</ele><time>2026-04-18T08:14:24.346Z</time></trkpt><trkpt lat="43.5289694" lon="10.8257149"><ele>149.0</ele><time>2026-04-18T08:14:25.346Z</time></trkpt><trkpt lat="43.5289348" lon="10.8256063"><ele>147.0</ele><time>2026-04-18T08:14:26.346Z</time></trkpt><trkpt lat="43.5289013" lon="10.8254975"><ele>145.0</ele><time>2026-04-18T08:14:27.342Z</time></trkpt><trkpt lat="43.5288696" lon="10.8253932"><ele>143.0</ele><time>2026-04-18T08:14:28.346Z</time></trkpt><trkpt lat="43.5288442" lon="10.825296"><ele>143.0</ele><time>2026-04-18T08:14:29.347Z</time></trkpt><trkpt lat="43.528826" lon="10.825206"><ele>143.0</ele><time>2026-04-18T08:14:30.343Z</time></trkpt><trkpt lat="43.528808" lon="10.8251225"><ele>143.0</ele><time>2026-04-18T08:14:31.345Z</time></trkpt><trkpt lat="43.5287799" lon="10.8249714"><ele>143.0</ele><time>2026-04-18T08:14:33.343Z</time></trkpt><trkpt lat="43.5287498" lon="10.8248327"><ele>143.0</ele><time>2026-04-18T08:14:35.343Z</time></trkpt><trkpt lat="43.528715" lon="10.8246929"><ele>141.8</ele><time>2026-04-18T08:14:37.342Z</time></trkpt><trkpt lat="43.5286846" lon="10.8245559"><ele>140.60000000000002</ele><time>2026-04-18T08:14:39.345Z</time></trkpt><trkpt lat="43.5286578" lon="10.8244411"><ele>139.39999999999998</ele><time>2026-04-18T08:14:41.344Z</time></trkpt><trkpt lat="43.5286319" lon="10.8243316"><ele>138.2</ele><time>2026-04-18T08:14:43.345Z</time></trkpt><trkpt lat="43.5286013" lon="10.8242232"><ele>137.0</ele><time>2026-04-18T08:14:45.347Z</time></trkpt><trkpt lat="43.5285689" lon="10.8241036"><ele>136.79999999999998</ele><time>2026-04-18T08:14:47.345Z</time></trkpt><trkpt lat="43.5285231" lon="10.8239832"><ele>136.6</ele><time>2026-04-18T08:14:49.344Z</time></trkpt><trkpt lat="43.5284705" lon="10.8238508"><ele>136.39999999999998</ele><time>2026-04-18T08:14:51.344Z</time></trkpt><trkpt lat="43.5284176" lon="10.8236982"><ele>136.2</ele><time>2026-04-18T08:14:53.346Z</time></trkpt><trkpt lat="43.5283903" lon="10.823617"><ele>136.0</ele><time>2026-04-18T08:14:54.346Z</time></trkpt><trkpt lat="43.5283605" lon="10.8235339"><ele>134.99999999999997</ele><time>2026-04-18T08:14:55.345Z</time></trkpt><trkpt lat="43.5283257" lon="10.8234505"><ele>134.0</ele><time>2026-04-18T08:14:56.344Z</time></trkpt><trkpt lat="43.52829" lon="10.823367"><ele>133.0</ele><time>2026-04-18T08:14:57.345Z</time></trkpt><trkpt lat="43.5282549" lon="10.8232865"><ele>132.0</ele><time>2026-04-18T08:14:58.344Z</time></trkpt><trkpt lat="43.5282183" lon="10.8232004"><ele>131.0</ele><time>2026-04-18T08:14:59.346Z</time></trkpt><trkpt lat="43.5281802" lon="10.8231056"><ele>129.99999999999997</ele><time>2026-04-18T08:15:00.342Z</time></trkpt><trkpt lat="43.5281369" lon="10.8230127"><ele>129.0</ele><time>2026-04-18T08:15:01.342Z</time></trkpt><trkpt lat="43.5280931" lon="10.8229224"><ele>129.0</ele><time>2026-04-18T08:15:02.343Z</time></trkpt><trkpt lat="43.5280532" lon="10.8228361"><ele>129.0</ele><time>2026-04-18T08:15:03.343Z</time></trkpt><trkpt lat="43.5280151" lon="10.8227513"><ele>129.0</ele><time>2026-04-18T08:15:04.343Z</time></trkpt><trkpt lat="43.5279796" lon="10.8226745"><ele>129.0</ele><time>2026-04-18T08:15:05.343Z</time></trkpt><trkpt lat="43.527916" lon="10.8225394"><ele>129.0</ele><time>2026-04-18T08:15:07.342Z</time></trkpt><trkpt lat="43.527868" lon="10.8224116"><ele>129.0</ele><time>2026-04-18T08:15:09.342Z</time></trkpt><trkpt lat="43.5278513" lon="10.8222775"><ele>127.2</ele><time>2026-04-18T08:15:11.345Z</time></trkpt><trkpt lat="43.5278983" lon="10.8221751"><ele>125.4</ele><time>2026-04-18T08:15:13.346Z</time></trkpt><trkpt lat="43.5279645" lon="10.8220509"><ele>123.6</ele><time>2026-04-18T08:15:15.346Z</time></trkpt><trkpt lat="43.528017" lon="10.8218958"><ele>121.8</ele><time>2026-04-18T08:15:17.346Z</time></trkpt><trkpt lat="43.5280321" lon="10.8218055"><ele>120.0</ele><time>2026-04-18T08:15:18.342Z</time></trkpt><trkpt lat="43.5280355" lon="10.8217073"><ele>118.4</ele><time>2026-04-18T08:15:19.342Z</time></trkpt><trkpt lat="43.5280305" lon="10.8216084"><ele>116.8</ele><time>2026-04-18T08:15:20.344Z</time></trkpt><trkpt lat="43.5280188" lon="10.8215009"><ele>115.19999999999999</ele><time>2026-04-18T08:15:21.344Z</time></trkpt><trkpt lat="43.5280009" lon="10.8213812"><ele>113.6</ele><time>2026-04-18T08:15:22.342Z</time></trkpt><trkpt lat="43.5279803" lon="10.8212452"><ele>112.0</ele><time>2026-04-18T08:15:23.343Z</time></trkpt><trkpt lat="43.5279572" lon="10.8210976"><ele>111.6</ele><time>2026-04-18T08:15:24.342Z</time></trkpt><trkpt lat="43.5279383" lon="10.8209469"><ele>111.19999999999999</ele><time>2026-04-18T08:15:25.342Z</time></trkpt><trkpt lat="43.5279185" lon="10.8208073"><ele>110.8</ele><time>2026-04-18T08:15:26.343Z</time></trkpt><trkpt lat="43.5278988" lon="10.8206877"><ele>110.4</ele><time>2026-04-18T08:15:27.342Z</time></trkpt><trkpt lat="43.5278694" lon="10.8205905"><ele>110.0</ele><time>2026-04-18T08:15:28.345Z</time></trkpt><trkpt lat="43.5278209" lon="10.8205074"><ele>110.0</ele><time>2026-04-18T08:15:29.343Z</time></trkpt><trkpt lat="43.5277542" lon="10.8204468"><ele>110.0</ele><time>2026-04-18T08:15:30.346Z</time></trkpt><trkpt lat="43.5276684" lon="10.8204053"><ele>110.0</ele><time>2026-04-18T08:15:31.343Z</time></trkpt><trkpt lat="43.527568" lon="10.8203742"><ele>110.0</ele><time>2026-04-18T08:15:32.342Z</time></trkpt><trkpt lat="43.5274604" lon="10.8203497"><ele>110.0</ele><time>2026-04-18T08:15:33.342Z</time></trkpt><trkpt lat="43.5273717" lon="10.8203293"><ele>109.99999999999999</ele><time>2026-04-18T08:15:34.346Z</time></trkpt><trkpt lat="43.5273054" lon="10.8203091"><ele>110.0</ele><time>2026-04-18T08:15:35.342Z</time></trkpt><trkpt lat="43.5272254" lon="10.8202864"><ele>110.0</ele><time>2026-04-18T08:15:37.342Z</time></trkpt><trkpt lat="43.5271368" lon="10.8202588"><ele>110.0</ele><time>2026-04-18T08:15:39.343Z</time></trkpt><trkpt lat="43.5270325" lon="10.8201632"><ele>109.99999999999999</ele><time>2026-04-18T08:15:41.342Z</time></trkpt><trkpt lat="43.5269926" lon="10.8200812"><ele>110.0</ele><time>2026-04-18T08:15:42.344Z</time></trkpt><trkpt lat="43.5269794" lon="10.8199851"><ele>106.6</ele><time>2026-04-18T08:15:43.343Z</time></trkpt><trkpt lat="43.526988" lon="10.819871"><ele>103.2</ele><time>2026-04-18T08:15:44.344Z</time></trkpt><trkpt lat="43.5270018" lon="10.8197373"><ele>99.80000000000001</ele><time>2026-04-18T08:15:45.344Z</time></trkpt><trkpt lat="43.5270128" lon="10.8196014"><ele>96.4</ele><time>2026-04-18T08:15:46.342Z</time></trkpt><trkpt lat="43.527023" lon="10.8194623"><ele>93.0</ele><time>2026-04-18T08:15:47.342Z</time></trkpt><trkpt lat="43.52703" lon="10.8193244"><ele>92.33333333333333</ele><time>2026-04-18T08:15:48.343Z</time></trkpt><trkpt lat="43.5270293" lon="10.8191987"><ele>91.66666666666667</ele><time>2026-04-18T08:15:49.343Z</time></trkpt><trkpt lat="43.527021" lon="10.8190863"><ele>91.0</ele><time>2026-04-18T08:15:50.343Z</time></trkpt><trkpt lat="43.5270003" lon="10.8189866"><ele>90.33333333333334</ele><time>2026-04-18T08:15:51.343Z</time></trkpt><trkpt lat="43.5269712" lon="10.8188987"><ele>89.66666666666667</ele><time>2026-04-18T08:15:52.343Z</time></trkpt><trkpt lat="43.5269387" lon="10.8188173"><ele>89.0</ele><time>2026-04-18T08:15:53.343Z</time></trkpt><trkpt lat="43.5269033" lon="10.8187412"><ele>89.0</ele><time>2026-04-18T08:15:54.343Z</time></trkpt><trkpt lat="43.5268422" lon="10.8186174"><ele>89.0</ele><time>2026-04-18T08:15:56.343Z</time></trkpt><trkpt lat="43.526811" lon="10.8185355"><ele>89.0</ele><time>2026-04-18T08:15:58.342Z</time></trkpt><trkpt lat="43.52683" lon="10.8184488"><ele>89.0</ele><time>2026-04-18T08:16:00.344Z</time></trkpt><trkpt lat="43.5268969" lon="10.8183082"><ele>89.0</ele><time>2026-04-18T08:16:02.343Z</time></trkpt><trkpt lat="43.5269607" lon="10.8182042"><ele>89.0</ele><time>2026-04-18T08:16:03.343Z</time></trkpt><trkpt lat="43.5270348" lon="10.8180913"><ele>89.0</ele><time>2026-04-18T08:16:04.343Z</time></trkpt><trkpt lat="43.5271027" lon="10.817981"><ele>89.0</ele><time>2026-04-18T08:16:05.345Z</time></trkpt><trkpt lat="43.5271625" lon="10.8178723"><ele>89.0</ele><time>2026-04-18T08:16:06.343Z</time></trkpt><trkpt lat="43.527218" lon="10.817768"><ele>89.0</ele><time>2026-04-18T08:16:07.342Z</time></trkpt><trkpt lat="43.5272727" lon="10.8176723"><ele>88.0</ele><time>2026-04-18T08:16:08.342Z</time></trkpt><trkpt lat="43.5273288" lon="10.817575"><ele>87.0</ele><time>2026-04-18T08:16:09.346Z</time></trkpt><trkpt lat="43.527389" lon="10.8174806"><ele>86.0</ele><time>2026-04-18T08:16:10.345Z</time></trkpt><trkpt lat="43.5274565" lon="10.8174003"><ele>85.0</ele><time>2026-04-18T08:16:11.346Z</time></trkpt><trkpt lat="43.5275307" lon="10.8173253"><ele>84.0</ele><time>2026-04-18T08:16:12.346Z</time></trkpt><trkpt lat="43.5276064" lon="10.8172585"><ele>84.0</ele><time>2026-04-18T08:16:13.342Z</time></trkpt><trkpt lat="43.5276713" lon="10.8172018"><ele>84.0</ele><time>2026-04-18T08:16:14.343Z</time></trkpt><trkpt lat="43.5277278" lon="10.817143"><ele>84.0</ele><time>2026-04-18T08:16:15.344Z</time></trkpt><trkpt lat="43.5277776" lon="10.8170693"><ele>84.0</ele><time>2026-04-18T08:16:16.344Z</time></trkpt><trkpt lat="43.5278177" lon="10.816982"><ele>84.0</ele><time>2026-04-18T08:16:17.345Z</time></trkpt><trkpt lat="43.527846" lon="10.8168854"><ele>84.0</ele><time>2026-04-18T08:16:18.346Z</time></trkpt><trkpt lat="43.5278732" lon="10.8167864"><ele>84.0</ele><time>2026-04-18T08:16:19.342Z</time></trkpt><trkpt lat="43.5278989" lon="10.8166897"><ele>85.0</ele><time>2026-04-18T08:16:20.346Z</time></trkpt><trkpt lat="43.5279222" lon="10.8166008"><ele>86.0</ele><time>2026-04-18T08:16:21.345Z</time></trkpt><trkpt lat="43.5279471" lon="10.816521"><ele>87.0</ele><time>2026-04-18T08:16:22.345Z</time></trkpt><trkpt lat="43.52798" lon="10.8164213"><ele>88.0</ele><time>2026-04-18T08:16:24.345Z</time></trkpt><trkpt lat="43.5280311" lon="10.8162871"><ele>89.0</ele><time>2026-04-18T08:17:03.343Z</time></trkpt><trkpt lat="43.5280731" lon="10.8161843"><ele>90.0</ele><time>2026-04-18T08:17:04.341Z</time></trkpt><trkpt lat="43.528126" lon="10.816082"><ele>90.0</ele><time>2026-04-18T08:17:05.342Z</time></trkpt><trkpt lat="43.5281908" lon="10.8159949"><ele>90.0</ele><time>2026-04-18T08:17:06.342Z</time></trkpt><trkpt lat="43.5282672" lon="10.8159422"><ele>90.0</ele><time>2026-04-18T08:17:07.342Z</time></trkpt><trkpt lat="43.5283569" lon="10.8159351"><ele>90.0</ele><time>2026-04-18T08:17:08.342Z</time></trkpt><trkpt lat="43.5284452" lon="10.8159498"><ele>90.0</ele><time>2026-04-18T08:17:09.342Z</time></trkpt><trkpt lat="43.5285383" lon="10.815974"><ele>90.0</ele><time>2026-04-18T08:17:10.341Z</time></trkpt><trkpt lat="43.5286328" lon="10.8160043"><ele>91.8</ele><time>2026-04-18T08:17:11.341Z</time></trkpt><trkpt lat="43.5287286" lon="10.8160289"><ele>93.6</ele><time>2026-04-18T08:17:12.343Z</time></trkpt><trkpt lat="43.528822" lon="10.8160432"><ele>95.4</ele><time>2026-04-18T08:17:13.342Z</time></trkpt><trkpt lat="43.5289168" lon="10.8160521"><ele>97.2</ele><time>2026-04-18T08:17:14.342Z</time></trkpt><trkpt lat="43.5290085" lon="10.816043"><ele>99.0</ele><time>2026-04-18T08:17:15.342Z</time></trkpt><trkpt lat="43.5290985" lon="10.8160169"><ele>102.80000000000001</ele><time>2026-04-18T08:17:16.343Z</time></trkpt><trkpt lat="43.5291853" lon="10.8159761"><ele>106.60000000000001</ele><time>2026-04-18T08:17:17.343Z</time></trkpt><trkpt lat="43.5292686" lon="10.815932"><ele>110.4</ele><time>2026-04-18T08:17:18.345Z</time></trkpt><trkpt lat="43.5293576" lon="10.8158899"><ele>114.2</ele><time>2026-04-18T08:17:19.345Z</time></trkpt><trkpt lat="43.5294462" lon="10.8158513"><ele>118.0</ele><time>2026-04-18T08:17:20.345Z</time></trkpt><trkpt lat="43.5295314" lon="10.8158163"><ele>119.2</ele><time>2026-04-18T08:17:21.345Z</time></trkpt><trkpt lat="43.5296163" lon="10.8157859"><ele>120.4</ele><time>2026-04-18T08:17:22.344Z</time></trkpt><trkpt lat="43.5297074" lon="10.8157591"><ele>121.60000000000001</ele><time>2026-04-18T08:17:23.344Z</time></trkpt><trkpt lat="43.529797" lon="10.8157346"><ele>122.80000000000001</ele><time>2026-04-18T08:17:24.346Z</time></trkpt><trkpt lat="43.5298851" lon="10.8157109"><ele>124.0</ele><time>2026-04-18T08:17:25.341Z</time></trkpt><trkpt lat="43.529978" lon="10.8156922"><ele>124.0</ele><time>2026-04-18T08:17:26.345Z</time></trkpt><trkpt lat="43.5300714" lon="10.8156806"><ele>124.0</ele><time>2026-04-18T08:17:27.345Z</time></trkpt><trkpt lat="43.530172" lon="10.8156681"><ele>124.0</ele><time>2026-04-18T08:17:28.341Z</time></trkpt><trkpt lat="43.5302716" lon="10.815658"><ele>124.0</ele><time>2026-04-18T08:17:29.346Z</time></trkpt><trkpt lat="43.5303667" lon="10.8156463"><ele>124.0</ele><time>2026-04-18T08:17:30.345Z</time></trkpt><trkpt lat="43.5304548" lon="10.8156291"><ele>124.50000000000001</ele><time>2026-04-18T08:17:31.341Z</time></trkpt><trkpt lat="43.5305338" lon="10.8156099"><ele>125.0</ele><time>2026-04-18T08:17:32.346Z</time></trkpt><trkpt lat="43.5306099" lon="10.8155914"><ele>125.5</ele><time>2026-04-18T08:17:33.345Z</time></trkpt><trkpt lat="43.530691" lon="10.8155743"><ele>126.0</ele><time>2026-04-18T08:17:34.342Z</time></trkpt><trkpt lat="43.5307776" lon="10.8155696"><ele>126.50000000000001</ele><time>2026-04-18T08:17:35.346Z</time></trkpt><trkpt lat="43.5308638" lon="10.8155844"><ele>127.0</ele><time>2026-04-18T08:17:36.345Z</time></trkpt><trkpt lat="43.5309546" lon="10.8156129"><ele>127.0</ele><time>2026-04-18T08:17:37.341Z</time></trkpt><trkpt lat="43.531051" lon="10.8156527"><ele>126.99999999999999</ele><time>2026-04-18T08:17:38.343Z</time></trkpt><trkpt lat="43.5311494" lon="10.815697"><ele>126.99999999999999</ele><time>2026-04-18T08:17:39.343Z</time></trkpt><trkpt lat="43.5312513" lon="10.8157451"><ele>127.0</ele><time>2026-04-18T08:17:40.342Z</time></trkpt><trkpt lat="43.5313511" lon="10.81579"><ele>127.0</ele><time>2026-04-18T08:17:41.341Z</time></trkpt><trkpt lat="43.5314412" lon="10.8158248"><ele>128.0</ele><time>2026-04-18T08:17:42.342Z</time></trkpt><trkpt lat="43.5315305" lon="10.8158436"><ele>129.0</ele><time>2026-04-18T08:17:43.342Z</time></trkpt><trkpt lat="43.5316308" lon="10.8158473"><ele>130.0</ele><time>2026-04-18T08:17:44.342Z</time></trkpt><trkpt lat="43.5317304" lon="10.8158454"><ele>131.0</ele><time>2026-04-18T08:17:45.342Z</time></trkpt><trkpt lat="43.5318289" lon="10.8158465"><ele>132.0</ele><time>2026-04-18T08:17:46.342Z</time></trkpt><trkpt lat="43.5319226" lon="10.8158523"><ele>132.0</ele><time>2026-04-18T08:17:47.344Z</time></trkpt><trkpt lat="43.5320095" lon="10.8158757"><ele>132.0</ele><time>2026-04-18T08:17:48.343Z</time></trkpt><trkpt lat="43.5320912" lon="10.8159162"><ele>132.0</ele><time>2026-04-18T08:17:49.342Z</time></trkpt><trkpt lat="43.5321691" lon="10.8159784"><ele>132.0</ele><time>2026-04-18T08:17:50.342Z</time></trkpt><trkpt lat="43.5322533" lon="10.8160589"><ele>132.0</ele><time>2026-04-18T08:17:51.342Z</time></trkpt><trkpt lat="43.5323406" lon="10.816146"><ele>133.2</ele><time>2026-04-18T08:17:52.342Z</time></trkpt><trkpt lat="43.5324309" lon="10.8162311"><ele>134.39999999999998</ele><time>2026-04-18T08:17:53.342Z</time></trkpt><trkpt lat="43.5325192" lon="10.8162994"><ele>135.60000000000002</ele><time>2026-04-18T08:17:54.343Z</time></trkpt><trkpt lat="43.532605" lon="10.8163529"><ele>136.8</ele><time>2026-04-18T08:17:55.341Z</time></trkpt><trkpt lat="43.5326991" lon="10.8163989"><ele>138.0</ele><time>2026-04-18T08:17:56.342Z</time></trkpt><trkpt lat="43.5327993" lon="10.8164357"><ele>137.75</ele><time>2026-04-18T08:17:57.343Z</time></trkpt><trkpt lat="43.5329058" lon="10.816481"><ele>137.5</ele><time>2026-04-18T08:17:58.342Z</time></trkpt><trkpt lat="43.5330131" lon="10.8165317"><ele>137.25</ele><time>2026-04-18T08:17:59.342Z</time></trkpt><trkpt lat="43.5331257" lon="10.8165837"><ele>137.0</ele><time>2026-04-18T08:18:00.342Z</time></trkpt><trkpt lat="43.533235" lon="10.8166352"><ele>137.0</ele><time>2026-04-18T08:18:01.341Z</time></trkpt><trkpt lat="43.5333377" lon="10.8166882"><ele>137.0</ele><time>2026-04-18T08:18:02.344Z</time></trkpt><trkpt lat="43.5334299" lon="10.8167347"><ele>137.0</ele><time>2026-04-18T08:18:03.342Z</time></trkpt><trkpt lat="43.5335179" lon="10.8167707"><ele>137.0</ele><time>2026-04-18T08:18:04.343Z</time></trkpt><trkpt lat="43.5336053" lon="10.8167906"><ele>137.0</ele><time>2026-04-18T08:18:05.345Z</time></trkpt><trkpt lat="43.5336931" lon="10.8167914"><ele>138.2</ele><time>2026-04-18T08:18:06.343Z</time></trkpt><trkpt lat="43.5337796" lon="10.8167781"><ele>139.39999999999998</ele><time>2026-04-18T08:18:07.343Z</time></trkpt><trkpt lat="43.5338668" lon="10.8167531"><ele>140.60000000000002</ele><time>2026-04-18T08:18:08.342Z</time></trkpt><trkpt lat="43.533961" lon="10.8167253"><ele>141.8</ele><time>2026-04-18T08:18:09.342Z</time></trkpt><trkpt lat="43.5340551" lon="10.8167024"><ele>143.0</ele><time>2026-04-18T08:18:10.342Z</time></trkpt><trkpt lat="43.5341441" lon="10.8166884"><ele>143.0</ele><time>2026-04-18T08:18:11.341Z</time></trkpt><trkpt lat="43.5342259" lon="10.8166867"><ele>143.0</ele><time>2026-04-18T08:18:12.345Z</time></trkpt><trkpt lat="43.5343084" lon="10.8166796"><ele>143.0</ele><time>2026-04-18T08:18:13.341Z</time></trkpt><trkpt lat="43.5343944" lon="10.8166796"><ele>143.0</ele><time>2026-04-18T08:18:14.343Z</time></trkpt><trkpt lat="43.5344832" lon="10.8166814"><ele>143.0</ele><time>2026-04-18T08:18:15.341Z</time></trkpt><trkpt lat="43.5345808" lon="10.8166897"><ele>143.0</ele><time>2026-04-18T08:18:16.343Z</time></trkpt><trkpt lat="43.5346842" lon="10.8167023"><ele>144.8</ele><time>2026-04-18T08:18:17.341Z</time></trkpt><trkpt lat="43.5347867" lon="10.816721"><ele>146.60000000000002</ele><time>2026-04-18T08:18:18.342Z</time></trkpt><trkpt lat="43.5348797" lon="10.8167336"><ele>148.39999999999998</ele><time>2026-04-18T08:18:19.343Z</time></trkpt><trkpt lat="43.5349634" lon="10.8167334"><ele>150.2</ele><time>2026-04-18T08:18:20.342Z</time></trkpt><trkpt lat="43.5350454" lon="10.8167124"><ele>152.0</ele><time>2026-04-18T08:18:21.342Z</time></trkpt><trkpt lat="43.5351255" lon="10.8166682"><ele>152.0</ele><time>2026-04-18T08:18:22.342Z</time></trkpt><trkpt lat="43.5351996" lon="10.8166092"><ele>152.0</ele><time>2026-04-18T08:18:23.342Z</time></trkpt><trkpt lat="43.5352693" lon="10.8165482"><ele>152.0</ele><time>2026-04-18T08:18:24.342Z</time></trkpt><trkpt lat="43.5353332" lon="10.8164919"><ele>152.0</ele><time>2026-04-18T08:18:25.343Z</time></trkpt><trkpt lat="43.5353958" lon="10.8164335"><ele>152.0</ele><time>2026-04-18T08:18:26.342Z</time></trkpt><trkpt lat="43.5354553" lon="10.8163755"><ele>152.0</ele><time>2026-04-18T08:18:27.342Z</time></trkpt><trkpt lat="43.5355176" lon="10.8163219"><ele>154.0</ele><time>2026-04-18T08:18:28.342Z</time></trkpt><trkpt lat="43.5355809" lon="10.8162678"><ele>156.0</ele><time>2026-04-18T08:18:29.344Z</time></trkpt><trkpt lat="43.5356479" lon="10.8162117"><ele>158.0</ele><time>2026-04-18T08:18:30.342Z</time></trkpt><trkpt lat="43.5357176" lon="10.8161501"><ele>160.0</ele><time>2026-04-18T08:18:31.342Z</time></trkpt><trkpt lat="43.5357927" lon="10.8160852"><ele>162.0</ele><time>2026-04-18T08:18:32.342Z</time></trkpt><trkpt lat="43.5358699" lon="10.8160177"><ele>164.0</ele><time>2026-04-18T08:18:33.343Z</time></trkpt><trkpt lat="43.5359515" lon="10.8159474"><ele>164.0</ele><time>2026-04-18T08:18:34.342Z</time></trkpt><trkpt lat="43.5360365" lon="10.8158777"><ele>164.0</ele><time>2026-04-18T08:18:35.345Z</time></trkpt><trkpt lat="43.5361197" lon="10.8158178"><ele>164.0</ele><time>2026-04-18T08:18:36.343Z</time></trkpt><trkpt lat="43.5362017" lon="10.8157661"><ele>164.0</ele><time>2026-04-18T08:18:37.342Z</time></trkpt><trkpt lat="43.5362844" lon="10.8157217"><ele>164.0</ele><time>2026-04-18T08:18:38.343Z</time></trkpt><trkpt lat="43.5363739" lon="10.8156845"><ele>165.6</ele><time>2026-04-18T08:18:39.343Z</time></trkpt><trkpt lat="43.5364612" lon="10.8156495"><ele>167.2</ele><time>2026-04-18T08:18:40.342Z</time></trkpt><trkpt lat="43.5365452" lon="10.8156271"><ele>168.79999999999998</ele><time>2026-04-18T08:18:41.343Z</time></trkpt><trkpt lat="43.5366257" lon="10.8156154"><ele>170.39999999999998</ele><time>2026-04-18T08:18:42.342Z</time></trkpt><trkpt lat="43.5367009" lon="10.8156133"><ele>172.0</ele><time>2026-04-18T08:18:43.342Z</time></trkpt><trkpt lat="43.5368217" lon="10.8156244"><ele>172.0</ele><time>2026-04-18T08:18:45.345Z</time></trkpt><trkpt lat="43.536942" lon="10.8156119"><ele>172.0</ele><time>2026-04-18T08:18:47.341Z</time></trkpt><trkpt lat="43.537001" lon="10.8155763"><ele>172.0</ele><time>2026-04-18T08:18:48.343Z</time></trkpt><trkpt lat="43.5370506" lon="10.8155207"><ele>172.0</ele><time>2026-04-18T08:18:49.344Z</time></trkpt><trkpt lat="43.5370975" lon="10.8154549"><ele>172.0</ele><time>2026-04-18T08:18:50.343Z</time></trkpt><trkpt lat="43.5371365" lon="10.8153732"><ele>172.0</ele><time>2026-04-18T08:18:51.345Z</time></trkpt><trkpt lat="43.5371669" lon="10.8152914"><ele>170.33333333333334</ele><time>2026-04-18T08:18:52.345Z</time></trkpt><trkpt lat="43.5371961" lon="10.815211"><ele>168.66666666666669</ele><time>2026-04-18T08:18:53.346Z</time></trkpt><trkpt lat="43.5372284" lon="10.8150869"><ele>167.0</ele><time>2026-04-18T08:18:55.345Z</time></trkpt><trkpt lat="43.5372439" lon="10.8149903"><ele>165.33333333333334</ele><time>2026-04-18T08:18:57.346Z</time></trkpt><trkpt lat="43.5372326" lon="10.8148381"><ele>163.66666666666666</ele><time>2026-04-18T08:18:59.343Z</time></trkpt><trkpt lat="43.5372121" lon="10.8147415"><ele>162.0</ele><time>2026-04-18T08:19:00.345Z</time></trkpt><trkpt lat="43.5371908" lon="10.8146238"><ele>161.6</ele><time>2026-04-18T08:19:01.345Z</time></trkpt><trkpt lat="43.537174" lon="10.8144934"><ele>161.2</ele><time>2026-04-18T08:19:02.342Z</time></trkpt><trkpt lat="43.5371668" lon="10.8143501"><ele>160.8</ele><time>2026-04-18T08:19:03.342Z</time></trkpt><trkpt lat="43.5371779" lon="10.8142036"><ele>160.4</ele><time>2026-04-18T08:19:04.342Z</time></trkpt><trkpt lat="43.5372092" lon="10.8140649"><ele>160.0</ele><time>2026-04-18T08:19:05.343Z</time></trkpt><trkpt lat="43.5372561" lon="10.8139361"><ele>161.75</ele><time>2026-04-18T08:19:06.342Z</time></trkpt><trkpt lat="43.5373201" lon="10.8138112"><ele>163.5</ele><time>2026-04-18T08:19:07.342Z</time></trkpt><trkpt lat="43.5373881" lon="10.8136848"><ele>165.25</ele><time>2026-04-18T08:19:08.342Z</time></trkpt><trkpt lat="43.5374567" lon="10.8135491"><ele>167.0</ele><time>2026-04-18T08:19:09.344Z</time></trkpt><trkpt lat="43.5375154" lon="10.8134099"><ele>169.0</ele><time>2026-04-18T08:19:10.342Z</time></trkpt><trkpt lat="43.5375613" lon="10.8132744"><ele>171.0</ele><time>2026-04-18T08:19:11.343Z</time></trkpt><trkpt lat="43.5375786" lon="10.8131438"><ele>173.0</ele><time>2026-04-18T08:19:12.342Z</time></trkpt><trkpt lat="43.5375584" lon="10.8130164"><ele>175.0</ele><time>2026-04-18T08:19:13.343Z</time></trkpt><trkpt lat="43.537522" lon="10.8128959"><ele>177.0</ele><time>2026-04-18T08:19:14.343Z</time></trkpt><trkpt lat="43.5374617" lon="10.812792"><ele>177.0</ele><time>2026-04-18T08:19:15.343Z</time></trkpt><trkpt lat="43.5373885" lon="10.8127041"><ele>177.0</ele><time>2026-04-18T08:19:16.342Z</time></trkpt><trkpt lat="43.5373013" lon="10.8126335"><ele>177.0</ele><time>2026-04-18T08:19:17.343Z</time></trkpt><trkpt lat="43.5372112" lon="10.8125596"><ele>177.0</ele><time>2026-04-18T08:19:18.343Z</time></trkpt><trkpt lat="43.5371164" lon="10.8124712"><ele>177.0</ele><time>2026-04-18T08:19:19.343Z</time></trkpt><trkpt lat="43.537017" lon="10.8123619"><ele>176.5</ele><time>2026-04-18T08:19:20.343Z</time></trkpt><trkpt lat="43.5369197" lon="10.81223"><ele>176.0</ele><time>2026-04-18T08:19:21.342Z</time></trkpt><trkpt lat="43.5368213" lon="10.8120837"><ele>175.5</ele><time>2026-04-18T08:19:22.342Z</time></trkpt><trkpt lat="43.5367191" lon="10.8119278"><ele>175.0</ele><time>2026-04-18T08:19:23.345Z</time></trkpt><trkpt lat="43.5366217" lon="10.8117705"><ele>173.5</ele><time>2026-04-18T08:19:24.342Z</time></trkpt><trkpt lat="43.5365432" lon="10.8116129"><ele>172.0</ele><time>2026-04-18T08:19:25.342Z</time></trkpt><trkpt lat="43.5364861" lon="10.8114442"><ele>170.5</ele><time>2026-04-18T08:19:26.342Z</time></trkpt><trkpt lat="43.5364533" lon="10.8112697"><ele>169.0</ele><time>2026-04-18T08:19:27.344Z</time></trkpt><trkpt lat="43.536438" lon="10.8110755"><ele>168.5</ele><time>2026-04-18T08:19:28.346Z</time></trkpt><trkpt lat="43.5364333" lon="10.8108747"><ele>168.0</ele><time>2026-04-18T08:19:29.342Z</time></trkpt><trkpt lat="43.5364325" lon="10.810674"><ele>167.5</ele><time>2026-04-18T08:19:30.343Z</time></trkpt><trkpt lat="43.5364342" lon="10.8104892"><ele>167.0</ele><time>2026-04-18T08:19:31.342Z</time></trkpt><trkpt lat="43.5364366" lon="10.8103206"><ele>167.0</ele><time>2026-04-18T08:19:32.343Z</time></trkpt><trkpt lat="43.5364145" lon="10.8101671"><ele>167.0</ele><time>2026-04-18T08:19:33.343Z</time></trkpt><trkpt lat="43.5363536" lon="10.8100174"><ele>167.0</ele><time>2026-04-18T08:19:34.348Z</time></trkpt><trkpt lat="43.5362684" lon="10.8098738"><ele>167.0</ele><time>2026-04-18T08:19:35.346Z</time></trkpt><trkpt lat="43.5361862" lon="10.8097346"><ele>167.75</ele><time>2026-04-18T08:19:36.342Z</time></trkpt><trkpt lat="43.5361186" lon="10.8095859"><ele>168.5</ele><time>2026-04-18T08:19:37.343Z</time></trkpt><trkpt lat="43.5360648" lon="10.8094161"><ele>169.25</ele><time>2026-04-18T08:19:38.344Z</time></trkpt><trkpt lat="43.5360192" lon="10.8092338"><ele>170.0</ele><time>2026-04-18T08:19:39.343Z</time></trkpt><trkpt lat="43.5359847" lon="10.8090502"><ele>168.5</ele><time>2026-04-18T08:19:40.343Z</time></trkpt><trkpt lat="43.5359706" lon="10.8088717"><ele>167.0</ele><time>2026-04-18T08:19:41.343Z</time></trkpt><trkpt lat="43.5359854" lon="10.808691"><ele>165.5</ele><time>2026-04-18T08:19:42.344Z</time></trkpt><trkpt lat="43.5360224" lon="10.8084968"><ele>164.0</ele><time>2026-04-18T08:19:43.345Z</time></trkpt><trkpt lat="43.5360642" lon="10.8082851"><ele>163.66666666666666</ele><time>2026-04-18T08:19:44.343Z</time></trkpt><trkpt lat="43.536098" lon="10.8080704"><ele>163.33333333333334</ele><time>2026-04-18T08:19:45.345Z</time></trkpt><trkpt lat="43.5361172" lon="10.807839"><ele>163.0</ele><time>2026-04-18T08:19:46.343Z</time></trkpt><trkpt lat="43.5361195" lon="10.8075962"><ele>163.0</ele><time>2026-04-18T08:19:47.342Z</time></trkpt><trkpt lat="43.5361153" lon="10.8073485"><ele>163.0</ele><time>2026-04-18T08:19:48.343Z</time></trkpt><trkpt lat="43.5361041" lon="10.8071017"><ele>163.0</ele><time>2026-04-18T08:19:49.342Z</time></trkpt><trkpt lat="43.536087" lon="10.8068639"><ele>163.5</ele><time>2026-04-18T08:19:50.343Z</time></trkpt><trkpt lat="43.5360567" lon="10.8066459"><ele>164.0</ele><time>2026-04-18T08:19:51.343Z</time></trkpt><trkpt lat="43.5360277" lon="10.8064457"><ele>164.5</ele><time>2026-04-18T08:19:52.342Z</time></trkpt><trkpt lat="43.5360086" lon="10.8062632"><ele>165.0</ele><time>2026-04-18T08:19:53.342Z</time></trkpt><trkpt lat="43.5360107" lon="10.8060807"><ele>164.75</ele><time>2026-04-18T08:19:54.343Z</time></trkpt><trkpt lat="43.5360309" lon="10.8059026"><ele>164.5</ele><time>2026-04-18T08:19:55.342Z</time></trkpt><trkpt lat="43.5360634" lon="10.8057135"><ele>164.25</ele><time>2026-04-18T08:19:56.346Z</time></trkpt><trkpt lat="43.5361202" lon="10.8055058"><ele>164.0</ele><time>2026-04-18T08:19:57.347Z</time></trkpt><trkpt lat="43.5361947" lon="10.805291"><ele>164.0</ele><time>2026-04-18T08:19:58.342Z</time></trkpt><trkpt lat="43.5362783" lon="10.8050787"><ele>164.0</ele><time>2026-04-18T08:19:59.346Z</time></trkpt><trkpt lat="43.5363598" lon="10.8048782"><ele>164.0</ele><time>2026-04-18T08:20:00.343Z</time></trkpt><trkpt lat="43.5364302" lon="10.8046838"><ele>164.0</ele><time>2026-04-18T08:20:01.346Z</time></trkpt><trkpt lat="43.5364939" lon="10.8044866"><ele>164.0</ele><time>2026-04-18T08:20:02.345Z</time></trkpt><trkpt lat="43.5365552" lon="10.8042662"><ele>164.0</ele><time>2026-04-18T08:20:03.347Z</time></trkpt><trkpt lat="43.5366114" lon="10.8040308"><ele>162.0</ele><time>2026-04-18T08:20:04.343Z</time></trkpt><trkpt lat="43.5366574" lon="10.8037913"><ele>160.0</ele><time>2026-04-18T08:20:05.344Z</time></trkpt><trkpt lat="43.5366936" lon="10.8035393"><ele>158.0</ele><time>2026-04-18T08:20:06.346Z</time></trkpt><trkpt lat="43.5367158" lon="10.8032726"><ele>157.33333333333331</ele><time>2026-04-18T08:20:07.343Z</time></trkpt><trkpt lat="43.5367366" lon="10.8030078"><ele>156.66666666666666</ele><time>2026-04-18T08:20:08.342Z</time></trkpt><trkpt lat="43.5367505" lon="10.802758"><ele>156.0</ele><time>2026-04-18T08:20:09.343Z</time></trkpt><trkpt lat="43.5367572" lon="10.8025296"><ele>157.33333333333334</ele><time>2026-04-18T08:20:10.346Z</time></trkpt><trkpt lat="43.5367628" lon="10.802319"><ele>158.66666666666669</ele><time>2026-04-18T08:20:11.342Z</time></trkpt><trkpt lat="43.5367864" lon="10.8021157"><ele>160.0</ele><time>2026-04-18T08:20:12.346Z</time></trkpt><trkpt lat="43.5368339" lon="10.8019129"><ele>161.0</ele><time>2026-04-18T08:20:13.346Z</time></trkpt><trkpt lat="43.536897" lon="10.8017227"><ele>162.0</ele><time>2026-04-18T08:20:14.346Z</time></trkpt><trkpt lat="43.5369667" lon="10.8015545"><ele>163.0</ele><time>2026-04-18T08:20:15.343Z</time></trkpt><trkpt lat="43.5370538" lon="10.8014088"><ele>164.0</ele><time>2026-04-18T08:20:16.344Z</time></trkpt><trkpt lat="43.537156" lon="10.8012837"><ele>164.0</ele><time>2026-04-18T08:20:17.346Z</time></trkpt><trkpt lat="43.5372709" lon="10.8011787"><ele>164.0</ele><time>2026-04-18T08:20:18.345Z</time></trkpt><trkpt lat="43.5373928" lon="10.8010805"><ele>164.0</ele><time>2026-04-18T08:20:19.345Z</time></trkpt><trkpt lat="43.5375092" lon="10.8009873"><ele>164.0</ele><time>2026-04-18T08:20:20.345Z</time></trkpt><trkpt lat="43.5376123" lon="10.8008891"><ele>163.0</ele><time>2026-04-18T08:20:21.345Z</time></trkpt><trkpt lat="43.5377131" lon="10.8007808"><ele>162.0</ele><time>2026-04-18T08:20:22.344Z</time></trkpt><trkpt lat="43.5378147" lon="10.8006665"><ele>161.0</ele><time>2026-04-18T08:20:23.345Z</time></trkpt><trkpt lat="43.5379147" lon="10.8005469"><ele>160.0</ele><time>2026-04-18T08:20:24.345Z</time></trkpt><trkpt lat="43.5380074" lon="10.800426"><ele>160.0</ele><time>2026-04-18T08:20:25.345Z</time></trkpt><trkpt lat="43.5380861" lon="10.800288"><ele>160.0</ele><time>2026-04-18T08:20:26.346Z</time></trkpt><trkpt lat="43.5381572" lon="10.8001346"><ele>160.0</ele><time>2026-04-18T08:20:27.345Z</time></trkpt><trkpt lat="43.5382211" lon="10.7999557"><ele>160.0</ele><time>2026-04-18T08:20:28.347Z</time></trkpt><trkpt lat="43.53829" lon="10.7997768"><ele>160.5</ele><time>2026-04-18T08:20:29.347Z</time></trkpt><trkpt lat="43.5383525" lon="10.7996034"><ele>161.0</ele><time>2026-04-18T08:20:30.343Z</time></trkpt><trkpt lat="43.5384108" lon="10.7994321"><ele>161.5</ele><time>2026-04-18T08:20:31.343Z</time></trkpt><trkpt lat="43.5384654" lon="10.7992635"><ele>162.0</ele><time>2026-04-18T08:20:32.343Z</time></trkpt><trkpt lat="43.5385172" lon="10.7991032"><ele>162.0</ele><time>2026-04-18T08:20:33.343Z</time></trkpt><trkpt lat="43.538561" lon="10.7989345"><ele>162.0</ele><time>2026-04-18T08:20:34.342Z</time></trkpt><trkpt lat="43.5385849" lon="10.7987508"><ele>162.0</ele><time>2026-04-18T08:20:35.343Z</time></trkpt><trkpt lat="43.5385861" lon="10.798556"><ele>162.0</ele><time>2026-04-18T08:20:36.342Z</time></trkpt><trkpt lat="43.5385618" lon="10.7983651"><ele>161.5</ele><time>2026-04-18T08:20:37.346Z</time></trkpt><trkpt lat="43.538533" lon="10.7981819"><ele>161.0</ele><time>2026-04-18T08:20:38.346Z</time></trkpt><trkpt lat="43.5385037" lon="10.7980136"><ele>160.5</ele><time>2026-04-18T08:20:39.344Z</time></trkpt><trkpt lat="43.538474" lon="10.7978423"><ele>160.0</ele><time>2026-04-18T08:20:40.346Z</time></trkpt><trkpt lat="43.5384425" lon="10.797661"><ele>160.0</ele><time>2026-04-18T08:20:41.346Z</time></trkpt><trkpt lat="43.5384099" lon="10.7974686"><ele>160.0</ele><time>2026-04-18T08:20:42.346Z</time></trkpt><trkpt lat="43.5383757" lon="10.7972616"><ele>160.0</ele><time>2026-04-18T08:20:43.345Z</time></trkpt><trkpt lat="43.5383359" lon="10.797046"><ele>160.0</ele><time>2026-04-18T08:20:44.343Z</time></trkpt><trkpt lat="43.5382836" lon="10.7968376"><ele>160.0</ele><time>2026-04-18T08:20:45.343Z</time></trkpt><trkpt lat="43.5382253" lon="10.7966416"><ele>160.0</ele><time>2026-04-18T08:20:46.343Z</time></trkpt><trkpt lat="43.5381698" lon="10.7964678"><ele>162.0</ele><time>2026-04-18T08:20:47.342Z</time></trkpt><trkpt lat="43.5381329" lon="10.7963085"><ele>164.0</ele><time>2026-04-18T08:20:48.344Z</time></trkpt><trkpt lat="43.5381099" lon="10.7961559"><ele>166.0</ele><time>2026-04-18T08:20:49.344Z</time></trkpt><trkpt lat="43.5381157" lon="10.7960049"><ele>168.0</ele><time>2026-04-18T08:20:50.344Z</time></trkpt><trkpt lat="43.5381486" lon="10.7958606"><ele>169.4</ele><time>2026-04-18T08:20:51.342Z</time></trkpt><trkpt lat="43.5382018" lon="10.7957211"><ele>170.8</ele><time>2026-04-18T08:20:52.342Z</time></trkpt><trkpt lat="43.5382644" lon="10.7955958"><ele>172.2</ele><time>2026-04-18T08:20:53.342Z</time></trkpt><trkpt lat="43.53833" lon="10.7955007"><ele>173.6</ele><time>2026-04-18T08:20:54.343Z</time></trkpt><trkpt lat="43.5384029" lon="10.7954359"><ele>175.0</ele><time>2026-04-18T08:20:55.342Z</time></trkpt><trkpt lat="43.5384918" lon="10.7953795"><ele>175.0</ele><time>2026-04-18T08:20:56.342Z</time></trkpt><trkpt lat="43.5385981" lon="10.7953286"><ele>175.0</ele><time>2026-04-18T08:20:57.347Z</time></trkpt><trkpt lat="43.538707" lon="10.7952708"><ele>175.0</ele><time>2026-04-18T08:20:58.342Z</time></trkpt><trkpt lat="43.5388026" lon="10.7951971"><ele>175.0</ele><time>2026-04-18T08:20:59.342Z</time></trkpt><trkpt lat="43.53888" lon="10.7951067"><ele>175.0</ele><time>2026-04-18T08:21:00.344Z</time></trkpt><trkpt lat="43.538942" lon="10.7949914"><ele>175.8</ele><time>2026-04-18T08:21:01.343Z</time></trkpt><trkpt lat="43.5389713" lon="10.7948508"><ele>176.6</ele><time>2026-04-18T08:21:02.343Z</time></trkpt><trkpt lat="43.5389869" lon="10.7947156"><ele>177.39999999999998</ele><time>2026-04-18T08:21:03.341Z</time></trkpt><trkpt lat="43.5390002" lon="10.7945822"><ele>178.2</ele><time>2026-04-18T08:21:04.345Z</time></trkpt><trkpt lat="43.5390142" lon="10.7944558"><ele>179.0</ele><time>2026-04-18T08:21:05.345Z</time></trkpt><trkpt lat="43.5390331" lon="10.7943328"><ele>179.16666666666666</ele><time>2026-04-18T08:21:06.345Z</time></trkpt><trkpt lat="43.5390551" lon="10.7942179"><ele>179.33333333333331</ele><time>2026-04-18T08:21:07.341Z</time></trkpt><trkpt lat="43.5390898" lon="10.7941106"><ele>179.5</ele><time>2026-04-18T08:21:08.342Z</time></trkpt><trkpt lat="43.5391394" lon="10.7940137"><ele>179.66666666666666</ele><time>2026-04-18T08:21:09.343Z</time></trkpt><trkpt lat="43.5392068" lon="10.7939351"><ele>179.83333333333334</ele><time>2026-04-18T08:21:10.343Z</time></trkpt><trkpt lat="43.53928" lon="10.7938617"><ele>180.0</ele><time>2026-04-18T08:21:11.343Z</time></trkpt><trkpt lat="43.5393513" lon="10.7937909"><ele>180.0</ele><time>2026-04-18T08:21:12.345Z</time></trkpt><trkpt lat="43.5394257" lon="10.7937236"><ele>180.0</ele><time>2026-04-18T08:21:13.344Z</time></trkpt><trkpt lat="43.5394901" lon="10.7936575"><ele>180.0</ele><time>2026-04-18T08:21:14.342Z</time></trkpt><trkpt lat="43.5395412" lon="10.7935866"><ele>180.0</ele><time>2026-04-18T08:21:15.345Z</time></trkpt><trkpt lat="43.5395808" lon="10.7935148"><ele>180.0</ele><time>2026-04-18T08:21:16.342Z</time></trkpt><trkpt lat="43.539625" lon="10.7934224"><ele>180.0</ele><time>2026-04-18T08:21:18.341Z</time></trkpt><trkpt lat="43.5396065" lon="10.7933091"><ele>180.2</ele><time>2026-04-18T08:21:24.342Z</time></trkpt><trkpt lat="43.539607" lon="10.7931703"><ele>180.4</ele><time>2026-04-18T08:21:26.342Z</time></trkpt><trkpt lat="43.5395973" lon="10.7930202"><ele>180.60000000000002</ele><time>2026-04-18T08:21:28.341Z</time></trkpt><trkpt lat="43.5395711" lon="10.7929406"><ele>180.8</ele><time>2026-04-18T08:21:29.345Z</time></trkpt><trkpt lat="43.5395076" lon="10.7927924"><ele>181.0</ele><time>2026-04-18T08:21:31.343Z</time></trkpt><trkpt lat="43.539472" lon="10.7927124"><ele>181.0</ele><time>2026-04-18T08:21:32.342Z</time></trkpt><trkpt lat="43.5394422" lon="10.7926141"><ele>181.0</ele><time>2026-04-18T08:21:33.345Z</time></trkpt><trkpt lat="43.5394037" lon="10.7925101"><ele>181.0</ele><time>2026-04-18T08:21:34.341Z</time></trkpt><trkpt lat="43.5393562" lon="10.7924118"><ele>181.0</ele><time>2026-04-18T08:21:35.346Z</time></trkpt><trkpt lat="43.5393029" lon="10.7923161"><ele>181.0</ele><time>2026-04-18T08:21:36.342Z</time></trkpt><trkpt lat="43.5392553" lon="10.7922182"><ele>181.0</ele><time>2026-04-18T08:21:37.342Z</time></trkpt><trkpt lat="43.5392077" lon="10.7921212"><ele>181.0</ele><time>2026-04-18T08:21:38.345Z</time></trkpt><trkpt lat="43.5391645" lon="10.7920199"><ele>181.0</ele><time>2026-04-18T08:21:39.345Z</time></trkpt><trkpt lat="43.5391274" lon="10.7919263"><ele>181.0</ele><time>2026-04-18T08:21:40.342Z</time></trkpt><trkpt lat="43.5390969" lon="10.7918477"><ele>181.0</ele><time>2026-04-18T08:21:41.342Z</time></trkpt><trkpt lat="43.5390456" lon="10.7917298"><ele>181.0</ele><time>2026-04-18T08:21:43.342Z</time></trkpt><trkpt lat="43.5389796" lon="10.791625"><ele>181.0</ele><time>2026-04-18T08:21:45.342Z</time></trkpt><trkpt lat="43.5388961" lon="10.7915076"><ele>180.66666666666669</ele><time>2026-04-18T08:21:47.342Z</time></trkpt><trkpt lat="43.5388519" lon="10.791436"><ele>180.33333333333334</ele><time>2026-04-18T08:21:48.342Z</time></trkpt><trkpt lat="43.5388021" lon="10.7913516"><ele>180.0</ele><time>2026-04-18T08:21:49.342Z</time></trkpt><trkpt lat="43.5387427" lon="10.7912592"><ele>179.66666666666666</ele><time>2026-04-18T08:21:50.342Z</time></trkpt><trkpt lat="43.5386857" lon="10.7911625"><ele>179.33333333333331</ele><time>2026-04-18T08:21:51.341Z</time></trkpt><trkpt lat="43.5386216" lon="10.7910732"><ele>179.0</ele><time>2026-04-18T08:21:52.341Z</time></trkpt><trkpt lat="43.5385652" lon="10.7909895"><ele>179.0</ele><time>2026-04-18T08:21:53.342Z</time></trkpt><trkpt lat="43.5385259" lon="10.7909188"><ele>179.0</ele><time>2026-04-18T08:21:54.342Z</time></trkpt><trkpt lat="43.5384741" lon="10.7908209"><ele>179.0</ele><time>2026-04-18T08:21:56.342Z</time></trkpt><trkpt lat="43.5383767" lon="10.7907722"><ele>179.0</ele><time>2026-04-18T08:21:58.345Z</time></trkpt><trkpt lat="43.5383139" lon="10.7907416"><ele>179.0</ele><time>2026-04-18T08:21:59.342Z</time></trkpt><trkpt lat="43.5382456" lon="10.7907023"><ele>179.0</ele><time>2026-04-18T08:22:00.347Z</time></trkpt><trkpt lat="43.5381721" lon="10.7906465"><ele>179.0</ele><time>2026-04-18T08:22:01.341Z</time></trkpt><trkpt lat="43.5380786" lon="10.7906036"><ele>179.0</ele><time>2026-04-18T08:22:02.343Z</time></trkpt><trkpt lat="43.5379692" lon="10.7905802"><ele>179.0</ele><time>2026-04-18T08:22:03.342Z</time></trkpt><trkpt lat="43.5378548" lon="10.7905675"><ele>179.0</ele><time>2026-04-18T08:22:04.342Z</time></trkpt><trkpt lat="43.5377357" lon="10.7905679"><ele>179.0</ele><time>2026-04-18T08:22:05.342Z</time></trkpt><trkpt lat="43.5376171" lon="10.790587"><ele>178.5</ele><time>2026-04-18T08:22:06.342Z</time></trkpt><trkpt lat="43.5375002" lon="10.7906253"><ele>178.0</ele><time>2026-04-18T08:22:07.341Z</time></trkpt><trkpt lat="43.5373804" lon="10.7906726"><ele>177.5</ele><time>2026-04-18T08:22:08.343Z</time></trkpt><trkpt lat="43.5372605" lon="10.790725"><ele>177.0</ele><time>2026-04-18T08:22:09.343Z</time></trkpt><trkpt lat="43.5371464" lon="10.7907734"><ele>177.5</ele><time>2026-04-18T08:22:10.342Z</time></trkpt><trkpt lat="43.5370316" lon="10.7908048"><ele>178.0</ele><time>2026-04-18T08:22:11.346Z</time></trkpt><trkpt lat="43.5369179" lon="10.7908165"><ele>178.5</ele><time>2026-04-18T08:22:12.343Z</time></trkpt><trkpt lat="43.5368078" lon="10.7908133"><ele>179.0</ele><time>2026-04-18T08:22:13.341Z</time></trkpt><trkpt lat="43.5366981" lon="10.7908066"><ele>179.0</ele><time>2026-04-18T08:22:14.343Z</time></trkpt><trkpt lat="43.5365867" lon="10.7908006"><ele>179.0</ele><time>2026-04-18T08:22:15.341Z</time></trkpt><trkpt lat="43.536475" lon="10.7908012"><ele>179.0</ele><time>2026-04-18T08:22:16.341Z</time></trkpt><trkpt lat="43.5363682" lon="10.7908183"><ele>179.0</ele><time>2026-04-18T08:22:17.343Z</time></trkpt><trkpt lat="43.5362712" lon="10.7908381"><ele>179.0</ele><time>2026-04-18T08:22:18.342Z</time></trkpt><trkpt lat="43.5361855" lon="10.7908541"><ele>178.83333333333331</ele><time>2026-04-18T08:22:19.342Z</time></trkpt><trkpt lat="43.5361044" lon="10.790865"><ele>178.66666666666666</ele><time>2026-04-18T08:22:20.342Z</time></trkpt><trkpt lat="43.5360293" lon="10.7908589"><ele>178.5</ele><time>2026-04-18T08:22:21.342Z</time></trkpt><trkpt lat="43.5359532" lon="10.7908316"><ele>178.33333333333334</ele><time>2026-04-18T08:22:22.342Z</time></trkpt><trkpt lat="43.5358794" lon="10.7907858"><ele>178.16666666666669</ele><time>2026-04-18T08:22:23.342Z</time></trkpt><trkpt lat="43.5358031" lon="10.7907214"><ele>178.0</ele><time>2026-04-18T08:22:24.343Z</time></trkpt><trkpt lat="43.5357224" lon="10.7906488"><ele>178.0</ele><time>2026-04-18T08:22:25.342Z</time></trkpt><trkpt lat="43.5356433" lon="10.7905745"><ele>178.0</ele><time>2026-04-18T08:22:26.343Z</time></trkpt><trkpt lat="43.5355601" lon="10.7904995"><ele>178.0</ele><time>2026-04-18T08:22:27.342Z</time></trkpt><trkpt lat="43.5354641" lon="10.7904214"><ele>178.0</ele><time>2026-04-18T08:22:28.342Z</time></trkpt><trkpt lat="43.5353607" lon="10.7903361"><ele>178.0</ele><time>2026-04-18T08:22:29.342Z</time></trkpt><trkpt lat="43.5352535" lon="10.7902432"><ele>176.25</ele><time>2026-04-18T08:22:30.344Z</time></trkpt><trkpt lat="43.5351435" lon="10.7901505"><ele>174.5</ele><time>2026-04-18T08:22:31.343Z</time></trkpt><trkpt lat="43.5350404" lon="10.7900646"><ele>172.75</ele><time>2026-04-18T08:22:32.343Z</time></trkpt><trkpt lat="43.5349472" lon="10.7899851"><ele>171.0</ele><time>2026-04-18T08:22:33.345Z</time></trkpt><trkpt lat="43.5348578" lon="10.7899111"><ele>171.0</ele><time>2026-04-18T08:22:34.343Z</time></trkpt><trkpt lat="43.5347629" lon="10.789843"><ele>171.0</ele><time>2026-04-18T08:22:35.346Z</time></trkpt><trkpt lat="43.5346717" lon="10.7897756"><ele>171.0</ele><time>2026-04-18T08:22:36.341Z</time></trkpt><trkpt lat="43.5345799" lon="10.7897091"><ele>171.0</ele><time>2026-04-18T08:22:37.343Z</time></trkpt><trkpt lat="43.534488" lon="10.789648"><ele>171.0</ele><time>2026-04-18T08:22:38.344Z</time></trkpt><trkpt lat="43.5343979" lon="10.7895926"><ele>170.8</ele><time>2026-04-18T08:22:39.344Z</time></trkpt><trkpt lat="43.5343097" lon="10.7895343"><ele>170.60000000000002</ele><time>2026-04-18T08:22:40.343Z</time></trkpt><trkpt lat="43.5342143" lon="10.7894779"><ele>170.4</ele><time>2026-04-18T08:22:41.345Z</time></trkpt><trkpt lat="43.5341159" lon="10.7894194"><ele>170.2</ele><time>2026-04-18T08:22:42.342Z</time></trkpt><trkpt lat="43.5340111" lon="10.7893592"><ele>170.0</ele><time>2026-04-18T08:22:43.345Z</time></trkpt><trkpt lat="43.5339037" lon="10.7892949"><ele>170.0</ele><time>2026-04-18T08:22:44.342Z</time></trkpt><trkpt lat="43.5337983" lon="10.7892249"><ele>170.0</ele><time>2026-04-18T08:22:45.345Z</time></trkpt><trkpt lat="43.5336884" lon="10.7891554"><ele>170.0</ele><time>2026-04-18T08:22:46.343Z</time></trkpt><trkpt lat="43.5335739" lon="10.7890849"><ele>170.0</ele><time>2026-04-18T08:22:47.343Z</time></trkpt><trkpt lat="43.5334526" lon="10.78902"><ele>168.0</ele><time>2026-04-18T08:22:48.343Z</time></trkpt><trkpt lat="43.5333259" lon="10.7889536"><ele>166.0</ele><time>2026-04-18T08:22:49.344Z</time></trkpt><trkpt lat="43.5331986" lon="10.7888867"><ele>164.0</ele><time>2026-04-18T08:22:50.343Z</time></trkpt><trkpt lat="43.5330677" lon="10.7888162"><ele>162.0</ele><time>2026-04-18T08:22:51.344Z</time></trkpt><trkpt lat="43.5329387" lon="10.7887478"><ele>160.75</ele><time>2026-04-18T08:22:52.344Z</time></trkpt><trkpt lat="43.5328099" lon="10.7886765"><ele>159.5</ele><time>2026-04-18T08:22:53.345Z</time></trkpt><trkpt lat="43.5326817" lon="10.788605"><ele>158.25</ele><time>2026-04-18T08:22:54.343Z</time></trkpt><trkpt lat="43.5325548" lon="10.788532"><ele>157.0</ele><time>2026-04-18T08:22:55.344Z</time></trkpt><trkpt lat="43.5324296" lon="10.7884607"><ele>157.0</ele><time>2026-04-18T08:22:56.345Z</time></trkpt><trkpt lat="43.5323089" lon="10.78839"><ele>157.0</ele><time>2026-04-18T08:22:57.346Z</time></trkpt><trkpt lat="43.5321917" lon="10.7883227"><ele>157.0</ele><time>2026-04-18T08:22:58.345Z</time></trkpt><trkpt lat="43.5320833" lon="10.7882525"><ele>157.0</ele><time>2026-04-18T08:22:59.346Z</time></trkpt><trkpt lat="43.531982" lon="10.7881795"><ele>154.25</ele><time>2026-04-18T08:23:00.344Z</time></trkpt><trkpt lat="43.5318902" lon="10.7880981"><ele>151.5</ele><time>2026-04-18T08:23:01.344Z</time></trkpt><trkpt lat="43.5318114" lon="10.7880036"><ele>148.75</ele><time>2026-04-18T08:23:02.346Z</time></trkpt><trkpt lat="43.5317386" lon="10.7878884"><ele>146.0</ele><time>2026-04-18T08:23:03.342Z</time></trkpt><trkpt lat="43.5316581" lon="10.7877513"><ele>147.75</ele><time>2026-04-18T08:23:04.346Z</time></trkpt><trkpt lat="43.5315715" lon="10.7876004"><ele>149.5</ele><time>2026-04-18T08:23:05.346Z</time></trkpt><trkpt lat="43.5314814" lon="10.7874443"><ele>151.25</ele><time>2026-04-18T08:23:06.342Z</time></trkpt><trkpt lat="43.531394" lon="10.7872917"><ele>153.0</ele><time>2026-04-18T08:23:07.344Z</time></trkpt><trkpt lat="43.5313135" lon="10.787145"><ele>153.0</ele><time>2026-04-18T08:23:08.345Z</time></trkpt><trkpt lat="43.5312331" lon="10.7870066"><ele>153.0</ele><time>2026-04-18T08:23:09.346Z</time></trkpt><trkpt lat="43.5311562" lon="10.7868744"><ele>153.0</ele><time>2026-04-18T08:23:10.345Z</time></trkpt><trkpt lat="43.5310769" lon="10.7867515"><ele>153.0</ele><time>2026-04-18T08:23:11.345Z</time></trkpt><trkpt lat="43.5309979" lon="10.7866376"><ele>150.6</ele><time>2026-04-18T08:23:12.342Z</time></trkpt><trkpt lat="43.5309221" lon="10.78652"><ele>148.20000000000002</ele><time>2026-04-18T08:23:13.345Z</time></trkpt><trkpt lat="43.5308507" lon="10.7864165"><ele>145.8</ele><time>2026-04-18T08:23:14.346Z</time></trkpt><trkpt lat="43.5307883" lon="10.786328"><ele>143.4</ele><time>2026-04-18T08:23:15.346Z</time></trkpt><trkpt lat="43.5307339" lon="10.7862497"><ele>141.0</ele><time>2026-04-18T08:23:16.348Z</time></trkpt><trkpt lat="43.530689" lon="10.7861778"><ele>141.0</ele><time>2026-04-18T08:23:17.346Z</time></trkpt><trkpt lat="43.5306582" lon="10.7861019"><ele>141.0</ele><time>2026-04-18T08:23:18.342Z</time></trkpt><trkpt lat="43.5306466" lon="10.7859498"><ele>141.0</ele><time>2026-04-18T08:23:20.342Z</time></trkpt><trkpt lat="43.5306721" lon="10.7858619"><ele>141.0</ele><time>2026-04-18T08:23:21.348Z</time></trkpt><trkpt lat="43.5307114" lon="10.7857592"><ele>141.0</ele><time>2026-04-18T08:23:22.344Z</time></trkpt><trkpt lat="43.5307598" lon="10.7856502"><ele>141.0</ele><time>2026-04-18T08:23:23.342Z</time></trkpt><trkpt lat="43.5308084" lon="10.7855376"><ele>140.66666666666666</ele><time>2026-04-18T08:23:24.342Z</time></trkpt><trkpt lat="43.5308542" lon="10.7854297"><ele>140.33333333333334</ele><time>2026-04-18T08:23:25.342Z</time></trkpt><trkpt lat="43.530881" lon="10.7853197"><ele>140.0</ele><time>2026-04-18T08:23:26.342Z</time></trkpt><trkpt lat="43.5308948" lon="10.7852108"><ele>139.66666666666669</ele><time>2026-04-18T08:23:27.343Z</time></trkpt><trkpt lat="43.5308941" lon="10.7850965"><ele>139.33333333333334</ele><time>2026-04-18T08:23:28.342Z</time></trkpt><trkpt lat="43.5308888" lon="10.7849668"><ele>139.0</ele><time>2026-04-18T08:23:29.342Z</time></trkpt><trkpt lat="43.5308613" lon="10.7848271"><ele>139.0</ele><time>2026-04-18T08:23:30.342Z</time></trkpt><trkpt lat="43.5308264" lon="10.7846895"><ele>139.0</ele><time>2026-04-18T08:23:31.342Z</time></trkpt><trkpt lat="43.5307921" lon="10.7845531"><ele>139.0</ele><time>2026-04-18T08:23:32.342Z</time></trkpt><trkpt lat="43.5307612" lon="10.7844363"><ele>139.0</ele><time>2026-04-18T08:23:33.342Z</time></trkpt><trkpt lat="43.5307343" lon="10.7843384"><ele>139.0</ele><time>2026-04-18T08:23:34.342Z</time></trkpt><trkpt lat="43.5307038" lon="10.7842621"><ele>139.0</ele><time>2026-04-18T08:23:35.343Z</time></trkpt><trkpt lat="43.5306344" lon="10.7841562"><ele>138.2</ele><time>2026-04-18T08:23:37.343Z</time></trkpt><trkpt lat="43.5305536" lon="10.7841156"><ele>137.4</ele><time>2026-04-18T08:23:39.343Z</time></trkpt><trkpt lat="43.5304358" lon="10.7842262"><ele>136.6</ele><time>2026-04-18T08:23:41.342Z</time></trkpt><trkpt lat="43.5303609" lon="10.7843248"><ele>135.8</ele><time>2026-04-18T08:23:42.344Z</time></trkpt><trkpt lat="43.5302797" lon="10.7844278"><ele>135.0</ele><time>2026-04-18T08:23:43.342Z</time></trkpt><trkpt lat="43.5302013" lon="10.7845237"><ele>135.0</ele><time>2026-04-18T08:23:44.342Z</time></trkpt><trkpt lat="43.5301333" lon="10.7845961"><ele>135.0</ele><time>2026-04-18T08:23:45.343Z</time></trkpt><trkpt lat="43.5300548" lon="10.7846588"><ele>135.0</ele><time>2026-04-18T08:23:46.342Z</time></trkpt><trkpt lat="43.5299646" lon="10.7847061"><ele>135.0</ele><time>2026-04-18T08:23:47.342Z</time></trkpt><trkpt lat="43.5298549" lon="10.7847369"><ele>135.0</ele><time>2026-04-18T08:23:48.346Z</time></trkpt><trkpt lat="43.5297216" lon="10.7847484"><ele>135.0</ele><time>2026-04-18T08:23:49.345Z</time></trkpt><trkpt lat="43.5295886" lon="10.7847454"><ele>135.0</ele><time>2026-04-18T08:23:50.345Z</time></trkpt><trkpt lat="43.5294465" lon="10.7847356"><ele>135.0</ele><time>2026-04-18T08:23:51.348Z</time></trkpt><trkpt lat="43.5293124" lon="10.784714"><ele>135.0</ele><time>2026-04-18T08:23:52.345Z</time></trkpt><trkpt lat="43.5291837" lon="10.784689"><ele>130.6</ele><time>2026-04-18T08:23:53.346Z</time></trkpt><trkpt lat="43.5290593" lon="10.7846642"><ele>126.2</ele><time>2026-04-18T08:23:54.342Z</time></trkpt><trkpt lat="43.5289519" lon="10.7846361"><ele>121.80000000000001</ele><time>2026-04-18T08:23:55.347Z</time></trkpt><trkpt lat="43.5288569" lon="10.7846116"><ele>117.4</ele><time>2026-04-18T08:23:56.346Z</time></trkpt><trkpt lat="43.5287767" lon="10.784596"><ele>113.0</ele><time>2026-04-18T08:23:57.347Z</time></trkpt><trkpt lat="43.5287041" lon="10.7845889"><ele>110.99999999999999</ele><time>2026-04-18T08:23:58.346Z</time></trkpt><trkpt lat="43.5286318" lon="10.7845862"><ele>109.0</ele><time>2026-04-18T08:23:59.343Z</time></trkpt><trkpt lat="43.5285526" lon="10.7845982"><ele>107.0</ele><time>2026-04-18T08:24:00.343Z</time></trkpt><trkpt lat="43.5284719" lon="10.7846193"><ele>105.0</ele><time>2026-04-18T08:24:01.344Z</time></trkpt><trkpt lat="43.5283898" lon="10.784642"><ele>102.99999999999999</ele><time>2026-04-18T08:24:02.347Z</time></trkpt><trkpt lat="43.5283056" lon="10.7846634"><ele>101.0</ele><time>2026-04-18T08:24:03.346Z</time></trkpt><trkpt lat="43.528219" lon="10.7846823"><ele>100.99999999999999</ele><time>2026-04-18T08:24:04.344Z</time></trkpt><trkpt lat="43.528131" lon="10.7846892"><ele>101.0</ele><time>2026-04-18T08:24:05.348Z</time></trkpt><trkpt lat="43.5280452" lon="10.7846846"><ele>101.0</ele><time>2026-04-18T08:24:06.342Z</time></trkpt><trkpt lat="43.5279617" lon="10.7846741"><ele>101.0</ele><time>2026-04-18T08:24:07.346Z</time></trkpt><trkpt lat="43.5278769" lon="10.7846627"><ele>100.99999999999999</ele><time>2026-04-18T08:24:08.346Z</time></trkpt><trkpt lat="43.5277934" lon="10.7846519"><ele>101.0</ele><time>2026-04-18T08:24:09.345Z</time></trkpt><trkpt lat="43.5277135" lon="10.7846376"><ele>98.99999999999999</ele><time>2026-04-18T08:24:10.342Z</time></trkpt><trkpt lat="43.5276364" lon="10.7846198"><ele>97.0</ele><time>2026-04-18T08:24:11.346Z</time></trkpt><trkpt lat="43.5275602" lon="10.7845912"><ele>95.0</ele><time>2026-04-18T08:24:12.342Z</time></trkpt><trkpt lat="43.5274833" lon="10.784552"><ele>93.0</ele><time>2026-04-18T08:24:13.344Z</time></trkpt><trkpt lat="43.5274108" lon="10.7845017"><ele>91.0</ele><time>2026-04-18T08:24:14.342Z</time></trkpt><trkpt lat="43.5273452" lon="10.7844358"><ele>89.0</ele><time>2026-04-18T08:24:15.345Z</time></trkpt><trkpt lat="43.5272896" lon="10.7843606"><ele>89.4</ele><time>2026-04-18T08:24:16.343Z</time></trkpt><trkpt lat="43.527236" lon="10.7842769"><ele>89.80000000000001</ele><time>2026-04-18T08:24:17.346Z</time></trkpt><trkpt lat="43.5271815" lon="10.7841819"><ele>90.19999999999999</ele><time>2026-04-18T08:24:18.344Z</time></trkpt><trkpt lat="43.5271251" lon="10.7840767"><ele>90.6</ele><time>2026-04-18T08:24:19.346Z</time></trkpt><trkpt lat="43.5270635" lon="10.7839615"><ele>91.0</ele><time>2026-04-18T08:24:20.347Z</time></trkpt><trkpt lat="43.5270002" lon="10.7838454"><ele>91.0</ele><time>2026-04-18T08:24:21.343Z</time></trkpt><trkpt lat="43.5269383" lon="10.7837332"><ele>91.0</ele><time>2026-04-18T08:24:22.347Z</time></trkpt><trkpt lat="43.5268783" lon="10.783631"><ele>91.0</ele><time>2026-04-18T08:24:23.343Z</time></trkpt><trkpt lat="43.5268169" lon="10.783536"><ele>91.0</ele><time>2026-04-18T08:24:24.342Z</time></trkpt><trkpt lat="43.526761" lon="10.7834331"><ele>91.0</ele><time>2026-04-18T08:24:25.342Z</time></trkpt><trkpt lat="43.5267059" lon="10.783326"><ele>90.33333333333333</ele><time>2026-04-18T08:24:26.344Z</time></trkpt><trkpt lat="43.526656" lon="10.7832276"><ele>89.66666666666666</ele><time>2026-04-18T08:24:27.343Z</time></trkpt><trkpt lat="43.5266095" lon="10.7831258"><ele>89.0</ele><time>2026-04-18T08:24:28.347Z</time></trkpt><trkpt lat="43.5265705" lon="10.7830173"><ele>88.33333333333333</ele><time>2026-04-18T08:24:29.342Z</time></trkpt><trkpt lat="43.5265346" lon="10.7829058"><ele>87.66666666666667</ele><time>2026-04-18T08:24:30.343Z</time></trkpt><trkpt lat="43.526498" lon="10.7827918"><ele>87.0</ele><time>2026-04-18T08:24:31.342Z</time></trkpt><trkpt lat="43.5264625" lon="10.7826707"><ele>84.6</ele><time>2026-04-18T08:24:32.342Z</time></trkpt><trkpt lat="43.5264247" lon="10.7825483"><ele>82.19999999999999</ele><time>2026-04-18T08:24:33.343Z</time></trkpt><trkpt lat="43.5263831" lon="10.7824281"><ele>79.8</ele><time>2026-04-18T08:24:34.346Z</time></trkpt><trkpt lat="43.5263458" lon="10.7823085"><ele>77.4</ele><time>2026-04-18T08:24:35.347Z</time></trkpt><trkpt lat="43.5263093" lon="10.7821915"><ele>75.0</ele><time>2026-04-18T08:24:36.342Z</time></trkpt><trkpt lat="43.5262774" lon="10.7820752"><ele>75.0</ele><time>2026-04-18T08:24:37.344Z</time></trkpt><trkpt lat="43.5262475" lon="10.781957"><ele>75.0</ele><time>2026-04-18T08:24:38.343Z</time></trkpt><trkpt lat="43.5262208" lon="10.7818449"><ele>75.0</ele><time>2026-04-18T08:24:39.342Z</time></trkpt><trkpt lat="43.5261915" lon="10.7817367"><ele>75.0</ele><time>2026-04-18T08:24:40.346Z</time></trkpt><trkpt lat="43.5261615" lon="10.7816273"><ele>75.0</ele><time>2026-04-18T08:24:41.345Z</time></trkpt><trkpt lat="43.5261302" lon="10.7815145"><ele>75.0</ele><time>2026-04-18T08:24:42.348Z</time></trkpt><trkpt lat="43.5261058" lon="10.7814077"><ele>73.8</ele><time>2026-04-18T08:24:43.343Z</time></trkpt><trkpt lat="43.5260871" lon="10.7813072"><ele>72.6</ele><time>2026-04-18T08:24:44.346Z</time></trkpt><trkpt lat="43.5260449" lon="10.7811831"><ele>71.4</ele><time>2026-04-18T08:24:46.346Z</time></trkpt><trkpt lat="43.5259765" lon="10.781154"><ele>70.2</ele><time>2026-04-18T08:24:53.346Z</time></trkpt><trkpt lat="43.5258895" lon="10.7812107"><ele>69.0</ele><time>2026-04-18T08:24:55.347Z</time></trkpt><trkpt lat="43.5257664" lon="10.7813232"><ele>69.0</ele><time>2026-04-18T08:24:57.347Z</time></trkpt><trkpt lat="43.5256898" lon="10.7814008"><ele>69.0</ele><time>2026-04-18T08:24:58.347Z</time></trkpt><trkpt lat="43.5256056" lon="10.781485"><ele>69.0</ele><time>2026-04-18T08:24:59.344Z</time></trkpt><trkpt lat="43.5255134" lon="10.7815753"><ele>69.0</ele><time>2026-04-18T08:25:00.343Z</time></trkpt><trkpt lat="43.5254224" lon="10.7816679"><ele>69.0</ele><time>2026-04-18T08:25:01.343Z</time></trkpt><trkpt lat="43.5253289" lon="10.7817612"><ele>69.5</ele><time>2026-04-18T08:25:02.344Z</time></trkpt><trkpt lat="43.525234" lon="10.7818608"><ele>70.0</ele><time>2026-04-18T08:25:03.342Z</time></trkpt><trkpt lat="43.5251376" lon="10.7819599"><ele>70.5</ele><time>2026-04-18T08:25:04.343Z</time></trkpt><trkpt lat="43.5250362" lon="10.7820569"><ele>71.0</ele><time>2026-04-18T08:25:05.344Z</time></trkpt><trkpt lat="43.5249385" lon="10.7821585"><ele>71.0</ele><time>2026-04-18T08:25:06.343Z</time></trkpt><trkpt lat="43.5248468" lon="10.7822623"><ele>71.0</ele><time>2026-04-18T08:25:07.341Z</time></trkpt><trkpt lat="43.5247644" lon="10.7823763"><ele>71.0</ele><time>2026-04-18T08:25:08.342Z</time></trkpt><trkpt lat="43.524691" lon="10.7824971"><ele>71.0</ele><time>2026-04-18T08:25:09.345Z</time></trkpt><trkpt lat="43.524623" lon="10.7826361"><ele>69.5</ele><time>2026-04-18T08:25:10.345Z</time></trkpt><trkpt lat="43.5245598" lon="10.7827789"><ele>68.0</ele><time>2026-04-18T08:25:11.341Z</time></trkpt><trkpt lat="43.5245012" lon="10.7829177"><ele>66.5</ele><time>2026-04-18T08:25:12.342Z</time></trkpt><trkpt lat="43.5244443" lon="10.7830552"><ele>65.0</ele><time>2026-04-18T08:25:13.341Z</time></trkpt><trkpt lat="43.5243809" lon="10.7831885"><ele>65.0</ele><time>2026-04-18T08:25:14.341Z</time></trkpt><trkpt lat="43.5243184" lon="10.7833158"><ele>65.0</ele><time>2026-04-18T08:25:15.345Z</time></trkpt><trkpt lat="43.5242599" lon="10.7834416"><ele>65.0</ele><time>2026-04-18T08:25:16.341Z</time></trkpt><trkpt lat="43.5242032" lon="10.7835605"><ele>65.0</ele><time>2026-04-18T08:25:17.341Z</time></trkpt><trkpt lat="43.5241469" lon="10.7836739"><ele>65.0</ele><time>2026-04-18T08:25:18.345Z</time></trkpt><trkpt lat="43.5240933" lon="10.7837862"><ele>65.0</ele><time>2026-04-18T08:25:19.342Z</time></trkpt><trkpt lat="43.5240417" lon="10.7838973"><ele>65.0</ele><time>2026-04-18T08:25:20.346Z</time></trkpt><trkpt lat="43.5239884" lon="10.7840036"><ele>65.0</ele><time>2026-04-18T08:25:21.345Z</time></trkpt><trkpt lat="43.5239352" lon="10.7841053"><ele>65.0</ele><time>2026-04-18T08:25:22.343Z</time></trkpt><trkpt lat="43.5238788" lon="10.7842039"><ele>65.0</ele><time>2026-04-18T08:25:23.342Z</time></trkpt><trkpt lat="43.5238146" lon="10.7842944"><ele>65.6</ele><time>2026-04-18T08:25:24.342Z</time></trkpt><trkpt lat="43.5237442" lon="10.7843747"><ele>66.2</ele><time>2026-04-18T08:25:25.342Z</time></trkpt><trkpt lat="43.5236706" lon="10.7844444"><ele>66.8</ele><time>2026-04-18T08:25:26.341Z</time></trkpt><trkpt lat="43.523586" lon="10.7845058"><ele>67.4</ele><time>2026-04-18T08:25:27.342Z</time></trkpt><trkpt lat="43.5234958" lon="10.7845606"><ele>68.0</ele><time>2026-04-18T08:25:28.345Z</time></trkpt><trkpt lat="43.5234057" lon="10.7846162"><ele>68.2</ele><time>2026-04-18T08:25:29.342Z</time></trkpt><trkpt lat="43.5233094" lon="10.784673"><ele>68.4</ele><time>2026-04-18T08:25:30.345Z</time></trkpt><trkpt lat="43.5232139" lon="10.784731"><ele>68.60000000000001</ele><time>2026-04-18T08:25:31.341Z</time></trkpt><trkpt lat="43.5231185" lon="10.7847912"><ele>68.8</ele><time>2026-04-18T08:25:32.341Z</time></trkpt><trkpt lat="43.523025" lon="10.7848502"><ele>69.0</ele><time>2026-04-18T08:25:33.342Z</time></trkpt><trkpt lat="43.5229392" lon="10.784902"><ele>68.66666666666667</ele><time>2026-04-18T08:25:34.341Z</time></trkpt><trkpt lat="43.5228595" lon="10.7849486"><ele>68.33333333333333</ele><time>2026-04-18T08:25:35.342Z</time></trkpt><trkpt lat="43.5227814" lon="10.7850014"><ele>68.0</ele><time>2026-04-18T08:25:36.341Z</time></trkpt><trkpt lat="43.5227034" lon="10.7850505"><ele>67.66666666666666</ele><time>2026-04-18T08:25:37.342Z</time></trkpt><trkpt lat="43.5226237" lon="10.7850937"><ele>67.33333333333333</ele><time>2026-04-18T08:25:38.342Z</time></trkpt><trkpt lat="43.5225468" lon="10.7851338"><ele>67.0</ele><time>2026-04-18T08:25:39.343Z</time></trkpt><trkpt lat="43.522476" lon="10.7851694"><ele>67.4</ele><time>2026-04-18T08:25:40.342Z</time></trkpt><trkpt lat="43.5223782" lon="10.7852383"><ele>67.80000000000001</ele><time>2026-04-18T08:25:42.346Z</time></trkpt><trkpt lat="43.5223611" lon="10.7853568"><ele>68.2</ele><time>2026-04-18T08:25:44.341Z</time></trkpt><trkpt lat="43.522413" lon="10.7854989"><ele>68.60000000000001</ele><time>2026-04-18T08:25:46.345Z</time></trkpt><trkpt lat="43.5224582" lon="10.785575"><ele>69.0</ele><time>2026-04-18T08:25:47.345Z</time></trkpt><trkpt lat="43.5224984" lon="10.7856659"><ele>69.0</ele><time>2026-04-18T08:25:48.346Z</time></trkpt><trkpt lat="43.5225257" lon="10.7857702"><ele>69.0</ele><time>2026-04-18T08:25:49.345Z</time></trkpt><trkpt lat="43.522541" lon="10.7858853"><ele>69.0</ele><time>2026-04-18T08:25:50.344Z</time></trkpt><trkpt lat="43.5225503" lon="10.7860089"><ele>69.0</ele><time>2026-04-18T08:25:51.343Z</time></trkpt><trkpt lat="43.5225567" lon="10.7861403"><ele>69.0</ele><time>2026-04-18T08:25:52.346Z</time></trkpt><trkpt lat="43.5225672" lon="10.7862722"><ele>69.0</ele><time>2026-04-18T08:25:53.346Z</time></trkpt><trkpt lat="43.5225741" lon="10.7864011"><ele>69.2</ele><time>2026-04-18T08:25:54.345Z</time></trkpt><trkpt lat="43.5225826" lon="10.7865255"><ele>69.4</ele><time>2026-04-18T08:25:55.345Z</time></trkpt><trkpt lat="43.5225898" lon="10.7866514"><ele>69.6</ele><time>2026-04-18T08:25:56.342Z</time></trkpt><trkpt lat="43.5226025" lon="10.7867832"><ele>69.8</ele><time>2026-04-18T08:25:57.343Z</time></trkpt><trkpt lat="43.5226181" lon="10.7869261"><ele>70.0</ele><time>2026-04-18T08:25:58.343Z</time></trkpt><trkpt lat="43.5226384" lon="10.7870774"><ele>70.5</ele><time>2026-04-18T08:25:59.343Z</time></trkpt><trkpt lat="43.5226648" lon="10.7872357"><ele>71.0</ele><time>2026-04-18T08:26:00.343Z</time></trkpt><trkpt lat="43.5226931" lon="10.787401"><ele>71.5</ele><time>2026-04-18T08:26:01.343Z</time></trkpt><trkpt lat="43.5227219" lon="10.7875723"><ele>72.0</ele><time>2026-04-18T08:26:02.343Z</time></trkpt><trkpt lat="43.5227513" lon="10.7877422"><ele>72.5</ele><time>2026-04-18T08:26:03.343Z</time></trkpt><trkpt lat="43.5227799" lon="10.7879144"><ele>73.0</ele><time>2026-04-18T08:26:04.343Z</time></trkpt><trkpt lat="43.5228047" lon="10.7880756"><ele>73.5</ele><time>2026-04-18T08:26:05.343Z</time></trkpt><trkpt lat="43.5228265" lon="10.7882379"><ele>74.0</ele><time>2026-04-18T08:26:06.345Z</time></trkpt><trkpt lat="43.522853" lon="10.7883988"><ele>75.5</ele><time>2026-04-18T08:26:07.344Z</time></trkpt><trkpt lat="43.5228766" lon="10.7885601"><ele>77.0</ele><time>2026-04-18T08:26:08.346Z</time></trkpt><trkpt lat="43.5229013" lon="10.7887186"><ele>78.5</ele><time>2026-04-18T08:26:09.345Z</time></trkpt><trkpt lat="43.5229279" lon="10.7888738"><ele>80.0</ele><time>2026-04-18T08:26:10.345Z</time></trkpt><trkpt lat="43.5229526" lon="10.7890295"><ele>80.8</ele><time>2026-04-18T08:26:11.345Z</time></trkpt><trkpt lat="43.5229741" lon="10.7891862"><ele>81.6</ele><time>2026-04-18T08:26:12.342Z</time></trkpt><trkpt lat="43.5229952" lon="10.7893405"><ele>82.4</ele><time>2026-04-18T08:26:13.342Z</time></trkpt><trkpt lat="43.5230155" lon="10.7894888"><ele>83.2</ele><time>2026-04-18T08:26:14.344Z</time></trkpt><trkpt lat="43.5230421" lon="10.7896244"><ele>84.0</ele><time>2026-04-18T08:26:15.343Z</time></trkpt><trkpt lat="43.5230711" lon="10.7897513"><ele>85.2</ele><time>2026-04-18T08:26:16.345Z</time></trkpt><trkpt lat="43.5230982" lon="10.789859"><ele>86.4</ele><time>2026-04-18T08:26:17.342Z</time></trkpt><trkpt lat="43.5231174" lon="10.7899506"><ele>87.6</ele><time>2026-04-18T08:26:18.342Z</time></trkpt><trkpt lat="43.523132" lon="10.7900981"><ele>88.8</ele><time>2026-04-18T08:26:20.343Z</time></trkpt><trkpt lat="43.5231424" lon="10.7902262"><ele>90.0</ele><time>2026-04-18T08:26:22.343Z</time></trkpt><trkpt lat="43.5231722" lon="10.7904065"><ele>90.5</ele><time>2026-04-18T08:26:24.344Z</time></trkpt><trkpt lat="43.523191" lon="10.7905202"><ele>91.0</ele><time>2026-04-18T08:26:25.344Z</time></trkpt><trkpt lat="43.5232136" lon="10.7906336"><ele>91.5</ele><time>2026-04-18T08:26:26.342Z</time></trkpt><trkpt lat="43.5232373" lon="10.7907487"><ele>92.0</ele><time>2026-04-18T08:26:27.344Z</time></trkpt><trkpt lat="43.5232655" lon="10.7908654"><ele>92.5</ele><time>2026-04-18T08:26:28.342Z</time></trkpt><trkpt lat="43.5233014" lon="10.7909796"><ele>93.0</ele><time>2026-04-18T08:26:29.342Z</time></trkpt><trkpt lat="43.523338" lon="10.7911027"><ele>93.0</ele><time>2026-04-18T08:26:30.342Z</time></trkpt><trkpt lat="43.5233942" lon="10.7912125"><ele>93.0</ele><time>2026-04-18T08:26:31.342Z</time></trkpt><trkpt lat="43.5234571" lon="10.7913228"><ele>93.0</ele><time>2026-04-18T08:26:32.342Z</time></trkpt><trkpt lat="43.5235271" lon="10.7914389"><ele>93.0</ele><time>2026-04-18T08:26:33.343Z</time></trkpt><trkpt lat="43.5235949" lon="10.7915421"><ele>93.0</ele><time>2026-04-18T08:26:34.342Z</time></trkpt><trkpt lat="43.5236487" lon="10.7916472"><ele>93.0</ele><time>2026-04-18T08:26:35.343Z</time></trkpt><trkpt lat="43.5236903" lon="10.7917564"><ele>93.0</ele><time>2026-04-18T08:26:36.343Z</time></trkpt><trkpt lat="43.523716" lon="10.791871"><ele>93.0</ele><time>2026-04-18T08:26:37.343Z</time></trkpt><trkpt lat="43.5237305" lon="10.791985"><ele>93.0</ele><time>2026-04-18T08:26:38.342Z</time></trkpt><trkpt lat="43.5237317" lon="10.7920941"><ele>93.0</ele><time>2026-04-18T08:26:39.342Z</time></trkpt><trkpt lat="43.523726" lon="10.7922017"><ele>93.0</ele><time>2026-04-18T08:26:40.342Z</time></trkpt><trkpt lat="43.5237113" lon="10.7923103"><ele>93.0</ele><time>2026-04-18T08:26:41.343Z</time></trkpt><trkpt lat="43.5236852" lon="10.7924303"><ele>93.0</ele><time>2026-04-18T08:26:42.342Z</time></trkpt><trkpt lat="43.5236504" lon="10.7925672"><ele>93.0</ele><time>2026-04-18T08:26:43.342Z</time></trkpt><trkpt lat="43.523618" lon="10.7927197"><ele>93.0</ele><time>2026-04-18T08:26:44.344Z</time></trkpt><trkpt lat="43.5235891" lon="10.792884"><ele>93.0</ele><time>2026-04-18T08:26:45.343Z</time></trkpt><trkpt lat="43.5235601" lon="10.7930702"><ele>93.75</ele><time>2026-04-18T08:26:46.343Z</time></trkpt><trkpt lat="43.5235497" lon="10.7932652"><ele>94.5</ele><time>2026-04-18T08:26:47.343Z</time></trkpt><trkpt lat="43.5235435" lon="10.7934705"><ele>95.25</ele><time>2026-04-18T08:26:48.342Z</time></trkpt><trkpt lat="43.5235391" lon="10.7936764"><ele>96.0</ele><time>2026-04-18T08:26:49.342Z</time></trkpt><trkpt lat="43.5235342" lon="10.7938708"><ele>96.0</ele><time>2026-04-18T08:26:50.343Z</time></trkpt><trkpt lat="43.5235263" lon="10.7940671"><ele>96.0</ele><time>2026-04-18T08:26:51.342Z</time></trkpt><trkpt lat="43.5235157" lon="10.7942609"><ele>96.0</ele><time>2026-04-18T08:26:52.345Z</time></trkpt><trkpt lat="43.5235044" lon="10.7944543"><ele>96.0</ele><time>2026-04-18T08:26:53.343Z</time></trkpt><trkpt lat="43.5234904" lon="10.7946343"><ele>96.0</ele><time>2026-04-18T08:26:54.342Z</time></trkpt><trkpt lat="43.5234768" lon="10.7947991"><ele>96.0</ele><time>2026-04-18T08:26:55.342Z</time></trkpt><trkpt lat="43.5234707" lon="10.7949441"><ele>96.0</ele><time>2026-04-18T08:26:56.342Z</time></trkpt><trkpt lat="43.5234679" lon="10.7950731"><ele>96.0</ele><time>2026-04-18T08:26:57.342Z</time></trkpt><trkpt lat="43.5234801" lon="10.7952095"><ele>96.0</ele><time>2026-04-18T08:26:58.347Z</time></trkpt><trkpt lat="43.5235154" lon="10.7953612"><ele>95.0</ele><time>2026-04-18T08:26:59.346Z</time></trkpt><trkpt lat="43.5235568" lon="10.7955303"><ele>94.0</ele><time>2026-04-18T08:27:00.345Z</time></trkpt><trkpt lat="43.5236025" lon="10.7957064"><ele>93.0</ele><time>2026-04-18T08:27:01.342Z</time></trkpt><trkpt lat="43.5236529" lon="10.7958842"><ele>92.0</ele><time>2026-04-18T08:27:02.344Z</time></trkpt><trkpt lat="43.5237089" lon="10.7960449"><ele>92.75</ele><time>2026-04-18T08:27:03.344Z</time></trkpt><trkpt lat="43.5237736" lon="10.7961994"><ele>93.5</ele><time>2026-04-18T08:27:04.346Z</time></trkpt><trkpt lat="43.5238406" lon="10.7963581"><ele>94.25</ele><time>2026-04-18T08:27:05.346Z</time></trkpt><trkpt lat="43.5238939" lon="10.7965264"><ele>95.0</ele><time>2026-04-18T08:27:06.345Z</time></trkpt><trkpt lat="43.5239379" lon="10.7967012"><ele>94.75</ele><time>2026-04-18T08:27:07.345Z</time></trkpt><trkpt lat="43.5239739" lon="10.7968768"><ele>94.5</ele><time>2026-04-18T08:27:08.342Z</time></trkpt><trkpt lat="43.524006" lon="10.7970612"><ele>94.25</ele><time>2026-04-18T08:27:09.346Z</time></trkpt><trkpt lat="43.5240324" lon="10.7972461"><ele>94.0</ele><time>2026-04-18T08:27:10.342Z</time></trkpt><trkpt lat="43.5240521" lon="10.7974362"><ele>94.0</ele><time>2026-04-18T08:27:11.342Z</time></trkpt><trkpt lat="43.5240689" lon="10.7976328"><ele>94.0</ele><time>2026-04-18T08:27:12.343Z</time></trkpt><trkpt lat="43.5240825" lon="10.797832"><ele>94.0</ele><time>2026-04-18T08:27:13.342Z</time></trkpt><trkpt lat="43.5240943" lon="10.7980272"><ele>94.0</ele><time>2026-04-18T08:27:14.346Z</time></trkpt><trkpt lat="43.524105" lon="10.7982167"><ele>95.0</ele><time>2026-04-18T08:27:15.342Z</time></trkpt><trkpt lat="43.5241221" lon="10.7983978"><ele>96.0</ele><time>2026-04-18T08:27:16.343Z</time></trkpt><trkpt lat="43.5241454" lon="10.7985697"><ele>97.0</ele><time>2026-04-18T08:27:17.343Z</time></trkpt><trkpt lat="43.5241684" lon="10.7987427"><ele>98.0</ele><time>2026-04-18T08:27:18.343Z</time></trkpt><trkpt lat="43.5241934" lon="10.7989157"><ele>98.75</ele><time>2026-04-18T08:27:19.342Z</time></trkpt><trkpt lat="43.5242175" lon="10.7990868"><ele>99.5</ele><time>2026-04-18T08:27:20.342Z</time></trkpt><trkpt lat="43.5242388" lon="10.7992566"><ele>100.25</ele><time>2026-04-18T08:27:21.343Z</time></trkpt><trkpt lat="43.5242572" lon="10.7994264"><ele>101.0</ele><time>2026-04-18T08:27:22.342Z</time></trkpt><trkpt lat="43.5242616" lon="10.7995895"><ele>100.75</ele><time>2026-04-18T08:27:23.342Z</time></trkpt><trkpt lat="43.524254" lon="10.7997481"><ele>100.5</ele><time>2026-04-18T08:27:24.345Z</time></trkpt><trkpt lat="43.5242392" lon="10.7999125"><ele>100.25</ele><time>2026-04-18T08:27:25.342Z</time></trkpt><trkpt lat="43.5242218" lon="10.8000754"><ele>100.0</ele><time>2026-04-18T08:27:26.342Z</time></trkpt><trkpt lat="43.5242006" lon="10.8002362"><ele>100.0</ele><time>2026-04-18T08:27:27.342Z</time></trkpt><trkpt lat="43.5241849" lon="10.8003981"><ele>100.0</ele><time>2026-04-18T08:27:28.344Z</time></trkpt><trkpt lat="43.5241719" lon="10.8005538"><ele>100.0</ele><time>2026-04-18T08:27:29.342Z</time></trkpt><trkpt lat="43.5241646" lon="10.8006962"><ele>100.0</ele><time>2026-04-18T08:27:30.342Z</time></trkpt><trkpt lat="43.5241613" lon="10.800825"><ele>100.0</ele><time>2026-04-18T08:27:31.343Z</time></trkpt><trkpt lat="43.5241507" lon="10.8009519"><ele>98.8</ele><time>2026-04-18T08:27:32.345Z</time></trkpt><trkpt lat="43.5241279" lon="10.80108"><ele>97.6</ele><time>2026-04-18T08:27:33.343Z</time></trkpt><trkpt lat="43.5240934" lon="10.8012157"><ele>96.4</ele><time>2026-04-18T08:27:34.343Z</time></trkpt><trkpt lat="43.5240515" lon="10.8013527"><ele>95.2</ele><time>2026-04-18T08:27:35.343Z</time></trkpt><trkpt lat="43.5239988" lon="10.801491"><ele>94.0</ele><time>2026-04-18T08:27:36.346Z</time></trkpt><trkpt lat="43.5239428" lon="10.8016237"><ele>94.0</ele><time>2026-04-18T08:27:37.344Z</time></trkpt><trkpt lat="43.5238886" lon="10.8017463"><ele>94.0</ele><time>2026-04-18T08:27:38.345Z</time></trkpt><trkpt lat="43.5238323" lon="10.8018542"><ele>94.0</ele><time>2026-04-18T08:27:39.345Z</time></trkpt><trkpt lat="43.5237679" lon="10.8019487"><ele>94.0</ele><time>2026-04-18T08:27:40.345Z</time></trkpt><trkpt lat="43.5236931" lon="10.8020274"><ele>94.0</ele><time>2026-04-18T08:27:41.343Z</time></trkpt><trkpt lat="43.5236039" lon="10.8020951"><ele>95.80000000000001</ele><time>2026-04-18T08:27:42.342Z</time></trkpt><trkpt lat="43.5234964" lon="10.802156"><ele>97.60000000000001</ele><time>2026-04-18T08:27:43.342Z</time></trkpt><trkpt lat="43.5233968" lon="10.802219"><ele>99.4</ele><time>2026-04-18T08:27:44.345Z</time></trkpt><trkpt lat="43.5233033" lon="10.8022793"><ele>101.2</ele><time>2026-04-18T08:27:45.346Z</time></trkpt><trkpt lat="43.5232199" lon="10.8023387"><ele>103.0</ele><time>2026-04-18T08:27:46.344Z</time></trkpt><trkpt lat="43.5231504" lon="10.8024078"><ele>103.00000000000001</ele><time>2026-04-18T08:27:47.345Z</time></trkpt><trkpt lat="43.5230923" lon="10.8024918"><ele>103.0</ele><time>2026-04-18T08:27:48.343Z</time></trkpt><trkpt lat="43.5230425" lon="10.8025887"><ele>103.0</ele><time>2026-04-18T08:27:49.342Z</time></trkpt><trkpt lat="43.5230052" lon="10.8026984"><ele>103.0</ele><time>2026-04-18T08:27:50.343Z</time></trkpt><trkpt lat="43.5229769" lon="10.8028234"><ele>103.00000000000001</ele><time>2026-04-18T08:27:51.343Z</time></trkpt><trkpt lat="43.5229603" lon="10.8029436"><ele>103.0</ele><time>2026-04-18T08:27:52.342Z</time></trkpt><trkpt lat="43.5229488" lon="10.8030434"><ele>103.50000000000001</ele><time>2026-04-18T08:27:53.343Z</time></trkpt><trkpt lat="43.5229389" lon="10.803134"><ele>104.0</ele><time>2026-04-18T08:27:54.342Z</time></trkpt><trkpt lat="43.5229339" lon="10.8032314"><ele>104.5</ele><time>2026-04-18T08:27:55.342Z</time></trkpt><trkpt lat="43.5229338" lon="10.8033364"><ele>105.0</ele><time>2026-04-18T08:27:56.343Z</time></trkpt><trkpt lat="43.522936" lon="10.8034549"><ele>105.50000000000001</ele><time>2026-04-18T08:27:57.343Z</time></trkpt><trkpt lat="43.5229441" lon="10.803572"><ele>106.0</ele><time>2026-04-18T08:27:58.342Z</time></trkpt><trkpt lat="43.5229625" lon="10.8036785"><ele>106.0</ele><time>2026-04-18T08:27:59.342Z</time></trkpt><trkpt lat="43.5229896" lon="10.8037841"><ele>106.0</ele><time>2026-04-18T08:28:00.343Z</time></trkpt><trkpt lat="43.5230308" lon="10.8038877"><ele>106.0</ele><time>2026-04-18T08:28:01.348Z</time></trkpt><trkpt lat="43.5230893" lon="10.8039995"><ele>106.0</ele><time>2026-04-18T08:28:02.346Z</time></trkpt><trkpt lat="43.5231543" lon="10.8041229"><ele>106.0</ele><time>2026-04-18T08:28:03.346Z</time></trkpt><trkpt lat="43.5232163" lon="10.8042507"><ele>104.5</ele><time>2026-04-18T08:28:04.344Z</time></trkpt><trkpt lat="43.5232795" lon="10.8043841"><ele>103.0</ele><time>2026-04-18T08:28:05.342Z</time></trkpt><trkpt lat="43.5233474" lon="10.804526"><ele>101.5</ele><time>2026-04-18T08:28:06.342Z</time></trkpt><trkpt lat="43.5234102" lon="10.8046739"><ele>100.0</ele><time>2026-04-18T08:28:07.344Z</time></trkpt><trkpt lat="43.5234748" lon="10.8048226"><ele>100.0</ele><time>2026-04-18T08:28:08.343Z</time></trkpt><trkpt lat="43.5235444" lon="10.8049756"><ele>100.0</ele><time>2026-04-18T08:28:09.345Z</time></trkpt><trkpt lat="43.5236054" lon="10.8051308"><ele>100.0</ele><time>2026-04-18T08:28:10.345Z</time></trkpt><trkpt lat="43.5236516" lon="10.8052771"><ele>100.0</ele><time>2026-04-18T08:28:11.347Z</time></trkpt><trkpt lat="43.5236861" lon="10.8054244"><ele>99.8</ele><time>2026-04-18T08:28:12.342Z</time></trkpt><trkpt lat="43.523716" lon="10.8055792"><ele>99.6</ele><time>2026-04-18T08:28:13.343Z</time></trkpt><trkpt lat="43.5237452" lon="10.8057307"><ele>99.4</ele><time>2026-04-18T08:28:14.344Z</time></trkpt><trkpt lat="43.5237735" lon="10.8058647"><ele>99.2</ele><time>2026-04-18T08:28:15.346Z</time></trkpt><trkpt lat="43.5238046" lon="10.80598"><ele>99.0</ele><time>2026-04-18T08:28:16.342Z</time></trkpt><trkpt lat="43.5238306" lon="10.8060911"><ele>98.4</ele><time>2026-04-18T08:28:17.346Z</time></trkpt><trkpt lat="43.5238536" lon="10.8061988"><ele>97.80000000000001</ele><time>2026-04-18T08:28:18.343Z</time></trkpt><trkpt lat="43.5238632" lon="10.8063121"><ele>97.19999999999999</ele><time>2026-04-18T08:28:19.342Z</time></trkpt><trkpt lat="43.5238662" lon="10.8064351"><ele>96.6</ele><time>2026-04-18T08:28:20.342Z</time></trkpt><trkpt lat="43.5238525" lon="10.8065727"><ele>96.0</ele><time>2026-04-18T08:28:21.343Z</time></trkpt><trkpt lat="43.5238275" lon="10.8067175"><ele>96.0</ele><time>2026-04-18T08:28:22.342Z</time></trkpt><trkpt lat="43.5238091" lon="10.8068597"><ele>96.0</ele><time>2026-04-18T08:28:23.342Z</time></trkpt><trkpt lat="43.523791" lon="10.8070076"><ele>96.0</ele><time>2026-04-18T08:28:24.342Z</time></trkpt><trkpt lat="43.523782" lon="10.8071672"><ele>96.0</ele><time>2026-04-18T08:28:25.343Z</time></trkpt><trkpt lat="43.5237951" lon="10.8073315"><ele>96.0</ele><time>2026-04-18T08:28:26.342Z</time></trkpt><trkpt lat="43.5238163" lon="10.8075012"><ele>96.0</ele><time>2026-04-18T08:28:27.343Z</time></trkpt><trkpt lat="43.523859" lon="10.8076673"><ele>96.0</ele><time>2026-04-18T08:28:28.342Z</time></trkpt><trkpt lat="43.5239105" lon="10.8078293"><ele>96.0</ele><time>2026-04-18T08:28:29.343Z</time></trkpt><trkpt lat="43.5239673" lon="10.8079776"><ele>96.0</ele><time>2026-04-18T08:28:30.346Z</time></trkpt><trkpt lat="43.5240175" lon="10.8081151"><ele>96.0</ele><time>2026-04-18T08:28:31.347Z</time></trkpt><trkpt lat="43.5240627" lon="10.8082468"><ele>96.0</ele><time>2026-04-18T08:28:32.346Z</time></trkpt><trkpt lat="43.5240944" lon="10.8083775"><ele>96.0</ele><time>2026-04-18T08:28:33.342Z</time></trkpt><trkpt lat="43.5241148" lon="10.8084981"><ele>96.0</ele><time>2026-04-18T08:28:34.342Z</time></trkpt><trkpt lat="43.5241214" lon="10.8086245"><ele>96.0</ele><time>2026-04-18T08:28:35.346Z</time></trkpt><trkpt lat="43.5241158" lon="10.8087616"><ele>96.8</ele><time>2026-04-18T08:28:36.342Z</time></trkpt><trkpt lat="43.5241053" lon="10.8089072"><ele>97.6</ele><time>2026-04-18T08:28:37.345Z</time></trkpt><trkpt lat="43.524096" lon="10.8090575"><ele>98.4</ele><time>2026-04-18T08:28:38.342Z</time></trkpt><trkpt lat="43.5240923" lon="10.8092114"><ele>99.2</ele><time>2026-04-18T08:28:39.345Z</time></trkpt><trkpt lat="43.5240928" lon="10.8093648"><ele>100.0</ele><time>2026-04-18T08:28:40.343Z</time></trkpt><trkpt lat="43.5241035" lon="10.8095125"><ele>100.6</ele><time>2026-04-18T08:28:41.345Z</time></trkpt><trkpt lat="43.5241192" lon="10.8096658"><ele>101.2</ele><time>2026-04-18T08:28:42.343Z</time></trkpt><trkpt lat="43.5241367" lon="10.8098185"><ele>101.80000000000001</ele><time>2026-04-18T08:28:43.343Z</time></trkpt><trkpt lat="43.5241508" lon="10.8099579"><ele>102.4</ele><time>2026-04-18T08:28:44.344Z</time></trkpt><trkpt lat="43.5241577" lon="10.8100892"><ele>103.0</ele><time>2026-04-18T08:28:45.345Z</time></trkpt><trkpt lat="43.5241531" lon="10.8102122"><ele>103.2</ele><time>2026-04-18T08:28:46.344Z</time></trkpt><trkpt lat="43.5241428" lon="10.8103381"><ele>103.4</ele><time>2026-04-18T08:28:47.344Z</time></trkpt><trkpt lat="43.5241246" lon="10.8104694"><ele>103.60000000000001</ele><time>2026-04-18T08:28:48.347Z</time></trkpt><trkpt lat="43.5240944" lon="10.8106101"><ele>103.80000000000001</ele><time>2026-04-18T08:28:49.344Z</time></trkpt><trkpt lat="43.52406" lon="10.8107572"><ele>104.0</ele><time>2026-04-18T08:28:50.344Z</time></trkpt><trkpt lat="43.5240291" lon="10.8109108"><ele>103.6</ele><time>2026-04-18T08:28:51.345Z</time></trkpt><trkpt lat="43.5239994" lon="10.8110663"><ele>103.2</ele><time>2026-04-18T08:28:52.344Z</time></trkpt><trkpt lat="43.5239723" lon="10.8112115"><ele>102.8</ele><time>2026-04-18T08:28:53.343Z</time></trkpt><trkpt lat="43.5239452" lon="10.8113393"><ele>102.39999999999999</ele><time>2026-04-18T08:28:54.344Z</time></trkpt><trkpt lat="43.5239142" lon="10.8114479"><ele>102.0</ele><time>2026-04-18T08:28:55.344Z</time></trkpt><trkpt lat="43.5238775" lon="10.8115483"><ele>102.0</ele><time>2026-04-18T08:28:56.344Z</time></trkpt><trkpt lat="43.5238254" lon="10.8116455"><ele>102.0</ele><time>2026-04-18T08:28:57.344Z</time></trkpt><trkpt lat="43.5237617" lon="10.8117375"><ele>102.0</ele><time>2026-04-18T08:28:58.344Z</time></trkpt><trkpt lat="43.5236869" lon="10.8118276"><ele>102.0</ele><time>2026-04-18T08:28:59.343Z</time></trkpt><trkpt lat="43.5236105" lon="10.8119095"><ele>102.0</ele><time>2026-04-18T08:29:00.343Z</time></trkpt><trkpt lat="43.5235356" lon="10.8119805"><ele>104.33333333333333</ele><time>2026-04-18T08:29:01.345Z</time></trkpt><trkpt lat="43.5234652" lon="10.8120359"><ele>106.66666666666666</ele><time>2026-04-18T08:29:02.344Z</time></trkpt><trkpt lat="43.5233929" lon="10.8120759"><ele>109.0</ele><time>2026-04-18T08:29:03.346Z</time></trkpt><trkpt lat="43.5233161" lon="10.8121126"><ele>111.33333333333333</ele><time>2026-04-18T08:29:04.346Z</time></trkpt><trkpt lat="43.5232373" lon="10.8121516"><ele>113.66666666666666</ele><time>2026-04-18T08:29:05.342Z</time></trkpt><trkpt lat="43.5231616" lon="10.8122006"><ele>116.0</ele><time>2026-04-18T08:29:06.344Z</time></trkpt><trkpt lat="43.5230925" lon="10.8122609"><ele>116.00000000000001</ele><time>2026-04-18T08:29:07.343Z</time></trkpt><trkpt lat="43.5230337" lon="10.8123268"><ele>116.0</ele><time>2026-04-18T08:29:08.343Z</time></trkpt><trkpt lat="43.5229822" lon="10.812404"><ele>116.00000000000001</ele><time>2026-04-18T08:29:09.343Z</time></trkpt><trkpt lat="43.5229377" lon="10.8124889"><ele>116.00000000000001</ele><time>2026-04-18T08:29:10.342Z</time></trkpt><trkpt lat="43.5229036" lon="10.8125717"><ele>116.0</ele><time>2026-04-18T08:29:11.342Z</time></trkpt><trkpt lat="43.5228727" lon="10.8126599"><ele>116.00000000000001</ele><time>2026-04-18T08:29:12.343Z</time></trkpt><trkpt lat="43.5228436" lon="10.8127646"><ele>116.00000000000001</ele><time>2026-04-18T08:29:13.342Z</time></trkpt><trkpt lat="43.5228093" lon="10.8128711"><ele>116.99999999999999</ele><time>2026-04-18T08:29:14.343Z</time></trkpt><trkpt lat="43.5227755" lon="10.8129616"><ele>118.0</ele><time>2026-04-18T08:29:15.343Z</time></trkpt><trkpt lat="43.522706" lon="10.8131018"><ele>119.0</ele><time>2026-04-18T08:29:17.345Z</time></trkpt><trkpt lat="43.5226549" lon="10.8131684"><ele>120.0</ele><time>2026-04-18T08:29:18.343Z</time></trkpt><trkpt lat="43.5225993" lon="10.8132355"><ele>120.99999999999999</ele><time>2026-04-18T08:29:19.342Z</time></trkpt><trkpt lat="43.5225337" lon="10.8133013"><ele>122.0</ele><time>2026-04-18T08:29:20.342Z</time></trkpt><trkpt lat="43.522457" lon="10.8133704"><ele>121.99999999999999</ele><time>2026-04-18T08:29:21.343Z</time></trkpt><trkpt lat="43.5223815" lon="10.8134439"><ele>122.0</ele><time>2026-04-18T08:29:22.343Z</time></trkpt><trkpt lat="43.5223108" lon="10.8135139"><ele>122.0</ele><time>2026-04-18T08:29:23.344Z</time></trkpt><trkpt lat="43.5222459" lon="10.8135791"><ele>122.0</ele><time>2026-04-18T08:29:24.343Z</time></trkpt><trkpt lat="43.5221901" lon="10.8136511"><ele>121.99999999999999</ele><time>2026-04-18T08:29:25.344Z</time></trkpt><trkpt lat="43.522136" lon="10.8137197"><ele>122.0</ele><time>2026-04-18T08:29:26.344Z</time></trkpt><trkpt lat="43.5220888" lon="10.8137932"><ele>122.99999999999999</ele><time>2026-04-18T08:29:27.342Z</time></trkpt><trkpt lat="43.5220535" lon="10.8138873"><ele>124.0</ele><time>2026-04-18T08:29:28.343Z</time></trkpt><trkpt lat="43.5220241" lon="10.8139913"><ele>125.0</ele><time>2026-04-18T08:29:29.342Z</time></trkpt><trkpt lat="43.5219905" lon="10.8141029"><ele>126.0</ele><time>2026-04-18T08:29:30.343Z</time></trkpt><trkpt lat="43.5219597" lon="10.8142157"><ele>126.99999999999999</ele><time>2026-04-18T08:29:31.343Z</time></trkpt><trkpt lat="43.5219316" lon="10.8143197"><ele>128.0</ele><time>2026-04-18T08:29:32.342Z</time></trkpt><trkpt lat="43.5218904" lon="10.814433"><ele>127.99999999999999</ele><time>2026-04-18T08:29:33.343Z</time></trkpt><trkpt lat="43.5218542" lon="10.8145392"><ele>128.0</ele><time>2026-04-18T08:29:34.341Z</time></trkpt><trkpt lat="43.5218185" lon="10.814631"><ele>128.0</ele><time>2026-04-18T08:29:35.342Z</time></trkpt><trkpt lat="43.5217671" lon="10.8147781"><ele>128.0</ele><time>2026-04-18T08:29:37.342Z</time></trkpt><trkpt lat="43.5217506" lon="10.8148636"><ele>127.99999999999999</ele><time>2026-04-18T08:29:38.341Z</time></trkpt><trkpt lat="43.5217405" lon="10.8149585"><ele>128.0</ele><time>2026-04-18T08:29:39.341Z</time></trkpt><trkpt lat="43.5217358" lon="10.8150635"><ele>127.83333333333333</ele><time>2026-04-18T08:29:40.342Z</time></trkpt><trkpt lat="43.5217371" lon="10.8151754"><ele>127.66666666666666</ele><time>2026-04-18T08:29:41.346Z</time></trkpt><trkpt lat="43.5217321" lon="10.815292"><ele>127.5</ele><time>2026-04-18T08:29:42.342Z</time></trkpt><trkpt lat="43.5217341" lon="10.8154094"><ele>127.33333333333334</ele><time>2026-04-18T08:29:43.342Z</time></trkpt><trkpt lat="43.5217408" lon="10.815523"><ele>127.16666666666667</ele><time>2026-04-18T08:29:44.343Z</time></trkpt><trkpt lat="43.5217539" lon="10.8156364"><ele>127.0</ele><time>2026-04-18T08:29:45.342Z</time></trkpt><trkpt lat="43.5217793" lon="10.8157525"><ele>127.0</ele><time>2026-04-18T08:29:46.341Z</time></trkpt><trkpt lat="43.5218127" lon="10.8158671"><ele>126.99999999999999</ele><time>2026-04-18T08:29:47.342Z</time></trkpt><trkpt lat="43.5218489" lon="10.8159793"><ele>126.99999999999999</ele><time>2026-04-18T08:29:48.342Z</time></trkpt><trkpt lat="43.5218995" lon="10.8160945"><ele>127.0</ele><time>2026-04-18T08:29:49.343Z</time></trkpt><trkpt lat="43.5219554" lon="10.816201"><ele>127.0</ele><time>2026-04-18T08:29:50.343Z</time></trkpt><trkpt lat="43.5220021" lon="10.8162988"><ele>126.50000000000001</ele><time>2026-04-18T08:29:51.343Z</time></trkpt><trkpt lat="43.5220431" lon="10.8164016"><ele>126.0</ele><time>2026-04-18T08:29:52.341Z</time></trkpt><trkpt lat="43.5220798" lon="10.8165098"><ele>125.5</ele><time>2026-04-18T08:29:53.342Z</time></trkpt><trkpt lat="43.5221024" lon="10.8166305"><ele>125.0</ele><time>2026-04-18T08:29:54.342Z</time></trkpt><trkpt lat="43.5221171" lon="10.8167378"><ele>124.50000000000001</ele><time>2026-04-18T08:29:55.343Z</time></trkpt><trkpt lat="43.5221259" lon="10.816845"><ele>124.0</ele><time>2026-04-18T08:29:56.341Z</time></trkpt><trkpt lat="43.5221274" lon="10.8169514"><ele>123.80000000000001</ele><time>2026-04-18T08:29:57.341Z</time></trkpt><trkpt lat="43.5221139" lon="10.817062"><ele>123.60000000000001</ele><time>2026-04-18T08:29:58.344Z</time></trkpt><trkpt lat="43.5220833" lon="10.8171855"><ele>123.4</ele><time>2026-04-18T08:29:59.343Z</time></trkpt><trkpt lat="43.5220412" lon="10.8173248"><ele>123.2</ele><time>2026-04-18T08:30:00.343Z</time></trkpt><trkpt lat="43.5219966" lon="10.8174699"><ele>123.0</ele><time>2026-04-18T08:30:01.342Z</time></trkpt><trkpt lat="43.5219552" lon="10.8176025"><ele>124.33333333333333</ele><time>2026-04-18T08:30:02.343Z</time></trkpt><trkpt lat="43.5219152" lon="10.8177214"><ele>125.66666666666666</ele><time>2026-04-18T08:30:03.342Z</time></trkpt><trkpt lat="43.5218796" lon="10.8178221"><ele>127.0</ele><time>2026-04-18T08:30:04.343Z</time></trkpt><trkpt lat="43.5218406" lon="10.8179084"><ele>128.33333333333331</ele><time>2026-04-18T08:30:05.342Z</time></trkpt><trkpt lat="43.5217957" lon="10.8179832"><ele>129.66666666666666</ele><time>2026-04-18T08:30:06.342Z</time></trkpt><trkpt lat="43.5217439" lon="10.818054"><ele>131.0</ele><time>2026-04-18T08:30:07.342Z</time></trkpt><trkpt lat="43.5216828" lon="10.8181232"><ele>131.0</ele><time>2026-04-18T08:30:08.343Z</time></trkpt><trkpt lat="43.5216163" lon="10.8181921"><ele>131.0</ele><time>2026-04-18T08:30:09.342Z</time></trkpt><trkpt lat="43.5215593" lon="10.8182488"><ele>131.0</ele><time>2026-04-18T08:30:10.341Z</time></trkpt><trkpt lat="43.5215122" lon="10.818307"><ele>131.0</ele><time>2026-04-18T08:30:11.341Z</time></trkpt><trkpt lat="43.521428" lon="10.8184068"><ele>131.0</ele><time>2026-04-18T08:30:13.342Z</time></trkpt><trkpt lat="43.5213714" lon="10.8184883"><ele>131.0</ele><time>2026-04-18T08:30:15.342Z</time></trkpt><trkpt lat="43.5213494" lon="10.8185744"><ele>130.0</ele><time>2026-04-18T08:30:17.342Z</time></trkpt><trkpt lat="43.5213349" lon="10.8186947"><ele>129.0</ele><time>2026-04-18T08:30:19.341Z</time></trkpt><trkpt lat="43.521329" lon="10.8188398"><ele>128.0</ele><time>2026-04-18T08:30:21.342Z</time></trkpt><trkpt lat="43.5213437" lon="10.8189983"><ele>127.0</ele><time>2026-04-18T08:30:23.343Z</time></trkpt><trkpt lat="43.521384" lon="10.8191564"><ele>126.0</ele><time>2026-04-18T08:30:25.343Z</time></trkpt><trkpt lat="43.5214384" lon="10.8193089"><ele>123.8</ele><time>2026-04-18T08:30:27.345Z</time></trkpt><trkpt lat="43.5214676" lon="10.8194672"><ele>121.6</ele><time>2026-04-18T08:30:29.343Z</time></trkpt><trkpt lat="43.5214739" lon="10.8196375"><ele>119.4</ele><time>2026-04-18T08:30:31.344Z</time></trkpt><trkpt lat="43.5214648" lon="10.8197264"><ele>117.2</ele><time>2026-04-18T08:30:32.345Z</time></trkpt><trkpt lat="43.521444" lon="10.8198238"><ele>115.0</ele><time>2026-04-18T08:30:33.345Z</time></trkpt><trkpt lat="43.5214165" lon="10.8199247"><ele>115.00000000000001</ele><time>2026-04-18T08:30:34.344Z</time></trkpt><trkpt lat="43.5213827" lon="10.8200175"><ele>115.0</ele><time>2026-04-18T08:30:35.344Z</time></trkpt><trkpt lat="43.5213497" lon="10.8201068"><ele>115.0</ele><time>2026-04-18T08:30:36.344Z</time></trkpt><trkpt lat="43.5213242" lon="10.8201993"><ele>115.0</ele><time>2026-04-18T08:30:37.345Z</time></trkpt><trkpt lat="43.5213058" lon="10.8203018"><ele>115.00000000000001</ele><time>2026-04-18T08:30:38.344Z</time></trkpt><trkpt lat="43.5212931" lon="10.8204196"><ele>115.0</ele><time>2026-04-18T08:30:39.344Z</time></trkpt><trkpt lat="43.5212912" lon="10.8205526"><ele>113.0</ele><time>2026-04-18T08:30:40.344Z</time></trkpt><trkpt lat="43.5212961" lon="10.820699"><ele>111.0</ele><time>2026-04-18T08:30:41.343Z</time></trkpt><trkpt lat="43.5213062" lon="10.8208562"><ele>109.0</ele><time>2026-04-18T08:30:42.344Z</time></trkpt><trkpt lat="43.5213134" lon="10.8210137"><ele>107.0</ele><time>2026-04-18T08:30:43.345Z</time></trkpt><trkpt lat="43.5213216" lon="10.8211754"><ele>106.5</ele><time>2026-04-18T08:30:44.344Z</time></trkpt><trkpt lat="43.521336" lon="10.8213457"><ele>106.0</ele><time>2026-04-18T08:30:45.345Z</time></trkpt><trkpt lat="43.5213529" lon="10.8215116"><ele>105.5</ele><time>2026-04-18T08:30:46.342Z</time></trkpt><trkpt lat="43.521365" lon="10.8216699"><ele>105.0</ele><time>2026-04-18T08:30:47.342Z</time></trkpt><trkpt lat="43.521371" lon="10.8218245"><ele>104.8</ele><time>2026-04-18T08:30:48.346Z</time></trkpt><trkpt lat="43.5213738" lon="10.8219761"><ele>104.6</ele><time>2026-04-18T08:30:49.342Z</time></trkpt><trkpt lat="43.5213799" lon="10.822116"><ele>104.4</ele><time>2026-04-18T08:30:50.344Z</time></trkpt><trkpt lat="43.5213864" lon="10.8222341"><ele>104.2</ele><time>2026-04-18T08:30:51.345Z</time></trkpt><trkpt lat="43.5213931" lon="10.8223265"><ele>104.0</ele><time>2026-04-18T08:30:52.345Z</time></trkpt><trkpt lat="43.5214143" lon="10.8224566"><ele>104.0</ele><time>2026-04-18T08:30:54.346Z</time></trkpt><trkpt lat="43.5214486" lon="10.8225715"><ele>104.0</ele><time>2026-04-18T08:30:56.342Z</time></trkpt><trkpt lat="43.5215328" lon="10.8226542"><ele>104.0</ele><time>2026-04-18T08:30:58.343Z</time></trkpt><trkpt lat="43.5216512" lon="10.8227122"><ele>104.0</ele><time>2026-04-18T08:31:00.343Z</time></trkpt><trkpt lat="43.5217601" lon="10.8227794"><ele>104.0</ele><time>2026-04-18T08:31:02.343Z</time></trkpt><trkpt lat="43.5218471" lon="10.8229103"><ele>103.83333333333333</ele><time>2026-04-18T08:31:04.343Z</time></trkpt><trkpt lat="43.5218843" lon="10.8230011"><ele>103.66666666666666</ele><time>2026-04-18T08:31:05.344Z</time></trkpt><trkpt lat="43.5219192" lon="10.8231036"><ele>103.5</ele><time>2026-04-18T08:31:06.344Z</time></trkpt><trkpt lat="43.5219479" lon="10.8232105"><ele>103.33333333333334</ele><time>2026-04-18T08:31:07.344Z</time></trkpt><trkpt lat="43.5219713" lon="10.8233235"><ele>103.16666666666667</ele><time>2026-04-18T08:31:08.344Z</time></trkpt><trkpt lat="43.5219936" lon="10.8234316"><ele>103.0</ele><time>2026-04-18T08:31:09.347Z</time></trkpt><trkpt lat="43.5220134" lon="10.823538"><ele>103.00000000000001</ele><time>2026-04-18T08:31:10.343Z</time></trkpt><trkpt lat="43.5220278" lon="10.823635"><ele>103.0</ele><time>2026-04-18T08:31:11.344Z</time></trkpt><trkpt lat="43.5220378" lon="10.8237322"><ele>103.0</ele><time>2026-04-18T08:31:12.343Z</time></trkpt><trkpt lat="43.5220324" lon="10.8238385"><ele>103.0</ele><time>2026-04-18T08:31:13.345Z</time></trkpt><trkpt lat="43.5220141" lon="10.8239506"><ele>103.00000000000001</ele><time>2026-04-18T08:31:14.343Z</time></trkpt><trkpt lat="43.5219869" lon="10.8240599"><ele>103.0</ele><time>2026-04-18T08:31:15.343Z</time></trkpt><trkpt lat="43.5219544" lon="10.8241695"><ele>103.00000000000001</ele><time>2026-04-18T08:31:16.343Z</time></trkpt><trkpt lat="43.5219194" lon="10.8242797"><ele>103.0</ele><time>2026-04-18T08:31:17.345Z</time></trkpt><trkpt lat="43.5218942" lon="10.8243925"><ele>103.0</ele><time>2026-04-18T08:31:18.343Z</time></trkpt><trkpt lat="43.521882" lon="10.8245099"><ele>103.0</ele><time>2026-04-18T08:31:19.344Z</time></trkpt><trkpt lat="43.5218806" lon="10.8246311"><ele>103.00000000000001</ele><time>2026-04-18T08:31:20.344Z</time></trkpt><trkpt lat="43.5218942" lon="10.8247559"><ele>103.0</ele><time>2026-04-18T08:31:21.346Z</time></trkpt><trkpt lat="43.5219189" lon="10.8248861"><ele>102.2</ele><time>2026-04-18T08:31:22.343Z</time></trkpt><trkpt lat="43.5219396" lon="10.8250254"><ele>101.4</ele><time>2026-04-18T08:31:23.344Z</time></trkpt><trkpt lat="43.5219579" lon="10.8251624"><ele>100.60000000000001</ele><time>2026-04-18T08:31:24.344Z</time></trkpt><trkpt lat="43.5219733" lon="10.8252881"><ele>99.80000000000001</ele><time>2026-04-18T08:31:25.343Z</time></trkpt><trkpt lat="43.5219916" lon="10.8254022"><ele>99.0</ele><time>2026-04-18T08:31:26.343Z</time></trkpt><trkpt lat="43.5220089" lon="10.8255095"><ele>98.6</ele><time>2026-04-18T08:31:27.345Z</time></trkpt><trkpt lat="43.522019" lon="10.8256195"><ele>98.2</ele><time>2026-04-18T08:31:28.344Z</time></trkpt><trkpt lat="43.5220242" lon="10.8257335"><ele>97.8</ele><time>2026-04-18T08:31:29.345Z</time></trkpt><trkpt lat="43.5220179" lon="10.8258548"><ele>97.39999999999999</ele><time>2026-04-18T08:31:30.344Z</time></trkpt><trkpt lat="43.5220055" lon="10.8259899"><ele>97.0</ele><time>2026-04-18T08:31:31.343Z</time></trkpt><trkpt lat="43.5219945" lon="10.826131"><ele>97.0</ele><time>2026-04-18T08:31:32.343Z</time></trkpt><trkpt lat="43.5219834" lon="10.8262614"><ele>97.0</ele><time>2026-04-18T08:31:33.344Z</time></trkpt><trkpt lat="43.5219838" lon="10.8263854"><ele>97.0</ele><time>2026-04-18T08:31:34.344Z</time></trkpt><trkpt lat="43.5219968" lon="10.8265112"><ele>97.0</ele><time>2026-04-18T08:31:35.344Z</time></trkpt><trkpt lat="43.522021" lon="10.826639"><ele>97.0</ele><time>2026-04-18T08:31:36.344Z</time></trkpt><trkpt lat="43.522047" lon="10.8267705"><ele>97.39999999999999</ele><time>2026-04-18T08:31:37.343Z</time></trkpt><trkpt lat="43.5220689" lon="10.8269072"><ele>97.8</ele><time>2026-04-18T08:31:38.344Z</time></trkpt><trkpt lat="43.522092" lon="10.8270445"><ele>98.2</ele><time>2026-04-18T08:31:39.344Z</time></trkpt><trkpt lat="43.5221152" lon="10.8271782"><ele>98.6</ele><time>2026-04-18T08:31:40.344Z</time></trkpt><trkpt lat="43.52214" lon="10.8273096"><ele>99.0</ele><time>2026-04-18T08:31:41.344Z</time></trkpt><trkpt lat="43.5221669" lon="10.827435"><ele>99.0</ele><time>2026-04-18T08:31:42.345Z</time></trkpt><trkpt lat="43.5221965" lon="10.8275538"><ele>99.0</ele><time>2026-04-18T08:31:43.345Z</time></trkpt><trkpt lat="43.522218" lon="10.8276627"><ele>99.0</ele><time>2026-04-18T08:31:44.343Z</time></trkpt><trkpt lat="43.5222358" lon="10.8277621"><ele>99.0</ele><time>2026-04-18T08:31:45.343Z</time></trkpt><trkpt lat="43.5222431" lon="10.8278529"><ele>99.0</ele><time>2026-04-18T08:31:46.342Z</time></trkpt><trkpt lat="43.522198" lon="10.8279836"><ele>99.0</ele><time>2026-04-18T08:31:48.342Z</time></trkpt><trkpt lat="43.5221261" lon="10.8280716"><ele>100.83333333333333</ele><time>2026-04-18T08:31:50.343Z</time></trkpt><trkpt lat="43.5220136" lon="10.8281199"><ele>102.66666666666666</ele><time>2026-04-18T08:31:52.345Z</time></trkpt><trkpt lat="43.5219439" lon="10.8281254"><ele>104.5</ele><time>2026-04-18T08:31:53.342Z</time></trkpt><trkpt lat="43.5218684" lon="10.8281266"><ele>106.33333333333333</ele><time>2026-04-18T08:31:54.345Z</time></trkpt><trkpt lat="43.5217895" lon="10.8281272"><ele>108.16666666666666</ele><time>2026-04-18T08:31:55.342Z</time></trkpt><trkpt lat="43.5217075" lon="10.8281332"><ele>110.0</ele><time>2026-04-18T08:31:56.343Z</time></trkpt><trkpt lat="43.5216208" lon="10.8281405"><ele>109.99999999999999</ele><time>2026-04-18T08:31:57.344Z</time></trkpt><trkpt lat="43.5215336" lon="10.8281428"><ele>110.0</ele><time>2026-04-18T08:31:58.344Z</time></trkpt><trkpt lat="43.5214483" lon="10.8281471"><ele>110.0</ele><time>2026-04-18T08:31:59.343Z</time></trkpt><trkpt lat="43.5213654" lon="10.8281516"><ele>110.0</ele><time>2026-04-18T08:32:00.342Z</time></trkpt><trkpt lat="43.521287" lon="10.8281584"><ele>109.99999999999999</ele><time>2026-04-18T08:32:01.343Z</time></trkpt><trkpt lat="43.5212101" lon="10.8281609"><ele>110.0</ele><time>2026-04-18T08:32:02.343Z</time></trkpt><trkpt lat="43.5211348" lon="10.8281635"><ele>112.16666666666666</ele><time>2026-04-18T08:32:03.345Z</time></trkpt><trkpt lat="43.5210586" lon="10.828167"><ele>114.33333333333333</ele><time>2026-04-18T08:32:04.342Z</time></trkpt><trkpt lat="43.5209831" lon="10.8281687"><ele>116.5</ele><time>2026-04-18T08:32:05.344Z</time></trkpt><trkpt lat="43.5209069" lon="10.8281785"><ele>118.66666666666666</ele><time>2026-04-18T08:32:06.345Z</time></trkpt><trkpt lat="43.5208276" lon="10.8282139"><ele>120.83333333333333</ele><time>2026-04-18T08:32:07.346Z</time></trkpt><trkpt lat="43.5207491" lon="10.8282697"><ele>123.0</ele><time>2026-04-18T08:32:08.342Z</time></trkpt><trkpt lat="43.5206688" lon="10.828334"><ele>123.0</ele><time>2026-04-18T08:32:09.345Z</time></trkpt><trkpt lat="43.5205902" lon="10.8284001"><ele>123.0</ele><time>2026-04-18T08:32:10.344Z</time></trkpt><trkpt lat="43.5205188" lon="10.828459"><ele>123.0</ele><time>2026-04-18T08:32:11.345Z</time></trkpt><trkpt lat="43.5204529" lon="10.8285179"><ele>123.0</ele><time>2026-04-18T08:32:12.344Z</time></trkpt><trkpt lat="43.5203881" lon="10.8285844"><ele>123.0</ele><time>2026-04-18T08:32:13.344Z</time></trkpt><trkpt lat="43.5203202" lon="10.8286421"><ele>123.0</ele><time>2026-04-18T08:32:14.344Z</time></trkpt><trkpt lat="43.5202462" lon="10.8286982"><ele>124.60000000000001</ele><time>2026-04-18T08:32:15.345Z</time></trkpt><trkpt lat="43.5201694" lon="10.8287528"><ele>126.20000000000002</ele><time>2026-04-18T08:32:16.344Z</time></trkpt><trkpt lat="43.5200846" lon="10.8288004"><ele>127.8</ele><time>2026-04-18T08:32:17.345Z</time></trkpt><trkpt lat="43.5199958" lon="10.8288486"><ele>129.4</ele><time>2026-04-18T08:32:18.343Z</time></trkpt><trkpt lat="43.5199007" lon="10.8288896"><ele>131.0</ele><time>2026-04-18T08:32:19.344Z</time></trkpt><trkpt lat="43.5198054" lon="10.8289232"><ele>131.0</ele><time>2026-04-18T08:32:20.345Z</time></trkpt><trkpt lat="43.5197088" lon="10.8289548"><ele>131.0</ele><time>2026-04-18T08:32:21.346Z</time></trkpt><trkpt lat="43.5196104" lon="10.8289877"><ele>131.0</ele><time>2026-04-18T08:32:22.343Z</time></trkpt><trkpt lat="43.5195134" lon="10.829022"><ele>131.0</ele><time>2026-04-18T08:32:23.344Z</time></trkpt><trkpt lat="43.5194168" lon="10.8290568"><ele>131.0</ele><time>2026-04-18T08:32:24.343Z</time></trkpt><trkpt lat="43.5193215" lon="10.8290904"><ele>131.8</ele><time>2026-04-18T08:32:25.344Z</time></trkpt><trkpt lat="43.5192264" lon="10.8291213"><ele>132.6</ele><time>2026-04-18T08:32:26.345Z</time></trkpt><trkpt lat="43.5191299" lon="10.8291582"><ele>133.4</ele><time>2026-04-18T08:32:27.346Z</time></trkpt><trkpt lat="43.5190349" lon="10.8292019"><ele>134.2</ele><time>2026-04-18T08:32:28.342Z</time></trkpt><trkpt lat="43.5189419" lon="10.8292455"><ele>135.0</ele><time>2026-04-18T08:32:29.342Z</time></trkpt><trkpt lat="43.5188575" lon="10.8292861"><ele>134.0</ele><time>2026-04-18T08:32:30.342Z</time></trkpt><trkpt lat="43.5187774" lon="10.829326"><ele>133.0</ele><time>2026-04-18T08:32:31.342Z</time></trkpt><trkpt lat="43.5186993" lon="10.8293657"><ele>132.0</ele><time>2026-04-18T08:32:32.343Z</time></trkpt><trkpt lat="43.5186214" lon="10.8294008"><ele>131.0</ele><time>2026-04-18T08:32:33.348Z</time></trkpt><trkpt lat="43.5185403" lon="10.8294341"><ele>130.0</ele><time>2026-04-18T08:32:34.345Z</time></trkpt><trkpt lat="43.5184615" lon="10.8294658"><ele>129.0</ele><time>2026-04-18T08:32:35.343Z</time></trkpt><trkpt lat="43.5183831" lon="10.8294957"><ele>131.33333333333334</ele><time>2026-04-18T08:32:36.342Z</time></trkpt><trkpt lat="43.5183005" lon="10.8295225"><ele>133.66666666666666</ele><time>2026-04-18T08:32:37.342Z</time></trkpt><trkpt lat="43.5182227" lon="10.8295451"><ele>136.0</ele><time>2026-04-18T08:32:38.346Z</time></trkpt><trkpt lat="43.518142" lon="10.8295704"><ele>138.33333333333331</ele><time>2026-04-18T08:32:39.345Z</time></trkpt><trkpt lat="43.5180574" lon="10.8296018"><ele>140.66666666666666</ele><time>2026-04-18T08:32:40.343Z</time></trkpt><trkpt lat="43.5179702" lon="10.8296337"><ele>143.0</ele><time>2026-04-18T08:32:41.346Z</time></trkpt><trkpt lat="43.5178833" lon="10.8296627"><ele>145.83333333333331</ele><time>2026-04-18T08:32:42.344Z</time></trkpt><trkpt lat="43.517797" lon="10.8296847"><ele>148.66666666666666</ele><time>2026-04-18T08:32:43.344Z</time></trkpt><trkpt lat="43.5177135" lon="10.8297192"><ele>151.5</ele><time>2026-04-18T08:32:44.345Z</time></trkpt><trkpt lat="43.5176348" lon="10.8297547"><ele>154.33333333333334</ele><time>2026-04-18T08:32:45.345Z</time></trkpt><trkpt lat="43.5175566" lon="10.8297918"><ele>157.16666666666669</ele><time>2026-04-18T08:32:46.344Z</time></trkpt><trkpt lat="43.5174841" lon="10.8298301"><ele>160.0</ele><time>2026-04-18T08:32:47.344Z</time></trkpt><trkpt lat="43.5174222" lon="10.8298712"><ele>160.0</ele><time>2026-04-18T08:32:48.344Z</time></trkpt><trkpt lat="43.5173674" lon="10.8299249"><ele>160.0</ele><time>2026-04-18T08:32:49.347Z</time></trkpt><trkpt lat="43.5173171" lon="10.8299937"><ele>160.0</ele><time>2026-04-18T08:32:50.342Z</time></trkpt><trkpt lat="43.517276" lon="10.8300753"><ele>160.0</ele><time>2026-04-18T08:32:51.344Z</time></trkpt><trkpt lat="43.5172463" lon="10.8301588"><ele>160.0</ele><time>2026-04-18T08:32:52.345Z</time></trkpt><trkpt lat="43.5172038" lon="10.8303003"><ele>160.0</ele><time>2026-04-18T08:32:54.345Z</time></trkpt><trkpt lat="43.5171485" lon="10.8304532"><ele>159.66666666666669</ele><time>2026-04-18T08:32:56.344Z</time></trkpt><trkpt lat="43.5171065" lon="10.8305404"><ele>159.33333333333334</ele><time>2026-04-18T08:32:57.345Z</time></trkpt><trkpt lat="43.5170623" lon="10.8306363"><ele>159.0</ele><time>2026-04-18T08:32:58.344Z</time></trkpt><trkpt lat="43.5170184" lon="10.830733"><ele>158.66666666666666</ele><time>2026-04-18T08:32:59.344Z</time></trkpt><trkpt lat="43.5169719" lon="10.830827"><ele>158.33333333333331</ele><time>2026-04-18T08:33:00.345Z</time></trkpt><trkpt lat="43.5169282" lon="10.8309168"><ele>158.0</ele><time>2026-04-18T08:33:01.344Z</time></trkpt><trkpt lat="43.5168826" lon="10.8310048"><ele>161.16666666666666</ele><time>2026-04-18T08:33:02.347Z</time></trkpt><trkpt lat="43.5168359" lon="10.8310928"><ele>164.33333333333331</ele><time>2026-04-18T08:33:03.349Z</time></trkpt><trkpt lat="43.5167939" lon="10.831177"><ele>167.5</ele><time>2026-04-18T08:33:04.344Z</time></trkpt><trkpt lat="43.5167551" lon="10.8312502"><ele>170.66666666666666</ele><time>2026-04-18T08:33:05.346Z</time></trkpt><trkpt lat="43.5166877" lon="10.8313836"><ele>173.83333333333334</ele><time>2026-04-18T08:33:07.343Z</time></trkpt><trkpt lat="43.5166375" lon="10.8314878"><ele>177.0</ele><time>2026-04-18T08:33:09.344Z</time></trkpt><trkpt lat="43.5165859" lon="10.8315594"><ele>177.0</ele><time>2026-04-18T08:33:11.342Z</time></trkpt><trkpt lat="43.516516" lon="10.8316691"><ele>177.0</ele><time>2026-04-18T08:33:13.342Z</time></trkpt><trkpt lat="43.5164727" lon="10.831733"><ele>177.0</ele><time>2026-04-18T08:33:14.343Z</time></trkpt><trkpt lat="43.5164297" lon="10.8317971"><ele>177.0</ele><time>2026-04-18T08:33:15.343Z</time></trkpt><trkpt lat="43.5163374" lon="10.8318849"><ele>177.0</ele><time>2026-04-18T08:33:17.343Z</time></trkpt><trkpt lat="43.5162194" lon="10.8319171"><ele>176.2857142857143</ele><time>2026-04-18T08:33:19.343Z</time></trkpt><trkpt lat="43.5161509" lon="10.8319166"><ele>175.57142857142856</ele><time>2026-04-18T08:33:20.343Z</time></trkpt><trkpt lat="43.5160834" lon="10.8319045"><ele>174.85714285714286</ele><time>2026-04-18T08:33:21.346Z</time></trkpt><trkpt lat="43.5160169" lon="10.8318849"><ele>174.14285714285717</ele><time>2026-04-18T08:33:22.342Z</time></trkpt><trkpt lat="43.5159531" lon="10.8318567"><ele>173.42857142857144</ele><time>2026-04-18T08:33:23.344Z</time></trkpt><trkpt lat="43.5158899" lon="10.831809"><ele>172.71428571428572</ele><time>2026-04-18T08:33:24.346Z</time></trkpt><trkpt lat="43.5158294" lon="10.8317397"><ele>172.0</ele><time>2026-04-18T08:33:25.342Z</time></trkpt><trkpt lat="43.5157708" lon="10.8316557"><ele>174.6</ele><time>2026-04-18T08:33:26.342Z</time></trkpt><trkpt lat="43.5157094" lon="10.8315677"><ele>177.2</ele><time>2026-04-18T08:33:27.342Z</time></trkpt><trkpt lat="43.5156389" lon="10.8314839"><ele>179.8</ele><time>2026-04-18T08:33:28.343Z</time></trkpt><trkpt lat="43.5155608" lon="10.8314068"><ele>182.4</ele><time>2026-04-18T08:33:29.342Z</time></trkpt><trkpt lat="43.5154804" lon="10.8313321"><ele>185.0</ele><time>2026-04-18T08:33:30.344Z</time></trkpt><trkpt lat="43.5154012" lon="10.8312597"><ele>185.0</ele><time>2026-04-18T08:33:31.342Z</time></trkpt><trkpt lat="43.5153216" lon="10.8311916"><ele>185.0</ele><time>2026-04-18T08:33:32.343Z</time></trkpt><trkpt lat="43.5152434" lon="10.8311377"><ele>185.0</ele><time>2026-04-18T08:33:33.343Z</time></trkpt><trkpt lat="43.5151666" lon="10.83109"><ele>185.0</ele><time>2026-04-18T08:33:34.343Z</time></trkpt><trkpt lat="43.5150873" lon="10.8310448"><ele>185.0</ele><time>2026-04-18T08:33:35.343Z</time></trkpt><trkpt lat="43.5150061" lon="10.8310061"><ele>185.0</ele><time>2026-04-18T08:33:36.342Z</time></trkpt><trkpt lat="43.5149195" lon="10.8309712"><ele>186.5</ele><time>2026-04-18T08:33:37.343Z</time></trkpt><trkpt lat="43.5148309" lon="10.8309454"><ele>188.0</ele><time>2026-04-18T08:33:38.342Z</time></trkpt><trkpt lat="43.5147493" lon="10.8309274"><ele>189.5</ele><time>2026-04-18T08:33:39.344Z</time></trkpt><trkpt lat="43.5146699" lon="10.8309221"><ele>191.0</ele><time>2026-04-18T08:33:40.342Z</time></trkpt><trkpt lat="43.5145963" lon="10.8309234"><ele>192.50000000000003</ele><time>2026-04-18T08:33:41.343Z</time></trkpt><trkpt lat="43.514525" lon="10.8309352"><ele>194.0</ele><time>2026-04-18T08:33:42.342Z</time></trkpt><trkpt lat="43.5144597" lon="10.8309525"><ele>193.16666666666669</ele><time>2026-04-18T08:33:43.344Z</time></trkpt><trkpt lat="43.5143979" lon="10.8309709"><ele>192.33333333333334</ele><time>2026-04-18T08:33:44.342Z</time></trkpt><trkpt lat="43.514281" lon="10.8310058"><ele>191.5</ele><time>2026-04-18T08:33:46.342Z</time></trkpt><trkpt lat="43.514213" lon="10.831026"><ele>190.66666666666669</ele><time>2026-04-18T08:33:47.343Z</time></trkpt><trkpt lat="43.5141376" lon="10.8310405"><ele>189.83333333333334</ele><time>2026-04-18T08:33:48.343Z</time></trkpt><trkpt lat="43.514059" lon="10.8310491"><ele>189.0</ele><time>2026-04-18T08:33:49.342Z</time></trkpt><trkpt lat="43.5139784" lon="10.8310556"><ele>189.0</ele><time>2026-04-18T08:33:50.344Z</time></trkpt><trkpt lat="43.5139031" lon="10.831059"><ele>189.0</ele><time>2026-04-18T08:33:51.345Z</time></trkpt><trkpt lat="43.5138326" lon="10.8310574"><ele>189.0</ele><time>2026-04-18T08:33:52.343Z</time></trkpt><trkpt lat="43.5137661" lon="10.8310616"><ele>189.0</ele><time>2026-04-18T08:33:53.343Z</time></trkpt><trkpt lat="43.5136995" lon="10.8310804"><ele>189.0</ele><time>2026-04-18T08:33:54.343Z</time></trkpt><trkpt lat="43.5136288" lon="10.8311166"><ele>189.0</ele><time>2026-04-18T08:33:55.343Z</time></trkpt><trkpt lat="43.5135586" lon="10.8311589"><ele>189.0</ele><time>2026-04-18T08:33:56.342Z</time></trkpt><trkpt lat="43.5134858" lon="10.8312018"><ele>191.5</ele><time>2026-04-18T08:33:57.342Z</time></trkpt><trkpt lat="43.5134071" lon="10.8312327"><ele>194.0</ele><time>2026-04-18T08:33:58.343Z</time></trkpt><trkpt lat="43.513328" lon="10.8312632"><ele>196.5</ele><time>2026-04-18T08:33:59.343Z</time></trkpt><trkpt lat="43.5132476" lon="10.831302"><ele>199.0</ele><time>2026-04-18T08:34:00.344Z</time></trkpt><trkpt lat="43.5131698" lon="10.8313673"><ele>201.5</ele><time>2026-04-18T08:34:01.343Z</time></trkpt><trkpt lat="43.5130976" lon="10.8314542"><ele>204.0</ele><time>2026-04-18T08:34:02.342Z</time></trkpt><trkpt lat="43.513027" lon="10.831554"><ele>204.0</ele><time>2026-04-18T08:34:03.343Z</time></trkpt><trkpt lat="43.5129581" lon="10.8316534"><ele>204.0</ele><time>2026-04-18T08:34:04.342Z</time></trkpt><trkpt lat="43.5129017" lon="10.8317438"><ele>204.0</ele><time>2026-04-18T08:34:05.342Z</time></trkpt><trkpt lat="43.5128492" lon="10.8318277"><ele>204.0</ele><time>2026-04-18T08:34:06.343Z</time></trkpt><trkpt lat="43.5127965" lon="10.8318997"><ele>204.0</ele><time>2026-04-18T08:34:07.343Z</time></trkpt><trkpt lat="43.5127383" lon="10.8319657"><ele>204.0</ele><time>2026-04-18T08:34:08.344Z</time></trkpt><trkpt lat="43.5126688" lon="10.8320258"><ele>205.6</ele><time>2026-04-18T08:34:09.343Z</time></trkpt><trkpt lat="43.5125905" lon="10.8320749"><ele>207.2</ele><time>2026-04-18T08:34:10.342Z</time></trkpt><trkpt lat="43.5125187" lon="10.8321139"><ele>208.79999999999998</ele><time>2026-04-18T08:34:11.342Z</time></trkpt><trkpt lat="43.5124593" lon="10.8321486"><ele>210.39999999999998</ele><time>2026-04-18T08:34:12.345Z</time></trkpt><trkpt lat="43.5123509" lon="10.8322087"><ele>212.0</ele><time>2026-04-18T08:34:14.344Z</time></trkpt><trkpt lat="43.5122573" lon="10.8322778"><ele>212.0</ele><time>2026-04-18T08:34:16.342Z</time></trkpt><trkpt lat="43.5121678" lon="10.8323821"><ele>212.0</ele><time>2026-04-18T08:34:18.342Z</time></trkpt><trkpt lat="43.5120832" lon="10.8325165"><ele>212.0</ele><time>2026-04-18T08:34:20.341Z</time></trkpt><trkpt lat="43.5120435" lon="10.8326034"><ele>212.0</ele><time>2026-04-18T08:34:21.342Z</time></trkpt><trkpt lat="43.5120078" lon="10.832697"><ele>212.0</ele><time>2026-04-18T08:34:22.341Z</time></trkpt><trkpt lat="43.5119701" lon="10.832801"><ele>209.39999999999998</ele><time>2026-04-18T08:34:23.344Z</time></trkpt><trkpt lat="43.5119274" lon="10.8329172"><ele>206.79999999999998</ele><time>2026-04-18T08:34:24.342Z</time></trkpt><trkpt lat="43.5118793" lon="10.8330424"><ele>204.2</ele><time>2026-04-18T08:34:25.342Z</time></trkpt><trkpt lat="43.5118274" lon="10.8331575"><ele>201.6</ele><time>2026-04-18T08:34:26.345Z</time></trkpt><trkpt lat="43.5117782" lon="10.8332543"><ele>199.0</ele><time>2026-04-18T08:34:27.342Z</time></trkpt><trkpt lat="43.5117267" lon="10.8333442"><ele>198.99999999999997</ele><time>2026-04-18T08:34:28.343Z</time></trkpt><trkpt lat="43.5116691" lon="10.8334231"><ele>199.0</ele><time>2026-04-18T08:34:29.342Z</time></trkpt><trkpt lat="43.5116087" lon="10.8334913"><ele>199.0</ele><time>2026-04-18T08:34:30.342Z</time></trkpt><trkpt lat="43.5115411" lon="10.8335497"><ele>199.0</ele><time>2026-04-18T08:34:31.342Z</time></trkpt><trkpt lat="43.5114661" lon="10.8336011"><ele>198.99999999999997</ele><time>2026-04-18T08:34:32.342Z</time></trkpt><trkpt lat="43.5113871" lon="10.8336582"><ele>199.0</ele><time>2026-04-18T08:34:33.345Z</time></trkpt><trkpt lat="43.5113092" lon="10.8337229"><ele>199.33333333333331</ele><time>2026-04-18T08:34:34.345Z</time></trkpt><trkpt lat="43.5112349" lon="10.8337823"><ele>199.66666666666666</ele><time>2026-04-18T08:34:35.341Z</time></trkpt><trkpt lat="43.5111662" lon="10.8338374"><ele>200.0</ele><time>2026-04-18T08:34:36.342Z</time></trkpt><trkpt lat="43.5111058" lon="10.8338903"><ele>200.33333333333331</ele><time>2026-04-18T08:34:37.342Z</time></trkpt><trkpt lat="43.51106" lon="10.8339511"><ele>200.66666666666666</ele><time>2026-04-18T08:34:38.345Z</time></trkpt><trkpt lat="43.5110328" lon="10.8340835"><ele>201.0</ele><time>2026-04-18T08:34:40.341Z</time></trkpt><trkpt lat="43.5110511" lon="10.8342451"><ele>200.7142857142857</ele><time>2026-04-18T08:34:42.345Z</time></trkpt><trkpt lat="43.5110643" lon="10.8343412"><ele>200.42857142857144</ele><time>2026-04-18T08:34:43.342Z</time></trkpt><trkpt lat="43.5110797" lon="10.8344384"><ele>200.14285714285714</ele><time>2026-04-18T08:34:44.342Z</time></trkpt><trkpt lat="43.511092" lon="10.8345383"><ele>199.85714285714283</ele><time>2026-04-18T08:34:45.343Z</time></trkpt><trkpt lat="43.5110961" lon="10.8346385"><ele>199.57142857142856</ele><time>2026-04-18T08:34:46.342Z</time></trkpt><trkpt lat="43.5110895" lon="10.8347402"><ele>199.28571428571428</ele><time>2026-04-18T08:34:47.343Z</time></trkpt><trkpt lat="43.511073" lon="10.8348408"><ele>199.0</ele><time>2026-04-18T08:34:48.342Z</time></trkpt><trkpt lat="43.5110536" lon="10.8349357"><ele>198.99999999999997</ele><time>2026-04-18T08:34:49.342Z</time></trkpt><trkpt lat="43.5110289" lon="10.8350303"><ele>199.0</ele><time>2026-04-18T08:34:50.342Z</time></trkpt><trkpt lat="43.5110063" lon="10.835122"><ele>199.0</ele><time>2026-04-18T08:34:51.343Z</time></trkpt><trkpt lat="43.510979" lon="10.8352193"><ele>199.0</ele><time>2026-04-18T08:34:52.342Z</time></trkpt><trkpt lat="43.5109504" lon="10.8353272"><ele>198.99999999999997</ele><time>2026-04-18T08:34:53.343Z</time></trkpt><trkpt lat="43.5109224" lon="10.835443"><ele>199.0</ele><time>2026-04-18T08:34:54.342Z</time></trkpt><trkpt lat="43.5108971" lon="10.8355673"><ele>197.39999999999998</ele><time>2026-04-18T08:34:55.346Z</time></trkpt><trkpt lat="43.5108735" lon="10.8356947"><ele>195.8</ele><time>2026-04-18T08:34:56.342Z</time></trkpt><trkpt lat="43.5108604" lon="10.8358236"><ele>194.2</ele><time>2026-04-18T08:34:57.345Z</time></trkpt><trkpt lat="43.510854" lon="10.8359535"><ele>192.60000000000002</ele><time>2026-04-18T08:34:58.345Z</time></trkpt><trkpt lat="43.5108546" lon="10.8360968"><ele>191.0</ele><time>2026-04-18T08:34:59.345Z</time></trkpt><trkpt lat="43.5108583" lon="10.8362504"><ele>190.75</ele><time>2026-04-18T08:35:00.342Z</time></trkpt><trkpt lat="43.5108603" lon="10.8364124"><ele>190.5</ele><time>2026-04-18T08:35:01.344Z</time></trkpt><trkpt lat="43.5108561" lon="10.8365793"><ele>190.25</ele><time>2026-04-18T08:35:02.342Z</time></trkpt><trkpt lat="43.5108506" lon="10.8367457"><ele>190.0</ele><time>2026-04-18T08:35:03.343Z</time></trkpt><trkpt lat="43.5108435" lon="10.8369145"><ele>190.0</ele><time>2026-04-18T08:35:04.342Z</time></trkpt><trkpt lat="43.5108371" lon="10.8370669"><ele>190.0</ele><time>2026-04-18T08:35:05.343Z</time></trkpt><trkpt lat="43.5108297" lon="10.8371942"><ele>190.0</ele><time>2026-04-18T08:35:06.341Z</time></trkpt><trkpt lat="43.5108108" lon="10.837317"><ele>190.0</ele><time>2026-04-18T08:35:07.342Z</time></trkpt><trkpt lat="43.5107814" lon="10.8374367"><ele>190.0</ele><time>2026-04-18T08:35:08.342Z</time></trkpt><trkpt lat="43.5107533" lon="10.8375537"><ele>190.16666666666669</ele><time>2026-04-18T08:35:09.343Z</time></trkpt><trkpt lat="43.5107298" lon="10.8376675"><ele>190.33333333333334</ele><time>2026-04-18T08:35:10.342Z</time></trkpt><trkpt lat="43.5107082" lon="10.8377818"><ele>190.5</ele><time>2026-04-18T08:35:11.342Z</time></trkpt><trkpt lat="43.5106937" lon="10.8378973"><ele>190.66666666666666</ele><time>2026-04-18T08:35:12.343Z</time></trkpt><trkpt lat="43.5106887" lon="10.8380136"><ele>190.83333333333331</ele><time>2026-04-18T08:35:13.341Z</time></trkpt><trkpt lat="43.5106924" lon="10.8381374"><ele>191.0</ele><time>2026-04-18T08:35:14.345Z</time></trkpt><trkpt lat="43.5107043" lon="10.8382706"><ele>191.0</ele><time>2026-04-18T08:35:15.345Z</time></trkpt><trkpt lat="43.51072" lon="10.838398"><ele>191.0</ele><time>2026-04-18T08:35:16.342Z</time></trkpt><trkpt lat="43.5107415" lon="10.838513"><ele>191.0</ele><time>2026-04-18T08:35:17.344Z</time></trkpt><trkpt lat="43.5107604" lon="10.8386131"><ele>191.0</ele><time>2026-04-18T08:35:18.343Z</time></trkpt><trkpt lat="43.5107757" lon="10.8386981"><ele>191.0</ele><time>2026-04-18T08:35:19.344Z</time></trkpt><trkpt lat="43.5108071" lon="10.838865"><ele>191.0</ele><time>2026-04-18T08:35:21.344Z</time></trkpt><trkpt lat="43.5108172" lon="10.8390224"><ele>190.33333333333331</ele><time>2026-04-18T08:35:23.346Z</time></trkpt><trkpt lat="43.5107978" lon="10.8391944"><ele>189.66666666666666</ele><time>2026-04-18T08:35:25.344Z</time></trkpt><trkpt lat="43.5107809" lon="10.83928"><ele>189.0</ele><time>2026-04-18T08:35:26.345Z</time></trkpt><trkpt lat="43.5107592" lon="10.8393618"><ele>188.33333333333334</ele><time>2026-04-18T08:35:27.343Z</time></trkpt><trkpt lat="43.5107371" lon="10.8394453"><ele>187.66666666666669</ele><time>2026-04-18T08:35:28.344Z</time></trkpt><trkpt lat="43.5107026" lon="10.8396096"><ele>187.0</ele><time>2026-04-18T08:35:30.342Z</time></trkpt><trkpt lat="43.5106929" lon="10.8397905"><ele>186.39999999999998</ele><time>2026-04-18T08:35:32.344Z</time></trkpt><trkpt lat="43.5106947" lon="10.8398971"><ele>185.79999999999998</ele><time>2026-04-18T08:35:33.344Z</time></trkpt><trkpt lat="43.5107" lon="10.8400181"><ele>185.2</ele><time>2026-04-18T08:35:34.343Z</time></trkpt><trkpt lat="43.5107146" lon="10.8401496"><ele>184.6</ele><time>2026-04-18T08:35:35.342Z</time></trkpt><trkpt lat="43.5107345" lon="10.8402902"><ele>184.0</ele><time>2026-04-18T08:35:36.346Z</time></trkpt><trkpt lat="43.5107551" lon="10.8404341"><ele>183.75</ele><time>2026-04-18T08:35:37.341Z</time></trkpt><trkpt lat="43.5107755" lon="10.8405763"><ele>183.5</ele><time>2026-04-18T08:35:38.343Z</time></trkpt><trkpt lat="43.510794" lon="10.8407285"><ele>183.25</ele><time>2026-04-18T08:35:39.342Z</time></trkpt><trkpt lat="43.5108106" lon="10.8408903"><ele>183.0</ele><time>2026-04-18T08:35:40.342Z</time></trkpt><trkpt lat="43.5108268" lon="10.8410573"><ele>183.0</ele><time>2026-04-18T08:35:41.345Z</time></trkpt><trkpt lat="43.5108421" lon="10.8412267"><ele>183.0</ele><time>2026-04-18T08:35:42.342Z</time></trkpt><trkpt lat="43.5108526" lon="10.8414013"><ele>183.0</ele><time>2026-04-18T08:35:43.343Z</time></trkpt><trkpt lat="43.510864" lon="10.8415678"><ele>183.0</ele><time>2026-04-18T08:35:44.342Z</time></trkpt><trkpt lat="43.510878" lon="10.8417169"><ele>183.4</ele><time>2026-04-18T08:35:45.343Z</time></trkpt><trkpt lat="43.5109033" lon="10.8418494"><ele>183.8</ele><time>2026-04-18T08:35:46.342Z</time></trkpt><trkpt lat="43.5109355" lon="10.8419787"><ele>184.2</ele><time>2026-04-18T08:35:47.342Z</time></trkpt><trkpt lat="43.5109772" lon="10.8420926"><ele>184.6</ele><time>2026-04-18T08:35:48.346Z</time></trkpt><trkpt lat="43.5110199" lon="10.8421947"><ele>185.0</ele><time>2026-04-18T08:35:49.345Z</time></trkpt><trkpt lat="43.5110529" lon="10.842296"><ele>185.0</ele><time>2026-04-18T08:35:50.342Z</time></trkpt><trkpt lat="43.5110809" lon="10.8424026"><ele>185.0</ele><time>2026-04-18T08:35:51.342Z</time></trkpt><trkpt lat="43.5111017" lon="10.8425203"><ele>185.0</ele><time>2026-04-18T08:35:52.343Z</time></trkpt><trkpt lat="43.5111125" lon="10.8426454"><ele>185.0</ele><time>2026-04-18T08:35:53.345Z</time></trkpt><trkpt lat="43.5111151" lon="10.8427797"><ele>185.0</ele><time>2026-04-18T08:35:54.343Z</time></trkpt><trkpt lat="43.5111146" lon="10.8429246"><ele>184.6</ele><time>2026-04-18T08:35:55.342Z</time></trkpt><trkpt lat="43.5111122" lon="10.8430763"><ele>184.2</ele><time>2026-04-18T08:35:56.342Z</time></trkpt><trkpt lat="43.5110988" lon="10.8432277"><ele>183.8</ele><time>2026-04-18T08:35:57.342Z</time></trkpt><trkpt lat="43.5110778" lon="10.8433756"><ele>183.4</ele><time>2026-04-18T08:35:58.342Z</time></trkpt><trkpt lat="43.5110554" lon="10.8435139"><ele>183.0</ele><time>2026-04-18T08:35:59.342Z</time></trkpt><trkpt lat="43.5110346" lon="10.8436416"><ele>182.2</ele><time>2026-04-18T08:36:00.342Z</time></trkpt><trkpt lat="43.511016" lon="10.8437569"><ele>181.4</ele><time>2026-04-18T08:36:01.342Z</time></trkpt><trkpt lat="43.511001" lon="10.8438659"><ele>180.6</ele><time>2026-04-18T08:36:02.343Z</time></trkpt><trkpt lat="43.5109969" lon="10.8439845"><ele>179.79999999999998</ele><time>2026-04-18T08:36:03.345Z</time></trkpt><trkpt lat="43.5110028" lon="10.8441217"><ele>179.0</ele><time>2026-04-18T08:36:04.343Z</time></trkpt><trkpt lat="43.5110187" lon="10.8442645"><ele>178.16666666666666</ele><time>2026-04-18T08:36:05.342Z</time></trkpt><trkpt lat="43.5110378" lon="10.8444024"><ele>177.33333333333331</ele><time>2026-04-18T08:36:06.343Z</time></trkpt><trkpt lat="43.5110564" lon="10.8445269"><ele>176.5</ele><time>2026-04-18T08:36:07.342Z</time></trkpt><trkpt lat="43.5110749" lon="10.8446322"><ele>175.66666666666666</ele><time>2026-04-18T08:36:08.343Z</time></trkpt><trkpt lat="43.5110964" lon="10.8447144"><ele>174.83333333333334</ele><time>2026-04-18T08:36:09.343Z</time></trkpt><trkpt lat="43.5111441" lon="10.8448334"><ele>174.0</ele><time>2026-04-18T08:36:11.346Z</time></trkpt><trkpt lat="43.5111773" lon="10.8449106"><ele>174.0</ele><time>2026-04-18T08:36:12.345Z</time></trkpt><trkpt lat="43.511217" lon="10.8449979"><ele>174.0</ele><time>2026-04-18T08:36:13.345Z</time></trkpt><trkpt lat="43.5112613" lon="10.8450891"><ele>174.0</ele><time>2026-04-18T08:36:14.343Z</time></trkpt><trkpt lat="43.5113108" lon="10.845189"><ele>174.0</ele><time>2026-04-18T08:36:15.345Z</time></trkpt><trkpt lat="43.5113702" lon="10.8453023"><ele>174.0</ele><time>2026-04-18T08:36:16.345Z</time></trkpt><trkpt lat="43.5114332" lon="10.8454195"><ele>174.0</ele><time>2026-04-18T08:36:17.345Z</time></trkpt><trkpt lat="43.5114968" lon="10.8455325"><ele>174.6</ele><time>2026-04-18T08:36:18.345Z</time></trkpt><trkpt lat="43.5115599" lon="10.8456357"><ele>175.2</ele><time>2026-04-18T08:36:19.346Z</time></trkpt><trkpt lat="43.5116166" lon="10.845735"><ele>175.79999999999998</ele><time>2026-04-18T08:36:20.343Z</time></trkpt><trkpt lat="43.5116685" lon="10.8458422"><ele>176.39999999999998</ele><time>2026-04-18T08:36:21.344Z</time></trkpt><trkpt lat="43.5117097" lon="10.8459556"><ele>177.0</ele><time>2026-04-18T08:36:22.343Z</time></trkpt><trkpt lat="43.5117386" lon="10.8460758"><ele>177.39999999999998</ele><time>2026-04-18T08:36:23.347Z</time></trkpt><trkpt lat="43.5117565" lon="10.8461991"><ele>177.79999999999998</ele><time>2026-04-18T08:36:24.345Z</time></trkpt><trkpt lat="43.5117597" lon="10.8463259"><ele>178.2</ele><time>2026-04-18T08:36:25.343Z</time></trkpt><trkpt lat="43.5117515" lon="10.846456"><ele>178.6</ele><time>2026-04-18T08:36:26.342Z</time></trkpt><trkpt lat="43.5117393" lon="10.846585"><ele>179.0</ele><time>2026-04-18T08:36:27.344Z</time></trkpt><trkpt lat="43.5117254" lon="10.8467034"><ele>179.0</ele><time>2026-04-18T08:36:28.345Z</time></trkpt><trkpt lat="43.5117028" lon="10.8468129"><ele>179.0</ele><time>2026-04-18T08:36:29.343Z</time></trkpt><trkpt lat="43.5116788" lon="10.8469233"><ele>179.0</ele><time>2026-04-18T08:36:30.346Z</time></trkpt><trkpt lat="43.5116599" lon="10.8470284"><ele>179.0</ele><time>2026-04-18T08:36:31.342Z</time></trkpt><trkpt lat="43.5116417" lon="10.8471273"><ele>179.0</ele><time>2026-04-18T08:36:32.343Z</time></trkpt><trkpt lat="43.5116331" lon="10.8472894"><ele>179.0</ele><time>2026-04-18T08:36:34.342Z</time></trkpt><trkpt lat="43.5116504" lon="10.8474275"><ele>179.0</ele><time>2026-04-18T08:36:36.345Z</time></trkpt><trkpt lat="43.5116766" lon="10.8475374"><ele>179.0</ele><time>2026-04-18T08:36:38.344Z</time></trkpt><trkpt lat="43.5116921" lon="10.8476247"><ele>179.0</ele><time>2026-04-18T08:36:41.343Z</time></trkpt><trkpt lat="43.5117258" lon="10.847728"><ele>179.0</ele><time>2026-04-18T08:36:54.343Z</time></trkpt><trkpt lat="43.5117432" lon="10.8478233"><ele>179.0</ele><time>2026-04-18T08:36:56.342Z</time></trkpt><trkpt lat="43.5117648" lon="10.8479391"><ele>179.0</ele><time>2026-04-18T08:36:58.342Z</time></trkpt><trkpt lat="43.5117834" lon="10.848055"><ele>179.0</ele><time>2026-04-18T08:37:00.343Z</time></trkpt><trkpt lat="43.5117917" lon="10.8481766"><ele>179.0</ele><time>2026-04-18T08:37:02.343Z</time></trkpt><trkpt lat="43.5118099" lon="10.8483104"><ele>179.0</ele><time>2026-04-18T08:37:04.342Z</time></trkpt><trkpt lat="43.5118473" lon="10.8484339"><ele>179.0</ele><time>2026-04-18T08:37:06.342Z</time></trkpt><trkpt lat="43.5118837" lon="10.8485479"><ele>179.0</ele><time>2026-04-18T08:37:08.344Z</time></trkpt><trkpt lat="43.511918" lon="10.8486906"><ele>178.5</ele><time>2026-04-18T08:37:10.342Z</time></trkpt><trkpt lat="43.51196" lon="10.8488474"><ele>178.0</ele><time>2026-04-18T08:37:12.344Z</time></trkpt><trkpt lat="43.5120182" lon="10.8489923"><ele>177.5</ele><time>2026-04-18T08:37:14.343Z</time></trkpt><trkpt lat="43.5120899" lon="10.8491214"><ele>177.0</ele><time>2026-04-18T08:37:16.342Z</time></trkpt><trkpt lat="43.5121655" lon="10.8492404"><ele>176.33333333333334</ele><time>2026-04-18T08:37:18.344Z</time></trkpt><trkpt lat="43.5122386" lon="10.8493605"><ele>175.66666666666666</ele><time>2026-04-18T08:37:20.347Z</time></trkpt><trkpt lat="43.5122887" lon="10.8494312"><ele>175.0</ele><time>2026-04-18T08:37:21.342Z</time></trkpt><trkpt lat="43.5123474" lon="10.8495051"><ele>174.33333333333331</ele><time>2026-04-18T08:37:22.343Z</time></trkpt><trkpt lat="43.5124037" lon="10.8495843"><ele>173.66666666666666</ele><time>2026-04-18T08:37:23.343Z</time></trkpt><trkpt lat="43.5124558" lon="10.8496604"><ele>173.0</ele><time>2026-04-18T08:37:24.345Z</time></trkpt><trkpt lat="43.5125025" lon="10.8497319"><ele>173.0</ele><time>2026-04-18T08:37:25.346Z</time></trkpt><trkpt lat="43.5125469" lon="10.8497984"><ele>173.0</ele><time>2026-04-18T08:37:26.346Z</time></trkpt><trkpt lat="43.5125889" lon="10.8498693"><ele>173.0</ele><time>2026-04-18T08:37:27.347Z</time></trkpt><trkpt lat="43.5126308" lon="10.8499365"><ele>173.0</ele><time>2026-04-18T08:37:28.342Z</time></trkpt><trkpt lat="43.5126769" lon="10.8500056"><ele>173.0</ele><time>2026-04-18T08:37:29.342Z</time></trkpt><trkpt lat="43.5127252" lon="10.8500748"><ele>173.0</ele><time>2026-04-18T08:37:30.343Z</time></trkpt><trkpt lat="43.5127778" lon="10.850137"><ele>173.0</ele><time>2026-04-18T08:37:31.342Z</time></trkpt><trkpt lat="43.5128283" lon="10.8501923"><ele>172.4</ele><time>2026-04-18T08:37:32.344Z</time></trkpt><trkpt lat="43.5129218" lon="10.8502888"><ele>171.8</ele><time>2026-04-18T08:37:34.344Z</time></trkpt><trkpt lat="43.5130152" lon="10.8503917"><ele>171.2</ele><time>2026-04-18T08:37:36.345Z</time></trkpt><trkpt lat="43.5131014" lon="10.8505086"><ele>170.6</ele><time>2026-04-18T08:37:38.344Z</time></trkpt><trkpt lat="43.5131422" lon="10.8505758"><ele>170.0</ele><time>2026-04-18T08:37:39.346Z</time></trkpt><trkpt lat="43.513206" lon="10.8507221"><ele>170.0</ele><time>2026-04-18T08:37:41.344Z</time></trkpt><trkpt lat="43.5132436" lon="10.8508625"><ele>170.0</ele><time>2026-04-18T08:37:43.342Z</time></trkpt><trkpt lat="43.5132269" lon="10.8509963"><ele>170.0</ele><time>2026-04-18T08:37:45.346Z</time></trkpt><trkpt lat="43.5131755" lon="10.8511211"><ele>170.0</ele><time>2026-04-18T08:37:47.346Z</time></trkpt><trkpt lat="43.5131057" lon="10.8512649"><ele>170.0</ele><time>2026-04-18T08:37:49.343Z</time></trkpt><trkpt lat="43.5130825" lon="10.8513533"><ele>170.33333333333331</ele><time>2026-04-18T08:37:50.345Z</time></trkpt><trkpt lat="43.5130648" lon="10.8514505"><ele>170.66666666666666</ele><time>2026-04-18T08:37:51.345Z</time></trkpt><trkpt lat="43.5130501" lon="10.8515543"><ele>171.0</ele><time>2026-04-18T08:37:52.343Z</time></trkpt><trkpt lat="43.5130326" lon="10.8516657"><ele>171.33333333333334</ele><time>2026-04-18T08:37:53.344Z</time></trkpt><trkpt lat="43.5130215" lon="10.851775"><ele>171.66666666666669</ele><time>2026-04-18T08:37:54.343Z</time></trkpt><trkpt lat="43.5130103" lon="10.8518801"><ele>172.0</ele><time>2026-04-18T08:37:55.344Z</time></trkpt><trkpt lat="43.5129879" lon="10.8519863"><ele>172.0</ele><time>2026-04-18T08:37:56.344Z</time></trkpt><trkpt lat="43.5129606" lon="10.8520926"><ele>172.0</ele><time>2026-04-18T08:37:57.346Z</time></trkpt><trkpt lat="43.5129306" lon="10.8522014"><ele>172.0</ele><time>2026-04-18T08:37:58.348Z</time></trkpt><trkpt lat="43.5128973" lon="10.8523083"><ele>172.0</ele><time>2026-04-18T08:37:59.343Z</time></trkpt><trkpt lat="43.5128609" lon="10.8524103"><ele>172.0</ele><time>2026-04-18T08:38:00.344Z</time></trkpt><trkpt lat="43.5128224" lon="10.8525035"><ele>172.0</ele><time>2026-04-18T08:38:01.343Z</time></trkpt><trkpt lat="43.512784" lon="10.8525862"><ele>172.5</ele><time>2026-04-18T08:38:02.346Z</time></trkpt><trkpt lat="43.5127383" lon="10.8526592"><ele>173.0</ele><time>2026-04-18T08:38:03.345Z</time></trkpt><trkpt lat="43.5126777" lon="10.8527228"><ele>173.5</ele><time>2026-04-18T08:38:04.35Z</time></trkpt><trkpt lat="43.5126062" lon="10.8527728"><ele>174.0</ele><time>2026-04-18T08:38:05.346Z</time></trkpt><trkpt lat="43.5125341" lon="10.8528212"><ele>174.5</ele><time>2026-04-18T08:38:06.345Z</time></trkpt><trkpt lat="43.5124682" lon="10.8528809"><ele>175.0</ele><time>2026-04-18T08:38:07.346Z</time></trkpt><trkpt lat="43.5124208" lon="10.8529444"><ele>175.0</ele><time>2026-04-18T08:38:08.347Z</time></trkpt><trkpt lat="43.5123609" lon="10.8530953"><ele>175.0</ele><time>2026-04-18T08:38:10.343Z</time></trkpt><trkpt lat="43.5123454" lon="10.8531952"><ele>175.0</ele><time>2026-04-18T08:38:11.343Z</time></trkpt><trkpt lat="43.5123415" lon="10.8533105"><ele>175.0</ele><time>2026-04-18T08:38:12.347Z</time></trkpt><trkpt lat="43.5123482" lon="10.853423"><ele>175.0</ele><time>2026-04-18T08:38:13.346Z</time></trkpt><trkpt lat="43.5123497" lon="10.8535191"><ele>175.0</ele><time>2026-04-18T08:38:14.345Z</time></trkpt><trkpt lat="43.5123555" lon="10.8536656"><ele>175.0</ele><time>2026-04-18T08:38:16.344Z</time></trkpt><trkpt lat="43.5123579" lon="10.853806"><ele>175.0</ele><time>2026-04-18T08:38:18.343Z</time></trkpt><trkpt lat="43.5123426" lon="10.8539822"><ele>175.0</ele><time>2026-04-18T08:38:20.343Z</time></trkpt><trkpt lat="43.5123383" lon="10.8540787"><ele>175.0</ele><time>2026-04-18T08:38:21.342Z</time></trkpt><trkpt lat="43.5123337" lon="10.8541751"><ele>175.0</ele><time>2026-04-18T08:38:22.342Z</time></trkpt><trkpt lat="43.5123269" lon="10.8542652"><ele>175.0</ele><time>2026-04-18T08:38:23.343Z</time></trkpt><trkpt lat="43.5123028" lon="10.8544245"><ele>175.2</ele><time>2026-04-18T08:38:25.346Z</time></trkpt><trkpt lat="43.5122836" lon="10.8546006"><ele>175.4</ele><time>2026-04-18T08:38:27.344Z</time></trkpt><trkpt lat="43.5122814" lon="10.8547051"><ele>175.60000000000002</ele><time>2026-04-18T08:38:28.346Z</time></trkpt><trkpt lat="43.5122772" lon="10.8548162"><ele>175.8</ele><time>2026-04-18T08:38:29.343Z</time></trkpt><trkpt lat="43.512266" lon="10.8549326"><ele>176.0</ele><time>2026-04-18T08:38:30.346Z</time></trkpt><trkpt lat="43.51226" lon="10.8550527"><ele>176.20000000000002</ele><time>2026-04-18T08:38:31.344Z</time></trkpt><trkpt lat="43.5122475" lon="10.8551821"><ele>176.4</ele><time>2026-04-18T08:38:32.345Z</time></trkpt><trkpt lat="43.5122351" lon="10.855322"><ele>176.6</ele><time>2026-04-18T08:38:33.345Z</time></trkpt><trkpt lat="43.5122218" lon="10.8554617"><ele>176.8</ele><time>2026-04-18T08:38:34.344Z</time></trkpt><trkpt lat="43.5122069" lon="10.8555965"><ele>177.0</ele><time>2026-04-18T08:38:35.344Z</time></trkpt><trkpt lat="43.5121948" lon="10.8557314"><ele>177.0</ele><time>2026-04-18T08:38:36.344Z</time></trkpt><trkpt lat="43.5121864" lon="10.8558636"><ele>177.0</ele><time>2026-04-18T08:38:37.345Z</time></trkpt><trkpt lat="43.5121797" lon="10.8559935"><ele>177.0</ele><time>2026-04-18T08:38:38.343Z</time></trkpt><trkpt lat="43.512173" lon="10.8561235"><ele>177.0</ele><time>2026-04-18T08:38:39.345Z</time></trkpt><trkpt lat="43.5121633" lon="10.8562502"><ele>177.0</ele><time>2026-04-18T08:38:40.347Z</time></trkpt><trkpt lat="43.5121486" lon="10.8563741"><ele>177.66666666666666</ele><time>2026-04-18T08:38:41.345Z</time></trkpt><trkpt lat="43.5121317" lon="10.8564895"><ele>178.33333333333334</ele><time>2026-04-18T08:38:42.346Z</time></trkpt><trkpt lat="43.5121149" lon="10.8566034"><ele>179.0</ele><time>2026-04-18T08:38:43.346Z</time></trkpt><trkpt lat="43.512104" lon="10.8567198"><ele>179.66666666666669</ele><time>2026-04-18T08:38:44.342Z</time></trkpt><trkpt lat="43.5120945" lon="10.8568459"><ele>180.33333333333334</ele><time>2026-04-18T08:38:45.343Z</time></trkpt><trkpt lat="43.5120892" lon="10.8569732"><ele>181.0</ele><time>2026-04-18T08:38:46.346Z</time></trkpt><trkpt lat="43.5120849" lon="10.8571001"><ele>181.33333333333334</ele><time>2026-04-18T08:38:47.343Z</time></trkpt><trkpt lat="43.5120859" lon="10.8572231"><ele>181.66666666666669</ele><time>2026-04-18T08:38:48.344Z</time></trkpt><trkpt lat="43.5120931" lon="10.8573385"><ele>182.0</ele><time>2026-04-18T08:38:49.346Z</time></trkpt><trkpt lat="43.5121096" lon="10.8574505"><ele>182.33333333333334</ele><time>2026-04-18T08:38:50.343Z</time></trkpt><trkpt lat="43.5121325" lon="10.8575631"><ele>182.66666666666666</ele><time>2026-04-18T08:38:51.343Z</time></trkpt><trkpt lat="43.5121613" lon="10.8576722"><ele>183.0</ele><time>2026-04-18T08:38:52.343Z</time></trkpt><trkpt lat="43.5121896" lon="10.857777"><ele>183.0</ele><time>2026-04-18T08:38:53.342Z</time></trkpt><trkpt lat="43.5122153" lon="10.8578798"><ele>183.0</ele><time>2026-04-18T08:38:54.342Z</time></trkpt><trkpt lat="43.5122438" lon="10.8579775"><ele>183.0</ele><time>2026-04-18T08:38:55.344Z</time></trkpt><trkpt lat="43.5122742" lon="10.8580719"><ele>183.0</ele><time>2026-04-18T08:38:56.342Z</time></trkpt><trkpt lat="43.5123013" lon="10.858164"><ele>183.0</ele><time>2026-04-18T08:38:57.346Z</time></trkpt><trkpt lat="43.5123279" lon="10.8582491"><ele>183.0</ele><time>2026-04-18T08:38:58.345Z</time></trkpt><trkpt lat="43.5123754" lon="10.8583973"><ele>182.5</ele><time>2026-04-18T08:39:00.343Z</time></trkpt><trkpt lat="43.5124301" lon="10.8585547"><ele>182.0</ele><time>2026-04-18T08:39:02.346Z</time></trkpt><trkpt lat="43.5124581" lon="10.8586364"><ele>181.5</ele><time>2026-04-18T08:39:03.346Z</time></trkpt><trkpt lat="43.51249" lon="10.8587155"><ele>181.0</ele><time>2026-04-18T08:39:04.345Z</time></trkpt><trkpt lat="43.5125244" lon="10.8587885"><ele>180.5</ele><time>2026-04-18T08:39:05.342Z</time></trkpt><trkpt lat="43.5125658" lon="10.8588651"><ele>180.0</ele><time>2026-04-18T08:39:06.341Z</time></trkpt><trkpt lat="43.5126161" lon="10.858945"><ele>180.0</ele><time>2026-04-18T08:39:07.342Z</time></trkpt><trkpt lat="43.5126699" lon="10.8590192"><ele>180.0</ele><time>2026-04-18T08:39:08.341Z</time></trkpt><trkpt lat="43.512722" lon="10.8590934"><ele>180.0</ele><time>2026-04-18T08:39:09.341Z</time></trkpt><trkpt lat="43.5127723" lon="10.8591769"><ele>180.0</ele><time>2026-04-18T08:39:10.346Z</time></trkpt><trkpt lat="43.5128251" lon="10.8592749"><ele>180.0</ele><time>2026-04-18T08:39:11.346Z</time></trkpt><trkpt lat="43.5128831" lon="10.8593777"><ele>180.0</ele><time>2026-04-18T08:39:12.341Z</time></trkpt><trkpt lat="43.512943" lon="10.8594672"><ele>180.83333333333334</ele><time>2026-04-18T08:39:13.341Z</time></trkpt><trkpt lat="43.5130079" lon="10.859546"><ele>181.66666666666666</ele><time>2026-04-18T08:39:14.342Z</time></trkpt><trkpt lat="43.5130748" lon="10.859618"><ele>182.5</ele><time>2026-04-18T08:39:15.341Z</time></trkpt><trkpt lat="43.5131402" lon="10.85969"><ele>183.33333333333331</ele><time>2026-04-18T08:39:16.341Z</time></trkpt><trkpt lat="43.5132005" lon="10.8597629"><ele>184.16666666666666</ele><time>2026-04-18T08:39:17.346Z</time></trkpt><trkpt lat="43.5132599" lon="10.8598408"><ele>185.0</ele><time>2026-04-18T08:39:18.341Z</time></trkpt><trkpt lat="43.513324" lon="10.8599237"><ele>185.0</ele><time>2026-04-18T08:39:19.344Z</time></trkpt><trkpt lat="43.5133864" lon="10.860018"><ele>185.0</ele><time>2026-04-18T08:39:20.346Z</time></trkpt><trkpt lat="43.5134474" lon="10.8601128"><ele>185.0</ele><time>2026-04-18T08:39:21.345Z</time></trkpt><trkpt lat="43.5135073" lon="10.8601985"><ele>185.0</ele><time>2026-04-18T08:39:22.343Z</time></trkpt><trkpt lat="43.5135648" lon="10.8602747"><ele>185.0</ele><time>2026-04-18T08:39:23.342Z</time></trkpt><trkpt lat="43.5136172" lon="10.8603409"><ele>185.0</ele><time>2026-04-18T08:39:24.345Z</time></trkpt><trkpt lat="43.5136668" lon="10.8604022"><ele>184.7142857142857</ele><time>2026-04-18T08:39:25.344Z</time></trkpt><trkpt lat="43.5137195" lon="10.8604592"><ele>184.42857142857142</ele><time>2026-04-18T08:39:26.344Z</time></trkpt><trkpt lat="43.5137804" lon="10.8605091"><ele>184.14285714285714</ele><time>2026-04-18T08:39:27.346Z</time></trkpt><trkpt lat="43.5138471" lon="10.8605528"><ele>183.85714285714283</ele><time>2026-04-18T08:39:28.344Z</time></trkpt><trkpt lat="43.5139188" lon="10.8605851"><ele>183.57142857142858</ele><time>2026-04-18T08:39:29.345Z</time></trkpt><trkpt lat="43.5139885" lon="10.8606114"><ele>183.28571428571428</ele><time>2026-04-18T08:39:30.345Z</time></trkpt><trkpt lat="43.5140512" lon="10.8606388"><ele>183.0</ele><time>2026-04-18T08:39:31.341Z</time></trkpt><trkpt lat="43.5141142" lon="10.8606759"><ele>184.83333333333334</ele><time>2026-04-18T08:39:32.345Z</time></trkpt><trkpt lat="43.514178" lon="10.8607259"><ele>186.66666666666669</ele><time>2026-04-18T08:39:33.343Z</time></trkpt><trkpt lat="43.5142343" lon="10.8607919"><ele>188.5</ele><time>2026-04-18T08:39:34.341Z</time></trkpt><trkpt lat="43.5142798" lon="10.8608717"><ele>190.33333333333334</ele><time>2026-04-18T08:39:35.345Z</time></trkpt><trkpt lat="43.5143181" lon="10.860974"><ele>192.16666666666669</ele><time>2026-04-18T08:39:36.345Z</time></trkpt><trkpt lat="43.5143453" lon="10.8610853"><ele>194.0</ele><time>2026-04-18T08:39:37.345Z</time></trkpt><trkpt lat="43.5143675" lon="10.8612051"><ele>195.6</ele><time>2026-04-18T08:39:38.342Z</time></trkpt><trkpt lat="43.5143903" lon="10.8613245"><ele>197.2</ele><time>2026-04-18T08:39:39.341Z</time></trkpt><trkpt lat="43.5144077" lon="10.8614344"><ele>198.79999999999998</ele><time>2026-04-18T08:39:40.345Z</time></trkpt><trkpt lat="43.514415" lon="10.8615278"><ele>200.39999999999998</ele><time>2026-04-18T08:39:41.345Z</time></trkpt><trkpt lat="43.5143917" lon="10.8616785"><ele>202.0</ele><time>2026-04-18T08:39:43.341Z</time></trkpt><trkpt lat="43.5143163" lon="10.8618036"><ele>202.75</ele><time>2026-04-18T08:39:45.341Z</time></trkpt><trkpt lat="43.5142115" lon="10.861878"><ele>203.5</ele><time>2026-04-18T08:39:47.341Z</time></trkpt><trkpt lat="43.5141111" lon="10.8619713"><ele>204.25</ele><time>2026-04-18T08:39:49.341Z</time></trkpt><trkpt lat="43.5140312" lon="10.8620826"><ele>205.0</ele><time>2026-04-18T08:39:51.343Z</time></trkpt><trkpt lat="43.513959" lon="10.8622097"><ele>205.0</ele><time>2026-04-18T08:39:53.343Z</time></trkpt><trkpt lat="43.5139274" lon="10.8622935"><ele>205.0</ele><time>2026-04-18T08:39:54.343Z</time></trkpt><trkpt lat="43.5139023" lon="10.862389"><ele>205.0</ele><time>2026-04-18T08:39:55.343Z</time></trkpt><trkpt lat="43.5138953" lon="10.8624868"><ele>205.0</ele><time>2026-04-18T08:39:56.346Z</time></trkpt><trkpt lat="43.5138978" lon="10.8625913"><ele>205.0</ele><time>2026-04-18T08:39:57.344Z</time></trkpt><trkpt lat="43.5139026" lon="10.8627"><ele>205.0</ele><time>2026-04-18T08:39:58.343Z</time></trkpt><trkpt lat="43.5139107" lon="10.8628103"><ele>205.0</ele><time>2026-04-18T08:39:59.345Z</time></trkpt><trkpt lat="43.513926" lon="10.8629221"><ele>206.0</ele><time>2026-04-18T08:40:00.346Z</time></trkpt><trkpt lat="43.5139494" lon="10.8630348"><ele>207.0</ele><time>2026-04-18T08:40:01.345Z</time></trkpt><trkpt lat="43.5139843" lon="10.8631481"><ele>208.0</ele><time>2026-04-18T08:40:02.342Z</time></trkpt><trkpt lat="43.5140276" lon="10.8632599"><ele>209.0</ele><time>2026-04-18T08:40:03.345Z</time></trkpt><trkpt lat="43.5140791" lon="10.8633682"><ele>210.0</ele><time>2026-04-18T08:40:04.344Z</time></trkpt><trkpt lat="43.5141315" lon="10.8634747"><ele>211.0</ele><time>2026-04-18T08:40:05.344Z</time></trkpt><trkpt lat="43.5141762" lon="10.863581"><ele>212.0</ele><time>2026-04-18T08:40:06.346Z</time></trkpt><trkpt lat="43.514211" lon="10.8636824"><ele>213.0</ele><time>2026-04-18T08:40:07.344Z</time></trkpt><trkpt lat="43.5142373" lon="10.8637863"><ele>214.0</ele><time>2026-04-18T08:40:08.345Z</time></trkpt><trkpt lat="43.5142569" lon="10.863896"><ele>215.0</ele><time>2026-04-18T08:40:09.341Z</time></trkpt><trkpt lat="43.5142719" lon="10.864014"><ele>216.0</ele><time>2026-04-18T08:40:10.344Z</time></trkpt><trkpt lat="43.5142882" lon="10.8641423"><ele>216.0</ele><time>2026-04-18T08:40:11.344Z</time></trkpt><trkpt lat="43.514302" lon="10.8642749"><ele>216.00000000000003</ele><time>2026-04-18T08:40:12.344Z</time></trkpt><trkpt lat="43.5143136" lon="10.8644098"><ele>216.00000000000003</ele><time>2026-04-18T08:40:13.345Z</time></trkpt><trkpt lat="43.5143234" lon="10.864548"><ele>216.0</ele><time>2026-04-18T08:40:14.343Z</time></trkpt><trkpt lat="43.5143304" lon="10.8646971"><ele>216.0</ele><time>2026-04-18T08:40:15.344Z</time></trkpt><trkpt lat="43.5143403" lon="10.864845"><ele>217.8</ele><time>2026-04-18T08:40:16.343Z</time></trkpt><trkpt lat="43.5143517" lon="10.8649918"><ele>219.60000000000002</ele><time>2026-04-18T08:40:17.343Z</time></trkpt><trkpt lat="43.5143678" lon="10.8651357"><ele>221.4</ele><time>2026-04-18T08:40:18.344Z</time></trkpt><trkpt lat="43.514383" lon="10.8652634"><ele>223.2</ele><time>2026-04-18T08:40:19.343Z</time></trkpt><trkpt lat="43.5143961" lon="10.8653824"><ele>225.0</ele><time>2026-04-18T08:40:20.343Z</time></trkpt><trkpt lat="43.5144109" lon="10.8655017"><ele>227.0</ele><time>2026-04-18T08:40:21.344Z</time></trkpt><trkpt lat="43.5144219" lon="10.8656229"><ele>229.0</ele><time>2026-04-18T08:40:22.343Z</time></trkpt><trkpt lat="43.5144335" lon="10.8657495"><ele>231.0</ele><time>2026-04-18T08:40:23.345Z</time></trkpt><trkpt lat="43.5144481" lon="10.8658786"><ele>233.0</ele><time>2026-04-18T08:40:24.344Z</time></trkpt><trkpt lat="43.5144636" lon="10.8660161"><ele>235.0</ele><time>2026-04-18T08:40:25.345Z</time></trkpt><trkpt lat="43.5144865" lon="10.8661594"><ele>234.8</ele><time>2026-04-18T08:40:26.346Z</time></trkpt><trkpt lat="43.5145118" lon="10.8663017"><ele>234.6</ele><time>2026-04-18T08:40:27.343Z</time></trkpt><trkpt lat="43.5145402" lon="10.8664404"><ele>234.39999999999998</ele><time>2026-04-18T08:40:28.343Z</time></trkpt><trkpt lat="43.5145669" lon="10.8665733"><ele>234.2</ele><time>2026-04-18T08:40:29.344Z</time></trkpt><trkpt lat="43.5145811" lon="10.8667037"><ele>234.0</ele><time>2026-04-18T08:40:30.347Z</time></trkpt><trkpt lat="43.5145876" lon="10.8668311"><ele>234.0</ele><time>2026-04-18T08:40:31.341Z</time></trkpt><trkpt lat="43.5145901" lon="10.8669581"><ele>233.99999999999997</ele><time>2026-04-18T08:40:32.343Z</time></trkpt><trkpt lat="43.5145957" lon="10.8670819"><ele>233.99999999999997</ele><time>2026-04-18T08:40:33.342Z</time></trkpt><trkpt lat="43.5146133" lon="10.8672069"><ele>234.0</ele><time>2026-04-18T08:40:34.342Z</time></trkpt><trkpt lat="43.5146449" lon="10.8673378"><ele>234.0</ele><time>2026-04-18T08:40:35.343Z</time></trkpt><trkpt lat="43.5146872" lon="10.8674756"><ele>235.39999999999998</ele><time>2026-04-18T08:40:36.342Z</time></trkpt><trkpt lat="43.5147407" lon="10.8676174"><ele>236.79999999999998</ele><time>2026-04-18T08:40:37.342Z</time></trkpt><trkpt lat="43.514792" lon="10.8677563"><ele>238.20000000000002</ele><time>2026-04-18T08:40:38.343Z</time></trkpt><trkpt lat="43.5148465" lon="10.8678921"><ele>239.60000000000002</ele><time>2026-04-18T08:40:39.343Z</time></trkpt><trkpt lat="43.5149007" lon="10.8680102"><ele>241.0</ele><time>2026-04-18T08:40:40.343Z</time></trkpt><trkpt lat="43.5149507" lon="10.868106"><ele>240.99999999999997</ele><time>2026-04-18T08:40:41.342Z</time></trkpt><trkpt lat="43.5149968" lon="10.8681927"><ele>241.0</ele><time>2026-04-18T08:40:42.346Z</time></trkpt><trkpt lat="43.5150435" lon="10.8682785"><ele>241.0</ele><time>2026-04-18T08:40:43.344Z</time></trkpt><trkpt lat="43.5150905" lon="10.8683723"><ele>241.0</ele><time>2026-04-18T08:40:44.346Z</time></trkpt><trkpt lat="43.5151439" lon="10.8684709"><ele>240.99999999999997</ele><time>2026-04-18T08:40:45.439Z</time></trkpt><trkpt lat="43.5152025" lon="10.8685699"><ele>241.0</ele><time>2026-04-18T08:40:46.345Z</time></trkpt><trkpt lat="43.5152683" lon="10.8686805"><ele>240.0</ele><time>2026-04-18T08:40:47.342Z</time></trkpt><trkpt lat="43.5153382" lon="10.868795"><ele>239.0</ele><time>2026-04-18T08:40:48.342Z</time></trkpt><trkpt lat="43.5154131" lon="10.8689104"><ele>238.0</ele><time>2026-04-18T08:40:49.342Z</time></trkpt><trkpt lat="43.5154916" lon="10.8690242"><ele>237.0</ele><time>2026-04-18T08:40:50.342Z</time></trkpt><trkpt lat="43.5155762" lon="10.8691354"><ele>239.5</ele><time>2026-04-18T08:40:51.342Z</time></trkpt><trkpt lat="43.5156648" lon="10.8692469"><ele>242.0</ele><time>2026-04-18T08:40:52.342Z</time></trkpt><trkpt lat="43.5157518" lon="10.86936"><ele>244.5</ele><time>2026-04-18T08:40:53.342Z</time></trkpt><trkpt lat="43.5158382" lon="10.8694735"><ele>247.0</ele><time>2026-04-18T08:40:54.342Z</time></trkpt><trkpt lat="43.5159189" lon="10.8695831"><ele>248.39999999999998</ele><time>2026-04-18T08:40:55.342Z</time></trkpt><trkpt lat="43.5160012" lon="10.8696969"><ele>249.79999999999998</ele><time>2026-04-18T08:40:56.342Z</time></trkpt><trkpt lat="43.516073" lon="10.8698142"><ele>251.2</ele><time>2026-04-18T08:40:57.343Z</time></trkpt><trkpt lat="43.516148" lon="10.8699246"><ele>252.6</ele><time>2026-04-18T08:40:58.341Z</time></trkpt><trkpt lat="43.5162173" lon="10.8700326"><ele>254.0</ele><time>2026-04-18T08:40:59.342Z</time></trkpt><trkpt lat="43.5162706" lon="10.8701395"><ele>257.8571428571429</ele><time>2026-04-18T08:41:00.345Z</time></trkpt><trkpt lat="43.516302" lon="10.8702443"><ele>261.7142857142857</ele><time>2026-04-18T08:41:01.342Z</time></trkpt><trkpt lat="43.5163131" lon="10.8703423"><ele>265.57142857142856</ele><time>2026-04-18T08:41:02.342Z</time></trkpt><trkpt lat="43.5163118" lon="10.8704437"><ele>269.42857142857144</ele><time>2026-04-18T08:41:03.343Z</time></trkpt><trkpt lat="43.5163014" lon="10.8705428"><ele>273.2857142857143</ele><time>2026-04-18T08:41:04.343Z</time></trkpt><trkpt lat="43.5162906" lon="10.8706445"><ele>277.14285714285717</ele><time>2026-04-18T08:41:05.342Z</time></trkpt><trkpt lat="43.516285" lon="10.8707459"><ele>281.0</ele><time>2026-04-18T08:41:06.344Z</time></trkpt><trkpt lat="43.5162772" lon="10.8708345"><ele>282.0</ele><time>2026-04-18T08:41:07.341Z</time></trkpt><trkpt lat="43.5162373" lon="10.8709775"><ele>283.0</ele><time>2026-04-18T08:41:09.343Z</time></trkpt><trkpt lat="43.5161575" lon="10.8710451"><ele>284.0</ele><time>2026-04-18T08:41:11.343Z</time></trkpt><trkpt lat="43.5160795" lon="10.8710396"><ele>285.0</ele><time>2026-04-18T08:41:12.342Z</time></trkpt><trkpt lat="43.51599" lon="10.8710336"><ele>286.0</ele><time>2026-04-18T08:41:13.342Z</time></trkpt><trkpt lat="43.5159054" lon="10.8710449"><ele>286.0</ele><time>2026-04-18T08:41:14.342Z</time></trkpt><trkpt lat="43.5158233" lon="10.8710847"><ele>286.0</ele><time>2026-04-18T08:41:15.344Z</time></trkpt><trkpt lat="43.5157491" lon="10.871151"><ele>286.0</ele><time>2026-04-18T08:41:16.342Z</time></trkpt><trkpt lat="43.5156893" lon="10.8712399"><ele>286.0</ele><time>2026-04-18T08:41:17.342Z</time></trkpt><trkpt lat="43.5156481" lon="10.8713434"><ele>286.0</ele><time>2026-04-18T08:41:18.345Z</time></trkpt><trkpt lat="43.5156173" lon="10.8714591"><ele>286.0</ele><time>2026-04-18T08:41:19.346Z</time></trkpt><trkpt lat="43.5155943" lon="10.8715811"><ele>286.0</ele><time>2026-04-18T08:41:20.343Z</time></trkpt><trkpt lat="43.5155788" lon="10.8716989"><ele>286.0</ele><time>2026-04-18T08:41:21.342Z</time></trkpt><trkpt lat="43.5155642" lon="10.8718116"><ele>286.0</ele><time>2026-04-18T08:41:22.342Z</time></trkpt><trkpt lat="43.5155578" lon="10.8719134"><ele>286.0</ele><time>2026-04-18T08:41:23.342Z</time></trkpt><trkpt lat="43.5155805" lon="10.8720696"><ele>286.0</ele><time>2026-04-18T08:41:25.342Z</time></trkpt><trkpt lat="43.5156607" lon="10.8721315"><ele>287.66666666666663</ele><time>2026-04-18T08:41:27.343Z</time></trkpt><trkpt lat="43.5157274" lon="10.8721427"><ele>289.3333333333333</ele><time>2026-04-18T08:41:28.345Z</time></trkpt><trkpt lat="43.5158104" lon="10.8721484"><ele>291.0</ele><time>2026-04-18T08:41:29.343Z</time></trkpt><trkpt lat="43.5159048" lon="10.872158"><ele>292.6666666666667</ele><time>2026-04-18T08:41:30.344Z</time></trkpt><trkpt lat="43.5159932" lon="10.8721744"><ele>294.33333333333337</ele><time>2026-04-18T08:41:31.343Z</time></trkpt><trkpt lat="43.5160664" lon="10.8722016"><ele>296.0</ele><time>2026-04-18T08:41:32.343Z</time></trkpt><trkpt lat="43.516124" lon="10.8722403"><ele>296.0</ele><time>2026-04-18T08:41:33.346Z</time></trkpt><trkpt lat="43.5161852" lon="10.8723636"><ele>296.0</ele><time>2026-04-18T08:41:35.343Z</time></trkpt><trkpt lat="43.5161907" lon="10.8724619"><ele>296.0</ele><time>2026-04-18T08:41:36.343Z</time></trkpt><trkpt lat="43.5161995" lon="10.8725679"><ele>296.0</ele><time>2026-04-18T08:41:37.343Z</time></trkpt><trkpt lat="43.5162286" lon="10.872674"><ele>296.0</ele><time>2026-04-18T08:41:38.343Z</time></trkpt><trkpt lat="43.516262" lon="10.8727749"><ele>296.0</ele><time>2026-04-18T08:41:39.346Z</time></trkpt><trkpt lat="43.5163026" lon="10.8728656"><ele>300.0</ele><time>2026-04-18T08:41:40.343Z</time></trkpt><trkpt lat="43.5163475" lon="10.8729403"><ele>304.0</ele><time>2026-04-18T08:41:41.343Z</time></trkpt><trkpt lat="43.5163997" lon="10.8730663"><ele>308.0</ele><time>2026-04-18T08:41:43.343Z</time></trkpt><trkpt lat="43.5163828" lon="10.8731795"><ele>312.0</ele><time>2026-04-18T08:41:45.343Z</time></trkpt><trkpt lat="43.5163591" lon="10.8733592"><ele>316.0</ele><time>2026-04-18T08:41:47.346Z</time></trkpt><trkpt lat="43.516346" lon="10.8734794"><ele>316.8</ele><time>2026-04-18T08:41:48.343Z</time></trkpt><trkpt lat="43.516337" lon="10.873603"><ele>317.6</ele><time>2026-04-18T08:41:49.344Z</time></trkpt><trkpt lat="43.5163202" lon="10.8737272"><ele>318.4</ele><time>2026-04-18T08:41:50.344Z</time></trkpt><trkpt lat="43.5163066" lon="10.8738557"><ele>319.2</ele><time>2026-04-18T08:41:51.343Z</time></trkpt><trkpt lat="43.5162835" lon="10.8739888"><ele>320.0</ele><time>2026-04-18T08:41:52.343Z</time></trkpt><trkpt lat="43.5162508" lon="10.8741156"><ele>319.1666666666667</ele><time>2026-04-18T08:41:53.343Z</time></trkpt><trkpt lat="43.5162032" lon="10.8742281"><ele>318.33333333333337</ele><time>2026-04-18T08:41:54.343Z</time></trkpt><trkpt lat="43.5161549" lon="10.8743337"><ele>317.5</ele><time>2026-04-18T08:41:55.344Z</time></trkpt><trkpt lat="43.5160999" lon="10.8744328"><ele>316.6666666666667</ele><time>2026-04-18T08:41:56.343Z</time></trkpt><trkpt lat="43.5160495" lon="10.8745244"><ele>315.8333333333333</ele><time>2026-04-18T08:41:57.344Z</time></trkpt><trkpt lat="43.515999" lon="10.8745955"><ele>315.0</ele><time>2026-04-18T08:41:58.343Z</time></trkpt><trkpt lat="43.5159023" lon="10.8746686"><ele>315.0</ele><time>2026-04-18T08:42:00.344Z</time></trkpt><trkpt lat="43.5157883" lon="10.8747416"><ele>315.0</ele><time>2026-04-18T08:42:02.343Z</time></trkpt><trkpt lat="43.5157259" lon="10.8747878"><ele>315.0</ele><time>2026-04-18T08:42:03.343Z</time></trkpt><trkpt lat="43.5156637" lon="10.8748357"><ele>315.0</ele><time>2026-04-18T08:42:04.349Z</time></trkpt><trkpt lat="43.5155989" lon="10.8748903"><ele>315.0</ele><time>2026-04-18T08:42:05.343Z</time></trkpt><trkpt lat="43.515525" lon="10.8749482"><ele>315.0</ele><time>2026-04-18T08:42:06.343Z</time></trkpt><trkpt lat="43.5154507" lon="10.8750088"><ele>315.0</ele><time>2026-04-18T08:42:07.343Z</time></trkpt><trkpt lat="43.515387" lon="10.8750665"><ele>315.0</ele><time>2026-04-18T08:42:08.343Z</time></trkpt><trkpt lat="43.5153334" lon="10.8751199"><ele>315.0</ele><time>2026-04-18T08:42:09.345Z</time></trkpt><trkpt lat="43.5152403" lon="10.8752139"><ele>315.0</ele><time>2026-04-18T08:42:11.343Z</time></trkpt><trkpt lat="43.5151894" lon="10.8753382"><ele>315.0</ele><time>2026-04-18T08:42:13.343Z</time></trkpt><trkpt lat="43.5151714" lon="10.8754843"><ele>315.0</ele><time>2026-04-18T08:42:15.345Z</time></trkpt><trkpt lat="43.5151523" lon="10.8756414"><ele>315.0</ele><time>2026-04-18T08:42:17.344Z</time></trkpt><trkpt lat="43.5151321" lon="10.8757771"><ele>315.0</ele><time>2026-04-18T08:42:19.344Z</time></trkpt><trkpt lat="43.5151211" lon="10.8759003"><ele>315.0</ele><time>2026-04-18T08:42:21.343Z</time></trkpt><trkpt lat="43.515135" lon="10.8760005"><ele>315.0</ele><time>2026-04-18T08:42:24.344Z</time></trkpt><trkpt lat="43.5152423" lon="10.8760231"><ele>316.6666666666667</ele><time>2026-04-18T08:42:35.344Z</time></trkpt><trkpt lat="43.5153131" lon="10.8760315"><ele>318.3333333333333</ele><time>2026-04-18T08:42:36.345Z</time></trkpt><trkpt lat="43.5153838" lon="10.8760441"><ele>320.0</ele><time>2026-04-18T08:42:37.343Z</time></trkpt><trkpt lat="43.5154525" lon="10.8760611"><ele>321.66666666666663</ele><time>2026-04-18T08:42:38.344Z</time></trkpt><trkpt lat="43.5155182" lon="10.8760857"><ele>323.3333333333333</ele><time>2026-04-18T08:42:39.345Z</time></trkpt><trkpt lat="43.5155771" lon="10.8761262"><ele>325.0</ele><time>2026-04-18T08:42:40.344Z</time></trkpt><trkpt lat="43.5156783" lon="10.8762368"><ele>326.16666666666663</ele><time>2026-04-18T08:42:42.344Z</time></trkpt><trkpt lat="43.5157311" lon="10.8762852"><ele>327.3333333333333</ele><time>2026-04-18T08:42:43.344Z</time></trkpt><trkpt lat="43.5157903" lon="10.8763197"><ele>328.5</ele><time>2026-04-18T08:42:44.344Z</time></trkpt><trkpt lat="43.5158614" lon="10.8763357"><ele>329.6666666666667</ele><time>2026-04-18T08:42:45.344Z</time></trkpt><trkpt lat="43.5159435" lon="10.8763388"><ele>330.83333333333337</ele><time>2026-04-18T08:42:46.343Z</time></trkpt><trkpt lat="43.5160265" lon="10.8763234"><ele>332.0</ele><time>2026-04-18T08:42:47.346Z</time></trkpt><trkpt lat="43.5161123" lon="10.8762915"><ele>332.0</ele><time>2026-04-18T08:42:48.345Z</time></trkpt><trkpt lat="43.5162019" lon="10.876242"><ele>332.0</ele><time>2026-04-18T08:42:49.346Z</time></trkpt><trkpt lat="43.516297" lon="10.8761844"><ele>332.0</ele><time>2026-04-18T08:42:50.343Z</time></trkpt><trkpt lat="43.5163955" lon="10.8761255"><ele>332.0</ele><time>2026-04-18T08:42:51.345Z</time></trkpt><trkpt lat="43.5164959" lon="10.8760671"><ele>332.0</ele><time>2026-04-18T08:42:52.346Z</time></trkpt><trkpt lat="43.5165946" lon="10.8760087"><ele>332.6</ele><time>2026-04-18T08:42:53.344Z</time></trkpt><trkpt lat="43.5166913" lon="10.8759487"><ele>333.20000000000005</ele><time>2026-04-18T08:42:54.344Z</time></trkpt><trkpt lat="43.5167861" lon="10.875883"><ele>333.8</ele><time>2026-04-18T08:42:55.346Z</time></trkpt><trkpt lat="43.5168721" lon="10.8757973"><ele>334.4</ele><time>2026-04-18T08:42:56.347Z</time></trkpt><trkpt lat="43.5169383" lon="10.8756846"><ele>335.0</ele><time>2026-04-18T08:42:57.347Z</time></trkpt><trkpt lat="43.5169815" lon="10.8755584"><ele>335.0</ele><time>2026-04-18T08:42:58.343Z</time></trkpt><trkpt lat="43.5170187" lon="10.8754209"><ele>335.0</ele><time>2026-04-18T08:42:59.344Z</time></trkpt><trkpt lat="43.517059" lon="10.875286"><ele>335.0</ele><time>2026-04-18T08:43:00.343Z</time></trkpt><trkpt lat="43.5171083" lon="10.8751658"><ele>335.0</ele><time>2026-04-18T08:43:01.344Z</time></trkpt><trkpt lat="43.517165" lon="10.8750623"><ele>335.0</ele><time>2026-04-18T08:43:02.344Z</time></trkpt><trkpt lat="43.5172212" lon="10.8749842"><ele>336.5</ele><time>2026-04-18T08:43:03.346Z</time></trkpt><trkpt lat="43.5172866" lon="10.8749218"><ele>338.0</ele><time>2026-04-18T08:43:04.343Z</time></trkpt><trkpt lat="43.5173529" lon="10.8748786"><ele>339.5</ele><time>2026-04-18T08:43:05.345Z</time></trkpt><trkpt lat="43.5174228" lon="10.8748478"><ele>341.0</ele><time>2026-04-18T08:43:06.343Z</time></trkpt><trkpt lat="43.5174977" lon="10.8748289"><ele>342.5</ele><time>2026-04-18T08:43:07.345Z</time></trkpt><trkpt lat="43.5175706" lon="10.8748187"><ele>344.0</ele><time>2026-04-18T08:43:08.344Z</time></trkpt><trkpt lat="43.517661" lon="10.8748035"><ele>344.0</ele><time>2026-04-18T08:43:10.344Z</time></trkpt><trkpt lat="43.5177567" lon="10.8747516"><ele>344.0</ele><time>2026-04-18T08:51:55.343Z</time></trkpt><trkpt lat="43.5178642" lon="10.8747444"><ele>344.0</ele><time>2026-04-18T08:51:57.346Z</time></trkpt><trkpt lat="43.5179498" lon="10.8747359"><ele>344.0</ele><time>2026-04-18T08:51:58.343Z</time></trkpt><trkpt lat="43.5180484" lon="10.8747284"><ele>344.0</ele><time>2026-04-18T08:51:59.343Z</time></trkpt><trkpt lat="43.5181471" lon="10.8747145"><ele>345.33333333333337</ele><time>2026-04-18T08:52:00.343Z</time></trkpt><trkpt lat="43.5182408" lon="10.874721"><ele>346.6666666666667</ele><time>2026-04-18T08:52:01.343Z</time></trkpt><trkpt lat="43.5183391" lon="10.8747335"><ele>348.0</ele><time>2026-04-18T08:52:02.345Z</time></trkpt><trkpt lat="43.5184326" lon="10.8747476"><ele>349.3333333333333</ele><time>2026-04-18T08:52:03.343Z</time></trkpt><trkpt lat="43.5185138" lon="10.8747667"><ele>350.66666666666663</ele><time>2026-04-18T08:52:04.344Z</time></trkpt><trkpt lat="43.5185907" lon="10.8747879"><ele>352.0</ele><time>2026-04-18T08:52:05.342Z</time></trkpt><trkpt lat="43.518673" lon="10.8748005"><ele>350.6</ele><time>2026-04-18T08:52:06.344Z</time></trkpt><trkpt lat="43.5187596" lon="10.8748137"><ele>349.20000000000005</ele><time>2026-04-18T08:52:07.343Z</time></trkpt><trkpt lat="43.5188553" lon="10.8748263"><ele>347.8</ele><time>2026-04-18T08:52:08.343Z</time></trkpt><trkpt lat="43.5189449" lon="10.8748463"><ele>346.4</ele><time>2026-04-18T08:52:09.345Z</time></trkpt><trkpt lat="43.5190371" lon="10.8748707"><ele>345.0</ele><time>2026-04-18T08:52:10.342Z</time></trkpt><trkpt lat="43.5191288" lon="10.8749247"><ele>345.0</ele><time>2026-04-18T08:52:11.342Z</time></trkpt><trkpt lat="43.5192092" lon="10.87502"><ele>345.0</ele><time>2026-04-18T08:52:12.343Z</time></trkpt><trkpt lat="43.519271" lon="10.8751574"><ele>345.0</ele><time>2026-04-18T08:52:13.343Z</time></trkpt><trkpt lat="43.5193181" lon="10.8753079"><ele>345.0</ele><time>2026-04-18T08:52:14.345Z</time></trkpt><trkpt lat="43.51936" lon="10.8754597"><ele>346.6</ele><time>2026-04-18T08:52:15.344Z</time></trkpt><trkpt lat="43.5194032" lon="10.8756036"><ele>348.2</ele><time>2026-04-18T08:52:16.343Z</time></trkpt><trkpt lat="43.5194555" lon="10.8757411"><ele>349.79999999999995</ele><time>2026-04-18T08:52:17.343Z</time></trkpt><trkpt lat="43.5195206" lon="10.8758632"><ele>351.4</ele><time>2026-04-18T08:52:18.343Z</time></trkpt><trkpt lat="43.5195963" lon="10.8759624"><ele>353.0</ele><time>2026-04-18T08:52:19.342Z</time></trkpt><trkpt lat="43.5196777" lon="10.8760468"><ele>349.0</ele><time>2026-04-18T08:52:20.343Z</time></trkpt><trkpt lat="43.5197544" lon="10.8761296"><ele>345.0</ele><time>2026-04-18T08:52:21.344Z</time></trkpt><trkpt lat="43.5198289" lon="10.8762139"><ele>341.0</ele><time>2026-04-18T08:52:22.342Z</time></trkpt><trkpt lat="43.5198864" lon="10.8763195"><ele>337.0</ele><time>2026-04-18T08:52:23.343Z</time></trkpt><trkpt lat="43.5199126" lon="10.8764584"><ele>333.0</ele><time>2026-04-18T08:52:24.342Z</time></trkpt><trkpt lat="43.5199303" lon="10.8766176"><ele>335.25</ele><time>2026-04-18T08:52:25.343Z</time></trkpt><trkpt lat="43.5199461" lon="10.8768038"><ele>337.5</ele><time>2026-04-18T08:52:26.343Z</time></trkpt><trkpt lat="43.5199651" lon="10.876991"><ele>339.75</ele><time>2026-04-18T08:52:27.344Z</time></trkpt><trkpt lat="43.5199827" lon="10.8771768"><ele>342.0</ele><time>2026-04-18T08:52:28.342Z</time></trkpt><trkpt lat="43.5200084" lon="10.8773645"><ele>342.0</ele><time>2026-04-18T08:52:29.342Z</time></trkpt><trkpt lat="43.520041" lon="10.8775471"><ele>342.0</ele><time>2026-04-18T08:52:30.344Z</time></trkpt><trkpt lat="43.5200692" lon="10.877736"><ele>342.0</ele><time>2026-04-18T08:52:31.343Z</time></trkpt><trkpt lat="43.5200998" lon="10.8779217"><ele>342.0</ele><time>2026-04-18T08:52:32.343Z</time></trkpt><trkpt lat="43.52014" lon="10.8780888"><ele>343.0</ele><time>2026-04-18T08:52:33.343Z</time></trkpt><trkpt lat="43.520178" lon="10.8782546"><ele>344.0</ele><time>2026-04-18T08:52:34.342Z</time></trkpt><trkpt lat="43.5202075" lon="10.8784059"><ele>345.0</ele><time>2026-04-18T08:52:35.344Z</time></trkpt><trkpt lat="43.5202157" lon="10.8785407"><ele>346.0</ele><time>2026-04-18T08:52:36.343Z</time></trkpt><trkpt lat="43.5202118" lon="10.8786704"><ele>347.0</ele><time>2026-04-18T08:52:37.344Z</time></trkpt><trkpt lat="43.5202025" lon="10.878799"><ele>344.8</ele><time>2026-04-18T08:52:38.343Z</time></trkpt><trkpt lat="43.5201683" lon="10.8789204"><ele>342.6</ele><time>2026-04-18T08:52:39.343Z</time></trkpt><trkpt lat="43.5201154" lon="10.879035"><ele>340.40000000000003</ele><time>2026-04-18T08:52:40.343Z</time></trkpt><trkpt lat="43.5200436" lon="10.8791273"><ele>338.20000000000005</ele><time>2026-04-18T08:52:41.343Z</time></trkpt><trkpt lat="43.5199651" lon="10.8791924"><ele>336.0</ele><time>2026-04-18T08:52:42.343Z</time></trkpt><trkpt lat="43.5198826" lon="10.8792327"><ele>336.0</ele><time>2026-04-18T08:52:43.343Z</time></trkpt><trkpt lat="43.5197974" lon="10.8792411"><ele>336.0</ele><time>2026-04-18T08:52:44.343Z</time></trkpt><trkpt lat="43.519692" lon="10.8792294"><ele>336.0</ele><time>2026-04-18T08:52:45.344Z</time></trkpt><trkpt lat="43.5195708" lon="10.8792026"><ele>336.0</ele><time>2026-04-18T08:52:46.343Z</time></trkpt><trkpt lat="43.5194541" lon="10.879181"><ele>336.0</ele><time>2026-04-18T08:52:47.343Z</time></trkpt><trkpt lat="43.5193474" lon="10.879172"><ele>337.0</ele><time>2026-04-18T08:52:48.344Z</time></trkpt><trkpt lat="43.5192466" lon="10.8791688"><ele>338.0</ele><time>2026-04-18T08:52:49.342Z</time></trkpt><trkpt lat="43.5191536" lon="10.8791924"><ele>339.0</ele><time>2026-04-18T08:52:50.345Z</time></trkpt><trkpt lat="43.5190696" lon="10.8792453"><ele>340.0</ele><time>2026-04-18T08:52:51.344Z</time></trkpt><trkpt lat="43.5190035" lon="10.8793204"><ele>341.0</ele><time>2026-04-18T08:52:52.342Z</time></trkpt><trkpt lat="43.5189657" lon="10.8794385"><ele>341.0</ele><time>2026-04-18T08:52:53.344Z</time></trkpt><trkpt lat="43.5189422" lon="10.8795425"><ele>341.0</ele><time>2026-04-18T08:52:54.343Z</time></trkpt><trkpt lat="43.5189486" lon="10.8796434"><ele>341.0</ele><time>2026-04-18T08:52:55.344Z</time></trkpt><trkpt lat="43.5189721" lon="10.8797409"><ele>341.0</ele><time>2026-04-18T08:52:56.343Z</time></trkpt><trkpt lat="43.5190305" lon="10.8798034"><ele>341.0</ele><time>2026-04-18T08:52:57.343Z</time></trkpt><trkpt lat="43.5191143" lon="10.8798441"><ele>341.0</ele><time>2026-04-18T08:52:58.342Z</time></trkpt><trkpt lat="43.5192151" lon="10.8798781"><ele>341.0</ele><time>2026-04-18T08:52:59.342Z</time></trkpt><trkpt lat="43.5193393" lon="10.8799207"><ele>341.0</ele><time>2026-04-18T08:53:00.342Z</time></trkpt><trkpt lat="43.5194348" lon="10.8800009"><ele>341.0</ele><time>2026-04-18T08:53:01.341Z</time></trkpt><trkpt lat="43.5195236" lon="10.8800759"><ele>341.0</ele><time>2026-04-18T08:53:02.342Z</time></trkpt><trkpt lat="43.5195787" lon="10.8801553"><ele>341.0</ele><time>2026-04-18T08:53:03.341Z</time></trkpt><trkpt lat="43.5196124" lon="10.8802491"><ele>340.8</ele><time>2026-04-18T08:53:04.343Z</time></trkpt><trkpt lat="43.519616" lon="10.8803589"><ele>340.6</ele><time>2026-04-18T08:53:05.342Z</time></trkpt><trkpt lat="43.5196113" lon="10.8804889"><ele>340.4</ele><time>2026-04-18T08:53:06.342Z</time></trkpt><trkpt lat="43.5195976" lon="10.8806488"><ele>340.2</ele><time>2026-04-18T08:53:07.342Z</time></trkpt><trkpt lat="43.5195962" lon="10.8808158"><ele>340.0</ele><time>2026-04-18T08:53:08.343Z</time></trkpt><trkpt lat="43.5196028" lon="10.8809673"><ele>340.0</ele><time>2026-04-18T08:53:09.342Z</time></trkpt><trkpt lat="43.5196112" lon="10.8811252"><ele>340.0</ele><time>2026-04-18T08:53:10.342Z</time></trkpt><trkpt lat="43.5196023" lon="10.8812955"><ele>340.0</ele><time>2026-04-18T08:53:11.343Z</time></trkpt><trkpt lat="43.5195836" lon="10.8814638"><ele>340.0</ele><time>2026-04-18T08:53:12.342Z</time></trkpt><trkpt lat="43.5195565" lon="10.8816269"><ele>342.25</ele><time>2026-04-18T08:53:13.342Z</time></trkpt><trkpt lat="43.5195304" lon="10.8817894"><ele>344.5</ele><time>2026-04-18T08:53:14.343Z</time></trkpt><trkpt lat="43.5195194" lon="10.8819454"><ele>346.75</ele><time>2026-04-18T08:53:15.342Z</time></trkpt><trkpt lat="43.5195352" lon="10.8820958"><ele>349.0</ele><time>2026-04-18T08:53:16.342Z</time></trkpt><trkpt lat="43.519572" lon="10.882246"><ele>349.0</ele><time>2026-04-18T08:53:17.342Z</time></trkpt><trkpt lat="43.5196275" lon="10.8823959"><ele>349.0</ele><time>2026-04-18T08:53:18.342Z</time></trkpt><trkpt lat="43.5196944" lon="10.88254"><ele>349.0</ele><time>2026-04-18T08:53:19.343Z</time></trkpt><trkpt lat="43.519765" lon="10.8826678"><ele>349.0</ele><time>2026-04-18T08:53:20.343Z</time></trkpt><trkpt lat="43.5198465" lon="10.8827768"><ele>351.4</ele><time>2026-04-18T08:53:21.343Z</time></trkpt><trkpt lat="43.519931" lon="10.8828666"><ele>353.79999999999995</ele><time>2026-04-18T08:53:22.342Z</time></trkpt><trkpt lat="43.5200164" lon="10.8829439"><ele>356.20000000000005</ele><time>2026-04-18T08:53:23.343Z</time></trkpt><trkpt lat="43.5201109" lon="10.883016"><ele>358.6</ele><time>2026-04-18T08:53:24.342Z</time></trkpt><trkpt lat="43.5202098" lon="10.8830824"><ele>361.0</ele><time>2026-04-18T08:53:25.343Z</time></trkpt><trkpt lat="43.5203131" lon="10.8831373"><ele>360.0</ele><time>2026-04-18T08:53:26.341Z</time></trkpt><trkpt lat="43.5204137" lon="10.8831686"><ele>359.0</ele><time>2026-04-18T08:53:27.341Z</time></trkpt><trkpt lat="43.5205194" lon="10.8831738"><ele>358.0</ele><time>2026-04-18T08:53:28.344Z</time></trkpt><trkpt lat="43.5206119" lon="10.8831496"><ele>357.0</ele><time>2026-04-18T08:53:29.343Z</time></trkpt><trkpt lat="43.5207086" lon="10.8831221"><ele>356.0</ele><time>2026-04-18T08:53:30.343Z</time></trkpt><trkpt lat="43.5208161" lon="10.8831039"><ele>356.0</ele><time>2026-04-18T08:53:31.343Z</time></trkpt><trkpt lat="43.52092" lon="10.883121"><ele>356.0</ele><time>2026-04-18T08:53:32.342Z</time></trkpt><trkpt lat="43.5210267" lon="10.8831699"><ele>356.0</ele><time>2026-04-18T08:53:33.342Z</time></trkpt><trkpt lat="43.5211231" lon="10.8832364"><ele>356.0</ele><time>2026-04-18T08:53:34.341Z</time></trkpt><trkpt lat="43.5212082" lon="10.8833075"><ele>356.0</ele><time>2026-04-18T08:53:35.343Z</time></trkpt><trkpt lat="43.5212804" lon="10.8834007"><ele>353.20000000000005</ele><time>2026-04-18T08:53:36.342Z</time></trkpt><trkpt lat="43.5213336" lon="10.8835067"><ele>350.40000000000003</ele><time>2026-04-18T08:53:37.342Z</time></trkpt><trkpt lat="43.521373" lon="10.8836259"><ele>347.6</ele><time>2026-04-18T08:53:38.342Z</time></trkpt><trkpt lat="43.5213907" lon="10.8837576"><ele>344.8</ele><time>2026-04-18T08:53:39.342Z</time></trkpt><trkpt lat="43.5213881" lon="10.8838816"><ele>342.0</ele><time>2026-04-18T08:53:40.342Z</time></trkpt><trkpt lat="43.5213722" lon="10.8839942"><ele>342.0</ele><time>2026-04-18T08:53:41.343Z</time></trkpt><trkpt lat="43.5213426" lon="10.8840907"><ele>342.0</ele><time>2026-04-18T08:53:42.343Z</time></trkpt><trkpt lat="43.5212721" lon="10.8842109"><ele>342.0</ele><time>2026-04-18T08:53:43.342Z</time></trkpt><trkpt lat="43.5212155" lon="10.884337"><ele>342.0</ele><time>2026-04-18T08:53:44.342Z</time></trkpt><trkpt lat="43.5211802" lon="10.88448"><ele>342.0</ele><time>2026-04-18T08:53:45.342Z</time></trkpt><trkpt lat="43.5211813" lon="10.8846297"><ele>343.25</ele><time>2026-04-18T08:53:46.343Z</time></trkpt><trkpt lat="43.5211997" lon="10.8847973"><ele>344.5</ele><time>2026-04-18T08:53:47.342Z</time></trkpt><trkpt lat="43.5212374" lon="10.884973"><ele>345.75</ele><time>2026-04-18T08:53:48.343Z</time></trkpt><trkpt lat="43.5212949" lon="10.885152"><ele>347.0</ele><time>2026-04-18T08:53:49.343Z</time></trkpt><trkpt lat="43.5213682" lon="10.8853309"><ele>350.33333333333337</ele><time>2026-04-18T08:53:50.343Z</time></trkpt><trkpt lat="43.5214582" lon="10.8855008"><ele>353.6666666666667</ele><time>2026-04-18T08:53:51.343Z</time></trkpt><trkpt lat="43.5215546" lon="10.8856722"><ele>357.0</ele><time>2026-04-18T08:53:52.342Z</time></trkpt><trkpt lat="43.5216522" lon="10.8858494"><ele>361.3333333333333</ele><time>2026-04-18T08:53:53.342Z</time></trkpt><trkpt lat="43.5217465" lon="10.8860323"><ele>365.66666666666663</ele><time>2026-04-18T08:53:54.344Z</time></trkpt><trkpt lat="43.5218281" lon="10.8862278"><ele>370.0</ele><time>2026-04-18T08:53:55.342Z</time></trkpt><trkpt lat="43.5219075" lon="10.886427"><ele>370.0</ele><time>2026-04-18T08:53:56.343Z</time></trkpt><trkpt lat="43.5219881" lon="10.8866317"><ele>370.0</ele><time>2026-04-18T08:53:57.344Z</time></trkpt><trkpt lat="43.5220699" lon="10.8868382"><ele>370.0</ele><time>2026-04-18T08:53:58.343Z</time></trkpt><trkpt lat="43.5221465" lon="10.8870458"><ele>370.5</ele><time>2026-04-18T08:53:59.344Z</time></trkpt><trkpt lat="43.5222191" lon="10.8872438"><ele>371.0</ele><time>2026-04-18T08:54:00.342Z</time></trkpt><trkpt lat="43.5222881" lon="10.8874219"><ele>371.5</ele><time>2026-04-18T08:54:01.343Z</time></trkpt><trkpt lat="43.522343" lon="10.8875858"><ele>372.0</ele><time>2026-04-18T08:54:02.342Z</time></trkpt><trkpt lat="43.5223811" lon="10.8877594"><ele>372.0</ele><time>2026-04-18T08:54:03.343Z</time></trkpt><trkpt lat="43.5223998" lon="10.8879477"><ele>372.0</ele><time>2026-04-18T08:54:04.341Z</time></trkpt><trkpt lat="43.5224049" lon="10.8881332"><ele>372.0</ele><time>2026-04-18T08:54:05.342Z</time></trkpt><trkpt lat="43.5224004" lon="10.8883202"><ele>372.0</ele><time>2026-04-18T08:54:06.344Z</time></trkpt><trkpt lat="43.5223856" lon="10.888516"><ele>374.6666666666667</ele><time>2026-04-18T08:54:07.342Z</time></trkpt><trkpt lat="43.5223579" lon="10.8887206"><ele>377.33333333333337</ele><time>2026-04-18T08:54:08.342Z</time></trkpt><trkpt lat="43.5223358" lon="10.8889283"><ele>380.0</ele><time>2026-04-18T08:54:09.343Z</time></trkpt><trkpt lat="43.522314" lon="10.8891356"><ele>382.6666666666667</ele><time>2026-04-18T08:54:10.342Z</time></trkpt><trkpt lat="43.522292" lon="10.8893469"><ele>385.33333333333337</ele><time>2026-04-18T08:54:11.343Z</time></trkpt><trkpt lat="43.522272" lon="10.8895636"><ele>388.0</ele><time>2026-04-18T08:54:12.342Z</time></trkpt><trkpt lat="43.5222536" lon="10.8897736"><ele>388.0</ele><time>2026-04-18T08:54:13.343Z</time></trkpt><trkpt lat="43.5222337" lon="10.8899793"><ele>388.0</ele><time>2026-04-18T08:54:14.343Z</time></trkpt><trkpt lat="43.5222195" lon="10.8901794"><ele>388.0</ele><time>2026-04-18T08:54:15.344Z</time></trkpt><trkpt lat="43.5222199" lon="10.8903718"><ele>388.0</ele><time>2026-04-18T08:54:16.343Z</time></trkpt><trkpt lat="43.5222434" lon="10.8905652"><ele>389.33333333333337</ele><time>2026-04-18T08:54:17.343Z</time></trkpt><trkpt lat="43.5222881" lon="10.8907647"><ele>390.66666666666663</ele><time>2026-04-18T08:54:18.343Z</time></trkpt><trkpt lat="43.5223399" lon="10.8909651"><ele>392.0</ele><time>2026-04-18T08:54:19.342Z</time></trkpt><trkpt lat="43.5223992" lon="10.8911621"><ele>393.0</ele><time>2026-04-18T08:54:20.343Z</time></trkpt><trkpt lat="43.5224614" lon="10.8913585"><ele>394.0</ele><time>2026-04-18T08:54:21.342Z</time></trkpt><trkpt lat="43.5225207" lon="10.8915465"><ele>395.0</ele><time>2026-04-18T08:54:22.342Z</time></trkpt><trkpt lat="43.5225751" lon="10.8917308"><ele>396.0</ele><time>2026-04-18T08:54:23.342Z</time></trkpt><trkpt lat="43.5226292" lon="10.8919035"><ele>397.5</ele><time>2026-04-18T08:54:24.342Z</time></trkpt><trkpt lat="43.5226853" lon="10.8920735"><ele>399.0</ele><time>2026-04-18T08:54:25.343Z</time></trkpt><trkpt lat="43.5227414" lon="10.8922432"><ele>400.5</ele><time>2026-04-18T08:54:26.343Z</time></trkpt><trkpt lat="43.5227991" lon="10.8924193"><ele>402.0</ele><time>2026-04-18T08:54:27.343Z</time></trkpt><trkpt lat="43.5228549" lon="10.8925997"><ele>401.5</ele><time>2026-04-18T08:54:28.342Z</time></trkpt><trkpt lat="43.5229075" lon="10.8927809"><ele>401.0</ele><time>2026-04-18T08:54:29.342Z</time></trkpt><trkpt lat="43.5229594" lon="10.8929619"><ele>400.5</ele><time>2026-04-18T08:54:30.343Z</time></trkpt><trkpt lat="43.5230174" lon="10.8931448"><ele>400.0</ele><time>2026-04-18T08:54:31.343Z</time></trkpt><trkpt lat="43.5230778" lon="10.8933259"><ele>402.0</ele><time>2026-04-18T08:54:32.343Z</time></trkpt><trkpt lat="43.5231353" lon="10.8935041"><ele>404.0</ele><time>2026-04-18T08:54:33.343Z</time></trkpt><trkpt lat="43.5231887" lon="10.8936768"><ele>406.0</ele><time>2026-04-18T08:54:34.344Z</time></trkpt><trkpt lat="43.5232374" lon="10.893844"><ele>408.0</ele><time>2026-04-18T08:54:35.344Z</time></trkpt><trkpt lat="43.5232877" lon="10.8939982"><ele>408.0</ele><time>2026-04-18T08:54:36.345Z</time></trkpt><trkpt lat="43.5233399" lon="10.8941422"><ele>408.0</ele><time>2026-04-18T08:54:37.344Z</time></trkpt><trkpt lat="43.5233992" lon="10.8942929"><ele>408.0</ele><time>2026-04-18T08:54:38.343Z</time></trkpt><trkpt lat="43.5234587" lon="10.8944454"><ele>408.0</ele><time>2026-04-18T08:54:39.343Z</time></trkpt><trkpt lat="43.5235207" lon="10.8945952"><ele>407.75</ele><time>2026-04-18T08:54:40.343Z</time></trkpt><trkpt lat="43.5235868" lon="10.8947398"><ele>407.5</ele><time>2026-04-18T08:54:41.342Z</time></trkpt><trkpt lat="43.5236485" lon="10.8948729"><ele>407.25</ele><time>2026-04-18T08:54:42.342Z</time></trkpt><trkpt lat="43.5237052" lon="10.8950023"><ele>407.0</ele><time>2026-04-18T08:54:43.343Z</time></trkpt><trkpt lat="43.5237602" lon="10.8951373"><ele>407.0</ele><time>2026-04-18T08:54:44.344Z</time></trkpt><trkpt lat="43.5238074" lon="10.8952781"><ele>407.0</ele><time>2026-04-18T08:54:45.347Z</time></trkpt><trkpt lat="43.5238441" lon="10.8954192"><ele>407.0</ele><time>2026-04-18T08:54:46.342Z</time></trkpt><trkpt lat="43.5238743" lon="10.8955602"><ele>407.0</ele><time>2026-04-18T08:54:47.342Z</time></trkpt><trkpt lat="43.5239035" lon="10.8957064"><ele>407.0</ele><time>2026-04-18T08:54:48.343Z</time></trkpt><trkpt lat="43.5239355" lon="10.8958591"><ele>408.25</ele><time>2026-04-18T08:54:49.342Z</time></trkpt><trkpt lat="43.5239702" lon="10.8960202"><ele>409.5</ele><time>2026-04-18T08:54:50.343Z</time></trkpt><trkpt lat="43.524008" lon="10.8961919"><ele>410.75</ele><time>2026-04-18T08:54:51.343Z</time></trkpt><trkpt lat="43.5240481" lon="10.8963766"><ele>412.0</ele><time>2026-04-18T08:54:52.342Z</time></trkpt><trkpt lat="43.5240935" lon="10.8965677"><ele>412.25</ele><time>2026-04-18T08:54:53.345Z</time></trkpt><trkpt lat="43.5241389" lon="10.8967617"><ele>412.5</ele><time>2026-04-18T08:54:54.346Z</time></trkpt><trkpt lat="43.5241789" lon="10.8969568"><ele>412.75</ele><time>2026-04-18T08:54:55.342Z</time></trkpt><trkpt lat="43.5242226" lon="10.8971446"><ele>413.0</ele><time>2026-04-18T08:54:56.345Z</time></trkpt><trkpt lat="43.5242568" lon="10.8973212"><ele>413.0</ele><time>2026-04-18T08:54:57.343Z</time></trkpt><trkpt lat="43.5243007" lon="10.8974704"><ele>413.0</ele><time>2026-04-18T08:54:58.342Z</time></trkpt><trkpt lat="43.5243351" lon="10.8976116"><ele>413.0</ele><time>2026-04-18T08:54:59.342Z</time></trkpt><trkpt lat="43.5243613" lon="10.8977396"><ele>413.0</ele><time>2026-04-18T08:55:00.344Z</time></trkpt><trkpt lat="43.5243842" lon="10.8978564"><ele>413.0</ele><time>2026-04-18T08:55:01.342Z</time></trkpt><trkpt lat="43.5244009" lon="10.8979525"><ele>414.0</ele><time>2026-04-18T08:55:02.343Z</time></trkpt><trkpt lat="43.5244118" lon="10.8980947"><ele>415.0</ele><time>2026-04-18T08:55:04.341Z</time></trkpt><trkpt lat="43.5243915" lon="10.898201"><ele>416.0</ele><time>2026-04-18T08:55:06.342Z</time></trkpt><trkpt lat="43.5242996" lon="10.8983284"><ele>417.0</ele><time>2026-04-18T08:55:08.343Z</time></trkpt><trkpt lat="43.5242321" lon="10.8984071"><ele>418.0</ele><time>2026-04-18T08:55:09.343Z</time></trkpt><trkpt lat="43.524157" lon="10.8984903"><ele>420.5</ele><time>2026-04-18T08:55:10.342Z</time></trkpt><trkpt lat="43.5240789" lon="10.8985773"><ele>423.0</ele><time>2026-04-18T08:55:11.343Z</time></trkpt><trkpt lat="43.5239872" lon="10.8986713"><ele>425.5</ele><time>2026-04-18T08:55:12.343Z</time></trkpt><trkpt lat="43.5238904" lon="10.8987727"><ele>428.0</ele><time>2026-04-18T08:55:13.342Z</time></trkpt><trkpt lat="43.523793" lon="10.8988752"><ele>427.5</ele><time>2026-04-18T08:55:14.344Z</time></trkpt><trkpt lat="43.5236872" lon="10.8989799"><ele>427.0</ele><time>2026-04-18T08:55:15.343Z</time></trkpt><trkpt lat="43.5235712" lon="10.8990896"><ele>426.5</ele><time>2026-04-18T08:55:16.342Z</time></trkpt><trkpt lat="43.5234622" lon="10.8991991"><ele>426.0</ele><time>2026-04-18T08:55:17.342Z</time></trkpt><trkpt lat="43.5233435" lon="10.8992955"><ele>426.0</ele><time>2026-04-18T08:55:18.343Z</time></trkpt><trkpt lat="43.5232182" lon="10.899389"><ele>426.0</ele><time>2026-04-18T08:55:19.342Z</time></trkpt><trkpt lat="43.5230911" lon="10.8994723"><ele>426.0</ele><time>2026-04-18T08:55:20.342Z</time></trkpt><trkpt lat="43.5229578" lon="10.899545"><ele>426.0</ele><time>2026-04-18T08:55:21.343Z</time></trkpt><trkpt lat="43.5228124" lon="10.8996155"><ele>426.66666666666663</ele><time>2026-04-18T08:55:22.342Z</time></trkpt><trkpt lat="43.5226613" lon="10.8996874"><ele>427.3333333333333</ele><time>2026-04-18T08:55:23.342Z</time></trkpt><trkpt lat="43.5225002" lon="10.8997571"><ele>428.0</ele><time>2026-04-18T08:55:24.343Z</time></trkpt><trkpt lat="43.5223451" lon="10.8998267"><ele>428.0</ele><time>2026-04-18T08:55:25.344Z</time></trkpt><trkpt lat="43.5221962" lon="10.8999041"><ele>428.0</ele><time>2026-04-18T08:55:26.342Z</time></trkpt><trkpt lat="43.5220555" lon="10.8999964"><ele>428.0</ele><time>2026-04-18T08:55:27.343Z</time></trkpt><trkpt lat="43.5218968" lon="10.900114"><ele>429.66666666666663</ele><time>2026-04-18T08:55:28.343Z</time></trkpt><trkpt lat="43.5217438" lon="10.9002466"><ele>431.33333333333337</ele><time>2026-04-18T08:55:29.343Z</time></trkpt><trkpt lat="43.5216095" lon="10.9003791"><ele>433.0</ele><time>2026-04-18T08:55:30.343Z</time></trkpt><trkpt lat="43.5214798" lon="10.9005211"><ele>433.0</ele><time>2026-04-18T08:55:31.343Z</time></trkpt><trkpt lat="43.5213487" lon="10.9006634"><ele>433.0</ele><time>2026-04-18T08:55:32.343Z</time></trkpt><trkpt lat="43.5212042" lon="10.9008113"><ele>433.0</ele><time>2026-04-18T08:55:33.344Z</time></trkpt><trkpt lat="43.5210547" lon="10.9009756"><ele>435.0</ele><time>2026-04-18T08:55:34.343Z</time></trkpt><trkpt lat="43.5209012" lon="10.9011451"><ele>437.0</ele><time>2026-04-18T08:55:35.343Z</time></trkpt><trkpt lat="43.5207445" lon="10.9013213"><ele>439.0</ele><time>2026-04-18T08:55:36.344Z</time></trkpt><trkpt lat="43.5205843" lon="10.9015029"><ele>439.0</ele><time>2026-04-18T08:55:37.342Z</time></trkpt><trkpt lat="43.5204166" lon="10.9016905"><ele>439.0</ele><time>2026-04-18T08:55:38.343Z</time></trkpt><trkpt lat="43.520248" lon="10.9018754"><ele>439.0</ele><time>2026-04-18T08:55:39.342Z</time></trkpt><trkpt lat="43.5200806" lon="10.9020528"><ele>438.0</ele><time>2026-04-18T08:55:40.342Z</time></trkpt><trkpt lat="43.5199133" lon="10.9022178"><ele>437.0</ele><time>2026-04-18T08:55:41.342Z</time></trkpt><trkpt lat="43.5197442" lon="10.9023664"><ele>436.0</ele><time>2026-04-18T08:55:42.344Z</time></trkpt><trkpt lat="43.5195747" lon="10.9024922"><ele>438.0</ele><time>2026-04-18T08:55:43.342Z</time></trkpt><trkpt lat="43.5194006" lon="10.9025984"><ele>440.0</ele><time>2026-04-18T08:55:44.344Z</time></trkpt><trkpt lat="43.5192203" lon="10.9026714"><ele>442.0</ele><time>2026-04-18T08:55:45.342Z</time></trkpt><trkpt lat="43.5190291" lon="10.9027197"><ele>442.0</ele><time>2026-04-18T08:55:46.343Z</time></trkpt><trkpt lat="43.5188323" lon="10.9027427"><ele>442.0</ele><time>2026-04-18T08:55:47.342Z</time></trkpt><trkpt lat="43.5186307" lon="10.9027519"><ele>442.0</ele><time>2026-04-18T08:55:48.344Z</time></trkpt><trkpt lat="43.5184272" lon="10.9027568"><ele>441.6666666666667</ele><time>2026-04-18T08:55:49.343Z</time></trkpt><trkpt lat="43.5182264" lon="10.9027596"><ele>441.33333333333337</ele><time>2026-04-18T08:55:50.344Z</time></trkpt><trkpt lat="43.5180348" lon="10.9027544"><ele>441.0</ele><time>2026-04-18T08:55:51.344Z</time></trkpt><trkpt lat="43.5178577" lon="10.9027577"><ele>444.0</ele><time>2026-04-18T08:55:52.343Z</time></trkpt><trkpt lat="43.5176875" lon="10.9027567"><ele>447.0</ele><time>2026-04-18T08:55:53.342Z</time></trkpt><trkpt lat="43.5175261" lon="10.9027426"><ele>450.0</ele><time>2026-04-18T08:55:54.344Z</time></trkpt><trkpt lat="43.5173759" lon="10.9026969"><ele>450.0</ele><time>2026-04-18T08:55:55.344Z</time></trkpt><trkpt lat="43.5172296" lon="10.902622"><ele>450.0</ele><time>2026-04-18T08:55:56.344Z</time></trkpt><trkpt lat="43.5170833" lon="10.9025078"><ele>450.0</ele><time>2026-04-18T08:55:57.342Z</time></trkpt><trkpt lat="43.5169381" lon="10.9023578"><ele>453.66666666666663</ele><time>2026-04-18T08:55:58.343Z</time></trkpt><trkpt lat="43.5167963" lon="10.9021864"><ele>457.3333333333333</ele><time>2026-04-18T08:55:59.342Z</time></trkpt><trkpt lat="43.5166532" lon="10.9020088"><ele>461.0</ele><time>2026-04-18T08:56:00.344Z</time></trkpt><trkpt lat="43.5165101" lon="10.9018312"><ele>460.66666666666663</ele><time>2026-04-18T08:56:01.344Z</time></trkpt><trkpt lat="43.5163652" lon="10.9016599"><ele>460.33333333333337</ele><time>2026-04-18T08:56:02.342Z</time></trkpt><trkpt lat="43.5162157" lon="10.9014968"><ele>460.0</ele><time>2026-04-18T08:56:03.342Z</time></trkpt><trkpt lat="43.5160547" lon="10.9013476"><ele>461.33333333333337</ele><time>2026-04-18T08:56:04.342Z</time></trkpt><trkpt lat="43.5158827" lon="10.9012169"><ele>462.66666666666663</ele><time>2026-04-18T08:56:05.344Z</time></trkpt><trkpt lat="43.5157061" lon="10.9010952"><ele>464.0</ele><time>2026-04-18T08:56:06.343Z</time></trkpt><trkpt lat="43.5155242" lon="10.9009729"><ele>467.0</ele><time>2026-04-18T08:56:07.344Z</time></trkpt><trkpt lat="43.5153386" lon="10.9008535"><ele>470.0</ele><time>2026-04-18T08:56:08.344Z</time></trkpt><trkpt lat="43.5151531" lon="10.900732"><ele>473.0</ele><time>2026-04-18T08:56:09.344Z</time></trkpt><trkpt lat="43.5149739" lon="10.900614"><ele>473.0</ele><time>2026-04-18T08:56:10.344Z</time></trkpt><trkpt lat="43.5148007" lon="10.9005007"><ele>473.0</ele><time>2026-04-18T08:56:11.343Z</time></trkpt><trkpt lat="43.5146294" lon="10.9003913"><ele>473.0</ele><time>2026-04-18T08:56:12.344Z</time></trkpt><trkpt lat="43.5144623" lon="10.9002738"><ele>474.66666666666663</ele><time>2026-04-18T08:56:13.342Z</time></trkpt><trkpt lat="43.5143038" lon="10.9001392"><ele>476.33333333333337</ele><time>2026-04-18T08:56:14.343Z</time></trkpt><trkpt lat="43.5141516" lon="10.8999846"><ele>478.0</ele><time>2026-04-18T08:56:15.343Z</time></trkpt><trkpt lat="43.5140009" lon="10.8998272"><ele>478.0</ele><time>2026-04-18T08:56:16.342Z</time></trkpt><trkpt lat="43.5138536" lon="10.8996667"><ele>478.0</ele><time>2026-04-18T08:56:17.342Z</time></trkpt><trkpt lat="43.5137043" lon="10.8995162"><ele>478.0</ele><time>2026-04-18T08:56:18.344Z</time></trkpt><trkpt lat="43.5135625" lon="10.8993635"><ele>479.6666666666667</ele><time>2026-04-18T08:56:19.344Z</time></trkpt><trkpt lat="43.5134199" lon="10.8992151"><ele>481.33333333333337</ele><time>2026-04-18T08:56:20.345Z</time></trkpt><trkpt lat="43.5132646" lon="10.8990889"><ele>483.0</ele><time>2026-04-18T08:56:21.344Z</time></trkpt><trkpt lat="43.5130972" lon="10.8989912"><ele>483.0</ele><time>2026-04-18T08:56:22.343Z</time></trkpt><trkpt lat="43.5129307" lon="10.8989241"><ele>483.0</ele><time>2026-04-18T08:56:23.343Z</time></trkpt><trkpt lat="43.5127534" lon="10.8988915"><ele>483.0</ele><time>2026-04-18T08:56:24.344Z</time></trkpt><trkpt lat="43.5125749" lon="10.898901"><ele>481.33333333333337</ele><time>2026-04-18T08:56:25.343Z</time></trkpt><trkpt lat="43.5124042" lon="10.8989503"><ele>479.6666666666667</ele><time>2026-04-18T08:56:26.342Z</time></trkpt><trkpt lat="43.5122572" lon="10.8990228"><ele>478.0</ele><time>2026-04-18T08:56:27.345Z</time></trkpt><trkpt lat="43.5121225" lon="10.8991272"><ele>480.33333333333337</ele><time>2026-04-18T08:56:28.343Z</time></trkpt><trkpt lat="43.5120041" lon="10.8992587"><ele>482.66666666666663</ele><time>2026-04-18T08:56:29.344Z</time></trkpt><trkpt lat="43.5119048" lon="10.8994142"><ele>485.0</ele><time>2026-04-18T08:56:30.343Z</time></trkpt><trkpt lat="43.5118233" lon="10.8995861"><ele>485.0</ele><time>2026-04-18T08:56:31.344Z</time></trkpt><trkpt lat="43.5117685" lon="10.8997701"><ele>485.0</ele><time>2026-04-18T08:56:32.347Z</time></trkpt><trkpt lat="43.5117313" lon="10.8999701"><ele>485.0</ele><time>2026-04-18T08:56:33.343Z</time></trkpt><trkpt lat="43.5117234" lon="10.9001783"><ele>485.0</ele><time>2026-04-18T08:56:34.343Z</time></trkpt><trkpt lat="43.5117325" lon="10.9004058"><ele>484.66666666666663</ele><time>2026-04-18T08:56:35.343Z</time></trkpt><trkpt lat="43.5117576" lon="10.900643"><ele>484.33333333333337</ele><time>2026-04-18T08:56:36.343Z</time></trkpt><trkpt lat="43.5118033" lon="10.9008821"><ele>484.0</ele><time>2026-04-18T08:56:37.344Z</time></trkpt><trkpt lat="43.5118561" lon="10.901131"><ele>484.0</ele><time>2026-04-18T08:56:38.345Z</time></trkpt><trkpt lat="43.5119262" lon="10.9013815"><ele>484.0</ele><time>2026-04-18T08:56:39.344Z</time></trkpt><trkpt lat="43.5120059" lon="10.9016296"><ele>484.0</ele><time>2026-04-18T08:56:40.344Z</time></trkpt><trkpt lat="43.5120848" lon="10.9018773"><ele>484.0</ele><time>2026-04-18T08:56:41.343Z</time></trkpt><trkpt lat="43.5121557" lon="10.9021303"><ele>484.0</ele><time>2026-04-18T08:56:42.345Z</time></trkpt><trkpt lat="43.5122054" lon="10.9023968"><ele>484.0</ele><time>2026-04-18T08:56:43.343Z</time></trkpt><trkpt lat="43.51223" lon="10.9026766"><ele>484.0</ele><time>2026-04-18T08:56:44.345Z</time></trkpt><trkpt lat="43.5122294" lon="10.9029662"><ele>484.0</ele><time>2026-04-18T08:56:45.344Z</time></trkpt><trkpt lat="43.5122082" lon="10.9032666"><ele>484.0</ele><time>2026-04-18T08:56:46.343Z</time></trkpt><trkpt lat="43.5121783" lon="10.9035496"><ele>484.33333333333337</ele><time>2026-04-18T08:56:47.343Z</time></trkpt><trkpt lat="43.5121567" lon="10.9038073"><ele>484.66666666666663</ele><time>2026-04-18T08:56:48.345Z</time></trkpt><trkpt lat="43.5121294" lon="10.9040366"><ele>485.0</ele><time>2026-04-18T08:56:49.344Z</time></trkpt><trkpt lat="43.5120809" lon="10.904247"><ele>486.66666666666663</ele><time>2026-04-18T08:56:50.342Z</time></trkpt><trkpt lat="43.5120105" lon="10.9044297"><ele>488.33333333333337</ele><time>2026-04-18T08:56:51.348Z</time></trkpt><trkpt lat="43.5119039" lon="10.9045964"><ele>490.0</ele><time>2026-04-18T08:56:52.346Z</time></trkpt><trkpt lat="43.5117778" lon="10.9047466"><ele>490.0</ele><time>2026-04-18T08:56:53.345Z</time></trkpt><trkpt lat="43.5116287" lon="10.9048588"><ele>490.0</ele><time>2026-04-18T08:56:54.342Z</time></trkpt><trkpt lat="43.5114465" lon="10.9049328"><ele>490.0</ele><time>2026-04-18T08:56:55.343Z</time></trkpt><trkpt lat="43.5112439" lon="10.9049818"><ele>489.33333333333337</ele><time>2026-04-18T08:56:56.344Z</time></trkpt><trkpt lat="43.5110283" lon="10.9050396"><ele>488.66666666666663</ele><time>2026-04-18T08:56:57.345Z</time></trkpt><trkpt lat="43.5108047" lon="10.905104"><ele>488.0</ele><time>2026-04-18T08:56:58.343Z</time></trkpt><trkpt lat="43.5105723" lon="10.9051729"><ele>489.5</ele><time>2026-04-18T08:56:59.343Z</time></trkpt><trkpt lat="43.5103353" lon="10.9052515"><ele>491.0</ele><time>2026-04-18T08:57:00.344Z</time></trkpt><trkpt lat="43.5101007" lon="10.9053353"><ele>491.0</ele><time>2026-04-18T08:57:01.342Z</time></trkpt><trkpt lat="43.5098623" lon="10.9054203"><ele>491.0</ele><time>2026-04-18T08:57:02.344Z</time></trkpt><trkpt lat="43.5096268" lon="10.9055068"><ele>495.0</ele><time>2026-04-18T08:57:03.344Z</time></trkpt><trkpt lat="43.5093841" lon="10.9055935"><ele>499.0</ele><time>2026-04-18T08:57:04.343Z</time></trkpt><trkpt lat="43.5091392" lon="10.9056845"><ele>499.0</ele><time>2026-04-18T08:57:05.343Z</time></trkpt><trkpt lat="43.5088998" lon="10.9057706"><ele>499.0</ele><time>2026-04-18T08:57:06.346Z</time></trkpt><trkpt lat="43.5086678" lon="10.9058511"><ele>503.0</ele><time>2026-04-18T08:57:07.342Z</time></trkpt><trkpt lat="43.5084424" lon="10.9059338"><ele>507.0</ele><time>2026-04-18T08:57:08.344Z</time></trkpt><trkpt lat="43.5082303" lon="10.9060122"><ele>507.0</ele><time>2026-04-18T08:57:09.343Z</time></trkpt><trkpt lat="43.5080319" lon="10.9060841"><ele>507.0</ele><time>2026-04-18T08:57:10.342Z</time></trkpt><trkpt lat="43.5078427" lon="10.9061508"><ele>507.0</ele><time>2026-04-18T08:57:11.343Z</time></trkpt><trkpt lat="43.5076598" lon="10.9062319"><ele>508.0</ele><time>2026-04-18T08:57:12.344Z</time></trkpt><trkpt lat="43.5074892" lon="10.9063454"><ele>509.0</ele><time>2026-04-18T08:57:13.342Z</time></trkpt><trkpt lat="43.50732" lon="10.9064904"><ele>510.0</ele><time>2026-04-18T08:57:14.344Z</time></trkpt><trkpt lat="43.5071549" lon="10.9066619"><ele>513.3333333333334</ele><time>2026-04-18T08:57:15.342Z</time></trkpt><trkpt lat="43.5069931" lon="10.9068503"><ele>516.6666666666667</ele><time>2026-04-18T08:57:16.343Z</time></trkpt><trkpt lat="43.5068298" lon="10.90704"><ele>520.0</ele><time>2026-04-18T08:57:17.345Z</time></trkpt><trkpt lat="43.5066591" lon="10.9072318"><ele>520.0</ele><time>2026-04-18T08:57:18.345Z</time></trkpt><trkpt lat="43.5064912" lon="10.9074247"><ele>520.0</ele><time>2026-04-18T08:57:19.343Z</time></trkpt><trkpt lat="43.5063263" lon="10.9076112"><ele>520.0</ele><time>2026-04-18T08:57:20.343Z</time></trkpt><trkpt lat="43.5061679" lon="10.9077782"><ele>521.3333333333334</ele><time>2026-04-18T08:57:21.344Z</time></trkpt><trkpt lat="43.5060098" lon="10.9079221"><ele>522.6666666666666</ele><time>2026-04-18T08:57:22.344Z</time></trkpt><trkpt lat="43.5058457" lon="10.9080366"><ele>524.0</ele><time>2026-04-18T08:57:23.344Z</time></trkpt><trkpt lat="43.5056712" lon="10.9081265"><ele>524.0</ele><time>2026-04-18T08:57:24.346Z</time></trkpt><trkpt lat="43.5054881" lon="10.9081881"><ele>524.0</ele><time>2026-04-18T08:57:25.343Z</time></trkpt><trkpt lat="43.5052948" lon="10.9081994"><ele>524.0</ele><time>2026-04-18T08:57:26.345Z</time></trkpt><trkpt lat="43.5050941" lon="10.9081824"><ele>525.3333333333333</ele><time>2026-04-18T08:57:27.344Z</time></trkpt><trkpt lat="43.5048832" lon="10.9081542"><ele>526.6666666666666</ele><time>2026-04-18T08:57:28.343Z</time></trkpt><trkpt lat="43.5046678" lon="10.9081158"><ele>528.0</ele><time>2026-04-18T08:57:29.343Z</time></trkpt><trkpt lat="43.5044507" lon="10.9080844"><ele>530.0</ele><time>2026-04-18T08:57:30.344Z</time></trkpt><trkpt lat="43.5042331" lon="10.9080485"><ele>532.0</ele><time>2026-04-18T08:57:31.343Z</time></trkpt><trkpt lat="43.5040194" lon="10.9080139"><ele>534.0</ele><time>2026-04-18T08:57:32.343Z</time></trkpt><trkpt lat="43.5038097" lon="10.9079805"><ele>534.6666666666666</ele><time>2026-04-18T08:57:33.343Z</time></trkpt><trkpt lat="43.5035954" lon="10.9079485"><ele>535.3333333333333</ele><time>2026-04-18T08:57:34.343Z</time></trkpt><trkpt lat="43.5033787" lon="10.907914"><ele>536.0</ele><time>2026-04-18T08:57:35.344Z</time></trkpt><trkpt lat="43.5031565" lon="10.9078861"><ele>536.0</ele><time>2026-04-18T08:57:36.344Z</time></trkpt><trkpt lat="43.5029349" lon="10.9078571"><ele>536.0</ele><time>2026-04-18T08:57:37.344Z</time></trkpt><trkpt lat="43.5027282" lon="10.9078195"><ele>536.0</ele><time>2026-04-18T08:57:38.343Z</time></trkpt><trkpt lat="43.5025313" lon="10.9077832"><ele>536.3333333333333</ele><time>2026-04-18T08:57:39.344Z</time></trkpt><trkpt lat="43.5023452" lon="10.9077571"><ele>536.6666666666666</ele><time>2026-04-18T08:57:40.344Z</time></trkpt><trkpt lat="43.5021686" lon="10.9077308"><ele>537.0</ele><time>2026-04-18T08:57:41.345Z</time></trkpt><trkpt lat="43.5020036" lon="10.9077086"><ele>537.0</ele><time>2026-04-18T08:57:42.344Z</time></trkpt><trkpt lat="43.5018504" lon="10.9077052"><ele>537.0</ele><time>2026-04-18T08:57:43.343Z</time></trkpt><trkpt lat="43.5017011" lon="10.9077293"><ele>537.0</ele><time>2026-04-18T08:57:44.346Z</time></trkpt><trkpt lat="43.501565" lon="10.9077901"><ele>537.0</ele><time>2026-04-18T08:57:45.345Z</time></trkpt><trkpt lat="43.5014413" lon="10.9078811"><ele>537.0</ele><time>2026-04-18T08:57:46.343Z</time></trkpt><trkpt lat="43.5013179" lon="10.9080103"><ele>537.0</ele><time>2026-04-18T08:57:47.344Z</time></trkpt><trkpt lat="43.5011844" lon="10.9081863"><ele>537.0</ele><time>2026-04-18T08:57:48.344Z</time></trkpt><trkpt lat="43.501068" lon="10.9083943"><ele>538.6666666666666</ele><time>2026-04-18T08:57:49.346Z</time></trkpt><trkpt lat="43.5009669" lon="10.9086133"><ele>540.3333333333333</ele><time>2026-04-18T08:57:50.343Z</time></trkpt><trkpt lat="43.500877" lon="10.9088477"><ele>542.0</ele><time>2026-04-18T08:57:51.344Z</time></trkpt><trkpt lat="43.500797" lon="10.9090889"><ele>542.0</ele><time>2026-04-18T08:57:52.345Z</time></trkpt><trkpt lat="43.5007282" lon="10.909332"><ele>542.0</ele><time>2026-04-18T08:57:53.343Z</time></trkpt><trkpt lat="43.5006745" lon="10.9095569"><ele>542.0</ele><time>2026-04-18T08:57:54.345Z</time></trkpt><trkpt lat="43.5006293" lon="10.9097629"><ele>542.0</ele><time>2026-04-18T08:57:55.349Z</time></trkpt><trkpt lat="43.5005929" lon="10.9099525"><ele>542.0</ele><time>2026-04-18T08:57:56.343Z</time></trkpt><trkpt lat="43.5005694" lon="10.9101345"><ele>542.0</ele><time>2026-04-18T08:57:57.343Z</time></trkpt><trkpt lat="43.500567" lon="10.9103162"><ele>542.0</ele><time>2026-04-18T08:57:58.344Z</time></trkpt><trkpt lat="43.5005823" lon="10.9105159"><ele>543.3333333333333</ele><time>2026-04-18T08:57:59.344Z</time></trkpt><trkpt lat="43.5006174" lon="10.9107272"><ele>544.6666666666666</ele><time>2026-04-18T08:58:00.343Z</time></trkpt><trkpt lat="43.5006591" lon="10.9109569"><ele>546.0</ele><time>2026-04-18T08:58:01.345Z</time></trkpt><trkpt lat="43.5006959" lon="10.9112018"><ele>546.0</ele><time>2026-04-18T08:58:02.345Z</time></trkpt><trkpt lat="43.5007305" lon="10.9114405"><ele>546.0</ele><time>2026-04-18T08:58:03.343Z</time></trkpt><trkpt lat="43.5007593" lon="10.9116626"><ele>546.0</ele><time>2026-04-18T08:58:04.343Z</time></trkpt><trkpt lat="43.5007731" lon="10.9118668"><ele>544.3333333333334</ele><time>2026-04-18T08:58:05.344Z</time></trkpt><trkpt lat="43.5007552" lon="10.9120609"><ele>542.6666666666667</ele><time>2026-04-18T08:58:06.345Z</time></trkpt><trkpt lat="43.5007055" lon="10.9122703"><ele>541.0</ele><time>2026-04-18T08:58:07.343Z</time></trkpt><trkpt lat="43.5006366" lon="10.9124942"><ele>539.6666666666667</ele><time>2026-04-18T08:58:08.345Z</time></trkpt><trkpt lat="43.5005507" lon="10.91274"><ele>538.3333333333334</ele><time>2026-04-18T08:58:09.345Z</time></trkpt><trkpt lat="43.5004634" lon="10.9129844"><ele>537.0</ele><time>2026-04-18T08:58:10.343Z</time></trkpt><trkpt lat="43.5003655" lon="10.9132207"><ele>537.3333333333334</ele><time>2026-04-18T08:58:11.345Z</time></trkpt><trkpt lat="43.5002499" lon="10.9134637"><ele>537.6666666666667</ele><time>2026-04-18T08:58:12.344Z</time></trkpt><trkpt lat="43.5001481" lon="10.9136843"><ele>538.0</ele><time>2026-04-18T08:58:13.343Z</time></trkpt><trkpt lat="43.500044" lon="10.9138968"><ele>538.0</ele><time>2026-04-18T08:58:14.345Z</time></trkpt><trkpt lat="43.4999542" lon="10.9140958"><ele>538.0</ele><time>2026-04-18T08:58:15.343Z</time></trkpt><trkpt lat="43.4998872" lon="10.9142714"><ele>538.0</ele><time>2026-04-18T08:58:16.343Z</time></trkpt><trkpt lat="43.4998391" lon="10.9144585"><ele>538.0</ele><time>2026-04-18T08:58:17.343Z</time></trkpt><trkpt lat="43.4998252" lon="10.9146566"><ele>538.0</ele><time>2026-04-18T08:58:18.345Z</time></trkpt><trkpt lat="43.4998361" lon="10.9148734"><ele>538.0</ele><time>2026-04-18T08:58:19.343Z</time></trkpt><trkpt lat="43.4998646" lon="10.9151113"><ele>537.6666666666667</ele><time>2026-04-18T08:58:20.344Z</time></trkpt><trkpt lat="43.4999016" lon="10.9153546"><ele>537.3333333333334</ele><time>2026-04-18T08:58:21.345Z</time></trkpt><trkpt lat="43.4999421" lon="10.9155894"><ele>537.0</ele><time>2026-04-18T08:58:22.344Z</time></trkpt><trkpt lat="43.4999752" lon="10.9158134"><ele>536.5</ele><time>2026-04-18T08:58:23.343Z</time></trkpt><trkpt lat="43.500005" lon="10.9160183"><ele>536.0</ele><time>2026-04-18T08:58:24.345Z</time></trkpt><trkpt lat="43.500017" lon="10.9162114"><ele>535.5</ele><time>2026-04-18T08:58:25.344Z</time></trkpt><trkpt lat="43.4999972" lon="10.9163983"><ele>535.0</ele><time>2026-04-18T08:58:26.345Z</time></trkpt><trkpt lat="43.4999456" lon="10.9165784"><ele>536.3333333333334</ele><time>2026-04-18T08:58:27.343Z</time></trkpt><trkpt lat="43.4998694" lon="10.9167446"><ele>537.6666666666666</ele><time>2026-04-18T08:58:28.345Z</time></trkpt><trkpt lat="43.4997512" lon="10.9168786"><ele>539.0</ele><time>2026-04-18T08:58:29.346Z</time></trkpt><trkpt lat="43.4996017" lon="10.916991"><ele>540.3333333333333</ele><time>2026-04-18T08:58:30.344Z</time></trkpt><trkpt lat="43.49944" lon="10.917096"><ele>541.6666666666666</ele><time>2026-04-18T08:58:31.345Z</time></trkpt><trkpt lat="43.4992816" lon="10.9172009"><ele>543.0</ele><time>2026-04-18T08:58:32.345Z</time></trkpt><trkpt lat="43.4991387" lon="10.9173084"><ele>543.0</ele><time>2026-04-18T08:58:33.347Z</time></trkpt><trkpt lat="43.4990128" lon="10.9174031"><ele>543.0</ele><time>2026-04-18T08:58:34.344Z</time></trkpt><trkpt lat="43.4988938" lon="10.9174931"><ele>543.0</ele><time>2026-04-18T08:58:35.344Z</time></trkpt><trkpt lat="43.4987741" lon="10.9175869"><ele>543.0</ele><time>2026-04-18T08:58:36.346Z</time></trkpt><trkpt lat="43.4986449" lon="10.9176628"><ele>541.75</ele><time>2026-04-18T08:58:37.344Z</time></trkpt><trkpt lat="43.4985017" lon="10.9177151"><ele>540.5</ele><time>2026-04-18T08:58:38.343Z</time></trkpt><trkpt lat="43.4983569" lon="10.9177475"><ele>539.25</ele><time>2026-04-18T08:58:39.344Z</time></trkpt><trkpt lat="43.4982284" lon="10.9177759"><ele>538.0</ele><time>2026-04-18T08:58:40.345Z</time></trkpt><trkpt lat="43.4981143" lon="10.9178388"><ele>538.0</ele><time>2026-04-18T08:58:41.344Z</time></trkpt><trkpt lat="43.4980219" lon="10.9179438"><ele>538.0</ele><time>2026-04-18T08:58:42.345Z</time></trkpt><trkpt lat="43.4979459" lon="10.9180878"><ele>538.0</ele><time>2026-04-18T08:58:43.344Z</time></trkpt><trkpt lat="43.4978824" lon="10.9182719"><ele>538.0</ele><time>2026-04-18T08:58:44.345Z</time></trkpt><trkpt lat="43.4978311" lon="10.9184932"><ele>538.0</ele><time>2026-04-18T08:58:45.344Z</time></trkpt><trkpt lat="43.4977796" lon="10.9187339"><ele>538.0</ele><time>2026-04-18T08:58:46.343Z</time></trkpt><trkpt lat="43.4977158" lon="10.9189611"><ele>538.0</ele><time>2026-04-18T08:58:47.345Z</time></trkpt><trkpt lat="43.4976429" lon="10.9191811"><ele>536.0</ele><time>2026-04-18T08:58:48.344Z</time></trkpt><trkpt lat="43.4975683" lon="10.9193877"><ele>534.0</ele><time>2026-04-18T08:58:49.344Z</time></trkpt><trkpt lat="43.4974915" lon="10.9195832"><ele>532.0</ele><time>2026-04-18T08:58:50.345Z</time></trkpt><trkpt lat="43.497434" lon="10.9197677"><ele>532.0</ele><time>2026-04-18T08:58:51.345Z</time></trkpt><trkpt lat="43.4974143" lon="10.9199484"><ele>532.0</ele><time>2026-04-18T08:58:52.345Z</time></trkpt><trkpt lat="43.4974133" lon="10.9201297"><ele>532.0</ele><time>2026-04-18T08:58:53.347Z</time></trkpt><trkpt lat="43.4974266" lon="10.9203002"><ele>532.0</ele><time>2026-04-18T08:58:54.343Z</time></trkpt><trkpt lat="43.4974336" lon="10.9204545"><ele>531.0</ele><time>2026-04-18T08:58:55.344Z</time></trkpt><trkpt lat="43.4974302" lon="10.9205879"><ele>530.0</ele><time>2026-04-18T08:58:56.344Z</time></trkpt><trkpt lat="43.4974069" lon="10.9207014"><ele>529.0</ele><time>2026-04-18T08:58:57.344Z</time></trkpt><trkpt lat="43.4973677" lon="10.9208116"><ele>528.0</ele><time>2026-04-18T08:58:58.345Z</time></trkpt><trkpt lat="43.4973047" lon="10.9209157"><ele>527.0</ele><time>2026-04-18T08:58:59.343Z</time></trkpt><trkpt lat="43.4972143" lon="10.9209928"><ele>524.3333333333333</ele><time>2026-04-18T08:59:00.344Z</time></trkpt><trkpt lat="43.4970883" lon="10.9210612"><ele>521.6666666666666</ele><time>2026-04-18T08:59:01.344Z</time></trkpt><trkpt lat="43.4969369" lon="10.9211307"><ele>519.0</ele><time>2026-04-18T08:59:02.343Z</time></trkpt><trkpt lat="43.4967829" lon="10.9211928"><ele>518.6666666666666</ele><time>2026-04-18T08:59:03.344Z</time></trkpt><trkpt lat="43.496637" lon="10.9212659"><ele>518.3333333333333</ele><time>2026-04-18T08:59:04.343Z</time></trkpt><trkpt lat="43.4964865" lon="10.9213569"><ele>518.0</ele><time>2026-04-18T08:59:05.344Z</time></trkpt><trkpt lat="43.4963624" lon="10.921479"><ele>518.0</ele><time>2026-04-18T08:59:06.343Z</time></trkpt><trkpt lat="43.4962567" lon="10.9216387"><ele>518.0</ele><time>2026-04-18T08:59:07.344Z</time></trkpt><trkpt lat="43.4961571" lon="10.9218441"><ele>518.0</ele><time>2026-04-18T08:59:08.346Z</time></trkpt><trkpt lat="43.4960542" lon="10.922072"><ele>517.6666666666666</ele><time>2026-04-18T08:59:09.345Z</time></trkpt><trkpt lat="43.4959439" lon="10.9223127"><ele>517.3333333333334</ele><time>2026-04-18T08:59:10.344Z</time></trkpt><trkpt lat="43.4958321" lon="10.9225491"><ele>517.0</ele><time>2026-04-18T08:59:11.349Z</time></trkpt><trkpt lat="43.4957081" lon="10.9227685"><ele>517.6666666666667</ele><time>2026-04-18T08:59:12.346Z</time></trkpt><trkpt lat="43.4955556" lon="10.9229962"><ele>518.3333333333334</ele><time>2026-04-18T08:59:13.344Z</time></trkpt><trkpt lat="43.4953995" lon="10.9232102"><ele>519.0</ele><time>2026-04-18T08:59:14.343Z</time></trkpt><trkpt lat="43.4952338" lon="10.9234066"><ele>517.6666666666666</ele><time>2026-04-18T08:59:15.344Z</time></trkpt><trkpt lat="43.4950715" lon="10.9235911"><ele>516.3333333333333</ele><time>2026-04-18T08:59:16.344Z</time></trkpt><trkpt lat="43.494917" lon="10.9237723"><ele>515.0</ele><time>2026-04-18T08:59:17.344Z</time></trkpt><trkpt lat="43.4947669" lon="10.9239559"><ele>515.0</ele><time>2026-04-18T08:59:18.344Z</time></trkpt><trkpt lat="43.4946247" lon="10.9241452"><ele>515.0</ele><time>2026-04-18T08:59:19.345Z</time></trkpt><trkpt lat="43.4944879" lon="10.924323"><ele>515.0</ele><time>2026-04-18T08:59:20.347Z</time></trkpt><trkpt lat="43.4943608" lon="10.9244914"><ele>512.3333333333333</ele><time>2026-04-18T08:59:21.344Z</time></trkpt><trkpt lat="43.494244" lon="10.9246487"><ele>509.66666666666663</ele><time>2026-04-18T08:59:22.346Z</time></trkpt><trkpt lat="43.4941375" lon="10.9247945"><ele>507.0</ele><time>2026-04-18T08:59:23.344Z</time></trkpt><trkpt lat="43.4940376" lon="10.9249383"><ele>506.0</ele><time>2026-04-18T08:59:24.346Z</time></trkpt><trkpt lat="43.4939595" lon="10.9250881"><ele>505.0</ele><time>2026-04-18T08:59:25.343Z</time></trkpt><trkpt lat="43.4939023" lon="10.9252612"><ele>504.0</ele><time>2026-04-18T08:59:26.344Z</time></trkpt><trkpt lat="43.4938732" lon="10.9254567"><ele>503.0</ele><time>2026-04-18T08:59:27.345Z</time></trkpt><trkpt lat="43.4938673" lon="10.9256624"><ele>503.0</ele><time>2026-04-18T08:59:28.344Z</time></trkpt><trkpt lat="43.4938729" lon="10.9258698"><ele>503.0</ele><time>2026-04-18T08:59:29.344Z</time></trkpt><trkpt lat="43.4938747" lon="10.9260683"><ele>503.0</ele><time>2026-04-18T08:59:30.344Z</time></trkpt><trkpt lat="43.4938764" lon="10.9262466"><ele>503.0</ele><time>2026-04-18T08:59:31.344Z</time></trkpt><trkpt lat="43.4938752" lon="10.9263968"><ele>502.0</ele><time>2026-04-18T08:59:32.344Z</time></trkpt><trkpt lat="43.4938717" lon="10.9265272"><ele>500.99999999999994</ele><time>2026-04-18T08:59:33.348Z</time></trkpt><trkpt lat="43.4938683" lon="10.926628"><ele>499.99999999999994</ele><time>2026-04-18T08:59:34.343Z</time></trkpt><trkpt lat="43.4938469" lon="10.9267688"><ele>499.0</ele><time>2026-04-18T08:59:36.343Z</time></trkpt><trkpt lat="43.4937632" lon="10.9269161"><ele>498.0</ele><time>2026-04-18T08:59:38.344Z</time></trkpt><trkpt lat="43.4936874" lon="10.9269999"><ele>498.0</ele><time>2026-04-18T08:59:39.344Z</time></trkpt><trkpt lat="43.4935987" lon="10.9270964"><ele>498.0</ele><time>2026-04-18T08:59:40.344Z</time></trkpt><trkpt lat="43.4934974" lon="10.9272175"><ele>498.0</ele><time>2026-04-18T08:59:41.343Z</time></trkpt><trkpt lat="43.4933859" lon="10.9273638"><ele>498.0</ele><time>2026-04-18T08:59:42.348Z</time></trkpt><trkpt lat="43.4932784" lon="10.9275132"><ele>496.66666666666663</ele><time>2026-04-18T08:59:43.343Z</time></trkpt><trkpt lat="43.4931698" lon="10.9276672"><ele>495.3333333333333</ele><time>2026-04-18T08:59:44.345Z</time></trkpt><trkpt lat="43.4930629" lon="10.9278214"><ele>494.0</ele><time>2026-04-18T08:59:45.344Z</time></trkpt><trkpt lat="43.4929582" lon="10.9279655"><ele>491.75</ele><time>2026-04-18T08:59:46.344Z</time></trkpt><trkpt lat="43.4928574" lon="10.9280957"><ele>489.5</ele><time>2026-04-18T08:59:47.344Z</time></trkpt><trkpt lat="43.4927676" lon="10.9282179"><ele>487.25</ele><time>2026-04-18T08:59:48.345Z</time></trkpt><trkpt lat="43.4926909" lon="10.9283321"><ele>485.0</ele><time>2026-04-18T08:59:49.344Z</time></trkpt><trkpt lat="43.4926121" lon="10.9284465"><ele>484.75</ele><time>2026-04-18T08:59:50.345Z</time></trkpt><trkpt lat="43.4925245" lon="10.9285549"><ele>484.5</ele><time>2026-04-18T08:59:51.349Z</time></trkpt><trkpt lat="43.4924281" lon="10.9286497"><ele>484.25</ele><time>2026-04-18T08:59:52.343Z</time></trkpt><trkpt lat="43.4923241" lon="10.9287272"><ele>484.0</ele><time>2026-04-18T08:59:53.343Z</time></trkpt><trkpt lat="43.4922121" lon="10.9287828"><ele>484.5</ele><time>2026-04-18T08:59:54.344Z</time></trkpt><trkpt lat="43.4920894" lon="10.9288176"><ele>485.0</ele><time>2026-04-18T08:59:55.344Z</time></trkpt><trkpt lat="43.4919637" lon="10.9288149"><ele>485.5</ele><time>2026-04-18T08:59:56.344Z</time></trkpt><trkpt lat="43.4918398" lon="10.9287704"><ele>486.0</ele><time>2026-04-18T08:59:57.346Z</time></trkpt><trkpt lat="43.491718" lon="10.9286959"><ele>486.0</ele><time>2026-04-18T08:59:58.343Z</time></trkpt><trkpt lat="43.4915936" lon="10.9286069"><ele>486.0</ele><time>2026-04-18T08:59:59.344Z</time></trkpt><trkpt lat="43.4914731" lon="10.928537"><ele>486.0</ele><time>2026-04-18T09:00:00.344Z</time></trkpt><trkpt lat="43.4913565" lon="10.9285003"><ele>486.0</ele><time>2026-04-18T09:00:01.342Z</time></trkpt><trkpt lat="43.4912461" lon="10.9285156"><ele>483.25</ele><time>2026-04-18T09:00:02.342Z</time></trkpt><trkpt lat="43.4911341" lon="10.9285859"><ele>480.5</ele><time>2026-04-18T09:00:03.346Z</time></trkpt><trkpt lat="43.4910352" lon="10.9287165"><ele>477.75</ele><time>2026-04-18T09:00:04.342Z</time></trkpt><trkpt lat="43.4909515" lon="10.9288775"><ele>475.0</ele><time>2026-04-18T09:00:05.343Z</time></trkpt><trkpt lat="43.4908721" lon="10.9290579"><ele>476.6666666666667</ele><time>2026-04-18T09:00:06.343Z</time></trkpt><trkpt lat="43.4907878" lon="10.9292423"><ele>478.33333333333337</ele><time>2026-04-18T09:00:07.342Z</time></trkpt><trkpt lat="43.4907025" lon="10.9294312"><ele>480.0</ele><time>2026-04-18T09:00:08.343Z</time></trkpt><trkpt lat="43.4906201" lon="10.9296198"><ele>480.0</ele><time>2026-04-18T09:00:09.343Z</time></trkpt><trkpt lat="43.4905488" lon="10.929815"><ele>480.0</ele><time>2026-04-18T09:00:10.343Z</time></trkpt><trkpt lat="43.4904748" lon="10.9300031"><ele>480.0</ele><time>2026-04-18T09:00:11.342Z</time></trkpt><trkpt lat="43.4903999" lon="10.9301847"><ele>475.5</ele><time>2026-04-18T09:00:12.343Z</time></trkpt><trkpt lat="43.4903279" lon="10.9303575"><ele>471.0</ele><time>2026-04-18T09:00:13.342Z</time></trkpt><trkpt lat="43.4902524" lon="10.9305253"><ele>466.5</ele><time>2026-04-18T09:00:14.343Z</time></trkpt><trkpt lat="43.4901865" lon="10.9307038"><ele>462.0</ele><time>2026-04-18T09:00:15.347Z</time></trkpt><trkpt lat="43.4901332" lon="10.9308806"><ele>461.75</ele><time>2026-04-18T09:00:16.343Z</time></trkpt><trkpt lat="43.4900948" lon="10.9310622"><ele>461.5</ele><time>2026-04-18T09:00:17.344Z</time></trkpt><trkpt lat="43.4900717" lon="10.9312476"><ele>461.25</ele><time>2026-04-18T09:00:18.342Z</time></trkpt><trkpt lat="43.4900645" lon="10.9314279"><ele>461.0</ele><time>2026-04-18T09:00:19.343Z</time></trkpt><trkpt lat="43.4900673" lon="10.9316166"><ele>460.25</ele><time>2026-04-18T09:00:20.344Z</time></trkpt><trkpt lat="43.4900724" lon="10.9318006"><ele>459.5</ele><time>2026-04-18T09:00:21.345Z</time></trkpt><trkpt lat="43.4900789" lon="10.9319763"><ele>458.75</ele><time>2026-04-18T09:00:22.342Z</time></trkpt><trkpt lat="43.4900829" lon="10.9321343"><ele>458.0</ele><time>2026-04-18T09:00:23.343Z</time></trkpt><trkpt lat="43.4900822" lon="10.9322703"><ele>457.99999999999994</ele><time>2026-04-18T09:00:24.342Z</time></trkpt><trkpt lat="43.4900671" lon="10.9323857"><ele>458.0</ele><time>2026-04-18T09:00:25.344Z</time></trkpt><trkpt lat="43.4900369" lon="10.9324766"><ele>458.0</ele><time>2026-04-18T09:00:26.343Z</time></trkpt><trkpt lat="43.489988" lon="10.9325384"><ele>458.0</ele><time>2026-04-18T09:00:27.342Z</time></trkpt><trkpt lat="43.4899189" lon="10.9325608"><ele>457.99999999999994</ele><time>2026-04-18T09:00:28.343Z</time></trkpt><trkpt lat="43.4898237" lon="10.9325015"><ele>458.0</ele><time>2026-04-18T09:00:29.342Z</time></trkpt><trkpt lat="43.4897443" lon="10.9323916"><ele>458.0</ele><time>2026-04-18T09:00:30.343Z</time></trkpt><trkpt lat="43.4896782" lon="10.932261"><ele>458.0</ele><time>2026-04-18T09:00:31.343Z</time></trkpt><trkpt lat="43.4896753" lon="10.931995"><ele>458.0</ele><time>2026-04-18T09:00:32.343Z</time></trkpt><trkpt lat="43.4896833" lon="10.931754"><ele>459.0</ele><time>2026-04-18T09:00:33.343Z</time></trkpt><trkpt lat="43.4896875" lon="10.9315092"><ele>460.0</ele><time>2026-04-18T09:00:34.344Z</time></trkpt><trkpt lat="43.4896795" lon="10.9312542"><ele>461.0</ele><time>2026-04-18T09:00:35.344Z</time></trkpt><trkpt lat="43.4896625" lon="10.9309806"><ele>461.3333333333333</ele><time>2026-04-18T09:00:36.345Z</time></trkpt><trkpt lat="43.4896432" lon="10.9307091"><ele>461.66666666666663</ele><time>2026-04-18T09:00:37.342Z</time></trkpt><trkpt lat="43.4896138" lon="10.930441"><ele>462.0</ele><time>2026-04-18T09:00:38.343Z</time></trkpt><trkpt lat="43.4895753" lon="10.9301788"><ele>453.66666666666663</ele><time>2026-04-18T09:00:39.343Z</time></trkpt><trkpt lat="43.4895226" lon="10.9299288"><ele>445.3333333333333</ele><time>2026-04-18T09:00:40.344Z</time></trkpt><trkpt lat="43.4894591" lon="10.9296917"><ele>437.0</ele><time>2026-04-18T09:00:41.343Z</time></trkpt><trkpt lat="43.4893902" lon="10.9294529"><ele>436.66666666666663</ele><time>2026-04-18T09:00:42.344Z</time></trkpt><trkpt lat="43.4893288" lon="10.9292187"><ele>436.33333333333337</ele><time>2026-04-18T09:00:43.343Z</time></trkpt><trkpt lat="43.4892837" lon="10.9289922"><ele>436.0</ele><time>2026-04-18T09:00:44.344Z</time></trkpt><trkpt lat="43.4892617" lon="10.9287584"><ele>436.0</ele><time>2026-04-18T09:00:45.343Z</time></trkpt><trkpt lat="43.4892697" lon="10.9285123"><ele>436.0</ele><time>2026-04-18T09:00:46.346Z</time></trkpt><trkpt lat="43.4892932" lon="10.9282561"><ele>436.0</ele><time>2026-04-18T09:00:47.344Z</time></trkpt><trkpt lat="43.4893127" lon="10.9279931"><ele>435.33333333333337</ele><time>2026-04-18T09:00:48.344Z</time></trkpt><trkpt lat="43.4893266" lon="10.9277393"><ele>434.66666666666663</ele><time>2026-04-18T09:00:49.346Z</time></trkpt><trkpt lat="43.4893427" lon="10.9274912"><ele>434.0</ele><time>2026-04-18T09:00:50.343Z</time></trkpt><trkpt lat="43.4893598" lon="10.9272474"><ele>433.3333333333333</ele><time>2026-04-18T09:00:51.344Z</time></trkpt><trkpt lat="43.4893825" lon="10.9270093"><ele>432.66666666666663</ele><time>2026-04-18T09:00:52.343Z</time></trkpt><trkpt lat="43.4894094" lon="10.926779"><ele>432.0</ele><time>2026-04-18T09:00:53.343Z</time></trkpt><trkpt lat="43.4894421" lon="10.9265559"><ele>429.66666666666663</ele><time>2026-04-18T09:00:54.345Z</time></trkpt><trkpt lat="43.4894747" lon="10.9263333"><ele>427.3333333333333</ele><time>2026-04-18T09:00:55.343Z</time></trkpt><trkpt lat="43.4895052" lon="10.9261145"><ele>425.0</ele><time>2026-04-18T09:00:56.344Z</time></trkpt><trkpt lat="43.4895333" lon="10.9258995"><ele>426.5</ele><time>2026-04-18T09:00:57.344Z</time></trkpt><trkpt lat="43.4895611" lon="10.9256936"><ele>428.0</ele><time>2026-04-18T09:00:58.342Z</time></trkpt><trkpt lat="43.4895849" lon="10.9255041"><ele>429.5</ele><time>2026-04-18T09:00:59.343Z</time></trkpt><trkpt lat="43.489608" lon="10.9253384"><ele>431.0</ele><time>2026-04-18T09:01:00.345Z</time></trkpt><trkpt lat="43.4896255" lon="10.9252025"><ele>430.99999999999994</ele><time>2026-04-18T09:01:01.343Z</time></trkpt><trkpt lat="43.4896418" lon="10.9250974"><ele>431.0</ele><time>2026-04-18T09:01:02.344Z</time></trkpt><trkpt lat="43.4896634" lon="10.9249592"><ele>431.0</ele><time>2026-04-18T09:01:04.342Z</time></trkpt><trkpt lat="43.4896595" lon="10.9248548"><ele>431.0</ele><time>2026-04-18T09:01:07.343Z</time></trkpt><trkpt lat="43.4895815" lon="10.92482"><ele>430.99999999999994</ele><time>2026-04-18T09:01:10.344Z</time></trkpt><trkpt lat="43.4894897" lon="10.9248201"><ele>431.0</ele><time>2026-04-18T09:01:13.343Z</time></trkpt><trkpt lat="43.4893906" lon="10.924853"><ele>428.66666666666663</ele><time>2026-04-18T09:01:15.344Z</time></trkpt><trkpt lat="43.4893296" lon="10.9248927"><ele>426.3333333333333</ele><time>2026-04-18T09:01:16.343Z</time></trkpt><trkpt lat="43.4892716" lon="10.9249373"><ele>424.0</ele><time>2026-04-18T09:01:17.343Z</time></trkpt><trkpt lat="43.4891773" lon="10.9250652"><ele>421.66666666666663</ele><time>2026-04-18T09:01:19.343Z</time></trkpt><trkpt lat="43.4891377" lon="10.9251689"><ele>419.3333333333333</ele><time>2026-04-18T09:01:20.346Z</time></trkpt><trkpt lat="43.4891127" lon="10.9252914"><ele>417.0</ele><time>2026-04-18T09:01:21.343Z</time></trkpt><trkpt lat="43.4891036" lon="10.9254341"><ele>417.0</ele><time>2026-04-18T09:01:22.343Z</time></trkpt><trkpt lat="43.4890986" lon="10.9255849"><ele>417.0</ele><time>2026-04-18T09:01:23.342Z</time></trkpt><trkpt lat="43.4890856" lon="10.925733"><ele>417.0</ele><time>2026-04-18T09:01:24.343Z</time></trkpt><trkpt lat="43.48906" lon="10.9258747"><ele>417.0</ele><time>2026-04-18T09:01:25.343Z</time></trkpt><trkpt lat="43.4890219" lon="10.9260081"><ele>417.0</ele><time>2026-04-18T09:01:26.345Z</time></trkpt><trkpt lat="43.4889659" lon="10.9261281"><ele>418.6</ele><time>2026-04-18T09:01:27.343Z</time></trkpt><trkpt lat="43.4888956" lon="10.926231"><ele>420.20000000000005</ele><time>2026-04-18T09:01:28.344Z</time></trkpt><trkpt lat="43.4888138" lon="10.9263108"><ele>421.8</ele><time>2026-04-18T09:01:29.344Z</time></trkpt><trkpt lat="43.4887016" lon="10.9263814"><ele>423.4</ele><time>2026-04-18T09:01:30.343Z</time></trkpt><trkpt lat="43.4885948" lon="10.9264371"><ele>425.0</ele><time>2026-04-18T09:01:31.343Z</time></trkpt><trkpt lat="43.48849" lon="10.9264849"><ele>422.8</ele><time>2026-04-18T09:01:32.344Z</time></trkpt><trkpt lat="43.4883922" lon="10.926528"><ele>420.6</ele><time>2026-04-18T09:01:33.344Z</time></trkpt><trkpt lat="43.4882991" lon="10.9265638"><ele>418.4</ele><time>2026-04-18T09:01:34.343Z</time></trkpt><trkpt lat="43.4882066" lon="10.9266026"><ele>416.2</ele><time>2026-04-18T09:01:35.343Z</time></trkpt><trkpt lat="43.4881182" lon="10.9266595"><ele>414.0</ele><time>2026-04-18T09:01:36.343Z</time></trkpt><trkpt lat="43.4880363" lon="10.9267397"><ele>414.0</ele><time>2026-04-18T09:01:37.342Z</time></trkpt><trkpt lat="43.4879671" lon="10.9268296"><ele>414.0</ele><time>2026-04-18T09:01:38.343Z</time></trkpt><trkpt lat="43.4879159" lon="10.9269193"><ele>414.0</ele><time>2026-04-18T09:01:39.343Z</time></trkpt><trkpt lat="43.4878691" lon="10.927009"><ele>414.0</ele><time>2026-04-18T09:01:40.343Z</time></trkpt><trkpt lat="43.4878246" lon="10.9270925"><ele>414.0</ele><time>2026-04-18T09:01:41.344Z</time></trkpt><trkpt lat="43.4877741" lon="10.9271619"><ele>414.0</ele><time>2026-04-18T09:01:42.343Z</time></trkpt><trkpt lat="43.4877217" lon="10.9272109"><ele>411.0</ele><time>2026-04-18T09:01:43.342Z</time></trkpt><trkpt lat="43.4876173" lon="10.9271564"><ele>408.0</ele><time>2026-04-18T09:01:45.344Z</time></trkpt><trkpt lat="43.4875717" lon="10.9270734"><ele>405.0</ele><time>2026-04-18T09:01:46.346Z</time></trkpt><trkpt lat="43.4875394" lon="10.9269916"><ele>402.0</ele><time>2026-04-18T09:01:47.345Z</time></trkpt><trkpt lat="43.4875262" lon="10.9269021"><ele>399.0</ele><time>2026-04-18T09:01:48.342Z</time></trkpt><trkpt lat="43.4875346" lon="10.9267906"><ele>396.0</ele><time>2026-04-18T09:01:49.343Z</time></trkpt><trkpt lat="43.4875396" lon="10.9266752"><ele>395.3333333333333</ele><time>2026-04-18T09:01:50.344Z</time></trkpt><trkpt lat="43.4875258" lon="10.9265647"><ele>394.66666666666663</ele><time>2026-04-18T09:01:51.344Z</time></trkpt><trkpt lat="43.4874974" lon="10.9264666"><ele>394.0</ele><time>2026-04-18T09:01:52.343Z</time></trkpt><trkpt lat="43.4874581" lon="10.9263853"><ele>393.3333333333333</ele><time>2026-04-18T09:01:53.343Z</time></trkpt><trkpt lat="43.4873988" lon="10.9263373"><ele>392.66666666666663</ele><time>2026-04-18T09:01:54.343Z</time></trkpt><trkpt lat="43.4873305" lon="10.926309"><ele>392.0</ele><time>2026-04-18T09:01:55.343Z</time></trkpt><trkpt lat="43.4872276" lon="10.9263084"><ele>392.0</ele><time>2026-04-18T09:01:56.344Z</time></trkpt><trkpt lat="43.4871209" lon="10.9263069"><ele>392.0</ele><time>2026-04-18T09:01:57.344Z</time></trkpt><trkpt lat="43.4870105" lon="10.9262978"><ele>392.0</ele><time>2026-04-18T09:01:58.344Z</time></trkpt><trkpt lat="43.4868919" lon="10.9262807"><ele>392.0</ele><time>2026-04-18T09:01:59.344Z</time></trkpt><trkpt lat="43.4867695" lon="10.9262663"><ele>388.5</ele><time>2026-04-18T09:02:00.346Z</time></trkpt><trkpt lat="43.4866429" lon="10.9262522"><ele>385.0</ele><time>2026-04-18T09:02:01.345Z</time></trkpt><trkpt lat="43.4865069" lon="10.9262363"><ele>381.5</ele><time>2026-04-18T09:02:02.344Z</time></trkpt><trkpt lat="43.486361" lon="10.926228"><ele>378.0</ele><time>2026-04-18T09:02:03.344Z</time></trkpt><trkpt lat="43.4862227" lon="10.9262225"><ele>377.5</ele><time>2026-04-18T09:02:04.343Z</time></trkpt><trkpt lat="43.4860857" lon="10.9262241"><ele>377.0</ele><time>2026-04-18T09:02:05.345Z</time></trkpt><trkpt lat="43.4859457" lon="10.9262311"><ele>376.5</ele><time>2026-04-18T09:02:06.342Z</time></trkpt><trkpt lat="43.4858026" lon="10.9262374"><ele>376.0</ele><time>2026-04-18T09:02:07.343Z</time></trkpt><trkpt lat="43.4856641" lon="10.926246"><ele>376.0</ele><time>2026-04-18T09:02:08.345Z</time></trkpt><trkpt lat="43.485536" lon="10.9262524"><ele>376.0</ele><time>2026-04-18T09:02:09.343Z</time></trkpt><trkpt lat="43.4854106" lon="10.9262585"><ele>376.0</ele><time>2026-04-18T09:02:10.342Z</time></trkpt><trkpt lat="43.4852971" lon="10.9262578"><ele>376.0</ele><time>2026-04-18T09:02:11.342Z</time></trkpt><trkpt lat="43.4851934" lon="10.9262423"><ele>374.4</ele><time>2026-04-18T09:02:12.343Z</time></trkpt><trkpt lat="43.4851015" lon="10.9262031"><ele>372.8</ele><time>2026-04-18T09:02:13.343Z</time></trkpt><trkpt lat="43.4850166" lon="10.9261372"><ele>371.2</ele><time>2026-04-18T09:02:14.343Z</time></trkpt><trkpt lat="43.4849313" lon="10.9260481"><ele>369.59999999999997</ele><time>2026-04-18T09:02:15.343Z</time></trkpt><trkpt lat="43.4848494" lon="10.9259449"><ele>368.0</ele><time>2026-04-18T09:02:16.342Z</time></trkpt><trkpt lat="43.4847737" lon="10.925839"><ele>368.0</ele><time>2026-04-18T09:02:17.342Z</time></trkpt><trkpt lat="43.4847038" lon="10.925743"><ele>368.0</ele><time>2026-04-18T09:02:18.346Z</time></trkpt><trkpt lat="43.4846364" lon="10.9256564"><ele>368.0</ele><time>2026-04-18T09:02:19.343Z</time></trkpt><trkpt lat="43.4845671" lon="10.9255821"><ele>368.0</ele><time>2026-04-18T09:02:20.345Z</time></trkpt><trkpt lat="43.4844907" lon="10.9255234"><ele>368.0</ele><time>2026-04-18T09:02:21.343Z</time></trkpt><trkpt lat="43.4844018" lon="10.9254884"><ele>367.0</ele><time>2026-04-18T09:02:22.343Z</time></trkpt><trkpt lat="43.4842993" lon="10.9254851"><ele>366.0</ele><time>2026-04-18T09:02:23.343Z</time></trkpt><trkpt lat="43.4841884" lon="10.9255043"><ele>365.0</ele><time>2026-04-18T09:02:24.345Z</time></trkpt><trkpt lat="43.4840756" lon="10.9255387"><ele>364.0</ele><time>2026-04-18T09:02:25.343Z</time></trkpt><trkpt lat="43.4839679" lon="10.9255903"><ele>363.0</ele><time>2026-04-18T09:02:26.345Z</time></trkpt><trkpt lat="43.4838646" lon="10.9256645"><ele>363.0</ele><time>2026-04-18T09:02:27.344Z</time></trkpt><trkpt lat="43.4837647" lon="10.9257582"><ele>363.0</ele><time>2026-04-18T09:02:28.343Z</time></trkpt><trkpt lat="43.4836711" lon="10.9258719"><ele>363.0</ele><time>2026-04-18T09:02:29.343Z</time></trkpt><trkpt lat="43.4835764" lon="10.9259861"><ele>363.0</ele><time>2026-04-18T09:02:30.343Z</time></trkpt><trkpt lat="43.4834803" lon="10.9260965"><ele>360.5</ele><time>2026-04-18T09:02:31.343Z</time></trkpt><trkpt lat="43.4833744" lon="10.9261966"><ele>358.0</ele><time>2026-04-18T09:02:32.344Z</time></trkpt><trkpt lat="43.4832615" lon="10.9262782"><ele>355.5</ele><time>2026-04-18T09:02:33.345Z</time></trkpt><trkpt lat="43.4831394" lon="10.9263472"><ele>353.0</ele><time>2026-04-18T09:02:34.345Z</time></trkpt><trkpt lat="43.4830168" lon="10.9264103"><ele>352.75</ele><time>2026-04-18T09:02:35.343Z</time></trkpt><trkpt lat="43.4828887" lon="10.9264672"><ele>352.5</ele><time>2026-04-18T09:02:36.342Z</time></trkpt><trkpt lat="43.4827646" lon="10.9265187"><ele>352.25</ele><time>2026-04-18T09:02:37.342Z</time></trkpt><trkpt lat="43.4826507" lon="10.9265601"><ele>352.0</ele><time>2026-04-18T09:02:38.345Z</time></trkpt><trkpt lat="43.4825442" lon="10.9266048"><ele>352.0</ele><time>2026-04-18T09:02:39.346Z</time></trkpt><trkpt lat="43.4824368" lon="10.9266621"><ele>352.0</ele><time>2026-04-18T09:02:40.345Z</time></trkpt><trkpt lat="43.4823313" lon="10.926734"><ele>352.0</ele><time>2026-04-18T09:02:41.342Z</time></trkpt><trkpt lat="43.4822282" lon="10.9268342"><ele>352.0</ele><time>2026-04-18T09:02:42.342Z</time></trkpt><trkpt lat="43.4821281" lon="10.9269565"><ele>350.75</ele><time>2026-04-18T09:02:43.343Z</time></trkpt><trkpt lat="43.4820329" lon="10.9270865"><ele>349.5</ele><time>2026-04-18T09:02:44.343Z</time></trkpt><trkpt lat="43.4819368" lon="10.9272013"><ele>348.25</ele><time>2026-04-18T09:02:45.344Z</time></trkpt><trkpt lat="43.4818381" lon="10.9272938"><ele>347.0</ele><time>2026-04-18T09:02:46.343Z</time></trkpt><trkpt lat="43.4817422" lon="10.927359"><ele>347.0</ele><time>2026-04-18T09:02:47.341Z</time></trkpt><trkpt lat="43.4816475" lon="10.9273888"><ele>347.0</ele><time>2026-04-18T09:02:48.343Z</time></trkpt><trkpt lat="43.4815465" lon="10.9273905"><ele>347.0</ele><time>2026-04-18T09:02:49.342Z</time></trkpt><trkpt lat="43.4814295" lon="10.9273736"><ele>347.0</ele><time>2026-04-18T09:02:50.344Z</time></trkpt><trkpt lat="43.4813044" lon="10.9273483"><ele>347.0</ele><time>2026-04-18T09:02:51.343Z</time></trkpt><trkpt lat="43.4811729" lon="10.9273183"><ele>346.25</ele><time>2026-04-18T09:02:52.342Z</time></trkpt><trkpt lat="43.4810374" lon="10.9272862"><ele>345.5</ele><time>2026-04-18T09:02:53.342Z</time></trkpt><trkpt lat="43.480893" lon="10.9272627"><ele>344.75</ele><time>2026-04-18T09:02:54.346Z</time></trkpt><trkpt lat="43.4807459" lon="10.9272465"><ele>344.0</ele><time>2026-04-18T09:02:55.344Z</time></trkpt><trkpt lat="43.480594" lon="10.9272289"><ele>344.0</ele><time>2026-04-18T09:02:56.344Z</time></trkpt><trkpt lat="43.480445" lon="10.9272093"><ele>344.0</ele><time>2026-04-18T09:02:57.344Z</time></trkpt><trkpt lat="43.4803036" lon="10.9271904"><ele>344.0</ele><time>2026-04-18T09:02:58.343Z</time></trkpt><trkpt lat="43.4801599" lon="10.9271796"><ele>344.0</ele><time>2026-04-18T09:02:59.347Z</time></trkpt><trkpt lat="43.4800177" lon="10.9271733"><ele>343.5</ele><time>2026-04-18T09:03:00.345Z</time></trkpt><trkpt lat="43.4798724" lon="10.9271719"><ele>343.0</ele><time>2026-04-18T09:03:01.343Z</time></trkpt><trkpt lat="43.4797228" lon="10.9271745"><ele>342.5</ele><time>2026-04-18T09:03:02.344Z</time></trkpt><trkpt lat="43.4795693" lon="10.9271817"><ele>342.0</ele><time>2026-04-18T09:03:03.345Z</time></trkpt><trkpt lat="43.4794095" lon="10.9271856"><ele>341.25</ele><time>2026-04-18T09:03:04.345Z</time></trkpt><trkpt lat="43.479253" lon="10.9271891"><ele>340.5</ele><time>2026-04-18T09:03:05.344Z</time></trkpt><trkpt lat="43.4791075" lon="10.9271938"><ele>339.75</ele><time>2026-04-18T09:03:06.345Z</time></trkpt><trkpt lat="43.4789738" lon="10.9271931"><ele>339.0</ele><time>2026-04-18T09:03:07.343Z</time></trkpt><trkpt lat="43.4788496" lon="10.927189"><ele>337.5</ele><time>2026-04-18T09:03:08.342Z</time></trkpt><trkpt lat="43.4787284" lon="10.9271748"><ele>336.0</ele><time>2026-04-18T09:03:09.343Z</time></trkpt><trkpt lat="43.4786001" lon="10.9271372"><ele>334.5</ele><time>2026-04-18T09:03:10.342Z</time></trkpt><trkpt lat="43.4784676" lon="10.9270835"><ele>333.0</ele><time>2026-04-18T09:03:11.344Z</time></trkpt><trkpt lat="43.4783304" lon="10.9270196"><ele>333.0</ele><time>2026-04-18T09:03:12.342Z</time></trkpt><trkpt lat="43.4781949" lon="10.9269528"><ele>333.0</ele><time>2026-04-18T09:03:13.344Z</time></trkpt><trkpt lat="43.4780615" lon="10.9268884"><ele>333.0</ele><time>2026-04-18T09:03:14.343Z</time></trkpt><trkpt lat="43.4779273" lon="10.9268313"><ele>333.0</ele><time>2026-04-18T09:03:15.343Z</time></trkpt><trkpt lat="43.4778008" lon="10.9267785"><ele>334.0</ele><time>2026-04-18T09:03:16.343Z</time></trkpt><trkpt lat="43.4776785" lon="10.926723"><ele>335.0</ele><time>2026-04-18T09:03:17.345Z</time></trkpt><trkpt lat="43.4775546" lon="10.9266611"><ele>336.0</ele><time>2026-04-18T09:03:18.342Z</time></trkpt><trkpt lat="43.4774312" lon="10.9265932"><ele>337.0</ele><time>2026-04-18T09:03:19.342Z</time></trkpt><trkpt lat="43.4773109" lon="10.9265216"><ele>337.0</ele><time>2026-04-18T09:03:20.342Z</time></trkpt><trkpt lat="43.4771898" lon="10.926443"><ele>337.0</ele><time>2026-04-18T09:03:21.342Z</time></trkpt><trkpt lat="43.477067" lon="10.9263586"><ele>337.0</ele><time>2026-04-18T09:03:22.342Z</time></trkpt><trkpt lat="43.4769397" lon="10.92627"><ele>337.0</ele><time>2026-04-18T09:03:23.343Z</time></trkpt><trkpt lat="43.4768208" lon="10.9261811"><ele>336.0</ele><time>2026-04-18T09:03:24.344Z</time></trkpt><trkpt lat="43.4767052" lon="10.9260969"><ele>335.0</ele><time>2026-04-18T09:03:25.343Z</time></trkpt><trkpt lat="43.4765924" lon="10.9260187"><ele>334.0</ele><time>2026-04-18T09:03:26.344Z</time></trkpt><trkpt lat="43.4764842" lon="10.9259461"><ele>333.0</ele><time>2026-04-18T09:03:27.347Z</time></trkpt><trkpt lat="43.476378" lon="10.9258706"><ele>333.0</ele><time>2026-04-18T09:03:28.342Z</time></trkpt><trkpt lat="43.4762747" lon="10.9258028"><ele>333.0</ele><time>2026-04-18T09:03:29.343Z</time></trkpt><trkpt lat="43.4761746" lon="10.925747"><ele>333.0</ele><time>2026-04-18T09:03:30.342Z</time></trkpt><trkpt lat="43.4760676" lon="10.9257064"><ele>333.0</ele><time>2026-04-18T09:03:31.342Z</time></trkpt><trkpt lat="43.4759526" lon="10.9256861"><ele>333.0</ele><time>2026-04-18T09:03:32.342Z</time></trkpt><trkpt lat="43.4758308" lon="10.9256933"><ele>331.0</ele><time>2026-04-18T09:03:33.343Z</time></trkpt><trkpt lat="43.4756948" lon="10.9257239"><ele>329.0</ele><time>2026-04-18T09:03:34.342Z</time></trkpt><trkpt lat="43.4755484" lon="10.9257689"><ele>327.0</ele><time>2026-04-18T09:03:35.343Z</time></trkpt><trkpt lat="43.4753963" lon="10.9258181"><ele>325.0</ele><time>2026-04-18T09:03:36.345Z</time></trkpt><trkpt lat="43.4752456" lon="10.9258616"><ele>318.75</ele><time>2026-04-18T09:03:37.342Z</time></trkpt><trkpt lat="43.4750967" lon="10.9259011"><ele>312.5</ele><time>2026-04-18T09:03:38.343Z</time></trkpt><trkpt lat="43.4749546" lon="10.92594"><ele>306.25</ele><time>2026-04-18T09:03:39.346Z</time></trkpt><trkpt lat="43.4748176" lon="10.925971"><ele>300.0</ele><time>2026-04-18T09:03:40.346Z</time></trkpt><trkpt lat="43.4746934" lon="10.9259948"><ele>301.4</ele><time>2026-04-18T09:03:41.342Z</time></trkpt><trkpt lat="43.4745788" lon="10.9260103"><ele>302.8</ele><time>2026-04-18T09:03:42.343Z</time></trkpt><trkpt lat="43.4744762" lon="10.9260094"><ele>304.2</ele><time>2026-04-18T09:03:43.345Z</time></trkpt><trkpt lat="43.4743908" lon="10.9259891"><ele>305.6</ele><time>2026-04-18T09:03:44.343Z</time></trkpt><trkpt lat="43.4743193" lon="10.9259554"><ele>307.0</ele><time>2026-04-18T09:03:45.344Z</time></trkpt><trkpt lat="43.4742197" lon="10.9258861"><ele>307.0</ele><time>2026-04-18T09:03:47.342Z</time></trkpt><trkpt lat="43.4742456" lon="10.925807"><ele>307.0</ele><time>2026-04-18T09:15:49.343Z</time></trkpt><trkpt lat="43.4741819" lon="10.9257519"><ele>307.0</ele><time>2026-04-18T09:15:53.342Z</time></trkpt><trkpt lat="43.4741124" lon="10.9256754"><ele>307.0</ele><time>2026-04-18T09:15:56.344Z</time></trkpt><trkpt lat="43.4740491" lon="10.9256037"><ele>307.0</ele><time>2026-04-18T09:15:58.346Z</time></trkpt><trkpt lat="43.4739576" lon="10.9254891"><ele>307.0</ele><time>2026-04-18T09:16:00.343Z</time></trkpt><trkpt lat="43.4739007" lon="10.9254114"><ele>307.0</ele><time>2026-04-18T09:16:01.344Z</time></trkpt><trkpt lat="43.4738373" lon="10.9253171"><ele>307.0</ele><time>2026-04-18T09:16:02.352Z</time></trkpt><trkpt lat="43.4737724" lon="10.9252107"><ele>307.0</ele><time>2026-04-18T09:16:03.343Z</time></trkpt><trkpt lat="43.4737102" lon="10.925103"><ele>307.0</ele><time>2026-04-18T09:16:04.342Z</time></trkpt><trkpt lat="43.4736501" lon="10.9249892"><ele>307.0</ele><time>2026-04-18T09:16:05.343Z</time></trkpt><trkpt lat="43.4735953" lon="10.9248681"><ele>305.4</ele><time>2026-04-18T09:16:06.347Z</time></trkpt><trkpt lat="43.4735422" lon="10.9247554"><ele>303.79999999999995</ele><time>2026-04-18T09:16:07.343Z</time></trkpt><trkpt lat="43.4734935" lon="10.9246508"><ele>302.2</ele><time>2026-04-18T09:16:08.346Z</time></trkpt><trkpt lat="43.4734426" lon="10.9245513"><ele>300.59999999999997</ele><time>2026-04-18T09:16:09.343Z</time></trkpt><trkpt lat="43.4733844" lon="10.9244593"><ele>299.0</ele><time>2026-04-18T09:16:10.343Z</time></trkpt><trkpt lat="43.4733195" lon="10.9243747"><ele>299.0</ele><time>2026-04-18T09:16:11.345Z</time></trkpt><trkpt lat="43.4732436" lon="10.9242905"><ele>299.0</ele><time>2026-04-18T09:16:12.343Z</time></trkpt><trkpt lat="43.473158" lon="10.9242112"><ele>299.0</ele><time>2026-04-18T09:16:13.345Z</time></trkpt><trkpt lat="43.4730635" lon="10.9241346"><ele>299.0</ele><time>2026-04-18T09:16:14.343Z</time></trkpt><trkpt lat="43.4729643" lon="10.9240567"><ele>299.0</ele><time>2026-04-18T09:16:15.344Z</time></trkpt><trkpt lat="43.4728592" lon="10.9239776"><ele>296.5</ele><time>2026-04-18T09:16:16.343Z</time></trkpt><trkpt lat="43.4727571" lon="10.9238944"><ele>294.0</ele><time>2026-04-18T09:16:17.343Z</time></trkpt><trkpt lat="43.4726522" lon="10.9238189"><ele>291.5</ele><time>2026-04-18T09:16:18.345Z</time></trkpt><trkpt lat="43.4725579" lon="10.9237465"><ele>289.0</ele><time>2026-04-18T09:16:19.343Z</time></trkpt><trkpt lat="43.4724651" lon="10.9236761"><ele>289.0</ele><time>2026-04-18T09:16:20.349Z</time></trkpt><trkpt lat="43.4723774" lon="10.9236079"><ele>289.0</ele><time>2026-04-18T09:16:21.346Z</time></trkpt><trkpt lat="43.4723004" lon="10.923541"><ele>289.0</ele><time>2026-04-18T09:16:22.341Z</time></trkpt><trkpt lat="43.4722333" lon="10.9234693"><ele>289.0</ele><time>2026-04-18T09:16:23.342Z</time></trkpt><trkpt lat="43.4721813" lon="10.9233903"><ele>289.0</ele><time>2026-04-18T09:16:24.343Z</time></trkpt><trkpt lat="43.4721484" lon="10.9232951"><ele>289.0</ele><time>2026-04-18T09:16:25.343Z</time></trkpt><trkpt lat="43.4721331" lon="10.9231986"><ele>289.8</ele><time>2026-04-18T09:16:26.344Z</time></trkpt><trkpt lat="43.472132" lon="10.9230978"><ele>290.59999999999997</ele><time>2026-04-18T09:16:27.343Z</time></trkpt><trkpt lat="43.4721509" lon="10.922993"><ele>291.4</ele><time>2026-04-18T09:16:28.342Z</time></trkpt><trkpt lat="43.4721981" lon="10.9228793"><ele>292.2</ele><time>2026-04-18T09:16:29.343Z</time></trkpt><trkpt lat="43.4722656" lon="10.9227638"><ele>293.0</ele><time>2026-04-18T09:16:30.343Z</time></trkpt><trkpt lat="43.4723497" lon="10.9226469"><ele>290.25</ele><time>2026-04-18T09:16:31.341Z</time></trkpt><trkpt lat="43.4724474" lon="10.9225294"><ele>287.5</ele><time>2026-04-18T09:16:32.341Z</time></trkpt><trkpt lat="43.4725499" lon="10.9224112"><ele>284.75</ele><time>2026-04-18T09:16:33.343Z</time></trkpt><trkpt lat="43.4726563" lon="10.9222931"><ele>282.0</ele><time>2026-04-18T09:16:34.347Z</time></trkpt><trkpt lat="43.4727531" lon="10.9221775"><ele>282.0</ele><time>2026-04-18T09:16:35.346Z</time></trkpt><trkpt lat="43.4728408" lon="10.9220564"><ele>282.0</ele><time>2026-04-18T09:16:36.341Z</time></trkpt><trkpt lat="43.4729258" lon="10.9219334"><ele>282.0</ele><time>2026-04-18T09:16:37.343Z</time></trkpt><trkpt lat="43.4730026" lon="10.9218155"><ele>282.0</ele><time>2026-04-18T09:16:38.343Z</time></trkpt><trkpt lat="43.4730711" lon="10.9217066"><ele>281.6</ele><time>2026-04-18T09:16:39.343Z</time></trkpt><trkpt lat="43.4731385" lon="10.9215962"><ele>281.2</ele><time>2026-04-18T09:16:40.343Z</time></trkpt><trkpt lat="43.4732001" lon="10.9214874"><ele>280.8</ele><time>2026-04-18T09:16:41.343Z</time></trkpt><trkpt lat="43.4732557" lon="10.9213826"><ele>280.4</ele><time>2026-04-18T09:16:42.343Z</time></trkpt><trkpt lat="43.4733028" lon="10.9212737"><ele>280.0</ele><time>2026-04-18T09:16:43.343Z</time></trkpt><trkpt lat="43.4733413" lon="10.9211507"><ele>280.0</ele><time>2026-04-18T09:16:44.344Z</time></trkpt><trkpt lat="43.4733736" lon="10.9210108"><ele>280.0</ele><time>2026-04-18T09:16:45.349Z</time></trkpt><trkpt lat="43.473397" lon="10.9208602"><ele>280.0</ele><time>2026-04-18T09:16:46.342Z</time></trkpt><trkpt lat="43.4734214" lon="10.9207161"><ele>280.0</ele><time>2026-04-18T09:16:47.343Z</time></trkpt><trkpt lat="43.473439" lon="10.9205867"><ele>280.0</ele><time>2026-04-18T09:16:48.343Z</time></trkpt><trkpt lat="43.4734493" lon="10.9204674"><ele>278.3333333333333</ele><time>2026-04-18T09:16:49.342Z</time></trkpt><trkpt lat="43.4734478" lon="10.9203541"><ele>276.66666666666663</ele><time>2026-04-18T09:16:50.343Z</time></trkpt><trkpt lat="43.4734359" lon="10.9202428"><ele>275.0</ele><time>2026-04-18T09:16:51.343Z</time></trkpt><trkpt lat="43.4734127" lon="10.920138"><ele>273.3333333333333</ele><time>2026-04-18T09:16:52.343Z</time></trkpt><trkpt lat="43.473378" lon="10.9200334"><ele>271.6666666666667</ele><time>2026-04-18T09:16:53.342Z</time></trkpt><trkpt lat="43.4733274" lon="10.9199334"><ele>270.0</ele><time>2026-04-18T09:16:54.347Z</time></trkpt><trkpt lat="43.4732645" lon="10.9198418"><ele>268.6</ele><time>2026-04-18T09:16:55.342Z</time></trkpt><trkpt lat="43.4731854" lon="10.9197616"><ele>267.2</ele><time>2026-04-18T09:16:56.344Z</time></trkpt><trkpt lat="43.4731126" lon="10.9196753"><ele>265.8</ele><time>2026-04-18T09:16:57.345Z</time></trkpt><trkpt lat="43.4730483" lon="10.9195857"><ele>264.4</ele><time>2026-04-18T09:16:58.342Z</time></trkpt><trkpt lat="43.4729974" lon="10.9194859"><ele>263.0</ele><time>2026-04-18T09:16:59.343Z</time></trkpt><trkpt lat="43.4729589" lon="10.9193695"><ele>262.4</ele><time>2026-04-18T09:17:00.342Z</time></trkpt><trkpt lat="43.4729361" lon="10.9192413"><ele>261.8</ele><time>2026-04-18T09:17:01.343Z</time></trkpt><trkpt lat="43.4729164" lon="10.9191008"><ele>261.2</ele><time>2026-04-18T09:17:02.346Z</time></trkpt><trkpt lat="43.4728966" lon="10.918958"><ele>260.6</ele><time>2026-04-18T09:17:03.345Z</time></trkpt><trkpt lat="43.4728707" lon="10.9188207"><ele>260.0</ele><time>2026-04-18T09:17:04.346Z</time></trkpt><trkpt lat="43.4728375" lon="10.9187"><ele>258.8</ele><time>2026-04-18T09:17:05.345Z</time></trkpt><trkpt lat="43.4727989" lon="10.9185849"><ele>257.6</ele><time>2026-04-18T09:17:06.346Z</time></trkpt><trkpt lat="43.4727494" lon="10.9184626"><ele>256.4</ele><time>2026-04-18T09:17:07.342Z</time></trkpt><trkpt lat="43.4726924" lon="10.9183343"><ele>255.2</ele><time>2026-04-18T09:17:08.346Z</time></trkpt><trkpt lat="43.4726299" lon="10.9182035"><ele>254.0</ele><time>2026-04-18T09:17:09.344Z</time></trkpt><trkpt lat="43.4725693" lon="10.9180753"><ele>252.79999999999998</ele><time>2026-04-18T09:17:10.346Z</time></trkpt><trkpt lat="43.4725099" lon="10.9179547"><ele>251.59999999999997</ele><time>2026-04-18T09:17:11.343Z</time></trkpt><trkpt lat="43.4724512" lon="10.9178412"><ele>250.4</ele><time>2026-04-18T09:17:12.347Z</time></trkpt><trkpt lat="43.4723929" lon="10.9177286"><ele>249.2</ele><time>2026-04-18T09:17:13.345Z</time></trkpt><trkpt lat="43.4723408" lon="10.917621"><ele>248.0</ele><time>2026-04-18T09:17:14.345Z</time></trkpt><trkpt lat="43.4722868" lon="10.9175226"><ele>247.4</ele><time>2026-04-18T09:17:15.345Z</time></trkpt><trkpt lat="43.4722302" lon="10.9174311"><ele>246.8</ele><time>2026-04-18T09:17:16.342Z</time></trkpt><trkpt lat="43.4721672" lon="10.9173516"><ele>246.2</ele><time>2026-04-18T09:17:17.343Z</time></trkpt><trkpt lat="43.4720949" lon="10.9172821"><ele>245.6</ele><time>2026-04-18T09:17:18.343Z</time></trkpt><trkpt lat="43.4720098" lon="10.9172204"><ele>245.0</ele><time>2026-04-18T09:17:19.343Z</time></trkpt><trkpt lat="43.4719208" lon="10.91717"><ele>244.0</ele><time>2026-04-18T09:17:20.344Z</time></trkpt><trkpt lat="43.4718331" lon="10.9171346"><ele>243.0</ele><time>2026-04-18T09:17:21.346Z</time></trkpt><trkpt lat="43.4717502" lon="10.917114"><ele>242.0</ele><time>2026-04-18T09:17:22.343Z</time></trkpt><trkpt lat="43.4716642" lon="10.917113"><ele>241.0</ele><time>2026-04-18T09:17:23.343Z</time></trkpt><trkpt lat="43.471573" lon="10.9171346"><ele>240.0</ele><time>2026-04-18T09:17:24.342Z</time></trkpt><trkpt lat="43.471478" lon="10.9171804"><ele>240.0</ele><time>2026-04-18T09:17:25.342Z</time></trkpt><trkpt lat="43.4713829" lon="10.9172514"><ele>240.0</ele><time>2026-04-18T09:17:26.343Z</time></trkpt><trkpt lat="43.4712846" lon="10.917352"><ele>240.0</ele><time>2026-04-18T09:17:27.346Z</time></trkpt><trkpt lat="43.4711793" lon="10.9174596"><ele>240.0</ele><time>2026-04-18T09:17:28.342Z</time></trkpt><trkpt lat="43.4710693" lon="10.9175706"><ele>239.5</ele><time>2026-04-18T09:17:29.345Z</time></trkpt><trkpt lat="43.4709486" lon="10.9176963"><ele>239.0</ele><time>2026-04-18T09:17:30.344Z</time></trkpt><trkpt lat="43.470832" lon="10.91782"><ele>238.5</ele><time>2026-04-18T09:17:31.343Z</time></trkpt><trkpt lat="43.4707152" lon="10.9179394"><ele>238.0</ele><time>2026-04-18T09:17:32.343Z</time></trkpt><trkpt lat="43.4706072" lon="10.9180497"><ele>238.0</ele><time>2026-04-18T09:17:33.343Z</time></trkpt><trkpt lat="43.470501" lon="10.9181629"><ele>238.0</ele><time>2026-04-18T09:17:34.343Z</time></trkpt><trkpt lat="43.4704039" lon="10.918268"><ele>238.0</ele><time>2026-04-18T09:17:35.344Z</time></trkpt><trkpt lat="43.4703145" lon="10.9183587"><ele>238.0</ele><time>2026-04-18T09:17:36.344Z</time></trkpt><trkpt lat="43.4702347" lon="10.9184343"><ele>236.99999999999997</ele><time>2026-04-18T09:17:37.343Z</time></trkpt><trkpt lat="43.4701582" lon="10.9184799"><ele>236.0</ele><time>2026-04-18T09:17:38.343Z</time></trkpt><trkpt lat="43.4700801" lon="10.9185044"><ele>235.0</ele><time>2026-04-18T09:17:39.344Z</time></trkpt><trkpt lat="43.4700087" lon="10.918509"><ele>234.0</ele><time>2026-04-18T09:17:40.343Z</time></trkpt><trkpt lat="43.4699348" lon="10.9184947"><ele>232.99999999999997</ele><time>2026-04-18T09:17:41.345Z</time></trkpt><trkpt lat="43.4698726" lon="10.9184353"><ele>232.0</ele><time>2026-04-18T09:17:42.345Z</time></trkpt><trkpt lat="43.4698379" lon="10.9183455"><ele>230.8</ele><time>2026-04-18T09:17:43.346Z</time></trkpt><trkpt lat="43.4698333" lon="10.9182386"><ele>229.6</ele><time>2026-04-18T09:17:44.342Z</time></trkpt><trkpt lat="43.4698507" lon="10.9181136"><ele>228.40000000000003</ele><time>2026-04-18T09:17:45.344Z</time></trkpt><trkpt lat="43.469882" lon="10.9179748"><ele>227.20000000000002</ele><time>2026-04-18T09:17:46.343Z</time></trkpt><trkpt lat="43.4699118" lon="10.9178395"><ele>226.0</ele><time>2026-04-18T09:17:47.343Z</time></trkpt><trkpt lat="43.4699364" lon="10.9177042"><ele>225.99999999999997</ele><time>2026-04-18T09:17:48.346Z</time></trkpt><trkpt lat="43.469939" lon="10.9175805"><ele>226.0</ele><time>2026-04-18T09:17:49.349Z</time></trkpt><trkpt lat="43.4699258" lon="10.917466"><ele>226.0</ele><time>2026-04-18T09:17:50.343Z</time></trkpt><trkpt lat="43.4699111" lon="10.9173581"><ele>226.0</ele><time>2026-04-18T09:17:51.346Z</time></trkpt><trkpt lat="43.4698767" lon="10.9172656"><ele>225.99999999999997</ele><time>2026-04-18T09:17:52.342Z</time></trkpt><trkpt lat="43.4698238" lon="10.9171887"><ele>226.0</ele><time>2026-04-18T09:17:53.343Z</time></trkpt><trkpt lat="43.4697525" lon="10.9171401"><ele>224.5</ele><time>2026-04-18T09:17:54.344Z</time></trkpt><trkpt lat="43.4696607" lon="10.9171217"><ele>223.0</ele><time>2026-04-18T09:17:55.344Z</time></trkpt><trkpt lat="43.4695498" lon="10.9171196"><ele>221.5</ele><time>2026-04-18T09:17:56.343Z</time></trkpt><trkpt lat="43.4693944" lon="10.9171361"><ele>220.0</ele><time>2026-04-18T09:17:57.343Z</time></trkpt><trkpt lat="43.4692227" lon="10.9171525"><ele>217.5</ele><time>2026-04-18T09:17:58.343Z</time></trkpt><trkpt lat="43.4690625" lon="10.9171583"><ele>215.0</ele><time>2026-04-18T09:17:59.345Z</time></trkpt><trkpt lat="43.4689144" lon="10.9171592"><ele>212.5</ele><time>2026-04-18T09:18:00.347Z</time></trkpt><trkpt lat="43.4687774" lon="10.9171566"><ele>210.0</ele><time>2026-04-18T09:18:01.341Z</time></trkpt><trkpt lat="43.4686424" lon="10.9171604"><ele>208.25</ele><time>2026-04-18T09:18:02.343Z</time></trkpt><trkpt lat="43.468514" lon="10.9171539"><ele>206.5</ele><time>2026-04-18T09:18:03.344Z</time></trkpt><trkpt lat="43.4683923" lon="10.9171339"><ele>204.75</ele><time>2026-04-18T09:18:04.347Z</time></trkpt><trkpt lat="43.4682754" lon="10.9170953"><ele>203.0</ele><time>2026-04-18T09:18:05.347Z</time></trkpt><trkpt lat="43.4681589" lon="10.917037"><ele>203.0</ele><time>2026-04-18T09:18:06.342Z</time></trkpt><trkpt lat="43.4680442" lon="10.9169705"><ele>203.0</ele><time>2026-04-18T09:18:07.343Z</time></trkpt><trkpt lat="43.4679365" lon="10.9169015"><ele>203.0</ele><time>2026-04-18T09:18:08.348Z</time></trkpt><trkpt lat="43.4678474" lon="10.9168267"><ele>203.0</ele><time>2026-04-18T09:18:09.344Z</time></trkpt><trkpt lat="43.4677786" lon="10.9167409"><ele>203.0</ele><time>2026-04-18T09:18:10.345Z</time></trkpt><trkpt lat="43.4677288" lon="10.9166359"><ele>201.60000000000002</ele><time>2026-04-18T09:18:11.343Z</time></trkpt><trkpt lat="43.4676949" lon="10.9165156"><ele>200.20000000000002</ele><time>2026-04-18T09:18:12.348Z</time></trkpt><trkpt lat="43.4676844" lon="10.9163912"><ele>198.8</ele><time>2026-04-18T09:18:13.342Z</time></trkpt><trkpt lat="43.4676836" lon="10.9162596"><ele>197.4</ele><time>2026-04-18T09:18:14.343Z</time></trkpt><trkpt lat="43.4677017" lon="10.9161154"><ele>196.0</ele><time>2026-04-18T09:18:15.342Z</time></trkpt><trkpt lat="43.4677342" lon="10.9159541"><ele>194.5</ele><time>2026-04-18T09:18:16.342Z</time></trkpt><trkpt lat="43.4677679" lon="10.9157872"><ele>193.0</ele><time>2026-04-18T09:18:17.347Z</time></trkpt><trkpt lat="43.4678008" lon="10.9156215"><ele>191.5</ele><time>2026-04-18T09:18:18.346Z</time></trkpt><trkpt lat="43.4678282" lon="10.9154627"><ele>190.0</ele><time>2026-04-18T09:18:19.344Z</time></trkpt><trkpt lat="43.4678501" lon="10.9152988"><ele>190.0</ele><time>2026-04-18T09:18:20.344Z</time></trkpt><trkpt lat="43.4678593" lon="10.9151307"><ele>190.0</ele><time>2026-04-18T09:18:21.346Z</time></trkpt><trkpt lat="43.4678511" lon="10.9149467"><ele>190.0</ele><time>2026-04-18T09:18:22.346Z</time></trkpt><trkpt lat="43.4678325" lon="10.9147522"><ele>190.0</ele><time>2026-04-18T09:18:23.346Z</time></trkpt><trkpt lat="43.4678107" lon="10.9145533"><ele>189.25</ele><time>2026-04-18T09:18:24.343Z</time></trkpt><trkpt lat="43.4677886" lon="10.9143527"><ele>188.5</ele><time>2026-04-18T09:18:25.344Z</time></trkpt><trkpt lat="43.4677715" lon="10.9141574"><ele>187.75</ele><time>2026-04-18T09:18:26.343Z</time></trkpt><trkpt lat="43.4677503" lon="10.9139709"><ele>187.0</ele><time>2026-04-18T09:18:27.345Z</time></trkpt><trkpt lat="43.4677327" lon="10.9137912"><ele>186.8</ele><time>2026-04-18T09:18:28.344Z</time></trkpt><trkpt lat="43.4677195" lon="10.9136219"><ele>186.6</ele><time>2026-04-18T09:18:29.345Z</time></trkpt><trkpt lat="43.4677058" lon="10.9134687"><ele>186.4</ele><time>2026-04-18T09:18:30.344Z</time></trkpt><trkpt lat="43.4676884" lon="10.9133291"><ele>186.20000000000002</ele><time>2026-04-18T09:18:31.345Z</time></trkpt><trkpt lat="43.4676649" lon="10.9132021"><ele>186.0</ele><time>2026-04-18T09:18:32.346Z</time></trkpt><trkpt lat="43.4676339" lon="10.9130978"><ele>185.71428571428572</ele><time>2026-04-18T09:18:33.344Z</time></trkpt><trkpt lat="43.4675941" lon="10.9130202"><ele>185.42857142857144</ele><time>2026-04-18T09:18:34.343Z</time></trkpt><trkpt lat="43.4675444" lon="10.9129638"><ele>185.14285714285717</ele><time>2026-04-18T09:18:35.343Z</time></trkpt><trkpt lat="43.4674839" lon="10.912934"><ele>184.85714285714286</ele><time>2026-04-18T09:18:36.345Z</time></trkpt><trkpt lat="43.4674153" lon="10.912928"><ele>184.57142857142856</ele><time>2026-04-18T09:18:37.343Z</time></trkpt><trkpt lat="43.4673519" lon="10.912936"><ele>184.2857142857143</ele><time>2026-04-18T09:18:38.347Z</time></trkpt><trkpt lat="43.4672512" lon="10.9129629"><ele>184.0</ele><time>2026-04-18T09:18:40.342Z</time></trkpt><trkpt lat="43.4671486" lon="10.913003"><ele>184.66666666666669</ele><time>2026-04-18T09:18:42.343Z</time></trkpt><trkpt lat="43.4670862" lon="10.9130265"><ele>185.33333333333334</ele><time>2026-04-18T09:18:43.346Z</time></trkpt><trkpt lat="43.4670226" lon="10.9130488"><ele>186.0</ele><time>2026-04-18T09:18:44.343Z</time></trkpt><trkpt lat="43.4669516" lon="10.9130767"><ele>186.66666666666666</ele><time>2026-04-18T09:18:45.343Z</time></trkpt><trkpt lat="43.4668729" lon="10.9130972"><ele>187.33333333333331</ele><time>2026-04-18T09:18:46.343Z</time></trkpt><trkpt lat="43.4667849" lon="10.9131067"><ele>188.0</ele><time>2026-04-18T09:18:47.343Z</time></trkpt><trkpt lat="43.4666851" lon="10.9131074"><ele>188.0</ele><time>2026-04-18T09:18:48.344Z</time></trkpt><trkpt lat="43.4665721" lon="10.9130955"><ele>188.0</ele><time>2026-04-18T09:18:49.343Z</time></trkpt><trkpt lat="43.4664483" lon="10.9130859"><ele>188.0</ele><time>2026-04-18T09:18:50.343Z</time></trkpt><trkpt lat="43.4663132" lon="10.9130757"><ele>188.0</ele><time>2026-04-18T09:18:51.344Z</time></trkpt><trkpt lat="43.4661716" lon="10.9130585"><ele>189.0</ele><time>2026-04-18T09:18:52.343Z</time></trkpt><trkpt lat="43.4660229" lon="10.9130335"><ele>190.0</ele><time>2026-04-18T09:18:53.342Z</time></trkpt><trkpt lat="43.4658873" lon="10.9130071"><ele>191.0</ele><time>2026-04-18T09:18:54.346Z</time></trkpt><trkpt lat="43.4657705" lon="10.9129867"><ele>192.0</ele><time>2026-04-18T09:18:55.347Z</time></trkpt><trkpt lat="43.4656674" lon="10.912978"><ele>192.0</ele><time>2026-04-18T09:18:56.343Z</time></trkpt><trkpt lat="43.4655715" lon="10.912979"><ele>192.0</ele><time>2026-04-18T09:18:57.343Z</time></trkpt><trkpt lat="43.4654797" lon="10.9129939"><ele>192.0</ele><time>2026-04-18T09:18:58.343Z</time></trkpt><trkpt lat="43.4653845" lon="10.9130315"><ele>192.0</ele><time>2026-04-18T09:18:59.344Z</time></trkpt><trkpt lat="43.4652871" lon="10.9130918"><ele>192.0</ele><time>2026-04-18T09:19:00.345Z</time></trkpt><trkpt lat="43.4651858" lon="10.9131764"><ele>193.0</ele><time>2026-04-18T09:19:01.345Z</time></trkpt><trkpt lat="43.4650843" lon="10.9132791"><ele>194.0</ele><time>2026-04-18T09:19:02.346Z</time></trkpt><trkpt lat="43.4649809" lon="10.9133866"><ele>195.0</ele><time>2026-04-18T09:19:03.343Z</time></trkpt><trkpt lat="43.4648817" lon="10.9135027"><ele>196.0</ele><time>2026-04-18T09:19:04.343Z</time></trkpt><trkpt lat="43.4647833" lon="10.9136188"><ele>196.0</ele><time>2026-04-18T09:19:05.343Z</time></trkpt><trkpt lat="43.4646885" lon="10.913731"><ele>196.0</ele><time>2026-04-18T09:19:06.343Z</time></trkpt><trkpt lat="43.4645948" lon="10.9138282"><ele>196.0</ele><time>2026-04-18T09:19:07.342Z</time></trkpt><trkpt lat="43.4645086" lon="10.9139014"><ele>196.0</ele><time>2026-04-18T09:19:08.346Z</time></trkpt><trkpt lat="43.4644314" lon="10.9139497"><ele>196.0</ele><time>2026-04-18T09:19:09.346Z</time></trkpt><trkpt lat="43.4643556" lon="10.9139757"><ele>195.16666666666666</ele><time>2026-04-18T09:19:10.346Z</time></trkpt><trkpt lat="43.4642781" lon="10.9139795"><ele>194.33333333333331</ele><time>2026-04-18T09:19:11.346Z</time></trkpt><trkpt lat="43.4641966" lon="10.9139655"><ele>193.5</ele><time>2026-04-18T09:19:12.344Z</time></trkpt><trkpt lat="43.4641149" lon="10.9139384"><ele>192.66666666666666</ele><time>2026-04-18T09:19:13.343Z</time></trkpt><trkpt lat="43.4640288" lon="10.9139043"><ele>191.83333333333331</ele><time>2026-04-18T09:19:14.344Z</time></trkpt><trkpt lat="43.4639419" lon="10.9138641"><ele>191.0</ele><time>2026-04-18T09:19:15.345Z</time></trkpt><trkpt lat="43.4638574" lon="10.9138457"><ele>193.0</ele><time>2026-04-18T09:19:16.342Z</time></trkpt><trkpt lat="43.4637768" lon="10.9138437"><ele>195.0</ele><time>2026-04-18T09:19:17.347Z</time></trkpt><trkpt lat="43.46371" lon="10.9138637"><ele>197.0</ele><time>2026-04-18T09:19:18.343Z</time></trkpt><trkpt lat="43.4636466" lon="10.9139043"><ele>199.0</ele><time>2026-04-18T09:19:19.343Z</time></trkpt><trkpt lat="43.4635883" lon="10.9139693"><ele>201.00000000000003</ele><time>2026-04-18T09:19:20.342Z</time></trkpt><trkpt lat="43.463532" lon="10.9140857"><ele>203.0</ele><time>2026-04-18T09:19:21.343Z</time></trkpt><trkpt lat="43.4634688" lon="10.9142235"><ele>201.5</ele><time>2026-04-18T09:19:22.346Z</time></trkpt><trkpt lat="43.4634095" lon="10.9143494"><ele>200.0</ele><time>2026-04-18T09:19:23.346Z</time></trkpt><trkpt lat="43.4633397" lon="10.9144795"><ele>198.5</ele><time>2026-04-18T09:19:24.348Z</time></trkpt><trkpt lat="43.4632729" lon="10.9146149"><ele>197.0</ele><time>2026-04-18T09:19:25.346Z</time></trkpt><trkpt lat="43.4632005" lon="10.9147522"><ele>197.0</ele><time>2026-04-18T09:19:26.346Z</time></trkpt><trkpt lat="43.4631265" lon="10.9148879"><ele>197.0</ele><time>2026-04-18T09:19:27.346Z</time></trkpt><trkpt lat="43.4630488" lon="10.9150172"><ele>197.0</ele><time>2026-04-18T09:19:28.346Z</time></trkpt><trkpt lat="43.4629677" lon="10.9151257"><ele>197.0</ele><time>2026-04-18T09:19:29.344Z</time></trkpt><trkpt lat="43.4628826" lon="10.9152261"><ele>198.75</ele><time>2026-04-18T09:19:30.343Z</time></trkpt><trkpt lat="43.4627926" lon="10.9153117"><ele>200.5</ele><time>2026-04-18T09:19:31.344Z</time></trkpt><trkpt lat="43.46269" lon="10.9153823"><ele>202.25</ele><time>2026-04-18T09:19:32.343Z</time></trkpt><trkpt lat="43.4625822" lon="10.9154478"><ele>204.0</ele><time>2026-04-18T09:19:33.345Z</time></trkpt><trkpt lat="43.4624708" lon="10.9155091"><ele>204.0</ele><time>2026-04-18T09:19:34.344Z</time></trkpt><trkpt lat="43.4623555" lon="10.9155623"><ele>204.0</ele><time>2026-04-18T09:19:35.346Z</time></trkpt><trkpt lat="43.4622418" lon="10.915603"><ele>204.0</ele><time>2026-04-18T09:19:36.344Z</time></trkpt><trkpt lat="43.462127" lon="10.9156295"><ele>204.0</ele><time>2026-04-18T09:19:37.343Z</time></trkpt><trkpt lat="43.4620044" lon="10.9156569"><ele>206.75</ele><time>2026-04-18T09:19:38.343Z</time></trkpt><trkpt lat="43.4618779" lon="10.9156781"><ele>209.5</ele><time>2026-04-18T09:19:39.344Z</time></trkpt><trkpt lat="43.4617525" lon="10.915704"><ele>212.25</ele><time>2026-04-18T09:19:40.342Z</time></trkpt><trkpt lat="43.4616286" lon="10.9157338"><ele>215.0</ele><time>2026-04-18T09:19:41.343Z</time></trkpt><trkpt lat="43.4615053" lon="10.9157647"><ele>215.0</ele><time>2026-04-18T09:19:42.343Z</time></trkpt><trkpt lat="43.4613864" lon="10.9157967"><ele>215.0</ele><time>2026-04-18T09:19:43.343Z</time></trkpt><trkpt lat="43.4612808" lon="10.915821"><ele>215.0</ele><time>2026-04-18T09:19:44.344Z</time></trkpt><trkpt lat="43.4611887" lon="10.915833"><ele>215.0</ele><time>2026-04-18T09:19:45.343Z</time></trkpt><trkpt lat="43.4611061" lon="10.9158352"><ele>215.0</ele><time>2026-04-18T09:19:46.343Z</time></trkpt><trkpt lat="43.4610233" lon="10.9158232"><ele>216.00000000000003</ele><time>2026-04-18T09:19:47.343Z</time></trkpt><trkpt lat="43.4609412" lon="10.9157911"><ele>217.0</ele><time>2026-04-18T09:19:48.343Z</time></trkpt><trkpt lat="43.4608654" lon="10.9157394"><ele>218.0</ele><time>2026-04-18T09:19:49.344Z</time></trkpt><trkpt lat="43.4607979" lon="10.9156825"><ele>219.0</ele><time>2026-04-18T09:19:50.344Z</time></trkpt><trkpt lat="43.460737" lon="10.9156413"><ele>220.00000000000003</ele><time>2026-04-18T09:19:51.343Z</time></trkpt><trkpt lat="43.4606078" lon="10.915609"><ele>221.0</ele><time>2026-04-18T09:19:53.344Z</time></trkpt><trkpt lat="43.4605372" lon="10.9156203"><ele>221.00000000000003</ele><time>2026-04-18T09:19:54.344Z</time></trkpt><trkpt lat="43.4604715" lon="10.9156485"><ele>221.0</ele><time>2026-04-18T09:19:55.343Z</time></trkpt><trkpt lat="43.4604067" lon="10.9156949"><ele>221.0</ele><time>2026-04-18T09:19:56.343Z</time></trkpt><trkpt lat="43.460349" lon="10.9157568"><ele>221.0</ele><time>2026-04-18T09:19:57.343Z</time></trkpt><trkpt lat="43.4602882" lon="10.9158101"><ele>221.0</ele><time>2026-04-18T09:19:58.343Z</time></trkpt><trkpt lat="43.460219" lon="10.9158494"><ele>221.00000000000003</ele><time>2026-04-18T09:19:59.343Z</time></trkpt><trkpt lat="43.4601425" lon="10.9158693"><ele>221.0</ele><time>2026-04-18T09:20:00.343Z</time></trkpt><trkpt lat="43.4600609" lon="10.9158699"><ele>222.00000000000003</ele><time>2026-04-18T09:20:01.344Z</time></trkpt><trkpt lat="43.4599756" lon="10.9158473"><ele>223.0</ele><time>2026-04-18T09:20:02.346Z</time></trkpt><trkpt lat="43.459891" lon="10.9158046"><ele>224.0</ele><time>2026-04-18T09:20:03.341Z</time></trkpt><trkpt lat="43.4598103" lon="10.9157485"><ele>225.0</ele><time>2026-04-18T09:20:04.343Z</time></trkpt><trkpt lat="43.4597463" lon="10.9156771"><ele>226.00000000000003</ele><time>2026-04-18T09:20:05.344Z</time></trkpt><trkpt lat="43.4596917" lon="10.9155893"><ele>227.0</ele><time>2026-04-18T09:20:06.343Z</time></trkpt><trkpt lat="43.459641" lon="10.9154931"><ele>227.6</ele><time>2026-04-18T09:20:07.343Z</time></trkpt><trkpt lat="43.4595915" lon="10.9153896"><ele>228.2</ele><time>2026-04-18T09:20:08.344Z</time></trkpt><trkpt lat="43.459531" lon="10.9152938"><ele>228.8</ele><time>2026-04-18T09:20:09.343Z</time></trkpt><trkpt lat="43.4594564" lon="10.9152171"><ele>229.4</ele><time>2026-04-18T09:20:10.343Z</time></trkpt><trkpt lat="43.4593732" lon="10.915167"><ele>230.0</ele><time>2026-04-18T09:20:11.344Z</time></trkpt><trkpt lat="43.459288" lon="10.9151522"><ele>230.00000000000003</ele><time>2026-04-18T09:20:12.344Z</time></trkpt><trkpt lat="43.4592119" lon="10.915156"><ele>230.0</ele><time>2026-04-18T09:20:13.346Z</time></trkpt><trkpt lat="43.4591428" lon="10.9151894"><ele>230.0</ele><time>2026-04-18T09:20:14.345Z</time></trkpt><trkpt lat="43.4590719" lon="10.9152336"><ele>230.0</ele><time>2026-04-18T09:20:15.345Z</time></trkpt><trkpt lat="43.4590013" lon="10.9152688"><ele>230.00000000000003</ele><time>2026-04-18T09:20:16.342Z</time></trkpt><trkpt lat="43.4589298" lon="10.9152909"><ele>230.0</ele><time>2026-04-18T09:20:17.343Z</time></trkpt><trkpt lat="43.4588524" lon="10.9152892"><ele>229.16666666666669</ele><time>2026-04-18T09:20:18.348Z</time></trkpt><trkpt lat="43.4587795" lon="10.9152571"><ele>228.33333333333334</ele><time>2026-04-18T09:20:19.342Z</time></trkpt><trkpt lat="43.4587178" lon="10.9151931"><ele>227.5</ele><time>2026-04-18T09:20:20.346Z</time></trkpt><trkpt lat="43.4586661" lon="10.9151042"><ele>226.66666666666669</ele><time>2026-04-18T09:20:21.346Z</time></trkpt><trkpt lat="43.4586217" lon="10.9150027"><ele>225.83333333333334</ele><time>2026-04-18T09:20:22.342Z</time></trkpt><trkpt lat="43.4585832" lon="10.9148964"><ele>225.0</ele><time>2026-04-18T09:20:23.344Z</time></trkpt><trkpt lat="43.4585581" lon="10.9147833"><ele>227.0</ele><time>2026-04-18T09:20:24.343Z</time></trkpt><trkpt lat="43.4585481" lon="10.9146631"><ele>229.0</ele><time>2026-04-18T09:20:25.343Z</time></trkpt><trkpt lat="43.4585487" lon="10.9145211"><ele>231.0</ele><time>2026-04-18T09:20:26.345Z</time></trkpt><trkpt lat="43.4585492" lon="10.9143684"><ele>233.0</ele><time>2026-04-18T09:20:27.343Z</time></trkpt><trkpt lat="43.458551" lon="10.9142026"><ele>235.0</ele><time>2026-04-18T09:20:28.343Z</time></trkpt><trkpt lat="43.4585529" lon="10.9140219"><ele>237.0</ele><time>2026-04-18T09:20:29.344Z</time></trkpt><trkpt lat="43.4585536" lon="10.9138334"><ele>239.0</ele><time>2026-04-18T09:20:30.343Z</time></trkpt><trkpt lat="43.4585562" lon="10.9136583"><ele>241.0</ele><time>2026-04-18T09:20:31.345Z</time></trkpt><trkpt lat="43.4585566" lon="10.9135032"><ele>243.0</ele><time>2026-04-18T09:20:32.344Z</time></trkpt><trkpt lat="43.458555" lon="10.9133669"><ele>244.4</ele><time>2026-04-18T09:20:33.344Z</time></trkpt><trkpt lat="43.458544" lon="10.9132373"><ele>245.8</ele><time>2026-04-18T09:20:34.349Z</time></trkpt><trkpt lat="43.458523" lon="10.9131176"><ele>247.2</ele><time>2026-04-18T09:20:35.345Z</time></trkpt><trkpt lat="43.4584894" lon="10.9130029"><ele>248.6</ele><time>2026-04-18T09:20:36.343Z</time></trkpt><trkpt lat="43.458443" lon="10.9128945"><ele>250.0</ele><time>2026-04-18T09:20:37.346Z</time></trkpt><trkpt lat="43.4583679" lon="10.9128024"><ele>250.0</ele><time>2026-04-18T09:20:38.347Z</time></trkpt><trkpt lat="43.4582676" lon="10.912726"><ele>250.0</ele><time>2026-04-18T09:20:39.343Z</time></trkpt><trkpt lat="43.4581544" lon="10.9126552"><ele>250.0</ele><time>2026-04-18T09:20:40.342Z</time></trkpt><trkpt lat="43.4580363" lon="10.9125773"><ele>250.0</ele><time>2026-04-18T09:20:41.342Z</time></trkpt><trkpt lat="43.4579071" lon="10.9124916"><ele>253.0</ele><time>2026-04-18T09:20:42.342Z</time></trkpt><trkpt lat="43.4577688" lon="10.9124047"><ele>256.0</ele><time>2026-04-18T09:20:43.347Z</time></trkpt><trkpt lat="43.4576268" lon="10.912316"><ele>259.0</ele><time>2026-04-18T09:20:44.343Z</time></trkpt><trkpt lat="43.4574801" lon="10.9122227"><ele>259.0</ele><time>2026-04-18T09:20:45.345Z</time></trkpt><trkpt lat="43.4573344" lon="10.9121222"><ele>259.0</ele><time>2026-04-18T09:20:46.343Z</time></trkpt><trkpt lat="43.4571854" lon="10.912022"><ele>259.0</ele><time>2026-04-18T09:20:47.344Z</time></trkpt><trkpt lat="43.4570441" lon="10.9119282"><ele>260.0</ele><time>2026-04-18T09:20:48.343Z</time></trkpt><trkpt lat="43.4569167" lon="10.911838"><ele>261.0</ele><time>2026-04-18T09:20:49.345Z</time></trkpt><trkpt lat="43.4568086" lon="10.9117505"><ele>262.0</ele><time>2026-04-18T09:20:50.342Z</time></trkpt><trkpt lat="43.4567085" lon="10.9116711"><ele>263.0</ele><time>2026-04-18T09:20:51.344Z</time></trkpt><trkpt lat="43.4566203" lon="10.9116043"><ele>263.2</ele><time>2026-04-18T09:20:52.343Z</time></trkpt><trkpt lat="43.456545" lon="10.9115474"><ele>263.4</ele><time>2026-04-18T09:20:53.343Z</time></trkpt><trkpt lat="43.4564772" lon="10.9115053"><ele>263.59999999999997</ele><time>2026-04-18T09:20:54.344Z</time></trkpt><trkpt lat="43.456363" lon="10.9114704"><ele>263.8</ele><time>2026-04-18T09:20:56.343Z</time></trkpt><trkpt lat="43.4562426" lon="10.9115075"><ele>264.0</ele><time>2026-04-18T09:20:58.342Z</time></trkpt><trkpt lat="43.4561714" lon="10.9115503"><ele>265.59999999999997</ele><time>2026-04-18T09:20:59.342Z</time></trkpt><trkpt lat="43.456093" lon="10.9116026"><ele>267.2</ele><time>2026-04-18T09:21:00.342Z</time></trkpt><trkpt lat="43.4560061" lon="10.9116542"><ele>268.79999999999995</ele><time>2026-04-18T09:21:01.342Z</time></trkpt><trkpt lat="43.4559095" lon="10.9117038"><ele>270.4</ele><time>2026-04-18T09:21:02.345Z</time></trkpt><trkpt lat="43.4558105" lon="10.9117523"><ele>272.0</ele><time>2026-04-18T09:21:03.346Z</time></trkpt><trkpt lat="43.4557132" lon="10.9117987"><ele>272.0</ele><time>2026-04-18T09:21:04.343Z</time></trkpt><trkpt lat="43.4556105" lon="10.9118416"><ele>272.0</ele><time>2026-04-18T09:21:05.345Z</time></trkpt><trkpt lat="43.4555037" lon="10.9118744"><ele>272.0</ele><time>2026-04-18T09:21:06.346Z</time></trkpt><trkpt lat="43.4553938" lon="10.9118995"><ele>272.0</ele><time>2026-04-18T09:21:07.345Z</time></trkpt><trkpt lat="43.4552788" lon="10.9119188"><ele>272.0</ele><time>2026-04-18T09:21:08.345Z</time></trkpt><trkpt lat="43.4551634" lon="10.9119383"><ele>274.0</ele><time>2026-04-18T09:21:09.345Z</time></trkpt><trkpt lat="43.455053" lon="10.9119628"><ele>276.0</ele><time>2026-04-18T09:21:10.345Z</time></trkpt><trkpt lat="43.4549548" lon="10.9119983"><ele>278.0</ele><time>2026-04-18T09:21:11.345Z</time></trkpt><trkpt lat="43.454863" lon="10.9120488"><ele>280.0</ele><time>2026-04-18T09:21:12.345Z</time></trkpt><trkpt lat="43.4547702" lon="10.9121096"><ele>282.0</ele><time>2026-04-18T09:21:13.342Z</time></trkpt><trkpt lat="43.4546706" lon="10.9121617"><ele>284.0</ele><time>2026-04-18T09:21:14.346Z</time></trkpt><trkpt lat="43.4545671" lon="10.9122015"><ele>286.0</ele><time>2026-04-18T09:21:15.346Z</time></trkpt><trkpt lat="43.4544647" lon="10.9122326"><ele>288.0</ele><time>2026-04-18T09:21:16.345Z</time></trkpt><trkpt lat="43.4543615" lon="10.9122434"><ele>290.0</ele><time>2026-04-18T09:21:17.345Z</time></trkpt><trkpt lat="43.4542507" lon="10.9122432"><ele>292.0</ele><time>2026-04-18T09:21:18.346Z</time></trkpt><trkpt lat="43.4541443" lon="10.912228"><ele>292.0</ele><time>2026-04-18T09:21:19.345Z</time></trkpt><trkpt lat="43.4540485" lon="10.9122044"><ele>292.0</ele><time>2026-04-18T09:21:20.345Z</time></trkpt><trkpt lat="43.4539656" lon="10.9121745"><ele>292.0</ele><time>2026-04-18T09:21:21.343Z</time></trkpt><trkpt lat="43.4538849" lon="10.9121442"><ele>292.0</ele><time>2026-04-18T09:21:22.343Z</time></trkpt><trkpt lat="43.4538045" lon="10.9121151"><ele>292.0</ele><time>2026-04-18T09:21:23.344Z</time></trkpt><trkpt lat="43.453728" lon="10.9120946"><ele>292.0</ele><time>2026-04-18T09:21:24.344Z</time></trkpt><trkpt lat="43.4536551" lon="10.9120829"><ele>292.4</ele><time>2026-04-18T09:21:25.345Z</time></trkpt><trkpt lat="43.4535744" lon="10.9120872"><ele>292.79999999999995</ele><time>2026-04-18T09:21:26.347Z</time></trkpt><trkpt lat="43.4534828" lon="10.9121038"><ele>293.2</ele><time>2026-04-18T09:21:27.346Z</time></trkpt><trkpt lat="43.4533828" lon="10.9121322"><ele>293.59999999999997</ele><time>2026-04-18T09:21:28.346Z</time></trkpt><trkpt lat="43.4532741" lon="10.9121697"><ele>294.0</ele><time>2026-04-18T09:21:29.345Z</time></trkpt><trkpt lat="43.4531635" lon="10.9122068"><ele>294.0</ele><time>2026-04-18T09:21:30.345Z</time></trkpt><trkpt lat="43.453048" lon="10.9122364"><ele>294.0</ele><time>2026-04-18T09:21:31.345Z</time></trkpt><trkpt lat="43.4529457" lon="10.9122596"><ele>294.0</ele><time>2026-04-18T09:21:32.346Z</time></trkpt><trkpt lat="43.4528526" lon="10.9122878"><ele>294.0</ele><time>2026-04-18T09:21:33.346Z</time></trkpt><trkpt lat="43.4527614" lon="10.9122963"><ele>294.0</ele><time>2026-04-18T09:21:34.346Z</time></trkpt><trkpt lat="43.4526732" lon="10.912291"><ele>293.59999999999997</ele><time>2026-04-18T09:21:35.345Z</time></trkpt><trkpt lat="43.4525805" lon="10.9122695"><ele>293.2</ele><time>2026-04-18T09:21:36.346Z</time></trkpt><trkpt lat="43.452487" lon="10.9122278"><ele>292.79999999999995</ele><time>2026-04-18T09:21:37.342Z</time></trkpt><trkpt lat="43.4523901" lon="10.9121864"><ele>292.4</ele><time>2026-04-18T09:21:38.342Z</time></trkpt><trkpt lat="43.4522872" lon="10.9121495"><ele>292.0</ele><time>2026-04-18T09:21:39.344Z</time></trkpt><trkpt lat="43.452176" lon="10.912124"><ele>290.75</ele><time>2026-04-18T09:21:40.342Z</time></trkpt><trkpt lat="43.4520621" lon="10.9121042"><ele>289.5</ele><time>2026-04-18T09:21:41.343Z</time></trkpt><trkpt lat="43.451944" lon="10.9120939"><ele>288.25</ele><time>2026-04-18T09:21:42.343Z</time></trkpt><trkpt lat="43.4518284" lon="10.9120869"><ele>287.0</ele><time>2026-04-18T09:21:43.345Z</time></trkpt><trkpt lat="43.4517183" lon="10.9120794"><ele>287.0</ele><time>2026-04-18T09:21:44.346Z</time></trkpt><trkpt lat="43.4516136" lon="10.9120745"><ele>287.0</ele><time>2026-04-18T09:21:45.343Z</time></trkpt><trkpt lat="43.4515192" lon="10.9120612"><ele>287.0</ele><time>2026-04-18T09:21:46.344Z</time></trkpt><trkpt lat="43.4514356" lon="10.9120382"><ele>287.0</ele><time>2026-04-18T09:21:47.343Z</time></trkpt><trkpt lat="43.4513547" lon="10.912003"><ele>287.0</ele><time>2026-04-18T09:21:48.345Z</time></trkpt><trkpt lat="43.4512736" lon="10.9119696"><ele>286.42857142857144</ele><time>2026-04-18T09:21:49.344Z</time></trkpt><trkpt lat="43.4511967" lon="10.9119444"><ele>285.8571428571429</ele><time>2026-04-18T09:21:50.344Z</time></trkpt><trkpt lat="43.4511218" lon="10.9119288"><ele>285.2857142857143</ele><time>2026-04-18T09:21:51.344Z</time></trkpt><trkpt lat="43.4510515" lon="10.9119237"><ele>284.7142857142857</ele><time>2026-04-18T09:21:52.344Z</time></trkpt><trkpt lat="43.4509803" lon="10.9119273"><ele>284.14285714285717</ele><time>2026-04-18T09:21:53.342Z</time></trkpt><trkpt lat="43.4509116" lon="10.911941"><ele>283.57142857142856</ele><time>2026-04-18T09:21:54.344Z</time></trkpt><trkpt lat="43.4508435" lon="10.9119492"><ele>283.0</ele><time>2026-04-18T09:21:55.343Z</time></trkpt><trkpt lat="43.4507769" lon="10.9119414"><ele>283.0</ele><time>2026-04-18T09:21:56.343Z</time></trkpt><trkpt lat="43.4507141" lon="10.9119133"><ele>283.0</ele><time>2026-04-18T09:21:57.346Z</time></trkpt><trkpt lat="43.4506513" lon="10.9118465"><ele>283.0</ele><time>2026-04-18T09:21:58.346Z</time></trkpt><trkpt lat="43.4505894" lon="10.9117562"><ele>283.0</ele><time>2026-04-18T09:21:59.344Z</time></trkpt><trkpt lat="43.4505237" lon="10.9116732"><ele>283.0</ele><time>2026-04-18T09:22:00.342Z</time></trkpt><trkpt lat="43.4504506" lon="10.9116089"><ele>283.0</ele><time>2026-04-18T09:22:01.342Z</time></trkpt><trkpt lat="43.4503661" lon="10.9115498"><ele>281.75</ele><time>2026-04-18T09:22:02.343Z</time></trkpt><trkpt lat="43.4502712" lon="10.9114836"><ele>280.5</ele><time>2026-04-18T09:22:03.344Z</time></trkpt><trkpt lat="43.4501665" lon="10.9114147"><ele>279.25</ele><time>2026-04-18T09:22:04.342Z</time></trkpt><trkpt lat="43.4500573" lon="10.9113438"><ele>278.0</ele><time>2026-04-18T09:22:05.344Z</time></trkpt><trkpt lat="43.4499453" lon="10.9112677"><ele>278.0</ele><time>2026-04-18T09:22:06.343Z</time></trkpt><trkpt lat="43.449833" lon="10.9111945"><ele>278.0</ele><time>2026-04-18T09:22:07.343Z</time></trkpt><trkpt lat="43.4497154" lon="10.9111258"><ele>278.0</ele><time>2026-04-18T09:22:08.342Z</time></trkpt><trkpt lat="43.4495935" lon="10.9110603"><ele>278.0</ele><time>2026-04-18T09:22:09.342Z</time></trkpt><trkpt lat="43.4494655" lon="10.910994"><ele>276.75</ele><time>2026-04-18T09:22:10.344Z</time></trkpt><trkpt lat="43.4493335" lon="10.9109289"><ele>275.5</ele><time>2026-04-18T09:22:11.342Z</time></trkpt><trkpt lat="43.4491997" lon="10.9108731"><ele>274.25</ele><time>2026-04-18T09:22:12.345Z</time></trkpt><trkpt lat="43.449072" lon="10.91082"><ele>273.0</ele><time>2026-04-18T09:22:13.343Z</time></trkpt><trkpt lat="43.4489522" lon="10.9107733"><ele>273.0</ele><time>2026-04-18T09:22:14.343Z</time></trkpt><trkpt lat="43.4488424" lon="10.9107273"><ele>273.0</ele><time>2026-04-18T09:22:15.343Z</time></trkpt><trkpt lat="43.4487365" lon="10.9106733"><ele>273.0</ele><time>2026-04-18T09:22:16.342Z</time></trkpt><trkpt lat="43.448631" lon="10.9106038"><ele>273.0</ele><time>2026-04-18T09:22:17.342Z</time></trkpt><trkpt lat="43.4485305" lon="10.9105143"><ele>272.75</ele><time>2026-04-18T09:22:18.343Z</time></trkpt><trkpt lat="43.4484309" lon="10.9104199"><ele>272.5</ele><time>2026-04-18T09:22:19.342Z</time></trkpt><trkpt lat="43.4483375" lon="10.9103323"><ele>272.25</ele><time>2026-04-18T09:22:20.344Z</time></trkpt><trkpt lat="43.4482416" lon="10.9102499"><ele>272.0</ele><time>2026-04-18T09:22:21.343Z</time></trkpt><trkpt lat="43.4481371" lon="10.9101702"><ele>272.0</ele><time>2026-04-18T09:22:22.346Z</time></trkpt><trkpt lat="43.4480264" lon="10.9100955"><ele>272.0</ele><time>2026-04-18T09:22:23.342Z</time></trkpt><trkpt lat="43.4479085" lon="10.9100281"><ele>272.0</ele><time>2026-04-18T09:22:24.345Z</time></trkpt><trkpt lat="43.4477947" lon="10.9099695"><ele>272.0</ele><time>2026-04-18T09:22:25.344Z</time></trkpt><trkpt lat="43.4476864" lon="10.9099125"><ele>271.0</ele><time>2026-04-18T09:22:26.348Z</time></trkpt><trkpt lat="43.4475864" lon="10.9098598"><ele>270.0</ele><time>2026-04-18T09:22:27.343Z</time></trkpt><trkpt lat="43.4474913" lon="10.9098041"><ele>269.0</ele><time>2026-04-18T09:22:28.343Z</time></trkpt><trkpt lat="43.4473962" lon="10.9097425"><ele>268.0</ele><time>2026-04-18T09:22:29.344Z</time></trkpt><trkpt lat="43.4473025" lon="10.9096776"><ele>267.0</ele><time>2026-04-18T09:22:30.343Z</time></trkpt><trkpt lat="43.4472033" lon="10.9096167"><ele>265.8</ele><time>2026-04-18T09:22:31.344Z</time></trkpt><trkpt lat="43.4470956" lon="10.9095644"><ele>264.6</ele><time>2026-04-18T09:22:32.348Z</time></trkpt><trkpt lat="43.4469897" lon="10.9095194"><ele>263.40000000000003</ele><time>2026-04-18T09:22:33.344Z</time></trkpt><trkpt lat="43.4468878" lon="10.9094825"><ele>262.2</ele><time>2026-04-18T09:22:34.344Z</time></trkpt><trkpt lat="43.4467942" lon="10.9094526"><ele>261.0</ele><time>2026-04-18T09:22:35.342Z</time></trkpt><trkpt lat="43.446706" lon="10.9094233"><ele>261.0</ele><time>2026-04-18T09:22:36.344Z</time></trkpt><trkpt lat="43.4466244" lon="10.9093801"><ele>261.0</ele><time>2026-04-18T09:22:37.342Z</time></trkpt><trkpt lat="43.4465474" lon="10.9093234"><ele>261.0</ele><time>2026-04-18T09:22:38.345Z</time></trkpt><trkpt lat="43.4464761" lon="10.9092536"><ele>261.0</ele><time>2026-04-18T09:22:39.343Z</time></trkpt><trkpt lat="43.4464064" lon="10.9091598"><ele>261.0</ele><time>2026-04-18T09:22:40.342Z</time></trkpt><trkpt lat="43.4463361" lon="10.9090447"><ele>259.0</ele><time>2026-04-18T09:22:41.343Z</time></trkpt><trkpt lat="43.4462764" lon="10.9089031"><ele>257.0</ele><time>2026-04-18T09:22:42.344Z</time></trkpt><trkpt lat="43.4462191" lon="10.9087552"><ele>255.0</ele><time>2026-04-18T09:22:43.344Z</time></trkpt><trkpt lat="43.4461686" lon="10.9086091"><ele>253.0</ele><time>2026-04-18T09:22:44.346Z</time></trkpt><trkpt lat="43.4461321" lon="10.9084742"><ele>253.8</ele><time>2026-04-18T09:22:45.347Z</time></trkpt><trkpt lat="43.4460984" lon="10.9083416"><ele>254.60000000000002</ele><time>2026-04-18T09:22:46.342Z</time></trkpt><trkpt lat="43.4460588" lon="10.9082028"><ele>255.39999999999998</ele><time>2026-04-18T09:22:47.346Z</time></trkpt><trkpt lat="43.4460166" lon="10.9080633"><ele>256.2</ele><time>2026-04-18T09:22:48.346Z</time></trkpt><trkpt lat="43.4459702" lon="10.9079247"><ele>257.0</ele><time>2026-04-18T09:22:49.346Z</time></trkpt><trkpt lat="43.4459169" lon="10.9077913"><ele>257.0</ele><time>2026-04-18T09:22:50.344Z</time></trkpt><trkpt lat="43.4458554" lon="10.9076629"><ele>257.0</ele><time>2026-04-18T09:22:51.344Z</time></trkpt><trkpt lat="43.4457883" lon="10.9075287"><ele>257.0</ele><time>2026-04-18T09:22:52.342Z</time></trkpt><trkpt lat="43.4457134" lon="10.9073968"><ele>257.0</ele><time>2026-04-18T09:22:53.346Z</time></trkpt><trkpt lat="43.4456365" lon="10.9072606"><ele>256.5</ele><time>2026-04-18T09:22:54.344Z</time></trkpt><trkpt lat="43.4455583" lon="10.9071254"><ele>256.0</ele><time>2026-04-18T09:22:55.343Z</time></trkpt><trkpt lat="43.4454801" lon="10.9069848"><ele>255.5</ele><time>2026-04-18T09:22:56.343Z</time></trkpt><trkpt lat="43.4454091" lon="10.9068444"><ele>255.0</ele><time>2026-04-18T09:22:57.343Z</time></trkpt><trkpt lat="43.4453289" lon="10.9067029"><ele>254.25</ele><time>2026-04-18T09:22:58.343Z</time></trkpt><trkpt lat="43.4452454" lon="10.9065635"><ele>253.5</ele><time>2026-04-18T09:22:59.343Z</time></trkpt><trkpt lat="43.4451574" lon="10.906425"><ele>252.75</ele><time>2026-04-18T09:23:00.343Z</time></trkpt><trkpt lat="43.4450621" lon="10.9062875"><ele>252.0</ele><time>2026-04-18T09:23:01.343Z</time></trkpt><trkpt lat="43.4449604" lon="10.9061508"><ele>252.0</ele><time>2026-04-18T09:23:02.343Z</time></trkpt><trkpt lat="43.444858" lon="10.9060139"><ele>252.0</ele><time>2026-04-18T09:23:03.343Z</time></trkpt><trkpt lat="43.4447592" lon="10.9058823"><ele>252.0</ele><time>2026-04-18T09:23:04.342Z</time></trkpt><trkpt lat="43.444668" lon="10.905751"><ele>252.0</ele><time>2026-04-18T09:23:05.343Z</time></trkpt><trkpt lat="43.444589" lon="10.9056231"><ele>251.0</ele><time>2026-04-18T09:23:06.342Z</time></trkpt><trkpt lat="43.4445254" lon="10.9054935"><ele>250.0</ele><time>2026-04-18T09:23:07.344Z</time></trkpt><trkpt lat="43.4444649" lon="10.905362"><ele>249.0</ele><time>2026-04-18T09:23:08.344Z</time></trkpt><trkpt lat="43.4444048" lon="10.9052254"><ele>248.0</ele><time>2026-04-18T09:23:09.343Z</time></trkpt><trkpt lat="43.4443463" lon="10.9050987"><ele>248.60000000000002</ele><time>2026-04-18T09:23:10.343Z</time></trkpt><trkpt lat="43.4442868" lon="10.9049869"><ele>249.20000000000002</ele><time>2026-04-18T09:23:11.344Z</time></trkpt><trkpt lat="43.4442143" lon="10.9048815"><ele>249.8</ele><time>2026-04-18T09:23:12.342Z</time></trkpt><trkpt lat="43.4441266" lon="10.9047766"><ele>250.4</ele><time>2026-04-18T09:23:13.343Z</time></trkpt><trkpt lat="43.4440236" lon="10.9046775"><ele>251.0</ele><time>2026-04-18T09:23:14.343Z</time></trkpt><trkpt lat="43.4439128" lon="10.9045766"><ele>251.0</ele><time>2026-04-18T09:23:15.344Z</time></trkpt><trkpt lat="43.4437993" lon="10.9044703"><ele>251.0</ele><time>2026-04-18T09:23:16.342Z</time></trkpt><trkpt lat="43.4436793" lon="10.9043663"><ele>251.0</ele><time>2026-04-18T09:23:17.343Z</time></trkpt><trkpt lat="43.4435585" lon="10.9042632"><ele>251.0</ele><time>2026-04-18T09:23:18.343Z</time></trkpt><trkpt lat="43.4434387" lon="10.9041612"><ele>249.5</ele><time>2026-04-18T09:23:19.343Z</time></trkpt><trkpt lat="43.4433239" lon="10.9040595"><ele>248.0</ele><time>2026-04-18T09:23:20.343Z</time></trkpt><trkpt lat="43.4432118" lon="10.9039567"><ele>246.5</ele><time>2026-04-18T09:23:21.344Z</time></trkpt><trkpt lat="43.4430958" lon="10.9038547"><ele>245.0</ele><time>2026-04-18T09:23:22.342Z</time></trkpt><trkpt lat="43.4429725" lon="10.9037532"><ele>245.25</ele><time>2026-04-18T09:23:23.345Z</time></trkpt><trkpt lat="43.4428472" lon="10.9036502"><ele>245.5</ele><time>2026-04-18T09:23:24.343Z</time></trkpt><trkpt lat="43.4427279" lon="10.9035479"><ele>245.75</ele><time>2026-04-18T09:23:25.344Z</time></trkpt><trkpt lat="43.4426139" lon="10.9034491"><ele>246.0</ele><time>2026-04-18T09:23:26.342Z</time></trkpt><trkpt lat="43.4425079" lon="10.9033526"><ele>246.0</ele><time>2026-04-18T09:23:27.343Z</time></trkpt><trkpt lat="43.442405" lon="10.9032562"><ele>246.0</ele><time>2026-04-18T09:23:28.343Z</time></trkpt><trkpt lat="43.4423003" lon="10.9031595"><ele>246.0</ele><time>2026-04-18T09:23:29.343Z</time></trkpt><trkpt lat="43.4421912" lon="10.9030606"><ele>246.0</ele><time>2026-04-18T09:23:30.344Z</time></trkpt><trkpt lat="43.4420812" lon="10.9029688"><ele>245.5</ele><time>2026-04-18T09:23:31.343Z</time></trkpt><trkpt lat="43.4419729" lon="10.9028815"><ele>245.0</ele><time>2026-04-18T09:23:32.343Z</time></trkpt><trkpt lat="43.4418708" lon="10.9028028"><ele>244.5</ele><time>2026-04-18T09:23:33.348Z</time></trkpt><trkpt lat="43.4417633" lon="10.9027376"><ele>244.0</ele><time>2026-04-18T09:23:34.345Z</time></trkpt><trkpt lat="43.4416414" lon="10.9026899"><ele>244.0</ele><time>2026-04-18T09:23:35.342Z</time></trkpt><trkpt lat="43.4415151" lon="10.9026518"><ele>244.0</ele><time>2026-04-18T09:23:36.343Z</time></trkpt><trkpt lat="43.4413873" lon="10.902631"><ele>244.0</ele><time>2026-04-18T09:23:37.343Z</time></trkpt><trkpt lat="43.4412711" lon="10.9026194"><ele>244.0</ele><time>2026-04-18T09:23:38.344Z</time></trkpt><trkpt lat="43.4411687" lon="10.9026126"><ele>243.6</ele><time>2026-04-18T09:23:39.343Z</time></trkpt><trkpt lat="43.4410708" lon="10.9026064"><ele>243.2</ele><time>2026-04-18T09:23:40.342Z</time></trkpt><trkpt lat="43.4409734" lon="10.9025995"><ele>242.79999999999998</ele><time>2026-04-18T09:23:41.343Z</time></trkpt><trkpt lat="43.4408754" lon="10.9025851"><ele>242.39999999999998</ele><time>2026-04-18T09:23:42.343Z</time></trkpt><trkpt lat="43.4407737" lon="10.9025591"><ele>242.0</ele><time>2026-04-18T09:23:43.344Z</time></trkpt><trkpt lat="43.4406685" lon="10.9025241"><ele>243.0</ele><time>2026-04-18T09:23:44.343Z</time></trkpt><trkpt lat="43.4405602" lon="10.9024718"><ele>244.0</ele><time>2026-04-18T09:23:45.343Z</time></trkpt><trkpt lat="43.4404501" lon="10.9024032"><ele>245.0</ele><time>2026-04-18T09:23:46.344Z</time></trkpt><trkpt lat="43.4403354" lon="10.9023212"><ele>246.0</ele><time>2026-04-18T09:23:47.345Z</time></trkpt><trkpt lat="43.4402274" lon="10.9022203"><ele>247.0</ele><time>2026-04-18T09:23:48.343Z</time></trkpt><trkpt lat="43.440133" lon="10.902107"><ele>248.0</ele><time>2026-04-18T09:23:49.346Z</time></trkpt><trkpt lat="43.4400524" lon="10.9019836"><ele>249.0</ele><time>2026-04-18T09:23:50.342Z</time></trkpt><trkpt lat="43.4399774" lon="10.9018469"><ele>250.0</ele><time>2026-04-18T09:23:51.345Z</time></trkpt><trkpt lat="43.4399075" lon="10.9017061"><ele>250.0</ele><time>2026-04-18T09:23:52.341Z</time></trkpt><trkpt lat="43.4398392" lon="10.9015699"><ele>250.0</ele><time>2026-04-18T09:23:53.345Z</time></trkpt><trkpt lat="43.4397725" lon="10.9014442"><ele>250.0</ele><time>2026-04-18T09:23:54.344Z</time></trkpt><trkpt lat="43.4397164" lon="10.9013252"><ele>250.0</ele><time>2026-04-18T09:23:55.343Z</time></trkpt><trkpt lat="43.4396728" lon="10.9012026"><ele>250.0</ele><time>2026-04-18T09:23:56.344Z</time></trkpt><trkpt lat="43.4396441" lon="10.9010789"><ele>249.4</ele><time>2026-04-18T09:23:57.343Z</time></trkpt><trkpt lat="43.4396318" lon="10.9009486"><ele>248.8</ele><time>2026-04-18T09:23:58.346Z</time></trkpt><trkpt lat="43.4396294" lon="10.9008114"><ele>248.2</ele><time>2026-04-18T09:23:59.346Z</time></trkpt><trkpt lat="43.4396335" lon="10.9006644"><ele>247.6</ele><time>2026-04-18T09:24:00.345Z</time></trkpt><trkpt lat="43.4396438" lon="10.9005128"><ele>247.0</ele><time>2026-04-18T09:24:01.345Z</time></trkpt><trkpt lat="43.4396581" lon="10.9003676"><ele>247.0</ele><time>2026-04-18T09:24:02.345Z</time></trkpt><trkpt lat="43.4396646" lon="10.900217"><ele>247.0</ele><time>2026-04-18T09:24:03.341Z</time></trkpt><trkpt lat="43.4396749" lon="10.9000663"><ele>247.0</ele><time>2026-04-18T09:24:04.341Z</time></trkpt><trkpt lat="43.4396773" lon="10.8999239"><ele>247.0</ele><time>2026-04-18T09:24:05.341Z</time></trkpt><trkpt lat="43.4396658" lon="10.8997887"><ele>247.0</ele><time>2026-04-18T09:24:06.345Z</time></trkpt><trkpt lat="43.4396455" lon="10.8996631"><ele>247.66666666666666</ele><time>2026-04-18T09:24:07.341Z</time></trkpt><trkpt lat="43.4396143" lon="10.8995525"><ele>248.33333333333331</ele><time>2026-04-18T09:24:08.347Z</time></trkpt><trkpt lat="43.4395789" lon="10.8994565"><ele>249.0</ele><time>2026-04-18T09:24:09.343Z</time></trkpt><trkpt lat="43.4395346" lon="10.8993776"><ele>249.66666666666669</ele><time>2026-04-18T09:24:10.344Z</time></trkpt><trkpt lat="43.4394757" lon="10.8993139"><ele>250.33333333333334</ele><time>2026-04-18T09:24:11.343Z</time></trkpt><trkpt lat="43.4394085" lon="10.8992549"><ele>251.0</ele><time>2026-04-18T09:24:12.343Z</time></trkpt><trkpt lat="43.439339" lon="10.8991947"><ele>251.0</ele><time>2026-04-18T09:24:13.343Z</time></trkpt><trkpt lat="43.4392703" lon="10.8991219"><ele>251.00000000000003</ele><time>2026-04-18T09:24:14.344Z</time></trkpt><trkpt lat="43.439196" lon="10.8990371"><ele>251.00000000000003</ele><time>2026-04-18T09:24:15.343Z</time></trkpt><trkpt lat="43.4391188" lon="10.8989483"><ele>251.0</ele><time>2026-04-18T09:24:16.343Z</time></trkpt><trkpt lat="43.4390405" lon="10.8988625"><ele>251.0</ele><time>2026-04-18T09:24:17.344Z</time></trkpt><trkpt lat="43.4389679" lon="10.8987751"><ele>251.0</ele><time>2026-04-18T09:24:18.344Z</time></trkpt><trkpt lat="43.4388992" lon="10.8986792"><ele>251.00000000000003</ele><time>2026-04-18T09:24:19.343Z</time></trkpt><trkpt lat="43.4388402" lon="10.8985692"><ele>251.00000000000003</ele><time>2026-04-18T09:24:20.343Z</time></trkpt><trkpt lat="43.4387902" lon="10.8984479"><ele>251.0</ele><time>2026-04-18T09:24:21.343Z</time></trkpt><trkpt lat="43.4387537" lon="10.8983235"><ele>251.0</ele><time>2026-04-18T09:24:22.343Z</time></trkpt><trkpt lat="43.4387174" lon="10.8982003"><ele>250.20000000000002</ele><time>2026-04-18T09:24:23.344Z</time></trkpt><trkpt lat="43.4386728" lon="10.8980779"><ele>249.40000000000003</ele><time>2026-04-18T09:24:24.343Z</time></trkpt><trkpt lat="43.4386208" lon="10.8979598"><ele>248.6</ele><time>2026-04-18T09:24:25.343Z</time></trkpt><trkpt lat="43.438561" lon="10.8978486"><ele>247.8</ele><time>2026-04-18T09:24:26.343Z</time></trkpt><trkpt lat="43.4384976" lon="10.8977396"><ele>247.0</ele><time>2026-04-18T09:24:27.344Z</time></trkpt><trkpt lat="43.4384444" lon="10.8976134"><ele>245.39999999999998</ele><time>2026-04-18T09:24:28.345Z</time></trkpt><trkpt lat="43.4384082" lon="10.897464"><ele>243.79999999999998</ele><time>2026-04-18T09:24:29.346Z</time></trkpt><trkpt lat="43.4383867" lon="10.8973129"><ele>242.2</ele><time>2026-04-18T09:24:30.345Z</time></trkpt><trkpt lat="43.4383708" lon="10.8971669"><ele>240.6</ele><time>2026-04-18T09:24:31.342Z</time></trkpt><trkpt lat="43.4383532" lon="10.8970205"><ele>239.0</ele><time>2026-04-18T09:24:32.344Z</time></trkpt><trkpt lat="43.4383275" lon="10.8968715"><ele>237.25</ele><time>2026-04-18T09:24:33.343Z</time></trkpt><trkpt lat="43.4382926" lon="10.896714"><ele>235.5</ele><time>2026-04-18T09:24:34.345Z</time></trkpt><trkpt lat="43.4382534" lon="10.8965555"><ele>233.75</ele><time>2026-04-18T09:24:35.342Z</time></trkpt><trkpt lat="43.4382196" lon="10.8964033"><ele>232.0</ele><time>2026-04-18T09:24:36.343Z</time></trkpt><trkpt lat="43.4381983" lon="10.8962594"><ele>231.99999999999997</ele><time>2026-04-18T09:24:37.343Z</time></trkpt><trkpt lat="43.438193" lon="10.8961271"><ele>232.0</ele><time>2026-04-18T09:24:38.343Z</time></trkpt><trkpt lat="43.4381989" lon="10.89601"><ele>232.0</ele><time>2026-04-18T09:24:39.344Z</time></trkpt><trkpt lat="43.4382049" lon="10.8959099"><ele>232.0</ele><time>2026-04-18T09:24:40.343Z</time></trkpt><trkpt lat="43.4381965" lon="10.8958175"><ele>231.99999999999997</ele><time>2026-04-18T09:24:41.345Z</time></trkpt><trkpt lat="43.438167" lon="10.895723"><ele>232.0</ele><time>2026-04-18T09:24:42.342Z</time></trkpt><trkpt lat="43.4381162" lon="10.8956354"><ele>231.8</ele><time>2026-04-18T09:24:43.344Z</time></trkpt><trkpt lat="43.4380504" lon="10.8955526"><ele>231.6</ele><time>2026-04-18T09:24:44.343Z</time></trkpt><trkpt lat="43.4379775" lon="10.8954757"><ele>231.40000000000003</ele><time>2026-04-18T09:24:45.345Z</time></trkpt><trkpt lat="43.4379078" lon="10.8953958"><ele>231.20000000000002</ele><time>2026-04-18T09:24:46.343Z</time></trkpt><trkpt lat="43.4378473" lon="10.895298"><ele>231.0</ele><time>2026-04-18T09:24:47.344Z</time></trkpt><trkpt lat="43.4377944" lon="10.8951855"><ele>230.20000000000002</ele><time>2026-04-18T09:24:48.343Z</time></trkpt><trkpt lat="43.4377463" lon="10.8950624"><ele>229.40000000000003</ele><time>2026-04-18T09:24:49.343Z</time></trkpt><trkpt lat="43.4377028" lon="10.8949398"><ele>228.6</ele><time>2026-04-18T09:24:50.345Z</time></trkpt><trkpt lat="43.437657" lon="10.8948242"><ele>227.8</ele><time>2026-04-18T09:24:51.344Z</time></trkpt><trkpt lat="43.43761" lon="10.8947125"><ele>227.0</ele><time>2026-04-18T09:24:52.346Z</time></trkpt><trkpt lat="43.4375548" lon="10.8946063"><ele>227.0</ele><time>2026-04-18T09:24:53.348Z</time></trkpt><trkpt lat="43.4374852" lon="10.8944934"><ele>227.0</ele><time>2026-04-18T09:24:54.347Z</time></trkpt><trkpt lat="43.4374061" lon="10.8943802"><ele>227.0</ele><time>2026-04-18T09:24:55.345Z</time></trkpt><trkpt lat="43.4373166" lon="10.8942699"><ele>227.0</ele><time>2026-04-18T09:24:56.343Z</time></trkpt><trkpt lat="43.4372164" lon="10.8941675"><ele>224.75</ele><time>2026-04-18T09:24:57.343Z</time></trkpt><trkpt lat="43.4371042" lon="10.8940697"><ele>222.5</ele><time>2026-04-18T09:24:58.344Z</time></trkpt><trkpt lat="43.4369801" lon="10.8939835"><ele>220.25</ele><time>2026-04-18T09:24:59.343Z</time></trkpt><trkpt lat="43.4368462" lon="10.8939135"><ele>218.0</ele><time>2026-04-18T09:25:00.345Z</time></trkpt><trkpt lat="43.4367089" lon="10.8938604"><ele>218.0</ele><time>2026-04-18T09:25:01.341Z</time></trkpt><trkpt lat="43.4365704" lon="10.8938142"><ele>218.0</ele><time>2026-04-18T09:25:02.345Z</time></trkpt><trkpt lat="43.4364427" lon="10.8937746"><ele>218.0</ele><time>2026-04-18T09:25:03.344Z</time></trkpt><trkpt lat="43.4363273" lon="10.8937379"><ele>218.0</ele><time>2026-04-18T09:25:04.342Z</time></trkpt><trkpt lat="43.4362256" lon="10.8936973"><ele>218.0</ele><time>2026-04-18T09:25:05.343Z</time></trkpt><trkpt lat="43.436135" lon="10.8936494"><ele>218.0</ele><time>2026-04-18T09:25:06.346Z</time></trkpt><trkpt lat="43.4360536" lon="10.8935855"><ele>218.0</ele><time>2026-04-18T09:25:07.341Z</time></trkpt><trkpt lat="43.4359741" lon="10.8935025"><ele>218.0</ele><time>2026-04-18T09:25:08.344Z</time></trkpt><trkpt lat="43.4358959" lon="10.8933994"><ele>218.0</ele><time>2026-04-18T09:25:09.343Z</time></trkpt><trkpt lat="43.4358147" lon="10.8932745"><ele>218.0</ele><time>2026-04-18T09:25:10.343Z</time></trkpt><trkpt lat="43.435724" lon="10.8931374"><ele>218.0</ele><time>2026-04-18T09:25:11.344Z</time></trkpt><trkpt lat="43.4356242" lon="10.8929869"><ele>218.0</ele><time>2026-04-18T09:25:12.343Z</time></trkpt><trkpt lat="43.4355233" lon="10.892834"><ele>218.0</ele><time>2026-04-18T09:25:13.343Z</time></trkpt><trkpt lat="43.4354217" lon="10.8926927"><ele>216.25</ele><time>2026-04-18T09:25:14.347Z</time></trkpt><trkpt lat="43.4353261" lon="10.8925629"><ele>214.5</ele><time>2026-04-18T09:25:15.345Z</time></trkpt><trkpt lat="43.4352361" lon="10.8924475"><ele>212.75</ele><time>2026-04-18T09:25:16.343Z</time></trkpt><trkpt lat="43.4351539" lon="10.8923501"><ele>211.0</ele><time>2026-04-18T09:25:17.344Z</time></trkpt><trkpt lat="43.4350811" lon="10.8922655"><ele>210.99999999999997</ele><time>2026-04-18T09:25:18.343Z</time></trkpt><trkpt lat="43.4350172" lon="10.8921864"><ele>211.0</ele><time>2026-04-18T09:25:19.344Z</time></trkpt><trkpt lat="43.4349578" lon="10.8921052"><ele>211.0</ele><time>2026-04-18T09:25:20.344Z</time></trkpt><trkpt lat="43.4349058" lon="10.8920155"><ele>211.0</ele><time>2026-04-18T09:25:21.345Z</time></trkpt><trkpt lat="43.4348594" lon="10.8919156"><ele>210.99999999999997</ele><time>2026-04-18T09:25:22.342Z</time></trkpt><trkpt lat="43.4348236" lon="10.891816"><ele>211.0</ele><time>2026-04-18T09:25:23.345Z</time></trkpt><trkpt lat="43.4347945" lon="10.8917252"><ele>211.60000000000002</ele><time>2026-04-18T09:25:24.345Z</time></trkpt><trkpt lat="43.4347701" lon="10.8916449"><ele>212.2</ele><time>2026-04-18T09:25:25.342Z</time></trkpt><trkpt lat="43.4347045" lon="10.8915414"><ele>212.79999999999998</ele><time>2026-04-18T09:25:27.344Z</time></trkpt><trkpt lat="43.4346041" lon="10.8915041"><ele>213.39999999999998</ele><time>2026-04-18T09:25:29.342Z</time></trkpt><trkpt lat="43.4345229" lon="10.89159"><ele>214.0</ele><time>2026-04-18T09:25:31.342Z</time></trkpt><trkpt lat="43.4344789" lon="10.8916842"><ele>211.16666666666666</ele><time>2026-04-18T09:25:32.345Z</time></trkpt><trkpt lat="43.4344471" lon="10.8917932"><ele>208.33333333333331</ele><time>2026-04-18T09:25:33.346Z</time></trkpt><trkpt lat="43.4344284" lon="10.8919015"><ele>205.5</ele><time>2026-04-18T09:25:34.346Z</time></trkpt><trkpt lat="43.4344199" lon="10.892009"><ele>202.66666666666669</ele><time>2026-04-18T09:25:35.342Z</time></trkpt><trkpt lat="43.4344185" lon="10.8921221"><ele>199.83333333333334</ele><time>2026-04-18T09:25:36.343Z</time></trkpt><trkpt lat="43.4344357" lon="10.8922361"><ele>197.0</ele><time>2026-04-18T09:25:37.343Z</time></trkpt><trkpt lat="43.4344687" lon="10.8923607"><ele>197.0</ele><time>2026-04-18T09:25:38.343Z</time></trkpt><trkpt lat="43.4345129" lon="10.8924821"><ele>197.0</ele><time>2026-04-18T09:25:39.344Z</time></trkpt><trkpt lat="43.4345602" lon="10.892599"><ele>197.0</ele><time>2026-04-18T09:25:40.345Z</time></trkpt><trkpt lat="43.4346091" lon="10.892712"><ele>197.0</ele><time>2026-04-18T09:25:41.342Z</time></trkpt><trkpt lat="43.4346505" lon="10.8928275"><ele>197.0</ele><time>2026-04-18T09:25:42.344Z</time></trkpt><trkpt lat="43.4346794" lon="10.8929458"><ele>196.6</ele><time>2026-04-18T09:25:43.342Z</time></trkpt><trkpt lat="43.4346979" lon="10.8930765"><ele>196.2</ele><time>2026-04-18T09:25:44.342Z</time></trkpt><trkpt lat="43.4347063" lon="10.8932199"><ele>195.8</ele><time>2026-04-18T09:25:45.346Z</time></trkpt><trkpt lat="43.4347094" lon="10.8933677"><ele>195.4</ele><time>2026-04-18T09:25:46.342Z</time></trkpt><trkpt lat="43.4347088" lon="10.8935043"><ele>195.0</ele><time>2026-04-18T09:25:47.343Z</time></trkpt><trkpt lat="43.4347101" lon="10.8936249"><ele>195.0</ele><time>2026-04-18T09:25:48.344Z</time></trkpt><trkpt lat="43.4347147" lon="10.8937214"><ele>195.0</ele><time>2026-04-18T09:25:49.343Z</time></trkpt><trkpt lat="43.4347205" lon="10.8938574"><ele>195.0</ele><time>2026-04-18T09:25:51.343Z</time></trkpt><trkpt lat="43.4346944" lon="10.8939471"><ele>195.0</ele><time>2026-04-18T09:25:53.343Z</time></trkpt><trkpt lat="43.4346206" lon="10.8939615"><ele>195.0</ele><time>2026-04-18T09:25:55.342Z</time></trkpt><trkpt lat="43.4345038" lon="10.8938464"><ele>194.0</ele><time>2026-04-18T09:25:57.346Z</time></trkpt><trkpt lat="43.4344413" lon="10.8937579"><ele>193.0</ele><time>2026-04-18T09:25:58.343Z</time></trkpt><trkpt lat="43.4343674" lon="10.8936553"><ele>192.0</ele><time>2026-04-18T09:25:59.342Z</time></trkpt><trkpt lat="43.4342777" lon="10.8935459"><ele>191.0</ele><time>2026-04-18T09:26:00.342Z</time></trkpt><trkpt lat="43.4341782" lon="10.8934474"><ele>190.0</ele><time>2026-04-18T09:26:01.342Z</time></trkpt><trkpt lat="43.4340729" lon="10.8933556"><ele>190.0</ele><time>2026-04-18T09:26:02.342Z</time></trkpt><trkpt lat="43.4339657" lon="10.8932739"><ele>190.0</ele><time>2026-04-18T09:26:03.344Z</time></trkpt><trkpt lat="43.4338663" lon="10.8932023"><ele>190.0</ele><time>2026-04-18T09:26:04.342Z</time></trkpt><trkpt lat="43.4337656" lon="10.8931278"><ele>190.0</ele><time>2026-04-18T09:26:05.345Z</time></trkpt><trkpt lat="43.4336682" lon="10.8930509"><ele>187.6</ele><time>2026-04-18T09:26:06.342Z</time></trkpt><trkpt lat="43.4335792" lon="10.8929678"><ele>185.2</ele><time>2026-04-18T09:26:07.343Z</time></trkpt><trkpt lat="43.4334993" lon="10.8928858"><ele>182.8</ele><time>2026-04-18T09:26:08.343Z</time></trkpt><trkpt lat="43.433426" lon="10.892807"><ele>180.4</ele><time>2026-04-18T09:26:09.345Z</time></trkpt><trkpt lat="43.4333593" lon="10.8927345"><ele>178.0</ele><time>2026-04-18T09:26:10.344Z</time></trkpt><trkpt lat="43.4332907" lon="10.8926734"><ele>178.0</ele><time>2026-04-18T09:26:11.343Z</time></trkpt><trkpt lat="43.4332102" lon="10.8926281"><ele>178.0</ele><time>2026-04-18T09:26:12.343Z</time></trkpt><trkpt lat="43.4331158" lon="10.8926081"><ele>178.0</ele><time>2026-04-18T09:26:13.342Z</time></trkpt><trkpt lat="43.4330119" lon="10.8926146"><ele>178.0</ele><time>2026-04-18T09:26:14.342Z</time></trkpt><trkpt lat="43.432906" lon="10.8926393"><ele>178.0</ele><time>2026-04-18T09:26:15.342Z</time></trkpt><trkpt lat="43.4328052" lon="10.8926704"><ele>177.0</ele><time>2026-04-18T09:26:16.342Z</time></trkpt><trkpt lat="43.4327057" lon="10.8927054"><ele>176.0</ele><time>2026-04-18T09:26:17.343Z</time></trkpt><trkpt lat="43.4326128" lon="10.8927404"><ele>175.0</ele><time>2026-04-18T09:26:18.345Z</time></trkpt><trkpt lat="43.4325229" lon="10.8927703"><ele>174.0</ele><time>2026-04-18T09:26:19.342Z</time></trkpt><trkpt lat="43.4324345" lon="10.8927977"><ele>173.0</ele><time>2026-04-18T09:26:20.345Z</time></trkpt><trkpt lat="43.4323467" lon="10.8928244"><ele>173.0</ele><time>2026-04-18T09:26:21.349Z</time></trkpt><trkpt lat="43.4322599" lon="10.8928482"><ele>173.0</ele><time>2026-04-18T09:26:22.343Z</time></trkpt><trkpt lat="43.432181" lon="10.892868"><ele>173.0</ele><time>2026-04-18T09:26:23.349Z</time></trkpt><trkpt lat="43.4321085" lon="10.8928878"><ele>173.0</ele><time>2026-04-18T09:26:24.342Z</time></trkpt><trkpt lat="43.4320428" lon="10.8929049"><ele>173.0</ele><time>2026-04-18T09:26:25.343Z</time></trkpt><trkpt lat="43.4319388" lon="10.8929392"><ele>173.0</ele><time>2026-04-18T09:26:27.347Z</time></trkpt><trkpt lat="43.4318754" lon="10.8929776"><ele>173.83333333333331</ele><time>2026-04-18T09:26:29.345Z</time></trkpt><trkpt lat="43.4318505" lon="10.893069"><ele>174.66666666666666</ele><time>2026-04-18T09:26:31.346Z</time></trkpt><trkpt lat="43.4318627" lon="10.8932299"><ele>175.5</ele><time>2026-04-18T09:26:33.344Z</time></trkpt><trkpt lat="43.4318748" lon="10.8933282"><ele>176.33333333333334</ele><time>2026-04-18T09:26:34.343Z</time></trkpt><trkpt lat="43.4318796" lon="10.8934374"><ele>177.16666666666669</ele><time>2026-04-18T09:26:35.342Z</time></trkpt><trkpt lat="43.4318826" lon="10.8935656"><ele>178.0</ele><time>2026-04-18T09:26:36.344Z</time></trkpt><trkpt lat="43.4318853" lon="10.8936991"><ele>178.0</ele><time>2026-04-18T09:26:37.342Z</time></trkpt><trkpt lat="43.4318704" lon="10.8938449"><ele>178.0</ele><time>2026-04-18T09:26:38.346Z</time></trkpt><trkpt lat="43.4318355" lon="10.8940003"><ele>178.0</ele><time>2026-04-18T09:26:39.347Z</time></trkpt><trkpt lat="43.4317927" lon="10.8941584"><ele>178.0</ele><time>2026-04-18T09:26:40.342Z</time></trkpt><trkpt lat="43.4317489" lon="10.8943101"><ele>178.0</ele><time>2026-04-18T09:26:41.342Z</time></trkpt><trkpt lat="43.431708" lon="10.8944449"><ele>178.0</ele><time>2026-04-18T09:26:42.344Z</time></trkpt><trkpt lat="43.4316637" lon="10.8945692"><ele>178.0</ele><time>2026-04-18T09:26:43.342Z</time></trkpt><trkpt lat="43.4316075" lon="10.8946748"><ele>178.0</ele><time>2026-04-18T09:26:44.343Z</time></trkpt><trkpt lat="43.4315436" lon="10.8947741"><ele>178.0</ele><time>2026-04-18T09:26:45.343Z</time></trkpt><trkpt lat="43.4314856" lon="10.8948766"><ele>178.0</ele><time>2026-04-18T09:26:46.342Z</time></trkpt><trkpt lat="43.4314513" lon="10.8949816"><ele>178.0</ele><time>2026-04-18T09:26:47.342Z</time></trkpt><trkpt lat="43.4314428" lon="10.8950936"><ele>178.0</ele><time>2026-04-18T09:26:48.343Z</time></trkpt><trkpt lat="43.4314592" lon="10.8952164"><ele>178.0</ele><time>2026-04-18T09:26:49.344Z</time></trkpt><trkpt lat="43.4314899" lon="10.8953366"><ele>178.0</ele><time>2026-04-18T09:26:50.343Z</time></trkpt><trkpt lat="43.4315385" lon="10.8954533"><ele>178.0</ele><time>2026-04-18T09:26:51.344Z</time></trkpt><trkpt lat="43.4315846" lon="10.8955826"><ele>178.60000000000002</ele><time>2026-04-18T09:26:52.344Z</time></trkpt><trkpt lat="43.4316209" lon="10.8957209"><ele>179.20000000000002</ele><time>2026-04-18T09:26:53.342Z</time></trkpt><trkpt lat="43.4316524" lon="10.8958618"><ele>179.8</ele><time>2026-04-18T09:26:54.344Z</time></trkpt><trkpt lat="43.431673" lon="10.8959965"><ele>180.4</ele><time>2026-04-18T09:26:55.342Z</time></trkpt><trkpt lat="43.4316837" lon="10.8961131"><ele>181.0</ele><time>2026-04-18T09:26:56.343Z</time></trkpt><trkpt lat="43.4316852" lon="10.8962108"><ele>181.83333333333334</ele><time>2026-04-18T09:26:57.343Z</time></trkpt><trkpt lat="43.4316578" lon="10.8963413"><ele>182.66666666666669</ele><time>2026-04-18T09:26:59.343Z</time></trkpt><trkpt lat="43.4315685" lon="10.8963311"><ele>183.5</ele><time>2026-04-18T09:27:01.345Z</time></trkpt><trkpt lat="43.4315095" lon="10.896257"><ele>184.33333333333334</ele><time>2026-04-18T09:27:02.343Z</time></trkpt><trkpt lat="43.4314426" lon="10.8961695"><ele>185.16666666666666</ele><time>2026-04-18T09:27:03.342Z</time></trkpt><trkpt lat="43.4313737" lon="10.8960998"><ele>186.0</ele><time>2026-04-18T09:27:04.345Z</time></trkpt><trkpt lat="43.4312942" lon="10.8960383"><ele>186.8</ele><time>2026-04-18T09:27:05.342Z</time></trkpt><trkpt lat="43.4312012" lon="10.8959885"><ele>187.60000000000002</ele><time>2026-04-18T09:27:06.343Z</time></trkpt><trkpt lat="43.431103" lon="10.8959518"><ele>188.4</ele><time>2026-04-18T09:27:07.342Z</time></trkpt><trkpt lat="43.4310038" lon="10.895917"><ele>189.2</ele><time>2026-04-18T09:27:08.344Z</time></trkpt><trkpt lat="43.4309035" lon="10.8958836"><ele>190.0</ele><time>2026-04-18T09:27:09.342Z</time></trkpt><trkpt lat="43.4308081" lon="10.8958582"><ele>190.0</ele><time>2026-04-18T09:27:10.343Z</time></trkpt><trkpt lat="43.4307276" lon="10.8958473"><ele>190.0</ele><time>2026-04-18T09:27:11.344Z</time></trkpt><trkpt lat="43.430664" lon="10.8958566"><ele>190.0</ele><time>2026-04-18T09:27:12.342Z</time></trkpt><trkpt lat="43.4305842" lon="10.8959476"><ele>190.0</ele><time>2026-04-18T09:27:14.344Z</time></trkpt><trkpt lat="43.4306031" lon="10.8961019"><ele>190.0</ele><time>2026-04-18T09:27:16.345Z</time></trkpt><trkpt lat="43.4306444" lon="10.8961762"><ele>190.0</ele><time>2026-04-18T09:27:17.345Z</time></trkpt><trkpt lat="43.4306961" lon="10.8962531"><ele>191.83333333333334</ele><time>2026-04-18T09:27:18.342Z</time></trkpt><trkpt lat="43.430756" lon="10.896339"><ele>193.66666666666669</ele><time>2026-04-18T09:27:19.344Z</time></trkpt><trkpt lat="43.430825" lon="10.8964295"><ele>195.5</ele><time>2026-04-18T09:27:20.342Z</time></trkpt><trkpt lat="43.4308931" lon="10.8965218"><ele>197.33333333333334</ele><time>2026-04-18T09:27:21.344Z</time></trkpt><trkpt lat="43.4309493" lon="10.8966147"><ele>199.16666666666666</ele><time>2026-04-18T09:27:22.344Z</time></trkpt><trkpt lat="43.4309908" lon="10.896712"><ele>201.0</ele><time>2026-04-18T09:27:23.344Z</time></trkpt><trkpt lat="43.4310203" lon="10.8968161"><ele>202.33333333333334</ele><time>2026-04-18T09:27:24.343Z</time></trkpt><trkpt lat="43.4310329" lon="10.896923"><ele>203.66666666666669</ele><time>2026-04-18T09:27:25.343Z</time></trkpt><trkpt lat="43.4310345" lon="10.8970354"><ele>205.0</ele><time>2026-04-18T09:27:26.344Z</time></trkpt><trkpt lat="43.4310222" lon="10.8971482"><ele>206.33333333333334</ele><time>2026-04-18T09:27:27.345Z</time></trkpt><trkpt lat="43.4309924" lon="10.8972565"><ele>207.66666666666669</ele><time>2026-04-18T09:27:28.343Z</time></trkpt><trkpt lat="43.4309531" lon="10.8973465"><ele>209.0</ele><time>2026-04-18T09:27:29.344Z</time></trkpt><trkpt lat="43.4309045" lon="10.8974106"><ele>209.00000000000003</ele><time>2026-04-18T09:27:30.343Z</time></trkpt><trkpt lat="43.4307984" lon="10.8974241"><ele>209.0</ele><time>2026-04-18T09:27:32.346Z</time></trkpt><trkpt lat="43.4307093" lon="10.8973246"><ele>209.0</ele><time>2026-04-18T09:27:34.342Z</time></trkpt><trkpt lat="43.4306607" lon="10.8972505"><ele>209.0</ele><time>2026-04-18T09:27:35.341Z</time></trkpt><trkpt lat="43.4306055" lon="10.8971816"><ele>209.00000000000003</ele><time>2026-04-18T09:27:36.342Z</time></trkpt><trkpt lat="43.4305498" lon="10.8971256"><ele>209.0</ele><time>2026-04-18T09:27:37.342Z</time></trkpt><trkpt lat="43.4304879" lon="10.8970989"><ele>210.16666666666669</ele><time>2026-04-18T09:27:38.342Z</time></trkpt><trkpt lat="43.4304187" lon="10.8971107"><ele>211.33333333333334</ele><time>2026-04-18T09:27:39.344Z</time></trkpt><trkpt lat="43.4303441" lon="10.897154"><ele>212.5</ele><time>2026-04-18T09:27:40.342Z</time></trkpt><trkpt lat="43.4302642" lon="10.8972215"><ele>213.66666666666669</ele><time>2026-04-18T09:27:41.343Z</time></trkpt><trkpt lat="43.4301865" lon="10.8972869"><ele>214.83333333333334</ele><time>2026-04-18T09:27:42.342Z</time></trkpt><trkpt lat="43.4301092" lon="10.8973527"><ele>216.0</ele><time>2026-04-18T09:27:43.342Z</time></trkpt><trkpt lat="43.4300399" lon="10.8974263"><ele>216.0</ele><time>2026-04-18T09:27:44.342Z</time></trkpt><trkpt lat="43.4299777" lon="10.8975158"><ele>216.00000000000003</ele><time>2026-04-18T09:27:45.343Z</time></trkpt><trkpt lat="43.4299355" lon="10.8976177"><ele>216.00000000000003</ele><time>2026-04-18T09:27:46.341Z</time></trkpt><trkpt lat="43.4299162" lon="10.8977385"><ele>216.0</ele><time>2026-04-18T09:27:47.343Z</time></trkpt><trkpt lat="43.4299002" lon="10.8978646"><ele>216.0</ele><time>2026-04-18T09:27:48.341Z</time></trkpt><trkpt lat="43.429896" lon="10.8979955"><ele>217.20000000000002</ele><time>2026-04-18T09:27:49.342Z</time></trkpt><trkpt lat="43.4298969" lon="10.898138"><ele>218.40000000000003</ele><time>2026-04-18T09:27:50.342Z</time></trkpt><trkpt lat="43.4298981" lon="10.8982829"><ele>219.6</ele><time>2026-04-18T09:27:51.342Z</time></trkpt><trkpt lat="43.4299057" lon="10.8984372"><ele>220.8</ele><time>2026-04-18T09:27:52.341Z</time></trkpt><trkpt lat="43.4299233" lon="10.8985904"><ele>222.0</ele><time>2026-04-18T09:27:53.343Z</time></trkpt><trkpt lat="43.4299366" lon="10.8987212"><ele>223.0</ele><time>2026-04-18T09:27:54.343Z</time></trkpt><trkpt lat="43.4299449" lon="10.8988267"><ele>224.0</ele><time>2026-04-18T09:27:55.342Z</time></trkpt><trkpt lat="43.4299378" lon="10.8989228"><ele>225.0</ele><time>2026-04-18T09:27:56.343Z</time></trkpt><trkpt lat="43.4298879" lon="10.8990502"><ele>226.0</ele><time>2026-04-18T09:27:58.343Z</time></trkpt><trkpt lat="43.4297787" lon="10.8990588"><ele>227.0</ele><time>2026-04-18T09:28:00.345Z</time></trkpt><trkpt lat="43.4297132" lon="10.8990326"><ele>228.0</ele><time>2026-04-18T09:28:01.341Z</time></trkpt><trkpt lat="43.4296442" lon="10.8990076"><ele>229.33333333333334</ele><time>2026-04-18T09:28:02.343Z</time></trkpt><trkpt lat="43.4295677" lon="10.8989934"><ele>230.66666666666669</ele><time>2026-04-18T09:28:03.343Z</time></trkpt><trkpt lat="43.4294874" lon="10.8989984"><ele>232.0</ele><time>2026-04-18T09:28:04.343Z</time></trkpt><trkpt lat="43.4293997" lon="10.8990241"><ele>233.33333333333334</ele><time>2026-04-18T09:28:05.343Z</time></trkpt><trkpt lat="43.4293169" lon="10.8990573"><ele>234.66666666666669</ele><time>2026-04-18T09:28:06.342Z</time></trkpt><trkpt lat="43.4292416" lon="10.8990913"><ele>236.0</ele><time>2026-04-18T09:28:07.343Z</time></trkpt><trkpt lat="43.4291729" lon="10.8991207"><ele>236.0</ele><time>2026-04-18T09:28:08.343Z</time></trkpt><trkpt lat="43.4291096" lon="10.899151"><ele>236.00000000000003</ele><time>2026-04-18T09:28:09.343Z</time></trkpt><trkpt lat="43.4290133" lon="10.8992387"><ele>236.00000000000003</ele><time>2026-04-18T09:28:11.342Z</time></trkpt><trkpt lat="43.4289953" lon="10.8993677"><ele>236.0</ele><time>2026-04-18T09:28:13.344Z</time></trkpt><trkpt lat="43.4290313" lon="10.8995184"><ele>236.0</ele><time>2026-04-18T09:28:15.343Z</time></trkpt><trkpt lat="43.4290589" lon="10.899601"><ele>237.14285714285714</ele><time>2026-04-18T09:28:16.342Z</time></trkpt><trkpt lat="43.4290949" lon="10.8996835"><ele>238.28571428571428</ele><time>2026-04-18T09:28:17.342Z</time></trkpt><trkpt lat="43.4291383" lon="10.8997725"><ele>239.42857142857142</ele><time>2026-04-18T09:28:18.343Z</time></trkpt><trkpt lat="43.4291741" lon="10.8998674"><ele>240.57142857142856</ele><time>2026-04-18T09:28:19.342Z</time></trkpt><trkpt lat="43.4291993" lon="10.8999645"><ele>241.71428571428572</ele><time>2026-04-18T09:28:20.343Z</time></trkpt><trkpt lat="43.4292086" lon="10.9000671"><ele>242.85714285714283</ele><time>2026-04-18T09:28:21.343Z</time></trkpt><trkpt lat="43.4292035" lon="10.900168"><ele>243.99999999999997</ele><time>2026-04-18T09:28:22.342Z</time></trkpt><trkpt lat="43.4291806" lon="10.9002709"><ele>244.83333333333331</ele><time>2026-04-18T09:28:23.344Z</time></trkpt><trkpt lat="43.4291423" lon="10.9003668"><ele>245.66666666666666</ele><time>2026-04-18T09:28:24.342Z</time></trkpt><trkpt lat="43.4290923" lon="10.9004489"><ele>246.5</ele><time>2026-04-18T09:28:25.343Z</time></trkpt><trkpt lat="43.4290235" lon="10.900518"><ele>247.33333333333331</ele><time>2026-04-18T09:28:26.343Z</time></trkpt><trkpt lat="43.4289371" lon="10.900565"><ele>248.16666666666666</ele><time>2026-04-18T09:28:27.343Z</time></trkpt><trkpt lat="43.4288473" lon="10.9005914"><ele>249.0</ele><time>2026-04-18T09:28:28.342Z</time></trkpt><trkpt lat="43.4287685" lon="10.9006235"><ele>250.33333333333334</ele><time>2026-04-18T09:28:29.341Z</time></trkpt><trkpt lat="43.428703" lon="10.900678"><ele>251.66666666666669</ele><time>2026-04-18T09:28:30.341Z</time></trkpt><trkpt lat="43.4286597" lon="10.9007587"><ele>253.0</ele><time>2026-04-18T09:28:31.345Z</time></trkpt><trkpt lat="43.428643" lon="10.9008659"><ele>254.33333333333334</ele><time>2026-04-18T09:28:32.346Z</time></trkpt><trkpt lat="43.4286546" lon="10.9009872"><ele>255.66666666666669</ele><time>2026-04-18T09:28:33.342Z</time></trkpt><trkpt lat="43.4286822" lon="10.9011152"><ele>257.0</ele><time>2026-04-18T09:28:34.341Z</time></trkpt><trkpt lat="43.4287177" lon="10.9012515"><ele>256.5</ele><time>2026-04-18T09:28:35.346Z</time></trkpt><trkpt lat="43.4287663" lon="10.9013908"><ele>256.0</ele><time>2026-04-18T09:28:36.343Z</time></trkpt><trkpt lat="43.4288336" lon="10.901518"><ele>255.5</ele><time>2026-04-18T09:28:37.343Z</time></trkpt><trkpt lat="43.4289131" lon="10.9016302"><ele>255.0</ele><time>2026-04-18T09:28:38.343Z</time></trkpt><trkpt lat="43.4290017" lon="10.9017416"><ele>258.25</ele><time>2026-04-18T09:28:39.345Z</time></trkpt><trkpt lat="43.4290895" lon="10.901862"><ele>261.5</ele><time>2026-04-18T09:28:40.343Z</time></trkpt><trkpt lat="43.4291701" lon="10.9019879"><ele>264.75</ele><time>2026-04-18T09:28:41.346Z</time></trkpt><trkpt lat="43.429262" lon="10.9021027"><ele>268.0</ele><time>2026-04-18T09:28:42.345Z</time></trkpt><trkpt lat="43.4293697" lon="10.9022087"><ele>268.0</ele><time>2026-04-18T09:28:43.343Z</time></trkpt><trkpt lat="43.4294735" lon="10.9023058"><ele>268.0</ele><time>2026-04-18T09:28:44.345Z</time></trkpt><trkpt lat="43.4295643" lon="10.902388"><ele>268.0</ele><time>2026-04-18T09:28:45.346Z</time></trkpt><trkpt lat="43.4296411" lon="10.9024589"><ele>268.0</ele><time>2026-04-18T09:28:46.346Z</time></trkpt><trkpt lat="43.4297042" lon="10.9025257"><ele>268.0</ele><time>2026-04-18T09:28:47.343Z</time></trkpt><trkpt lat="43.4297664" lon="10.9026551"><ele>268.16666666666663</ele><time>2026-04-18T09:28:49.343Z</time></trkpt><trkpt lat="43.4297405" lon="10.9027535"><ele>268.3333333333333</ele><time>2026-04-18T09:28:51.342Z</time></trkpt><trkpt lat="43.4296751" lon="10.9027966"><ele>268.5</ele><time>2026-04-18T09:28:52.342Z</time></trkpt><trkpt lat="43.4295987" lon="10.9028205"><ele>268.6666666666667</ele><time>2026-04-18T09:28:53.342Z</time></trkpt><trkpt lat="43.4295035" lon="10.9028282"><ele>268.83333333333337</ele><time>2026-04-18T09:28:54.343Z</time></trkpt><trkpt lat="43.429407" lon="10.9028268"><ele>269.0</ele><time>2026-04-18T09:28:55.343Z</time></trkpt><trkpt lat="43.4293184" lon="10.9028077"><ele>268.83333333333337</ele><time>2026-04-18T09:28:56.343Z</time></trkpt><trkpt lat="43.4292408" lon="10.9027569"><ele>268.6666666666667</ele><time>2026-04-18T09:28:57.343Z</time></trkpt><trkpt lat="43.4291739" lon="10.9026786"><ele>268.5</ele><time>2026-04-18T09:28:58.342Z</time></trkpt><trkpt lat="43.4291204" lon="10.9025766"><ele>268.3333333333333</ele><time>2026-04-18T09:28:59.344Z</time></trkpt><trkpt lat="43.4290701" lon="10.9024721"><ele>268.16666666666663</ele><time>2026-04-18T09:29:00.343Z</time></trkpt><trkpt lat="43.4290113" lon="10.9023829"><ele>268.0</ele><time>2026-04-18T09:29:01.345Z</time></trkpt><trkpt lat="43.4289388" lon="10.9023119"><ele>268.0</ele><time>2026-04-18T09:29:02.343Z</time></trkpt><trkpt lat="43.4288584" lon="10.9022586"><ele>268.0</ele><time>2026-04-18T09:29:03.343Z</time></trkpt><trkpt lat="43.4287689" lon="10.9022253"><ele>268.0</ele><time>2026-04-18T09:29:04.342Z</time></trkpt><trkpt lat="43.4286748" lon="10.9022144"><ele>268.0</ele><time>2026-04-18T09:29:05.343Z</time></trkpt><trkpt lat="43.4285781" lon="10.9022315"><ele>268.0</ele><time>2026-04-18T09:29:06.342Z</time></trkpt><trkpt lat="43.4284784" lon="10.9022713"><ele>270.0</ele><time>2026-04-18T09:29:07.346Z</time></trkpt><trkpt lat="43.4283747" lon="10.9023112"><ele>272.0</ele><time>2026-04-18T09:29:08.343Z</time></trkpt><trkpt lat="43.4282678" lon="10.9023362"><ele>274.0</ele><time>2026-04-18T09:29:09.342Z</time></trkpt><trkpt lat="43.4281621" lon="10.9023226"><ele>276.0</ele><time>2026-04-18T09:29:10.345Z</time></trkpt><trkpt lat="43.4280628" lon="10.9022775"><ele>278.0</ele><time>2026-04-18T09:29:11.346Z</time></trkpt><trkpt lat="43.427965" lon="10.9022148"><ele>278.6</ele><time>2026-04-18T09:29:12.343Z</time></trkpt><trkpt lat="43.4278724" lon="10.902154"><ele>279.20000000000005</ele><time>2026-04-18T09:29:13.342Z</time></trkpt><trkpt lat="43.4277963" lon="10.9021029"><ele>279.8</ele><time>2026-04-18T09:29:14.342Z</time></trkpt><trkpt lat="43.4277319" lon="10.9020774"><ele>280.40000000000003</ele><time>2026-04-18T09:29:15.343Z</time></trkpt><trkpt lat="43.4276314" lon="10.9021024"><ele>281.0</ele><time>2026-04-18T09:29:17.345Z</time></trkpt><trkpt lat="43.4275713" lon="10.9022036"><ele>281.0</ele><time>2026-04-18T09:29:19.343Z</time></trkpt><trkpt lat="43.427576" lon="10.9023506"><ele>281.0</ele><time>2026-04-18T09:29:21.346Z</time></trkpt><trkpt lat="43.4276393" lon="10.9024819"><ele>281.0</ele><time>2026-04-18T09:29:23.342Z</time></trkpt><trkpt lat="43.4276905" lon="10.9025408"><ele>281.0</ele><time>2026-04-18T09:29:24.343Z</time></trkpt><trkpt lat="43.4277611" lon="10.9026065"><ele>281.0</ele><time>2026-04-18T09:29:25.342Z</time></trkpt><trkpt lat="43.4278576" lon="10.9026842"><ele>282.5</ele><time>2026-04-18T09:29:26.343Z</time></trkpt><trkpt lat="43.4279597" lon="10.9027713"><ele>284.0</ele><time>2026-04-18T09:29:27.342Z</time></trkpt><trkpt lat="43.4280602" lon="10.9028671"><ele>285.5</ele><time>2026-04-18T09:29:28.346Z</time></trkpt><trkpt lat="43.4281596" lon="10.9029516"><ele>287.0</ele><time>2026-04-18T09:29:29.343Z</time></trkpt><trkpt lat="43.4282648" lon="10.9030268"><ele>287.0</ele><time>2026-04-18T09:29:30.343Z</time></trkpt><trkpt lat="43.4283522" lon="10.9030951"><ele>287.0</ele><time>2026-04-18T09:29:31.342Z</time></trkpt><trkpt lat="43.4284259" lon="10.9031586"><ele>287.0</ele><time>2026-04-18T09:29:32.343Z</time></trkpt><trkpt lat="43.4284798" lon="10.9032329"><ele>287.0</ele><time>2026-04-18T09:29:33.343Z</time></trkpt><trkpt lat="43.428535" lon="10.9033271"><ele>287.0</ele><time>2026-04-18T09:29:34.346Z</time></trkpt><trkpt lat="43.4285917" lon="10.9034408"><ele>286.4</ele><time>2026-04-18T09:29:35.342Z</time></trkpt><trkpt lat="43.428648" lon="10.9035651"><ele>285.79999999999995</ele><time>2026-04-18T09:29:36.343Z</time></trkpt><trkpt lat="43.4287048" lon="10.9036967"><ele>285.2</ele><time>2026-04-18T09:29:37.342Z</time></trkpt><trkpt lat="43.4287557" lon="10.9038345"><ele>284.59999999999997</ele><time>2026-04-18T09:29:38.343Z</time></trkpt><trkpt lat="43.428801" lon="10.9039794"><ele>284.0</ele><time>2026-04-18T09:29:39.343Z</time></trkpt><trkpt lat="43.4288453" lon="10.9041287"><ele>286.5</ele><time>2026-04-18T09:29:40.342Z</time></trkpt><trkpt lat="43.4288879" lon="10.9042775"><ele>289.0</ele><time>2026-04-18T09:29:41.346Z</time></trkpt><trkpt lat="43.4289274" lon="10.9044306"><ele>291.5</ele><time>2026-04-18T09:29:42.344Z</time></trkpt><trkpt lat="43.4289606" lon="10.9045851"><ele>294.0</ele><time>2026-04-18T09:29:43.343Z</time></trkpt><trkpt lat="43.428992" lon="10.9047291"><ele>294.0</ele><time>2026-04-18T09:29:44.344Z</time></trkpt><trkpt lat="43.4290315" lon="10.9048586"><ele>294.0</ele><time>2026-04-18T09:29:45.343Z</time></trkpt><trkpt lat="43.4290959" lon="10.9049724"><ele>294.0</ele><time>2026-04-18T09:29:46.343Z</time></trkpt><trkpt lat="43.4291655" lon="10.9050814"><ele>294.0</ele><time>2026-04-18T09:29:47.344Z</time></trkpt><trkpt lat="43.4292332" lon="10.9051888"><ele>294.0</ele><time>2026-04-18T09:29:48.343Z</time></trkpt><trkpt lat="43.4293015" lon="10.9052838"><ele>295.42857142857144</ele><time>2026-04-18T09:29:49.344Z</time></trkpt><trkpt lat="43.4293524" lon="10.9053752"><ele>296.8571428571429</ele><time>2026-04-18T09:29:50.346Z</time></trkpt><trkpt lat="43.4293947" lon="10.9054662"><ele>298.2857142857143</ele><time>2026-04-18T09:29:51.346Z</time></trkpt><trkpt lat="43.4294236" lon="10.9055633"><ele>299.7142857142857</ele><time>2026-04-18T09:29:52.344Z</time></trkpt><trkpt lat="43.4294315" lon="10.9056564"><ele>301.14285714285717</ele><time>2026-04-18T09:29:53.344Z</time></trkpt><trkpt lat="43.4294177" lon="10.9057419"><ele>302.57142857142856</ele><time>2026-04-18T09:29:54.343Z</time></trkpt><trkpt lat="43.4293776" lon="10.9058173"><ele>304.0</ele><time>2026-04-18T09:29:55.343Z</time></trkpt><trkpt lat="43.4293238" lon="10.9058767"><ele>304.0</ele><time>2026-04-18T09:29:56.344Z</time></trkpt><trkpt lat="43.4292585" lon="10.9058987"><ele>304.0</ele><time>2026-04-18T09:29:57.347Z</time></trkpt><trkpt lat="43.4291743" lon="10.9058808"><ele>304.0</ele><time>2026-04-18T09:29:58.342Z</time></trkpt><trkpt lat="43.4290841" lon="10.9058425"><ele>304.0</ele><time>2026-04-18T09:29:59.346Z</time></trkpt><trkpt lat="43.4289737" lon="10.9057854"><ele>304.0</ele><time>2026-04-18T09:30:00.345Z</time></trkpt><trkpt lat="43.428824" lon="10.9056775"><ele>308.3333333333333</ele><time>2026-04-18T09:30:01.344Z</time></trkpt><trkpt lat="43.4286752" lon="10.9055818"><ele>312.6666666666667</ele><time>2026-04-18T09:30:02.343Z</time></trkpt><trkpt lat="43.428532" lon="10.9054903"><ele>317.0</ele><time>2026-04-18T09:30:03.345Z</time></trkpt><trkpt lat="43.4283906" lon="10.9054035"><ele>317.0</ele><time>2026-04-18T09:30:04.343Z</time></trkpt><trkpt lat="43.4282535" lon="10.9053179"><ele>317.0</ele><time>2026-04-18T09:30:05.344Z</time></trkpt><trkpt lat="43.4281181" lon="10.9052403"><ele>317.0</ele><time>2026-04-18T09:30:06.343Z</time></trkpt><trkpt lat="43.427987" lon="10.9051688"><ele>317.0</ele><time>2026-04-18T09:30:07.344Z</time></trkpt><trkpt lat="43.4278691" lon="10.9050925"><ele>317.25</ele><time>2026-04-18T09:30:08.345Z</time></trkpt><trkpt lat="43.4277565" lon="10.9050143"><ele>317.5</ele><time>2026-04-18T09:30:09.344Z</time></trkpt><trkpt lat="43.4276401" lon="10.9049372"><ele>317.75</ele><time>2026-04-18T09:30:10.343Z</time></trkpt><trkpt lat="43.4275334" lon="10.9048652"><ele>318.0</ele><time>2026-04-18T09:30:11.343Z</time></trkpt><trkpt lat="43.427446" lon="10.9048034"><ele>318.0</ele><time>2026-04-18T09:30:12.345Z</time></trkpt><trkpt lat="43.4273687" lon="10.9047637"><ele>318.0</ele><time>2026-04-18T09:30:13.344Z</time></trkpt><trkpt lat="43.4272959" lon="10.9047483"><ele>318.0</ele><time>2026-04-18T09:30:14.343Z</time></trkpt><trkpt lat="43.4272295" lon="10.9047629"><ele>318.0</ele><time>2026-04-18T09:30:15.344Z</time></trkpt><trkpt lat="43.4271724" lon="10.9048198"><ele>318.0</ele><time>2026-04-18T09:30:16.343Z</time></trkpt><trkpt lat="43.4271242" lon="10.9049125"><ele>318.0</ele><time>2026-04-18T09:30:17.345Z</time></trkpt><trkpt lat="43.4270781" lon="10.9050257"><ele>320.6</ele><time>2026-04-18T09:30:18.344Z</time></trkpt><trkpt lat="43.4270245" lon="10.9051494"><ele>323.20000000000005</ele><time>2026-04-18T09:30:19.346Z</time></trkpt><trkpt lat="43.4269596" lon="10.9052625"><ele>325.8</ele><time>2026-04-18T09:30:20.346Z</time></trkpt><trkpt lat="43.4268904" lon="10.9053535"><ele>328.40000000000003</ele><time>2026-04-18T09:30:21.343Z</time></trkpt><trkpt lat="43.4268211" lon="10.9054168"><ele>331.0</ele><time>2026-04-18T09:30:22.343Z</time></trkpt><trkpt lat="43.4267556" lon="10.9054533"><ele>331.0</ele><time>2026-04-18T09:30:23.346Z</time></trkpt><trkpt lat="43.4266952" lon="10.9054782"><ele>331.0</ele><time>2026-04-18T09:30:24.342Z</time></trkpt><trkpt lat="43.4266049" lon="10.9055395"><ele>331.0</ele><time>2026-04-18T09:30:26.345Z</time></trkpt><trkpt lat="43.4265767" lon="10.905652"><ele>331.0</ele><time>2026-04-18T09:30:28.343Z</time></trkpt><trkpt lat="43.4266195" lon="10.9057724"><ele>331.0</ele><time>2026-04-18T09:30:30.344Z</time></trkpt><trkpt lat="43.4267335" lon="10.9058531"><ele>331.0</ele><time>2026-04-18T09:30:32.343Z</time></trkpt><trkpt lat="43.4268044" lon="10.9058979"><ele>331.0</ele><time>2026-04-18T09:30:33.343Z</time></trkpt><trkpt lat="43.4268831" lon="10.9059479"><ele>331.0</ele><time>2026-04-18T09:30:34.343Z</time></trkpt><trkpt lat="43.4269754" lon="10.9060048"><ele>331.0</ele><time>2026-04-18T09:30:35.344Z</time></trkpt><trkpt lat="43.4270678" lon="10.9060697"><ele>331.0</ele><time>2026-04-18T09:30:36.345Z</time></trkpt><trkpt lat="43.4271528" lon="10.906142"><ele>333.20000000000005</ele><time>2026-04-18T09:30:37.342Z</time></trkpt><trkpt lat="43.4272382" lon="10.9062154"><ele>335.40000000000003</ele><time>2026-04-18T09:30:38.343Z</time></trkpt><trkpt lat="43.4273189" lon="10.9062869"><ele>337.6</ele><time>2026-04-18T09:30:39.343Z</time></trkpt><trkpt lat="43.4273941" lon="10.9063608"><ele>339.8</ele><time>2026-04-18T09:30:40.343Z</time></trkpt><trkpt lat="43.4274597" lon="10.9064402"><ele>342.0</ele><time>2026-04-18T09:30:41.343Z</time></trkpt><trkpt lat="43.4275223" lon="10.9065315"><ele>342.0</ele><time>2026-04-18T09:30:42.343Z</time></trkpt><trkpt lat="43.4275761" lon="10.9066454"><ele>342.0</ele><time>2026-04-18T09:30:43.342Z</time></trkpt><trkpt lat="43.4276375" lon="10.9067758"><ele>342.0</ele><time>2026-04-18T09:30:44.346Z</time></trkpt><trkpt lat="43.4276886" lon="10.9069123"><ele>342.0</ele><time>2026-04-18T09:30:45.343Z</time></trkpt><trkpt lat="43.4277326" lon="10.9070435"><ele>342.0</ele><time>2026-04-18T09:30:46.344Z</time></trkpt><trkpt lat="43.4277723" lon="10.907173"><ele>343.6666666666667</ele><time>2026-04-18T09:30:47.343Z</time></trkpt><trkpt lat="43.4277999" lon="10.9073009"><ele>345.3333333333333</ele><time>2026-04-18T09:30:48.343Z</time></trkpt><trkpt lat="43.4278183" lon="10.9074191"><ele>347.0</ele><time>2026-04-18T09:30:49.342Z</time></trkpt><trkpt lat="43.4278254" lon="10.9075319"><ele>348.66666666666663</ele><time>2026-04-18T09:30:50.344Z</time></trkpt><trkpt lat="43.4278249" lon="10.9076419"><ele>350.3333333333333</ele><time>2026-04-18T09:30:51.343Z</time></trkpt><trkpt lat="43.4278106" lon="10.90775"><ele>352.0</ele><time>2026-04-18T09:30:52.344Z</time></trkpt><trkpt lat="43.4277786" lon="10.9078618"><ele>352.8</ele><time>2026-04-18T09:30:53.343Z</time></trkpt><trkpt lat="43.4277284" lon="10.9079902"><ele>353.6</ele><time>2026-04-18T09:30:54.344Z</time></trkpt><trkpt lat="43.4276849" lon="10.9081171"><ele>354.40000000000003</ele><time>2026-04-18T09:30:55.343Z</time></trkpt><trkpt lat="43.4276384" lon="10.9082467"><ele>355.20000000000005</ele><time>2026-04-18T09:30:56.344Z</time></trkpt><trkpt lat="43.4275845" lon="10.9083643"><ele>356.0</ele><time>2026-04-18T09:30:57.343Z</time></trkpt><trkpt lat="43.4275297" lon="10.9084646"><ele>356.6666666666667</ele><time>2026-04-18T09:30:58.343Z</time></trkpt><trkpt lat="43.4274581" lon="10.9085599"><ele>357.33333333333337</ele><time>2026-04-18T09:30:59.345Z</time></trkpt><trkpt lat="43.4273792" lon="10.9086355"><ele>358.0</ele><time>2026-04-18T09:31:00.344Z</time></trkpt><trkpt lat="43.427295" lon="10.9086845"><ele>358.6666666666667</ele><time>2026-04-18T09:31:01.343Z</time></trkpt><trkpt lat="43.4272192" lon="10.9087262"><ele>359.3333333333333</ele><time>2026-04-18T09:31:02.342Z</time></trkpt><trkpt lat="43.4271607" lon="10.9087853"><ele>360.0</ele><time>2026-04-18T09:31:03.343Z</time></trkpt><trkpt lat="43.4271423" lon="10.9089317"><ele>360.0</ele><time>2026-04-18T09:31:05.343Z</time></trkpt><trkpt lat="43.4272343" lon="10.9090613"><ele>360.0</ele><time>2026-04-18T09:31:07.343Z</time></trkpt><trkpt lat="43.4273034" lon="10.9091238"><ele>360.0</ele><time>2026-04-18T09:31:08.343Z</time></trkpt><trkpt lat="43.4273835" lon="10.9091886"><ele>360.0</ele><time>2026-04-18T09:31:09.344Z</time></trkpt><trkpt lat="43.4274767" lon="10.9092521"><ele>360.0</ele><time>2026-04-18T09:31:10.343Z</time></trkpt><trkpt lat="43.4275658" lon="10.9093149"><ele>361.8</ele><time>2026-04-18T09:31:11.343Z</time></trkpt><trkpt lat="43.4276484" lon="10.9093898"><ele>363.6</ele><time>2026-04-18T09:31:12.343Z</time></trkpt><trkpt lat="43.4277136" lon="10.9094913"><ele>365.4</ele><time>2026-04-18T09:31:13.343Z</time></trkpt><trkpt lat="43.4277587" lon="10.9096029"><ele>367.2</ele><time>2026-04-18T09:31:14.343Z</time></trkpt><trkpt lat="43.4277912" lon="10.909722"><ele>369.0</ele><time>2026-04-18T09:31:15.344Z</time></trkpt><trkpt lat="43.4278083" lon="10.9098387"><ele>369.0</ele><time>2026-04-18T09:31:16.343Z</time></trkpt><trkpt lat="43.4278002" lon="10.9099565"><ele>369.0</ele><time>2026-04-18T09:31:17.343Z</time></trkpt><trkpt lat="43.4277795" lon="10.9100845"><ele>369.0</ele><time>2026-04-18T09:31:18.344Z</time></trkpt><trkpt lat="43.4277688" lon="10.9102144"><ele>369.0</ele><time>2026-04-18T09:31:19.344Z</time></trkpt><trkpt lat="43.4277771" lon="10.9103425"><ele>369.0</ele><time>2026-04-18T09:31:20.343Z</time></trkpt><trkpt lat="43.4278065" lon="10.9104728"><ele>370.4</ele><time>2026-04-18T09:31:21.345Z</time></trkpt><trkpt lat="43.4278505" lon="10.9106045"><ele>371.79999999999995</ele><time>2026-04-18T09:31:22.342Z</time></trkpt><trkpt lat="43.4278923" lon="10.9107377"><ele>373.20000000000005</ele><time>2026-04-18T09:31:23.344Z</time></trkpt><trkpt lat="43.4279185" lon="10.9108781"><ele>374.6</ele><time>2026-04-18T09:31:24.343Z</time></trkpt><trkpt lat="43.4279245" lon="10.9110193"><ele>376.0</ele><time>2026-04-18T09:31:25.343Z</time></trkpt><trkpt lat="43.4279225" lon="10.9111687"><ele>378.0</ele><time>2026-04-18T09:31:26.343Z</time></trkpt><trkpt lat="43.4279215" lon="10.9113333"><ele>380.0</ele><time>2026-04-18T09:31:27.346Z</time></trkpt><trkpt lat="43.4279143" lon="10.9115046"><ele>382.0</ele><time>2026-04-18T09:31:28.341Z</time></trkpt><trkpt lat="43.4279023" lon="10.9116865"><ele>384.0</ele><time>2026-04-18T09:31:29.343Z</time></trkpt><trkpt lat="43.427887" lon="10.9118665"><ele>385.4</ele><time>2026-04-18T09:31:30.342Z</time></trkpt><trkpt lat="43.4278648" lon="10.9120304"><ele>386.79999999999995</ele><time>2026-04-18T09:31:31.342Z</time></trkpt><trkpt lat="43.427835" lon="10.9121829"><ele>388.20000000000005</ele><time>2026-04-18T09:31:32.342Z</time></trkpt><trkpt lat="43.4278069" lon="10.9123222"><ele>389.6</ele><time>2026-04-18T09:31:33.342Z</time></trkpt><trkpt lat="43.4277726" lon="10.9124487"><ele>391.0</ele><time>2026-04-18T09:31:34.342Z</time></trkpt><trkpt lat="43.4277309" lon="10.9125722"><ele>390.4</ele><time>2026-04-18T09:31:35.342Z</time></trkpt><trkpt lat="43.4276846" lon="10.9126941"><ele>389.8</ele><time>2026-04-18T09:31:36.342Z</time></trkpt><trkpt lat="43.4276287" lon="10.9128193"><ele>389.2</ele><time>2026-04-18T09:31:37.343Z</time></trkpt><trkpt lat="43.427565" lon="10.9129462"><ele>388.59999999999997</ele><time>2026-04-18T09:31:38.342Z</time></trkpt><trkpt lat="43.4275008" lon="10.913074"><ele>388.0</ele><time>2026-04-18T09:31:39.341Z</time></trkpt><trkpt lat="43.4274446" lon="10.9132055"><ele>388.0</ele><time>2026-04-18T09:31:40.341Z</time></trkpt><trkpt lat="43.4273974" lon="10.9133377"><ele>388.0</ele><time>2026-04-18T09:31:41.342Z</time></trkpt><trkpt lat="43.427363" lon="10.9134717"><ele>388.0</ele><time>2026-04-18T09:31:42.342Z</time></trkpt><trkpt lat="43.4273568" lon="10.9136041"><ele>388.0</ele><time>2026-04-18T09:31:43.342Z</time></trkpt><trkpt lat="43.4273813" lon="10.9137392"><ele>388.0</ele><time>2026-04-18T09:31:44.343Z</time></trkpt><trkpt lat="43.4274241" lon="10.9138745"><ele>387.75</ele><time>2026-04-18T09:31:45.343Z</time></trkpt><trkpt lat="43.4274879" lon="10.914012"><ele>387.5</ele><time>2026-04-18T09:31:46.342Z</time></trkpt><trkpt lat="43.4275646" lon="10.914153"><ele>387.25</ele><time>2026-04-18T09:31:47.344Z</time></trkpt><trkpt lat="43.4276475" lon="10.9142959"><ele>387.0</ele><time>2026-04-18T09:31:48.342Z</time></trkpt><trkpt lat="43.4277361" lon="10.9144423"><ele>386.0</ele><time>2026-04-18T09:31:49.342Z</time></trkpt><trkpt lat="43.4278266" lon="10.9145927"><ele>385.0</ele><time>2026-04-18T09:31:50.344Z</time></trkpt><trkpt lat="43.4279256" lon="10.9147429"><ele>384.0</ele><time>2026-04-18T09:31:51.343Z</time></trkpt><trkpt lat="43.4280256" lon="10.9148967"><ele>383.0</ele><time>2026-04-18T09:31:52.346Z</time></trkpt><trkpt lat="43.4281226" lon="10.9150406"><ele>385.25</ele><time>2026-04-18T09:31:53.345Z</time></trkpt><trkpt lat="43.4282195" lon="10.9151722"><ele>387.5</ele><time>2026-04-18T09:31:54.346Z</time></trkpt><trkpt lat="43.4283194" lon="10.9152875"><ele>389.75</ele><time>2026-04-18T09:31:55.342Z</time></trkpt><trkpt lat="43.4284224" lon="10.9153763"><ele>392.0</ele><time>2026-04-18T09:31:56.342Z</time></trkpt><trkpt lat="43.4285273" lon="10.915433"><ele>392.0</ele><time>2026-04-18T09:31:57.342Z</time></trkpt><trkpt lat="43.4286313" lon="10.9154672"><ele>392.0</ele><time>2026-04-18T09:31:58.341Z</time></trkpt><trkpt lat="43.4287352" lon="10.9154997"><ele>392.0</ele><time>2026-04-18T09:31:59.343Z</time></trkpt><trkpt lat="43.4288295" lon="10.9155516"><ele>392.0</ele><time>2026-04-18T09:32:00.342Z</time></trkpt><trkpt lat="43.4289059" lon="10.915634"><ele>392.0</ele><time>2026-04-18T09:32:01.341Z</time></trkpt><trkpt lat="43.4289569" lon="10.9157429"><ele>395.40000000000003</ele><time>2026-04-18T09:32:02.342Z</time></trkpt><trkpt lat="43.4289898" lon="10.9158673"><ele>398.8</ele><time>2026-04-18T09:32:03.344Z</time></trkpt><trkpt lat="43.4289987" lon="10.9160055"><ele>402.2</ele><time>2026-04-18T09:32:04.343Z</time></trkpt><trkpt lat="43.428995" lon="10.9161454"><ele>405.6</ele><time>2026-04-18T09:32:05.342Z</time></trkpt><trkpt lat="43.4289923" lon="10.9162918"><ele>409.0</ele><time>2026-04-18T09:32:06.343Z</time></trkpt><trkpt lat="43.4290014" lon="10.9164455"><ele>410.25</ele><time>2026-04-18T09:32:07.342Z</time></trkpt><trkpt lat="43.4290167" lon="10.9166055"><ele>411.5</ele><time>2026-04-18T09:32:08.342Z</time></trkpt><trkpt lat="43.4290354" lon="10.9167767"><ele>412.75</ele><time>2026-04-18T09:32:09.343Z</time></trkpt><trkpt lat="43.4290589" lon="10.916957"><ele>414.0</ele><time>2026-04-18T09:32:10.342Z</time></trkpt><trkpt lat="43.4290869" lon="10.9171329"><ele>414.5</ele><time>2026-04-18T09:32:11.343Z</time></trkpt><trkpt lat="43.4291169" lon="10.9173033"><ele>415.0</ele><time>2026-04-18T09:32:12.343Z</time></trkpt><trkpt lat="43.4291544" lon="10.9174628"><ele>415.5</ele><time>2026-04-18T09:32:13.341Z</time></trkpt><trkpt lat="43.4291949" lon="10.9176203"><ele>416.0</ele><time>2026-04-18T09:32:14.342Z</time></trkpt><trkpt lat="43.4292324" lon="10.9177797"><ele>416.0</ele><time>2026-04-18T09:32:15.344Z</time></trkpt><trkpt lat="43.4292613" lon="10.9179458"><ele>416.0</ele><time>2026-04-18T09:32:16.342Z</time></trkpt><trkpt lat="43.4292823" lon="10.918121"><ele>416.0</ele><time>2026-04-18T09:32:17.341Z</time></trkpt><trkpt lat="43.4292988" lon="10.9182985"><ele>416.0</ele><time>2026-04-18T09:32:18.341Z</time></trkpt><trkpt lat="43.4293078" lon="10.9184785"><ele>417.25</ele><time>2026-04-18T09:32:19.342Z</time></trkpt><trkpt lat="43.4293062" lon="10.9186662"><ele>418.5</ele><time>2026-04-18T09:32:20.342Z</time></trkpt><trkpt lat="43.4292847" lon="10.918859"><ele>419.75</ele><time>2026-04-18T09:32:21.343Z</time></trkpt><trkpt lat="43.4292404" lon="10.9190463"><ele>421.0</ele><time>2026-04-18T09:32:22.345Z</time></trkpt><trkpt lat="43.4291902" lon="10.919228"><ele>422.25</ele><time>2026-04-18T09:32:23.343Z</time></trkpt><trkpt lat="43.4291332" lon="10.9193978"><ele>423.5</ele><time>2026-04-18T09:32:24.344Z</time></trkpt><trkpt lat="43.429075" lon="10.9195515"><ele>424.75</ele><time>2026-04-18T09:32:25.343Z</time></trkpt><trkpt lat="43.4290141" lon="10.9196956"><ele>426.0</ele><time>2026-04-18T09:32:26.348Z</time></trkpt><trkpt lat="43.4289585" lon="10.9198304"><ele>426.0</ele><time>2026-04-18T09:32:27.344Z</time></trkpt><trkpt lat="43.428913" lon="10.919963"><ele>426.0</ele><time>2026-04-18T09:32:28.345Z</time></trkpt><trkpt lat="43.4288823" lon="10.920089"><ele>426.0</ele><time>2026-04-18T09:32:29.344Z</time></trkpt><trkpt lat="43.4288737" lon="10.9202141"><ele>426.0</ele><time>2026-04-18T09:32:30.344Z</time></trkpt><trkpt lat="43.4288808" lon="10.9203497"><ele>426.0</ele><time>2026-04-18T09:32:31.343Z</time></trkpt><trkpt lat="43.4289027" lon="10.9204976"><ele>426.0</ele><time>2026-04-18T09:32:32.343Z</time></trkpt><trkpt lat="43.4289325" lon="10.9206502"><ele>426.0</ele><time>2026-04-18T09:32:33.346Z</time></trkpt><trkpt lat="43.4289625" lon="10.9207924"><ele>426.0</ele><time>2026-04-18T09:32:34.343Z</time></trkpt><trkpt lat="43.4289814" lon="10.9209242"><ele>426.0</ele><time>2026-04-18T09:32:35.346Z</time></trkpt><trkpt lat="43.428991" lon="10.9210463"><ele>426.0</ele><time>2026-04-18T09:32:36.343Z</time></trkpt><trkpt lat="43.4289911" lon="10.9211639"><ele>425.3333333333333</ele><time>2026-04-18T09:32:37.343Z</time></trkpt><trkpt lat="43.4289811" lon="10.9212753"><ele>424.66666666666663</ele><time>2026-04-18T09:32:38.346Z</time></trkpt><trkpt lat="43.4289668" lon="10.9213704"><ele>424.0</ele><time>2026-04-18T09:32:39.343Z</time></trkpt><trkpt lat="43.4289331" lon="10.9214672"><ele>423.3333333333333</ele><time>2026-04-18T09:32:40.342Z</time></trkpt><trkpt lat="43.4288807" lon="10.9215544"><ele>422.66666666666663</ele><time>2026-04-18T09:32:41.343Z</time></trkpt><trkpt lat="43.4288122" lon="10.9216345"><ele>422.0</ele><time>2026-04-18T09:32:42.343Z</time></trkpt><trkpt lat="43.4287307" lon="10.9217106"><ele>422.0</ele><time>2026-04-18T09:32:43.343Z</time></trkpt><trkpt lat="43.4286462" lon="10.9217935"><ele>422.0</ele><time>2026-04-18T09:32:44.343Z</time></trkpt><trkpt lat="43.4285583" lon="10.9218818"><ele>422.0</ele><time>2026-04-18T09:32:45.343Z</time></trkpt><trkpt lat="43.4284724" lon="10.9219858"><ele>422.0</ele><time>2026-04-18T09:32:46.345Z</time></trkpt><trkpt lat="43.4283888" lon="10.9221127"><ele>422.0</ele><time>2026-04-18T09:32:47.345Z</time></trkpt><trkpt lat="43.4283178" lon="10.9222575"><ele>422.0</ele><time>2026-04-18T09:32:48.345Z</time></trkpt><trkpt lat="43.4282508" lon="10.9224203"><ele>422.0</ele><time>2026-04-18T09:32:49.344Z</time></trkpt><trkpt lat="43.4281934" lon="10.9225838"><ele>422.0</ele><time>2026-04-18T09:32:50.345Z</time></trkpt><trkpt lat="43.4281509" lon="10.9227376"><ele>422.20000000000005</ele><time>2026-04-18T09:32:51.342Z</time></trkpt><trkpt lat="43.4281129" lon="10.9228813"><ele>422.4</ele><time>2026-04-18T09:32:52.342Z</time></trkpt><trkpt lat="43.428078" lon="10.9230196"><ele>422.6</ele><time>2026-04-18T09:32:53.349Z</time></trkpt><trkpt lat="43.4280436" lon="10.9231598"><ele>422.79999999999995</ele><time>2026-04-18T09:32:54.342Z</time></trkpt><trkpt lat="43.4280099" lon="10.9233035"><ele>423.0</ele><time>2026-04-18T09:32:55.342Z</time></trkpt><trkpt lat="43.4279736" lon="10.9234486"><ele>431.0</ele><time>2026-04-18T09:32:56.345Z</time></trkpt><trkpt lat="43.4279386" lon="10.9236027"><ele>439.0</ele><time>2026-04-18T09:32:57.343Z</time></trkpt><trkpt lat="43.4279052" lon="10.9237584"><ele>447.0</ele><time>2026-04-18T09:32:58.342Z</time></trkpt><trkpt lat="43.4278725" lon="10.9239251"><ele>455.0</ele><time>2026-04-18T09:32:59.342Z</time></trkpt><trkpt lat="43.4278531" lon="10.9240881"><ele>456.25</ele><time>2026-04-18T09:33:00.342Z</time></trkpt><trkpt lat="43.4278383" lon="10.9242587"><ele>457.5</ele><time>2026-04-18T09:33:01.344Z</time></trkpt><trkpt lat="43.4278317" lon="10.9244372"><ele>458.75</ele><time>2026-04-18T09:33:02.342Z</time></trkpt><trkpt lat="43.4278314" lon="10.9246155"><ele>460.0</ele><time>2026-04-18T09:33:03.343Z</time></trkpt><trkpt lat="43.4278344" lon="10.924795"><ele>460.0</ele><time>2026-04-18T09:33:04.342Z</time></trkpt><trkpt lat="43.4278356" lon="10.9249778"><ele>460.0</ele><time>2026-04-18T09:33:05.343Z</time></trkpt><trkpt lat="43.4278383" lon="10.9251601"><ele>460.0</ele><time>2026-04-18T09:33:06.343Z</time></trkpt><trkpt lat="43.4278461" lon="10.9253349"><ele>460.0</ele><time>2026-04-18T09:33:07.342Z</time></trkpt><trkpt lat="43.4278493" lon="10.9254996"><ele>459.6666666666667</ele><time>2026-04-18T09:33:08.342Z</time></trkpt><trkpt lat="43.4278475" lon="10.9256423"><ele>459.33333333333337</ele><time>2026-04-18T09:33:09.344Z</time></trkpt><trkpt lat="43.4278459" lon="10.9257672"><ele>459.0</ele><time>2026-04-18T09:33:10.342Z</time></trkpt><trkpt lat="43.4278347" lon="10.9258801"><ele>458.66666666666663</ele><time>2026-04-18T09:33:11.342Z</time></trkpt><trkpt lat="43.4278131" lon="10.9259887"><ele>458.3333333333333</ele><time>2026-04-18T09:33:12.342Z</time></trkpt><trkpt lat="43.4277813" lon="10.9260921"><ele>458.0</ele><time>2026-04-18T09:33:13.346Z</time></trkpt><trkpt lat="43.4277482" lon="10.9261805"><ele>457.49999999999994</ele><time>2026-04-18T09:33:14.345Z</time></trkpt><trkpt lat="43.4277119" lon="10.9262554"><ele>457.0</ele><time>2026-04-18T09:33:15.344Z</time></trkpt><trkpt lat="43.4276661" lon="10.9263205"><ele>456.5</ele><time>2026-04-18T09:33:16.343Z</time></trkpt><trkpt lat="43.4276097" lon="10.9263684"><ele>456.0</ele><time>2026-04-18T09:33:17.351Z</time></trkpt><trkpt lat="43.4275357" lon="10.9264014"><ele>455.49999999999994</ele><time>2026-04-18T09:33:18.343Z</time></trkpt><trkpt lat="43.4274457" lon="10.9264225"><ele>455.0</ele><time>2026-04-18T09:33:19.343Z</time></trkpt><trkpt lat="43.4273452" lon="10.9264329"><ele>454.99999999999994</ele><time>2026-04-18T09:33:20.344Z</time></trkpt><trkpt lat="43.4272471" lon="10.9264503"><ele>455.0</ele><time>2026-04-18T09:33:21.343Z</time></trkpt><trkpt lat="43.4271535" lon="10.926493"><ele>455.0</ele><time>2026-04-18T09:33:22.343Z</time></trkpt><trkpt lat="43.4270801" lon="10.926555"><ele>455.0</ele><time>2026-04-18T09:33:23.346Z</time></trkpt><trkpt lat="43.4270256" lon="10.9266394"><ele>454.99999999999994</ele><time>2026-04-18T09:33:24.342Z</time></trkpt><trkpt lat="43.4269823" lon="10.9267362"><ele>455.0</ele><time>2026-04-18T09:33:25.347Z</time></trkpt><trkpt lat="43.4269598" lon="10.9268395"><ele>456.8333333333333</ele><time>2026-04-18T09:33:26.343Z</time></trkpt><trkpt lat="43.4269598" lon="10.9269431"><ele>458.66666666666663</ele><time>2026-04-18T09:33:27.344Z</time></trkpt><trkpt lat="43.4269939" lon="10.9270317"><ele>460.5</ele><time>2026-04-18T09:33:28.342Z</time></trkpt><trkpt lat="43.4270512" lon="10.927097"><ele>462.33333333333337</ele><time>2026-04-18T09:33:29.343Z</time></trkpt><trkpt lat="43.4271324" lon="10.9271494"><ele>464.1666666666667</ele><time>2026-04-18T09:33:30.342Z</time></trkpt><trkpt lat="43.4272111" lon="10.9272005"><ele>466.0</ele><time>2026-04-18T09:33:31.343Z</time></trkpt><trkpt lat="43.4273006" lon="10.9272507"><ele>466.0</ele><time>2026-04-18T09:33:32.342Z</time></trkpt><trkpt lat="43.4274033" lon="10.9273029"><ele>466.0</ele><time>2026-04-18T09:33:33.343Z</time></trkpt><trkpt lat="43.4274898" lon="10.9273708"><ele>466.0</ele><time>2026-04-18T09:33:34.342Z</time></trkpt><trkpt lat="43.4275619" lon="10.9274578"><ele>466.0</ele><time>2026-04-18T09:33:35.343Z</time></trkpt><trkpt lat="43.4276233" lon="10.9275568"><ele>466.0</ele><time>2026-04-18T09:33:36.342Z</time></trkpt><trkpt lat="43.4276804" lon="10.9276671"><ele>469.20000000000005</ele><time>2026-04-18T09:33:37.343Z</time></trkpt><trkpt lat="43.4277367" lon="10.9277825"><ele>472.40000000000003</ele><time>2026-04-18T09:33:38.342Z</time></trkpt><trkpt lat="43.427787" lon="10.9279073"><ele>475.6</ele><time>2026-04-18T09:33:39.343Z</time></trkpt><trkpt lat="43.4278381" lon="10.9280274"><ele>478.8</ele><time>2026-04-18T09:33:40.342Z</time></trkpt><trkpt lat="43.4278868" lon="10.9281413"><ele>482.0</ele><time>2026-04-18T09:33:41.342Z</time></trkpt><trkpt lat="43.427926" lon="10.9282456"><ele>481.99999999999994</ele><time>2026-04-18T09:33:42.342Z</time></trkpt><trkpt lat="43.4279638" lon="10.9283453"><ele>482.0</ele><time>2026-04-18T09:33:43.343Z</time></trkpt><trkpt lat="43.4279896" lon="10.9284559"><ele>482.0</ele><time>2026-04-18T09:33:44.344Z</time></trkpt><trkpt lat="43.4280106" lon="10.9285709"><ele>482.0</ele><time>2026-04-18T09:33:45.343Z</time></trkpt><trkpt lat="43.4280185" lon="10.9286995"><ele>481.99999999999994</ele><time>2026-04-18T09:33:46.342Z</time></trkpt><trkpt lat="43.4280272" lon="10.9288365"><ele>482.0</ele><time>2026-04-18T09:33:47.344Z</time></trkpt><trkpt lat="43.4280411" lon="10.9289805"><ele>482.75</ele><time>2026-04-18T09:33:48.344Z</time></trkpt><trkpt lat="43.4280664" lon="10.9291318"><ele>483.5</ele><time>2026-04-18T09:33:49.342Z</time></trkpt><trkpt lat="43.4281013" lon="10.9292856"><ele>484.25</ele><time>2026-04-18T09:33:50.343Z</time></trkpt><trkpt lat="43.4281459" lon="10.9294354"><ele>485.0</ele><time>2026-04-18T09:33:51.343Z</time></trkpt><trkpt lat="43.4281871" lon="10.9295725"><ele>484.99999999999994</ele><time>2026-04-18T09:33:52.343Z</time></trkpt><trkpt lat="43.4282199" lon="10.9296918"><ele>485.0</ele><time>2026-04-18T09:33:53.342Z</time></trkpt><trkpt lat="43.428249" lon="10.9298006"><ele>485.0</ele><time>2026-04-18T09:33:54.345Z</time></trkpt><trkpt lat="43.4282636" lon="10.9299099"><ele>485.0</ele><time>2026-04-18T09:33:55.343Z</time></trkpt><trkpt lat="43.4282612" lon="10.9300223"><ele>484.99999999999994</ele><time>2026-04-18T09:33:56.344Z</time></trkpt><trkpt lat="43.4282503" lon="10.9301386"><ele>485.0</ele><time>2026-04-18T09:33:57.344Z</time></trkpt><trkpt lat="43.4282332" lon="10.930262"><ele>487.25</ele><time>2026-04-18T09:33:58.343Z</time></trkpt><trkpt lat="43.428208" lon="10.9303983"><ele>489.5</ele><time>2026-04-18T09:33:59.342Z</time></trkpt><trkpt lat="43.4281734" lon="10.9305556"><ele>491.75</ele><time>2026-04-18T09:34:00.344Z</time></trkpt><trkpt lat="43.4281362" lon="10.9307232"><ele>494.0</ele><time>2026-04-18T09:34:01.342Z</time></trkpt><trkpt lat="43.4280992" lon="10.9308938"><ele>496.75</ele><time>2026-04-18T09:34:02.342Z</time></trkpt><trkpt lat="43.4280681" lon="10.9310555"><ele>499.5</ele><time>2026-04-18T09:34:03.342Z</time></trkpt><trkpt lat="43.428053" lon="10.9312091"><ele>502.25</ele><time>2026-04-18T09:34:04.342Z</time></trkpt><trkpt lat="43.4280526" lon="10.9313605"><ele>505.0</ele><time>2026-04-18T09:34:05.343Z</time></trkpt><trkpt lat="43.4280744" lon="10.9315077"><ele>505.00000000000006</ele><time>2026-04-18T09:34:06.343Z</time></trkpt><trkpt lat="43.4281001" lon="10.9316495"><ele>505.0</ele><time>2026-04-18T09:34:07.342Z</time></trkpt><trkpt lat="43.4281206" lon="10.9317808"><ele>505.0</ele><time>2026-04-18T09:34:08.343Z</time></trkpt><trkpt lat="43.4281327" lon="10.9318983"><ele>505.0</ele><time>2026-04-18T09:34:09.344Z</time></trkpt><trkpt lat="43.428137" lon="10.9320043"><ele>505.00000000000006</ele><time>2026-04-18T09:34:10.342Z</time></trkpt><trkpt lat="43.4281252" lon="10.9321017"><ele>505.0</ele><time>2026-04-18T09:34:11.344Z</time></trkpt><trkpt lat="43.4280904" lon="10.9321752"><ele>506.1666666666667</ele><time>2026-04-18T09:34:12.342Z</time></trkpt><trkpt lat="43.4280259" lon="10.9322579"><ele>507.33333333333337</ele><time>2026-04-18T09:34:13.343Z</time></trkpt><trkpt lat="43.4279515" lon="10.9323232"><ele>508.5</ele><time>2026-04-18T09:34:14.342Z</time></trkpt><trkpt lat="43.4278768" lon="10.9323809"><ele>509.66666666666663</ele><time>2026-04-18T09:34:15.344Z</time></trkpt><trkpt lat="43.4278099" lon="10.9324474"><ele>510.8333333333333</ele><time>2026-04-18T09:34:16.342Z</time></trkpt><trkpt lat="43.4277742" lon="10.9325285"><ele>512.0</ele><time>2026-04-18T09:34:17.344Z</time></trkpt><trkpt lat="43.427755" lon="10.932617"><ele>512.3333333333333</ele><time>2026-04-18T09:34:18.343Z</time></trkpt><trkpt lat="43.4277434" lon="10.9327139"><ele>512.6666666666666</ele><time>2026-04-18T09:34:19.343Z</time></trkpt><trkpt lat="43.427755" lon="10.9327997"><ele>513.0</ele><time>2026-04-18T09:34:20.343Z</time></trkpt><trkpt lat="43.4277751" lon="10.9328992"><ele>513.3333333333334</ele><time>2026-04-18T09:34:21.344Z</time></trkpt><trkpt lat="43.4278105" lon="10.9330061"><ele>513.6666666666667</ele><time>2026-04-18T09:34:22.342Z</time></trkpt><trkpt lat="43.4278563" lon="10.9331214"><ele>514.0</ele><time>2026-04-18T09:34:23.343Z</time></trkpt><trkpt lat="43.4278965" lon="10.9332366"><ele>514.0</ele><time>2026-04-18T09:34:24.344Z</time></trkpt><trkpt lat="43.4279361" lon="10.9333421"><ele>514.0</ele><time>2026-04-18T09:34:25.343Z</time></trkpt><trkpt lat="43.42797" lon="10.9334377"><ele>514.0</ele><time>2026-04-18T09:34:26.343Z</time></trkpt><trkpt lat="43.4279951" lon="10.9335214"><ele>514.0</ele><time>2026-04-18T09:34:27.347Z</time></trkpt><trkpt lat="43.4280263" lon="10.9336053"><ele>514.0</ele><time>2026-04-18T09:34:28.342Z</time></trkpt><trkpt lat="43.4280606" lon="10.9336947"><ele>514.0</ele><time>2026-04-18T09:34:29.342Z</time></trkpt><trkpt lat="43.428101" lon="10.9337819"><ele>514.0</ele><time>2026-04-18T09:34:30.344Z</time></trkpt><trkpt lat="43.4281487" lon="10.9338654"><ele>511.0</ele><time>2026-04-18T09:34:31.343Z</time></trkpt><trkpt lat="43.4282124" lon="10.9339484"><ele>508.0</ele><time>2026-04-18T09:34:32.344Z</time></trkpt><trkpt lat="43.4282804" lon="10.9340335"><ele>505.0</ele><time>2026-04-18T09:34:33.343Z</time></trkpt><trkpt lat="43.4283537" lon="10.9341108"><ele>502.0</ele><time>2026-04-18T09:34:34.343Z</time></trkpt><trkpt lat="43.4284278" lon="10.9341765"><ele>499.0</ele><time>2026-04-18T09:34:35.344Z</time></trkpt><trkpt lat="43.4285045" lon="10.9342412"><ele>496.5</ele><time>2026-04-18T09:34:36.343Z</time></trkpt><trkpt lat="43.4285903" lon="10.9343136"><ele>494.0</ele><time>2026-04-18T09:34:37.343Z</time></trkpt><trkpt lat="43.4286886" lon="10.9343917"><ele>491.5</ele><time>2026-04-18T09:34:38.344Z</time></trkpt><trkpt lat="43.4287934" lon="10.9344745"><ele>489.0</ele><time>2026-04-18T09:34:39.343Z</time></trkpt><trkpt lat="43.4288945" lon="10.9345614"><ele>489.0</ele><time>2026-04-18T09:34:40.343Z</time></trkpt><trkpt lat="43.4290023" lon="10.9346383"><ele>489.0</ele><time>2026-04-18T09:34:41.343Z</time></trkpt><trkpt lat="43.4291127" lon="10.9347137"><ele>489.0</ele><time>2026-04-18T09:34:42.342Z</time></trkpt><trkpt lat="43.4292265" lon="10.9347922"><ele>489.0</ele><time>2026-04-18T09:34:43.342Z</time></trkpt><trkpt lat="43.4293471" lon="10.9348713"><ele>489.0</ele><time>2026-04-18T09:34:44.344Z</time></trkpt><trkpt lat="43.4294752" lon="10.9349497"><ele>489.0</ele><time>2026-04-18T09:34:45.342Z</time></trkpt><trkpt lat="43.4296005" lon="10.9350251"><ele>489.0</ele><time>2026-04-18T09:34:46.343Z</time></trkpt><trkpt lat="43.4297242" lon="10.9350965"><ele>489.0</ele><time>2026-04-18T09:34:47.342Z</time></trkpt><trkpt lat="43.4298312" lon="10.9351709"><ele>489.25</ele><time>2026-04-18T09:34:48.343Z</time></trkpt><trkpt lat="43.4299324" lon="10.9352538"><ele>489.5</ele><time>2026-04-18T09:34:49.343Z</time></trkpt><trkpt lat="43.4300323" lon="10.9353351"><ele>489.75</ele><time>2026-04-18T09:34:50.344Z</time></trkpt><trkpt lat="43.4301245" lon="10.9354159"><ele>490.0</ele><time>2026-04-18T09:34:51.343Z</time></trkpt><trkpt lat="43.4302084" lon="10.9355137"><ele>490.0</ele><time>2026-04-18T09:34:52.344Z</time></trkpt><trkpt lat="43.4302925" lon="10.9356245"><ele>490.0</ele><time>2026-04-18T09:34:53.344Z</time></trkpt><trkpt lat="43.43037" lon="10.9357551"><ele>490.0</ele><time>2026-04-18T09:34:54.345Z</time></trkpt><trkpt lat="43.4304549" lon="10.9358918"><ele>490.0</ele><time>2026-04-18T09:34:55.342Z</time></trkpt><trkpt lat="43.4305387" lon="10.9360197"><ele>491.8</ele><time>2026-04-18T09:34:56.343Z</time></trkpt><trkpt lat="43.4306104" lon="10.9361363"><ele>493.6</ele><time>2026-04-18T09:34:57.344Z</time></trkpt><trkpt lat="43.4306717" lon="10.9362498"><ele>495.4</ele><time>2026-04-18T09:34:58.341Z</time></trkpt><trkpt lat="43.4307247" lon="10.9363671"><ele>497.2</ele><time>2026-04-18T09:34:59.342Z</time></trkpt><trkpt lat="43.4307835" lon="10.9364948"><ele>499.0</ele><time>2026-04-18T09:35:00.342Z</time></trkpt><trkpt lat="43.4308425" lon="10.9366384"><ele>497.5</ele><time>2026-04-18T09:35:01.342Z</time></trkpt><trkpt lat="43.4308975" lon="10.9367914"><ele>496.0</ele><time>2026-04-18T09:35:02.342Z</time></trkpt><trkpt lat="43.4309491" lon="10.936946"><ele>494.5</ele><time>2026-04-18T09:35:03.343Z</time></trkpt><trkpt lat="43.4309912" lon="10.9370966"><ele>493.0</ele><time>2026-04-18T09:35:04.342Z</time></trkpt><trkpt lat="43.4310432" lon="10.9372271"><ele>493.0</ele><time>2026-04-18T09:35:05.342Z</time></trkpt><trkpt lat="43.4310929" lon="10.9373508"><ele>492.99999999999994</ele><time>2026-04-18T09:35:06.342Z</time></trkpt><trkpt lat="43.4311526" lon="10.9374657"><ele>492.99999999999994</ele><time>2026-04-18T09:35:07.342Z</time></trkpt><trkpt lat="43.4312235" lon="10.9375741"><ele>493.0</ele><time>2026-04-18T09:35:08.343Z</time></trkpt><trkpt lat="43.4313113" lon="10.9376772"><ele>493.0</ele><time>2026-04-18T09:35:09.343Z</time></trkpt><trkpt lat="43.4314113" lon="10.9377725"><ele>494.75</ele><time>2026-04-18T09:35:10.342Z</time></trkpt><trkpt lat="43.4315111" lon="10.9378685"><ele>496.5</ele><time>2026-04-18T09:35:11.342Z</time></trkpt><trkpt lat="43.4315995" lon="10.9379749"><ele>498.25</ele><time>2026-04-18T09:35:12.341Z</time></trkpt><trkpt lat="43.4316845" lon="10.9380876"><ele>500.0</ele><time>2026-04-18T09:35:13.343Z</time></trkpt><trkpt lat="43.4317613" lon="10.9382065"><ele>500.0</ele><time>2026-04-18T09:35:14.342Z</time></trkpt><trkpt lat="43.4318327" lon="10.9383311"><ele>500.0</ele><time>2026-04-18T09:35:15.342Z</time></trkpt><trkpt lat="43.4318964" lon="10.9384638"><ele>500.0</ele><time>2026-04-18T09:35:16.341Z</time></trkpt><trkpt lat="43.4319528" lon="10.9385979"><ele>500.0</ele><time>2026-04-18T09:35:17.341Z</time></trkpt><trkpt lat="43.4319898" lon="10.9387502"><ele>500.0</ele><time>2026-04-18T09:35:18.341Z</time></trkpt><trkpt lat="43.4320199" lon="10.9388941"><ele>500.0</ele><time>2026-04-18T09:35:19.342Z</time></trkpt><trkpt lat="43.4320339" lon="10.9390426"><ele>500.0</ele><time>2026-04-18T09:35:20.343Z</time></trkpt><trkpt lat="43.43203" lon="10.9391985"><ele>500.0</ele><time>2026-04-18T09:35:21.342Z</time></trkpt><trkpt lat="43.4320182" lon="10.9393485"><ele>500.0</ele><time>2026-04-18T09:35:22.341Z</time></trkpt><trkpt lat="43.4320113" lon="10.9394906"><ele>500.66666666666663</ele><time>2026-04-18T09:35:23.342Z</time></trkpt><trkpt lat="43.4320194" lon="10.9396246"><ele>501.3333333333333</ele><time>2026-04-18T09:35:24.341Z</time></trkpt><trkpt lat="43.4320445" lon="10.9397521"><ele>502.0</ele><time>2026-04-18T09:35:25.342Z</time></trkpt><trkpt lat="43.4320797" lon="10.9398678"><ele>502.66666666666663</ele><time>2026-04-18T09:35:26.342Z</time></trkpt><trkpt lat="43.432108" lon="10.9399757"><ele>503.3333333333333</ele><time>2026-04-18T09:35:27.343Z</time></trkpt><trkpt lat="43.4321221" lon="10.9400741"><ele>504.0</ele><time>2026-04-18T09:35:28.341Z</time></trkpt><trkpt lat="43.4321247" lon="10.9401703"><ele>505.2</ele><time>2026-04-18T09:35:29.343Z</time></trkpt><trkpt lat="43.4321142" lon="10.9402767"><ele>506.4</ele><time>2026-04-18T09:35:30.342Z</time></trkpt><trkpt lat="43.4320868" lon="10.9404035"><ele>507.6</ele><time>2026-04-18T09:35:31.342Z</time></trkpt><trkpt lat="43.4320529" lon="10.9405476"><ele>508.8</ele><time>2026-04-18T09:35:32.341Z</time></trkpt><trkpt lat="43.4320187" lon="10.9407107"><ele>510.0</ele><time>2026-04-18T09:35:33.342Z</time></trkpt><trkpt lat="43.4319814" lon="10.9408722"><ele>511.25</ele><time>2026-04-18T09:35:34.342Z</time></trkpt><trkpt lat="43.431948" lon="10.9410476"><ele>512.5</ele><time>2026-04-18T09:35:35.342Z</time></trkpt><trkpt lat="43.4319272" lon="10.9412218"><ele>513.75</ele><time>2026-04-18T09:35:36.342Z</time></trkpt><trkpt lat="43.4319134" lon="10.9414044"><ele>515.0</ele><time>2026-04-18T09:35:37.342Z</time></trkpt><trkpt lat="43.4319112" lon="10.9415825"><ele>515.25</ele><time>2026-04-18T09:35:38.343Z</time></trkpt><trkpt lat="43.4319074" lon="10.9417557"><ele>515.5</ele><time>2026-04-18T09:35:39.343Z</time></trkpt><trkpt lat="43.4319036" lon="10.9419132"><ele>515.75</ele><time>2026-04-18T09:35:40.342Z</time></trkpt><trkpt lat="43.431896" lon="10.9420682"><ele>516.0</ele><time>2026-04-18T09:35:41.343Z</time></trkpt><trkpt lat="43.4318847" lon="10.942227"><ele>516.0</ele><time>2026-04-18T09:35:42.342Z</time></trkpt><trkpt lat="43.4318759" lon="10.9423891"><ele>516.0</ele><time>2026-04-18T09:35:43.342Z</time></trkpt><trkpt lat="43.4318734" lon="10.9425591"><ele>516.0</ele><time>2026-04-18T09:35:44.342Z</time></trkpt><trkpt lat="43.4318782" lon="10.9427268"><ele>516.0</ele><time>2026-04-18T09:35:45.344Z</time></trkpt><trkpt lat="43.4318898" lon="10.9428858"><ele>514.75</ele><time>2026-04-18T09:35:46.341Z</time></trkpt><trkpt lat="43.4319036" lon="10.9430388"><ele>513.5</ele><time>2026-04-18T09:35:47.343Z</time></trkpt><trkpt lat="43.4319157" lon="10.9432005"><ele>512.25</ele><time>2026-04-18T09:35:48.343Z</time></trkpt><trkpt lat="43.431924" lon="10.9433689"><ele>511.0</ele><time>2026-04-18T09:35:49.342Z</time></trkpt><trkpt lat="43.4319286" lon="10.9435383"><ele>510.25</ele><time>2026-04-18T09:35:50.343Z</time></trkpt><trkpt lat="43.4319307" lon="10.9437061"><ele>509.5</ele><time>2026-04-18T09:35:51.347Z</time></trkpt><trkpt lat="43.4319316" lon="10.9438682"><ele>508.75</ele><time>2026-04-18T09:35:52.341Z</time></trkpt><trkpt lat="43.4319379" lon="10.9440224"><ele>508.0</ele><time>2026-04-18T09:35:53.341Z</time></trkpt><trkpt lat="43.4319524" lon="10.9441659"><ele>507.50000000000006</ele><time>2026-04-18T09:35:54.341Z</time></trkpt><trkpt lat="43.4319759" lon="10.944295"><ele>507.0</ele><time>2026-04-18T09:35:55.342Z</time></trkpt><trkpt lat="43.4320118" lon="10.9444059"><ele>506.5</ele><time>2026-04-18T09:35:56.342Z</time></trkpt><trkpt lat="43.4320614" lon="10.9444974"><ele>506.0</ele><time>2026-04-18T09:35:57.342Z</time></trkpt><trkpt lat="43.432127" lon="10.9445597"><ele>505.50000000000006</ele><time>2026-04-18T09:35:58.343Z</time></trkpt><trkpt lat="43.432204" lon="10.9445892"><ele>505.0</ele><time>2026-04-18T09:35:59.342Z</time></trkpt><trkpt lat="43.4322949" lon="10.9445938"><ele>506.5</ele><time>2026-04-18T09:36:00.342Z</time></trkpt><trkpt lat="43.4324016" lon="10.9445775"><ele>508.0</ele><time>2026-04-18T09:36:01.342Z</time></trkpt><trkpt lat="43.4325162" lon="10.9445524"><ele>509.5</ele><time>2026-04-18T09:36:02.342Z</time></trkpt><trkpt lat="43.4326411" lon="10.9445244"><ele>511.0</ele><time>2026-04-18T09:36:03.342Z</time></trkpt><trkpt lat="43.4327674" lon="10.944494"><ele>511.0</ele><time>2026-04-18T09:36:04.342Z</time></trkpt><trkpt lat="43.4328985" lon="10.9444592"><ele>511.0</ele><time>2026-04-18T09:36:05.343Z</time></trkpt><trkpt lat="43.4330323" lon="10.9444292"><ele>511.0</ele><time>2026-04-18T09:36:06.342Z</time></trkpt><trkpt lat="43.4331689" lon="10.9443921"><ele>511.0</ele><time>2026-04-18T09:36:07.342Z</time></trkpt><trkpt lat="43.4332887" lon="10.9443657"><ele>512.0</ele><time>2026-04-18T09:36:08.342Z</time></trkpt><trkpt lat="43.4333865" lon="10.9443535"><ele>513.0</ele><time>2026-04-18T09:36:09.342Z</time></trkpt><trkpt lat="43.4334747" lon="10.944359"><ele>514.0</ele><time>2026-04-18T09:36:10.342Z</time></trkpt><trkpt lat="43.433554" lon="10.9443918"><ele>515.0</ele><time>2026-04-18T09:36:11.342Z</time></trkpt><trkpt lat="43.4336283" lon="10.9444407"><ele>516.0</ele><time>2026-04-18T09:36:12.342Z</time></trkpt><trkpt lat="43.4336936" lon="10.9445029"><ele>517.0</ele><time>2026-04-18T09:36:13.342Z</time></trkpt><trkpt lat="43.4337571" lon="10.9445648"><ele>518.8333333333334</ele><time>2026-04-18T09:36:14.341Z</time></trkpt><trkpt lat="43.4338228" lon="10.9446236"><ele>520.6666666666667</ele><time>2026-04-18T09:36:15.343Z</time></trkpt><trkpt lat="43.4338927" lon="10.9446812"><ele>522.5</ele><time>2026-04-18T09:36:16.342Z</time></trkpt><trkpt lat="43.4339645" lon="10.9447351"><ele>524.3333333333334</ele><time>2026-04-18T09:36:17.342Z</time></trkpt><trkpt lat="43.4340498" lon="10.9447822"><ele>526.1666666666666</ele><time>2026-04-18T09:36:18.342Z</time></trkpt><trkpt lat="43.4341416" lon="10.9448269"><ele>528.0</ele><time>2026-04-18T09:36:19.342Z</time></trkpt><trkpt lat="43.4342361" lon="10.944864"><ele>528.0</ele><time>2026-04-18T09:36:20.343Z</time></trkpt><trkpt lat="43.4343372" lon="10.9448932"><ele>528.0</ele><time>2026-04-18T09:36:21.343Z</time></trkpt><trkpt lat="43.4344488" lon="10.9449136"><ele>528.0</ele><time>2026-04-18T09:36:22.342Z</time></trkpt><trkpt lat="43.4345641" lon="10.9449415"><ele>528.0</ele><time>2026-04-18T09:36:23.342Z</time></trkpt><trkpt lat="43.434672" lon="10.9449716"><ele>528.0</ele><time>2026-04-18T09:36:24.343Z</time></trkpt><trkpt lat="43.434759" lon="10.9450104"><ele>530.5</ele><time>2026-04-18T09:36:25.343Z</time></trkpt><trkpt lat="43.4348317" lon="10.9450513"><ele>533.0</ele><time>2026-04-18T09:36:26.343Z</time></trkpt><trkpt lat="43.4348906" lon="10.9451005"><ele>535.5</ele><time>2026-04-18T09:36:27.342Z</time></trkpt><trkpt lat="43.4349651" lon="10.945247"><ele>538.0</ele><time>2026-04-18T09:36:29.342Z</time></trkpt><trkpt lat="43.4349794" lon="10.9453557"><ele>540.5</ele><time>2026-04-18T09:36:30.342Z</time></trkpt><trkpt lat="43.4350138" lon="10.9454542"><ele>543.0</ele><time>2026-04-18T09:36:31.341Z</time></trkpt><trkpt lat="43.4350587" lon="10.9455412"><ele>543.0</ele><time>2026-04-18T09:36:32.343Z</time></trkpt><trkpt lat="43.4351078" lon="10.9456293"><ele>543.0</ele><time>2026-04-18T09:36:33.342Z</time></trkpt><trkpt lat="43.4351576" lon="10.9457117"><ele>543.0</ele><time>2026-04-18T09:36:34.342Z</time></trkpt><trkpt lat="43.4352156" lon="10.9457767"><ele>543.0</ele><time>2026-04-18T09:36:35.345Z</time></trkpt><trkpt lat="43.4352736" lon="10.9458508"><ele>543.0</ele><time>2026-04-18T09:36:36.342Z</time></trkpt><trkpt lat="43.4353294" lon="10.9459289"><ele>543.0</ele><time>2026-04-18T09:36:37.344Z</time></trkpt><trkpt lat="43.4353791" lon="10.9460139"><ele>544.3333333333334</ele><time>2026-04-18T09:36:38.344Z</time></trkpt><trkpt lat="43.4354362" lon="10.9460952"><ele>545.6666666666666</ele><time>2026-04-18T09:36:39.342Z</time></trkpt><trkpt lat="43.4354932" lon="10.9461708"><ele>547.0</ele><time>2026-04-18T09:36:40.342Z</time></trkpt><trkpt lat="43.4355574" lon="10.9462477"><ele>548.3333333333333</ele><time>2026-04-18T09:36:41.342Z</time></trkpt><trkpt lat="43.4356257" lon="10.9463187"><ele>549.6666666666666</ele><time>2026-04-18T09:36:42.342Z</time></trkpt><trkpt lat="43.4357033" lon="10.9463927"><ele>551.0</ele><time>2026-04-18T09:36:43.343Z</time></trkpt><trkpt lat="43.4357853" lon="10.9464752"><ele>551.0</ele><time>2026-04-18T09:36:44.342Z</time></trkpt><trkpt lat="43.4358703" lon="10.9465661"><ele>551.0</ele><time>2026-04-18T09:36:45.345Z</time></trkpt><trkpt lat="43.4359536" lon="10.9466604"><ele>551.0</ele><time>2026-04-18T09:36:46.341Z</time></trkpt><trkpt lat="43.4360299" lon="10.9467739"><ele>551.0</ele><time>2026-04-18T09:36:47.343Z</time></trkpt><trkpt lat="43.4360991" lon="10.9468917"><ele>551.0</ele><time>2026-04-18T09:36:48.343Z</time></trkpt><trkpt lat="43.4361597" lon="10.9470054"><ele>550.1666666666666</ele><time>2026-04-18T09:36:49.341Z</time></trkpt><trkpt lat="43.4362162" lon="10.9471139"><ele>549.3333333333333</ele><time>2026-04-18T09:36:50.343Z</time></trkpt><trkpt lat="43.4362577" lon="10.9472138"><ele>548.5</ele><time>2026-04-18T09:36:51.343Z</time></trkpt><trkpt lat="43.436289" lon="10.9473062"><ele>547.6666666666666</ele><time>2026-04-18T09:36:52.342Z</time></trkpt><trkpt lat="43.4363069" lon="10.9473896"><ele>546.8333333333334</ele><time>2026-04-18T09:36:53.344Z</time></trkpt><trkpt lat="43.4363131" lon="10.9475322"><ele>546.0</ele><time>2026-04-18T09:36:55.342Z</time></trkpt><trkpt lat="43.4362837" lon="10.9476248"><ele>549.3333333333334</ele><time>2026-04-18T09:36:56.343Z</time></trkpt><trkpt lat="43.4362499" lon="10.9477207"><ele>552.6666666666666</ele><time>2026-04-18T09:36:57.342Z</time></trkpt><trkpt lat="43.4362284" lon="10.9478118"><ele>556.0</ele><time>2026-04-18T09:36:58.342Z</time></trkpt><trkpt lat="43.4362135" lon="10.947917"><ele>559.3333333333333</ele><time>2026-04-18T09:36:59.343Z</time></trkpt><trkpt lat="43.4362094" lon="10.9480312"><ele>562.6666666666666</ele><time>2026-04-18T09:37:00.342Z</time></trkpt><trkpt lat="43.4362083" lon="10.9481567"><ele>566.0</ele><time>2026-04-18T09:37:01.343Z</time></trkpt><trkpt lat="43.4362135" lon="10.9482827"><ele>565.0</ele><time>2026-04-18T09:37:02.342Z</time></trkpt><trkpt lat="43.4362191" lon="10.9484141"><ele>564.0</ele><time>2026-04-18T09:37:03.342Z</time></trkpt><trkpt lat="43.4362426" lon="10.9485427"><ele>563.0</ele><time>2026-04-18T09:37:04.342Z</time></trkpt><trkpt lat="43.4362805" lon="10.9486711"><ele>562.0</ele><time>2026-04-18T09:37:05.343Z</time></trkpt><trkpt lat="43.4363312" lon="10.948791"><ele>561.0</ele><time>2026-04-18T09:37:06.343Z</time></trkpt><trkpt lat="43.4363766" lon="10.9489022"><ele>561.0</ele><time>2026-04-18T09:37:07.343Z</time></trkpt><trkpt lat="43.4364184" lon="10.9490102"><ele>561.0</ele><time>2026-04-18T09:37:08.343Z</time></trkpt><trkpt lat="43.4364629" lon="10.949115"><ele>561.0</ele><time>2026-04-18T09:37:09.342Z</time></trkpt><trkpt lat="43.4365164" lon="10.9492148"><ele>561.0</ele><time>2026-04-18T09:37:10.342Z</time></trkpt><trkpt lat="43.4365809" lon="10.9493131"><ele>561.0</ele><time>2026-04-18T09:37:11.345Z</time></trkpt><trkpt lat="43.4366543" lon="10.9493988"><ele>560.8333333333334</ele><time>2026-04-18T09:37:12.345Z</time></trkpt><trkpt lat="43.4367272" lon="10.9494729"><ele>560.6666666666666</ele><time>2026-04-18T09:37:13.341Z</time></trkpt><trkpt lat="43.4367978" lon="10.9495394"><ele>560.5</ele><time>2026-04-18T09:37:14.343Z</time></trkpt><trkpt lat="43.4368721" lon="10.9495887"><ele>560.3333333333333</ele><time>2026-04-18T09:37:15.343Z</time></trkpt><trkpt lat="43.4369476" lon="10.9496314"><ele>560.1666666666666</ele><time>2026-04-18T09:37:16.342Z</time></trkpt><trkpt lat="43.4370274" lon="10.9496693"><ele>560.0</ele><time>2026-04-18T09:37:17.342Z</time></trkpt><trkpt lat="43.4371096" lon="10.949694"><ele>560.8</ele><time>2026-04-18T09:37:18.342Z</time></trkpt><trkpt lat="43.4371974" lon="10.949713"><ele>561.6</ele><time>2026-04-18T09:37:19.342Z</time></trkpt><trkpt lat="43.4372909" lon="10.9497296"><ele>562.4</ele><time>2026-04-18T09:37:20.342Z</time></trkpt><trkpt lat="43.4373861" lon="10.9497496"><ele>563.2</ele><time>2026-04-18T09:37:21.342Z</time></trkpt><trkpt lat="43.4374845" lon="10.9497765"><ele>564.0</ele><time>2026-04-18T09:37:22.342Z</time></trkpt><trkpt lat="43.4375815" lon="10.9498106"><ele>564.0</ele><time>2026-04-18T09:37:23.343Z</time></trkpt><trkpt lat="43.4376737" lon="10.9498536"><ele>564.0</ele><time>2026-04-18T09:37:24.342Z</time></trkpt><trkpt lat="43.4377649" lon="10.9499055"><ele>564.0</ele><time>2026-04-18T09:37:25.342Z</time></trkpt><trkpt lat="43.4378542" lon="10.9499741"><ele>564.0</ele><time>2026-04-18T09:37:26.342Z</time></trkpt><trkpt lat="43.4379483" lon="10.9500589"><ele>564.0</ele><time>2026-04-18T09:37:27.345Z</time></trkpt><trkpt lat="43.4380489" lon="10.9501646"><ele>564.25</ele><time>2026-04-18T09:37:28.342Z</time></trkpt><trkpt lat="43.4381582" lon="10.95028"><ele>564.5</ele><time>2026-04-18T09:37:29.343Z</time></trkpt><trkpt lat="43.4382753" lon="10.9504039"><ele>564.75</ele><time>2026-04-18T09:37:30.343Z</time></trkpt><trkpt lat="43.4383956" lon="10.9505352"><ele>565.0</ele><time>2026-04-18T09:37:31.342Z</time></trkpt><trkpt lat="43.438518" lon="10.9506671"><ele>565.0</ele><time>2026-04-18T09:37:32.342Z</time></trkpt><trkpt lat="43.4386448" lon="10.9508032"><ele>565.0</ele><time>2026-04-18T09:37:33.346Z</time></trkpt><trkpt lat="43.4387683" lon="10.9509408"><ele>565.0</ele><time>2026-04-18T09:37:34.342Z</time></trkpt><trkpt lat="43.4388937" lon="10.9510691"><ele>566.5</ele><time>2026-04-18T09:37:35.343Z</time></trkpt><trkpt lat="43.4390122" lon="10.9511936"><ele>568.0</ele><time>2026-04-18T09:37:36.343Z</time></trkpt><trkpt lat="43.4391318" lon="10.9513176"><ele>569.5</ele><time>2026-04-18T09:37:37.343Z</time></trkpt><trkpt lat="43.4392461" lon="10.9514468"><ele>571.0</ele><time>2026-04-18T09:37:38.344Z</time></trkpt><trkpt lat="43.4393656" lon="10.9515719"><ele>571.0</ele><time>2026-04-18T09:37:39.344Z</time></trkpt><trkpt lat="43.4394889" lon="10.9516899"><ele>571.0</ele><time>2026-04-18T09:37:40.344Z</time></trkpt><trkpt lat="43.4396036" lon="10.9518095"><ele>571.0</ele><time>2026-04-18T09:37:41.343Z</time></trkpt><trkpt lat="43.439711" lon="10.9519301"><ele>571.0</ele><time>2026-04-18T09:37:42.345Z</time></trkpt><trkpt lat="43.4398129" lon="10.9520504"><ele>573.5</ele><time>2026-04-18T09:37:43.344Z</time></trkpt><trkpt lat="43.4399184" lon="10.9521712"><ele>576.0</ele><time>2026-04-18T09:37:44.344Z</time></trkpt><trkpt lat="43.4400222" lon="10.9522851"><ele>578.5</ele><time>2026-04-18T09:37:45.343Z</time></trkpt><trkpt lat="43.4401199" lon="10.952398"><ele>581.0</ele><time>2026-04-18T09:37:46.343Z</time></trkpt><trkpt lat="43.4402162" lon="10.9525113"><ele>580.75</ele><time>2026-04-18T09:37:47.343Z</time></trkpt><trkpt lat="43.4403108" lon="10.9526227"><ele>580.5</ele><time>2026-04-18T09:37:48.343Z</time></trkpt><trkpt lat="43.4404014" lon="10.9527285"><ele>580.25</ele><time>2026-04-18T09:37:49.344Z</time></trkpt><trkpt lat="43.4404919" lon="10.9528244"><ele>580.0</ele><time>2026-04-18T09:37:50.344Z</time></trkpt><trkpt lat="43.4405862" lon="10.9529124"><ele>582.4</ele><time>2026-04-18T09:37:51.343Z</time></trkpt><trkpt lat="43.4406785" lon="10.95299"><ele>584.8</ele><time>2026-04-18T09:37:52.343Z</time></trkpt><trkpt lat="43.4407656" lon="10.9530617"><ele>587.2</ele><time>2026-04-18T09:37:53.344Z</time></trkpt><trkpt lat="43.4408488" lon="10.9531166"><ele>589.6</ele><time>2026-04-18T09:37:54.344Z</time></trkpt><trkpt lat="43.4409259" lon="10.95316"><ele>592.0</ele><time>2026-04-18T09:37:55.343Z</time></trkpt><trkpt lat="43.441002" lon="10.9531826"><ele>592.0</ele><time>2026-04-18T09:37:56.343Z</time></trkpt><trkpt lat="43.4410755" lon="10.953177"><ele>592.0</ele><time>2026-04-18T09:37:57.343Z</time></trkpt><trkpt lat="43.4411483" lon="10.9531426"><ele>592.0</ele><time>2026-04-18T09:37:58.343Z</time></trkpt><trkpt lat="43.4412037" lon="10.9530841"><ele>592.0</ele><time>2026-04-18T09:37:59.343Z</time></trkpt><trkpt lat="43.4412354" lon="10.9529985"><ele>592.0</ele><time>2026-04-18T09:38:00.343Z</time></trkpt><trkpt lat="43.4412502" lon="10.9528947"><ele>592.0</ele><time>2026-04-18T09:38:01.343Z</time></trkpt><trkpt lat="43.4412555" lon="10.9527816"><ele>592.0</ele><time>2026-04-18T09:38:02.346Z</time></trkpt><trkpt lat="43.4412602" lon="10.952664"><ele>592.0</ele><time>2026-04-18T09:38:03.344Z</time></trkpt><trkpt lat="43.441279" lon="10.9525483"><ele>592.0</ele><time>2026-04-18T09:38:04.343Z</time></trkpt><trkpt lat="43.4413124" lon="10.9524529"><ele>592.0</ele><time>2026-04-18T09:38:05.343Z</time></trkpt><trkpt lat="43.4413627" lon="10.9523939"><ele>592.0</ele><time>2026-04-18T09:38:06.343Z</time></trkpt><trkpt lat="43.4414271" lon="10.9523635"><ele>592.0</ele><time>2026-04-18T09:38:07.343Z</time></trkpt><trkpt lat="43.4414992" lon="10.9523686"><ele>592.0</ele><time>2026-04-18T09:38:08.343Z</time></trkpt><trkpt lat="43.441569" lon="10.9524009"><ele>592.0</ele><time>2026-04-18T09:38:09.344Z</time></trkpt><trkpt lat="43.4416306" lon="10.9524438"><ele>593.8000000000001</ele><time>2026-04-18T09:38:10.343Z</time></trkpt><trkpt lat="43.4416824" lon="10.9524974"><ele>595.6</ele><time>2026-04-18T09:38:11.344Z</time></trkpt><trkpt lat="43.4417246" lon="10.9526427"><ele>597.4000000000001</ele><time>2026-04-18T09:38:13.344Z</time></trkpt><trkpt lat="43.441714" lon="10.9527501"><ele>599.2</ele><time>2026-04-18T09:38:14.343Z</time></trkpt><trkpt lat="43.4416926" lon="10.9528797"><ele>601.0</ele><time>2026-04-18T09:38:15.346Z</time></trkpt><trkpt lat="43.4416776" lon="10.9530325"><ele>601.75</ele><time>2026-04-18T09:38:16.342Z</time></trkpt><trkpt lat="43.4416774" lon="10.9531963"><ele>602.5</ele><time>2026-04-18T09:38:17.343Z</time></trkpt><trkpt lat="43.4416816" lon="10.9533662"><ele>603.25</ele><time>2026-04-18T09:38:18.343Z</time></trkpt><trkpt lat="43.4416928" lon="10.9535373"><ele>604.0</ele><time>2026-04-18T09:38:19.344Z</time></trkpt><trkpt lat="43.4417065" lon="10.9537091"><ele>604.0</ele><time>2026-04-18T09:38:20.345Z</time></trkpt><trkpt lat="43.4417199" lon="10.9538814"><ele>604.0</ele><time>2026-04-18T09:38:21.343Z</time></trkpt><trkpt lat="43.4417304" lon="10.9540468"><ele>604.0</ele><time>2026-04-18T09:38:22.344Z</time></trkpt><trkpt lat="43.4417328" lon="10.9542134"><ele>604.0</ele><time>2026-04-18T09:38:23.343Z</time></trkpt><trkpt lat="43.4417231" lon="10.9543826"><ele>603.75</ele><time>2026-04-18T09:38:24.343Z</time></trkpt><trkpt lat="43.4416985" lon="10.954556"><ele>603.5</ele><time>2026-04-18T09:38:25.342Z</time></trkpt><trkpt lat="43.4416688" lon="10.954737"><ele>603.25</ele><time>2026-04-18T09:38:26.346Z</time></trkpt><trkpt lat="43.441636" lon="10.954919"><ele>603.0</ele><time>2026-04-18T09:38:27.348Z</time></trkpt><trkpt lat="43.4416038" lon="10.9550981"><ele>602.5</ele><time>2026-04-18T09:38:28.345Z</time></trkpt><trkpt lat="43.4415705" lon="10.9552742"><ele>602.0</ele><time>2026-04-18T09:38:29.344Z</time></trkpt><trkpt lat="43.4415369" lon="10.9554361"><ele>601.5</ele><time>2026-04-18T09:38:30.343Z</time></trkpt><trkpt lat="43.4414988" lon="10.9555892"><ele>601.0</ele><time>2026-04-18T09:38:31.343Z</time></trkpt><trkpt lat="43.4414523" lon="10.9557436"><ele>600.5</ele><time>2026-04-18T09:38:32.343Z</time></trkpt><trkpt lat="43.4413978" lon="10.9558974"><ele>600.0</ele><time>2026-04-18T09:38:33.343Z</time></trkpt><trkpt lat="43.4413329" lon="10.9560493"><ele>599.5</ele><time>2026-04-18T09:38:34.342Z</time></trkpt><trkpt lat="43.4412578" lon="10.9561975"><ele>599.0</ele><time>2026-04-18T09:38:35.343Z</time></trkpt><trkpt lat="43.4411732" lon="10.956344"><ele>599.0</ele><time>2026-04-18T09:38:36.344Z</time></trkpt><trkpt lat="43.4410827" lon="10.9564856"><ele>599.0</ele><time>2026-04-18T09:38:37.344Z</time></trkpt><trkpt lat="43.4409905" lon="10.9566282"><ele>599.0</ele><time>2026-04-18T09:38:38.343Z</time></trkpt><trkpt lat="43.4409003" lon="10.9567705"><ele>599.0</ele><time>2026-04-18T09:38:39.346Z</time></trkpt><trkpt lat="43.4408073" lon="10.9569119"><ele>599.75</ele><time>2026-04-18T09:38:40.346Z</time></trkpt><trkpt lat="43.4407108" lon="10.9570562"><ele>600.5</ele><time>2026-04-18T09:38:41.346Z</time></trkpt><trkpt lat="43.4406155" lon="10.9572024"><ele>601.25</ele><time>2026-04-18T09:38:42.342Z</time></trkpt><trkpt lat="43.4405207" lon="10.957351"><ele>602.0</ele><time>2026-04-18T09:38:43.343Z</time></trkpt><trkpt lat="43.4404244" lon="10.957504"><ele>601.0</ele><time>2026-04-18T09:38:44.343Z</time></trkpt><trkpt lat="43.4403255" lon="10.9576618"><ele>600.0</ele><time>2026-04-18T09:38:45.343Z</time></trkpt><trkpt lat="43.4402298" lon="10.9578145"><ele>599.0</ele><time>2026-04-18T09:38:46.346Z</time></trkpt><trkpt lat="43.44014" lon="10.9579668"><ele>598.0</ele><time>2026-04-18T09:38:47.342Z</time></trkpt><trkpt lat="43.440053" lon="10.9581153"><ele>598.0</ele><time>2026-04-18T09:38:48.343Z</time></trkpt><trkpt lat="43.4399687" lon="10.9582651"><ele>598.0</ele><time>2026-04-18T09:38:49.342Z</time></trkpt><trkpt lat="43.4398877" lon="10.9584119"><ele>598.0</ele><time>2026-04-18T09:38:50.342Z</time></trkpt><trkpt lat="43.4398039" lon="10.9585564"><ele>598.0</ele><time>2026-04-18T09:38:51.342Z</time></trkpt><trkpt lat="43.4397175" lon="10.958708"><ele>595.6666666666667</ele><time>2026-04-18T09:38:52.342Z</time></trkpt><trkpt lat="43.4396232" lon="10.9588707"><ele>593.3333333333334</ele><time>2026-04-18T09:38:53.345Z</time></trkpt><trkpt lat="43.4395213" lon="10.9590411"><ele>591.0</ele><time>2026-04-18T09:38:54.343Z</time></trkpt><trkpt lat="43.4394133" lon="10.9592165"><ele>590.6666666666666</ele><time>2026-04-18T09:38:55.343Z</time></trkpt><trkpt lat="43.4393025" lon="10.9593917"><ele>590.3333333333333</ele><time>2026-04-18T09:38:56.343Z</time></trkpt><trkpt lat="43.4391894" lon="10.9595639"><ele>590.0</ele><time>2026-04-18T09:38:57.344Z</time></trkpt><trkpt lat="43.4390783" lon="10.9597245"><ele>590.0</ele><time>2026-04-18T09:38:58.342Z</time></trkpt><trkpt lat="43.4389645" lon="10.9598655"><ele>590.0</ele><time>2026-04-18T09:38:59.343Z</time></trkpt><trkpt lat="43.4388458" lon="10.9599912"><ele>590.0</ele><time>2026-04-18T09:39:00.343Z</time></trkpt><trkpt lat="43.4387131" lon="10.9601061"><ele>590.3333333333333</ele><time>2026-04-18T09:39:01.345Z</time></trkpt><trkpt lat="43.4385739" lon="10.9602208"><ele>590.6666666666666</ele><time>2026-04-18T09:39:02.346Z</time></trkpt><trkpt lat="43.4384342" lon="10.9603369"><ele>591.0</ele><time>2026-04-18T09:39:03.348Z</time></trkpt><trkpt lat="43.4382944" lon="10.9604534"><ele>591.0</ele><time>2026-04-18T09:39:04.346Z</time></trkpt><trkpt lat="43.4381464" lon="10.9605643"><ele>591.0</ele><time>2026-04-18T09:39:05.346Z</time></trkpt><trkpt lat="43.4380003" lon="10.9606693"><ele>591.0</ele><time>2026-04-18T09:39:06.348Z</time></trkpt><trkpt lat="43.4378584" lon="10.9607711"><ele>590.3333333333334</ele><time>2026-04-18T09:39:07.343Z</time></trkpt><trkpt lat="43.4377168" lon="10.9608657"><ele>589.6666666666667</ele><time>2026-04-18T09:39:08.346Z</time></trkpt><trkpt lat="43.4375753" lon="10.9609462"><ele>589.0</ele><time>2026-04-18T09:39:09.346Z</time></trkpt><trkpt lat="43.4374403" lon="10.9610203"><ele>590.0</ele><time>2026-04-18T09:39:10.346Z</time></trkpt><trkpt lat="43.4373174" lon="10.9611012"><ele>591.0</ele><time>2026-04-18T09:39:11.346Z</time></trkpt><trkpt lat="43.4371979" lon="10.9612054"><ele>592.0</ele><time>2026-04-18T09:39:12.343Z</time></trkpt><trkpt lat="43.4370879" lon="10.9613364"><ele>593.0</ele><time>2026-04-18T09:39:13.345Z</time></trkpt><trkpt lat="43.4369953" lon="10.9614948"><ele>590.6666666666666</ele><time>2026-04-18T09:39:14.347Z</time></trkpt><trkpt lat="43.4369221" lon="10.9616775"><ele>588.3333333333334</ele><time>2026-04-18T09:39:15.344Z</time></trkpt><trkpt lat="43.4368637" lon="10.9618827"><ele>586.0</ele><time>2026-04-18T09:39:16.344Z</time></trkpt><trkpt lat="43.4368232" lon="10.9620905"><ele>586.0</ele><time>2026-04-18T09:39:17.344Z</time></trkpt><trkpt lat="43.4367879" lon="10.9622952"><ele>586.0</ele><time>2026-04-18T09:39:18.345Z</time></trkpt><trkpt lat="43.4367499" lon="10.9624895"><ele>586.0</ele><time>2026-04-18T09:39:19.344Z</time></trkpt><trkpt lat="43.4367028" lon="10.9626562"><ele>586.0</ele><time>2026-04-18T09:39:20.344Z</time></trkpt><trkpt lat="43.4366339" lon="10.9628045"><ele>586.25</ele><time>2026-04-18T09:39:21.348Z</time></trkpt><trkpt lat="43.4365354" lon="10.9629394"><ele>586.5</ele><time>2026-04-18T09:39:22.343Z</time></trkpt><trkpt lat="43.4364178" lon="10.9630547"><ele>586.75</ele><time>2026-04-18T09:39:23.343Z</time></trkpt><trkpt lat="43.4363011" lon="10.9631519"><ele>587.0</ele><time>2026-04-18T09:39:24.342Z</time></trkpt><trkpt lat="43.4361925" lon="10.9632561"><ele>586.6666666666666</ele><time>2026-04-18T09:39:25.344Z</time></trkpt><trkpt lat="43.4360844" lon="10.9633818"><ele>586.3333333333334</ele><time>2026-04-18T09:39:26.344Z</time></trkpt><trkpt lat="43.4359753" lon="10.9635238"><ele>586.0</ele><time>2026-04-18T09:39:27.343Z</time></trkpt><trkpt lat="43.4358688" lon="10.9636881"><ele>586.0</ele><time>2026-04-18T09:39:28.342Z</time></trkpt><trkpt lat="43.4357757" lon="10.9638718"><ele>586.0</ele><time>2026-04-18T09:39:29.343Z</time></trkpt><trkpt lat="43.4356985" lon="10.9640752"><ele>586.0</ele><time>2026-04-18T09:39:30.343Z</time></trkpt><trkpt lat="43.4356353" lon="10.9642775"><ele>584.6666666666667</ele><time>2026-04-18T09:39:31.345Z</time></trkpt><trkpt lat="43.4355701" lon="10.9644694"><ele>583.3333333333334</ele><time>2026-04-18T09:39:32.342Z</time></trkpt><trkpt lat="43.4354922" lon="10.9646629"><ele>582.0</ele><time>2026-04-18T09:39:33.728Z</time></trkpt><trkpt lat="43.4353072" lon="10.9649998"><ele>580.0</ele><time>2026-04-18T09:39:35.343Z</time></trkpt><trkpt lat="43.4352145" lon="10.9651751"><ele>578.0</ele><time>2026-04-18T09:39:36.342Z</time></trkpt><trkpt lat="43.4351338" lon="10.9653505"><ele>576.0</ele><time>2026-04-18T09:39:37.343Z</time></trkpt><trkpt lat="43.4350578" lon="10.9655178"><ele>576.0</ele><time>2026-04-18T09:39:38.343Z</time></trkpt><trkpt lat="43.4349778" lon="10.9656796"><ele>576.0</ele><time>2026-04-18T09:39:39.343Z</time></trkpt><trkpt lat="43.4348946" lon="10.9658299"><ele>576.0</ele><time>2026-04-18T09:39:40.342Z</time></trkpt><trkpt lat="43.434809" lon="10.9659563"><ele>576.0</ele><time>2026-04-18T09:39:41.343Z</time></trkpt><trkpt lat="43.4347142" lon="10.966066"><ele>574.0</ele><time>2026-04-18T09:39:42.343Z</time></trkpt><trkpt lat="43.4346197" lon="10.9661755"><ele>572.0</ele><time>2026-04-18T09:39:43.344Z</time></trkpt><trkpt lat="43.4345324" lon="10.9662958"><ele>570.0</ele><time>2026-04-18T09:39:44.343Z</time></trkpt><trkpt lat="43.4344535" lon="10.9664286"><ele>568.0</ele><time>2026-04-18T09:39:45.343Z</time></trkpt><trkpt lat="43.4343766" lon="10.9665756"><ele>566.75</ele><time>2026-04-18T09:39:46.343Z</time></trkpt><trkpt lat="43.4342958" lon="10.9667272"><ele>565.5</ele><time>2026-04-18T09:39:47.342Z</time></trkpt><trkpt lat="43.434199" lon="10.966865"><ele>564.25</ele><time>2026-04-18T09:39:48.346Z</time></trkpt><trkpt lat="43.4340901" lon="10.9669868"><ele>563.0</ele><time>2026-04-18T09:39:49.342Z</time></trkpt><trkpt lat="43.4339807" lon="10.9670922"><ele>563.0</ele><time>2026-04-18T09:39:50.343Z</time></trkpt><trkpt lat="43.4338705" lon="10.9671852"><ele>563.0</ele><time>2026-04-18T09:39:51.343Z</time></trkpt><trkpt lat="43.4337572" lon="10.9672716"><ele>563.0</ele><time>2026-04-18T09:39:52.343Z</time></trkpt><trkpt lat="43.4336332" lon="10.9673566"><ele>563.0</ele><time>2026-04-18T09:39:53.343Z</time></trkpt><trkpt lat="43.4334995" lon="10.9674451"><ele>561.3333333333333</ele><time>2026-04-18T09:39:54.343Z</time></trkpt><trkpt lat="43.4333536" lon="10.9675443"><ele>559.6666666666666</ele><time>2026-04-18T09:39:55.343Z</time></trkpt><trkpt lat="43.4331999" lon="10.96765"><ele>558.0</ele><time>2026-04-18T09:39:56.342Z</time></trkpt><trkpt lat="43.4330443" lon="10.9677508"><ele>558.5</ele><time>2026-04-18T09:39:57.343Z</time></trkpt><trkpt lat="43.4328965" lon="10.9678324"><ele>559.0</ele><time>2026-04-18T09:39:58.343Z</time></trkpt><trkpt lat="43.4327563" lon="10.9678851"><ele>559.5</ele><time>2026-04-18T09:39:59.343Z</time></trkpt><trkpt lat="43.432626" lon="10.9679329"><ele>560.0</ele><time>2026-04-18T09:40:00.342Z</time></trkpt><trkpt lat="43.4325182" lon="10.9680051"><ele>560.0</ele><time>2026-04-18T09:40:01.343Z</time></trkpt><trkpt lat="43.4324251" lon="10.9681246"><ele>560.0</ele><time>2026-04-18T09:40:02.343Z</time></trkpt><trkpt lat="43.4323361" lon="10.9682654"><ele>560.0</ele><time>2026-04-18T09:40:03.342Z</time></trkpt><trkpt lat="43.4322482" lon="10.9683896"><ele>560.0</ele><time>2026-04-18T09:40:04.343Z</time></trkpt><trkpt lat="43.432144" lon="10.9684815"><ele>557.5</ele><time>2026-04-18T09:40:05.342Z</time></trkpt><trkpt lat="43.4320265" lon="10.9685253"><ele>555.0</ele><time>2026-04-18T09:40:06.343Z</time></trkpt><trkpt lat="43.4318951" lon="10.9685257"><ele>552.5</ele><time>2026-04-18T09:40:07.344Z</time></trkpt><trkpt lat="43.4317501" lon="10.96849"><ele>550.0</ele><time>2026-04-18T09:40:08.343Z</time></trkpt><trkpt lat="43.4315915" lon="10.9684336"><ele>550.0</ele><time>2026-04-18T09:40:09.343Z</time></trkpt><trkpt lat="43.4314325" lon="10.9683603"><ele>550.0</ele><time>2026-04-18T09:40:10.343Z</time></trkpt><trkpt lat="43.4312841" lon="10.968281"><ele>550.0</ele><time>2026-04-18T09:40:11.342Z</time></trkpt><trkpt lat="43.4311515" lon="10.9682057"><ele>549.5</ele><time>2026-04-18T09:40:12.342Z</time></trkpt><trkpt lat="43.4310287" lon="10.9681459"><ele>549.0</ele><time>2026-04-18T09:40:13.341Z</time></trkpt><trkpt lat="43.4309051" lon="10.9681038"><ele>548.5</ele><time>2026-04-18T09:40:14.342Z</time></trkpt><trkpt lat="43.4307715" lon="10.9680757"><ele>548.0</ele><time>2026-04-18T09:40:15.342Z</time></trkpt><trkpt lat="43.4306426" lon="10.9680768"><ele>548.0</ele><time>2026-04-18T09:40:16.342Z</time></trkpt><trkpt lat="43.4305184" lon="10.9681222"><ele>548.0</ele><time>2026-04-18T09:40:17.343Z</time></trkpt><trkpt lat="43.4303887" lon="10.9682065"><ele>548.0</ele><time>2026-04-18T09:40:18.342Z</time></trkpt><trkpt lat="43.4302602" lon="10.9683223"><ele>548.0</ele><time>2026-04-18T09:40:19.342Z</time></trkpt><trkpt lat="43.4301391" lon="10.9684496"><ele>544.6666666666666</ele><time>2026-04-18T09:40:20.342Z</time></trkpt><trkpt lat="43.4300217" lon="10.9685821"><ele>541.3333333333334</ele><time>2026-04-18T09:40:21.343Z</time></trkpt><trkpt lat="43.4298992" lon="10.9687189"><ele>538.0</ele><time>2026-04-18T09:40:22.342Z</time></trkpt><trkpt lat="43.4297862" lon="10.9688526"><ele>538.0</ele><time>2026-04-18T09:40:23.343Z</time></trkpt><trkpt lat="43.4296917" lon="10.9689999"><ele>538.0</ele><time>2026-04-18T09:40:24.342Z</time></trkpt><trkpt lat="43.4295981" lon="10.9691642"><ele>538.0</ele><time>2026-04-18T09:40:25.342Z</time></trkpt><trkpt lat="43.4295089" lon="10.9693422"><ele>535.6666666666667</ele><time>2026-04-18T09:40:26.344Z</time></trkpt><trkpt lat="43.4294265" lon="10.9695294"><ele>533.3333333333334</ele><time>2026-04-18T09:40:27.342Z</time></trkpt><trkpt lat="43.4293418" lon="10.9697135"><ele>531.0</ele><time>2026-04-18T09:40:28.341Z</time></trkpt><trkpt lat="43.4292577" lon="10.9698818"><ele>531.25</ele><time>2026-04-18T09:40:29.342Z</time></trkpt><trkpt lat="43.4291723" lon="10.9700276"><ele>531.5</ele><time>2026-04-18T09:40:30.342Z</time></trkpt><trkpt lat="43.4290733" lon="10.9701453"><ele>531.75</ele><time>2026-04-18T09:40:31.343Z</time></trkpt><trkpt lat="43.4289479" lon="10.9702322"><ele>532.0</ele><time>2026-04-18T09:40:32.342Z</time></trkpt><trkpt lat="43.4287976" lon="10.9702914"><ele>530.3333333333334</ele><time>2026-04-18T09:40:33.344Z</time></trkpt><trkpt lat="43.4286322" lon="10.9703294"><ele>528.6666666666666</ele><time>2026-04-18T09:40:34.342Z</time></trkpt><trkpt lat="43.4284627" lon="10.9703573"><ele>527.0</ele><time>2026-04-18T09:40:35.342Z</time></trkpt><trkpt lat="43.4283091" lon="10.9703855"><ele>527.0</ele><time>2026-04-18T09:40:36.342Z</time></trkpt><trkpt lat="43.4281914" lon="10.9704261"><ele>527.0</ele><time>2026-04-18T09:40:37.343Z</time></trkpt><trkpt lat="43.4281083" lon="10.9704907"><ele>527.0</ele><time>2026-04-18T09:40:38.342Z</time></trkpt><trkpt lat="43.428064" lon="10.9705781"><ele>527.0</ele><time>2026-04-18T09:40:39.343Z</time></trkpt><trkpt lat="43.428033" lon="10.9706857"><ele>527.0</ele><time>2026-04-18T09:40:40.342Z</time></trkpt><trkpt lat="43.4280113" lon="10.9708155"><ele>526.25</ele><time>2026-04-18T09:40:41.344Z</time></trkpt><trkpt lat="43.4280196" lon="10.9709824"><ele>525.5</ele><time>2026-04-18T09:40:42.342Z</time></trkpt><trkpt lat="43.4280325" lon="10.9711729"><ele>524.75</ele><time>2026-04-18T09:40:43.342Z</time></trkpt><trkpt lat="43.4280381" lon="10.9713642"><ele>524.0</ele><time>2026-04-18T09:40:44.343Z</time></trkpt><trkpt lat="43.428027" lon="10.971552"><ele>523.75</ele><time>2026-04-18T09:40:45.344Z</time></trkpt><trkpt lat="43.4279904" lon="10.9717281"><ele>523.5</ele><time>2026-04-18T09:40:46.342Z</time></trkpt><trkpt lat="43.4279193" lon="10.9719016"><ele>523.25</ele><time>2026-04-18T09:40:47.342Z</time></trkpt><trkpt lat="43.427831" lon="10.9720785"><ele>523.0</ele><time>2026-04-18T09:40:48.343Z</time></trkpt><trkpt lat="43.42773" lon="10.9722603"><ele>519.6666666666667</ele><time>2026-04-18T09:40:49.343Z</time></trkpt><trkpt lat="43.4276211" lon="10.9724473"><ele>516.3333333333334</ele><time>2026-04-18T09:40:50.342Z</time></trkpt><trkpt lat="43.4275029" lon="10.9726328"><ele>513.0</ele><time>2026-04-18T09:40:51.342Z</time></trkpt><trkpt lat="43.4273746" lon="10.9728188"><ele>512.6666666666666</ele><time>2026-04-18T09:40:52.342Z</time></trkpt><trkpt lat="43.427238" lon="10.9730075"><ele>512.3333333333333</ele><time>2026-04-18T09:40:53.344Z</time></trkpt><trkpt lat="43.4271002" lon="10.9731936"><ele>512.0</ele><time>2026-04-18T09:40:54.342Z</time></trkpt><trkpt lat="43.4269591" lon="10.9733652"><ele>511.3333333333333</ele><time>2026-04-18T09:40:55.341Z</time></trkpt><trkpt lat="43.4268187" lon="10.973514"><ele>510.66666666666663</ele><time>2026-04-18T09:40:56.342Z</time></trkpt><trkpt lat="43.4266816" lon="10.9736276"><ele>510.0</ele><time>2026-04-18T09:40:57.343Z</time></trkpt><trkpt lat="43.4265348" lon="10.9737072"><ele>510.0</ele><time>2026-04-18T09:40:58.342Z</time></trkpt><trkpt lat="43.4263821" lon="10.9737636"><ele>510.0</ele><time>2026-04-18T09:40:59.343Z</time></trkpt><trkpt lat="43.4262329" lon="10.9737849"><ele>510.0</ele><time>2026-04-18T09:41:00.343Z</time></trkpt><trkpt lat="43.4260969" lon="10.9737722"><ele>510.0</ele><time>2026-04-18T09:41:01.346Z</time></trkpt><trkpt lat="43.4259779" lon="10.9737158"><ele>509.5</ele><time>2026-04-18T09:41:02.342Z</time></trkpt><trkpt lat="43.4258716" lon="10.9736226"><ele>509.0</ele><time>2026-04-18T09:41:03.342Z</time></trkpt><trkpt lat="43.4257785" lon="10.9735091"><ele>508.5</ele><time>2026-04-18T09:41:04.346Z</time></trkpt><trkpt lat="43.4256901" lon="10.9734022"><ele>508.0</ele><time>2026-04-18T09:41:05.342Z</time></trkpt><trkpt lat="43.4255851" lon="10.9733195"><ele>505.5</ele><time>2026-04-18T09:41:06.343Z</time></trkpt><trkpt lat="43.4254661" lon="10.9732689"><ele>503.0</ele><time>2026-04-18T09:41:07.342Z</time></trkpt><trkpt lat="43.4253473" lon="10.9732495"><ele>500.5</ele><time>2026-04-18T09:41:08.343Z</time></trkpt><trkpt lat="43.4252319" lon="10.9732711"><ele>498.0</ele><time>2026-04-18T09:41:09.344Z</time></trkpt><trkpt lat="43.4251334" lon="10.9733323"><ele>498.0</ele><time>2026-04-18T09:41:10.342Z</time></trkpt><trkpt lat="43.4250751" lon="10.9734524"><ele>498.0</ele><time>2026-04-18T09:41:11.342Z</time></trkpt><trkpt lat="43.4250385" lon="10.9736132"><ele>498.0</ele><time>2026-04-18T09:41:12.341Z</time></trkpt><trkpt lat="43.42502" lon="10.9737994"><ele>498.0</ele><time>2026-04-18T09:41:13.342Z</time></trkpt><trkpt lat="43.4249959" lon="10.9740097"><ele>496.66666666666663</ele><time>2026-04-18T09:41:14.342Z</time></trkpt><trkpt lat="43.4249604" lon="10.9742176"><ele>495.3333333333333</ele><time>2026-04-18T09:41:15.342Z</time></trkpt><trkpt lat="43.4248991" lon="10.9744274"><ele>494.0</ele><time>2026-04-18T09:41:16.342Z</time></trkpt><trkpt lat="43.4248276" lon="10.9746305"><ele>494.0</ele><time>2026-04-18T09:41:17.342Z</time></trkpt><trkpt lat="43.4247503" lon="10.9748196"><ele>494.0</ele><time>2026-04-18T09:41:18.343Z</time></trkpt><trkpt lat="43.4246757" lon="10.9749927"><ele>494.0</ele><time>2026-04-18T09:41:19.342Z</time></trkpt><trkpt lat="43.4245899" lon="10.9751394"><ele>494.0</ele><time>2026-04-18T09:41:20.343Z</time></trkpt><trkpt lat="43.4244783" lon="10.9752597"><ele>493.66666666666663</ele><time>2026-04-18T09:41:21.342Z</time></trkpt><trkpt lat="43.4243433" lon="10.9753451"><ele>493.33333333333337</ele><time>2026-04-18T09:41:22.342Z</time></trkpt><trkpt lat="43.4241849" lon="10.9754227"><ele>493.0</ele><time>2026-04-18T09:41:23.343Z</time></trkpt><trkpt lat="43.4240195" lon="10.9754934"><ele>493.0</ele><time>2026-04-18T09:41:24.343Z</time></trkpt><trkpt lat="43.4238624" lon="10.9755616"><ele>493.0</ele><time>2026-04-18T09:41:25.341Z</time></trkpt><trkpt lat="43.4237154" lon="10.9756413"><ele>493.0</ele><time>2026-04-18T09:41:26.343Z</time></trkpt><trkpt lat="43.4235624" lon="10.9757425"><ele>491.6666666666667</ele><time>2026-04-18T09:41:27.342Z</time></trkpt><trkpt lat="43.4233999" lon="10.9758613"><ele>490.33333333333337</ele><time>2026-04-18T09:41:28.345Z</time></trkpt><trkpt lat="43.4232377" lon="10.9759858"><ele>489.0</ele><time>2026-04-18T09:41:29.346Z</time></trkpt><trkpt lat="43.4230743" lon="10.9761037"><ele>491.33333333333337</ele><time>2026-04-18T09:41:30.342Z</time></trkpt><trkpt lat="43.4229122" lon="10.9762051"><ele>493.6666666666667</ele><time>2026-04-18T09:41:31.343Z</time></trkpt><trkpt lat="43.4227564" lon="10.9762784"><ele>496.0</ele><time>2026-04-18T09:41:32.345Z</time></trkpt><trkpt lat="43.4226031" lon="10.9763221"><ele>496.0</ele><time>2026-04-18T09:41:33.344Z</time></trkpt><trkpt lat="43.4224637" lon="10.976311"><ele>496.0</ele><time>2026-04-18T09:41:34.343Z</time></trkpt><trkpt lat="43.4223277" lon="10.9762455"><ele>496.0</ele><time>2026-04-18T09:41:35.343Z</time></trkpt><trkpt lat="43.4222076" lon="10.9761299"><ele>496.0</ele><time>2026-04-18T09:41:36.347Z</time></trkpt><trkpt lat="43.4221005" lon="10.976009"><ele>498.75</ele><time>2026-04-18T09:41:37.343Z</time></trkpt><trkpt lat="43.4220059" lon="10.9758908"><ele>501.5</ele><time>2026-04-18T09:41:38.344Z</time></trkpt><trkpt lat="43.4219086" lon="10.9757997"><ele>504.25</ele><time>2026-04-18T09:41:39.345Z</time></trkpt><trkpt lat="43.4218086" lon="10.975742"><ele>507.0</ele><time>2026-04-18T09:41:40.343Z</time></trkpt><trkpt lat="43.4217011" lon="10.9757444"><ele>507.0</ele><time>2026-04-18T09:41:41.344Z</time></trkpt><trkpt lat="43.4215861" lon="10.9757838"><ele>507.0</ele><time>2026-04-18T09:41:42.343Z</time></trkpt><trkpt lat="43.4214626" lon="10.9758294"><ele>507.0</ele><time>2026-04-18T09:41:43.343Z</time></trkpt><trkpt lat="43.4213281" lon="10.9758604"><ele>507.0</ele><time>2026-04-18T09:41:44.344Z</time></trkpt><trkpt lat="43.4211873" lon="10.9758683"><ele>508.25</ele><time>2026-04-18T09:41:45.343Z</time></trkpt><trkpt lat="43.4210449" lon="10.9758523"><ele>509.5</ele><time>2026-04-18T09:41:46.343Z</time></trkpt><trkpt lat="43.4209069" lon="10.9758113"><ele>510.75</ele><time>2026-04-18T09:41:47.343Z</time></trkpt><trkpt lat="43.4207713" lon="10.9757661"><ele>512.0</ele><time>2026-04-18T09:41:48.345Z</time></trkpt><trkpt lat="43.4206306" lon="10.9757328"><ele>512.0</ele><time>2026-04-18T09:41:49.343Z</time></trkpt><trkpt lat="43.4204869" lon="10.9757211"><ele>512.0</ele><time>2026-04-18T09:41:50.343Z</time></trkpt><trkpt lat="43.4203431" lon="10.9757181"><ele>512.0</ele><time>2026-04-18T09:41:51.346Z</time></trkpt><trkpt lat="43.4201954" lon="10.9757254"><ele>512.0</ele><time>2026-04-18T09:41:52.343Z</time></trkpt><trkpt lat="43.4200423" lon="10.9757479"><ele>513.6666666666666</ele><time>2026-04-18T09:41:53.344Z</time></trkpt><trkpt lat="43.4198879" lon="10.9757927"><ele>515.3333333333334</ele><time>2026-04-18T09:41:54.344Z</time></trkpt><trkpt lat="43.4197404" lon="10.9758593"><ele>517.0</ele><time>2026-04-18T09:41:55.343Z</time></trkpt><trkpt lat="43.4196028" lon="10.9759293"><ele>517.5</ele><time>2026-04-18T09:41:56.346Z</time></trkpt><trkpt lat="43.4194697" lon="10.9759973"><ele>518.0</ele><time>2026-04-18T09:41:57.345Z</time></trkpt><trkpt lat="43.419338" lon="10.9760612"><ele>518.5</ele><time>2026-04-18T09:41:58.343Z</time></trkpt><trkpt lat="43.4192007" lon="10.9761275"><ele>519.0</ele><time>2026-04-18T09:41:59.344Z</time></trkpt><trkpt lat="43.4190649" lon="10.9761971"><ele>519.0</ele><time>2026-04-18T09:42:00.343Z</time></trkpt><trkpt lat="43.4189362" lon="10.9762591"><ele>519.0</ele><time>2026-04-18T09:42:01.344Z</time></trkpt><trkpt lat="43.4188176" lon="10.9763059"><ele>519.0</ele><time>2026-04-18T09:42:02.345Z</time></trkpt><trkpt lat="43.4187062" lon="10.976315"><ele>519.0</ele><time>2026-04-18T09:42:03.343Z</time></trkpt><trkpt lat="43.4186016" lon="10.976269"><ele>520.0</ele><time>2026-04-18T09:42:04.343Z</time></trkpt><trkpt lat="43.4185106" lon="10.9761819"><ele>521.0</ele><time>2026-04-18T09:42:05.343Z</time></trkpt><trkpt lat="43.4184251" lon="10.9760989"><ele>522.0</ele><time>2026-04-18T09:42:06.343Z</time></trkpt><trkpt lat="43.4183367" lon="10.9760398"><ele>523.0</ele><time>2026-04-18T09:42:07.343Z</time></trkpt><trkpt lat="43.418245" lon="10.9760054"><ele>524.0</ele><time>2026-04-18T09:42:08.344Z</time></trkpt><trkpt lat="43.4181576" lon="10.9759967"><ele>524.0</ele><time>2026-04-18T09:42:09.344Z</time></trkpt><trkpt lat="43.4180802" lon="10.9759974"><ele>524.0</ele><time>2026-04-18T09:42:10.343Z</time></trkpt><trkpt lat="43.4180117" lon="10.9760089"><ele>524.0</ele><time>2026-04-18T09:42:11.343Z</time></trkpt><trkpt lat="43.4179093" lon="10.976038"><ele>524.0</ele><time>2026-04-18T09:42:13.343Z</time></trkpt><trkpt lat="43.4179886" lon="10.9760503"><ele>524.0</ele><time>2026-04-18T09:42:39.345Z</time></trkpt><trkpt lat="43.4180806" lon="10.9760272"><ele>524.0</ele><time>2026-04-18T09:42:41.344Z</time></trkpt><trkpt lat="43.4181444" lon="10.9760138"><ele>524.0</ele><time>2026-04-18T09:42:42.344Z</time></trkpt><trkpt lat="43.4182165" lon="10.9760078"><ele>524.0</ele><time>2026-04-18T09:42:43.343Z</time></trkpt><trkpt lat="43.4182938" lon="10.9760127"><ele>524.0</ele><time>2026-04-18T09:42:44.351Z</time></trkpt><trkpt lat="43.4183728" lon="10.976033"><ele>524.0</ele><time>2026-04-18T09:42:45.345Z</time></trkpt><trkpt lat="43.4184547" lon="10.9760631"><ele>524.0</ele><time>2026-04-18T09:42:46.343Z</time></trkpt><trkpt lat="43.4185463" lon="10.9761205"><ele>524.0</ele><time>2026-04-18T09:42:47.346Z</time></trkpt><trkpt lat="43.4186266" lon="10.9761864"><ele>524.0</ele><time>2026-04-18T09:42:48.344Z</time></trkpt><trkpt lat="43.4187017" lon="10.9762436"><ele>524.0</ele><time>2026-04-18T09:42:49.343Z</time></trkpt><trkpt lat="43.4187788" lon="10.9762839"><ele>524.0</ele><time>2026-04-18T09:42:50.344Z</time></trkpt><trkpt lat="43.4188437" lon="10.9762976"><ele>524.0</ele><time>2026-04-18T09:42:51.344Z</time></trkpt><trkpt lat="43.4189541" lon="10.9762784"><ele>524.0</ele><time>2026-04-18T09:42:53.344Z</time></trkpt><trkpt lat="43.418996" lon="10.9761827"><ele>524.0</ele><time>2026-04-18T09:42:56.343Z</time></trkpt><trkpt lat="43.4189495" lon="10.9760772"><ele>524.0</ele><time>2026-04-18T09:42:58.344Z</time></trkpt><trkpt lat="43.418848" lon="10.9759854"><ele>524.0</ele><time>2026-04-18T09:43:00.343Z</time></trkpt><trkpt lat="43.4187822" lon="10.9759414"><ele>524.0</ele><time>2026-04-18T09:43:01.343Z</time></trkpt><trkpt lat="43.4187143" lon="10.9759024"><ele>524.0</ele><time>2026-04-18T09:43:02.345Z</time></trkpt><trkpt lat="43.4186499" lon="10.9758694"><ele>524.0</ele><time>2026-04-18T09:43:03.345Z</time></trkpt><trkpt lat="43.4185379" lon="10.975805"><ele>521.4</ele><time>2026-04-18T09:43:05.344Z</time></trkpt><trkpt lat="43.4184413" lon="10.9757499"><ele>518.8</ele><time>2026-04-18T09:43:07.344Z</time></trkpt><trkpt lat="43.418344" lon="10.9756929"><ele>516.2</ele><time>2026-04-18T09:43:09.344Z</time></trkpt><trkpt lat="43.4182471" lon="10.9756367"><ele>513.6</ele><time>2026-04-18T09:43:11.344Z</time></trkpt><trkpt lat="43.4181369" lon="10.9756031"><ele>511.0</ele><time>2026-04-18T09:43:13.344Z</time></trkpt><trkpt lat="43.4180195" lon="10.9755594"><ele>511.1666666666667</ele><time>2026-04-18T09:43:15.344Z</time></trkpt><trkpt lat="43.4179528" lon="10.9755506"><ele>511.33333333333337</ele><time>2026-04-18T09:43:16.343Z</time></trkpt><trkpt lat="43.417886" lon="10.9755421"><ele>511.5</ele><time>2026-04-18T09:43:17.344Z</time></trkpt><trkpt lat="43.4178195" lon="10.9755338"><ele>511.66666666666663</ele><time>2026-04-18T09:43:18.343Z</time></trkpt><trkpt lat="43.4176917" lon="10.975519"><ele>511.8333333333333</ele><time>2026-04-18T09:43:20.342Z</time></trkpt><trkpt lat="43.4176192" lon="10.9755131"><ele>512.0</ele><time>2026-04-18T09:43:21.344Z</time></trkpt><trkpt lat="43.4175503" lon="10.9755037"><ele>511.99999999999994</ele><time>2026-04-18T09:43:22.343Z</time></trkpt><trkpt lat="43.4174351" lon="10.9754946"><ele>512.0</ele><time>2026-04-18T09:43:24.344Z</time></trkpt><trkpt lat="43.4173444" lon="10.9754939"><ele>512.0</ele><time>2026-04-18T09:43:26.343Z</time></trkpt><trkpt lat="43.4172917" lon="10.975442"><ele>512.0</ele><time>2026-04-18T09:43:29.342Z</time></trkpt><trkpt lat="43.417305" lon="10.9753519"><ele>511.99999999999994</ele><time>2026-04-18T09:43:31.344Z</time></trkpt><trkpt lat="43.4173675" lon="10.9752595"><ele>512.0</ele><time>2026-04-18T09:43:33.343Z</time></trkpt><trkpt lat="43.4174673" lon="10.975139"><ele>511.99999999999994</ele><time>2026-04-18T09:43:35.343Z</time></trkpt><trkpt lat="43.4175251" lon="10.9750593"><ele>512.0</ele><time>2026-04-18T09:43:36.343Z</time></trkpt><trkpt lat="43.4175895" lon="10.9749716"><ele>512.0</ele><time>2026-04-18T09:43:37.342Z</time></trkpt><trkpt lat="43.417651" lon="10.9748743"><ele>512.0</ele><time>2026-04-18T09:43:38.342Z</time></trkpt><trkpt lat="43.4177027" lon="10.9747842"><ele>511.99999999999994</ele><time>2026-04-18T09:43:39.342Z</time></trkpt><trkpt lat="43.4177459" lon="10.9746877"><ele>512.0</ele><time>2026-04-18T09:43:40.344Z</time></trkpt><trkpt lat="43.4177684" lon="10.9746002"><ele>509.20000000000005</ele><time>2026-04-18T09:43:41.344Z</time></trkpt><trkpt lat="43.4177767" lon="10.974496"><ele>506.40000000000003</ele><time>2026-04-18T09:43:42.343Z</time></trkpt><trkpt lat="43.4177545" lon="10.9743896"><ele>503.59999999999997</ele><time>2026-04-18T09:43:43.343Z</time></trkpt><trkpt lat="43.4177115" lon="10.9742793"><ele>500.79999999999995</ele><time>2026-04-18T09:43:44.344Z</time></trkpt><trkpt lat="43.4176587" lon="10.9741529"><ele>498.0</ele><time>2026-04-18T09:43:45.344Z</time></trkpt><trkpt lat="43.4175862" lon="10.97401"><ele>495.0</ele><time>2026-04-18T09:43:46.344Z</time></trkpt><trkpt lat="43.4174948" lon="10.9738577"><ele>492.0</ele><time>2026-04-18T09:43:47.343Z</time></trkpt><trkpt lat="43.4174047" lon="10.9736902"><ele>489.0</ele><time>2026-04-18T09:43:48.342Z</time></trkpt><trkpt lat="43.4173196" lon="10.973528"><ele>486.0</ele><time>2026-04-18T09:43:49.342Z</time></trkpt><trkpt lat="43.4172443" lon="10.9733688"><ele>484.25</ele><time>2026-04-18T09:43:50.343Z</time></trkpt><trkpt lat="43.4171747" lon="10.9732182"><ele>482.5</ele><time>2026-04-18T09:43:51.343Z</time></trkpt><trkpt lat="43.4171126" lon="10.9730719"><ele>480.75</ele><time>2026-04-18T09:43:52.343Z</time></trkpt><trkpt lat="43.4170606" lon="10.9729169"><ele>479.0</ele><time>2026-04-18T09:43:53.342Z</time></trkpt><trkpt lat="43.417011" lon="10.9727439"><ele>478.25</ele><time>2026-04-18T09:43:54.344Z</time></trkpt><trkpt lat="43.4169616" lon="10.9725733"><ele>477.5</ele><time>2026-04-18T09:43:55.342Z</time></trkpt><trkpt lat="43.4169191" lon="10.972403"><ele>476.75</ele><time>2026-04-18T09:43:56.342Z</time></trkpt><trkpt lat="43.4168753" lon="10.9722308"><ele>476.0</ele><time>2026-04-18T09:43:57.341Z</time></trkpt><trkpt lat="43.4168259" lon="10.9720533"><ele>475.75</ele><time>2026-04-18T09:43:58.341Z</time></trkpt><trkpt lat="43.4167738" lon="10.9718738"><ele>475.5</ele><time>2026-04-18T09:43:59.343Z</time></trkpt><trkpt lat="43.4167162" lon="10.9717003"><ele>475.25</ele><time>2026-04-18T09:44:00.341Z</time></trkpt><trkpt lat="43.4166515" lon="10.9715305"><ele>475.0</ele><time>2026-04-18T09:44:01.342Z</time></trkpt><trkpt lat="43.4165846" lon="10.9713671"><ele>475.75</ele><time>2026-04-18T09:44:02.342Z</time></trkpt><trkpt lat="43.4165207" lon="10.9712132"><ele>476.5</ele><time>2026-04-18T09:44:03.342Z</time></trkpt><trkpt lat="43.4164588" lon="10.9710724"><ele>477.25</ele><time>2026-04-18T09:44:04.342Z</time></trkpt><trkpt lat="43.4163955" lon="10.9709362"><ele>478.0</ele><time>2026-04-18T09:44:05.341Z</time></trkpt><trkpt lat="43.416324" lon="10.9707968"><ele>479.0</ele><time>2026-04-18T09:44:06.344Z</time></trkpt><trkpt lat="43.4162592" lon="10.9706434"><ele>480.0</ele><time>2026-04-18T09:44:07.342Z</time></trkpt><trkpt lat="43.4161792" lon="10.9704854"><ele>481.0</ele><time>2026-04-18T09:44:08.342Z</time></trkpt><trkpt lat="43.4160907" lon="10.9703299"><ele>482.0</ele><time>2026-04-18T09:44:09.342Z</time></trkpt><trkpt lat="43.4160021" lon="10.9701761"><ele>481.5</ele><time>2026-04-18T09:44:10.342Z</time></trkpt><trkpt lat="43.4159097" lon="10.9700217"><ele>481.0</ele><time>2026-04-18T09:44:11.341Z</time></trkpt><trkpt lat="43.4158214" lon="10.969866"><ele>480.5</ele><time>2026-04-18T09:44:12.343Z</time></trkpt><trkpt lat="43.4157294" lon="10.9697156"><ele>480.0</ele><time>2026-04-18T09:44:13.341Z</time></trkpt><trkpt lat="43.4156459" lon="10.9695699"><ele>480.0</ele><time>2026-04-18T09:44:14.343Z</time></trkpt><trkpt lat="43.4155746" lon="10.9694358"><ele>480.0</ele><time>2026-04-18T09:44:15.341Z</time></trkpt><trkpt lat="43.4155265" lon="10.9693066"><ele>480.0</ele><time>2026-04-18T09:44:16.341Z</time></trkpt><trkpt lat="43.4155004" lon="10.9691714"><ele>480.0</ele><time>2026-04-18T09:44:17.341Z</time></trkpt><trkpt lat="43.4154904" lon="10.9690226"><ele>480.0</ele><time>2026-04-18T09:44:18.342Z</time></trkpt><trkpt lat="43.4154913" lon="10.9688532"><ele>479.0</ele><time>2026-04-18T09:44:19.343Z</time></trkpt><trkpt lat="43.4154998" lon="10.9686667"><ele>478.0</ele><time>2026-04-18T09:44:20.342Z</time></trkpt><trkpt lat="43.415506" lon="10.9684712"><ele>477.0</ele><time>2026-04-18T09:44:21.345Z</time></trkpt><trkpt lat="43.4155154" lon="10.9682643"><ele>476.0</ele><time>2026-04-18T09:44:22.342Z</time></trkpt><trkpt lat="43.4155243" lon="10.9680552"><ele>476.0</ele><time>2026-04-18T09:44:23.344Z</time></trkpt><trkpt lat="43.4155345" lon="10.9678481"><ele>476.0</ele><time>2026-04-18T09:44:24.342Z</time></trkpt><trkpt lat="43.4155481" lon="10.9676412"><ele>476.0</ele><time>2026-04-18T09:44:25.342Z</time></trkpt><trkpt lat="43.4155634" lon="10.9674408"><ele>476.0</ele><time>2026-04-18T09:44:26.341Z</time></trkpt><trkpt lat="43.4155855" lon="10.9672537"><ele>478.0</ele><time>2026-04-18T09:44:27.343Z</time></trkpt><trkpt lat="43.4156029" lon="10.9670896"><ele>480.0</ele><time>2026-04-18T09:44:28.341Z</time></trkpt><trkpt lat="43.4156205" lon="10.9669286"><ele>482.0</ele><time>2026-04-18T09:44:29.343Z</time></trkpt><trkpt lat="43.4156434" lon="10.966777"><ele>484.0</ele><time>2026-04-18T09:44:30.342Z</time></trkpt><trkpt lat="43.415673" lon="10.9666359"><ele>485.4</ele><time>2026-04-18T09:44:31.342Z</time></trkpt><trkpt lat="43.415689" lon="10.9664905"><ele>486.79999999999995</ele><time>2026-04-18T09:44:32.342Z</time></trkpt><trkpt lat="43.4156975" lon="10.9663392"><ele>488.20000000000005</ele><time>2026-04-18T09:44:33.342Z</time></trkpt><trkpt lat="43.4156917" lon="10.9661851"><ele>489.6</ele><time>2026-04-18T09:44:34.342Z</time></trkpt><trkpt lat="43.4156733" lon="10.9660299"><ele>491.0</ele><time>2026-04-18T09:44:35.343Z</time></trkpt><trkpt lat="43.4156421" lon="10.9658809"><ele>491.6</ele><time>2026-04-18T09:44:36.341Z</time></trkpt><trkpt lat="43.4156117" lon="10.9657405"><ele>492.20000000000005</ele><time>2026-04-18T09:44:37.342Z</time></trkpt><trkpt lat="43.415592" lon="10.9656089"><ele>492.79999999999995</ele><time>2026-04-18T09:44:38.342Z</time></trkpt><trkpt lat="43.4155833" lon="10.9654831"><ele>493.4</ele><time>2026-04-18T09:44:39.343Z</time></trkpt><trkpt lat="43.4155875" lon="10.9653641"><ele>494.0</ele><time>2026-04-18T09:44:40.343Z</time></trkpt><trkpt lat="43.4155987" lon="10.9652422"><ele>493.99999999999994</ele><time>2026-04-18T09:44:41.343Z</time></trkpt><trkpt lat="43.415612" lon="10.9651174"><ele>494.0</ele><time>2026-04-18T09:44:42.342Z</time></trkpt><trkpt lat="43.4156301" lon="10.9650069"><ele>494.0</ele><time>2026-04-18T09:44:43.342Z</time></trkpt><trkpt lat="43.415651" lon="10.9649146"><ele>494.0</ele><time>2026-04-18T09:44:44.342Z</time></trkpt><trkpt lat="43.4156642" lon="10.9648272"><ele>493.99999999999994</ele><time>2026-04-18T09:44:45.342Z</time></trkpt><trkpt lat="43.4156837" lon="10.9646805"><ele>494.0</ele><time>2026-04-18T09:44:47.342Z</time></trkpt><trkpt lat="43.4156672" lon="10.9645512"><ele>493.66666666666663</ele><time>2026-04-18T09:44:49.347Z</time></trkpt><trkpt lat="43.415599" lon="10.9644162"><ele>493.3333333333333</ele><time>2026-04-18T09:44:51.342Z</time></trkpt><trkpt lat="43.4155543" lon="10.9643517"><ele>493.0</ele><time>2026-04-18T09:44:52.341Z</time></trkpt><trkpt lat="43.4155116" lon="10.964283"><ele>492.66666666666663</ele><time>2026-04-18T09:44:53.342Z</time></trkpt><trkpt lat="43.4154693" lon="10.9642154"><ele>492.3333333333333</ele><time>2026-04-18T09:44:54.342Z</time></trkpt><trkpt lat="43.4154288" lon="10.9641447"><ele>492.0</ele><time>2026-04-18T09:44:55.345Z</time></trkpt><trkpt lat="43.4153389" lon="10.9640297"><ele>492.0</ele><time>2026-04-18T09:44:57.342Z</time></trkpt><trkpt lat="43.415242" lon="10.9639489"><ele>492.00000000000006</ele><time>2026-04-18T09:44:59.344Z</time></trkpt><trkpt lat="43.4151353" lon="10.9638848"><ele>492.00000000000006</ele><time>2026-04-18T09:45:01.342Z</time></trkpt><trkpt lat="43.4150219" lon="10.9637974"><ele>492.0</ele><time>2026-04-18T09:45:03.343Z</time></trkpt><trkpt lat="43.4149621" lon="10.963744"><ele>492.0</ele><time>2026-04-18T09:45:04.342Z</time></trkpt><trkpt lat="43.4149001" lon="10.9636965"><ele>492.0</ele><time>2026-04-18T09:45:05.342Z</time></trkpt><trkpt lat="43.4148361" lon="10.9636575"><ele>492.0</ele><time>2026-04-18T09:45:06.342Z</time></trkpt><trkpt lat="43.4147689" lon="10.9636246"><ele>492.0</ele><time>2026-04-18T09:45:07.342Z</time></trkpt><trkpt lat="43.4146928" lon="10.9635962"><ele>492.0</ele><time>2026-04-18T09:45:08.344Z</time></trkpt><trkpt lat="43.4146179" lon="10.9635699"><ele>492.0</ele><time>2026-04-18T09:45:09.346Z</time></trkpt><trkpt lat="43.4145402" lon="10.9635471"><ele>492.0</ele><time>2026-04-18T09:45:10.343Z</time></trkpt><trkpt lat="43.4144631" lon="10.9635266"><ele>490.0</ele><time>2026-04-18T09:45:11.345Z</time></trkpt><trkpt lat="43.4143893" lon="10.9635054"><ele>488.0</ele><time>2026-04-18T09:45:12.343Z</time></trkpt><trkpt lat="43.4143237" lon="10.9634798"><ele>486.0</ele><time>2026-04-18T09:45:13.342Z</time></trkpt><trkpt lat="43.4142623" lon="10.9634544"><ele>484.0</ele><time>2026-04-18T09:45:14.342Z</time></trkpt><trkpt lat="43.4141656" lon="10.9634"><ele>482.0</ele><time>2026-04-18T09:45:16.342Z</time></trkpt><trkpt lat="43.4140915" lon="10.9633032"><ele>480.0</ele><time>2026-04-18T09:45:18.343Z</time></trkpt><trkpt lat="43.4140393" lon="10.963172"><ele>480.0</ele><time>2026-04-18T09:45:20.342Z</time></trkpt><trkpt lat="43.4139924" lon="10.9630487"><ele>480.0</ele><time>2026-04-18T09:45:22.342Z</time></trkpt><trkpt lat="43.4139344" lon="10.9629639"><ele>480.0</ele><time>2026-04-18T09:45:24.344Z</time></trkpt><trkpt lat="43.4138461" lon="10.9629465"><ele>480.0</ele><time>2026-04-18T09:45:26.342Z</time></trkpt><trkpt lat="43.4137413" lon="10.9630144"><ele>480.0</ele><time>2026-04-18T09:45:28.342Z</time></trkpt><trkpt lat="43.4136793" lon="10.9630621"><ele>478.28571428571433</ele><time>2026-04-18T09:45:29.342Z</time></trkpt><trkpt lat="43.4136154" lon="10.9631044"><ele>476.57142857142856</ele><time>2026-04-18T09:45:30.342Z</time></trkpt><trkpt lat="43.4135503" lon="10.9631402"><ele>474.8571428571429</ele><time>2026-04-18T09:45:31.342Z</time></trkpt><trkpt lat="43.4134835" lon="10.9631701"><ele>473.14285714285717</ele><time>2026-04-18T09:45:32.342Z</time></trkpt><trkpt lat="43.4134152" lon="10.9631916"><ele>471.42857142857144</ele><time>2026-04-18T09:45:33.343Z</time></trkpt><trkpt lat="43.41335" lon="10.9631929"><ele>469.7142857142857</ele><time>2026-04-18T09:45:34.342Z</time></trkpt><trkpt lat="43.4132825" lon="10.9631822"><ele>468.0</ele><time>2026-04-18T09:45:35.343Z</time></trkpt><trkpt lat="43.4132181" lon="10.9631629"><ele>468.0</ele><time>2026-04-18T09:45:36.342Z</time></trkpt><trkpt lat="43.413153" lon="10.9631242"><ele>468.0</ele><time>2026-04-18T09:45:37.343Z</time></trkpt><trkpt lat="43.4130894" lon="10.963064"><ele>468.0</ele><time>2026-04-18T09:45:38.343Z</time></trkpt><trkpt lat="43.4130262" lon="10.962987"><ele>468.0</ele><time>2026-04-18T09:45:39.345Z</time></trkpt><trkpt lat="43.4129636" lon="10.9629146"><ele>468.0</ele><time>2026-04-18T09:45:40.342Z</time></trkpt><trkpt lat="43.4129077" lon="10.9628428"><ele>468.0</ele><time>2026-04-18T09:45:41.343Z</time></trkpt><trkpt lat="43.4128456" lon="10.9627668"><ele>464.79999999999995</ele><time>2026-04-18T09:45:42.342Z</time></trkpt><trkpt lat="43.4127867" lon="10.9626956"><ele>461.59999999999997</ele><time>2026-04-18T09:45:43.343Z</time></trkpt><trkpt lat="43.4127414" lon="10.9626111"><ele>458.40000000000003</ele><time>2026-04-18T09:45:44.342Z</time></trkpt><trkpt lat="43.4126787" lon="10.9624921"><ele>455.20000000000005</ele><time>2026-04-18T09:45:46.342Z</time></trkpt><trkpt lat="43.4126546" lon="10.9623611"><ele>452.0</ele><time>2026-04-18T09:45:48.344Z</time></trkpt><trkpt lat="43.4126676" lon="10.9621855"><ele>451.6</ele><time>2026-04-18T09:45:50.343Z</time></trkpt><trkpt lat="43.4126794" lon="10.9620715"><ele>451.20000000000005</ele><time>2026-04-18T09:45:51.342Z</time></trkpt><trkpt lat="43.4126986" lon="10.9619329"><ele>450.8</ele><time>2026-04-18T09:45:52.342Z</time></trkpt><trkpt lat="43.4127231" lon="10.9617919"><ele>450.4</ele><time>2026-04-18T09:45:53.343Z</time></trkpt><trkpt lat="43.4127512" lon="10.961656"><ele>450.0</ele><time>2026-04-18T09:45:54.345Z</time></trkpt><trkpt lat="43.4127723" lon="10.9615213"><ele>449.0</ele><time>2026-04-18T09:45:55.344Z</time></trkpt><trkpt lat="43.4127881" lon="10.9613904"><ele>448.0</ele><time>2026-04-18T09:45:56.343Z</time></trkpt><trkpt lat="43.4127952" lon="10.9612505"><ele>447.0</ele><time>2026-04-18T09:45:57.342Z</time></trkpt><trkpt lat="43.4127908" lon="10.9611102"><ele>446.0</ele><time>2026-04-18T09:45:58.342Z</time></trkpt><trkpt lat="43.4127802" lon="10.9609707"><ele>445.0</ele><time>2026-04-18T09:45:59.343Z</time></trkpt><trkpt lat="43.4127637" lon="10.9608406"><ele>442.4</ele><time>2026-04-18T09:46:00.343Z</time></trkpt><trkpt lat="43.4127433" lon="10.9607197"><ele>439.8</ele><time>2026-04-18T09:46:01.342Z</time></trkpt><trkpt lat="43.4127279" lon="10.9606004"><ele>437.20000000000005</ele><time>2026-04-18T09:46:02.347Z</time></trkpt><trkpt lat="43.4127235" lon="10.9604824"><ele>434.6</ele><time>2026-04-18T09:46:03.343Z</time></trkpt><trkpt lat="43.4127281" lon="10.9603536"><ele>432.0</ele><time>2026-04-18T09:46:04.342Z</time></trkpt><trkpt lat="43.4127386" lon="10.9602259"><ele>432.0</ele><time>2026-04-18T09:46:05.342Z</time></trkpt><trkpt lat="43.412748" lon="10.9600999"><ele>432.00000000000006</ele><time>2026-04-18T09:46:06.343Z</time></trkpt><trkpt lat="43.4127636" lon="10.959971"><ele>432.00000000000006</ele><time>2026-04-18T09:46:07.343Z</time></trkpt><trkpt lat="43.4127822" lon="10.9598486"><ele>432.0</ele><time>2026-04-18T09:46:08.343Z</time></trkpt><trkpt lat="43.4128114" lon="10.9597196"><ele>432.0</ele><time>2026-04-18T09:46:09.342Z</time></trkpt><trkpt lat="43.4128521" lon="10.9595887"><ele>430.0</ele><time>2026-04-18T09:46:10.342Z</time></trkpt><trkpt lat="43.4128856" lon="10.9594521"><ele>428.00000000000006</ele><time>2026-04-18T09:46:11.344Z</time></trkpt><trkpt lat="43.4129132" lon="10.9593156"><ele>426.0</ele><time>2026-04-18T09:46:12.345Z</time></trkpt><trkpt lat="43.412938" lon="10.9591893"><ele>424.0</ele><time>2026-04-18T09:46:13.344Z</time></trkpt><trkpt lat="43.4129471" lon="10.9590673"><ele>422.0</ele><time>2026-04-18T09:46:14.345Z</time></trkpt><trkpt lat="43.4129453" lon="10.9589618"><ele>420.0</ele><time>2026-04-18T09:46:15.344Z</time></trkpt><trkpt lat="43.4129337" lon="10.9588629"><ele>418.0</ele><time>2026-04-18T09:46:16.345Z</time></trkpt><trkpt lat="43.4129103" lon="10.958747"><ele>416.0</ele><time>2026-04-18T09:46:17.345Z</time></trkpt><trkpt lat="43.4128792" lon="10.9586119"><ele>414.0</ele><time>2026-04-18T09:46:18.345Z</time></trkpt><trkpt lat="43.4128421" lon="10.9584658"><ele>412.0</ele><time>2026-04-18T09:46:19.343Z</time></trkpt><trkpt lat="43.412803" lon="10.958313"><ele>410.0</ele><time>2026-04-18T09:46:20.343Z</time></trkpt><trkpt lat="43.4127644" lon="10.9581533"><ele>408.0</ele><time>2026-04-18T09:46:21.346Z</time></trkpt><trkpt lat="43.4127255" lon="10.9579914"><ele>406.0</ele><time>2026-04-18T09:46:22.345Z</time></trkpt><trkpt lat="43.4126868" lon="10.9578234"><ele>404.0</ele><time>2026-04-18T09:46:23.343Z</time></trkpt><trkpt lat="43.4126414" lon="10.9576535"><ele>401.5</ele><time>2026-04-18T09:46:24.345Z</time></trkpt><trkpt lat="43.4125976" lon="10.9574902"><ele>399.0</ele><time>2026-04-18T09:46:25.344Z</time></trkpt><trkpt lat="43.412556" lon="10.957335"><ele>396.5</ele><time>2026-04-18T09:46:26.344Z</time></trkpt><trkpt lat="43.4125145" lon="10.9571822"><ele>394.0</ele><time>2026-04-18T09:46:27.348Z</time></trkpt><trkpt lat="43.4124763" lon="10.9570395"><ele>394.0</ele><time>2026-04-18T09:46:28.345Z</time></trkpt><trkpt lat="43.4124456" lon="10.9569072"><ele>394.0</ele><time>2026-04-18T09:46:29.345Z</time></trkpt><trkpt lat="43.4124146" lon="10.9567874"><ele>394.0</ele><time>2026-04-18T09:46:30.342Z</time></trkpt><trkpt lat="43.4123894" lon="10.9566763"><ele>394.0</ele><time>2026-04-18T09:46:31.342Z</time></trkpt><trkpt lat="43.4123724" lon="10.9565761"><ele>394.0</ele><time>2026-04-18T09:46:32.343Z</time></trkpt><trkpt lat="43.4123762" lon="10.9564118"><ele>393.0</ele><time>2026-04-18T09:46:34.342Z</time></trkpt><trkpt lat="43.4123919" lon="10.9563145"><ele>392.0</ele><time>2026-04-18T09:46:35.343Z</time></trkpt><trkpt lat="43.4123991" lon="10.9562134"><ele>391.0</ele><time>2026-04-18T09:46:36.342Z</time></trkpt><trkpt lat="43.412401" lon="10.9561233"><ele>390.0</ele><time>2026-04-18T09:46:37.342Z</time></trkpt><trkpt lat="43.4123652" lon="10.9559661"><ele>389.0</ele><time>2026-04-18T09:46:39.343Z</time></trkpt><trkpt lat="43.4122855" lon="10.9558338"><ele>388.99999999999994</ele><time>2026-04-18T09:46:41.342Z</time></trkpt><trkpt lat="43.4122268" lon="10.9557772"><ele>389.0</ele><time>2026-04-18T09:46:42.344Z</time></trkpt><trkpt lat="43.4121653" lon="10.9557148"><ele>389.0</ele><time>2026-04-18T09:46:43.342Z</time></trkpt><trkpt lat="43.4121031" lon="10.9556496"><ele>389.0</ele><time>2026-04-18T09:46:44.343Z</time></trkpt><trkpt lat="43.4120548" lon="10.9555791"><ele>388.99999999999994</ele><time>2026-04-18T09:46:45.344Z</time></trkpt><trkpt lat="43.4120139" lon="10.9554547"><ele>389.0</ele><time>2026-04-18T09:46:47.342Z</time></trkpt><trkpt lat="43.4120485" lon="10.9552878"><ele>388.99999999999994</ele><time>2026-04-18T09:46:49.343Z</time></trkpt><trkpt lat="43.4120735" lon="10.9551848"><ele>389.0</ele><time>2026-04-18T09:46:50.344Z</time></trkpt><trkpt lat="43.412089" lon="10.9550797"><ele>389.0</ele><time>2026-04-18T09:46:51.342Z</time></trkpt><trkpt lat="43.4120934" lon="10.9549776"><ele>389.0</ele><time>2026-04-18T09:46:52.343Z</time></trkpt><trkpt lat="43.4120829" lon="10.9548711"><ele>388.99999999999994</ele><time>2026-04-18T09:46:53.342Z</time></trkpt><trkpt lat="43.4120596" lon="10.9547625"><ele>389.0</ele><time>2026-04-18T09:46:54.347Z</time></trkpt><trkpt lat="43.4120319" lon="10.9546536"><ele>390.49999999999994</ele><time>2026-04-18T09:46:55.342Z</time></trkpt><trkpt lat="43.4120079" lon="10.9545519"><ele>392.0</ele><time>2026-04-18T09:46:56.344Z</time></trkpt><trkpt lat="43.4119895" lon="10.9544579"><ele>393.5</ele><time>2026-04-18T09:46:57.342Z</time></trkpt><trkpt lat="43.411976" lon="10.9543538"><ele>395.0</ele><time>2026-04-18T09:46:58.343Z</time></trkpt><trkpt lat="43.4119654" lon="10.9542369"><ele>396.49999999999994</ele><time>2026-04-18T09:46:59.343Z</time></trkpt><trkpt lat="43.4119493" lon="10.9541086"><ele>398.0</ele><time>2026-04-18T09:47:00.343Z</time></trkpt><trkpt lat="43.4119387" lon="10.9539773"><ele>398.4</ele><time>2026-04-18T09:47:01.346Z</time></trkpt><trkpt lat="43.4119301" lon="10.9538411"><ele>398.79999999999995</ele><time>2026-04-18T09:47:02.344Z</time></trkpt><trkpt lat="43.4119072" lon="10.9537032"><ele>399.2</ele><time>2026-04-18T09:47:03.345Z</time></trkpt><trkpt lat="43.4118919" lon="10.9535634"><ele>399.6</ele><time>2026-04-18T09:47:04.344Z</time></trkpt><trkpt lat="43.4118818" lon="10.9534126"><ele>400.0</ele><time>2026-04-18T09:47:05.343Z</time></trkpt><trkpt lat="43.4118703" lon="10.9532586"><ele>401.2</ele><time>2026-04-18T09:47:06.343Z</time></trkpt><trkpt lat="43.4118513" lon="10.9531092"><ele>402.4</ele><time>2026-04-18T09:47:07.343Z</time></trkpt><trkpt lat="43.4118372" lon="10.9529596"><ele>403.6</ele><time>2026-04-18T09:47:08.343Z</time></trkpt><trkpt lat="43.4118212" lon="10.9528145"><ele>404.8</ele><time>2026-04-18T09:47:09.344Z</time></trkpt><trkpt lat="43.4118073" lon="10.9526716"><ele>406.0</ele><time>2026-04-18T09:47:10.344Z</time></trkpt><trkpt lat="43.4117956" lon="10.9525378"><ele>407.20000000000005</ele><time>2026-04-18T09:47:11.344Z</time></trkpt><trkpt lat="43.4117868" lon="10.9524111"><ele>408.40000000000003</ele><time>2026-04-18T09:47:12.345Z</time></trkpt><trkpt lat="43.4117756" lon="10.9522882"><ele>409.6</ele><time>2026-04-18T09:47:13.344Z</time></trkpt><trkpt lat="43.411768" lon="10.9521593"><ele>410.8</ele><time>2026-04-18T09:47:14.344Z</time></trkpt><trkpt lat="43.4117597" lon="10.9520315"><ele>412.0</ele><time>2026-04-18T09:47:15.344Z</time></trkpt><trkpt lat="43.4117514" lon="10.9518992"><ele>412.0</ele><time>2026-04-18T09:47:16.345Z</time></trkpt><trkpt lat="43.4117388" lon="10.951761"><ele>412.0</ele><time>2026-04-18T09:47:17.343Z</time></trkpt><trkpt lat="43.4117266" lon="10.9516187"><ele>412.0</ele><time>2026-04-18T09:47:18.344Z</time></trkpt><trkpt lat="43.4117166" lon="10.9514758"><ele>412.0</ele><time>2026-04-18T09:47:19.345Z</time></trkpt><trkpt lat="43.4117077" lon="10.951331"><ele>412.0</ele><time>2026-04-18T09:47:20.348Z</time></trkpt><trkpt lat="43.4116995" lon="10.9511826"><ele>412.8</ele><time>2026-04-18T09:47:21.345Z</time></trkpt><trkpt lat="43.4116895" lon="10.9510367"><ele>413.6</ele><time>2026-04-18T09:47:22.344Z</time></trkpt><trkpt lat="43.4116812" lon="10.9508949"><ele>414.40000000000003</ele><time>2026-04-18T09:47:23.344Z</time></trkpt><trkpt lat="43.4116703" lon="10.9507534"><ele>415.20000000000005</ele><time>2026-04-18T09:47:24.343Z</time></trkpt><trkpt lat="43.4116613" lon="10.9506073"><ele>416.0</ele><time>2026-04-18T09:47:25.345Z</time></trkpt><trkpt lat="43.4116515" lon="10.9504648"><ele>416.8</ele><time>2026-04-18T09:47:26.343Z</time></trkpt><trkpt lat="43.4116396" lon="10.9503277"><ele>417.6</ele><time>2026-04-18T09:47:27.345Z</time></trkpt><trkpt lat="43.4116246" lon="10.950195"><ele>418.4</ele><time>2026-04-18T09:47:28.344Z</time></trkpt><trkpt lat="43.4116049" lon="10.9500691"><ele>419.2</ele><time>2026-04-18T09:47:29.344Z</time></trkpt><trkpt lat="43.4115828" lon="10.9499461"><ele>420.0</ele><time>2026-04-18T09:47:30.344Z</time></trkpt><trkpt lat="43.4115657" lon="10.9498316"><ele>420.3333333333333</ele><time>2026-04-18T09:47:31.344Z</time></trkpt><trkpt lat="43.4115471" lon="10.9497227"><ele>420.66666666666663</ele><time>2026-04-18T09:47:32.344Z</time></trkpt><trkpt lat="43.4115194" lon="10.9496162"><ele>421.0</ele><time>2026-04-18T09:47:33.346Z</time></trkpt><trkpt lat="43.4114872" lon="10.9495086"><ele>421.3333333333333</ele><time>2026-04-18T09:47:34.344Z</time></trkpt><trkpt lat="43.4114524" lon="10.9494119"><ele>421.66666666666663</ele><time>2026-04-18T09:47:35.344Z</time></trkpt><trkpt lat="43.4114156" lon="10.949321"><ele>422.0</ele><time>2026-04-18T09:47:36.343Z</time></trkpt><trkpt lat="43.4113771" lon="10.949236"><ele>421.66666666666663</ele><time>2026-04-18T09:47:37.344Z</time></trkpt><trkpt lat="43.4113368" lon="10.9491603"><ele>421.3333333333333</ele><time>2026-04-18T09:47:38.343Z</time></trkpt><trkpt lat="43.4112853" lon="10.9490981"><ele>421.0</ele><time>2026-04-18T09:47:39.345Z</time></trkpt><trkpt lat="43.411224" lon="10.9490494"><ele>420.66666666666663</ele><time>2026-04-18T09:47:40.347Z</time></trkpt><trkpt lat="43.4111642" lon="10.9490056"><ele>420.3333333333333</ele><time>2026-04-18T09:47:41.344Z</time></trkpt><trkpt lat="43.4110674" lon="10.948903"><ele>420.0</ele><time>2026-04-18T09:47:43.344Z</time></trkpt><trkpt lat="43.4109927" lon="10.9487716"><ele>420.0</ele><time>2026-04-18T09:47:45.344Z</time></trkpt><trkpt lat="43.4109636" lon="10.9486774"><ele>420.0</ele><time>2026-04-18T09:47:46.343Z</time></trkpt><trkpt lat="43.4109402" lon="10.9485616"><ele>420.0</ele><time>2026-04-18T09:47:47.343Z</time></trkpt><trkpt lat="43.4109218" lon="10.9484178"><ele>420.0</ele><time>2026-04-18T09:47:48.345Z</time></trkpt><trkpt lat="43.4109054" lon="10.9482627"><ele>420.0</ele><time>2026-04-18T09:47:49.343Z</time></trkpt><trkpt lat="43.4108895" lon="10.9481041"><ele>419.6</ele><time>2026-04-18T09:47:50.344Z</time></trkpt><trkpt lat="43.410882" lon="10.9479576"><ele>419.2</ele><time>2026-04-18T09:47:51.344Z</time></trkpt><trkpt lat="43.4108804" lon="10.9478186"><ele>418.79999999999995</ele><time>2026-04-18T09:47:52.343Z</time></trkpt><trkpt lat="43.4108873" lon="10.9476836"><ele>418.4</ele><time>2026-04-18T09:47:53.342Z</time></trkpt><trkpt lat="43.4109062" lon="10.9475401"><ele>418.0</ele><time>2026-04-18T09:47:54.343Z</time></trkpt><trkpt lat="43.4109281" lon="10.9473917"><ele>418.79999999999995</ele><time>2026-04-18T09:47:55.344Z</time></trkpt><trkpt lat="43.4109475" lon="10.9472415"><ele>419.6</ele><time>2026-04-18T09:47:56.342Z</time></trkpt><trkpt lat="43.4109666" lon="10.947088"><ele>420.4</ele><time>2026-04-18T09:47:57.344Z</time></trkpt><trkpt lat="43.4109866" lon="10.9469356"><ele>421.20000000000005</ele><time>2026-04-18T09:47:58.343Z</time></trkpt><trkpt lat="43.4109993" lon="10.9467942"><ele>422.0</ele><time>2026-04-18T09:47:59.343Z</time></trkpt><trkpt lat="43.4110055" lon="10.9466626"><ele>422.8</ele><time>2026-04-18T09:48:00.344Z</time></trkpt><trkpt lat="43.4110101" lon="10.9465305"><ele>423.6</ele><time>2026-04-18T09:48:01.343Z</time></trkpt><trkpt lat="43.4110136" lon="10.9463986"><ele>424.40000000000003</ele><time>2026-04-18T09:48:02.343Z</time></trkpt><trkpt lat="43.4110198" lon="10.9462568"><ele>425.20000000000005</ele><time>2026-04-18T09:48:03.342Z</time></trkpt><trkpt lat="43.4110281" lon="10.9461199"><ele>426.0</ele><time>2026-04-18T09:48:04.344Z</time></trkpt><trkpt lat="43.4110319" lon="10.9459882"><ele>426.20000000000005</ele><time>2026-04-18T09:48:05.343Z</time></trkpt><trkpt lat="43.4110331" lon="10.9458553"><ele>426.40000000000003</ele><time>2026-04-18T09:48:06.344Z</time></trkpt><trkpt lat="43.4110314" lon="10.9457236"><ele>426.6</ele><time>2026-04-18T09:48:07.344Z</time></trkpt><trkpt lat="43.411028" lon="10.9455906"><ele>426.8</ele><time>2026-04-18T09:48:08.343Z</time></trkpt><trkpt lat="43.4110197" lon="10.9454617"><ele>427.0</ele><time>2026-04-18T09:48:09.343Z</time></trkpt><trkpt lat="43.4110068" lon="10.9453372"><ele>427.00000000000006</ele><time>2026-04-18T09:48:10.343Z</time></trkpt><trkpt lat="43.4109901" lon="10.9452246"><ele>427.0</ele><time>2026-04-18T09:48:11.343Z</time></trkpt><trkpt lat="43.4109732" lon="10.9451197"><ele>427.0</ele><time>2026-04-18T09:48:12.343Z</time></trkpt><trkpt lat="43.4109538" lon="10.9450105"><ele>427.0</ele><time>2026-04-18T09:48:13.342Z</time></trkpt><trkpt lat="43.4109411" lon="10.9449052"><ele>427.00000000000006</ele><time>2026-04-18T09:48:14.343Z</time></trkpt><trkpt lat="43.4109297" lon="10.9448018"><ele>427.0</ele><time>2026-04-18T09:48:15.345Z</time></trkpt><trkpt lat="43.4109156" lon="10.9446941"><ele>426.83333333333337</ele><time>2026-04-18T09:48:16.344Z</time></trkpt><trkpt lat="43.4109043" lon="10.9445799"><ele>426.6666666666667</ele><time>2026-04-18T09:48:17.342Z</time></trkpt><trkpt lat="43.4108959" lon="10.9444659"><ele>426.5</ele><time>2026-04-18T09:48:18.343Z</time></trkpt><trkpt lat="43.410892" lon="10.9443578"><ele>426.33333333333337</ele><time>2026-04-18T09:48:19.342Z</time></trkpt><trkpt lat="43.4108894" lon="10.9442497"><ele>426.1666666666667</ele><time>2026-04-18T09:48:20.343Z</time></trkpt><trkpt lat="43.4108803" lon="10.9441383"><ele>426.0</ele><time>2026-04-18T09:48:21.343Z</time></trkpt><trkpt lat="43.4108743" lon="10.9440291"><ele>425.5</ele><time>2026-04-18T09:48:22.343Z</time></trkpt><trkpt lat="43.4108708" lon="10.9439197"><ele>425.0</ele><time>2026-04-18T09:48:23.342Z</time></trkpt><trkpt lat="43.4108709" lon="10.9438116"><ele>424.5</ele><time>2026-04-18T09:48:24.344Z</time></trkpt><trkpt lat="43.4108681" lon="10.9437019"><ele>424.0</ele><time>2026-04-18T09:48:25.344Z</time></trkpt><trkpt lat="43.4108661" lon="10.943593"><ele>423.5</ele><time>2026-04-18T09:48:26.343Z</time></trkpt><trkpt lat="43.4108648" lon="10.9434826"><ele>423.0</ele><time>2026-04-18T09:48:27.343Z</time></trkpt><trkpt lat="43.4108664" lon="10.943367"><ele>423.0</ele><time>2026-04-18T09:48:28.343Z</time></trkpt><trkpt lat="43.4108648" lon="10.9432416"><ele>423.0</ele><time>2026-04-18T09:48:29.343Z</time></trkpt><trkpt lat="43.4108588" lon="10.9431097"><ele>423.0</ele><time>2026-04-18T09:48:30.342Z</time></trkpt><trkpt lat="43.4108486" lon="10.9429755"><ele>423.0</ele><time>2026-04-18T09:48:31.343Z</time></trkpt><trkpt lat="43.4108317" lon="10.9428445"><ele>423.0</ele><time>2026-04-18T09:48:32.344Z</time></trkpt><trkpt lat="43.4108101" lon="10.9427071"><ele>423.0</ele><time>2026-04-18T09:48:33.343Z</time></trkpt><trkpt lat="43.410785" lon="10.94257"><ele>423.0</ele><time>2026-04-18T09:48:34.344Z</time></trkpt><trkpt lat="43.410759" lon="10.9424352"><ele>423.0</ele><time>2026-04-18T09:48:35.344Z</time></trkpt><trkpt lat="43.4107197" lon="10.9423112"><ele>423.0</ele><time>2026-04-18T09:48:36.343Z</time></trkpt><trkpt lat="43.410675" lon="10.9421929"><ele>423.0</ele><time>2026-04-18T09:48:37.343Z</time></trkpt><trkpt lat="43.4106269" lon="10.9420779"><ele>422.0</ele><time>2026-04-18T09:48:38.343Z</time></trkpt><trkpt lat="43.4105824" lon="10.9419579"><ele>421.0</ele><time>2026-04-18T09:48:39.343Z</time></trkpt><trkpt lat="43.410541" lon="10.9418345"><ele>420.0</ele><time>2026-04-18T09:48:40.344Z</time></trkpt><trkpt lat="43.4104963" lon="10.9417019"><ele>419.0</ele><time>2026-04-18T09:48:41.342Z</time></trkpt><trkpt lat="43.4104601" lon="10.9415629"><ele>418.0</ele><time>2026-04-18T09:48:42.344Z</time></trkpt><trkpt lat="43.4104245" lon="10.9414304"><ele>415.4</ele><time>2026-04-18T09:48:43.343Z</time></trkpt><trkpt lat="43.4103933" lon="10.9413066"><ele>412.79999999999995</ele><time>2026-04-18T09:48:44.343Z</time></trkpt><trkpt lat="43.4103676" lon="10.9411955"><ele>410.2</ele><time>2026-04-18T09:48:45.344Z</time></trkpt><trkpt lat="43.4103403" lon="10.941099"><ele>407.6</ele><time>2026-04-18T09:48:46.343Z</time></trkpt><trkpt lat="43.4102888" lon="10.9409525"><ele>405.0</ele><time>2026-04-18T09:48:48.342Z</time></trkpt><trkpt lat="43.4102688" lon="10.9408312"><ele>404.6666666666667</ele><time>2026-04-18T09:48:50.343Z</time></trkpt><trkpt lat="43.4103057" lon="10.9407229"><ele>404.33333333333337</ele><time>2026-04-18T09:48:52.344Z</time></trkpt><trkpt lat="43.4103863" lon="10.9406516"><ele>404.0</ele><time>2026-04-18T09:48:54.342Z</time></trkpt><trkpt lat="43.4105021" lon="10.9406081"><ele>403.6666666666667</ele><time>2026-04-18T09:48:56.344Z</time></trkpt><trkpt lat="43.410567" lon="10.940581"><ele>403.33333333333337</ele><time>2026-04-18T09:48:57.343Z</time></trkpt><trkpt lat="43.4106216" lon="10.9405254"><ele>403.0</ele><time>2026-04-18T09:48:58.343Z</time></trkpt><trkpt lat="43.4106601" lon="10.9404558"><ele>403.0</ele><time>2026-04-18T09:48:59.344Z</time></trkpt><trkpt lat="43.4106839" lon="10.9403693"><ele>403.0</ele><time>2026-04-18T09:49:00.343Z</time></trkpt><trkpt lat="43.4106977" lon="10.9402662"><ele>403.0</ele><time>2026-04-18T09:49:01.342Z</time></trkpt><trkpt lat="43.4106945" lon="10.9401394"><ele>403.0</ele><time>2026-04-18T09:49:02.344Z</time></trkpt><trkpt lat="43.4106787" lon="10.9399952"><ele>403.0</ele><time>2026-04-18T09:49:03.342Z</time></trkpt><trkpt lat="43.4106656" lon="10.9398388"><ele>401.79999999999995</ele><time>2026-04-18T09:49:04.342Z</time></trkpt><trkpt lat="43.410654" lon="10.9396711"><ele>400.6</ele><time>2026-04-18T09:49:05.342Z</time></trkpt><trkpt lat="43.4106494" lon="10.9395195"><ele>399.4</ele><time>2026-04-18T09:49:06.342Z</time></trkpt><trkpt lat="43.4106431" lon="10.93938"><ele>398.20000000000005</ele><time>2026-04-18T09:49:07.344Z</time></trkpt><trkpt lat="43.4106409" lon="10.9392493"><ele>397.0</ele><time>2026-04-18T09:49:08.343Z</time></trkpt><trkpt lat="43.4106474" lon="10.9391231"><ele>396.1666666666667</ele><time>2026-04-18T09:49:09.341Z</time></trkpt><trkpt lat="43.4106594" lon="10.9390091"><ele>395.33333333333337</ele><time>2026-04-18T09:49:10.342Z</time></trkpt><trkpt lat="43.4106608" lon="10.9388999"><ele>394.5</ele><time>2026-04-18T09:49:11.342Z</time></trkpt><trkpt lat="43.410647" lon="10.9387893"><ele>393.66666666666663</ele><time>2026-04-18T09:49:12.343Z</time></trkpt><trkpt lat="43.4106192" lon="10.9386724"><ele>392.8333333333333</ele><time>2026-04-18T09:49:13.343Z</time></trkpt><trkpt lat="43.4105789" lon="10.938554"><ele>392.0</ele><time>2026-04-18T09:49:14.343Z</time></trkpt><trkpt lat="43.4105392" lon="10.938435"><ele>391.16666666666663</ele><time>2026-04-18T09:49:15.342Z</time></trkpt><trkpt lat="43.4105033" lon="10.9383241"><ele>390.3333333333333</ele><time>2026-04-18T09:49:16.342Z</time></trkpt><trkpt lat="43.4104685" lon="10.9382299"><ele>389.5</ele><time>2026-04-18T09:49:17.343Z</time></trkpt><trkpt lat="43.4103766" lon="10.9381018"><ele>388.66666666666663</ele><time>2026-04-18T09:49:19.342Z</time></trkpt><trkpt lat="43.4103187" lon="10.9380515"><ele>387.8333333333333</ele><time>2026-04-18T09:49:20.343Z</time></trkpt><trkpt lat="43.4102453" lon="10.9380241"><ele>387.0</ele><time>2026-04-18T09:49:21.343Z</time></trkpt><trkpt lat="43.4101621" lon="10.9380072"><ele>387.0</ele><time>2026-04-18T09:49:22.342Z</time></trkpt><trkpt lat="43.4100851" lon="10.9379801"><ele>387.0</ele><time>2026-04-18T09:49:23.343Z</time></trkpt><trkpt lat="43.4100126" lon="10.93795"><ele>387.0</ele><time>2026-04-18T09:49:24.343Z</time></trkpt><trkpt lat="43.4099429" lon="10.9379169"><ele>387.0</ele><time>2026-04-18T09:49:25.342Z</time></trkpt><trkpt lat="43.4098784" lon="10.9378767"><ele>387.0</ele><time>2026-04-18T09:49:26.343Z</time></trkpt><trkpt lat="43.4097945" lon="10.9377587"><ele>387.0</ele><time>2026-04-18T09:49:28.342Z</time></trkpt><trkpt lat="43.4097855" lon="10.9375729"><ele>386.3333333333333</ele><time>2026-04-18T09:49:30.343Z</time></trkpt><trkpt lat="43.4097902" lon="10.9374464"><ele>385.6666666666667</ele><time>2026-04-18T09:49:31.351Z</time></trkpt><trkpt lat="43.4097863" lon="10.9373172"><ele>385.0</ele><time>2026-04-18T09:49:32.343Z</time></trkpt><trkpt lat="43.4097855" lon="10.9371917"><ele>384.33333333333337</ele><time>2026-04-18T09:49:33.342Z</time></trkpt><trkpt lat="43.4097827" lon="10.9370753"><ele>383.6666666666667</ele><time>2026-04-18T09:49:34.342Z</time></trkpt><trkpt lat="43.409784" lon="10.936966"><ele>383.0</ele><time>2026-04-18T09:49:35.342Z</time></trkpt><trkpt lat="43.4097949" lon="10.9368672"><ele>383.0</ele><time>2026-04-18T09:49:36.342Z</time></trkpt><trkpt lat="43.4098079" lon="10.9367761"><ele>383.0</ele><time>2026-04-18T09:49:37.342Z</time></trkpt><trkpt lat="43.4098332" lon="10.9366196"><ele>383.0</ele><time>2026-04-18T09:49:39.343Z</time></trkpt><trkpt lat="43.4098343" lon="10.9364748"><ele>383.0</ele><time>2026-04-18T09:49:41.342Z</time></trkpt><trkpt lat="43.4097923" lon="10.9363448"><ele>383.0</ele><time>2026-04-18T09:49:43.342Z</time></trkpt><trkpt lat="43.4097181" lon="10.9362126"><ele>381.83333333333337</ele><time>2026-04-18T09:49:45.343Z</time></trkpt><trkpt lat="43.4096628" lon="10.9361451"><ele>380.6666666666667</ele><time>2026-04-18T09:49:46.343Z</time></trkpt><trkpt lat="43.4095963" lon="10.9360768"><ele>379.5</ele><time>2026-04-18T09:49:47.344Z</time></trkpt><trkpt lat="43.4095268" lon="10.9360143"><ele>378.3333333333333</ele><time>2026-04-18T09:49:48.343Z</time></trkpt><trkpt lat="43.4094603" lon="10.9359502"><ele>377.16666666666663</ele><time>2026-04-18T09:49:49.342Z</time></trkpt><trkpt lat="43.4093967" lon="10.9358828"><ele>376.0</ele><time>2026-04-18T09:49:50.343Z</time></trkpt><trkpt lat="43.4093278" lon="10.9358155"><ele>375.6</ele><time>2026-04-18T09:49:51.343Z</time></trkpt><trkpt lat="43.4092544" lon="10.9357493"><ele>375.20000000000005</ele><time>2026-04-18T09:49:52.342Z</time></trkpt><trkpt lat="43.409184" lon="10.9356812"><ele>374.79999999999995</ele><time>2026-04-18T09:49:53.343Z</time></trkpt><trkpt lat="43.4091121" lon="10.9355971"><ele>374.4</ele><time>2026-04-18T09:49:54.342Z</time></trkpt><trkpt lat="43.409035" lon="10.9355199"><ele>374.0</ele><time>2026-04-18T09:49:55.345Z</time></trkpt><trkpt lat="43.4089581" lon="10.9354478"><ele>374.0</ele><time>2026-04-18T09:49:56.343Z</time></trkpt><trkpt lat="43.4088842" lon="10.9353794"><ele>374.0</ele><time>2026-04-18T09:49:57.343Z</time></trkpt><trkpt lat="43.408823" lon="10.935306"><ele>374.0</ele><time>2026-04-18T09:49:58.342Z</time></trkpt><trkpt lat="43.4087768" lon="10.9352146"><ele>374.0</ele><time>2026-04-18T09:49:59.342Z</time></trkpt><trkpt lat="43.4087403" lon="10.9350932"><ele>374.0</ele><time>2026-04-18T09:50:00.343Z</time></trkpt><trkpt lat="43.4087061" lon="10.9349564"><ele>372.25</ele><time>2026-04-18T09:50:01.341Z</time></trkpt><trkpt lat="43.4086785" lon="10.934811"><ele>370.5</ele><time>2026-04-18T09:50:02.343Z</time></trkpt><trkpt lat="43.4086543" lon="10.9346587"><ele>368.75</ele><time>2026-04-18T09:50:03.345Z</time></trkpt><trkpt lat="43.4086321" lon="10.9344916"><ele>367.0</ele><time>2026-04-18T09:50:04.344Z</time></trkpt><trkpt lat="43.4086141" lon="10.9343102"><ele>367.0</ele><time>2026-04-18T09:50:05.342Z</time></trkpt><trkpt lat="43.4085934" lon="10.9341252"><ele>367.0</ele><time>2026-04-18T09:50:06.343Z</time></trkpt><trkpt lat="43.4085732" lon="10.9339278"><ele>367.0</ele><time>2026-04-18T09:50:07.343Z</time></trkpt><trkpt lat="43.4085499" lon="10.9337331"><ele>367.0</ele><time>2026-04-18T09:50:08.342Z</time></trkpt><trkpt lat="43.4085222" lon="10.9335228"><ele>367.0</ele><time>2026-04-18T09:50:09.343Z</time></trkpt><trkpt lat="43.4084951" lon="10.9333264"><ele>367.0</ele><time>2026-04-18T09:50:10.341Z</time></trkpt><trkpt lat="43.4084673" lon="10.9331474"><ele>367.0</ele><time>2026-04-18T09:50:11.343Z</time></trkpt><trkpt lat="43.4084292" lon="10.932977"><ele>367.0</ele><time>2026-04-18T09:50:12.344Z</time></trkpt><trkpt lat="43.4083792" lon="10.9328164"><ele>367.0</ele><time>2026-04-18T09:50:13.342Z</time></trkpt><trkpt lat="43.4083192" lon="10.9326544"><ele>367.0</ele><time>2026-04-18T09:50:14.342Z</time></trkpt><trkpt lat="43.4082542" lon="10.9324936"><ele>367.0</ele><time>2026-04-18T09:50:15.345Z</time></trkpt><trkpt lat="43.4081887" lon="10.9323438"><ele>367.0</ele><time>2026-04-18T09:50:16.342Z</time></trkpt><trkpt lat="43.408131" lon="10.9322017"><ele>366.75</ele><time>2026-04-18T09:50:17.343Z</time></trkpt><trkpt lat="43.4080795" lon="10.9320673"><ele>366.5</ele><time>2026-04-18T09:50:18.344Z</time></trkpt><trkpt lat="43.4080403" lon="10.9319226"><ele>366.25</ele><time>2026-04-18T09:50:19.342Z</time></trkpt><trkpt lat="43.4080054" lon="10.9317747"><ele>366.0</ele><time>2026-04-18T09:50:20.343Z</time></trkpt><trkpt lat="43.407955" lon="10.9316302"><ele>366.0</ele><time>2026-04-18T09:50:21.347Z</time></trkpt><trkpt lat="43.4078945" lon="10.9314907"><ele>366.0</ele><time>2026-04-18T09:50:22.342Z</time></trkpt><trkpt lat="43.4078343" lon="10.9313647"><ele>366.0</ele><time>2026-04-18T09:50:23.343Z</time></trkpt><trkpt lat="43.4077727" lon="10.9312559"><ele>366.0</ele><time>2026-04-18T09:50:24.342Z</time></trkpt><trkpt lat="43.4077186" lon="10.9311574"><ele>366.0</ele><time>2026-04-18T09:50:25.343Z</time></trkpt><trkpt lat="43.4076732" lon="10.9310632"><ele>366.0</ele><time>2026-04-18T09:50:26.344Z</time></trkpt><trkpt lat="43.407636" lon="10.9309694"><ele>366.0</ele><time>2026-04-18T09:50:27.343Z</time></trkpt><trkpt lat="43.4075895" lon="10.930874"><ele>366.0</ele><time>2026-04-18T09:50:28.343Z</time></trkpt><trkpt lat="43.4075375" lon="10.9307719"><ele>366.0</ele><time>2026-04-18T09:50:29.347Z</time></trkpt><trkpt lat="43.4074853" lon="10.9306683"><ele>366.0</ele><time>2026-04-18T09:50:30.343Z</time></trkpt><trkpt lat="43.4074363" lon="10.9305738"><ele>366.0</ele><time>2026-04-18T09:50:31.342Z</time></trkpt><trkpt lat="43.4073998" lon="10.9304981"><ele>367.25</ele><time>2026-04-18T09:50:32.342Z</time></trkpt><trkpt lat="43.4073632" lon="10.9303383"><ele>368.5</ele><time>2026-04-18T09:50:34.343Z</time></trkpt><trkpt lat="43.4073651" lon="10.9301619"><ele>369.75</ele><time>2026-04-18T09:50:36.342Z</time></trkpt><trkpt lat="43.4073657" lon="10.9300379"><ele>371.0</ele><time>2026-04-18T09:50:37.343Z</time></trkpt><trkpt lat="43.4073701" lon="10.9298828"><ele>371.0</ele><time>2026-04-18T09:50:38.342Z</time></trkpt><trkpt lat="43.4073697" lon="10.9297274"><ele>371.0</ele><time>2026-04-18T09:50:39.343Z</time></trkpt><trkpt lat="43.4073694" lon="10.9295743"><ele>371.0</ele><time>2026-04-18T09:50:40.342Z</time></trkpt><trkpt lat="43.4073724" lon="10.9294195"><ele>371.0</ele><time>2026-04-18T09:50:41.342Z</time></trkpt><trkpt lat="43.407374" lon="10.9292554"><ele>370.5</ele><time>2026-04-18T09:50:42.344Z</time></trkpt><trkpt lat="43.4073768" lon="10.9290962"><ele>370.0</ele><time>2026-04-18T09:50:43.342Z</time></trkpt><trkpt lat="43.4073704" lon="10.9289419"><ele>369.5</ele><time>2026-04-18T09:50:44.342Z</time></trkpt><trkpt lat="43.4073559" lon="10.9287836"><ele>369.0</ele><time>2026-04-18T09:50:45.346Z</time></trkpt><trkpt lat="43.4073311" lon="10.9286339"><ele>369.0</ele><time>2026-04-18T09:50:46.343Z</time></trkpt><trkpt lat="43.4072992" lon="10.9284993"><ele>369.0</ele><time>2026-04-18T09:50:47.343Z</time></trkpt><trkpt lat="43.4072506" lon="10.9283794"><ele>369.0</ele><time>2026-04-18T09:50:48.343Z</time></trkpt><trkpt lat="43.4071902" lon="10.9282664"><ele>369.0</ele><time>2026-04-18T09:50:49.343Z</time></trkpt><trkpt lat="43.4071231" lon="10.9281596"><ele>369.0</ele><time>2026-04-18T09:50:50.343Z</time></trkpt><trkpt lat="43.407048" lon="10.9280627"><ele>368.4</ele><time>2026-04-18T09:50:51.343Z</time></trkpt><trkpt lat="43.406966" lon="10.9279729"><ele>367.79999999999995</ele><time>2026-04-18T09:50:52.344Z</time></trkpt><trkpt lat="43.4068922" lon="10.9278862"><ele>367.20000000000005</ele><time>2026-04-18T09:50:53.343Z</time></trkpt><trkpt lat="43.406826" lon="10.9278046"><ele>366.6</ele><time>2026-04-18T09:50:54.344Z</time></trkpt><trkpt lat="43.4067629" lon="10.9277276"><ele>366.0</ele><time>2026-04-18T09:50:55.344Z</time></trkpt><trkpt lat="43.4067032" lon="10.927646"><ele>368.0</ele><time>2026-04-18T09:50:56.344Z</time></trkpt><trkpt lat="43.4066561" lon="10.9275469"><ele>370.0</ele><time>2026-04-18T09:50:57.343Z</time></trkpt><trkpt lat="43.4066133" lon="10.9274222"><ele>372.0</ele><time>2026-04-18T09:50:58.343Z</time></trkpt><trkpt lat="43.4065721" lon="10.9272714"><ele>374.0</ele><time>2026-04-18T09:50:59.343Z</time></trkpt><trkpt lat="43.4065275" lon="10.9271127"><ele>376.0</ele><time>2026-04-18T09:51:00.344Z</time></trkpt><trkpt lat="43.4064694" lon="10.926947"><ele>376.0</ele><time>2026-04-18T09:51:01.343Z</time></trkpt><trkpt lat="43.4064009" lon="10.9267891"><ele>376.0</ele><time>2026-04-18T09:51:02.344Z</time></trkpt><trkpt lat="43.4063215" lon="10.9266433"><ele>376.0</ele><time>2026-04-18T09:51:03.346Z</time></trkpt><trkpt lat="43.4062329" lon="10.9265153"><ele>376.0</ele><time>2026-04-18T09:51:04.342Z</time></trkpt><trkpt lat="43.4061432" lon="10.9263952"><ele>376.5</ele><time>2026-04-18T09:51:05.343Z</time></trkpt><trkpt lat="43.4060536" lon="10.9262831"><ele>377.0</ele><time>2026-04-18T09:51:06.344Z</time></trkpt><trkpt lat="43.4059605" lon="10.9261769"><ele>377.5</ele><time>2026-04-18T09:51:07.342Z</time></trkpt><trkpt lat="43.4058704" lon="10.9260702"><ele>378.0</ele><time>2026-04-18T09:51:08.346Z</time></trkpt><trkpt lat="43.4057819" lon="10.9259623"><ele>378.5</ele><time>2026-04-18T09:51:09.343Z</time></trkpt><trkpt lat="43.405692" lon="10.9258518"><ele>379.0</ele><time>2026-04-18T09:51:10.342Z</time></trkpt><trkpt lat="43.4055972" lon="10.925734"><ele>379.5</ele><time>2026-04-18T09:51:11.345Z</time></trkpt><trkpt lat="43.4054944" lon="10.9256079"><ele>380.0</ele><time>2026-04-18T09:51:12.343Z</time></trkpt><trkpt lat="43.4053923" lon="10.9254696"><ele>378.33333333333337</ele><time>2026-04-18T09:51:13.344Z</time></trkpt><trkpt lat="43.405284" lon="10.9253294"><ele>376.6666666666667</ele><time>2026-04-18T09:51:14.343Z</time></trkpt><trkpt lat="43.405169" lon="10.925191"><ele>375.0</ele><time>2026-04-18T09:51:15.343Z</time></trkpt><trkpt lat="43.4050475" lon="10.9250644"><ele>375.3333333333333</ele><time>2026-04-18T09:51:16.342Z</time></trkpt><trkpt lat="43.4049177" lon="10.9249477"><ele>375.66666666666663</ele><time>2026-04-18T09:51:17.343Z</time></trkpt><trkpt lat="43.4047853" lon="10.9248279"><ele>376.0</ele><time>2026-04-18T09:51:18.342Z</time></trkpt><trkpt lat="43.4046532" lon="10.9247071"><ele>376.0</ele><time>2026-04-18T09:51:19.343Z</time></trkpt><trkpt lat="43.4045216" lon="10.9245828"><ele>376.0</ele><time>2026-04-18T09:51:20.344Z</time></trkpt><trkpt lat="43.4043884" lon="10.9244515"><ele>376.0</ele><time>2026-04-18T09:51:21.344Z</time></trkpt><trkpt lat="43.4042564" lon="10.9243162"><ele>377.3333333333333</ele><time>2026-04-18T09:51:22.343Z</time></trkpt><trkpt lat="43.4041292" lon="10.92418"><ele>378.6666666666667</ele><time>2026-04-18T09:51:23.342Z</time></trkpt><trkpt lat="43.4040053" lon="10.9240505"><ele>380.0</ele><time>2026-04-18T09:51:24.343Z</time></trkpt><trkpt lat="43.4038936" lon="10.9239244"><ele>378.25</ele><time>2026-04-18T09:51:25.343Z</time></trkpt><trkpt lat="43.403795" lon="10.9238"><ele>376.5</ele><time>2026-04-18T09:51:26.344Z</time></trkpt><trkpt lat="43.4037052" lon="10.9236783"><ele>374.75</ele><time>2026-04-18T09:51:27.343Z</time></trkpt><trkpt lat="43.4036222" lon="10.9235508"><ele>373.0</ele><time>2026-04-18T09:51:28.343Z</time></trkpt><trkpt lat="43.4035503" lon="10.9234051"><ele>375.0</ele><time>2026-04-18T09:51:29.342Z</time></trkpt><trkpt lat="43.403496" lon="10.9232431"><ele>377.0</ele><time>2026-04-18T09:51:30.343Z</time></trkpt><trkpt lat="43.4034539" lon="10.9230648"><ele>379.0</ele><time>2026-04-18T09:51:31.343Z</time></trkpt><trkpt lat="43.403413" lon="10.9228807"><ele>381.0</ele><time>2026-04-18T09:51:32.342Z</time></trkpt><trkpt lat="43.4033668" lon="10.9226953"><ele>379.75</ele><time>2026-04-18T09:51:33.344Z</time></trkpt><trkpt lat="43.4033196" lon="10.9225127"><ele>378.5</ele><time>2026-04-18T09:51:34.342Z</time></trkpt><trkpt lat="43.4032711" lon="10.9223407"><ele>377.25</ele><time>2026-04-18T09:51:35.342Z</time></trkpt><trkpt lat="43.4032226" lon="10.9221729"><ele>376.0</ele><time>2026-04-18T09:51:36.342Z</time></trkpt><trkpt lat="43.4031792" lon="10.9220128"><ele>376.0</ele><time>2026-04-18T09:51:37.343Z</time></trkpt><trkpt lat="43.4031435" lon="10.9218549"><ele>376.0</ele><time>2026-04-18T09:51:38.342Z</time></trkpt><trkpt lat="43.4031125" lon="10.9217011"><ele>376.0</ele><time>2026-04-18T09:51:39.343Z</time></trkpt><trkpt lat="43.4030842" lon="10.9215606"><ele>376.0</ele><time>2026-04-18T09:51:40.344Z</time></trkpt><trkpt lat="43.4030625" lon="10.921431"><ele>376.0</ele><time>2026-04-18T09:51:41.344Z</time></trkpt><trkpt lat="43.4030469" lon="10.9213105"><ele>375.20000000000005</ele><time>2026-04-18T09:51:42.342Z</time></trkpt><trkpt lat="43.4030457" lon="10.9211842"><ele>374.40000000000003</ele><time>2026-04-18T09:51:43.344Z</time></trkpt><trkpt lat="43.4030648" lon="10.9210496"><ele>373.6</ele><time>2026-04-18T09:51:44.343Z</time></trkpt><trkpt lat="43.4030912" lon="10.9209165"><ele>372.8</ele><time>2026-04-18T09:51:45.343Z</time></trkpt><trkpt lat="43.4031293" lon="10.9207855"><ele>372.0</ele><time>2026-04-18T09:51:46.342Z</time></trkpt><trkpt lat="43.4031805" lon="10.9206495"><ele>371.0</ele><time>2026-04-18T09:51:47.342Z</time></trkpt><trkpt lat="43.4032391" lon="10.9205077"><ele>370.0</ele><time>2026-04-18T09:51:48.342Z</time></trkpt><trkpt lat="43.4032924" lon="10.9203716"><ele>369.0</ele><time>2026-04-18T09:51:49.342Z</time></trkpt><trkpt lat="43.4033471" lon="10.9202379"><ele>368.0</ele><time>2026-04-18T09:51:50.344Z</time></trkpt><trkpt lat="43.4033995" lon="10.9201082"><ele>367.5</ele><time>2026-04-18T09:51:51.343Z</time></trkpt><trkpt lat="43.4034504" lon="10.9199706"><ele>367.0</ele><time>2026-04-18T09:51:52.342Z</time></trkpt><trkpt lat="43.4034994" lon="10.9198241"><ele>366.5</ele><time>2026-04-18T09:51:53.344Z</time></trkpt><trkpt lat="43.4035512" lon="10.9196635"><ele>366.0</ele><time>2026-04-18T09:51:54.343Z</time></trkpt><trkpt lat="43.4036012" lon="10.9194948"><ele>366.0</ele><time>2026-04-18T09:51:55.343Z</time></trkpt><trkpt lat="43.4036477" lon="10.9193258"><ele>366.0</ele><time>2026-04-18T09:51:56.343Z</time></trkpt><trkpt lat="43.4036894" lon="10.9191604"><ele>366.0</ele><time>2026-04-18T09:51:57.343Z</time></trkpt><trkpt lat="43.4037252" lon="10.9189936"><ele>366.0</ele><time>2026-04-18T09:51:58.342Z</time></trkpt><trkpt lat="43.4037522" lon="10.9188328"><ele>365.20000000000005</ele><time>2026-04-18T09:51:59.345Z</time></trkpt><trkpt lat="43.4037689" lon="10.918678"><ele>364.40000000000003</ele><time>2026-04-18T09:52:00.343Z</time></trkpt><trkpt lat="43.4037745" lon="10.9185289"><ele>363.6</ele><time>2026-04-18T09:52:01.346Z</time></trkpt><trkpt lat="43.4037648" lon="10.9183936"><ele>362.8</ele><time>2026-04-18T09:52:02.347Z</time></trkpt><trkpt lat="43.4037461" lon="10.9182735"><ele>362.0</ele><time>2026-04-18T09:52:03.344Z</time></trkpt><trkpt lat="43.4037194" lon="10.918161"><ele>360.8</ele><time>2026-04-18T09:52:04.343Z</time></trkpt><trkpt lat="43.4036799" lon="10.9180499"><ele>359.6</ele><time>2026-04-18T09:52:05.343Z</time></trkpt><trkpt lat="43.4036251" lon="10.9179339"><ele>358.40000000000003</ele><time>2026-04-18T09:52:06.343Z</time></trkpt><trkpt lat="43.4035611" lon="10.9178108"><ele>357.20000000000005</ele><time>2026-04-18T09:52:07.343Z</time></trkpt><trkpt lat="43.4034955" lon="10.917688"><ele>356.0</ele><time>2026-04-18T09:52:08.342Z</time></trkpt><trkpt lat="43.4034421" lon="10.9175636"><ele>354.6</ele><time>2026-04-18T09:52:09.344Z</time></trkpt><trkpt lat="43.4034018" lon="10.917434"><ele>353.20000000000005</ele><time>2026-04-18T09:52:10.343Z</time></trkpt><trkpt lat="43.4033694" lon="10.9173051"><ele>351.79999999999995</ele><time>2026-04-18T09:52:11.341Z</time></trkpt><trkpt lat="43.4033478" lon="10.9171828"><ele>350.4</ele><time>2026-04-18T09:52:12.344Z</time></trkpt><trkpt lat="43.4033288" lon="10.9170709"><ele>349.0</ele><time>2026-04-18T09:52:13.346Z</time></trkpt><trkpt lat="43.4033017" lon="10.9169683"><ele>349.0</ele><time>2026-04-18T09:52:14.343Z</time></trkpt><trkpt lat="43.4032689" lon="10.9168673"><ele>349.0</ele><time>2026-04-18T09:52:15.346Z</time></trkpt><trkpt lat="43.4032246" lon="10.9167625"><ele>349.0</ele><time>2026-04-18T09:52:16.343Z</time></trkpt><trkpt lat="43.4031697" lon="10.9166625"><ele>349.0</ele><time>2026-04-18T09:52:17.342Z</time></trkpt><trkpt lat="43.4030935" lon="10.9165727"><ele>349.0</ele><time>2026-04-18T09:52:18.342Z</time></trkpt><trkpt lat="43.4030099" lon="10.9164809"><ele>348.79999999999995</ele><time>2026-04-18T09:52:19.342Z</time></trkpt><trkpt lat="43.4029225" lon="10.9163892"><ele>348.59999999999997</ele><time>2026-04-18T09:52:20.344Z</time></trkpt><trkpt lat="43.402834" lon="10.916295"><ele>348.4</ele><time>2026-04-18T09:52:21.346Z</time></trkpt><trkpt lat="43.4027497" lon="10.916206"><ele>348.2</ele><time>2026-04-18T09:52:22.343Z</time></trkpt><trkpt lat="43.4026679" lon="10.9161208"><ele>348.0</ele><time>2026-04-18T09:52:23.344Z</time></trkpt><trkpt lat="43.4025899" lon="10.9160399"><ele>348.0</ele><time>2026-04-18T09:52:24.343Z</time></trkpt><trkpt lat="43.4025119" lon="10.9159651"><ele>348.0</ele><time>2026-04-18T09:52:25.343Z</time></trkpt><trkpt lat="43.4024352" lon="10.9158954"><ele>348.0</ele><time>2026-04-18T09:52:26.343Z</time></trkpt><trkpt lat="43.4023719" lon="10.9158342"><ele>348.0</ele><time>2026-04-18T09:52:27.343Z</time></trkpt><trkpt lat="43.4023154" lon="10.9157816"><ele>348.0</ele><time>2026-04-18T09:52:28.343Z</time></trkpt><trkpt lat="43.4022305" lon="10.9156952"><ele>348.0</ele><time>2026-04-18T09:52:30.343Z</time></trkpt><trkpt lat="43.4021885" lon="10.9156055"><ele>346.3333333333333</ele><time>2026-04-18T09:52:32.342Z</time></trkpt><trkpt lat="43.4022241" lon="10.9154985"><ele>344.6666666666667</ele><time>2026-04-18T09:52:34.342Z</time></trkpt><trkpt lat="43.4022844" lon="10.9154548"><ele>343.0</ele><time>2026-04-18T09:52:35.343Z</time></trkpt><trkpt lat="43.4023668" lon="10.9154166"><ele>341.33333333333337</ele><time>2026-04-18T09:52:36.343Z</time></trkpt><trkpt lat="43.4024561" lon="10.9153803"><ele>339.6666666666667</ele><time>2026-04-18T09:52:37.351Z</time></trkpt><trkpt lat="43.4025335" lon="10.915339"><ele>338.0</ele><time>2026-04-18T09:52:38.343Z</time></trkpt><trkpt lat="43.4025993" lon="10.9152835"><ele>338.0</ele><time>2026-04-18T09:52:39.345Z</time></trkpt><trkpt lat="43.4026614" lon="10.9152072"><ele>338.0</ele><time>2026-04-18T09:52:40.342Z</time></trkpt><trkpt lat="43.4027159" lon="10.9151049"><ele>338.0</ele><time>2026-04-18T09:52:41.345Z</time></trkpt><trkpt lat="43.4027583" lon="10.9149609"><ele>338.0</ele><time>2026-04-18T09:52:42.345Z</time></trkpt><trkpt lat="43.4027937" lon="10.9147949"><ele>338.0</ele><time>2026-04-18T09:52:43.345Z</time></trkpt><trkpt lat="43.4028311" lon="10.914619"><ele>334.6666666666667</ele><time>2026-04-18T09:52:44.345Z</time></trkpt><trkpt lat="43.4028726" lon="10.9144256"><ele>331.3333333333333</ele><time>2026-04-18T09:52:45.344Z</time></trkpt><trkpt lat="43.4029111" lon="10.9142261"><ele>328.0</ele><time>2026-04-18T09:52:46.342Z</time></trkpt><trkpt lat="43.4029507" lon="10.9140106"><ele>326.0</ele><time>2026-04-18T09:52:47.341Z</time></trkpt><trkpt lat="43.4029849" lon="10.9137821"><ele>324.0</ele><time>2026-04-18T09:52:48.343Z</time></trkpt><trkpt lat="43.403004" lon="10.9135522"><ele>322.0</ele><time>2026-04-18T09:52:49.342Z</time></trkpt><trkpt lat="43.4030137" lon="10.9133224"><ele>321.3333333333333</ele><time>2026-04-18T09:52:50.342Z</time></trkpt><trkpt lat="43.4030082" lon="10.9130924"><ele>320.6666666666667</ele><time>2026-04-18T09:52:51.342Z</time></trkpt><trkpt lat="43.4029925" lon="10.9128644"><ele>320.0</ele><time>2026-04-18T09:52:52.342Z</time></trkpt><trkpt lat="43.4029689" lon="10.9126349"><ele>321.0</ele><time>2026-04-18T09:52:53.343Z</time></trkpt><trkpt lat="43.4029432" lon="10.9124048"><ele>322.0</ele><time>2026-04-18T09:52:54.341Z</time></trkpt><trkpt lat="43.4029209" lon="10.9121736"><ele>323.0</ele><time>2026-04-18T09:52:55.342Z</time></trkpt><trkpt lat="43.4028986" lon="10.9119404"><ele>325.0</ele><time>2026-04-18T09:52:56.342Z</time></trkpt><trkpt lat="43.4028735" lon="10.9117096"><ele>327.0</ele><time>2026-04-18T09:52:57.343Z</time></trkpt><trkpt lat="43.402844" lon="10.9114878"><ele>329.0</ele><time>2026-04-18T09:52:58.341Z</time></trkpt><trkpt lat="43.4028174" lon="10.9112745"><ele>329.0</ele><time>2026-04-18T09:52:59.343Z</time></trkpt><trkpt lat="43.4027933" lon="10.9110695"><ele>329.0</ele><time>2026-04-18T09:53:00.342Z</time></trkpt><trkpt lat="43.4027653" lon="10.9108716"><ele>329.0</ele><time>2026-04-18T09:53:01.345Z</time></trkpt><trkpt lat="43.402732" lon="10.9106823"><ele>329.0</ele><time>2026-04-18T09:53:02.341Z</time></trkpt><trkpt lat="43.4026909" lon="10.9105105"><ele>330.5</ele><time>2026-04-18T09:53:03.342Z</time></trkpt><trkpt lat="43.4026382" lon="10.9103531"><ele>332.0</ele><time>2026-04-18T09:53:04.342Z</time></trkpt><trkpt lat="43.4025786" lon="10.9101898"><ele>333.5</ele><time>2026-04-18T09:53:05.342Z</time></trkpt><trkpt lat="43.4025154" lon="10.9100291"><ele>335.0</ele><time>2026-04-18T09:53:06.342Z</time></trkpt><trkpt lat="43.4024547" lon="10.909863"><ele>337.0</ele><time>2026-04-18T09:53:07.342Z</time></trkpt><trkpt lat="43.4023909" lon="10.9096941"><ele>339.0</ele><time>2026-04-18T09:53:08.35Z</time></trkpt><trkpt lat="43.4023239" lon="10.9095258"><ele>341.0</ele><time>2026-04-18T09:53:09.344Z</time></trkpt><trkpt lat="43.4022598" lon="10.9093499"><ele>343.0</ele><time>2026-04-18T09:53:10.345Z</time></trkpt><trkpt lat="43.402195" lon="10.909182"><ele>343.59999999999997</ele><time>2026-04-18T09:53:11.342Z</time></trkpt><trkpt lat="43.4021339" lon="10.9090266"><ele>344.2</ele><time>2026-04-18T09:53:12.343Z</time></trkpt><trkpt lat="43.4020801" lon="10.9088814"><ele>344.8</ele><time>2026-04-18T09:53:13.343Z</time></trkpt><trkpt lat="43.4020308" lon="10.9087492"><ele>345.4</ele><time>2026-04-18T09:53:14.343Z</time></trkpt><trkpt lat="43.4019832" lon="10.9086369"><ele>346.0</ele><time>2026-04-18T09:53:15.345Z</time></trkpt><trkpt lat="43.4019307" lon="10.9085454"><ele>346.0</ele><time>2026-04-18T09:53:16.342Z</time></trkpt><trkpt lat="43.4018803" lon="10.9084769"><ele>346.0</ele><time>2026-04-18T09:53:17.342Z</time></trkpt><trkpt lat="43.4018199" lon="10.9084301"><ele>346.0</ele><time>2026-04-18T09:53:18.343Z</time></trkpt><trkpt lat="43.4017572" lon="10.9084021"><ele>346.0</ele><time>2026-04-18T09:53:19.342Z</time></trkpt><trkpt lat="43.4016909" lon="10.9083907"><ele>346.0</ele><time>2026-04-18T09:53:20.342Z</time></trkpt><trkpt lat="43.4016136" lon="10.9083877"><ele>346.0</ele><time>2026-04-18T09:53:21.342Z</time></trkpt><trkpt lat="43.4015228" lon="10.9083984"><ele>346.0</ele><time>2026-04-18T09:53:22.342Z</time></trkpt><trkpt lat="43.4014186" lon="10.9084131"><ele>346.0</ele><time>2026-04-18T09:53:23.343Z</time></trkpt><trkpt lat="43.4012891" lon="10.9084436"><ele>346.0</ele><time>2026-04-18T09:53:24.344Z</time></trkpt><trkpt lat="43.4011521" lon="10.9084761"><ele>346.0</ele><time>2026-04-18T09:53:25.342Z</time></trkpt><trkpt lat="43.4010169" lon="10.9085108"><ele>346.0</ele><time>2026-04-18T09:53:26.343Z</time></trkpt><trkpt lat="43.400895" lon="10.908541"><ele>346.0</ele><time>2026-04-18T09:53:27.342Z</time></trkpt><trkpt lat="43.4007817" lon="10.9085657"><ele>346.0</ele><time>2026-04-18T09:53:28.342Z</time></trkpt><trkpt lat="43.4006785" lon="10.9085872"><ele>346.0</ele><time>2026-04-18T09:53:29.341Z</time></trkpt><trkpt lat="43.4005879" lon="10.9086022"><ele>346.0</ele><time>2026-04-18T09:53:30.342Z</time></trkpt><trkpt lat="43.4005015" lon="10.9086174"><ele>346.0</ele><time>2026-04-18T09:53:31.342Z</time></trkpt><trkpt lat="43.400418" lon="10.9086309"><ele>346.3333333333333</ele><time>2026-04-18T09:53:32.342Z</time></trkpt><trkpt lat="43.4003338" lon="10.9086444"><ele>346.66666666666663</ele><time>2026-04-18T09:53:33.344Z</time></trkpt><trkpt lat="43.4002654" lon="10.9086438"><ele>347.0</ele><time>2026-04-18T09:53:34.342Z</time></trkpt><trkpt lat="43.4001599" lon="10.9085726"><ele>347.3333333333333</ele><time>2026-04-18T09:53:36.343Z</time></trkpt><trkpt lat="43.4001225" lon="10.9085005"><ele>347.6666666666667</ele><time>2026-04-18T09:53:37.341Z</time></trkpt><trkpt lat="43.4000916" lon="10.9084022"><ele>348.0</ele><time>2026-04-18T09:53:38.343Z</time></trkpt><trkpt lat="43.4000592" lon="10.9082885"><ele>348.59999999999997</ele><time>2026-04-18T09:53:39.342Z</time></trkpt><trkpt lat="43.4000217" lon="10.9081705"><ele>349.2</ele><time>2026-04-18T09:53:40.342Z</time></trkpt><trkpt lat="43.3999816" lon="10.9080545"><ele>349.8</ele><time>2026-04-18T09:53:41.342Z</time></trkpt><trkpt lat="43.3999515" lon="10.9079386"><ele>350.4</ele><time>2026-04-18T09:53:42.342Z</time></trkpt><trkpt lat="43.3999407" lon="10.9078182"><ele>351.0</ele><time>2026-04-18T09:53:43.342Z</time></trkpt><trkpt lat="43.39995" lon="10.9076892"><ele>349.25</ele><time>2026-04-18T09:53:44.343Z</time></trkpt><trkpt lat="43.3999785" lon="10.9075435"><ele>347.5</ele><time>2026-04-18T09:53:45.342Z</time></trkpt><trkpt lat="43.400012" lon="10.907384"><ele>345.75</ele><time>2026-04-18T09:53:46.345Z</time></trkpt><trkpt lat="43.4000533" lon="10.9072172"><ele>344.0</ele><time>2026-04-18T09:53:47.342Z</time></trkpt><trkpt lat="43.4000927" lon="10.9070575"><ele>344.0</ele><time>2026-04-18T09:53:48.341Z</time></trkpt><trkpt lat="43.4001298" lon="10.9069062"><ele>344.0</ele><time>2026-04-18T09:53:49.342Z</time></trkpt><trkpt lat="43.4001649" lon="10.906767"><ele>344.0</ele><time>2026-04-18T09:53:50.345Z</time></trkpt><trkpt lat="43.4001925" lon="10.9066344"><ele>344.0</ele><time>2026-04-18T09:53:51.343Z</time></trkpt><trkpt lat="43.4002164" lon="10.9065045"><ele>344.0</ele><time>2026-04-18T09:53:52.343Z</time></trkpt><trkpt lat="43.400231" lon="10.9063721"><ele>343.4</ele><time>2026-04-18T09:53:53.342Z</time></trkpt><trkpt lat="43.4002251" lon="10.9062377"><ele>342.79999999999995</ele><time>2026-04-18T09:53:54.342Z</time></trkpt><trkpt lat="43.4002051" lon="10.9061053"><ele>342.20000000000005</ele><time>2026-04-18T09:53:55.342Z</time></trkpt><trkpt lat="43.4001655" lon="10.9059716"><ele>341.6</ele><time>2026-04-18T09:53:56.343Z</time></trkpt><trkpt lat="43.4001069" lon="10.905828"><ele>341.0</ele><time>2026-04-18T09:53:57.342Z</time></trkpt><trkpt lat="43.4000476" lon="10.9056746"><ele>341.0</ele><time>2026-04-18T09:53:58.343Z</time></trkpt><trkpt lat="43.3999835" lon="10.9055171"><ele>341.0</ele><time>2026-04-18T09:53:59.343Z</time></trkpt><trkpt lat="43.3999215" lon="10.9053726"><ele>341.0</ele><time>2026-04-18T09:54:00.345Z</time></trkpt><trkpt lat="43.3998776" lon="10.905238"><ele>341.0</ele><time>2026-04-18T09:54:01.343Z</time></trkpt><trkpt lat="43.3998462" lon="10.9051143"><ele>341.0</ele><time>2026-04-18T09:54:02.344Z</time></trkpt><trkpt lat="43.3998263" lon="10.9050083"><ele>341.0</ele><time>2026-04-18T09:54:03.343Z</time></trkpt><trkpt lat="43.3997866" lon="10.9048761"><ele>341.0</ele><time>2026-04-18T09:54:05.343Z</time></trkpt><trkpt lat="43.3996948" lon="10.904877"><ele>341.0</ele><time>2026-04-18T09:54:08.343Z</time></trkpt><trkpt lat="43.3996489" lon="10.9050264"><ele>341.0</ele><time>2026-04-18T09:54:10.343Z</time></trkpt><trkpt lat="43.3996699" lon="10.9051875"><ele>341.0</ele><time>2026-04-18T09:54:12.346Z</time></trkpt><trkpt lat="43.399722" lon="10.9053307"><ele>341.0</ele><time>2026-04-18T09:54:14.342Z</time></trkpt><trkpt lat="43.3997438" lon="10.9054367"><ele>341.0</ele><time>2026-04-18T09:54:16.341Z</time></trkpt><trkpt lat="43.3996804" lon="10.9055201"><ele>341.0</ele><time>2026-04-18T09:54:19.342Z</time></trkpt><trkpt lat="43.3995713" lon="10.9054813"><ele>341.0</ele><time>2026-04-18T09:54:21.346Z</time></trkpt><trkpt lat="43.3995147" lon="10.9054232"><ele>337.42857142857144</ele><time>2026-04-18T09:54:22.342Z</time></trkpt><trkpt lat="43.3994681" lon="10.9053484"><ele>333.8571428571429</ele><time>2026-04-18T09:54:23.343Z</time></trkpt><trkpt lat="43.399433" lon="10.9052564"><ele>330.28571428571433</ele><time>2026-04-18T09:54:24.344Z</time></trkpt><trkpt lat="43.3994045" lon="10.9051607"><ele>326.7142857142857</ele><time>2026-04-18T09:54:25.343Z</time></trkpt><trkpt lat="43.3993753" lon="10.9050646"><ele>323.14285714285717</ele><time>2026-04-18T09:54:26.344Z</time></trkpt><trkpt lat="43.3993469" lon="10.9049761"><ele>319.5714285714286</ele><time>2026-04-18T09:54:27.343Z</time></trkpt><trkpt lat="43.3993216" lon="10.9048966"><ele>316.0</ele><time>2026-04-18T09:54:28.343Z</time></trkpt><trkpt lat="43.3992778" lon="10.9047456"><ele>316.0</ele><time>2026-04-18T09:54:30.345Z</time></trkpt><trkpt lat="43.399288" lon="10.9045851"><ele>316.0</ele><time>2026-04-18T09:54:32.344Z</time></trkpt><trkpt lat="43.3993232" lon="10.9044979"><ele>316.0</ele><time>2026-04-18T09:54:33.345Z</time></trkpt><trkpt lat="43.3993898" lon="10.9044096"><ele>316.0</ele><time>2026-04-18T09:54:34.346Z</time></trkpt><trkpt lat="43.3994597" lon="10.9043104"><ele>316.0</ele><time>2026-04-18T09:54:35.343Z</time></trkpt><trkpt lat="43.3995172" lon="10.9042087"><ele>315.16666666666663</ele><time>2026-04-18T09:54:36.343Z</time></trkpt><trkpt lat="43.3995535" lon="10.9041173"><ele>314.3333333333333</ele><time>2026-04-18T09:54:37.346Z</time></trkpt><trkpt lat="43.3995648" lon="10.9039925"><ele>313.5</ele><time>2026-04-18T09:54:39.347Z</time></trkpt><trkpt lat="43.3994872" lon="10.9039381"><ele>312.6666666666667</ele><time>2026-04-18T09:54:41.343Z</time></trkpt><trkpt lat="43.3993803" lon="10.9039828"><ele>311.83333333333337</ele><time>2026-04-18T09:54:43.342Z</time></trkpt><trkpt lat="43.3993281" lon="10.9040362"><ele>311.0</ele><time>2026-04-18T09:54:44.342Z</time></trkpt><trkpt lat="43.3992685" lon="10.9041054"><ele>311.0</ele><time>2026-04-18T09:54:45.342Z</time></trkpt><trkpt lat="43.3991934" lon="10.9041915"><ele>311.0</ele><time>2026-04-18T09:54:46.342Z</time></trkpt><trkpt lat="43.3991208" lon="10.9042715"><ele>311.0</ele><time>2026-04-18T09:54:47.344Z</time></trkpt><trkpt lat="43.3990575" lon="10.9043477"><ele>311.0</ele><time>2026-04-18T09:54:48.343Z</time></trkpt><trkpt lat="43.3990025" lon="10.9044365"><ele>311.0</ele><time>2026-04-18T09:54:49.343Z</time></trkpt><trkpt lat="43.3989515" lon="10.9045486"><ele>312.25</ele><time>2026-04-18T09:54:50.342Z</time></trkpt><trkpt lat="43.3989019" lon="10.9046917"><ele>313.5</ele><time>2026-04-18T09:54:51.342Z</time></trkpt><trkpt lat="43.398848" lon="10.9048616"><ele>314.75</ele><time>2026-04-18T09:54:52.343Z</time></trkpt><trkpt lat="43.398785" lon="10.9050274"><ele>316.0</ele><time>2026-04-18T09:54:53.343Z</time></trkpt><trkpt lat="43.3987285" lon="10.9051758"><ele>312.2</ele><time>2026-04-18T09:54:54.342Z</time></trkpt><trkpt lat="43.3986792" lon="10.9053048"><ele>308.40000000000003</ele><time>2026-04-18T09:54:55.343Z</time></trkpt><trkpt lat="43.3986359" lon="10.9054254"><ele>304.6</ele><time>2026-04-18T09:54:56.343Z</time></trkpt><trkpt lat="43.3985948" lon="10.9055314"><ele>300.8</ele><time>2026-04-18T09:54:57.343Z</time></trkpt><trkpt lat="43.3985532" lon="10.9056219"><ele>297.0</ele><time>2026-04-18T09:54:58.343Z</time></trkpt><trkpt lat="43.3984745" lon="10.9057189"><ele>297.0</ele><time>2026-04-18T09:55:00.343Z</time></trkpt><trkpt lat="43.3983653" lon="10.9056886"><ele>297.0</ele><time>2026-04-18T09:55:02.345Z</time></trkpt><trkpt lat="43.3983121" lon="10.9056196"><ele>297.0</ele><time>2026-04-18T09:55:03.346Z</time></trkpt><trkpt lat="43.3982766" lon="10.9055184"><ele>297.0</ele><time>2026-04-18T09:55:04.342Z</time></trkpt><trkpt lat="43.3982491" lon="10.9053998"><ele>297.0</ele><time>2026-04-18T09:55:05.342Z</time></trkpt><trkpt lat="43.3982206" lon="10.9052648"><ele>297.0</ele><time>2026-04-18T09:55:06.344Z</time></trkpt><trkpt lat="43.3981918" lon="10.9051287"><ele>297.0</ele><time>2026-04-18T09:55:07.342Z</time></trkpt><trkpt lat="43.3981678" lon="10.9050057"><ele>297.0</ele><time>2026-04-18T09:55:08.342Z</time></trkpt><trkpt lat="43.3981522" lon="10.9048975"><ele>297.0</ele><time>2026-04-18T09:55:09.343Z</time></trkpt><trkpt lat="43.3981468" lon="10.9047955"><ele>297.0</ele><time>2026-04-18T09:55:10.342Z</time></trkpt><trkpt lat="43.3981589" lon="10.9046977"><ele>297.0</ele><time>2026-04-18T09:55:11.347Z</time></trkpt><trkpt lat="43.3981869" lon="10.9046043"><ele>296.5</ele><time>2026-04-18T09:55:12.344Z</time></trkpt><trkpt lat="43.3982168" lon="10.9045047"><ele>296.0</ele><time>2026-04-18T09:55:13.343Z</time></trkpt><trkpt lat="43.3982397" lon="10.9044084"><ele>295.5</ele><time>2026-04-18T09:55:14.343Z</time></trkpt><trkpt lat="43.3982616" lon="10.9043241"><ele>295.0</ele><time>2026-04-18T09:55:15.344Z</time></trkpt><trkpt lat="43.3982927" lon="10.9041922"><ele>294.5</ele><time>2026-04-18T09:55:17.344Z</time></trkpt><trkpt lat="43.3982634" lon="10.9041004"><ele>294.0</ele><time>2026-04-18T09:55:19.345Z</time></trkpt><trkpt lat="43.3981697" lon="10.9040806"><ele>293.2</ele><time>2026-04-18T09:55:21.345Z</time></trkpt><trkpt lat="43.3981083" lon="10.9041132"><ele>292.4</ele><time>2026-04-18T09:55:22.344Z</time></trkpt><trkpt lat="43.3980487" lon="10.904156"><ele>291.6</ele><time>2026-04-18T09:55:23.344Z</time></trkpt><trkpt lat="43.3979757" lon="10.904256"><ele>290.8</ele><time>2026-04-18T09:55:24.343Z</time></trkpt><trkpt lat="43.3979044" lon="10.9043757"><ele>290.0</ele><time>2026-04-18T09:55:25.343Z</time></trkpt><trkpt lat="43.3978428" lon="10.9045207"><ele>287.5</ele><time>2026-04-18T09:55:26.347Z</time></trkpt><trkpt lat="43.397788" lon="10.9046857"><ele>285.0</ele><time>2026-04-18T09:55:27.342Z</time></trkpt><trkpt lat="43.3977272" lon="10.9048535"><ele>282.5</ele><time>2026-04-18T09:55:28.343Z</time></trkpt><trkpt lat="43.3976688" lon="10.9050148"><ele>280.0</ele><time>2026-04-18T09:55:29.345Z</time></trkpt><trkpt lat="43.3976095" lon="10.9051733"><ele>280.0</ele><time>2026-04-18T09:55:30.344Z</time></trkpt><trkpt lat="43.3975568" lon="10.9053107"><ele>280.0</ele><time>2026-04-18T09:55:31.344Z</time></trkpt><trkpt lat="43.3975082" lon="10.9054312"><ele>280.0</ele><time>2026-04-18T09:55:32.344Z</time></trkpt><trkpt lat="43.3974744" lon="10.9055384"><ele>280.0</ele><time>2026-04-18T09:55:33.345Z</time></trkpt><trkpt lat="43.397446" lon="10.9056375"><ele>280.0</ele><time>2026-04-18T09:55:34.343Z</time></trkpt><trkpt lat="43.3974241" lon="10.9057349"><ele>280.0</ele><time>2026-04-18T09:55:35.345Z</time></trkpt><trkpt lat="43.3974032" lon="10.905818"><ele>280.0</ele><time>2026-04-18T09:55:36.344Z</time></trkpt><trkpt lat="43.3973511" lon="10.9059194"><ele>280.0</ele><time>2026-04-18T09:55:38.343Z</time></trkpt><trkpt lat="43.3972797" lon="10.9059339"><ele>280.0</ele><time>2026-04-18T09:55:40.343Z</time></trkpt><trkpt lat="43.3972041" lon="10.9058451"><ele>280.0</ele><time>2026-04-18T09:55:42.345Z</time></trkpt><trkpt lat="43.39716" lon="10.9057581"><ele>280.0</ele><time>2026-04-18T09:55:43.343Z</time></trkpt><trkpt lat="43.3971234" lon="10.9056267"><ele>280.0</ele><time>2026-04-18T09:55:44.344Z</time></trkpt><trkpt lat="43.3970832" lon="10.9055055"><ele>277.3333333333333</ele><time>2026-04-18T09:55:45.345Z</time></trkpt><trkpt lat="43.3970469" lon="10.9053671"><ele>274.66666666666663</ele><time>2026-04-18T09:55:46.343Z</time></trkpt><trkpt lat="43.3970194" lon="10.9052645"><ele>272.0</ele><time>2026-04-18T09:55:47.345Z</time></trkpt><trkpt lat="43.3969663" lon="10.9051409"><ele>269.3333333333333</ele><time>2026-04-18T09:55:49.343Z</time></trkpt><trkpt lat="43.3968982" lon="10.9051369"><ele>266.6666666666667</ele><time>2026-04-18T09:55:53.344Z</time></trkpt><trkpt lat="43.3968578" lon="10.9052134"><ele>264.0</ele><time>2026-04-18T09:55:55.343Z</time></trkpt><trkpt lat="43.3967976" lon="10.9053786"><ele>264.0</ele><time>2026-04-18T09:55:57.348Z</time></trkpt><trkpt lat="43.3967626" lon="10.9054709"><ele>264.0</ele><time>2026-04-18T09:55:58.343Z</time></trkpt><trkpt lat="43.3967227" lon="10.9055571"><ele>264.0</ele><time>2026-04-18T09:55:59.344Z</time></trkpt><trkpt lat="43.3966778" lon="10.9056372"><ele>264.0</ele><time>2026-04-18T09:56:00.344Z</time></trkpt><trkpt lat="43.3965806" lon="10.9057389"><ele>264.0</ele><time>2026-04-18T09:56:02.344Z</time></trkpt><trkpt lat="43.3964595" lon="10.9057181"><ele>264.0</ele><time>2026-04-18T09:56:04.343Z</time></trkpt><trkpt lat="43.3963725" lon="10.9055988"><ele>264.0</ele><time>2026-04-18T09:56:06.345Z</time></trkpt><trkpt lat="43.396348" lon="10.9055123"><ele>264.0</ele><time>2026-04-18T09:56:07.344Z</time></trkpt><trkpt lat="43.3963471" lon="10.905408"><ele>264.0</ele><time>2026-04-18T09:56:08.344Z</time></trkpt><trkpt lat="43.3963703" lon="10.9052805"><ele>264.0</ele><time>2026-04-18T09:56:09.344Z</time></trkpt><trkpt lat="43.3963975" lon="10.9051541"><ele>264.2</ele><time>2026-04-18T09:56:10.343Z</time></trkpt><trkpt lat="43.3964246" lon="10.9050302"><ele>264.4</ele><time>2026-04-18T09:56:11.344Z</time></trkpt><trkpt lat="43.3964556" lon="10.9049112"><ele>264.6</ele><time>2026-04-18T09:56:12.344Z</time></trkpt><trkpt lat="43.3964761" lon="10.9047895"><ele>264.8</ele><time>2026-04-18T09:56:13.344Z</time></trkpt><trkpt lat="43.3964867" lon="10.9046628"><ele>265.0</ele><time>2026-04-18T09:56:14.343Z</time></trkpt><trkpt lat="43.3964787" lon="10.9045397"><ele>265.0</ele><time>2026-04-18T09:56:15.343Z</time></trkpt><trkpt lat="43.3964629" lon="10.9044126"><ele>265.0</ele><time>2026-04-18T09:56:16.344Z</time></trkpt><trkpt lat="43.3964439" lon="10.9042882"><ele>265.0</ele><time>2026-04-18T09:56:17.343Z</time></trkpt><trkpt lat="43.3964137" lon="10.9041678"><ele>265.0</ele><time>2026-04-18T09:56:18.343Z</time></trkpt><trkpt lat="43.3963829" lon="10.9040571"><ele>265.0</ele><time>2026-04-18T09:56:19.343Z</time></trkpt><trkpt lat="43.3963552" lon="10.9039427"><ele>260.0</ele><time>2026-04-18T09:56:20.343Z</time></trkpt><trkpt lat="43.3963331" lon="10.9038341"><ele>255.0</ele><time>2026-04-18T09:56:21.344Z</time></trkpt><trkpt lat="43.3963198" lon="10.9037233"><ele>250.0</ele><time>2026-04-18T09:56:22.344Z</time></trkpt><trkpt lat="43.3963207" lon="10.9036041"><ele>245.0</ele><time>2026-04-18T09:56:23.342Z</time></trkpt><trkpt lat="43.3963238" lon="10.9034595"><ele>240.0</ele><time>2026-04-18T09:56:24.342Z</time></trkpt><trkpt lat="43.3963265" lon="10.903319"><ele>239.0</ele><time>2026-04-18T09:56:25.344Z</time></trkpt><trkpt lat="43.3963328" lon="10.9031942"><ele>238.0</ele><time>2026-04-18T09:56:26.343Z</time></trkpt><trkpt lat="43.3963385" lon="10.9030932"><ele>237.0</ele><time>2026-04-18T09:56:27.343Z</time></trkpt><trkpt lat="43.3963568" lon="10.9030041"><ele>236.0</ele><time>2026-04-18T09:56:28.343Z</time></trkpt><trkpt lat="43.3964348" lon="10.9028842"><ele>235.0</ele><time>2026-04-18T09:56:30.343Z</time></trkpt><trkpt lat="43.3965382" lon="10.9028092"><ele>236.0</ele><time>2026-04-18T09:56:32.343Z</time></trkpt><trkpt lat="43.3965937" lon="10.902757"><ele>237.0</ele><time>2026-04-18T09:56:33.343Z</time></trkpt><trkpt lat="43.3966475" lon="10.9026173"><ele>238.0</ele><time>2026-04-18T09:56:35.342Z</time></trkpt><trkpt lat="43.396607" lon="10.9024848"><ele>239.0</ele><time>2026-04-18T09:56:37.344Z</time></trkpt><trkpt lat="43.3965311" lon="10.9024472"><ele>240.0</ele><time>2026-04-18T09:56:38.343Z</time></trkpt><trkpt lat="43.3964459" lon="10.9024301"><ele>240.0</ele><time>2026-04-18T09:56:39.342Z</time></trkpt><trkpt lat="43.3963684" lon="10.9024337"><ele>240.0</ele><time>2026-04-18T09:56:40.342Z</time></trkpt><trkpt lat="43.3962939" lon="10.902466"><ele>240.0</ele><time>2026-04-18T09:56:41.344Z</time></trkpt><trkpt lat="43.3962179" lon="10.9025209"><ele>240.0</ele><time>2026-04-18T09:56:42.343Z</time></trkpt><trkpt lat="43.3961454" lon="10.9025979"><ele>240.0</ele><time>2026-04-18T09:56:43.343Z</time></trkpt><trkpt lat="43.3960775" lon="10.9027045"><ele>240.0</ele><time>2026-04-18T09:56:44.344Z</time></trkpt><trkpt lat="43.3960137" lon="10.9028239"><ele>240.0</ele><time>2026-04-18T09:56:45.343Z</time></trkpt><trkpt lat="43.3959564" lon="10.9029323"><ele>240.0</ele><time>2026-04-18T09:56:46.344Z</time></trkpt><trkpt lat="43.3958971" lon="10.9030275"><ele>240.0</ele><time>2026-04-18T09:56:47.347Z</time></trkpt><trkpt lat="43.3958477" lon="10.9031206"><ele>240.0</ele><time>2026-04-18T09:56:48.343Z</time></trkpt><trkpt lat="43.3958129" lon="10.9032168"><ele>240.0</ele><time>2026-04-18T09:56:49.343Z</time></trkpt><trkpt lat="43.3957928" lon="10.9033251"><ele>240.0</ele><time>2026-04-18T09:56:50.344Z</time></trkpt><trkpt lat="43.3957834" lon="10.903439"><ele>240.0</ele><time>2026-04-18T09:56:51.343Z</time></trkpt><trkpt lat="43.3957838" lon="10.9035562"><ele>240.0</ele><time>2026-04-18T09:56:52.343Z</time></trkpt><trkpt lat="43.395789" lon="10.9036582"><ele>240.0</ele><time>2026-04-18T09:56:53.342Z</time></trkpt><trkpt lat="43.3957689" lon="10.9038064"><ele>240.0</ele><time>2026-04-18T09:56:55.344Z</time></trkpt><trkpt lat="43.3956918" lon="10.9038945"><ele>240.0</ele><time>2026-04-18T09:56:57.343Z</time></trkpt><trkpt lat="43.3956053" lon="10.9038587"><ele>240.0</ele><time>2026-04-18T09:56:59.343Z</time></trkpt><trkpt lat="43.3955711" lon="10.9037704"><ele>240.0</ele><time>2026-04-18T09:57:00.342Z</time></trkpt><trkpt lat="43.3955488" lon="10.9036339"><ele>240.0</ele><time>2026-04-18T09:57:01.343Z</time></trkpt><trkpt lat="43.395532" lon="10.9034861"><ele>240.0</ele><time>2026-04-18T09:57:02.344Z</time></trkpt><trkpt lat="43.3955141" lon="10.9033274"><ele>240.0</ele><time>2026-04-18T09:57:03.344Z</time></trkpt><trkpt lat="43.3955004" lon="10.9031641"><ele>238.66666666666666</ele><time>2026-04-18T09:57:04.343Z</time></trkpt><trkpt lat="43.395494" lon="10.9030134"><ele>237.33333333333331</ele><time>2026-04-18T09:57:05.343Z</time></trkpt><trkpt lat="43.3954898" lon="10.9028761"><ele>236.0</ele><time>2026-04-18T09:57:06.343Z</time></trkpt><trkpt lat="43.3954871" lon="10.9027526"><ele>234.66666666666666</ele><time>2026-04-18T09:57:07.344Z</time></trkpt><trkpt lat="43.3954821" lon="10.9026438"><ele>233.33333333333331</ele><time>2026-04-18T09:57:08.343Z</time></trkpt><trkpt lat="43.3954658" lon="10.9025543"><ele>232.0</ele><time>2026-04-18T09:57:09.343Z</time></trkpt><trkpt lat="43.3953775" lon="10.9024664"><ele>231.39999999999998</ele><time>2026-04-18T09:57:11.343Z</time></trkpt><trkpt lat="43.3952958" lon="10.902462"><ele>230.79999999999998</ele><time>2026-04-18T09:57:12.344Z</time></trkpt><trkpt lat="43.3952" lon="10.9024708"><ele>230.2</ele><time>2026-04-18T09:57:13.343Z</time></trkpt><trkpt lat="43.3950949" lon="10.9024758"><ele>229.6</ele><time>2026-04-18T09:57:14.344Z</time></trkpt><trkpt lat="43.3949959" lon="10.9024656"><ele>229.0</ele><time>2026-04-18T09:57:15.343Z</time></trkpt><trkpt lat="43.3949098" lon="10.9024396"><ele>228.99999999999997</ele><time>2026-04-18T09:57:16.343Z</time></trkpt><trkpt lat="43.3948374" lon="10.902406"><ele>229.0</ele><time>2026-04-18T09:57:17.342Z</time></trkpt><trkpt lat="43.3947765" lon="10.9023703"><ele>229.0</ele><time>2026-04-18T09:57:18.342Z</time></trkpt><trkpt lat="43.3947342" lon="10.9022814"><ele>229.0</ele><time>2026-04-18T09:57:20.343Z</time></trkpt><trkpt lat="43.3948146" lon="10.9021674"><ele>228.99999999999997</ele><time>2026-04-18T09:57:22.343Z</time></trkpt><trkpt lat="43.3948725" lon="10.9020895"><ele>229.0</ele><time>2026-04-18T09:57:23.343Z</time></trkpt><trkpt lat="43.3949306" lon="10.9019899"><ele>229.0</ele><time>2026-04-18T09:57:24.344Z</time></trkpt><trkpt lat="43.3949783" lon="10.9018779"><ele>228.99999999999997</ele><time>2026-04-18T09:57:25.343Z</time></trkpt><trkpt lat="43.3950269" lon="10.901754"><ele>228.99999999999997</ele><time>2026-04-18T09:57:26.344Z</time></trkpt><trkpt lat="43.3950762" lon="10.9016353"><ele>229.0</ele><time>2026-04-18T09:57:27.343Z</time></trkpt><trkpt lat="43.3951203" lon="10.9015244"><ele>229.0</ele><time>2026-04-18T09:57:28.343Z</time></trkpt><trkpt lat="43.3951526" lon="10.9014114"><ele>229.2</ele><time>2026-04-18T09:57:29.343Z</time></trkpt><trkpt lat="43.3951786" lon="10.9012893"><ele>229.39999999999998</ele><time>2026-04-18T09:57:30.344Z</time></trkpt><trkpt lat="43.3951929" lon="10.9011634"><ele>229.6</ele><time>2026-04-18T09:57:31.344Z</time></trkpt><trkpt lat="43.3951917" lon="10.9010332"><ele>229.8</ele><time>2026-04-18T09:57:32.345Z</time></trkpt><trkpt lat="43.3951836" lon="10.9009016"><ele>230.0</ele><time>2026-04-18T09:57:33.343Z</time></trkpt><trkpt lat="43.3951776" lon="10.90078"><ele>231.4</ele><time>2026-04-18T09:57:34.346Z</time></trkpt><trkpt lat="43.3951804" lon="10.9006757"><ele>232.8</ele><time>2026-04-18T09:57:35.342Z</time></trkpt><trkpt lat="43.3951963" lon="10.9005704"><ele>234.2</ele><time>2026-04-18T09:57:36.341Z</time></trkpt><trkpt lat="43.3952244" lon="10.9004529"><ele>235.6</ele><time>2026-04-18T09:57:37.342Z</time></trkpt><trkpt lat="43.3952558" lon="10.9003209"><ele>237.0</ele><time>2026-04-18T09:57:38.346Z</time></trkpt><trkpt lat="43.3952878" lon="10.9001787"><ele>239.5</ele><time>2026-04-18T09:57:39.345Z</time></trkpt><trkpt lat="43.3953162" lon="10.9000293"><ele>242.0</ele><time>2026-04-18T09:57:40.346Z</time></trkpt><trkpt lat="43.3953366" lon="10.8998766"><ele>244.5</ele><time>2026-04-18T09:57:41.345Z</time></trkpt><trkpt lat="43.3953566" lon="10.8997223"><ele>247.0</ele><time>2026-04-18T09:57:42.343Z</time></trkpt><trkpt lat="43.3953826" lon="10.8995693"><ele>247.0</ele><time>2026-04-18T09:57:43.343Z</time></trkpt><trkpt lat="43.3954158" lon="10.8994389"><ele>247.0</ele><time>2026-04-18T09:57:44.346Z</time></trkpt><trkpt lat="43.3954591" lon="10.8993334"><ele>247.0</ele><time>2026-04-18T09:57:45.343Z</time></trkpt><trkpt lat="43.3955191" lon="10.8992374"><ele>247.0</ele><time>2026-04-18T09:57:46.343Z</time></trkpt><trkpt lat="43.3955912" lon="10.8991378"><ele>247.0</ele><time>2026-04-18T09:57:47.346Z</time></trkpt><trkpt lat="43.3956666" lon="10.8990247"><ele>245.8</ele><time>2026-04-18T09:57:48.437Z</time></trkpt><trkpt lat="43.3957383" lon="10.8989161"><ele>244.6</ele><time>2026-04-18T09:57:49.343Z</time></trkpt><trkpt lat="43.3958081" lon="10.8988131"><ele>243.40000000000003</ele><time>2026-04-18T09:57:50.345Z</time></trkpt><trkpt lat="43.3958748" lon="10.8987247"><ele>242.20000000000002</ele><time>2026-04-18T09:57:51.342Z</time></trkpt><trkpt lat="43.3959374" lon="10.898632"><ele>241.0</ele><time>2026-04-18T09:57:52.344Z</time></trkpt><trkpt lat="43.3959862" lon="10.8985326"><ele>243.4</ele><time>2026-04-18T09:57:53.342Z</time></trkpt><trkpt lat="43.3960244" lon="10.8984149"><ele>245.8</ele><time>2026-04-18T09:57:54.345Z</time></trkpt><trkpt lat="43.3960615" lon="10.8982881"><ele>248.20000000000002</ele><time>2026-04-18T09:57:55.343Z</time></trkpt><trkpt lat="43.3961011" lon="10.8981748"><ele>250.60000000000002</ele><time>2026-04-18T09:57:56.342Z</time></trkpt><trkpt lat="43.3961507" lon="10.8980777"><ele>253.0</ele><time>2026-04-18T09:57:57.343Z</time></trkpt><trkpt lat="43.3962134" lon="10.8980049"><ele>253.0</ele><time>2026-04-18T09:57:58.343Z</time></trkpt><trkpt lat="43.3962883" lon="10.8979447"><ele>253.0</ele><time>2026-04-18T09:57:59.342Z</time></trkpt><trkpt lat="43.3963719" lon="10.8978876"><ele>253.0</ele><time>2026-04-18T09:58:00.342Z</time></trkpt><trkpt lat="43.3964588" lon="10.897822"><ele>253.0</ele><time>2026-04-18T09:58:01.343Z</time></trkpt><trkpt lat="43.3965431" lon="10.8977538"><ele>253.0</ele><time>2026-04-18T09:58:02.342Z</time></trkpt><trkpt lat="43.3966126" lon="10.8976849"><ele>253.49999999999997</ele><time>2026-04-18T09:58:03.343Z</time></trkpt><trkpt lat="43.3966725" lon="10.8976133"><ele>254.0</ele><time>2026-04-18T09:58:04.341Z</time></trkpt><trkpt lat="43.3967254" lon="10.8975368"><ele>254.5</ele><time>2026-04-18T09:58:05.342Z</time></trkpt><trkpt lat="43.3967644" lon="10.8974375"><ele>255.0</ele><time>2026-04-18T09:58:06.347Z</time></trkpt><trkpt lat="43.3967925" lon="10.897322"><ele>255.49999999999997</ele><time>2026-04-18T09:58:07.346Z</time></trkpt><trkpt lat="43.3968167" lon="10.8971942"><ele>256.0</ele><time>2026-04-18T09:58:08.346Z</time></trkpt><trkpt lat="43.3968468" lon="10.8970621"><ele>256.0</ele><time>2026-04-18T09:58:09.343Z</time></trkpt><trkpt lat="43.396889" lon="10.8969329"><ele>256.0</ele><time>2026-04-18T09:58:10.343Z</time></trkpt><trkpt lat="43.396932" lon="10.8968137"><ele>256.0</ele><time>2026-04-18T09:58:11.343Z</time></trkpt><trkpt lat="43.39697" lon="10.8966908"><ele>256.0</ele><time>2026-04-18T09:58:12.345Z</time></trkpt><trkpt lat="43.3970015" lon="10.8965603"><ele>256.0</ele><time>2026-04-18T09:58:13.348Z</time></trkpt><trkpt lat="43.3970328" lon="10.896429"><ele>255.60000000000002</ele><time>2026-04-18T09:58:14.345Z</time></trkpt><trkpt lat="43.397071" lon="10.8963"><ele>255.20000000000002</ele><time>2026-04-18T09:58:15.346Z</time></trkpt><trkpt lat="43.3971189" lon="10.8961757"><ele>254.79999999999998</ele><time>2026-04-18T09:58:16.341Z</time></trkpt><trkpt lat="43.397167" lon="10.8960593"><ele>254.39999999999998</ele><time>2026-04-18T09:58:17.343Z</time></trkpt><trkpt lat="43.3972142" lon="10.8959392"><ele>254.0</ele><time>2026-04-18T09:58:18.342Z</time></trkpt><trkpt lat="43.3972499" lon="10.8958071"><ele>255.39999999999998</ele><time>2026-04-18T09:58:19.342Z</time></trkpt><trkpt lat="43.3972707" lon="10.895672"><ele>256.79999999999995</ele><time>2026-04-18T09:58:20.342Z</time></trkpt><trkpt lat="43.397293" lon="10.8955413"><ele>258.20000000000005</ele><time>2026-04-18T09:58:21.345Z</time></trkpt><trkpt lat="43.3973212" lon="10.8954196"><ele>259.6</ele><time>2026-04-18T09:58:22.342Z</time></trkpt><trkpt lat="43.3973561" lon="10.8953027"><ele>261.0</ele><time>2026-04-18T09:58:23.344Z</time></trkpt><trkpt lat="43.3974052" lon="10.8951897"><ele>262.8</ele><time>2026-04-18T09:58:24.343Z</time></trkpt><trkpt lat="43.3974595" lon="10.8950794"><ele>264.6</ele><time>2026-04-18T09:58:25.343Z</time></trkpt><trkpt lat="43.3975147" lon="10.8949723"><ele>266.4</ele><time>2026-04-18T09:58:26.345Z</time></trkpt><trkpt lat="43.397586" lon="10.8948741"><ele>268.2</ele><time>2026-04-18T09:58:27.347Z</time></trkpt><trkpt lat="43.3976783" lon="10.8947856"><ele>270.0</ele><time>2026-04-18T09:58:28.342Z</time></trkpt><trkpt lat="43.3977777" lon="10.8947068"><ele>270.0</ele><time>2026-04-18T09:58:29.343Z</time></trkpt><trkpt lat="43.3978622" lon="10.8946382"><ele>270.0</ele><time>2026-04-18T09:58:30.346Z</time></trkpt><trkpt lat="43.3979405" lon="10.894573"><ele>270.0</ele><time>2026-04-18T09:58:31.343Z</time></trkpt><trkpt lat="43.3980184" lon="10.8945055"><ele>270.0</ele><time>2026-04-18T09:58:32.342Z</time></trkpt><trkpt lat="43.3980964" lon="10.8944311"><ele>270.0</ele><time>2026-04-18T09:58:33.343Z</time></trkpt><trkpt lat="43.3981688" lon="10.8943486"><ele>270.8</ele><time>2026-04-18T09:58:34.342Z</time></trkpt><trkpt lat="43.398231" lon="10.8942588"><ele>271.6</ele><time>2026-04-18T09:58:35.346Z</time></trkpt><trkpt lat="43.3982869" lon="10.8941557"><ele>272.4</ele><time>2026-04-18T09:58:36.344Z</time></trkpt><trkpt lat="43.3983459" lon="10.8940491"><ele>273.2</ele><time>2026-04-18T09:58:37.342Z</time></trkpt><trkpt lat="43.3984089" lon="10.8939442"><ele>274.0</ele><time>2026-04-18T09:58:38.341Z</time></trkpt><trkpt lat="43.3984891" lon="10.8938424"><ele>274.0</ele><time>2026-04-18T09:58:39.342Z</time></trkpt><trkpt lat="43.3985737" lon="10.8937399"><ele>274.0</ele><time>2026-04-18T09:58:40.343Z</time></trkpt><trkpt lat="43.3986582" lon="10.893635"><ele>274.0</ele><time>2026-04-18T09:58:41.343Z</time></trkpt><trkpt lat="43.3987416" lon="10.8935321"><ele>274.0</ele><time>2026-04-18T09:58:42.344Z</time></trkpt><trkpt lat="43.398822" lon="10.8934433"><ele>274.0</ele><time>2026-04-18T09:58:43.343Z</time></trkpt><trkpt lat="43.3989057" lon="10.8933609"><ele>275.2</ele><time>2026-04-18T09:58:44.343Z</time></trkpt><trkpt lat="43.3989893" lon="10.8932853"><ele>276.4</ele><time>2026-04-18T09:58:45.344Z</time></trkpt><trkpt lat="43.3990822" lon="10.8932192"><ele>277.6</ele><time>2026-04-18T09:58:46.343Z</time></trkpt><trkpt lat="43.3991718" lon="10.8931726"><ele>278.8</ele><time>2026-04-18T09:58:47.343Z</time></trkpt><trkpt lat="43.399259" lon="10.8931494"><ele>280.0</ele><time>2026-04-18T09:58:48.344Z</time></trkpt><trkpt lat="43.3993428" lon="10.8931409"><ele>280.0</ele><time>2026-04-18T09:58:49.343Z</time></trkpt><trkpt lat="43.3994152" lon="10.8931377"><ele>280.0</ele><time>2026-04-18T09:58:50.343Z</time></trkpt><trkpt lat="43.3994795" lon="10.8931273"><ele>280.0</ele><time>2026-04-18T09:58:51.344Z</time></trkpt><trkpt lat="43.3995841" lon="10.8930718"><ele>280.0</ele><time>2026-04-18T09:58:53.343Z</time></trkpt><trkpt lat="43.3996645" lon="10.8929527"><ele>280.0</ele><time>2026-04-18T09:58:55.344Z</time></trkpt><trkpt lat="43.399711" lon="10.8928112"><ele>280.0</ele><time>2026-04-18T09:58:57.343Z</time></trkpt><trkpt lat="43.3997222" lon="10.8927014"><ele>280.0</ele><time>2026-04-18T09:58:59.346Z</time></trkpt><trkpt lat="43.3996339" lon="10.8927768"><ele>280.0</ele><time>2026-04-18T09:59:11.342Z</time></trkpt><trkpt lat="43.3995194" lon="10.8928816"><ele>280.0</ele><time>2026-04-18T09:59:13.342Z</time></trkpt><trkpt lat="43.3994334" lon="10.8929075"><ele>280.0</ele><time>2026-04-18T09:59:14.347Z</time></trkpt><trkpt lat="43.3993352" lon="10.8929176"><ele>280.0</ele><time>2026-04-18T09:59:15.343Z</time></trkpt><trkpt lat="43.3992222" lon="10.8929207"><ele>280.0</ele><time>2026-04-18T09:59:16.343Z</time></trkpt><trkpt lat="43.3991116" lon="10.8929371"><ele>280.0</ele><time>2026-04-18T09:59:17.344Z</time></trkpt><trkpt lat="43.3989907" lon="10.8929596"><ele>280.0</ele><time>2026-04-18T09:59:18.346Z</time></trkpt><trkpt lat="43.3988623" lon="10.8929841"><ele>284.66666666666663</ele><time>2026-04-18T09:59:19.343Z</time></trkpt><trkpt lat="43.3987136" lon="10.8930206"><ele>289.3333333333333</ele><time>2026-04-18T09:59:20.344Z</time></trkpt><trkpt lat="43.3985623" lon="10.8930785"><ele>294.0</ele><time>2026-04-18T09:59:21.344Z</time></trkpt><trkpt lat="43.3984075" lon="10.8931478"><ele>294.0</ele><time>2026-04-18T09:59:22.344Z</time></trkpt><trkpt lat="43.3982501" lon="10.8932192"><ele>294.0</ele><time>2026-04-18T09:59:23.344Z</time></trkpt><trkpt lat="43.3980827" lon="10.8932813"><ele>294.0</ele><time>2026-04-18T09:59:24.343Z</time></trkpt><trkpt lat="43.3979167" lon="10.8933239"><ele>297.0</ele><time>2026-04-18T09:59:25.343Z</time></trkpt><trkpt lat="43.3977476" lon="10.8933361"><ele>300.0</ele><time>2026-04-18T09:59:26.346Z</time></trkpt><trkpt lat="43.3975742" lon="10.893329"><ele>303.0</ele><time>2026-04-18T09:59:27.346Z</time></trkpt><trkpt lat="43.3974022" lon="10.8933216"><ele>303.0</ele><time>2026-04-18T09:59:28.343Z</time></trkpt><trkpt lat="43.3972303" lon="10.8933196"><ele>303.0</ele><time>2026-04-18T09:59:29.344Z</time></trkpt><trkpt lat="43.3970599" lon="10.8933354"><ele>303.0</ele><time>2026-04-18T09:59:30.344Z</time></trkpt><trkpt lat="43.3968893" lon="10.8933857"><ele>301.0</ele><time>2026-04-18T09:59:31.343Z</time></trkpt><trkpt lat="43.3967158" lon="10.8934644"><ele>299.0</ele><time>2026-04-18T09:59:32.343Z</time></trkpt><trkpt lat="43.3965391" lon="10.8935593"><ele>297.0</ele><time>2026-04-18T09:59:33.344Z</time></trkpt><trkpt lat="43.3963593" lon="10.8936721"><ele>301.6666666666667</ele><time>2026-04-18T09:59:34.343Z</time></trkpt><trkpt lat="43.3961773" lon="10.8937922"><ele>306.33333333333337</ele><time>2026-04-18T09:59:35.344Z</time></trkpt><trkpt lat="43.3959936" lon="10.8939034"><ele>311.0</ele><time>2026-04-18T09:59:36.343Z</time></trkpt><trkpt lat="43.3958073" lon="10.8940178"><ele>311.0</ele><time>2026-04-18T09:59:37.346Z</time></trkpt><trkpt lat="43.3956261" lon="10.8941274"><ele>311.0</ele><time>2026-04-18T09:59:38.343Z</time></trkpt><trkpt lat="43.395456" lon="10.8942335"><ele>311.0</ele><time>2026-04-18T09:59:39.346Z</time></trkpt><trkpt lat="43.3952918" lon="10.8943447"><ele>312.6666666666667</ele><time>2026-04-18T09:59:40.347Z</time></trkpt><trkpt lat="43.3951289" lon="10.8944694"><ele>314.3333333333333</ele><time>2026-04-18T09:59:41.345Z</time></trkpt><trkpt lat="43.3949703" lon="10.8946041"><ele>316.0</ele><time>2026-04-18T09:59:42.347Z</time></trkpt><trkpt lat="43.3948177" lon="10.8947536"><ele>316.0</ele><time>2026-04-18T09:59:43.347Z</time></trkpt><trkpt lat="43.3946779" lon="10.8949015"><ele>316.0</ele><time>2026-04-18T09:59:44.346Z</time></trkpt><trkpt lat="43.3945473" lon="10.8950485"><ele>316.0</ele><time>2026-04-18T09:59:45.345Z</time></trkpt><trkpt lat="43.3944159" lon="10.8951829"><ele>318.66666666666663</ele><time>2026-04-18T09:59:46.346Z</time></trkpt><trkpt lat="43.3942806" lon="10.8953031"><ele>321.3333333333333</ele><time>2026-04-18T09:59:47.346Z</time></trkpt><trkpt lat="43.3941376" lon="10.8954161"><ele>324.0</ele><time>2026-04-18T09:59:48.347Z</time></trkpt><trkpt lat="43.3939922" lon="10.8955201"><ele>324.0</ele><time>2026-04-18T09:59:49.342Z</time></trkpt><trkpt lat="43.3938498" lon="10.8956131"><ele>324.0</ele><time>2026-04-18T09:59:50.345Z</time></trkpt><trkpt lat="43.3937105" lon="10.8956937"><ele>324.0</ele><time>2026-04-18T09:59:51.346Z</time></trkpt><trkpt lat="43.39357" lon="10.8957562"><ele>326.25</ele><time>2026-04-18T09:59:52.346Z</time></trkpt><trkpt lat="43.3934319" lon="10.8958016"><ele>328.5</ele><time>2026-04-18T09:59:53.345Z</time></trkpt><trkpt lat="43.3933021" lon="10.8958346"><ele>330.75</ele><time>2026-04-18T09:59:54.345Z</time></trkpt><trkpt lat="43.3931794" lon="10.8958603"><ele>333.0</ele><time>2026-04-18T09:59:55.343Z</time></trkpt><trkpt lat="43.3930548" lon="10.8958751"><ele>333.0</ele><time>2026-04-18T09:59:56.342Z</time></trkpt><trkpt lat="43.3929358" lon="10.8958801"><ele>333.0</ele><time>2026-04-18T09:59:57.347Z</time></trkpt><trkpt lat="43.3928245" lon="10.8958748"><ele>333.0</ele><time>2026-04-18T09:59:58.345Z</time></trkpt><trkpt lat="43.3927206" lon="10.8958619"><ele>333.0</ele><time>2026-04-18T09:59:59.342Z</time></trkpt><trkpt lat="43.3926286" lon="10.8958384"><ele>333.0</ele><time>2026-04-18T10:00:00.343Z</time></trkpt><trkpt lat="43.392557" lon="10.8957935"><ele>333.0</ele><time>2026-04-18T10:00:01.342Z</time></trkpt><trkpt lat="43.3925131" lon="10.8957236"><ele>333.0</ele><time>2026-04-18T10:00:02.344Z</time></trkpt><trkpt lat="43.3924917" lon="10.8956355"><ele>333.0</ele><time>2026-04-18T10:00:03.343Z</time></trkpt><trkpt lat="43.3924888" lon="10.8955375"><ele>333.0</ele><time>2026-04-18T10:00:04.342Z</time></trkpt><trkpt lat="43.3924934" lon="10.8954273"><ele>333.0</ele><time>2026-04-18T10:00:05.344Z</time></trkpt><trkpt lat="43.3924984" lon="10.8953009"><ele>333.0</ele><time>2026-04-18T10:00:06.342Z</time></trkpt><trkpt lat="43.3924998" lon="10.8951441"><ele>334.0</ele><time>2026-04-18T10:00:07.343Z</time></trkpt><trkpt lat="43.3925011" lon="10.8949748"><ele>335.0</ele><time>2026-04-18T10:00:08.343Z</time></trkpt><trkpt lat="43.3925107" lon="10.8948173"><ele>336.0</ele><time>2026-04-18T10:00:09.343Z</time></trkpt><trkpt lat="43.3925393" lon="10.8946695"><ele>337.0</ele><time>2026-04-18T10:00:10.343Z</time></trkpt><trkpt lat="43.392596" lon="10.8945291"><ele>337.0</ele><time>2026-04-18T10:00:11.343Z</time></trkpt><trkpt lat="43.3926829" lon="10.894389"><ele>337.0</ele><time>2026-04-18T10:00:12.347Z</time></trkpt><trkpt lat="43.3928012" lon="10.8942379"><ele>337.0</ele><time>2026-04-18T10:00:13.347Z</time></trkpt><trkpt lat="43.3929357" lon="10.894089"><ele>340.66666666666663</ele><time>2026-04-18T10:00:14.346Z</time></trkpt><trkpt lat="43.3930807" lon="10.8939513"><ele>344.3333333333333</ele><time>2026-04-18T10:00:15.342Z</time></trkpt><trkpt lat="43.3932355" lon="10.8938339"><ele>348.0</ele><time>2026-04-18T10:00:16.343Z</time></trkpt><trkpt lat="43.3933848" lon="10.8937215"><ele>348.0</ele><time>2026-04-18T10:00:17.343Z</time></trkpt><trkpt lat="43.3935299" lon="10.8935981"><ele>348.0</ele><time>2026-04-18T10:00:18.345Z</time></trkpt><trkpt lat="43.3936623" lon="10.8934433"><ele>348.0</ele><time>2026-04-18T10:00:19.343Z</time></trkpt><trkpt lat="43.393775" lon="10.8932645"><ele>345.6666666666667</ele><time>2026-04-18T10:00:20.346Z</time></trkpt><trkpt lat="43.3938673" lon="10.8930759"><ele>343.33333333333337</ele><time>2026-04-18T10:00:21.344Z</time></trkpt><trkpt lat="43.3939354" lon="10.8928858"><ele>341.0</ele><time>2026-04-18T10:00:22.343Z</time></trkpt><trkpt lat="43.3939757" lon="10.8927017"><ele>340.5</ele><time>2026-04-18T10:00:23.343Z</time></trkpt><trkpt lat="43.3939855" lon="10.8925186"><ele>340.0</ele><time>2026-04-18T10:00:24.343Z</time></trkpt><trkpt lat="43.3939371" lon="10.8923441"><ele>339.5</ele><time>2026-04-18T10:00:25.342Z</time></trkpt><trkpt lat="43.3938503" lon="10.8921832"><ele>339.0</ele><time>2026-04-18T10:00:26.342Z</time></trkpt><trkpt lat="43.3937337" lon="10.8920341"><ele>339.0</ele><time>2026-04-18T10:00:27.344Z</time></trkpt><trkpt lat="43.3936057" lon="10.8918815"><ele>339.0</ele><time>2026-04-18T10:00:28.342Z</time></trkpt><trkpt lat="43.3934795" lon="10.8917175"><ele>339.0</ele><time>2026-04-18T10:00:29.343Z</time></trkpt><trkpt lat="43.3933703" lon="10.8915337"><ele>343.6666666666667</ele><time>2026-04-18T10:00:30.343Z</time></trkpt><trkpt lat="43.3932725" lon="10.8913426"><ele>348.33333333333337</ele><time>2026-04-18T10:00:31.343Z</time></trkpt><trkpt lat="43.3931825" lon="10.8911529"><ele>353.0</ele><time>2026-04-18T10:00:32.342Z</time></trkpt><trkpt lat="43.3931061" lon="10.8909787"><ele>356.5</ele><time>2026-04-18T10:00:33.343Z</time></trkpt><trkpt lat="43.3930494" lon="10.8908188"><ele>360.0</ele><time>2026-04-18T10:00:34.343Z</time></trkpt><trkpt lat="43.3930279" lon="10.8906668"><ele>363.5</ele><time>2026-04-18T10:00:35.342Z</time></trkpt><trkpt lat="43.3930435" lon="10.8905184"><ele>367.0</ele><time>2026-04-18T10:00:36.343Z</time></trkpt><trkpt lat="43.3930995" lon="10.8903706"><ele>367.0</ele><time>2026-04-18T10:00:37.343Z</time></trkpt><trkpt lat="43.3931703" lon="10.8902219"><ele>367.0</ele><time>2026-04-18T10:00:38.344Z</time></trkpt><trkpt lat="43.3932428" lon="10.8900665"><ele>367.0</ele><time>2026-04-18T10:00:39.343Z</time></trkpt><trkpt lat="43.3933287" lon="10.8898945"><ele>367.0</ele><time>2026-04-18T10:00:40.342Z</time></trkpt><trkpt lat="43.3934166" lon="10.8897215"><ele>366.5</ele><time>2026-04-18T10:00:41.342Z</time></trkpt><trkpt lat="43.3935001" lon="10.8895547"><ele>366.0</ele><time>2026-04-18T10:00:42.345Z</time></trkpt><trkpt lat="43.3935684" lon="10.8894095"><ele>365.5</ele><time>2026-04-18T10:00:43.343Z</time></trkpt><trkpt lat="43.3936465" lon="10.8892849"><ele>365.0</ele><time>2026-04-18T10:00:44.342Z</time></trkpt><trkpt lat="43.3937439" lon="10.8891767"><ele>368.6666666666667</ele><time>2026-04-18T10:00:45.342Z</time></trkpt><trkpt lat="43.3938606" lon="10.8890781"><ele>372.3333333333333</ele><time>2026-04-18T10:00:46.342Z</time></trkpt><trkpt lat="43.3939951" lon="10.888981"><ele>376.0</ele><time>2026-04-18T10:00:47.345Z</time></trkpt><trkpt lat="43.394138" lon="10.8888794"><ele>376.0</ele><time>2026-04-18T10:00:48.345Z</time></trkpt><trkpt lat="43.3942669" lon="10.8887745"><ele>376.0</ele><time>2026-04-18T10:00:49.345Z</time></trkpt><trkpt lat="43.3943761" lon="10.8886529"><ele>376.0</ele><time>2026-04-18T10:00:50.345Z</time></trkpt><trkpt lat="43.3944584" lon="10.8885154"><ele>376.0</ele><time>2026-04-18T10:00:51.345Z</time></trkpt><trkpt lat="43.3945133" lon="10.8883679"><ele>376.8333333333333</ele><time>2026-04-18T10:00:52.345Z</time></trkpt><trkpt lat="43.3945568" lon="10.8882341"><ele>377.66666666666663</ele><time>2026-04-18T10:00:53.345Z</time></trkpt><trkpt lat="43.3946084" lon="10.8881333"><ele>378.5</ele><time>2026-04-18T10:00:54.345Z</time></trkpt><trkpt lat="43.3946767" lon="10.8880702"><ele>379.3333333333333</ele><time>2026-04-18T10:00:55.342Z</time></trkpt><trkpt lat="43.3947581" lon="10.8880374"><ele>380.1666666666667</ele><time>2026-04-18T10:00:56.343Z</time></trkpt><trkpt lat="43.394837" lon="10.8880563"><ele>381.0</ele><time>2026-04-18T10:00:57.345Z</time></trkpt><trkpt lat="43.3949083" lon="10.888138"><ele>381.0</ele><time>2026-04-18T10:00:58.341Z</time></trkpt><trkpt lat="43.3949547" lon="10.8882804"><ele>381.0</ele><time>2026-04-18T10:00:59.342Z</time></trkpt><trkpt lat="43.3949363" lon="10.8884924"><ele>381.0</ele><time>2026-04-18T10:01:00.342Z</time></trkpt><trkpt lat="43.3948912" lon="10.8887211"><ele>381.0</ele><time>2026-04-18T10:01:01.342Z</time></trkpt><trkpt lat="43.3948613" lon="10.8889071"><ele>381.6</ele><time>2026-04-18T10:01:02.341Z</time></trkpt><trkpt lat="43.3948656" lon="10.8890655"><ele>382.20000000000005</ele><time>2026-04-18T10:01:03.343Z</time></trkpt><trkpt lat="43.3948913" lon="10.8892063"><ele>382.79999999999995</ele><time>2026-04-18T10:01:04.346Z</time></trkpt><trkpt lat="43.3949466" lon="10.8893118"><ele>383.4</ele><time>2026-04-18T10:01:05.346Z</time></trkpt><trkpt lat="43.3950249" lon="10.8893724"><ele>384.0</ele><time>2026-04-18T10:01:06.342Z</time></trkpt><trkpt lat="43.3951064" lon="10.8893921"><ele>384.0</ele><time>2026-04-18T10:01:07.342Z</time></trkpt><trkpt lat="43.3951779" lon="10.8893483"><ele>384.0</ele><time>2026-04-18T10:01:08.343Z</time></trkpt><trkpt lat="43.3952444" lon="10.8892355"><ele>384.0</ele><time>2026-04-18T10:01:09.342Z</time></trkpt><trkpt lat="43.3953092" lon="10.8890636"><ele>384.0</ele><time>2026-04-18T10:01:10.343Z</time></trkpt><trkpt lat="43.3953786" lon="10.8888748"><ele>384.0</ele><time>2026-04-18T10:01:11.343Z</time></trkpt><trkpt lat="43.3954535" lon="10.8886681"><ele>384.0</ele><time>2026-04-18T10:01:12.342Z</time></trkpt><trkpt lat="43.3955304" lon="10.8884559"><ele>384.0</ele><time>2026-04-18T10:01:13.343Z</time></trkpt><trkpt lat="43.3956078" lon="10.8882687"><ele>385.75</ele><time>2026-04-18T10:01:14.346Z</time></trkpt><trkpt lat="43.3956936" lon="10.8881156"><ele>387.5</ele><time>2026-04-18T10:01:15.347Z</time></trkpt><trkpt lat="43.395795" lon="10.8879997"><ele>389.25</ele><time>2026-04-18T10:01:16.346Z</time></trkpt><trkpt lat="43.3958985" lon="10.8879101"><ele>391.0</ele><time>2026-04-18T10:01:17.345Z</time></trkpt><trkpt lat="43.3959892" lon="10.8878165"><ele>391.0</ele><time>2026-04-18T10:01:18.344Z</time></trkpt><trkpt lat="43.3960574" lon="10.8876966"><ele>391.0</ele><time>2026-04-18T10:01:19.342Z</time></trkpt><trkpt lat="43.3960911" lon="10.8875443"><ele>391.0</ele><time>2026-04-18T10:01:20.342Z</time></trkpt><trkpt lat="43.3960795" lon="10.8873588"><ele>391.0</ele><time>2026-04-18T10:01:21.343Z</time></trkpt><trkpt lat="43.3960344" lon="10.8871582"><ele>392.5</ele><time>2026-04-18T10:01:22.344Z</time></trkpt><trkpt lat="43.3959892" lon="10.8869603"><ele>394.0</ele><time>2026-04-18T10:01:23.345Z</time></trkpt><trkpt lat="43.395964" lon="10.8867781"><ele>395.5</ele><time>2026-04-18T10:01:24.344Z</time></trkpt><trkpt lat="43.3959634" lon="10.8865974"><ele>397.0</ele><time>2026-04-18T10:01:25.346Z</time></trkpt><trkpt lat="43.3959845" lon="10.8864182"><ele>397.6666666666667</ele><time>2026-04-18T10:01:26.343Z</time></trkpt><trkpt lat="43.3960347" lon="10.8862368"><ele>398.33333333333337</ele><time>2026-04-18T10:01:27.346Z</time></trkpt><trkpt lat="43.396117" lon="10.8860635"><ele>399.0</ele><time>2026-04-18T10:01:28.345Z</time></trkpt><trkpt lat="43.3962149" lon="10.8858873"><ele>399.0</ele><time>2026-04-18T10:01:29.342Z</time></trkpt><trkpt lat="43.3963177" lon="10.8857102"><ele>399.0</ele><time>2026-04-18T10:01:30.344Z</time></trkpt><trkpt lat="43.3964246" lon="10.8855304"><ele>399.0</ele><time>2026-04-18T10:01:31.342Z</time></trkpt><trkpt lat="43.3965345" lon="10.8853469"><ele>401.33333333333337</ele><time>2026-04-18T10:01:32.342Z</time></trkpt><trkpt lat="43.3966476" lon="10.8851601"><ele>403.6666666666667</ele><time>2026-04-18T10:01:33.342Z</time></trkpt><trkpt lat="43.3967614" lon="10.8849713"><ele>406.0</ele><time>2026-04-18T10:01:34.343Z</time></trkpt><trkpt lat="43.3968767" lon="10.8847845"><ele>406.0</ele><time>2026-04-18T10:01:35.342Z</time></trkpt><trkpt lat="43.3969886" lon="10.8845945"><ele>406.0</ele><time>2026-04-18T10:01:36.342Z</time></trkpt><trkpt lat="43.3970898" lon="10.8844087"><ele>406.0</ele><time>2026-04-18T10:01:37.342Z</time></trkpt><trkpt lat="43.3971791" lon="10.8842337"><ele>406.75</ele><time>2026-04-18T10:01:38.341Z</time></trkpt><trkpt lat="43.3972433" lon="10.8840663"><ele>407.5</ele><time>2026-04-18T10:01:39.342Z</time></trkpt><trkpt lat="43.3972766" lon="10.8838945"><ele>408.25</ele><time>2026-04-18T10:01:40.342Z</time></trkpt><trkpt lat="43.3972721" lon="10.8837114"><ele>409.0</ele><time>2026-04-18T10:01:41.342Z</time></trkpt><trkpt lat="43.397242" lon="10.8835051"><ele>411.33333333333337</ele><time>2026-04-18T10:01:42.345Z</time></trkpt><trkpt lat="43.3972079" lon="10.8832756"><ele>413.66666666666663</ele><time>2026-04-18T10:01:43.345Z</time></trkpt><trkpt lat="43.3971746" lon="10.8830408"><ele>416.0</ele><time>2026-04-18T10:01:44.344Z</time></trkpt><trkpt lat="43.39716" lon="10.882798"><ele>411.3333333333333</ele><time>2026-04-18T10:01:45.345Z</time></trkpt><trkpt lat="43.3971548" lon="10.8825553"><ele>406.66666666666663</ele><time>2026-04-18T10:01:46.342Z</time></trkpt><trkpt lat="43.3971465" lon="10.8823088"><ele>402.0</ele><time>2026-04-18T10:01:47.345Z</time></trkpt><trkpt lat="43.397116" lon="10.8820588"><ele>402.0</ele><time>2026-04-18T10:01:48.345Z</time></trkpt><trkpt lat="43.3970648" lon="10.8817944"><ele>402.0</ele><time>2026-04-18T10:01:49.345Z</time></trkpt><trkpt lat="43.3970124" lon="10.8815221"><ele>402.0</ele><time>2026-04-18T10:01:50.343Z</time></trkpt><trkpt lat="43.3969576" lon="10.8812526"><ele>406.0</ele><time>2026-04-18T10:01:51.344Z</time></trkpt><trkpt lat="43.396908" lon="10.8809996"><ele>410.0</ele><time>2026-04-18T10:01:52.346Z</time></trkpt><trkpt lat="43.3968663" lon="10.8807666"><ele>414.0</ele><time>2026-04-18T10:01:53.345Z</time></trkpt><trkpt lat="43.3968312" lon="10.880537"><ele>417.33333333333337</ele><time>2026-04-18T10:01:54.345Z</time></trkpt><trkpt lat="43.3968058" lon="10.8802974"><ele>420.6666666666667</ele><time>2026-04-18T10:01:55.342Z</time></trkpt><trkpt lat="43.396783" lon="10.880061"><ele>424.0</ele><time>2026-04-18T10:01:56.345Z</time></trkpt><trkpt lat="43.3967539" lon="10.8798463"><ele>427.0</ele><time>2026-04-18T10:01:57.343Z</time></trkpt><trkpt lat="43.396725" lon="10.8796455"><ele>430.0</ele><time>2026-04-18T10:01:58.343Z</time></trkpt><trkpt lat="43.3967006" lon="10.8794408"><ele>433.0</ele><time>2026-04-18T10:01:59.343Z</time></trkpt><trkpt lat="43.3966799" lon="10.8792287"><ele>434.75</ele><time>2026-04-18T10:02:00.343Z</time></trkpt><trkpt lat="43.396674" lon="10.8790126"><ele>436.5</ele><time>2026-04-18T10:02:01.343Z</time></trkpt><trkpt lat="43.3966851" lon="10.8788066"><ele>438.25</ele><time>2026-04-18T10:02:02.346Z</time></trkpt><trkpt lat="43.3967159" lon="10.8786212"><ele>440.0</ele><time>2026-04-18T10:02:03.343Z</time></trkpt><trkpt lat="43.3967721" lon="10.878441"><ele>439.66666666666663</ele><time>2026-04-18T10:02:04.344Z</time></trkpt><trkpt lat="43.3968442" lon="10.8782677"><ele>439.33333333333337</ele><time>2026-04-18T10:02:05.346Z</time></trkpt><trkpt lat="43.3969083" lon="10.8780779"><ele>439.0</ele><time>2026-04-18T10:02:06.345Z</time></trkpt><trkpt lat="43.3969568" lon="10.8778617"><ele>439.0</ele><time>2026-04-18T10:02:07.345Z</time></trkpt><trkpt lat="43.3969954" lon="10.8776325"><ele>439.0</ele><time>2026-04-18T10:02:08.347Z</time></trkpt><trkpt lat="43.3970332" lon="10.8773858"><ele>439.0</ele><time>2026-04-18T10:02:09.346Z</time></trkpt><trkpt lat="43.3970698" lon="10.8771348"><ele>439.0</ele><time>2026-04-18T10:02:10.343Z</time></trkpt><trkpt lat="43.3971004" lon="10.8768914"><ele>439.0</ele><time>2026-04-18T10:02:11.344Z</time></trkpt><trkpt lat="43.3971249" lon="10.8766663"><ele>439.0</ele><time>2026-04-18T10:02:12.343Z</time></trkpt><trkpt lat="43.3971492" lon="10.8764562"><ele>448.33333333333337</ele><time>2026-04-18T10:02:13.346Z</time></trkpt><trkpt lat="43.3971851" lon="10.8762523"><ele>457.66666666666663</ele><time>2026-04-18T10:02:14.346Z</time></trkpt><trkpt lat="43.3972385" lon="10.8760468"><ele>467.0</ele><time>2026-04-18T10:02:15.342Z</time></trkpt><trkpt lat="43.3973046" lon="10.8758374"><ele>467.0</ele><time>2026-04-18T10:02:16.343Z</time></trkpt><trkpt lat="43.3973857" lon="10.8756257"><ele>467.0</ele><time>2026-04-18T10:02:17.345Z</time></trkpt><trkpt lat="43.3974669" lon="10.8754238"><ele>467.0</ele><time>2026-04-18T10:02:18.342Z</time></trkpt><trkpt lat="43.3975459" lon="10.8752272"><ele>466.25</ele><time>2026-04-18T10:02:19.342Z</time></trkpt><trkpt lat="43.3976106" lon="10.875035"><ele>465.5</ele><time>2026-04-18T10:02:20.345Z</time></trkpt><trkpt lat="43.3976696" lon="10.8748505"><ele>464.75</ele><time>2026-04-18T10:02:21.344Z</time></trkpt><trkpt lat="43.3977337" lon="10.8746736"><ele>464.0</ele><time>2026-04-18T10:02:22.345Z</time></trkpt><trkpt lat="43.3978011" lon="10.8745129"><ele>464.0</ele><time>2026-04-18T10:02:23.342Z</time></trkpt><trkpt lat="43.3978756" lon="10.8743679"><ele>464.0</ele><time>2026-04-18T10:02:24.343Z</time></trkpt><trkpt lat="43.3979595" lon="10.8742412"><ele>464.0</ele><time>2026-04-18T10:02:25.345Z</time></trkpt><trkpt lat="43.3980516" lon="10.8741164"><ele>464.0</ele><time>2026-04-18T10:02:26.346Z</time></trkpt><trkpt lat="43.3981422" lon="10.8739939"><ele>466.79999999999995</ele><time>2026-04-18T10:02:27.345Z</time></trkpt><trkpt lat="43.3982284" lon="10.873877"><ele>469.59999999999997</ele><time>2026-04-18T10:02:28.342Z</time></trkpt><trkpt lat="43.3983071" lon="10.8737702"><ele>472.4</ele><time>2026-04-18T10:02:29.343Z</time></trkpt><trkpt lat="43.3983769" lon="10.873665"><ele>475.2</ele><time>2026-04-18T10:02:30.343Z</time></trkpt><trkpt lat="43.3984416" lon="10.873544"><ele>478.0</ele><time>2026-04-18T10:02:31.343Z</time></trkpt><trkpt lat="43.3985033" lon="10.873417"><ele>478.0</ele><time>2026-04-18T10:02:32.343Z</time></trkpt><trkpt lat="43.3985614" lon="10.8732813"><ele>478.0</ele><time>2026-04-18T10:02:33.343Z</time></trkpt><trkpt lat="43.3986226" lon="10.8731407"><ele>478.0</ele><time>2026-04-18T10:02:34.343Z</time></trkpt><trkpt lat="43.3986873" lon="10.8730014"><ele>478.0</ele><time>2026-04-18T10:02:35.345Z</time></trkpt><trkpt lat="43.3987568" lon="10.8728559"><ele>478.0</ele><time>2026-04-18T10:02:36.343Z</time></trkpt><trkpt lat="43.3988339" lon="10.8727073"><ele>478.0</ele><time>2026-04-18T10:02:37.344Z</time></trkpt><trkpt lat="43.3989126" lon="10.8725586"><ele>478.0</ele><time>2026-04-18T10:02:38.344Z</time></trkpt><trkpt lat="43.3989943" lon="10.8724171"><ele>478.0</ele><time>2026-04-18T10:02:39.346Z</time></trkpt><trkpt lat="43.3990782" lon="10.8722878"><ele>481.0</ele><time>2026-04-18T10:02:40.342Z</time></trkpt><trkpt lat="43.3991598" lon="10.8721678"><ele>484.0</ele><time>2026-04-18T10:02:41.345Z</time></trkpt><trkpt lat="43.3992446" lon="10.872059"><ele>487.0</ele><time>2026-04-18T10:02:42.345Z</time></trkpt><trkpt lat="43.3993285" lon="10.871957"><ele>490.0</ele><time>2026-04-18T10:02:43.342Z</time></trkpt><trkpt lat="43.3994059" lon="10.8718447"><ele>490.5</ele><time>2026-04-18T10:02:44.342Z</time></trkpt><trkpt lat="43.3994827" lon="10.871721"><ele>491.0</ele><time>2026-04-18T10:02:45.342Z</time></trkpt><trkpt lat="43.3995441" lon="10.8715871"><ele>491.5</ele><time>2026-04-18T10:02:46.342Z</time></trkpt><trkpt lat="43.3995965" lon="10.8714502"><ele>492.0</ele><time>2026-04-18T10:02:47.343Z</time></trkpt><trkpt lat="43.3996437" lon="10.8713118"><ele>493.0</ele><time>2026-04-18T10:02:48.343Z</time></trkpt><trkpt lat="43.3996857" lon="10.8711702"><ele>494.00000000000006</ele><time>2026-04-18T10:02:49.342Z</time></trkpt><trkpt lat="43.3997174" lon="10.871036"><ele>495.00000000000006</ele><time>2026-04-18T10:02:50.342Z</time></trkpt><trkpt lat="43.3997374" lon="10.8708888"><ele>496.0</ele><time>2026-04-18T10:02:51.343Z</time></trkpt><trkpt lat="43.3997505" lon="10.8707387"><ele>497.0</ele><time>2026-04-18T10:02:52.344Z</time></trkpt><trkpt lat="43.3997535" lon="10.870594"><ele>497.0</ele><time>2026-04-18T10:02:53.343Z</time></trkpt><trkpt lat="43.3997446" lon="10.8704467"><ele>497.00000000000006</ele><time>2026-04-18T10:02:54.343Z</time></trkpt><trkpt lat="43.3997248" lon="10.8703035"><ele>497.00000000000006</ele><time>2026-04-18T10:02:55.345Z</time></trkpt><trkpt lat="43.3997102" lon="10.8701682"><ele>497.0</ele><time>2026-04-18T10:02:56.346Z</time></trkpt><trkpt lat="43.3996952" lon="10.87003"><ele>497.0</ele><time>2026-04-18T10:02:57.346Z</time></trkpt><trkpt lat="43.3996816" lon="10.8698814"><ele>497.6</ele><time>2026-04-18T10:02:58.343Z</time></trkpt><trkpt lat="43.399668" lon="10.8697257"><ele>498.20000000000005</ele><time>2026-04-18T10:02:59.343Z</time></trkpt><trkpt lat="43.3996545" lon="10.8695713"><ele>498.8</ele><time>2026-04-18T10:03:00.344Z</time></trkpt><trkpt lat="43.3996427" lon="10.8694286"><ele>499.4</ele><time>2026-04-18T10:03:01.345Z</time></trkpt><trkpt lat="43.3996275" lon="10.8693001"><ele>500.0</ele><time>2026-04-18T10:03:02.346Z</time></trkpt><trkpt lat="43.3996133" lon="10.8691796"><ele>500.16666666666663</ele><time>2026-04-18T10:03:03.348Z</time></trkpt><trkpt lat="43.3995984" lon="10.8690651"><ele>500.3333333333333</ele><time>2026-04-18T10:03:04.344Z</time></trkpt><trkpt lat="43.3996046" lon="10.8689701"><ele>500.5</ele><time>2026-04-18T10:03:05.346Z</time></trkpt><trkpt lat="43.3996311" lon="10.8688915"><ele>500.66666666666663</ele><time>2026-04-18T10:03:06.346Z</time></trkpt><trkpt lat="43.3996887" lon="10.8687654"><ele>500.8333333333333</ele><time>2026-04-18T10:03:08.343Z</time></trkpt><trkpt lat="43.3997199" lon="10.8686555"><ele>501.0</ele><time>2026-04-18T10:03:10.343Z</time></trkpt><trkpt lat="43.3996417" lon="10.8686769"><ele>501.0</ele><time>2026-04-18T10:12:07.343Z</time></trkpt><trkpt lat="43.3995815" lon="10.8686513"><ele>501.0</ele><time>2026-04-18T10:12:11.344Z</time></trkpt><trkpt lat="43.3995061" lon="10.8685828"><ele>501.0</ele><time>2026-04-18T10:12:15.346Z</time></trkpt><trkpt lat="43.3994387" lon="10.8685034"><ele>501.0</ele><time>2026-04-18T10:12:18.344Z</time></trkpt><trkpt lat="43.3993965" lon="10.8683462"><ele>501.0</ele><time>2026-04-18T10:12:20.347Z</time></trkpt><trkpt lat="43.3993769" lon="10.8682334"><ele>501.0</ele><time>2026-04-18T10:12:21.342Z</time></trkpt><trkpt lat="43.3993554" lon="10.8681127"><ele>501.0</ele><time>2026-04-18T10:12:22.345Z</time></trkpt><trkpt lat="43.3993274" lon="10.8679884"><ele>501.0</ele><time>2026-04-18T10:12:23.345Z</time></trkpt><trkpt lat="43.3992985" lon="10.8678549"><ele>501.0</ele><time>2026-04-18T10:12:24.345Z</time></trkpt><trkpt lat="43.3992776" lon="10.8677088"><ele>501.0</ele><time>2026-04-18T10:12:25.345Z</time></trkpt><trkpt lat="43.3992595" lon="10.8675588"><ele>501.0</ele><time>2026-04-18T10:12:26.345Z</time></trkpt><trkpt lat="43.3992429" lon="10.8674093"><ele>502.5</ele><time>2026-04-18T10:12:27.346Z</time></trkpt><trkpt lat="43.3992383" lon="10.8672469"><ele>504.0</ele><time>2026-04-18T10:12:28.346Z</time></trkpt><trkpt lat="43.3992415" lon="10.8670776"><ele>505.5</ele><time>2026-04-18T10:12:29.346Z</time></trkpt><trkpt lat="43.399243" lon="10.8669054"><ele>507.0</ele><time>2026-04-18T10:12:30.346Z</time></trkpt><trkpt lat="43.399245" lon="10.8667295"><ele>508.75</ele><time>2026-04-18T10:12:31.345Z</time></trkpt><trkpt lat="43.3992468" lon="10.8665584"><ele>510.5</ele><time>2026-04-18T10:12:32.345Z</time></trkpt><trkpt lat="43.3992484" lon="10.8663908"><ele>512.25</ele><time>2026-04-18T10:12:33.347Z</time></trkpt><trkpt lat="43.3992473" lon="10.8662423"><ele>514.0</ele><time>2026-04-18T10:12:34.344Z</time></trkpt><trkpt lat="43.3992529" lon="10.8660999"><ele>514.0</ele><time>2026-04-18T10:12:35.343Z</time></trkpt><trkpt lat="43.3992597" lon="10.865958"><ele>514.0</ele><time>2026-04-18T10:12:36.342Z</time></trkpt><trkpt lat="43.3992614" lon="10.8658204"><ele>514.0</ele><time>2026-04-18T10:12:37.344Z</time></trkpt><trkpt lat="43.399251" lon="10.8656848"><ele>514.0</ele><time>2026-04-18T10:12:38.342Z</time></trkpt><trkpt lat="43.3992291" lon="10.865552"><ele>514.0</ele><time>2026-04-18T10:12:39.347Z</time></trkpt><trkpt lat="43.399201" lon="10.8654239"><ele>514.6</ele><time>2026-04-18T10:12:40.345Z</time></trkpt><trkpt lat="43.3991762" lon="10.8652931"><ele>515.2</ele><time>2026-04-18T10:12:41.342Z</time></trkpt><trkpt lat="43.3991649" lon="10.8651467"><ele>515.8000000000001</ele><time>2026-04-18T10:12:42.343Z</time></trkpt><trkpt lat="43.3991655" lon="10.864985"><ele>516.4</ele><time>2026-04-18T10:12:43.342Z</time></trkpt><trkpt lat="43.3991721" lon="10.8648111"><ele>517.0</ele><time>2026-04-18T10:12:44.343Z</time></trkpt><trkpt lat="43.3991844" lon="10.8646184"><ele>517.0</ele><time>2026-04-18T10:12:45.345Z</time></trkpt><trkpt lat="43.3992019" lon="10.8644213"><ele>517.0</ele><time>2026-04-18T10:12:46.342Z</time></trkpt><trkpt lat="43.399217" lon="10.8642229"><ele>517.0</ele><time>2026-04-18T10:12:47.342Z</time></trkpt><trkpt lat="43.3992289" lon="10.8640166"><ele>517.0</ele><time>2026-04-18T10:12:48.343Z</time></trkpt><trkpt lat="43.3992445" lon="10.8638098"><ele>516.3333333333334</ele><time>2026-04-18T10:12:49.343Z</time></trkpt><trkpt lat="43.3992596" lon="10.8636015"><ele>515.6666666666666</ele><time>2026-04-18T10:12:50.343Z</time></trkpt><trkpt lat="43.3992742" lon="10.8633917"><ele>515.0</ele><time>2026-04-18T10:12:51.343Z</time></trkpt><trkpt lat="43.3992938" lon="10.8631786"><ele>513.3333333333333</ele><time>2026-04-18T10:12:52.343Z</time></trkpt><trkpt lat="43.3993138" lon="10.8629502"><ele>511.66666666666663</ele><time>2026-04-18T10:12:53.346Z</time></trkpt><trkpt lat="43.3993324" lon="10.8627276"><ele>510.0</ele><time>2026-04-18T10:12:54.345Z</time></trkpt><trkpt lat="43.3993498" lon="10.8625117"><ele>508.25</ele><time>2026-04-18T10:12:55.344Z</time></trkpt><trkpt lat="43.3993648" lon="10.8623088"><ele>506.5</ele><time>2026-04-18T10:12:56.345Z</time></trkpt><trkpt lat="43.3993792" lon="10.8621208"><ele>504.75</ele><time>2026-04-18T10:12:57.344Z</time></trkpt><trkpt lat="43.3993947" lon="10.8619443"><ele>503.0</ele><time>2026-04-18T10:12:58.342Z</time></trkpt><trkpt lat="43.3994111" lon="10.8617688"><ele>501.0</ele><time>2026-04-18T10:12:59.347Z</time></trkpt><trkpt lat="43.3994231" lon="10.8615938"><ele>499.0</ele><time>2026-04-18T10:13:00.343Z</time></trkpt><trkpt lat="43.3994348" lon="10.8614234"><ele>497.0</ele><time>2026-04-18T10:13:01.345Z</time></trkpt><trkpt lat="43.3994479" lon="10.8612492"><ele>495.0</ele><time>2026-04-18T10:13:02.346Z</time></trkpt><trkpt lat="43.3994615" lon="10.8610749"><ele>493.75</ele><time>2026-04-18T10:13:03.346Z</time></trkpt><trkpt lat="43.3994745" lon="10.8608986"><ele>492.5</ele><time>2026-04-18T10:13:04.343Z</time></trkpt><trkpt lat="43.399485" lon="10.8607261"><ele>491.25</ele><time>2026-04-18T10:13:05.344Z</time></trkpt><trkpt lat="43.3994948" lon="10.86056"><ele>490.0</ele><time>2026-04-18T10:13:06.343Z</time></trkpt><trkpt lat="43.3995072" lon="10.8604027"><ele>490.0</ele><time>2026-04-18T10:13:07.344Z</time></trkpt><trkpt lat="43.3995196" lon="10.8602478"><ele>490.0</ele><time>2026-04-18T10:13:08.344Z</time></trkpt><trkpt lat="43.3995313" lon="10.8601022"><ele>490.0</ele><time>2026-04-18T10:13:09.345Z</time></trkpt><trkpt lat="43.3995443" lon="10.8599653"><ele>490.0</ele><time>2026-04-18T10:13:10.344Z</time></trkpt><trkpt lat="43.3995547" lon="10.8598353"><ele>490.0</ele><time>2026-04-18T10:13:11.344Z</time></trkpt><trkpt lat="43.3995647" lon="10.8597076"><ele>489.2</ele><time>2026-04-18T10:13:12.345Z</time></trkpt><trkpt lat="43.399575" lon="10.8595838"><ele>488.4</ele><time>2026-04-18T10:13:13.343Z</time></trkpt><trkpt lat="43.3995953" lon="10.8594611"><ele>487.6</ele><time>2026-04-18T10:13:14.344Z</time></trkpt><trkpt lat="43.3996242" lon="10.8593448"><ele>486.8</ele><time>2026-04-18T10:13:15.346Z</time></trkpt><trkpt lat="43.3996727" lon="10.8592454"><ele>486.0</ele><time>2026-04-18T10:13:16.345Z</time></trkpt><trkpt lat="43.3997351" lon="10.8591514"><ele>488.1666666666667</ele><time>2026-04-18T10:13:17.346Z</time></trkpt><trkpt lat="43.3998038" lon="10.8590609"><ele>490.33333333333337</ele><time>2026-04-18T10:13:18.344Z</time></trkpt><trkpt lat="43.3998714" lon="10.8589728"><ele>492.5</ele><time>2026-04-18T10:13:19.345Z</time></trkpt><trkpt lat="43.399935" lon="10.8588865"><ele>494.6666666666667</ele><time>2026-04-18T10:13:20.347Z</time></trkpt><trkpt lat="43.4000033" lon="10.8588173"><ele>496.83333333333337</ele><time>2026-04-18T10:13:21.345Z</time></trkpt><trkpt lat="43.4000647" lon="10.8587424"><ele>499.0</ele><time>2026-04-18T10:13:22.344Z</time></trkpt><trkpt lat="43.4001202" lon="10.8586646"><ele>499.0</ele><time>2026-04-18T10:13:23.345Z</time></trkpt><trkpt lat="43.4001794" lon="10.858591"><ele>499.0</ele><time>2026-04-18T10:13:24.346Z</time></trkpt><trkpt lat="43.4002336" lon="10.8585265"><ele>499.0</ele><time>2026-04-18T10:13:25.343Z</time></trkpt><trkpt lat="43.4003155" lon="10.8584258"><ele>499.0</ele><time>2026-04-18T10:13:27.343Z</time></trkpt><trkpt lat="43.4003886" lon="10.8583295"><ele>499.0</ele><time>2026-04-18T10:13:29.343Z</time></trkpt><trkpt lat="43.4004572" lon="10.8582343"><ele>500.7142857142858</ele><time>2026-04-18T10:13:31.342Z</time></trkpt><trkpt lat="43.400509" lon="10.8581724"><ele>502.42857142857144</ele><time>2026-04-18T10:13:33.342Z</time></trkpt><trkpt lat="43.4005443" lon="10.8580834"><ele>504.14285714285717</ele><time>2026-04-18T10:13:36.345Z</time></trkpt><trkpt lat="43.4005239" lon="10.8579991"><ele>505.8571428571429</ele><time>2026-04-18T10:13:38.343Z</time></trkpt><trkpt lat="43.4004405" lon="10.8579547"><ele>507.57142857142856</ele><time>2026-04-18T10:13:40.343Z</time></trkpt><trkpt lat="43.4003755" lon="10.8579699"><ele>509.2857142857143</ele><time>2026-04-18T10:13:41.345Z</time></trkpt><trkpt lat="43.400299" lon="10.8579989"><ele>511.0</ele><time>2026-04-18T10:13:42.345Z</time></trkpt><trkpt lat="43.400199" lon="10.8580494"><ele>504.75</ele><time>2026-04-18T10:13:43.342Z</time></trkpt><trkpt lat="43.4000865" lon="10.8581086"><ele>498.5</ele><time>2026-04-18T10:13:44.343Z</time></trkpt><trkpt lat="43.3999709" lon="10.8581614"><ele>492.25</ele><time>2026-04-18T10:13:45.341Z</time></trkpt><trkpt lat="43.3998433" lon="10.8582087"><ele>486.0</ele><time>2026-04-18T10:13:46.343Z</time></trkpt><trkpt lat="43.3997282" lon="10.8582483"><ele>485.0</ele><time>2026-04-18T10:13:47.343Z</time></trkpt><trkpt lat="43.3996244" lon="10.8582835"><ele>484.0</ele><time>2026-04-18T10:13:48.342Z</time></trkpt><trkpt lat="43.3995309" lon="10.8583166"><ele>483.0</ele><time>2026-04-18T10:13:49.343Z</time></trkpt><trkpt lat="43.3994477" lon="10.8583484"><ele>482.0</ele><time>2026-04-18T10:13:50.342Z</time></trkpt><trkpt lat="43.399373" lon="10.858386"><ele>481.0</ele><time>2026-04-18T10:13:51.346Z</time></trkpt><trkpt lat="43.3993022" lon="10.8584302"><ele>480.0</ele><time>2026-04-18T10:13:52.342Z</time></trkpt><trkpt lat="43.3992325" lon="10.858485"><ele>480.0</ele><time>2026-04-18T10:13:53.342Z</time></trkpt><trkpt lat="43.3991667" lon="10.8585441"><ele>480.0</ele><time>2026-04-18T10:13:54.342Z</time></trkpt><trkpt lat="43.399106" lon="10.8586171"><ele>480.0</ele><time>2026-04-18T10:13:55.343Z</time></trkpt><trkpt lat="43.3990496" lon="10.8586973"><ele>480.0</ele><time>2026-04-18T10:13:56.342Z</time></trkpt><trkpt lat="43.3989996" lon="10.8587824"><ele>480.0</ele><time>2026-04-18T10:13:57.342Z</time></trkpt><trkpt lat="43.3989531" lon="10.8588708"><ele>480.0</ele><time>2026-04-18T10:13:58.343Z</time></trkpt><trkpt lat="43.3989125" lon="10.8589598"><ele>480.0</ele><time>2026-04-18T10:13:59.341Z</time></trkpt><trkpt lat="43.3988761" lon="10.8590453"><ele>480.0</ele><time>2026-04-18T10:14:00.342Z</time></trkpt><trkpt lat="43.3988473" lon="10.8591273"><ele>480.0</ele><time>2026-04-18T10:14:01.341Z</time></trkpt><trkpt lat="43.3988225" lon="10.859207"><ele>480.0</ele><time>2026-04-18T10:14:02.342Z</time></trkpt><trkpt lat="43.3987654" lon="10.8593478"><ele>480.0</ele><time>2026-04-18T10:14:04.342Z</time></trkpt><trkpt lat="43.398681" lon="10.8594561"><ele>480.0</ele><time>2026-04-18T10:14:06.342Z</time></trkpt><trkpt lat="43.3986336" lon="10.8595281"><ele>476.8</ele><time>2026-04-18T10:14:07.343Z</time></trkpt><trkpt lat="43.3985912" lon="10.8596286"><ele>473.6</ele><time>2026-04-18T10:14:08.342Z</time></trkpt><trkpt lat="43.3985679" lon="10.8597538"><ele>470.4</ele><time>2026-04-18T10:14:09.342Z</time></trkpt><trkpt lat="43.39857" lon="10.8598783"><ele>467.2</ele><time>2026-04-18T10:14:10.341Z</time></trkpt><trkpt lat="43.3985873" lon="10.859998"><ele>464.0</ele><time>2026-04-18T10:14:11.341Z</time></trkpt><trkpt lat="43.3986164" lon="10.8601315"><ele>464.0</ele><time>2026-04-18T10:14:12.342Z</time></trkpt><trkpt lat="43.3986448" lon="10.8602748"><ele>464.0</ele><time>2026-04-18T10:14:13.342Z</time></trkpt><trkpt lat="43.3986641" lon="10.8604294"><ele>464.0</ele><time>2026-04-18T10:14:14.345Z</time></trkpt><trkpt lat="43.3986758" lon="10.8605861"><ele>464.0</ele><time>2026-04-18T10:14:15.342Z</time></trkpt><trkpt lat="43.3986777" lon="10.8607365"><ele>464.0</ele><time>2026-04-18T10:14:16.342Z</time></trkpt><trkpt lat="43.3986678" lon="10.8608733"><ele>464.8333333333333</ele><time>2026-04-18T10:14:17.345Z</time></trkpt><trkpt lat="43.3986477" lon="10.8609964"><ele>465.66666666666663</ele><time>2026-04-18T10:14:18.343Z</time></trkpt><trkpt lat="43.3986177" lon="10.8611063"><ele>466.5</ele><time>2026-04-18T10:14:19.342Z</time></trkpt><trkpt lat="43.3985764" lon="10.8612008"><ele>467.33333333333337</ele><time>2026-04-18T10:14:20.342Z</time></trkpt><trkpt lat="43.3985144" lon="10.8612897"><ele>468.1666666666667</ele><time>2026-04-18T10:14:21.343Z</time></trkpt><trkpt lat="43.3984428" lon="10.8613821"><ele>469.0</ele><time>2026-04-18T10:14:22.342Z</time></trkpt><trkpt lat="43.3983659" lon="10.8614845"><ele>469.0</ele><time>2026-04-18T10:14:23.344Z</time></trkpt><trkpt lat="43.39829" lon="10.8615932"><ele>469.0</ele><time>2026-04-18T10:14:24.342Z</time></trkpt><trkpt lat="43.3982209" lon="10.8617084"><ele>469.0</ele><time>2026-04-18T10:14:25.343Z</time></trkpt><trkpt lat="43.3981578" lon="10.8618248"><ele>469.0</ele><time>2026-04-18T10:14:26.342Z</time></trkpt><trkpt lat="43.3980983" lon="10.8619417"><ele>469.0</ele><time>2026-04-18T10:14:27.343Z</time></trkpt><trkpt lat="43.3980325" lon="10.8620555"><ele>467.6</ele><time>2026-04-18T10:14:28.342Z</time></trkpt><trkpt lat="43.3979579" lon="10.862154"><ele>466.2</ele><time>2026-04-18T10:14:29.342Z</time></trkpt><trkpt lat="43.3978788" lon="10.8622343"><ele>464.80000000000007</ele><time>2026-04-18T10:14:30.343Z</time></trkpt><trkpt lat="43.3977955" lon="10.8623014"><ele>463.40000000000003</ele><time>2026-04-18T10:14:31.342Z</time></trkpt><trkpt lat="43.3977105" lon="10.8623536"><ele>462.0</ele><time>2026-04-18T10:14:32.342Z</time></trkpt><trkpt lat="43.397627" lon="10.8623964"><ele>462.0</ele><time>2026-04-18T10:14:33.343Z</time></trkpt><trkpt lat="43.3975439" lon="10.8624324"><ele>462.00000000000006</ele><time>2026-04-18T10:14:34.342Z</time></trkpt><trkpt lat="43.3974544" lon="10.8624707"><ele>462.00000000000006</ele><time>2026-04-18T10:14:35.343Z</time></trkpt><trkpt lat="43.3973594" lon="10.8625073"><ele>462.0</ele><time>2026-04-18T10:14:36.344Z</time></trkpt><trkpt lat="43.3972622" lon="10.8625319"><ele>462.0</ele><time>2026-04-18T10:14:37.346Z</time></trkpt><trkpt lat="43.3971601" lon="10.8625326"><ele>461.6</ele><time>2026-04-18T10:14:38.345Z</time></trkpt><trkpt lat="43.3970521" lon="10.8625166"><ele>461.20000000000005</ele><time>2026-04-18T10:14:39.343Z</time></trkpt><trkpt lat="43.3969448" lon="10.8624909"><ele>460.8</ele><time>2026-04-18T10:14:40.345Z</time></trkpt><trkpt lat="43.3968487" lon="10.8624609"><ele>460.4</ele><time>2026-04-18T10:14:41.342Z</time></trkpt><trkpt lat="43.396761" lon="10.8624392"><ele>460.0</ele><time>2026-04-18T10:14:42.342Z</time></trkpt><trkpt lat="43.3966793" lon="10.86243"><ele>460.0</ele><time>2026-04-18T10:14:43.343Z</time></trkpt><trkpt lat="43.3965968" lon="10.8624418"><ele>460.0</ele><time>2026-04-18T10:14:44.343Z</time></trkpt><trkpt lat="43.3965076" lon="10.8624681"><ele>460.0</ele><time>2026-04-18T10:14:45.344Z</time></trkpt><trkpt lat="43.3964146" lon="10.8625074"><ele>460.0</ele><time>2026-04-18T10:14:46.342Z</time></trkpt><trkpt lat="43.3963145" lon="10.8625498"><ele>460.0</ele><time>2026-04-18T10:14:47.342Z</time></trkpt><trkpt lat="43.3962093" lon="10.8625973"><ele>457.8</ele><time>2026-04-18T10:14:48.342Z</time></trkpt><trkpt lat="43.3961053" lon="10.8626423"><ele>455.6</ele><time>2026-04-18T10:14:49.342Z</time></trkpt><trkpt lat="43.3960096" lon="10.8626856"><ele>453.4</ele><time>2026-04-18T10:14:50.343Z</time></trkpt><trkpt lat="43.3959243" lon="10.8627236"><ele>451.2</ele><time>2026-04-18T10:14:51.343Z</time></trkpt><trkpt lat="43.3958401" lon="10.8627517"><ele>449.0</ele><time>2026-04-18T10:14:52.342Z</time></trkpt><trkpt lat="43.3957622" lon="10.8627653"><ele>449.0</ele><time>2026-04-18T10:14:53.343Z</time></trkpt><trkpt lat="43.3956802" lon="10.8627566"><ele>449.0</ele><time>2026-04-18T10:14:54.344Z</time></trkpt><trkpt lat="43.3955921" lon="10.8627269"><ele>449.0</ele><time>2026-04-18T10:14:55.342Z</time></trkpt><trkpt lat="43.3954914" lon="10.8626848"><ele>449.0</ele><time>2026-04-18T10:14:56.342Z</time></trkpt><trkpt lat="43.3953855" lon="10.8626425"><ele>449.0</ele><time>2026-04-18T10:14:57.345Z</time></trkpt><trkpt lat="43.3952798" lon="10.8625985"><ele>447.8333333333333</ele><time>2026-04-18T10:14:58.342Z</time></trkpt><trkpt lat="43.3951854" lon="10.862558"><ele>446.66666666666663</ele><time>2026-04-18T10:14:59.342Z</time></trkpt><trkpt lat="43.3951007" lon="10.8625295"><ele>445.5</ele><time>2026-04-18T10:15:00.344Z</time></trkpt><trkpt lat="43.3950301" lon="10.8625097"><ele>444.33333333333337</ele><time>2026-04-18T10:15:01.342Z</time></trkpt><trkpt lat="43.394961" lon="10.8625041"><ele>443.1666666666667</ele><time>2026-04-18T10:15:02.343Z</time></trkpt><trkpt lat="43.3948894" lon="10.8625243"><ele>442.0</ele><time>2026-04-18T10:15:03.344Z</time></trkpt><trkpt lat="43.3948119" lon="10.8625652"><ele>442.0</ele><time>2026-04-18T10:15:04.343Z</time></trkpt><trkpt lat="43.3947284" lon="10.8626176"><ele>442.00000000000006</ele><time>2026-04-18T10:15:05.342Z</time></trkpt><trkpt lat="43.3946405" lon="10.862678"><ele>442.00000000000006</ele><time>2026-04-18T10:15:06.344Z</time></trkpt><trkpt lat="43.3945454" lon="10.8627449"><ele>442.0</ele><time>2026-04-18T10:15:07.342Z</time></trkpt><trkpt lat="43.3944412" lon="10.8628175"><ele>442.0</ele><time>2026-04-18T10:15:08.343Z</time></trkpt><trkpt lat="43.3943313" lon="10.862896"><ele>439.40000000000003</ele><time>2026-04-18T10:15:09.342Z</time></trkpt><trkpt lat="43.3942248" lon="10.862966"><ele>436.80000000000007</ele><time>2026-04-18T10:15:10.346Z</time></trkpt><trkpt lat="43.3941174" lon="10.8630341"><ele>434.2</ele><time>2026-04-18T10:15:11.342Z</time></trkpt><trkpt lat="43.3940207" lon="10.8630868"><ele>431.6</ele><time>2026-04-18T10:15:12.345Z</time></trkpt><trkpt lat="43.3939326" lon="10.8631228"><ele>429.0</ele><time>2026-04-18T10:15:13.346Z</time></trkpt><trkpt lat="43.3938522" lon="10.8631455"><ele>425.79999999999995</ele><time>2026-04-18T10:15:14.344Z</time></trkpt><trkpt lat="43.3937803" lon="10.8631511"><ele>422.59999999999997</ele><time>2026-04-18T10:15:15.346Z</time></trkpt><trkpt lat="43.3936719" lon="10.8630884"><ele>419.4</ele><time>2026-04-18T10:15:17.343Z</time></trkpt><trkpt lat="43.3936197" lon="10.8629286"><ele>416.2</ele><time>2026-04-18T10:15:19.344Z</time></trkpt><trkpt lat="43.3936112" lon="10.8628111"><ele>413.0</ele><time>2026-04-18T10:15:20.344Z</time></trkpt><trkpt lat="43.3936053" lon="10.8626676"><ele>412.0</ele><time>2026-04-18T10:15:21.344Z</time></trkpt><trkpt lat="43.3935935" lon="10.862511"><ele>411.0</ele><time>2026-04-18T10:15:22.343Z</time></trkpt><trkpt lat="43.3935706" lon="10.862347"><ele>410.0</ele><time>2026-04-18T10:15:23.346Z</time></trkpt><trkpt lat="43.393539" lon="10.8621878"><ele>409.0</ele><time>2026-04-18T10:15:24.343Z</time></trkpt><trkpt lat="43.3935031" lon="10.8620327"><ele>409.0</ele><time>2026-04-18T10:15:25.343Z</time></trkpt><trkpt lat="43.3934665" lon="10.8618791"><ele>409.0</ele><time>2026-04-18T10:15:26.344Z</time></trkpt><trkpt lat="43.3934248" lon="10.8617305"><ele>409.0</ele><time>2026-04-18T10:15:27.343Z</time></trkpt><trkpt lat="43.3933797" lon="10.8615918"><ele>409.0</ele><time>2026-04-18T10:15:28.346Z</time></trkpt><trkpt lat="43.3933328" lon="10.8614583"><ele>409.1666666666667</ele><time>2026-04-18T10:15:29.343Z</time></trkpt><trkpt lat="43.3932893" lon="10.8613301"><ele>409.33333333333337</ele><time>2026-04-18T10:15:30.344Z</time></trkpt><trkpt lat="43.3932522" lon="10.8612041"><ele>409.5</ele><time>2026-04-18T10:15:31.344Z</time></trkpt><trkpt lat="43.3932178" lon="10.8610877"><ele>409.66666666666663</ele><time>2026-04-18T10:15:32.343Z</time></trkpt><trkpt lat="43.393189" lon="10.8609824"><ele>409.8333333333333</ele><time>2026-04-18T10:15:33.347Z</time></trkpt><trkpt lat="43.3931676" lon="10.8608845"><ele>410.0</ele><time>2026-04-18T10:15:34.345Z</time></trkpt><trkpt lat="43.3931408" lon="10.8607986"><ele>409.4</ele><time>2026-04-18T10:15:35.345Z</time></trkpt><trkpt lat="43.3930593" lon="10.8606917"><ele>408.8</ele><time>2026-04-18T10:15:37.346Z</time></trkpt><trkpt lat="43.3929561" lon="10.8607152"><ele>408.20000000000005</ele><time>2026-04-18T10:15:39.344Z</time></trkpt><trkpt lat="43.3929143" lon="10.8607913"><ele>407.6</ele><time>2026-04-18T10:15:40.346Z</time></trkpt><trkpt lat="43.3928805" lon="10.8608948"><ele>407.0</ele><time>2026-04-18T10:15:41.345Z</time></trkpt><trkpt lat="43.3928608" lon="10.8610127"><ele>403.0</ele><time>2026-04-18T10:15:42.342Z</time></trkpt><trkpt lat="43.3928568" lon="10.8611593"><ele>399.0</ele><time>2026-04-18T10:15:43.346Z</time></trkpt><trkpt lat="43.3928523" lon="10.861312"><ele>395.0</ele><time>2026-04-18T10:15:44.342Z</time></trkpt><trkpt lat="43.3928388" lon="10.8614584"><ele>391.0</ele><time>2026-04-18T10:15:45.343Z</time></trkpt><trkpt lat="43.3928172" lon="10.8615843"><ele>387.0</ele><time>2026-04-18T10:15:46.342Z</time></trkpt><trkpt lat="43.3927724" lon="10.8616877"><ele>387.0</ele><time>2026-04-18T10:15:47.345Z</time></trkpt><trkpt lat="43.3927158" lon="10.8617697"><ele>387.0</ele><time>2026-04-18T10:15:48.346Z</time></trkpt><trkpt lat="43.3926603" lon="10.8618336"><ele>387.0</ele><time>2026-04-18T10:15:49.343Z</time></trkpt><trkpt lat="43.3926006" lon="10.8618834"><ele>387.0</ele><time>2026-04-18T10:15:50.343Z</time></trkpt><trkpt lat="43.3924878" lon="10.8619026"><ele>387.0</ele><time>2026-04-18T10:15:52.343Z</time></trkpt><trkpt lat="43.39241" lon="10.8617526"><ele>387.0</ele><time>2026-04-18T10:15:54.343Z</time></trkpt><trkpt lat="43.3923816" lon="10.8616571"><ele>387.0</ele><time>2026-04-18T10:15:55.344Z</time></trkpt><trkpt lat="43.3923612" lon="10.8615721"><ele>387.0</ele><time>2026-04-18T10:15:56.343Z</time></trkpt><trkpt lat="43.3923343" lon="10.861448"><ele>387.0</ele><time>2026-04-18T10:15:58.346Z</time></trkpt><trkpt lat="43.3923084" lon="10.8613446"><ele>387.0</ele><time>2026-04-18T10:16:00.349Z</time></trkpt><trkpt lat="43.3922811" lon="10.8612544"><ele>387.0</ele><time>2026-04-18T10:16:01.347Z</time></trkpt><trkpt lat="43.3922428" lon="10.8611415"><ele>387.0</ele><time>2026-04-18T10:16:02.342Z</time></trkpt><trkpt lat="43.3921971" lon="10.8610242"><ele>387.0</ele><time>2026-04-18T10:16:03.346Z</time></trkpt><trkpt lat="43.392149" lon="10.8609142"><ele>387.0</ele><time>2026-04-18T10:16:04.342Z</time></trkpt><trkpt lat="43.3920865" lon="10.8608161"><ele>387.0</ele><time>2026-04-18T10:16:05.343Z</time></trkpt><trkpt lat="43.3920067" lon="10.8607471"><ele>387.0</ele><time>2026-04-18T10:16:06.346Z</time></trkpt><trkpt lat="43.3919149" lon="10.8606954"><ele>382.8</ele><time>2026-04-18T10:16:07.343Z</time></trkpt><trkpt lat="43.391816" lon="10.86065"><ele>378.6</ele><time>2026-04-18T10:16:08.344Z</time></trkpt><trkpt lat="43.3917167" lon="10.8606036"><ele>374.40000000000003</ele><time>2026-04-18T10:16:09.343Z</time></trkpt><trkpt lat="43.391618" lon="10.8605566"><ele>370.20000000000005</ele><time>2026-04-18T10:16:10.343Z</time></trkpt><trkpt lat="43.3915229" lon="10.8605123"><ele>366.0</ele><time>2026-04-18T10:16:11.344Z</time></trkpt><trkpt lat="43.3914368" lon="10.8604612"><ele>366.0</ele><time>2026-04-18T10:16:12.345Z</time></trkpt><trkpt lat="43.3913683" lon="10.8604014"><ele>366.0</ele><time>2026-04-18T10:16:13.346Z</time></trkpt><trkpt lat="43.3913134" lon="10.8603213"><ele>366.0</ele><time>2026-04-18T10:16:14.343Z</time></trkpt><trkpt lat="43.3912705" lon="10.8602166"><ele>366.0</ele><time>2026-04-18T10:16:15.347Z</time></trkpt><trkpt lat="43.3912312" lon="10.8600864"><ele>366.0</ele><time>2026-04-18T10:16:16.343Z</time></trkpt><trkpt lat="43.3911899" lon="10.8599375"><ele>361.75</ele><time>2026-04-18T10:16:17.344Z</time></trkpt><trkpt lat="43.3911481" lon="10.8597763"><ele>357.5</ele><time>2026-04-18T10:16:18.348Z</time></trkpt><trkpt lat="43.391105" lon="10.859609"><ele>353.25</ele><time>2026-04-18T10:16:19.343Z</time></trkpt><trkpt lat="43.3910629" lon="10.8594377"><ele>349.0</ele><time>2026-04-18T10:16:20.343Z</time></trkpt><trkpt lat="43.3910272" lon="10.8592659"><ele>348.25</ele><time>2026-04-18T10:16:21.343Z</time></trkpt><trkpt lat="43.3909988" lon="10.8590942"><ele>347.5</ele><time>2026-04-18T10:16:22.344Z</time></trkpt><trkpt lat="43.3909757" lon="10.858918"><ele>346.75</ele><time>2026-04-18T10:16:23.343Z</time></trkpt><trkpt lat="43.390953" lon="10.8587451"><ele>346.0</ele><time>2026-04-18T10:16:24.346Z</time></trkpt><trkpt lat="43.3909358" lon="10.8585734"><ele>344.6</ele><time>2026-04-18T10:16:25.344Z</time></trkpt><trkpt lat="43.390918" lon="10.858411"><ele>343.20000000000005</ele><time>2026-04-18T10:16:26.347Z</time></trkpt><trkpt lat="43.3909042" lon="10.8582578"><ele>341.79999999999995</ele><time>2026-04-18T10:16:27.346Z</time></trkpt><trkpt lat="43.3908899" lon="10.8581189"><ele>340.4</ele><time>2026-04-18T10:16:28.345Z</time></trkpt><trkpt lat="43.3908691" lon="10.8579983"><ele>339.0</ele><time>2026-04-18T10:16:29.343Z</time></trkpt><trkpt lat="43.3908374" lon="10.8578894"><ele>339.0</ele><time>2026-04-18T10:16:30.345Z</time></trkpt><trkpt lat="43.3907785" lon="10.8577977"><ele>339.0</ele><time>2026-04-18T10:16:31.346Z</time></trkpt><trkpt lat="43.3906866" lon="10.8577182"><ele>339.0</ele><time>2026-04-18T10:16:32.346Z</time></trkpt><trkpt lat="43.3905772" lon="10.8576306"><ele>339.0</ele><time>2026-04-18T10:16:33.342Z</time></trkpt><trkpt lat="43.3904597" lon="10.8575366"><ele>336.0</ele><time>2026-04-18T10:16:34.348Z</time></trkpt><trkpt lat="43.3903386" lon="10.8574425"><ele>333.0</ele><time>2026-04-18T10:16:35.345Z</time></trkpt><trkpt lat="43.3902217" lon="10.8573466"><ele>330.0</ele><time>2026-04-18T10:16:36.343Z</time></trkpt><trkpt lat="43.3901083" lon="10.8572604"><ele>327.0</ele><time>2026-04-18T10:16:37.346Z</time></trkpt><trkpt lat="43.3900012" lon="10.8571856"><ele>327.0</ele><time>2026-04-18T10:16:38.346Z</time></trkpt><trkpt lat="43.3899039" lon="10.8571152"><ele>327.0</ele><time>2026-04-18T10:16:39.346Z</time></trkpt><trkpt lat="43.389819" lon="10.857042"><ele>327.0</ele><time>2026-04-18T10:16:40.343Z</time></trkpt><trkpt lat="43.3897451" lon="10.8569588"><ele>327.0</ele><time>2026-04-18T10:16:41.343Z</time></trkpt><trkpt lat="43.3896762" lon="10.8568659"><ele>327.0</ele><time>2026-04-18T10:16:42.344Z</time></trkpt><trkpt lat="43.3896141" lon="10.8567734"><ele>325.40000000000003</ele><time>2026-04-18T10:16:43.344Z</time></trkpt><trkpt lat="43.389549" lon="10.8566937"><ele>323.8</ele><time>2026-04-18T10:16:44.345Z</time></trkpt><trkpt lat="43.3894715" lon="10.8566222"><ele>322.2</ele><time>2026-04-18T10:16:45.345Z</time></trkpt><trkpt lat="43.3893871" lon="10.8565493"><ele>320.6</ele><time>2026-04-18T10:16:46.344Z</time></trkpt><trkpt lat="43.3893001" lon="10.8564782"><ele>319.0</ele><time>2026-04-18T10:16:47.344Z</time></trkpt><trkpt lat="43.3892165" lon="10.8564112"><ele>319.0</ele><time>2026-04-18T10:16:48.344Z</time></trkpt><trkpt lat="43.3891362" lon="10.8563492"><ele>319.0</ele><time>2026-04-18T10:16:49.345Z</time></trkpt><trkpt lat="43.3890595" lon="10.8562894"><ele>319.0</ele><time>2026-04-18T10:16:50.349Z</time></trkpt><trkpt lat="43.388997" lon="10.8562352"><ele>319.0</ele><time>2026-04-18T10:16:51.348Z</time></trkpt><trkpt lat="43.3889118" lon="10.8561507"><ele>319.0</ele><time>2026-04-18T10:16:53.344Z</time></trkpt><trkpt lat="43.3888565" lon="10.8560946"><ele>319.0</ele><time>2026-04-18T10:16:55.344Z</time></trkpt><trkpt lat="43.3887997" lon="10.8560459"><ele>317.2</ele><time>2026-04-18T10:16:59.344Z</time></trkpt><trkpt lat="43.3887426" lon="10.855989"><ele>315.4</ele><time>2026-04-18T10:17:02.343Z</time></trkpt><trkpt lat="43.3886627" lon="10.8558794"><ele>313.6</ele><time>2026-04-18T10:17:04.345Z</time></trkpt><trkpt lat="43.3886139" lon="10.855795"><ele>311.8</ele><time>2026-04-18T10:17:05.345Z</time></trkpt><trkpt lat="43.3885661" lon="10.8556891"><ele>310.0</ele><time>2026-04-18T10:17:06.344Z</time></trkpt><trkpt lat="43.388515" lon="10.8555703"><ele>310.0</ele><time>2026-04-18T10:17:07.345Z</time></trkpt><trkpt lat="43.3884616" lon="10.8554433"><ele>310.0</ele><time>2026-04-18T10:17:08.345Z</time></trkpt><trkpt lat="43.3884052" lon="10.8553125"><ele>310.0</ele><time>2026-04-18T10:17:09.345Z</time></trkpt><trkpt lat="43.3883498" lon="10.8551854"><ele>310.0</ele><time>2026-04-18T10:17:10.343Z</time></trkpt><trkpt lat="43.3882946" lon="10.8550578"><ele>310.0</ele><time>2026-04-18T10:17:11.345Z</time></trkpt><trkpt lat="43.3882426" lon="10.8549309"><ele>309.4</ele><time>2026-04-18T10:17:12.346Z</time></trkpt><trkpt lat="43.3881915" lon="10.8548129"><ele>308.8</ele><time>2026-04-18T10:17:13.346Z</time></trkpt><trkpt lat="43.3881428" lon="10.8547028"><ele>308.2</ele><time>2026-04-18T10:17:14.346Z</time></trkpt><trkpt lat="43.3880969" lon="10.8546014"><ele>307.6</ele><time>2026-04-18T10:17:15.344Z</time></trkpt><trkpt lat="43.3880381" lon="10.8545044"><ele>307.0</ele><time>2026-04-18T10:17:16.346Z</time></trkpt><trkpt lat="43.3879708" lon="10.8544102"><ele>304.5</ele><time>2026-04-18T10:17:17.343Z</time></trkpt><trkpt lat="43.3878908" lon="10.8543161"><ele>302.0</ele><time>2026-04-18T10:17:18.345Z</time></trkpt><trkpt lat="43.3878022" lon="10.8542211"><ele>299.5</ele><time>2026-04-18T10:17:19.346Z</time></trkpt><trkpt lat="43.3877084" lon="10.854124"><ele>297.0</ele><time>2026-04-18T10:17:20.345Z</time></trkpt><trkpt lat="43.3876162" lon="10.8540298"><ele>296.3333333333333</ele><time>2026-04-18T10:17:21.345Z</time></trkpt><trkpt lat="43.3875373" lon="10.8539445"><ele>295.6666666666667</ele><time>2026-04-18T10:17:22.344Z</time></trkpt><trkpt lat="43.3874689" lon="10.8538621"><ele>295.0</ele><time>2026-04-18T10:17:23.344Z</time></trkpt><trkpt lat="43.3874061" lon="10.8537801"><ele>294.33333333333337</ele><time>2026-04-18T10:17:24.346Z</time></trkpt><trkpt lat="43.3873466" lon="10.8537093"><ele>293.6666666666667</ele><time>2026-04-18T10:17:25.344Z</time></trkpt><trkpt lat="43.3872838" lon="10.853652"><ele>293.0</ele><time>2026-04-18T10:17:26.344Z</time></trkpt><trkpt lat="43.3872096" lon="10.8536163"><ele>291.2</ele><time>2026-04-18T10:17:27.345Z</time></trkpt><trkpt lat="43.3871236" lon="10.8536064"><ele>289.4</ele><time>2026-04-18T10:17:28.346Z</time></trkpt><trkpt lat="43.3870285" lon="10.8536172"><ele>287.59999999999997</ele><time>2026-04-18T10:17:29.344Z</time></trkpt><trkpt lat="43.3869258" lon="10.8536485"><ele>285.8</ele><time>2026-04-18T10:17:30.344Z</time></trkpt><trkpt lat="43.3868266" lon="10.8536913"><ele>284.0</ele><time>2026-04-18T10:17:31.924Z</time></trkpt><trkpt lat="43.3867024" lon="10.8537552"><ele>284.0</ele><time>2026-04-18T10:17:33.347Z</time></trkpt><trkpt lat="43.3866497" lon="10.8538168"><ele>284.0</ele><time>2026-04-18T10:17:35.347Z</time></trkpt><trkpt lat="43.3866212" lon="10.8539139"><ele>284.0</ele><time>2026-04-18T10:17:37.347Z</time></trkpt><trkpt lat="43.3866027" lon="10.8540996"><ele>284.0</ele><time>2026-04-18T10:17:39.349Z</time></trkpt><trkpt lat="43.386601" lon="10.8542113"><ele>284.0</ele><time>2026-04-18T10:17:40.344Z</time></trkpt><trkpt lat="43.3865969" lon="10.8543199"><ele>284.0</ele><time>2026-04-18T10:17:41.343Z</time></trkpt><trkpt lat="43.3865935" lon="10.8544127"><ele>283.59999999999997</ele><time>2026-04-18T10:17:42.343Z</time></trkpt><trkpt lat="43.3865884" lon="10.8544992"><ele>283.2</ele><time>2026-04-18T10:17:43.343Z</time></trkpt><trkpt lat="43.386573" lon="10.8546438"><ele>282.79999999999995</ele><time>2026-04-18T10:17:45.343Z</time></trkpt><trkpt lat="43.38651" lon="10.8547493"><ele>282.4</ele><time>2026-04-18T10:17:47.342Z</time></trkpt><trkpt lat="43.3863821" lon="10.8548055"><ele>282.0</ele><time>2026-04-18T10:17:49.345Z</time></trkpt><trkpt lat="43.3862836" lon="10.8548004"><ele>279.6666666666667</ele><time>2026-04-18T10:17:50.342Z</time></trkpt><trkpt lat="43.3861928" lon="10.8547999"><ele>277.3333333333333</ele><time>2026-04-18T10:17:51.342Z</time></trkpt><trkpt lat="43.3861167" lon="10.8548122"><ele>275.0</ele><time>2026-04-18T10:17:52.343Z</time></trkpt><trkpt lat="43.3860424" lon="10.8548499"><ele>272.66666666666663</ele><time>2026-04-18T10:17:53.345Z</time></trkpt><trkpt lat="43.3859761" lon="10.8549186"><ele>270.3333333333333</ele><time>2026-04-18T10:17:54.345Z</time></trkpt><trkpt lat="43.3859193" lon="10.8550067"><ele>268.0</ele><time>2026-04-18T10:17:55.344Z</time></trkpt><trkpt lat="43.3858621" lon="10.8550835"><ele>268.0</ele><time>2026-04-18T10:17:56.344Z</time></trkpt><trkpt lat="43.3857947" lon="10.8551317"><ele>268.0</ele><time>2026-04-18T10:17:57.342Z</time></trkpt><trkpt lat="43.3857196" lon="10.8551432"><ele>268.0</ele><time>2026-04-18T10:17:58.345Z</time></trkpt><trkpt lat="43.3856411" lon="10.8551187"><ele>268.0</ele><time>2026-04-18T10:17:59.345Z</time></trkpt><trkpt lat="43.3855564" lon="10.8550762"><ele>268.0</ele><time>2026-04-18T10:18:00.345Z</time></trkpt><trkpt lat="43.3854572" lon="10.8550201"><ele>268.0</ele><time>2026-04-18T10:18:01.341Z</time></trkpt><trkpt lat="43.3853511" lon="10.85496"><ele>265.6</ele><time>2026-04-18T10:18:02.344Z</time></trkpt><trkpt lat="43.3852467" lon="10.854904"><ele>263.20000000000005</ele><time>2026-04-18T10:18:03.347Z</time></trkpt><trkpt lat="43.3851416" lon="10.8548516"><ele>260.8</ele><time>2026-04-18T10:18:04.342Z</time></trkpt><trkpt lat="43.3850396" lon="10.8547976"><ele>258.40000000000003</ele><time>2026-04-18T10:18:05.342Z</time></trkpt><trkpt lat="43.3849425" lon="10.85474"><ele>256.0</ele><time>2026-04-18T10:18:06.344Z</time></trkpt><trkpt lat="43.3848568" lon="10.8546804"><ele>255.99999999999997</ele><time>2026-04-18T10:18:07.345Z</time></trkpt><trkpt lat="43.3847898" lon="10.8546301"><ele>256.0</ele><time>2026-04-18T10:18:08.346Z</time></trkpt><trkpt lat="43.3847279" lon="10.854582"><ele>256.0</ele><time>2026-04-18T10:18:09.343Z</time></trkpt><trkpt lat="43.3846651" lon="10.85454"><ele>256.0</ele><time>2026-04-18T10:18:10.343Z</time></trkpt><trkpt lat="43.3845998" lon="10.8545078"><ele>255.99999999999997</ele><time>2026-04-18T10:18:11.342Z</time></trkpt><trkpt lat="43.384533" lon="10.8544891"><ele>256.0</ele><time>2026-04-18T10:18:12.343Z</time></trkpt><trkpt lat="43.384413" lon="10.8544715"><ele>254.33333333333331</ele><time>2026-04-18T10:18:14.343Z</time></trkpt><trkpt lat="43.3842952" lon="10.8544683"><ele>252.66666666666666</ele><time>2026-04-18T10:18:16.343Z</time></trkpt><trkpt lat="43.3841925" lon="10.8544811"><ele>251.0</ele><time>2026-04-18T10:18:18.345Z</time></trkpt><trkpt lat="43.3841288" lon="10.8545117"><ele>249.33333333333331</ele><time>2026-04-18T10:18:22.345Z</time></trkpt><trkpt lat="43.3840828" lon="10.8545924"><ele>247.66666666666666</ele><time>2026-04-18T10:18:31.342Z</time></trkpt><trkpt lat="43.3840055" lon="10.8546444"><ele>246.0</ele><time>2026-04-18T10:18:33.347Z</time></trkpt><trkpt lat="43.3839315" lon="10.8546495"><ele>246.00000000000003</ele><time>2026-04-18T10:18:35.346Z</time></trkpt><trkpt lat="43.3838625" lon="10.8546004"><ele>246.0</ele><time>2026-04-18T10:18:38.342Z</time></trkpt><trkpt lat="43.3838259" lon="10.8545105"><ele>246.00000000000003</ele><time>2026-04-18T10:18:41.344Z</time></trkpt><trkpt lat="43.3838168" lon="10.8544219"><ele>246.00000000000003</ele><time>2026-04-18T10:18:44.346Z</time></trkpt><trkpt lat="43.3837515" lon="10.8543968"><ele>246.0</ele><time>2026-04-18T10:18:57.345Z</time></trkpt><trkpt lat="43.3837806" lon="10.8544797"><ele>246.00000000000003</ele><time>2026-04-18T10:19:00.346Z</time></trkpt><trkpt lat="43.3838237" lon="10.8545594"><ele>246.00000000000003</ele><time>2026-04-18T10:19:02.347Z</time></trkpt><trkpt lat="43.3838163" lon="10.8546828"><ele>244.83333333333334</ele><time>2026-04-18T10:19:05.343Z</time></trkpt><trkpt lat="43.3837676" lon="10.8547682"><ele>243.66666666666669</ele><time>2026-04-18T10:19:07.344Z</time></trkpt><trkpt lat="43.3836939" lon="10.8548348"><ele>242.5</ele><time>2026-04-18T10:19:09.343Z</time></trkpt><trkpt lat="43.3836055" lon="10.8548522"><ele>241.33333333333334</ele><time>2026-04-18T10:19:11.342Z</time></trkpt><trkpt lat="43.3835213" lon="10.8548419"><ele>240.16666666666669</ele><time>2026-04-18T10:19:13.344Z</time></trkpt><trkpt lat="43.3834371" lon="10.8548386"><ele>239.0</ele><time>2026-04-18T10:19:15.348Z</time></trkpt><trkpt lat="43.3833501" lon="10.8548548"><ele>239.00000000000003</ele><time>2026-04-18T10:19:17.345Z</time></trkpt><trkpt lat="43.3832525" lon="10.8548948"><ele>239.0</ele><time>2026-04-18T10:19:19.346Z</time></trkpt><trkpt lat="43.3831425" lon="10.8549604"><ele>239.0</ele><time>2026-04-18T10:19:21.345Z</time></trkpt><trkpt lat="43.3830823" lon="10.8550045"><ele>239.0</ele><time>2026-04-18T10:19:22.346Z</time></trkpt><trkpt lat="43.3830192" lon="10.8550471"><ele>239.00000000000003</ele><time>2026-04-18T10:19:23.345Z</time></trkpt><trkpt lat="43.3829539" lon="10.8550873"><ele>239.0</ele><time>2026-04-18T10:19:24.343Z</time></trkpt><trkpt lat="43.3828916" lon="10.8551167"><ele>237.66666666666669</ele><time>2026-04-18T10:19:25.346Z</time></trkpt><trkpt lat="43.3827709" lon="10.8551289"><ele>236.33333333333334</ele><time>2026-04-18T10:19:27.343Z</time></trkpt><trkpt lat="43.3827071" lon="10.8551116"><ele>235.0</ele><time>2026-04-18T10:19:28.343Z</time></trkpt><trkpt lat="43.3826422" lon="10.8550833"><ele>233.66666666666669</ele><time>2026-04-18T10:19:29.344Z</time></trkpt><trkpt lat="43.3825752" lon="10.855052"><ele>232.33333333333334</ele><time>2026-04-18T10:19:30.343Z</time></trkpt><trkpt lat="43.3825028" lon="10.8550131"><ele>231.0</ele><time>2026-04-18T10:19:31.345Z</time></trkpt><trkpt lat="43.3824239" lon="10.8549705"><ele>231.0</ele><time>2026-04-18T10:19:32.342Z</time></trkpt><trkpt lat="43.382345" lon="10.8549256"><ele>231.0</ele><time>2026-04-18T10:19:33.343Z</time></trkpt><trkpt lat="43.3822671" lon="10.8548816"><ele>231.0</ele><time>2026-04-18T10:19:34.343Z</time></trkpt><trkpt lat="43.38219" lon="10.8548374"><ele>231.0</ele><time>2026-04-18T10:19:35.343Z</time></trkpt><trkpt lat="43.3821162" lon="10.8547938"><ele>231.0</ele><time>2026-04-18T10:19:36.347Z</time></trkpt><trkpt lat="43.3820432" lon="10.854749"><ele>231.0</ele><time>2026-04-18T10:19:37.342Z</time></trkpt><trkpt lat="43.3819698" lon="10.8547079"><ele>230.42857142857144</ele><time>2026-04-18T10:19:38.345Z</time></trkpt><trkpt lat="43.3818978" lon="10.8546701"><ele>229.85714285714286</ele><time>2026-04-18T10:19:39.345Z</time></trkpt><trkpt lat="43.3818341" lon="10.8546267"><ele>229.28571428571428</ele><time>2026-04-18T10:19:40.343Z</time></trkpt><trkpt lat="43.3817771" lon="10.8545815"><ele>228.71428571428572</ele><time>2026-04-18T10:19:41.344Z</time></trkpt><trkpt lat="43.3817243" lon="10.8545285"><ele>228.14285714285717</ele><time>2026-04-18T10:19:42.346Z</time></trkpt><trkpt lat="43.381674" lon="10.8544663"><ele>227.57142857142858</ele><time>2026-04-18T10:19:43.341Z</time></trkpt><trkpt lat="43.3816346" lon="10.854392"><ele>227.0</ele><time>2026-04-18T10:19:44.342Z</time></trkpt><trkpt lat="43.3816018" lon="10.854309"><ele>226.33333333333334</ele><time>2026-04-18T10:19:45.343Z</time></trkpt><trkpt lat="43.381571" lon="10.8542169"><ele>225.66666666666669</ele><time>2026-04-18T10:19:46.341Z</time></trkpt><trkpt lat="43.3815378" lon="10.8541213"><ele>225.0</ele><time>2026-04-18T10:19:47.343Z</time></trkpt><trkpt lat="43.3814969" lon="10.8540287"><ele>224.33333333333331</ele><time>2026-04-18T10:19:48.342Z</time></trkpt><trkpt lat="43.3814443" lon="10.8539384"><ele>223.66666666666666</ele><time>2026-04-18T10:19:49.343Z</time></trkpt><trkpt lat="43.3813808" lon="10.8538529"><ele>223.0</ele><time>2026-04-18T10:19:50.346Z</time></trkpt><trkpt lat="43.3813064" lon="10.8537653"><ele>223.0</ele><time>2026-04-18T10:19:51.342Z</time></trkpt><trkpt lat="43.381223" lon="10.8536853"><ele>223.0</ele><time>2026-04-18T10:19:52.345Z</time></trkpt><trkpt lat="43.381136" lon="10.8536062"><ele>223.0</ele><time>2026-04-18T10:19:53.342Z</time></trkpt><trkpt lat="43.3810489" lon="10.8535246"><ele>223.0</ele><time>2026-04-18T10:19:54.343Z</time></trkpt><trkpt lat="43.3809637" lon="10.8534445"><ele>223.0</ele><time>2026-04-18T10:19:55.343Z</time></trkpt><trkpt lat="43.3808862" lon="10.853371"><ele>221.99999999999997</ele><time>2026-04-18T10:19:56.342Z</time></trkpt><trkpt lat="43.3808194" lon="10.8533054"><ele>221.0</ele><time>2026-04-18T10:19:57.343Z</time></trkpt><trkpt lat="43.380764" lon="10.8532534"><ele>220.0</ele><time>2026-04-18T10:19:58.344Z</time></trkpt><trkpt lat="43.3806828" lon="10.8531997"><ele>219.0</ele><time>2026-04-18T10:20:00.346Z</time></trkpt><trkpt lat="43.3807327" lon="10.8532791"><ele>217.99999999999997</ele><time>2026-04-18T10:21:40.345Z</time></trkpt><trkpt lat="43.3807977" lon="10.8533452"><ele>217.0</ele><time>2026-04-18T10:21:43.343Z</time></trkpt><trkpt lat="43.3808711" lon="10.8534119"><ele>216.99999999999997</ele><time>2026-04-18T10:21:46.345Z</time></trkpt><trkpt lat="43.3809266" lon="10.8534552"><ele>217.0</ele><time>2026-04-18T10:21:48.345Z</time></trkpt><trkpt lat="43.3809982" lon="10.853519"><ele>217.0</ele><time>2026-04-18T10:21:51.342Z</time></trkpt><trkpt lat="43.3810696" lon="10.8535349"><ele>217.0</ele><time>2026-04-18T10:21:54.343Z</time></trkpt><trkpt lat="43.3811288" lon="10.8534325"><ele>216.99999999999997</ele><time>2026-04-18T10:21:57.345Z</time></trkpt><trkpt lat="43.381142" lon="10.8533261"><ele>217.0</ele><time>2026-04-18T10:21:59.343Z</time></trkpt><trkpt lat="43.3811404" lon="10.853231"><ele>216.99999999999997</ele><time>2026-04-18T10:22:01.342Z</time></trkpt><trkpt lat="43.3811144" lon="10.8531067"><ele>217.0</ele><time>2026-04-18T10:22:03.343Z</time></trkpt><trkpt lat="43.3810926" lon="10.8530152"><ele>217.0</ele><time>2026-04-18T10:22:04.343Z</time></trkpt><trkpt lat="43.3810627" lon="10.8529127"><ele>217.0</ele><time>2026-04-18T10:22:05.342Z</time></trkpt><trkpt lat="43.381023" lon="10.8528017"><ele>216.99999999999997</ele><time>2026-04-18T10:22:06.342Z</time></trkpt><trkpt lat="43.3809771" lon="10.8526848"><ele>217.0</ele><time>2026-04-18T10:22:07.346Z</time></trkpt><trkpt lat="43.3809333" lon="10.8525738"><ele>216.33333333333331</ele><time>2026-04-18T10:22:08.342Z</time></trkpt><trkpt lat="43.3808881" lon="10.8524605"><ele>215.66666666666666</ele><time>2026-04-18T10:22:09.343Z</time></trkpt><trkpt lat="43.3808462" lon="10.852352"><ele>215.0</ele><time>2026-04-18T10:22:10.342Z</time></trkpt><trkpt lat="43.3808006" lon="10.8522473"><ele>214.33333333333331</ele><time>2026-04-18T10:22:11.343Z</time></trkpt><trkpt lat="43.3807535" lon="10.8521409"><ele>213.66666666666666</ele><time>2026-04-18T10:22:12.343Z</time></trkpt><trkpt lat="43.3807083" lon="10.8520417"><ele>213.0</ele><time>2026-04-18T10:22:13.343Z</time></trkpt><trkpt lat="43.3806668" lon="10.8519529"><ele>213.0</ele><time>2026-04-18T10:22:14.344Z</time></trkpt><trkpt lat="43.3806238" lon="10.8518686"><ele>213.0</ele><time>2026-04-18T10:22:15.343Z</time></trkpt><trkpt lat="43.3805789" lon="10.8517796"><ele>213.0</ele><time>2026-04-18T10:22:16.344Z</time></trkpt><trkpt lat="43.380531" lon="10.8516862"><ele>213.0</ele><time>2026-04-18T10:22:17.344Z</time></trkpt><trkpt lat="43.3804824" lon="10.8515874"><ele>213.0</ele><time>2026-04-18T10:22:18.344Z</time></trkpt><trkpt lat="43.3804365" lon="10.8514855"><ele>213.0</ele><time>2026-04-18T10:22:19.343Z</time></trkpt><trkpt lat="43.3803995" lon="10.8513896"><ele>211.60000000000002</ele><time>2026-04-18T10:22:20.343Z</time></trkpt><trkpt lat="43.3803725" lon="10.8513015"><ele>210.20000000000002</ele><time>2026-04-18T10:22:21.344Z</time></trkpt><trkpt lat="43.3803375" lon="10.8511512"><ele>208.8</ele><time>2026-04-18T10:22:23.343Z</time></trkpt><trkpt lat="43.3803133" lon="10.8510138"><ele>207.4</ele><time>2026-04-18T10:22:25.344Z</time></trkpt><trkpt lat="43.3802949" lon="10.850854"><ele>206.0</ele><time>2026-04-18T10:22:27.344Z</time></trkpt><trkpt lat="43.380286" lon="10.8507676"><ele>205.33333333333334</ele><time>2026-04-18T10:22:28.342Z</time></trkpt><trkpt lat="43.3802734" lon="10.8506774"><ele>204.66666666666669</ele><time>2026-04-18T10:22:29.342Z</time></trkpt><trkpt lat="43.380263" lon="10.8505835"><ele>204.0</ele><time>2026-04-18T10:22:30.345Z</time></trkpt><trkpt lat="43.3802518" lon="10.8504947"><ele>203.33333333333331</ele><time>2026-04-18T10:22:31.343Z</time></trkpt><trkpt lat="43.3802122" lon="10.850341"><ele>202.66666666666666</ele><time>2026-04-18T10:22:33.343Z</time></trkpt><trkpt lat="43.3801471" lon="10.8502014"><ele>202.0</ele><time>2026-04-18T10:22:35.343Z</time></trkpt><trkpt lat="43.3800783" lon="10.8500581"><ele>200.85714285714286</ele><time>2026-04-18T10:22:37.346Z</time></trkpt><trkpt lat="43.3800495" lon="10.849981"><ele>199.71428571428572</ele><time>2026-04-18T10:22:38.342Z</time></trkpt><trkpt lat="43.3800244" lon="10.8498945"><ele>198.57142857142856</ele><time>2026-04-18T10:22:39.343Z</time></trkpt><trkpt lat="43.3800041" lon="10.8497985"><ele>197.42857142857144</ele><time>2026-04-18T10:22:40.343Z</time></trkpt><trkpt lat="43.3799893" lon="10.8496962"><ele>196.2857142857143</ele><time>2026-04-18T10:22:41.343Z</time></trkpt><trkpt lat="43.3799758" lon="10.8495924"><ele>195.14285714285714</ele><time>2026-04-18T10:22:42.342Z</time></trkpt><trkpt lat="43.379964" lon="10.84949"><ele>194.0</ele><time>2026-04-18T10:22:43.343Z</time></trkpt><trkpt lat="43.3799466" lon="10.849397"><ele>194.00000000000003</ele><time>2026-04-18T10:22:44.342Z</time></trkpt><trkpt lat="43.3799193" lon="10.8493063"><ele>194.0</ele><time>2026-04-18T10:22:45.343Z</time></trkpt><trkpt lat="43.3798841" lon="10.8492143"><ele>194.0</ele><time>2026-04-18T10:22:46.342Z</time></trkpt><trkpt lat="43.3798422" lon="10.8491248"><ele>194.0</ele><time>2026-04-18T10:22:47.342Z</time></trkpt><trkpt lat="43.3797953" lon="10.8490385"><ele>194.00000000000003</ele><time>2026-04-18T10:22:48.342Z</time></trkpt><trkpt lat="43.379742" lon="10.8489534"><ele>194.0</ele><time>2026-04-18T10:22:49.342Z</time></trkpt><trkpt lat="43.3796871" lon="10.8488714"><ele>191.16666666666669</ele><time>2026-04-18T10:22:50.343Z</time></trkpt><trkpt lat="43.3796333" lon="10.8487941"><ele>188.33333333333334</ele><time>2026-04-18T10:22:51.343Z</time></trkpt><trkpt lat="43.3795743" lon="10.8487211"><ele>185.5</ele><time>2026-04-18T10:22:52.343Z</time></trkpt><trkpt lat="43.3795091" lon="10.8486521"><ele>182.66666666666669</ele><time>2026-04-18T10:22:53.343Z</time></trkpt><trkpt lat="43.3794401" lon="10.8485854"><ele>179.83333333333334</ele><time>2026-04-18T10:22:54.343Z</time></trkpt><trkpt lat="43.3793728" lon="10.8485228"><ele>177.0</ele><time>2026-04-18T10:22:55.342Z</time></trkpt><trkpt lat="43.3793082" lon="10.84846"><ele>177.5</ele><time>2026-04-18T10:22:56.343Z</time></trkpt><trkpt lat="43.3792465" lon="10.8483935"><ele>178.0</ele><time>2026-04-18T10:22:57.343Z</time></trkpt><trkpt lat="43.3791852" lon="10.8483234"><ele>178.5</ele><time>2026-04-18T10:22:58.341Z</time></trkpt><trkpt lat="43.3791339" lon="10.848246"><ele>179.0</ele><time>2026-04-18T10:22:59.342Z</time></trkpt><trkpt lat="43.3790936" lon="10.8481533"><ele>179.5</ele><time>2026-04-18T10:23:00.343Z</time></trkpt><trkpt lat="43.3790609" lon="10.8480512"><ele>180.0</ele><time>2026-04-18T10:23:01.343Z</time></trkpt><trkpt lat="43.379039" lon="10.8479439"><ele>180.0</ele><time>2026-04-18T10:23:02.343Z</time></trkpt><trkpt lat="43.3790243" lon="10.8478323"><ele>180.0</ele><time>2026-04-18T10:23:03.343Z</time></trkpt><trkpt lat="43.3790142" lon="10.8477187"><ele>180.0</ele><time>2026-04-18T10:23:04.343Z</time></trkpt><trkpt lat="43.3790002" lon="10.8476069"><ele>180.0</ele><time>2026-04-18T10:23:05.343Z</time></trkpt><trkpt lat="43.3789772" lon="10.8474947"><ele>180.0</ele><time>2026-04-18T10:23:06.346Z</time></trkpt><trkpt lat="43.3789516" lon="10.847392"><ele>180.0</ele><time>2026-04-18T10:23:07.342Z</time></trkpt><trkpt lat="43.3789268" lon="10.8472978"><ele>180.33333333333334</ele><time>2026-04-18T10:23:08.342Z</time></trkpt><trkpt lat="43.3789033" lon="10.8472007"><ele>180.66666666666666</ele><time>2026-04-18T10:23:09.342Z</time></trkpt><trkpt lat="43.3788813" lon="10.8470957"><ele>181.0</ele><time>2026-04-18T10:23:10.343Z</time></trkpt><trkpt lat="43.3788628" lon="10.8469855"><ele>181.33333333333331</ele><time>2026-04-18T10:23:11.343Z</time></trkpt><trkpt lat="43.3788465" lon="10.8468735"><ele>181.66666666666666</ele><time>2026-04-18T10:23:12.343Z</time></trkpt><trkpt lat="43.3788259" lon="10.8467674"><ele>182.0</ele><time>2026-04-18T10:23:13.342Z</time></trkpt><trkpt lat="43.3787979" lon="10.8466625"><ele>180.6</ele><time>2026-04-18T10:23:14.343Z</time></trkpt><trkpt lat="43.3787582" lon="10.8465483"><ele>179.2</ele><time>2026-04-18T10:23:15.345Z</time></trkpt><trkpt lat="43.3787124" lon="10.8464242"><ele>177.8</ele><time>2026-04-18T10:23:16.346Z</time></trkpt><trkpt lat="43.3786604" lon="10.8463002"><ele>176.4</ele><time>2026-04-18T10:23:17.345Z</time></trkpt><trkpt lat="43.3786054" lon="10.8461841"><ele>175.0</ele><time>2026-04-18T10:23:18.344Z</time></trkpt><trkpt lat="43.378555" lon="10.8460697"><ele>175.6</ele><time>2026-04-18T10:23:19.344Z</time></trkpt><trkpt lat="43.3785095" lon="10.8459536"><ele>176.2</ele><time>2026-04-18T10:23:20.345Z</time></trkpt><trkpt lat="43.3784713" lon="10.8458322"><ele>176.8</ele><time>2026-04-18T10:23:21.346Z</time></trkpt><trkpt lat="43.3784303" lon="10.8457101"><ele>177.4</ele><time>2026-04-18T10:23:22.345Z</time></trkpt><trkpt lat="43.3783866" lon="10.8455956"><ele>178.0</ele><time>2026-04-18T10:23:23.346Z</time></trkpt><trkpt lat="43.3783477" lon="10.8454859"><ele>178.0</ele><time>2026-04-18T10:23:24.347Z</time></trkpt><trkpt lat="43.3783158" lon="10.8453797"><ele>178.0</ele><time>2026-04-18T10:23:25.344Z</time></trkpt><trkpt lat="43.3782867" lon="10.8452674"><ele>178.0</ele><time>2026-04-18T10:23:26.344Z</time></trkpt><trkpt lat="43.3782554" lon="10.8451502"><ele>178.0</ele><time>2026-04-18T10:23:27.347Z</time></trkpt><trkpt lat="43.3782151" lon="10.8450439"><ele>178.0</ele><time>2026-04-18T10:23:28.346Z</time></trkpt><trkpt lat="43.3781682" lon="10.844949"><ele>178.0</ele><time>2026-04-18T10:23:29.346Z</time></trkpt><trkpt lat="43.3781184" lon="10.8448683"><ele>178.16666666666669</ele><time>2026-04-18T10:23:30.344Z</time></trkpt><trkpt lat="43.3780655" lon="10.8447884"><ele>178.33333333333334</ele><time>2026-04-18T10:23:31.344Z</time></trkpt><trkpt lat="43.37801" lon="10.8447048"><ele>178.5</ele><time>2026-04-18T10:23:32.348Z</time></trkpt><trkpt lat="43.3779521" lon="10.84462"><ele>178.66666666666666</ele><time>2026-04-18T10:23:33.346Z</time></trkpt><trkpt lat="43.3778935" lon="10.8445317"><ele>178.83333333333331</ele><time>2026-04-18T10:23:34.344Z</time></trkpt><trkpt lat="43.3778395" lon="10.8444446"><ele>179.0</ele><time>2026-04-18T10:23:35.344Z</time></trkpt><trkpt lat="43.3777924" lon="10.844366"><ele>178.66666666666666</ele><time>2026-04-18T10:23:36.346Z</time></trkpt><trkpt lat="43.3777527" lon="10.844294"><ele>178.33333333333331</ele><time>2026-04-18T10:23:37.343Z</time></trkpt><trkpt lat="43.3776956" lon="10.8441485"><ele>178.0</ele><time>2026-04-18T10:23:39.344Z</time></trkpt><trkpt lat="43.3776816" lon="10.8440586"><ele>177.66666666666666</ele><time>2026-04-18T10:23:40.344Z</time></trkpt><trkpt lat="43.377672" lon="10.8439569"><ele>177.33333333333334</ele><time>2026-04-18T10:23:41.346Z</time></trkpt><trkpt lat="43.3776645" lon="10.8438555"><ele>177.0</ele><time>2026-04-18T10:23:42.345Z</time></trkpt><trkpt lat="43.3776567" lon="10.8437537"><ele>177.0</ele><time>2026-04-18T10:23:43.345Z</time></trkpt><trkpt lat="43.3776455" lon="10.8436537"><ele>177.0</ele><time>2026-04-18T10:23:44.343Z</time></trkpt><trkpt lat="43.3776285" lon="10.8435555"><ele>177.0</ele><time>2026-04-18T10:23:45.345Z</time></trkpt><trkpt lat="43.3776084" lon="10.8434525"><ele>177.0</ele><time>2026-04-18T10:23:46.343Z</time></trkpt><trkpt lat="43.3775824" lon="10.8433519"><ele>177.0</ele><time>2026-04-18T10:23:47.345Z</time></trkpt><trkpt lat="43.3775581" lon="10.8432523"><ele>177.0</ele><time>2026-04-18T10:23:48.344Z</time></trkpt><trkpt lat="43.3775302" lon="10.8431487"><ele>177.0</ele><time>2026-04-18T10:23:49.343Z</time></trkpt><trkpt lat="43.3775043" lon="10.8430555"><ele>177.0</ele><time>2026-04-18T10:23:50.344Z</time></trkpt><trkpt lat="43.3774825" lon="10.8429665"><ele>177.0</ele><time>2026-04-18T10:23:51.346Z</time></trkpt><trkpt lat="43.3774538" lon="10.8428867"><ele>177.0</ele><time>2026-04-18T10:23:52.343Z</time></trkpt><trkpt lat="43.3774204" lon="10.8428108"><ele>177.0</ele><time>2026-04-18T10:23:53.345Z</time></trkpt><trkpt lat="43.3773851" lon="10.8427364"><ele>177.0</ele><time>2026-04-18T10:23:54.342Z</time></trkpt><trkpt lat="43.3773455" lon="10.8426629"><ele>177.0</ele><time>2026-04-18T10:23:55.343Z</time></trkpt><trkpt lat="43.3773039" lon="10.8425897"><ele>175.85714285714286</ele><time>2026-04-18T10:23:56.343Z</time></trkpt><trkpt lat="43.3772616" lon="10.8425166"><ele>174.7142857142857</ele><time>2026-04-18T10:23:57.343Z</time></trkpt><trkpt lat="43.3772186" lon="10.8424449"><ele>173.57142857142856</ele><time>2026-04-18T10:23:58.343Z</time></trkpt><trkpt lat="43.3771705" lon="10.8423775"><ele>172.42857142857144</ele><time>2026-04-18T10:23:59.344Z</time></trkpt><trkpt lat="43.3771229" lon="10.8423141"><ele>171.28571428571428</ele><time>2026-04-18T10:24:00.344Z</time></trkpt><trkpt lat="43.3770781" lon="10.8422513"><ele>170.14285714285714</ele><time>2026-04-18T10:24:01.344Z</time></trkpt><trkpt lat="43.3770317" lon="10.8421896"><ele>169.0</ele><time>2026-04-18T10:24:02.344Z</time></trkpt><trkpt lat="43.3769823" lon="10.8421308"><ele>169.0</ele><time>2026-04-18T10:24:03.346Z</time></trkpt><trkpt lat="43.3769306" lon="10.8420761"><ele>169.0</ele><time>2026-04-18T10:24:04.343Z</time></trkpt><trkpt lat="43.3768801" lon="10.8420215"><ele>169.0</ele><time>2026-04-18T10:24:05.344Z</time></trkpt><trkpt lat="43.3768297" lon="10.8419651"><ele>169.0</ele><time>2026-04-18T10:24:06.344Z</time></trkpt><trkpt lat="43.3767398" lon="10.8418553"><ele>169.0</ele><time>2026-04-18T10:24:08.345Z</time></trkpt><trkpt lat="43.3766497" lon="10.8417361"><ele>169.0</ele><time>2026-04-18T10:24:10.345Z</time></trkpt><trkpt lat="43.3766096" lon="10.8416632"><ele>168.16666666666669</ele><time>2026-04-18T10:24:11.344Z</time></trkpt><trkpt lat="43.3765756" lon="10.8415754"><ele>167.33333333333334</ele><time>2026-04-18T10:24:12.344Z</time></trkpt><trkpt lat="43.376543" lon="10.8414825"><ele>166.5</ele><time>2026-04-18T10:24:13.345Z</time></trkpt><trkpt lat="43.3765054" lon="10.8413901"><ele>165.66666666666666</ele><time>2026-04-18T10:24:14.344Z</time></trkpt><trkpt lat="43.3764653" lon="10.8412988"><ele>164.83333333333331</ele><time>2026-04-18T10:24:15.346Z</time></trkpt><trkpt lat="43.3764193" lon="10.8412104"><ele>164.0</ele><time>2026-04-18T10:24:16.344Z</time></trkpt><trkpt lat="43.3763645" lon="10.8411264"><ele>163.33333333333331</ele><time>2026-04-18T10:24:17.347Z</time></trkpt><trkpt lat="43.3763027" lon="10.8410419"><ele>162.66666666666666</ele><time>2026-04-18T10:24:18.344Z</time></trkpt><trkpt lat="43.3762373" lon="10.8409595"><ele>162.0</ele><time>2026-04-18T10:24:19.345Z</time></trkpt><trkpt lat="43.3761735" lon="10.840878"><ele>161.33333333333334</ele><time>2026-04-18T10:24:20.346Z</time></trkpt><trkpt lat="43.3761102" lon="10.8407978"><ele>160.66666666666669</ele><time>2026-04-18T10:24:21.343Z</time></trkpt><trkpt lat="43.3760481" lon="10.8407223"><ele>160.0</ele><time>2026-04-18T10:24:22.342Z</time></trkpt><trkpt lat="43.3759877" lon="10.840647"><ele>160.0</ele><time>2026-04-18T10:24:23.343Z</time></trkpt><trkpt lat="43.3759266" lon="10.8405682"><ele>160.0</ele><time>2026-04-18T10:24:24.344Z</time></trkpt><trkpt lat="43.375865" lon="10.8404852"><ele>160.0</ele><time>2026-04-18T10:24:25.342Z</time></trkpt><trkpt lat="43.3758033" lon="10.8404028"><ele>160.0</ele><time>2026-04-18T10:24:26.343Z</time></trkpt><trkpt lat="43.3757476" lon="10.8403154"><ele>160.0</ele><time>2026-04-18T10:24:27.342Z</time></trkpt><trkpt lat="43.3756944" lon="10.8402294"><ele>160.0</ele><time>2026-04-18T10:24:28.344Z</time></trkpt><trkpt lat="43.3756441" lon="10.8401465"><ele>159.66666666666669</ele><time>2026-04-18T10:24:29.342Z</time></trkpt><trkpt lat="43.3755962" lon="10.840062"><ele>159.33333333333334</ele><time>2026-04-18T10:24:30.344Z</time></trkpt><trkpt lat="43.3755585" lon="10.8399915"><ele>159.0</ele><time>2026-04-18T10:24:31.342Z</time></trkpt><trkpt lat="43.3755219" lon="10.8398928"><ele>158.66666666666666</ele><time>2026-04-18T10:24:33.342Z</time></trkpt><trkpt lat="43.3755624" lon="10.8397547"><ele>158.33333333333331</ele><time>2026-04-18T10:24:53.344Z</time></trkpt><trkpt lat="43.3755725" lon="10.8396267"><ele>158.0</ele><time>2026-04-18T10:24:55.344Z</time></trkpt><trkpt lat="43.3755548" lon="10.8394581"><ele>158.0</ele><time>2026-04-18T10:24:57.344Z</time></trkpt><trkpt lat="43.3755448" lon="10.8393687"><ele>158.0</ele><time>2026-04-18T10:24:58.342Z</time></trkpt><trkpt lat="43.3755333" lon="10.8392798"><ele>158.0</ele><time>2026-04-18T10:24:59.342Z</time></trkpt><trkpt lat="43.3755329" lon="10.8391121"><ele>158.0</ele><time>2026-04-18T10:25:01.342Z</time></trkpt><trkpt lat="43.3755497" lon="10.8389466"><ele>158.0</ele><time>2026-04-18T10:25:03.344Z</time></trkpt><trkpt lat="43.375545" lon="10.8387807"><ele>157.33333333333331</ele><time>2026-04-18T10:25:05.344Z</time></trkpt><trkpt lat="43.3755395" lon="10.8386293"><ele>156.66666666666666</ele><time>2026-04-18T10:25:07.346Z</time></trkpt><trkpt lat="43.3755646" lon="10.8385036"><ele>156.0</ele><time>2026-04-18T10:25:09.349Z</time></trkpt><trkpt lat="43.3756014" lon="10.8384064"><ele>155.33333333333334</ele><time>2026-04-18T10:25:11.344Z</time></trkpt><trkpt lat="43.3756384" lon="10.83831"><ele>154.66666666666669</ele><time>2026-04-18T10:25:13.343Z</time></trkpt><trkpt lat="43.3756793" lon="10.8382154"><ele>154.0</ele><time>2026-04-18T10:25:15.346Z</time></trkpt><trkpt lat="43.3757361" lon="10.8381325"><ele>153.8</ele><time>2026-04-18T10:25:17.347Z</time></trkpt><trkpt lat="43.375803" lon="10.8380728"><ele>153.60000000000002</ele><time>2026-04-18T10:25:19.344Z</time></trkpt><trkpt lat="43.3758799" lon="10.8380438"><ele>153.4</ele><time>2026-04-18T10:25:21.344Z</time></trkpt><trkpt lat="43.3759629" lon="10.8380421"><ele>153.20000000000002</ele><time>2026-04-18T10:25:23.345Z</time></trkpt><trkpt lat="43.3760625" lon="10.8380643"><ele>153.0</ele><time>2026-04-18T10:25:25.345Z</time></trkpt><trkpt lat="43.376184" lon="10.8381031"><ele>153.0</ele><time>2026-04-18T10:25:27.344Z</time></trkpt><trkpt lat="43.3762987" lon="10.8381334"><ele>153.0</ele><time>2026-04-18T10:25:29.347Z</time></trkpt><trkpt lat="43.3763952" lon="10.8381391"><ele>153.0</ele><time>2026-04-18T10:25:31.346Z</time></trkpt><trkpt lat="43.3764783" lon="10.838126"><ele>153.0</ele><time>2026-04-18T10:25:33.343Z</time></trkpt><trkpt lat="43.3765711" lon="10.8380952"><ele>153.0</ele><time>2026-04-18T10:25:35.346Z</time></trkpt><trkpt lat="43.3766764" lon="10.838086"><ele>151.0</ele><time>2026-04-18T10:25:37.344Z</time></trkpt><trkpt lat="43.3767893" lon="10.8380962"><ele>149.0</ele><time>2026-04-18T10:25:39.345Z</time></trkpt><trkpt lat="43.3768527" lon="10.8381029"><ele>147.0</ele><time>2026-04-18T10:25:40.344Z</time></trkpt><trkpt lat="43.3769165" lon="10.8381084"><ele>145.0</ele><time>2026-04-18T10:25:41.344Z</time></trkpt><trkpt lat="43.3769798" lon="10.8381116"><ele>143.0</ele><time>2026-04-18T10:25:42.344Z</time></trkpt><trkpt lat="43.3770444" lon="10.8381131"><ele>141.0</ele><time>2026-04-18T10:25:43.344Z</time></trkpt><trkpt lat="43.3771083" lon="10.8381124"><ele>139.0</ele><time>2026-04-18T10:25:44.346Z</time></trkpt><trkpt lat="43.3771714" lon="10.8381042"><ele>136.8</ele><time>2026-04-18T10:25:45.344Z</time></trkpt><trkpt lat="43.3772848" lon="10.8380755"><ele>134.60000000000002</ele><time>2026-04-18T10:25:47.345Z</time></trkpt><trkpt lat="43.3773856" lon="10.8380259"><ele>132.4</ele><time>2026-04-18T10:25:49.342Z</time></trkpt><trkpt lat="43.3774592" lon="10.8379331"><ele>130.20000000000002</ele><time>2026-04-18T10:25:51.344Z</time></trkpt><trkpt lat="43.377504" lon="10.8378091"><ele>128.0</ele><time>2026-04-18T10:25:53.342Z</time></trkpt><trkpt lat="43.3775512" lon="10.8376738"><ele>128.0</ele><time>2026-04-18T10:25:55.343Z</time></trkpt><trkpt lat="43.3776018" lon="10.8375348"><ele>128.0</ele><time>2026-04-18T10:25:57.342Z</time></trkpt><trkpt lat="43.3776546" lon="10.837439"><ele>128.0</ele><time>2026-04-18T10:25:59.345Z</time></trkpt><trkpt lat="43.3777469" lon="10.8374126"><ele>128.0</ele><time>2026-04-18T10:26:01.343Z</time></trkpt><trkpt lat="43.3778671" lon="10.8373711"><ele>128.0</ele><time>2026-04-18T10:26:03.344Z</time></trkpt><trkpt lat="43.3779373" lon="10.8373314"><ele>127.99999999999999</ele><time>2026-04-18T10:26:04.342Z</time></trkpt><trkpt lat="43.3780109" lon="10.8372944"><ele>128.0</ele><time>2026-04-18T10:26:05.345Z</time></trkpt><trkpt lat="43.3780817" lon="10.8372674"><ele>128.0</ele><time>2026-04-18T10:26:06.342Z</time></trkpt><trkpt lat="43.378144" lon="10.8372436"><ele>128.0</ele><time>2026-04-18T10:26:07.344Z</time></trkpt><trkpt lat="43.3782393" lon="10.8372048"><ele>127.99999999999999</ele><time>2026-04-18T10:26:09.344Z</time></trkpt><trkpt lat="43.3782982" lon="10.8371308"><ele>128.0</ele><time>2026-04-18T10:26:11.344Z</time></trkpt><trkpt lat="43.3783209" lon="10.8370048"><ele>127.4</ele><time>2026-04-18T10:26:13.343Z</time></trkpt><trkpt lat="43.3783198" lon="10.8368108"><ele>126.80000000000001</ele><time>2026-04-18T10:26:15.344Z</time></trkpt><trkpt lat="43.3783139" lon="10.8366838"><ele>126.2</ele><time>2026-04-18T10:26:16.344Z</time></trkpt><trkpt lat="43.3783104" lon="10.8365522"><ele>125.6</ele><time>2026-04-18T10:26:17.347Z</time></trkpt><trkpt lat="43.3783039" lon="10.836422"><ele>125.0</ele><time>2026-04-18T10:26:18.344Z</time></trkpt><trkpt lat="43.3782954" lon="10.8362948"><ele>125.0</ele><time>2026-04-18T10:26:19.344Z</time></trkpt><trkpt lat="43.3782839" lon="10.8361699"><ele>125.0</ele><time>2026-04-18T10:26:20.344Z</time></trkpt><trkpt lat="43.3782688" lon="10.8360437"><ele>125.0</ele><time>2026-04-18T10:26:21.345Z</time></trkpt><trkpt lat="43.3782518" lon="10.8359096"><ele>125.0</ele><time>2026-04-18T10:26:22.344Z</time></trkpt><trkpt lat="43.3782277" lon="10.8357681"><ele>125.0</ele><time>2026-04-18T10:26:23.345Z</time></trkpt><trkpt lat="43.3782004" lon="10.8356227"><ele>125.25</ele><time>2026-04-18T10:26:24.347Z</time></trkpt><trkpt lat="43.3781703" lon="10.835471"><ele>125.5</ele><time>2026-04-18T10:26:25.342Z</time></trkpt><trkpt lat="43.3781387" lon="10.8353171"><ele>125.75</ele><time>2026-04-18T10:26:26.342Z</time></trkpt><trkpt lat="43.3781025" lon="10.835172"><ele>126.0</ele><time>2026-04-18T10:26:27.344Z</time></trkpt><trkpt lat="43.3780655" lon="10.8350295"><ele>126.4</ele><time>2026-04-18T10:26:28.343Z</time></trkpt><trkpt lat="43.378024" lon="10.8348882"><ele>126.8</ele><time>2026-04-18T10:26:29.344Z</time></trkpt><trkpt lat="43.377976" lon="10.8347514"><ele>127.20000000000002</ele><time>2026-04-18T10:26:30.345Z</time></trkpt><trkpt lat="43.3779311" lon="10.8346201"><ele>127.60000000000001</ele><time>2026-04-18T10:26:31.343Z</time></trkpt><trkpt lat="43.3778867" lon="10.8344963"><ele>128.0</ele><time>2026-04-18T10:26:32.343Z</time></trkpt><trkpt lat="43.3778417" lon="10.8343841"><ele>126.80000000000001</ele><time>2026-04-18T10:26:33.343Z</time></trkpt><trkpt lat="43.3777908" lon="10.8342762"><ele>125.60000000000001</ele><time>2026-04-18T10:26:34.345Z</time></trkpt><trkpt lat="43.3777342" lon="10.8341652"><ele>124.39999999999999</ele><time>2026-04-18T10:26:35.345Z</time></trkpt><trkpt lat="43.3776696" lon="10.8340551"><ele>123.19999999999999</ele><time>2026-04-18T10:26:36.345Z</time></trkpt><trkpt lat="43.377598" lon="10.8339493"><ele>122.0</ele><time>2026-04-18T10:26:37.348Z</time></trkpt><trkpt lat="43.3775177" lon="10.833837"><ele>122.0</ele><time>2026-04-18T10:26:38.346Z</time></trkpt><trkpt lat="43.3774352" lon="10.8337174"><ele>122.0</ele><time>2026-04-18T10:26:39.343Z</time></trkpt><trkpt lat="43.377352" lon="10.8336011"><ele>122.0</ele><time>2026-04-18T10:26:40.344Z</time></trkpt><trkpt lat="43.3772703" lon="10.8335"><ele>122.0</ele><time>2026-04-18T10:26:41.346Z</time></trkpt><trkpt lat="43.3771887" lon="10.8334053"><ele>120.8</ele><time>2026-04-18T10:26:42.344Z</time></trkpt><trkpt lat="43.3771082" lon="10.8333145"><ele>119.6</ele><time>2026-04-18T10:26:43.345Z</time></trkpt><trkpt lat="43.377028" lon="10.8332232"><ele>118.39999999999999</ele><time>2026-04-18T10:26:44.343Z</time></trkpt><trkpt lat="43.3769423" lon="10.8331345"><ele>117.19999999999999</ele><time>2026-04-18T10:26:45.344Z</time></trkpt><trkpt lat="43.3768507" lon="10.8330476"><ele>116.0</ele><time>2026-04-18T10:26:46.344Z</time></trkpt><trkpt lat="43.3767554" lon="10.8329672"><ele>116.0</ele><time>2026-04-18T10:26:47.343Z</time></trkpt><trkpt lat="43.3766567" lon="10.8328851"><ele>116.0</ele><time>2026-04-18T10:26:48.343Z</time></trkpt><trkpt lat="43.3765564" lon="10.8328015"><ele>116.0</ele><time>2026-04-18T10:26:49.344Z</time></trkpt><trkpt lat="43.3764534" lon="10.8327242"><ele>116.0</ele><time>2026-04-18T10:26:50.345Z</time></trkpt><trkpt lat="43.3763469" lon="10.8326495"><ele>116.19999999999999</ele><time>2026-04-18T10:26:51.348Z</time></trkpt><trkpt lat="43.3762461" lon="10.8325701"><ele>116.39999999999999</ele><time>2026-04-18T10:26:52.345Z</time></trkpt><trkpt lat="43.3761496" lon="10.8324917"><ele>116.6</ele><time>2026-04-18T10:26:53.345Z</time></trkpt><trkpt lat="43.3760546" lon="10.8324154"><ele>116.8</ele><time>2026-04-18T10:26:54.345Z</time></trkpt><trkpt lat="43.3759571" lon="10.8323418"><ele>117.0</ele><time>2026-04-18T10:26:55.343Z</time></trkpt><trkpt lat="43.375857" lon="10.8322667"><ele>117.0</ele><time>2026-04-18T10:26:56.344Z</time></trkpt><trkpt lat="43.3757567" lon="10.8321929"><ele>116.99999999999999</ele><time>2026-04-18T10:26:57.348Z</time></trkpt><trkpt lat="43.3756539" lon="10.8321289"><ele>116.99999999999999</ele><time>2026-04-18T10:26:58.345Z</time></trkpt><trkpt lat="43.3755548" lon="10.8320738"><ele>117.0</ele><time>2026-04-18T10:26:59.346Z</time></trkpt><trkpt lat="43.3754614" lon="10.8320233"><ele>117.0</ele><time>2026-04-18T10:27:00.345Z</time></trkpt><trkpt lat="43.3753638" lon="10.8319766"><ele>116.0</ele><time>2026-04-18T10:27:01.344Z</time></trkpt><trkpt lat="43.3752607" lon="10.8319374"><ele>114.99999999999999</ele><time>2026-04-18T10:27:02.344Z</time></trkpt><trkpt lat="43.3751568" lon="10.8319055"><ele>113.99999999999999</ele><time>2026-04-18T10:27:03.345Z</time></trkpt><trkpt lat="43.3750521" lon="10.8318765"><ele>113.0</ele><time>2026-04-18T10:27:04.344Z</time></trkpt><trkpt lat="43.3749454" lon="10.8318484"><ele>112.0</ele><time>2026-04-18T10:27:05.343Z</time></trkpt><trkpt lat="43.3748428" lon="10.8318261"><ele>112.0</ele><time>2026-04-18T10:27:06.346Z</time></trkpt><trkpt lat="43.3747431" lon="10.8318151"><ele>111.99999999999999</ele><time>2026-04-18T10:27:07.343Z</time></trkpt><trkpt lat="43.3746449" lon="10.8318121"><ele>111.99999999999999</ele><time>2026-04-18T10:27:08.345Z</time></trkpt><trkpt lat="43.3745455" lon="10.8318142"><ele>112.0</ele><time>2026-04-18T10:27:09.345Z</time></trkpt><trkpt lat="43.3744424" lon="10.8318209"><ele>112.0</ele><time>2026-04-18T10:27:10.344Z</time></trkpt><trkpt lat="43.3743374" lon="10.8318311"><ele>111.6</ele><time>2026-04-18T10:27:11.344Z</time></trkpt><trkpt lat="43.3742337" lon="10.8318489"><ele>111.19999999999999</ele><time>2026-04-18T10:27:12.344Z</time></trkpt><trkpt lat="43.3741271" lon="10.8318709"><ele>110.8</ele><time>2026-04-18T10:27:13.344Z</time></trkpt><trkpt lat="43.3740262" lon="10.8318962"><ele>110.4</ele><time>2026-04-18T10:27:14.345Z</time></trkpt><trkpt lat="43.3739251" lon="10.8319261"><ele>110.0</ele><time>2026-04-18T10:27:15.345Z</time></trkpt><trkpt lat="43.3738221" lon="10.8319608"><ele>109.8</ele><time>2026-04-18T10:27:16.344Z</time></trkpt><trkpt lat="43.3737199" lon="10.8319952"><ele>109.6</ele><time>2026-04-18T10:27:17.345Z</time></trkpt><trkpt lat="43.3736194" lon="10.8320259"><ele>109.4</ele><time>2026-04-18T10:27:18.345Z</time></trkpt><trkpt lat="43.3735164" lon="10.8320589"><ele>109.2</ele><time>2026-04-18T10:27:19.344Z</time></trkpt><trkpt lat="43.3734055" lon="10.8320937"><ele>109.0</ele><time>2026-04-18T10:27:20.345Z</time></trkpt><trkpt lat="43.3732977" lon="10.8321289"><ele>109.0</ele><time>2026-04-18T10:27:21.346Z</time></trkpt><trkpt lat="43.373197" lon="10.8321628"><ele>109.0</ele><time>2026-04-18T10:27:22.345Z</time></trkpt><trkpt lat="43.3730964" lon="10.8322029"><ele>109.0</ele><time>2026-04-18T10:27:23.344Z</time></trkpt><trkpt lat="43.3729979" lon="10.8322354"><ele>109.0</ele><time>2026-04-18T10:27:24.344Z</time></trkpt><trkpt lat="43.3728969" lon="10.8322639"><ele>109.0</ele><time>2026-04-18T10:27:25.344Z</time></trkpt><trkpt lat="43.3727932" lon="10.8322879"><ele>109.0</ele><time>2026-04-18T10:27:26.346Z</time></trkpt><trkpt lat="43.3726944" lon="10.8323077"><ele>109.0</ele><time>2026-04-18T10:27:27.346Z</time></trkpt><trkpt lat="43.3725936" lon="10.832333"><ele>109.0</ele><time>2026-04-18T10:27:28.344Z</time></trkpt><trkpt lat="43.3724931" lon="10.8323632"><ele>109.0</ele><time>2026-04-18T10:27:29.345Z</time></trkpt><trkpt lat="43.3723945" lon="10.8323919"><ele>109.0</ele><time>2026-04-18T10:27:30.344Z</time></trkpt><trkpt lat="43.3723056" lon="10.8324175"><ele>109.00000000000001</ele><time>2026-04-18T10:27:31.344Z</time></trkpt><trkpt lat="43.3722257" lon="10.8324376"><ele>109.0</ele><time>2026-04-18T10:27:32.345Z</time></trkpt><trkpt lat="43.3721478" lon="10.8324511"><ele>109.0</ele><time>2026-04-18T10:27:33.343Z</time></trkpt><trkpt lat="43.3720623" lon="10.832459"><ele>109.0</ele><time>2026-04-18T10:27:34.345Z</time></trkpt><trkpt lat="43.371975" lon="10.832456"><ele>109.00000000000001</ele><time>2026-04-18T10:27:35.346Z</time></trkpt><trkpt lat="43.3718881" lon="10.832443"><ele>109.0</ele><time>2026-04-18T10:27:36.344Z</time></trkpt><trkpt lat="43.3718014" lon="10.8324272"><ele>108.50000000000001</ele><time>2026-04-18T10:27:37.344Z</time></trkpt><trkpt lat="43.3717161" lon="10.8324107"><ele>108.0</ele><time>2026-04-18T10:27:38.344Z</time></trkpt><trkpt lat="43.3716346" lon="10.8323879"><ele>107.5</ele><time>2026-04-18T10:27:39.345Z</time></trkpt><trkpt lat="43.3715468" lon="10.8323639"><ele>107.0</ele><time>2026-04-18T10:27:40.347Z</time></trkpt><trkpt lat="43.3714569" lon="10.8323312"><ele>106.50000000000001</ele><time>2026-04-18T10:27:41.344Z</time></trkpt><trkpt lat="43.3713697" lon="10.832291"><ele>106.0</ele><time>2026-04-18T10:27:42.343Z</time></trkpt><trkpt lat="43.3712845" lon="10.832246"><ele>105.00000000000001</ele><time>2026-04-18T10:27:43.345Z</time></trkpt><trkpt lat="43.3712029" lon="10.8321943"><ele>104.0</ele><time>2026-04-18T10:27:44.343Z</time></trkpt><trkpt lat="43.3711245" lon="10.8321372"><ele>103.0</ele><time>2026-04-18T10:27:45.346Z</time></trkpt><trkpt lat="43.371054" lon="10.8320803"><ele>102.0</ele><time>2026-04-18T10:27:46.345Z</time></trkpt><trkpt lat="43.3709921" lon="10.8320224"><ele>101.00000000000001</ele><time>2026-04-18T10:27:47.344Z</time></trkpt><trkpt lat="43.3709354" lon="10.8319623"><ele>100.0</ele><time>2026-04-18T10:27:48.346Z</time></trkpt><trkpt lat="43.3708801" lon="10.8319006"><ele>100.00000000000001</ele><time>2026-04-18T10:27:49.342Z</time></trkpt><trkpt lat="43.3708233" lon="10.8318311"><ele>100.0</ele><time>2026-04-18T10:27:50.343Z</time></trkpt><trkpt lat="43.3707652" lon="10.831754"><ele>100.0</ele><time>2026-04-18T10:27:51.345Z</time></trkpt><trkpt lat="43.3707111" lon="10.8316703"><ele>100.0</ele><time>2026-04-18T10:27:52.344Z</time></trkpt><trkpt lat="43.3706576" lon="10.831587"><ele>100.00000000000001</ele><time>2026-04-18T10:27:53.344Z</time></trkpt><trkpt lat="43.3706045" lon="10.8314979"><ele>100.0</ele><time>2026-04-18T10:27:54.345Z</time></trkpt><trkpt lat="43.3705484" lon="10.8313968"><ele>99.6</ele><time>2026-04-18T10:27:55.346Z</time></trkpt><trkpt lat="43.3704886" lon="10.8312822"><ele>99.2</ele><time>2026-04-18T10:27:56.345Z</time></trkpt><trkpt lat="43.3704297" lon="10.831164"><ele>98.80000000000001</ele><time>2026-04-18T10:27:57.346Z</time></trkpt><trkpt lat="43.370373" lon="10.8310408"><ele>98.4</ele><time>2026-04-18T10:27:58.343Z</time></trkpt><trkpt lat="43.370318" lon="10.8309186"><ele>98.0</ele><time>2026-04-18T10:27:59.345Z</time></trkpt><trkpt lat="43.3702589" lon="10.8307944"><ele>98.0</ele><time>2026-04-18T10:28:00.344Z</time></trkpt><trkpt lat="43.3701969" lon="10.8306651"><ele>98.0</ele><time>2026-04-18T10:28:01.345Z</time></trkpt><trkpt lat="43.3701334" lon="10.8305324"><ele>98.0</ele><time>2026-04-18T10:28:02.343Z</time></trkpt><trkpt lat="43.3700699" lon="10.8304053"><ele>98.0</ele><time>2026-04-18T10:28:03.346Z</time></trkpt><trkpt lat="43.3700098" lon="10.8302758"><ele>98.0</ele><time>2026-04-18T10:28:04.347Z</time></trkpt><trkpt lat="43.3699531" lon="10.8301526"><ele>98.0</ele><time>2026-04-18T10:28:05.344Z</time></trkpt><trkpt lat="43.3699012" lon="10.8300353"><ele>98.0</ele><time>2026-04-18T10:28:06.346Z</time></trkpt><trkpt lat="43.3698573" lon="10.8299254"><ele>98.0</ele><time>2026-04-18T10:28:07.343Z</time></trkpt><trkpt lat="43.3698222" lon="10.8298164"><ele>98.0</ele><time>2026-04-18T10:28:08.343Z</time></trkpt><trkpt lat="43.3697893" lon="10.829699"><ele>98.80000000000001</ele><time>2026-04-18T10:28:09.344Z</time></trkpt><trkpt lat="43.3697592" lon="10.8295753"><ele>99.6</ele><time>2026-04-18T10:28:10.343Z</time></trkpt><trkpt lat="43.3697295" lon="10.8294489"><ele>100.4</ele><time>2026-04-18T10:28:11.345Z</time></trkpt><trkpt lat="43.3697011" lon="10.8293149"><ele>101.19999999999999</ele><time>2026-04-18T10:28:12.344Z</time></trkpt><trkpt lat="43.3696683" lon="10.8291777"><ele>102.0</ele><time>2026-04-18T10:28:13.344Z</time></trkpt><trkpt lat="43.3696332" lon="10.8290376"><ele>100.39999999999999</ele><time>2026-04-18T10:28:14.343Z</time></trkpt><trkpt lat="43.369595" lon="10.8288972"><ele>98.8</ele><time>2026-04-18T10:28:15.343Z</time></trkpt><trkpt lat="43.3695583" lon="10.8287556"><ele>97.2</ele><time>2026-04-18T10:28:16.342Z</time></trkpt><trkpt lat="43.3695229" lon="10.8286135"><ele>95.6</ele><time>2026-04-18T10:28:17.343Z</time></trkpt><trkpt lat="43.3694892" lon="10.8284615"><ele>94.0</ele><time>2026-04-18T10:28:18.346Z</time></trkpt><trkpt lat="43.3694588" lon="10.8283148"><ele>94.0</ele><time>2026-04-18T10:28:19.344Z</time></trkpt><trkpt lat="43.3694323" lon="10.8281703"><ele>94.0</ele><time>2026-04-18T10:28:20.344Z</time></trkpt><trkpt lat="43.3694091" lon="10.8280293"><ele>94.0</ele><time>2026-04-18T10:28:21.343Z</time></trkpt><trkpt lat="43.3693893" lon="10.8278928"><ele>94.0</ele><time>2026-04-18T10:28:22.343Z</time></trkpt><trkpt lat="43.3693726" lon="10.8277625"><ele>94.0</ele><time>2026-04-18T10:28:23.342Z</time></trkpt><trkpt lat="43.3693619" lon="10.8276264"><ele>94.2</ele><time>2026-04-18T10:28:24.343Z</time></trkpt><trkpt lat="43.3693601" lon="10.827477"><ele>94.4</ele><time>2026-04-18T10:28:25.345Z</time></trkpt><trkpt lat="43.3693636" lon="10.8273246"><ele>94.6</ele><time>2026-04-18T10:28:26.344Z</time></trkpt><trkpt lat="43.3693707" lon="10.827178"><ele>94.8</ele><time>2026-04-18T10:28:27.343Z</time></trkpt><trkpt lat="43.3693822" lon="10.8270351"><ele>95.0</ele><time>2026-04-18T10:28:28.343Z</time></trkpt><trkpt lat="43.3693958" lon="10.8268965"><ele>94.4</ele><time>2026-04-18T10:28:29.343Z</time></trkpt><trkpt lat="43.3694125" lon="10.8267643"><ele>93.8</ele><time>2026-04-18T10:28:30.343Z</time></trkpt><trkpt lat="43.3694344" lon="10.8266375"><ele>93.19999999999999</ele><time>2026-04-18T10:28:31.344Z</time></trkpt><trkpt lat="43.3694621" lon="10.82651"><ele>92.6</ele><time>2026-04-18T10:28:32.346Z</time></trkpt><trkpt lat="43.3694947" lon="10.8263813"><ele>92.0</ele><time>2026-04-18T10:28:33.344Z</time></trkpt><trkpt lat="43.3695294" lon="10.8262467"><ele>92.0</ele><time>2026-04-18T10:28:34.343Z</time></trkpt><trkpt lat="43.3695667" lon="10.8261108"><ele>92.0</ele><time>2026-04-18T10:28:35.343Z</time></trkpt><trkpt lat="43.369605" lon="10.8259678"><ele>92.0</ele><time>2026-04-18T10:28:36.344Z</time></trkpt><trkpt lat="43.369645" lon="10.8258181"><ele>92.0</ele><time>2026-04-18T10:28:37.343Z</time></trkpt><trkpt lat="43.3696867" lon="10.8256658"><ele>91.6</ele><time>2026-04-18T10:28:38.343Z</time></trkpt><trkpt lat="43.3697241" lon="10.8255169"><ele>91.19999999999999</ele><time>2026-04-18T10:28:39.346Z</time></trkpt><trkpt lat="43.3697551" lon="10.8253776"><ele>90.8</ele><time>2026-04-18T10:28:40.342Z</time></trkpt><trkpt lat="43.3697806" lon="10.825244"><ele>90.4</ele><time>2026-04-18T10:28:41.346Z</time></trkpt><trkpt lat="43.3698007" lon="10.8251144"><ele>90.0</ele><time>2026-04-18T10:28:42.346Z</time></trkpt><trkpt lat="43.3698125" lon="10.8249909"><ele>90.0</ele><time>2026-04-18T10:28:43.345Z</time></trkpt><trkpt lat="43.3698159" lon="10.8248576"><ele>90.0</ele><time>2026-04-18T10:28:44.348Z</time></trkpt><trkpt lat="43.369814" lon="10.8247139"><ele>90.0</ele><time>2026-04-18T10:28:45.343Z</time></trkpt><trkpt lat="43.3698061" lon="10.8245699"><ele>90.0</ele><time>2026-04-18T10:28:46.343Z</time></trkpt><trkpt lat="43.3697914" lon="10.8244293"><ele>90.0</ele><time>2026-04-18T10:28:47.344Z</time></trkpt><trkpt lat="43.3697726" lon="10.8242944"><ele>89.2</ele><time>2026-04-18T10:28:48.343Z</time></trkpt><trkpt lat="43.3697508" lon="10.8241671"><ele>88.4</ele><time>2026-04-18T10:28:49.346Z</time></trkpt><trkpt lat="43.3697253" lon="10.8240474"><ele>87.6</ele><time>2026-04-18T10:28:50.344Z</time></trkpt><trkpt lat="43.369694" lon="10.8239263"><ele>86.8</ele><time>2026-04-18T10:28:51.346Z</time></trkpt><trkpt lat="43.3696544" lon="10.8237997"><ele>86.0</ele><time>2026-04-18T10:28:52.344Z</time></trkpt><trkpt lat="43.3696059" lon="10.8236702"><ele>85.8</ele><time>2026-04-18T10:28:53.342Z</time></trkpt><trkpt lat="43.3695521" lon="10.8235367"><ele>85.6</ele><time>2026-04-18T10:28:54.344Z</time></trkpt><trkpt lat="43.3694921" lon="10.8234049"><ele>85.4</ele><time>2026-04-18T10:28:55.344Z</time></trkpt><trkpt lat="43.3694318" lon="10.8232811"><ele>85.2</ele><time>2026-04-18T10:28:56.342Z</time></trkpt><trkpt lat="43.3693689" lon="10.8231663"><ele>85.0</ele><time>2026-04-18T10:28:57.344Z</time></trkpt><trkpt lat="43.369299" lon="10.8230605"><ele>85.0</ele><time>2026-04-18T10:28:58.344Z</time></trkpt><trkpt lat="43.3692227" lon="10.8229613"><ele>85.0</ele><time>2026-04-18T10:28:59.343Z</time></trkpt><trkpt lat="43.3691347" lon="10.8228617"><ele>85.0</ele><time>2026-04-18T10:29:00.348Z</time></trkpt><trkpt lat="43.3690393" lon="10.8227644"><ele>85.0</ele><time>2026-04-18T10:29:01.343Z</time></trkpt><trkpt lat="43.3689406" lon="10.8226693"><ele>84.75</ele><time>2026-04-18T10:29:02.346Z</time></trkpt><trkpt lat="43.3688388" lon="10.8225763"><ele>84.5</ele><time>2026-04-18T10:29:03.345Z</time></trkpt><trkpt lat="43.3687384" lon="10.8224862"><ele>84.25</ele><time>2026-04-18T10:29:04.343Z</time></trkpt><trkpt lat="43.368637" lon="10.8224"><ele>84.0</ele><time>2026-04-18T10:29:05.345Z</time></trkpt><trkpt lat="43.3685367" lon="10.8223186"><ele>84.0</ele><time>2026-04-18T10:29:06.345Z</time></trkpt><trkpt lat="43.3684382" lon="10.8222338"><ele>84.0</ele><time>2026-04-18T10:29:07.345Z</time></trkpt><trkpt lat="43.3683415" lon="10.8221457"><ele>84.0</ele><time>2026-04-18T10:29:08.344Z</time></trkpt><trkpt lat="43.3682464" lon="10.8220585"><ele>84.0</ele><time>2026-04-18T10:29:09.345Z</time></trkpt><trkpt lat="43.3681518" lon="10.8219679"><ele>84.0</ele><time>2026-04-18T10:29:10.344Z</time></trkpt><trkpt lat="43.368052" lon="10.8218753"><ele>84.0</ele><time>2026-04-18T10:29:11.348Z</time></trkpt><trkpt lat="43.3679475" lon="10.8217884"><ele>84.0</ele><time>2026-04-18T10:29:12.346Z</time></trkpt><trkpt lat="43.3678419" lon="10.8216946"><ele>84.0</ele><time>2026-04-18T10:29:13.344Z</time></trkpt><trkpt lat="43.3677339" lon="10.8215988"><ele>84.25</ele><time>2026-04-18T10:29:14.345Z</time></trkpt><trkpt lat="43.3676282" lon="10.8215054"><ele>84.5</ele><time>2026-04-18T10:29:15.345Z</time></trkpt><trkpt lat="43.3675264" lon="10.8214214"><ele>84.75</ele><time>2026-04-18T10:29:16.344Z</time></trkpt><trkpt lat="43.3674323" lon="10.8213398"><ele>85.0</ele><time>2026-04-18T10:29:17.348Z</time></trkpt><trkpt lat="43.3673459" lon="10.8212603"><ele>85.0</ele><time>2026-04-18T10:29:18.343Z</time></trkpt><trkpt lat="43.3672642" lon="10.8211791"><ele>85.0</ele><time>2026-04-18T10:29:19.343Z</time></trkpt><trkpt lat="43.3671813" lon="10.8210995"><ele>85.0</ele><time>2026-04-18T10:29:20.343Z</time></trkpt><trkpt lat="43.3670966" lon="10.8210205"><ele>85.0</ele><time>2026-04-18T10:29:21.344Z</time></trkpt><trkpt lat="43.3670115" lon="10.8209462"><ele>85.0</ele><time>2026-04-18T10:29:22.343Z</time></trkpt><trkpt lat="43.366925" lon="10.8208764"><ele>84.16666666666666</ele><time>2026-04-18T10:29:23.343Z</time></trkpt><trkpt lat="43.3668457" lon="10.8208137"><ele>83.33333333333333</ele><time>2026-04-18T10:29:24.346Z</time></trkpt><trkpt lat="43.3667769" lon="10.8207526"><ele>82.5</ele><time>2026-04-18T10:29:25.343Z</time></trkpt><trkpt lat="43.3667126" lon="10.8206857"><ele>81.66666666666667</ele><time>2026-04-18T10:29:26.342Z</time></trkpt><trkpt lat="43.3666464" lon="10.820614"><ele>80.83333333333334</ele><time>2026-04-18T10:29:27.343Z</time></trkpt><trkpt lat="43.3665752" lon="10.820541"><ele>80.0</ele><time>2026-04-18T10:29:28.343Z</time></trkpt><trkpt lat="43.3665045" lon="10.8204612"><ele>80.0</ele><time>2026-04-18T10:29:29.342Z</time></trkpt><trkpt lat="43.3664346" lon="10.8203791"><ele>80.0</ele><time>2026-04-18T10:29:30.342Z</time></trkpt><trkpt lat="43.3663679" lon="10.8202872"><ele>80.0</ele><time>2026-04-18T10:29:31.342Z</time></trkpt><trkpt lat="43.3662954" lon="10.8201907"><ele>80.0</ele><time>2026-04-18T10:29:32.341Z</time></trkpt><trkpt lat="43.3662199" lon="10.8200895"><ele>80.0</ele><time>2026-04-18T10:29:33.342Z</time></trkpt><trkpt lat="43.3661449" lon="10.81998"><ele>79.8</ele><time>2026-04-18T10:29:34.343Z</time></trkpt><trkpt lat="43.3660649" lon="10.8198719"><ele>79.6</ele><time>2026-04-18T10:29:35.343Z</time></trkpt><trkpt lat="43.3659894" lon="10.8197558"><ele>79.4</ele><time>2026-04-18T10:29:36.341Z</time></trkpt><trkpt lat="43.3659188" lon="10.8196431"><ele>79.2</ele><time>2026-04-18T10:29:37.342Z</time></trkpt><trkpt lat="43.3658496" lon="10.8195307"><ele>79.0</ele><time>2026-04-18T10:29:38.343Z</time></trkpt><trkpt lat="43.3657752" lon="10.8194189"><ele>79.0</ele><time>2026-04-18T10:29:39.342Z</time></trkpt><trkpt lat="43.3656969" lon="10.8193037"><ele>79.0</ele><time>2026-04-18T10:29:40.343Z</time></trkpt><trkpt lat="43.3656093" lon="10.8191922"><ele>79.0</ele><time>2026-04-18T10:29:41.342Z</time></trkpt><trkpt lat="43.3655223" lon="10.8190733"><ele>79.0</ele><time>2026-04-18T10:29:42.342Z</time></trkpt><trkpt lat="43.36544" lon="10.8189517"><ele>79.0</ele><time>2026-04-18T10:29:43.343Z</time></trkpt><trkpt lat="43.3653595" lon="10.818839"><ele>79.0</ele><time>2026-04-18T10:29:44.343Z</time></trkpt><trkpt lat="43.3652845" lon="10.8187339"><ele>79.0</ele><time>2026-04-18T10:29:45.343Z</time></trkpt><trkpt lat="43.3652126" lon="10.8186277"><ele>79.0</ele><time>2026-04-18T10:29:46.343Z</time></trkpt><trkpt lat="43.3651411" lon="10.8185193"><ele>79.0</ele><time>2026-04-18T10:29:47.343Z</time></trkpt><trkpt lat="43.3650742" lon="10.8184134"><ele>78.4</ele><time>2026-04-18T10:29:48.342Z</time></trkpt><trkpt lat="43.3650095" lon="10.8183111"><ele>77.80000000000001</ele><time>2026-04-18T10:29:49.341Z</time></trkpt><trkpt lat="43.364945" lon="10.8182104"><ele>77.19999999999999</ele><time>2026-04-18T10:29:50.342Z</time></trkpt><trkpt lat="43.3648775" lon="10.8181135"><ele>76.6</ele><time>2026-04-18T10:29:51.342Z</time></trkpt><trkpt lat="43.3648112" lon="10.8180169"><ele>76.0</ele><time>2026-04-18T10:29:52.343Z</time></trkpt><trkpt lat="43.3647451" lon="10.8179253"><ele>76.0</ele><time>2026-04-18T10:29:53.341Z</time></trkpt><trkpt lat="43.3646862" lon="10.8178386"><ele>76.0</ele><time>2026-04-18T10:29:54.341Z</time></trkpt><trkpt lat="43.3646314" lon="10.8177542"><ele>76.0</ele><time>2026-04-18T10:29:55.351Z</time></trkpt><trkpt lat="43.3645719" lon="10.8176702"><ele>76.0</ele><time>2026-04-18T10:29:56.343Z</time></trkpt><trkpt lat="43.36451" lon="10.817585"><ele>76.0</ele><time>2026-04-18T10:29:57.343Z</time></trkpt><trkpt lat="43.3644469" lon="10.8174972"><ele>76.0</ele><time>2026-04-18T10:29:58.342Z</time></trkpt><trkpt lat="43.3643862" lon="10.8174057"><ele>76.0</ele><time>2026-04-18T10:29:59.342Z</time></trkpt><trkpt lat="43.3643279" lon="10.817318"><ele>76.0</ele><time>2026-04-18T10:30:00.346Z</time></trkpt><trkpt lat="43.3642745" lon="10.8172393"><ele>76.0</ele><time>2026-04-18T10:30:01.342Z</time></trkpt><trkpt lat="43.364226" lon="10.8171692"><ele>76.0</ele><time>2026-04-18T10:30:02.343Z</time></trkpt><trkpt lat="43.3641798" lon="10.817101"><ele>76.0</ele><time>2026-04-18T10:30:03.342Z</time></trkpt><trkpt lat="43.3641364" lon="10.8170373"><ele>76.0</ele><time>2026-04-18T10:30:04.342Z</time></trkpt><trkpt lat="43.3640505" lon="10.8169165"><ele>75.83333333333333</ele><time>2026-04-18T10:30:06.343Z</time></trkpt><trkpt lat="43.3639811" lon="10.8168051"><ele>75.66666666666666</ele><time>2026-04-18T10:30:08.344Z</time></trkpt><trkpt lat="43.363971" lon="10.8166915"><ele>75.5</ele><time>2026-04-18T10:30:10.346Z</time></trkpt><trkpt lat="43.3640174" lon="10.8165603"><ele>75.33333333333333</ele><time>2026-04-18T10:30:12.342Z</time></trkpt><trkpt lat="43.3640608" lon="10.8164922"><ele>75.16666666666667</ele><time>2026-04-18T10:30:13.342Z</time></trkpt><trkpt lat="43.3641201" lon="10.8164139"><ele>75.0</ele><time>2026-04-18T10:30:14.342Z</time></trkpt><trkpt lat="43.3641964" lon="10.8163268"><ele>75.0</ele><time>2026-04-18T10:30:15.342Z</time></trkpt><trkpt lat="43.3642734" lon="10.8162346"><ele>75.0</ele><time>2026-04-18T10:30:16.341Z</time></trkpt><trkpt lat="43.3643459" lon="10.8161411"><ele>75.0</ele><time>2026-04-18T10:30:17.346Z</time></trkpt><trkpt lat="43.3644129" lon="10.8160565"><ele>75.0</ele><time>2026-04-18T10:30:18.345Z</time></trkpt><trkpt lat="43.3644758" lon="10.8159813"><ele>75.0</ele><time>2026-04-18T10:30:19.344Z</time></trkpt><trkpt lat="43.36453" lon="10.8159169"><ele>75.0</ele><time>2026-04-18T10:30:20.345Z</time></trkpt><trkpt lat="43.3645798" lon="10.8158584"><ele>74.99999999999999</ele><time>2026-04-18T10:30:21.342Z</time></trkpt><trkpt lat="43.3646283" lon="10.8157983"><ele>75.0</ele><time>2026-04-18T10:30:22.343Z</time></trkpt><trkpt lat="43.3646765" lon="10.8157376"><ele>75.0</ele><time>2026-04-18T10:30:23.342Z</time></trkpt><trkpt lat="43.3647319" lon="10.8156823"><ele>75.0</ele><time>2026-04-18T10:30:24.343Z</time></trkpt><trkpt lat="43.3647938" lon="10.8156329"><ele>75.0</ele><time>2026-04-18T10:30:25.342Z</time></trkpt><trkpt lat="43.364855" lon="10.8155814"><ele>74.99999999999999</ele><time>2026-04-18T10:30:26.342Z</time></trkpt><trkpt lat="43.3649201" lon="10.8155204"><ele>75.0</ele><time>2026-04-18T10:30:27.343Z</time></trkpt><trkpt lat="43.36499" lon="10.8154566"><ele>75.33333333333333</ele><time>2026-04-18T10:30:28.342Z</time></trkpt><trkpt lat="43.3650554" lon="10.8153976"><ele>75.66666666666667</ele><time>2026-04-18T10:30:29.343Z</time></trkpt><trkpt lat="43.3651138" lon="10.8153472"><ele>76.0</ele><time>2026-04-18T10:30:30.342Z</time></trkpt><trkpt lat="43.3651719" lon="10.8153102"><ele>76.33333333333334</ele><time>2026-04-18T10:30:31.343Z</time></trkpt><trkpt lat="43.3652362" lon="10.8152819"><ele>76.66666666666667</ele><time>2026-04-18T10:30:32.342Z</time></trkpt><trkpt lat="43.3653163" lon="10.8152578"><ele>77.0</ele><time>2026-04-18T10:30:33.343Z</time></trkpt><trkpt lat="43.3654131" lon="10.8152304"><ele>77.0</ele><time>2026-04-18T10:30:34.342Z</time></trkpt><trkpt lat="43.3655188" lon="10.8152009"><ele>77.0</ele><time>2026-04-18T10:30:35.343Z</time></trkpt><trkpt lat="43.3656306" lon="10.815171"><ele>77.0</ele><time>2026-04-18T10:30:36.343Z</time></trkpt><trkpt lat="43.36574" lon="10.8151441"><ele>77.0</ele><time>2026-04-18T10:30:37.343Z</time></trkpt><trkpt lat="43.3658468" lon="10.815125"><ele>77.0</ele><time>2026-04-18T10:30:38.343Z</time></trkpt><trkpt lat="43.365953" lon="10.8151112"><ele>78.2</ele><time>2026-04-18T10:30:39.346Z</time></trkpt><trkpt lat="43.3660624" lon="10.8151018"><ele>79.4</ele><time>2026-04-18T10:30:40.342Z</time></trkpt><trkpt lat="43.3661697" lon="10.8150997"><ele>80.60000000000001</ele><time>2026-04-18T10:30:41.345Z</time></trkpt><trkpt lat="43.3662746" lon="10.815103"><ele>81.80000000000001</ele><time>2026-04-18T10:30:42.342Z</time></trkpt><trkpt lat="43.3663737" lon="10.8151071"><ele>83.0</ele><time>2026-04-18T10:30:43.343Z</time></trkpt><trkpt lat="43.3664658" lon="10.8151198"><ele>84.5</ele><time>2026-04-18T10:30:44.342Z</time></trkpt><trkpt lat="43.3665482" lon="10.8151351"><ele>86.0</ele><time>2026-04-18T10:30:45.343Z</time></trkpt><trkpt lat="43.3666125" lon="10.8151519"><ele>87.5</ele><time>2026-04-18T10:30:46.342Z</time></trkpt><trkpt lat="43.3666929" lon="10.8151629"><ele>89.0</ele><time>2026-04-18T10:30:48.342Z</time></trkpt><trkpt lat="43.3666655" lon="10.815034"><ele>90.5</ele><time>2026-04-18T10:30:56.343Z</time></trkpt><trkpt lat="43.3666112" lon="10.8149877"><ele>92.0</ele><time>2026-04-18T10:30:57.348Z</time></trkpt><trkpt lat="43.3665403" lon="10.8149606"><ele>92.0</ele><time>2026-04-18T10:30:58.342Z</time></trkpt><trkpt lat="43.366453" lon="10.8149298"><ele>92.0</ele><time>2026-04-18T10:30:59.343Z</time></trkpt><trkpt lat="43.3663572" lon="10.8148893"><ele>92.0</ele><time>2026-04-18T10:31:00.347Z</time></trkpt><trkpt lat="43.3662567" lon="10.814841"><ele>92.0</ele><time>2026-04-18T10:31:01.343Z</time></trkpt><trkpt lat="43.3661509" lon="10.814783"><ele>92.0</ele><time>2026-04-18T10:31:02.345Z</time></trkpt><trkpt lat="43.3660415" lon="10.8147263"><ele>89.75</ele><time>2026-04-18T10:31:03.343Z</time></trkpt><trkpt lat="43.3659343" lon="10.8146615"><ele>87.5</ele><time>2026-04-18T10:31:04.343Z</time></trkpt><trkpt lat="43.365829" lon="10.8145825"><ele>85.25</ele><time>2026-04-18T10:31:05.345Z</time></trkpt><trkpt lat="43.3657211" lon="10.8144937"><ele>83.0</ele><time>2026-04-18T10:31:06.342Z</time></trkpt><trkpt lat="43.365616" lon="10.814398"><ele>82.0</ele><time>2026-04-18T10:31:07.343Z</time></trkpt><trkpt lat="43.3655128" lon="10.8143027"><ele>81.0</ele><time>2026-04-18T10:31:08.342Z</time></trkpt><trkpt lat="43.3654155" lon="10.8142112"><ele>80.0</ele><time>2026-04-18T10:31:09.342Z</time></trkpt><trkpt lat="43.3653141" lon="10.8141264"><ele>79.0</ele><time>2026-04-18T10:31:10.343Z</time></trkpt><trkpt lat="43.3652123" lon="10.8140355"><ele>79.0</ele><time>2026-04-18T10:31:11.343Z</time></trkpt><trkpt lat="43.3651075" lon="10.8139432"><ele>79.0</ele><time>2026-04-18T10:31:12.345Z</time></trkpt><trkpt lat="43.3650033" lon="10.8138477"><ele>79.0</ele><time>2026-04-18T10:31:13.345Z</time></trkpt><trkpt lat="43.3649014" lon="10.8137494"><ele>79.0</ele><time>2026-04-18T10:31:14.345Z</time></trkpt><trkpt lat="43.3647986" lon="10.8136508"><ele>78.75</ele><time>2026-04-18T10:31:15.344Z</time></trkpt><trkpt lat="43.3646924" lon="10.8135504"><ele>78.5</ele><time>2026-04-18T10:31:16.346Z</time></trkpt><trkpt lat="43.3645885" lon="10.8134465"><ele>78.25</ele><time>2026-04-18T10:31:17.344Z</time></trkpt><trkpt lat="43.3644895" lon="10.8133442"><ele>78.0</ele><time>2026-04-18T10:31:18.345Z</time></trkpt><trkpt lat="43.3643916" lon="10.8132519"><ele>78.0</ele><time>2026-04-18T10:31:19.346Z</time></trkpt><trkpt lat="43.3642998" lon="10.8131632"><ele>78.0</ele><time>2026-04-18T10:31:20.345Z</time></trkpt><trkpt lat="43.3642143" lon="10.8130848"><ele>78.0</ele><time>2026-04-18T10:31:21.345Z</time></trkpt><trkpt lat="43.3641328" lon="10.8130114"><ele>78.0</ele><time>2026-04-18T10:31:22.345Z</time></trkpt><trkpt lat="43.3640593" lon="10.8129414"><ele>78.0</ele><time>2026-04-18T10:31:23.345Z</time></trkpt><trkpt lat="43.3639896" lon="10.8128792"><ele>78.0</ele><time>2026-04-18T10:31:24.346Z</time></trkpt><trkpt lat="43.363929" lon="10.8128257"><ele>78.0</ele><time>2026-04-18T10:31:25.344Z</time></trkpt><trkpt lat="43.3638395" lon="10.8127393"><ele>78.0</ele><time>2026-04-18T10:31:27.345Z</time></trkpt><trkpt lat="43.3637501" lon="10.8126428"><ele>78.0</ele><time>2026-04-18T10:31:29.343Z</time></trkpt><trkpt lat="43.3636789" lon="10.8126154"><ele>78.0</ele><time>2026-04-18T10:31:30.346Z</time></trkpt><trkpt lat="43.3635891" lon="10.8126133"><ele>78.2</ele><time>2026-04-18T10:31:31.345Z</time></trkpt><trkpt lat="43.3634855" lon="10.8126228"><ele>78.4</ele><time>2026-04-18T10:31:32.345Z</time></trkpt><trkpt lat="43.3633746" lon="10.81263"><ele>78.60000000000001</ele><time>2026-04-18T10:31:33.345Z</time></trkpt><trkpt lat="43.3632634" lon="10.8126304"><ele>78.8</ele><time>2026-04-18T10:31:34.344Z</time></trkpt><trkpt lat="43.363158" lon="10.8126286"><ele>79.0</ele><time>2026-04-18T10:31:35.344Z</time></trkpt><trkpt lat="43.363055" lon="10.8126266"><ele>79.0</ele><time>2026-04-18T10:31:36.345Z</time></trkpt><trkpt lat="43.3629518" lon="10.8126267"><ele>79.0</ele><time>2026-04-18T10:31:37.344Z</time></trkpt><trkpt lat="43.3628501" lon="10.8126267"><ele>79.0</ele><time>2026-04-18T10:31:38.345Z</time></trkpt><trkpt lat="43.3627528" lon="10.8126267"><ele>79.0</ele><time>2026-04-18T10:31:39.346Z</time></trkpt><trkpt lat="43.3626637" lon="10.8126238"><ele>79.0</ele><time>2026-04-18T10:31:40.345Z</time></trkpt><trkpt lat="43.362578" lon="10.8126217"><ele>79.0</ele><time>2026-04-18T10:31:41.343Z</time></trkpt><trkpt lat="43.3624888" lon="10.8126217"><ele>79.0</ele><time>2026-04-18T10:31:42.344Z</time></trkpt><trkpt lat="43.3623911" lon="10.8126227"><ele>79.0</ele><time>2026-04-18T10:31:43.343Z</time></trkpt><trkpt lat="43.3622902" lon="10.8126186"><ele>79.0</ele><time>2026-04-18T10:31:44.345Z</time></trkpt><trkpt lat="43.3621879" lon="10.812607"><ele>79.0</ele><time>2026-04-18T10:31:45.348Z</time></trkpt><trkpt lat="43.3620896" lon="10.8125926"><ele>78.4</ele><time>2026-04-18T10:31:46.343Z</time></trkpt><trkpt lat="43.3619919" lon="10.812578"><ele>77.80000000000001</ele><time>2026-04-18T10:31:47.344Z</time></trkpt><trkpt lat="43.3618964" lon="10.8125588"><ele>77.19999999999999</ele><time>2026-04-18T10:31:48.346Z</time></trkpt><trkpt lat="43.3618077" lon="10.8125317"><ele>76.6</ele><time>2026-04-18T10:31:49.343Z</time></trkpt><trkpt lat="43.3617202" lon="10.8124943"><ele>76.0</ele><time>2026-04-18T10:31:50.346Z</time></trkpt><trkpt lat="43.3616334" lon="10.8124467"><ele>76.0</ele><time>2026-04-18T10:31:51.344Z</time></trkpt><trkpt lat="43.3615451" lon="10.8123828"><ele>76.0</ele><time>2026-04-18T10:31:52.344Z</time></trkpt><trkpt lat="43.3614564" lon="10.8123041"><ele>76.0</ele><time>2026-04-18T10:31:53.345Z</time></trkpt><trkpt lat="43.3613679" lon="10.8122219"><ele>76.0</ele><time>2026-04-18T10:31:54.345Z</time></trkpt><trkpt lat="43.3612768" lon="10.8121289"><ele>76.0</ele><time>2026-04-18T10:31:55.345Z</time></trkpt><trkpt lat="43.3611848" lon="10.8120163"><ele>75.75</ele><time>2026-04-18T10:31:56.344Z</time></trkpt><trkpt lat="43.3610945" lon="10.8118861"><ele>75.5</ele><time>2026-04-18T10:31:57.346Z</time></trkpt><trkpt lat="43.361009" lon="10.8117419"><ele>75.25</ele><time>2026-04-18T10:31:58.345Z</time></trkpt><trkpt lat="43.3609231" lon="10.8115922"><ele>75.0</ele><time>2026-04-18T10:31:59.345Z</time></trkpt><trkpt lat="43.3608397" lon="10.8114375"><ele>75.0</ele><time>2026-04-18T10:32:00.348Z</time></trkpt><trkpt lat="43.3607581" lon="10.8112801"><ele>75.0</ele><time>2026-04-18T10:32:01.345Z</time></trkpt><trkpt lat="43.3606795" lon="10.8111187"><ele>75.0</ele><time>2026-04-18T10:32:02.345Z</time></trkpt><trkpt lat="43.3606026" lon="10.8109513"><ele>75.0</ele><time>2026-04-18T10:32:03.349Z</time></trkpt><trkpt lat="43.3605357" lon="10.8107824"><ele>74.25</ele><time>2026-04-18T10:32:04.344Z</time></trkpt><trkpt lat="43.3604798" lon="10.8106073"><ele>73.5</ele><time>2026-04-18T10:32:05.344Z</time></trkpt><trkpt lat="43.3604288" lon="10.810423"><ele>72.75</ele><time>2026-04-18T10:32:06.344Z</time></trkpt><trkpt lat="43.3603762" lon="10.8102321"><ele>72.0</ele><time>2026-04-18T10:32:07.344Z</time></trkpt><trkpt lat="43.3603244" lon="10.8100367"><ele>72.0</ele><time>2026-04-18T10:32:08.344Z</time></trkpt><trkpt lat="43.360268" lon="10.8098457"><ele>72.0</ele><time>2026-04-18T10:32:09.344Z</time></trkpt><trkpt lat="43.3602085" lon="10.8096554"><ele>72.0</ele><time>2026-04-18T10:32:10.344Z</time></trkpt><trkpt lat="43.3601553" lon="10.8094611"><ele>72.5</ele><time>2026-04-18T10:32:11.343Z</time></trkpt><trkpt lat="43.3600994" lon="10.80928"><ele>73.0</ele><time>2026-04-18T10:32:12.344Z</time></trkpt><trkpt lat="43.3600449" lon="10.8091016"><ele>73.5</ele><time>2026-04-18T10:32:13.343Z</time></trkpt><trkpt lat="43.3599914" lon="10.8089232"><ele>74.0</ele><time>2026-04-18T10:32:14.345Z</time></trkpt><trkpt lat="43.3599348" lon="10.8087506"><ele>74.0</ele><time>2026-04-18T10:32:15.347Z</time></trkpt><trkpt lat="43.3598767" lon="10.8085797"><ele>74.0</ele><time>2026-04-18T10:32:16.344Z</time></trkpt><trkpt lat="43.3598215" lon="10.8084037"><ele>74.0</ele><time>2026-04-18T10:32:17.346Z</time></trkpt><trkpt lat="43.3597679" lon="10.808233"><ele>74.0</ele><time>2026-04-18T10:32:18.345Z</time></trkpt><trkpt lat="43.3597177" lon="10.8080642"><ele>73.0</ele><time>2026-04-18T10:32:19.344Z</time></trkpt><trkpt lat="43.3596694" lon="10.8078996"><ele>72.0</ele><time>2026-04-18T10:32:20.344Z</time></trkpt><trkpt lat="43.3596213" lon="10.8077368"><ele>71.0</ele><time>2026-04-18T10:32:21.344Z</time></trkpt><trkpt lat="43.3595701" lon="10.8075718"><ele>70.0</ele><time>2026-04-18T10:32:22.345Z</time></trkpt><trkpt lat="43.3595196" lon="10.8074045"><ele>70.0</ele><time>2026-04-18T10:32:23.346Z</time></trkpt><trkpt lat="43.3594716" lon="10.8072383"><ele>70.0</ele><time>2026-04-18T10:32:24.342Z</time></trkpt><trkpt lat="43.3594232" lon="10.807076"><ele>70.0</ele><time>2026-04-18T10:32:25.344Z</time></trkpt><trkpt lat="43.3593748" lon="10.8069165"><ele>70.0</ele><time>2026-04-18T10:32:26.343Z</time></trkpt><trkpt lat="43.3593246" lon="10.806766"><ele>69.75</ele><time>2026-04-18T10:32:27.343Z</time></trkpt><trkpt lat="43.3592762" lon="10.8066179"><ele>69.5</ele><time>2026-04-18T10:32:28.345Z</time></trkpt><trkpt lat="43.3592355" lon="10.8064623"><ele>69.25</ele><time>2026-04-18T10:32:29.345Z</time></trkpt><trkpt lat="43.3592098" lon="10.8062988"><ele>69.0</ele><time>2026-04-18T10:32:30.348Z</time></trkpt><trkpt lat="43.3592098" lon="10.8061238"><ele>69.0</ele><time>2026-04-18T10:32:31.344Z</time></trkpt><trkpt lat="43.359225" lon="10.8059401"><ele>69.0</ele><time>2026-04-18T10:32:32.343Z</time></trkpt><trkpt lat="43.3592476" lon="10.8057446"><ele>69.0</ele><time>2026-04-18T10:32:33.343Z</time></trkpt><trkpt lat="43.3592697" lon="10.8055467"><ele>69.0</ele><time>2026-04-18T10:32:34.343Z</time></trkpt><trkpt lat="43.3592928" lon="10.8053499"><ele>68.5</ele><time>2026-04-18T10:32:35.345Z</time></trkpt><trkpt lat="43.3593146" lon="10.8051576"><ele>68.0</ele><time>2026-04-18T10:32:36.343Z</time></trkpt><trkpt lat="43.3593376" lon="10.8049744"><ele>67.5</ele><time>2026-04-18T10:32:37.342Z</time></trkpt><trkpt lat="43.3593597" lon="10.8048054"><ele>67.0</ele><time>2026-04-18T10:32:38.346Z</time></trkpt><trkpt lat="43.3593813" lon="10.8046394"><ele>67.0</ele><time>2026-04-18T10:32:39.346Z</time></trkpt><trkpt lat="43.3594015" lon="10.8044717"><ele>67.0</ele><time>2026-04-18T10:32:40.343Z</time></trkpt><trkpt lat="43.3594226" lon="10.804298"><ele>67.0</ele><time>2026-04-18T10:32:41.349Z</time></trkpt><trkpt lat="43.3594426" lon="10.8041268"><ele>67.0</ele><time>2026-04-18T10:32:42.344Z</time></trkpt><trkpt lat="43.3594599" lon="10.8039538"><ele>66.75</ele><time>2026-04-18T10:32:43.343Z</time></trkpt><trkpt lat="43.3594659" lon="10.8037758"><ele>66.5</ele><time>2026-04-18T10:32:44.345Z</time></trkpt><trkpt lat="43.359456" lon="10.8035928"><ele>66.25</ele><time>2026-04-18T10:32:45.346Z</time></trkpt><trkpt lat="43.3594276" lon="10.8034011"><ele>66.0</ele><time>2026-04-18T10:32:46.347Z</time></trkpt><trkpt lat="43.3593842" lon="10.803205"><ele>66.0</ele><time>2026-04-18T10:32:47.346Z</time></trkpt><trkpt lat="43.359325" lon="10.8029964"><ele>66.0</ele><time>2026-04-18T10:32:48.346Z</time></trkpt><trkpt lat="43.3592483" lon="10.8027709"><ele>66.0</ele><time>2026-04-18T10:32:49.343Z</time></trkpt><trkpt lat="43.3591581" lon="10.802537"><ele>65.66666666666667</ele><time>2026-04-18T10:32:50.346Z</time></trkpt><trkpt lat="43.3590542" lon="10.8023186"><ele>65.33333333333334</ele><time>2026-04-18T10:32:51.343Z</time></trkpt><trkpt lat="43.3589363" lon="10.802121"><ele>65.0</ele><time>2026-04-18T10:32:52.342Z</time></trkpt><trkpt lat="43.3588153" lon="10.8019377"><ele>65.66666666666667</ele><time>2026-04-18T10:32:53.344Z</time></trkpt><trkpt lat="43.3586965" lon="10.8017606"><ele>66.33333333333333</ele><time>2026-04-18T10:32:54.345Z</time></trkpt><trkpt lat="43.3585817" lon="10.8015892"><ele>67.0</ele><time>2026-04-18T10:32:55.344Z</time></trkpt><trkpt lat="43.3584715" lon="10.8014132"><ele>67.0</ele><time>2026-04-18T10:32:56.343Z</time></trkpt><trkpt lat="43.3583663" lon="10.8012316"><ele>67.0</ele><time>2026-04-18T10:32:57.342Z</time></trkpt><trkpt lat="43.3582708" lon="10.8010374"><ele>67.0</ele><time>2026-04-18T10:32:58.345Z</time></trkpt><trkpt lat="43.3581874" lon="10.8008252"><ele>66.33333333333333</ele><time>2026-04-18T10:32:59.344Z</time></trkpt><trkpt lat="43.3581099" lon="10.8005967"><ele>65.66666666666667</ele><time>2026-04-18T10:33:00.344Z</time></trkpt><trkpt lat="43.3580351" lon="10.8003558"><ele>65.0</ele><time>2026-04-18T10:33:01.344Z</time></trkpt><trkpt lat="43.357955" lon="10.8001087"><ele>65.0</ele><time>2026-04-18T10:33:02.344Z</time></trkpt><trkpt lat="43.3578742" lon="10.7998685"><ele>65.0</ele><time>2026-04-18T10:33:03.343Z</time></trkpt><trkpt lat="43.3577928" lon="10.7996287"><ele>65.0</ele><time>2026-04-18T10:33:04.343Z</time></trkpt><trkpt lat="43.3577063" lon="10.7993928"><ele>65.66666666666667</ele><time>2026-04-18T10:33:05.343Z</time></trkpt><trkpt lat="43.3576" lon="10.7991661"><ele>66.33333333333333</ele><time>2026-04-18T10:33:06.345Z</time></trkpt><trkpt lat="43.3574725" lon="10.7989466"><ele>67.0</ele><time>2026-04-18T10:33:07.343Z</time></trkpt><trkpt lat="43.35734" lon="10.7987271"><ele>66.33333333333333</ele><time>2026-04-18T10:33:08.343Z</time></trkpt><trkpt lat="43.3572002" lon="10.7985121"><ele>65.66666666666667</ele><time>2026-04-18T10:33:09.342Z</time></trkpt><trkpt lat="43.3570614" lon="10.7982939"><ele>65.0</ele><time>2026-04-18T10:33:10.342Z</time></trkpt><trkpt lat="43.3569319" lon="10.7980682"><ele>65.0</ele><time>2026-04-18T10:33:11.342Z</time></trkpt><trkpt lat="43.3568117" lon="10.797829"><ele>65.0</ele><time>2026-04-18T10:33:12.343Z</time></trkpt><trkpt lat="43.3567066" lon="10.797584"><ele>65.0</ele><time>2026-04-18T10:33:13.343Z</time></trkpt><trkpt lat="43.3566195" lon="10.7973356"><ele>66.66666666666667</ele><time>2026-04-18T10:33:14.342Z</time></trkpt><trkpt lat="43.3565434" lon="10.7970838"><ele>68.33333333333333</ele><time>2026-04-18T10:33:15.342Z</time></trkpt><trkpt lat="43.3564735" lon="10.7968301"><ele>70.0</ele><time>2026-04-18T10:33:16.342Z</time></trkpt><trkpt lat="43.3564195" lon="10.7965583"><ele>71.33333333333333</ele><time>2026-04-18T10:33:17.342Z</time></trkpt><trkpt lat="43.3563793" lon="10.796278"><ele>72.66666666666667</ele><time>2026-04-18T10:33:18.342Z</time></trkpt><trkpt lat="43.3563511" lon="10.7959864"><ele>74.0</ele><time>2026-04-18T10:33:19.343Z</time></trkpt><trkpt lat="43.3563362" lon="10.7956922"><ele>70.33333333333334</ele><time>2026-04-18T10:33:20.341Z</time></trkpt><trkpt lat="43.3563362" lon="10.7953954"><ele>66.66666666666667</ele><time>2026-04-18T10:33:21.343Z</time></trkpt><trkpt lat="43.3563479" lon="10.7950926"><ele>63.0</ele><time>2026-04-18T10:33:22.341Z</time></trkpt><trkpt lat="43.3563711" lon="10.7947884"><ele>63.0</ele><time>2026-04-18T10:33:23.342Z</time></trkpt><trkpt lat="43.3564096" lon="10.7944879"><ele>63.0</ele><time>2026-04-18T10:33:24.343Z</time></trkpt><trkpt lat="43.356463" lon="10.7941925"><ele>63.0</ele><time>2026-04-18T10:33:25.343Z</time></trkpt><trkpt lat="43.3565235" lon="10.7939086"><ele>62.33333333333333</ele><time>2026-04-18T10:33:26.343Z</time></trkpt><trkpt lat="43.3565857" lon="10.7936254"><ele>61.666666666666664</ele><time>2026-04-18T10:33:27.347Z</time></trkpt><trkpt lat="43.3566488" lon="10.7933378"><ele>61.0</ele><time>2026-04-18T10:33:28.345Z</time></trkpt><trkpt lat="43.3567163" lon="10.7930481"><ele>60.666666666666664</ele><time>2026-04-18T10:33:29.345Z</time></trkpt><trkpt lat="43.3567837" lon="10.7927597"><ele>60.33333333333333</ele><time>2026-04-18T10:33:30.345Z</time></trkpt><trkpt lat="43.3568539" lon="10.7924672"><ele>60.0</ele><time>2026-04-18T10:33:31.342Z</time></trkpt><trkpt lat="43.3569221" lon="10.7921686"><ele>60.0</ele><time>2026-04-18T10:33:32.343Z</time></trkpt><trkpt lat="43.3569877" lon="10.7918683"><ele>60.0</ele><time>2026-04-18T10:33:33.345Z</time></trkpt><trkpt lat="43.357046" lon="10.7915684"><ele>60.0</ele><time>2026-04-18T10:33:34.342Z</time></trkpt><trkpt lat="43.3571029" lon="10.7912695"><ele>60.0</ele><time>2026-04-18T10:33:35.343Z</time></trkpt><trkpt lat="43.3571519" lon="10.7909699"><ele>60.0</ele><time>2026-04-18T10:33:36.343Z</time></trkpt><trkpt lat="43.3571956" lon="10.7906696"><ele>60.33333333333333</ele><time>2026-04-18T10:33:37.343Z</time></trkpt><trkpt lat="43.3572321" lon="10.7903724"><ele>60.666666666666664</ele><time>2026-04-18T10:33:38.345Z</time></trkpt><trkpt lat="43.3572637" lon="10.7900796"><ele>61.0</ele><time>2026-04-18T10:33:39.343Z</time></trkpt><trkpt lat="43.3572844" lon="10.7897875"><ele>61.666666666666664</ele><time>2026-04-18T10:33:40.346Z</time></trkpt><trkpt lat="43.3572963" lon="10.7894986"><ele>62.33333333333333</ele><time>2026-04-18T10:33:41.347Z</time></trkpt><trkpt lat="43.3573006" lon="10.7892115"><ele>63.0</ele><time>2026-04-18T10:33:42.347Z</time></trkpt><trkpt lat="43.3573021" lon="10.7889246"><ele>64.0</ele><time>2026-04-18T10:33:43.342Z</time></trkpt><trkpt lat="43.3573009" lon="10.7886377"><ele>65.0</ele><time>2026-04-18T10:33:44.345Z</time></trkpt><trkpt lat="43.3572939" lon="10.7883498"><ele>66.0</ele><time>2026-04-18T10:33:45.344Z</time></trkpt><trkpt lat="43.357279" lon="10.7880567"><ele>66.0</ele><time>2026-04-18T10:33:46.346Z</time></trkpt><trkpt lat="43.3572586" lon="10.7877663"><ele>66.0</ele><time>2026-04-18T10:33:47.345Z</time></trkpt><trkpt lat="43.3572352" lon="10.7874793"><ele>66.0</ele><time>2026-04-18T10:33:48.343Z</time></trkpt><trkpt lat="43.3572099" lon="10.7871905"><ele>64.0</ele><time>2026-04-18T10:33:49.344Z</time></trkpt><trkpt lat="43.3571801" lon="10.7869019"><ele>62.0</ele><time>2026-04-18T10:33:50.345Z</time></trkpt><trkpt lat="43.3571453" lon="10.7866179"><ele>60.0</ele><time>2026-04-18T10:33:51.344Z</time></trkpt><trkpt lat="43.3571084" lon="10.7863405"><ele>60.0</ele><time>2026-04-18T10:33:52.343Z</time></trkpt><trkpt lat="43.3570684" lon="10.7860631"><ele>60.0</ele><time>2026-04-18T10:33:53.347Z</time></trkpt><trkpt lat="43.3570236" lon="10.7857823"><ele>60.0</ele><time>2026-04-18T10:33:54.344Z</time></trkpt><trkpt lat="43.3569794" lon="10.7855057"><ele>60.0</ele><time>2026-04-18T10:33:55.345Z</time></trkpt><trkpt lat="43.3569361" lon="10.7852354"><ele>60.0</ele><time>2026-04-18T10:33:56.342Z</time></trkpt><trkpt lat="43.3568941" lon="10.7849723"><ele>60.0</ele><time>2026-04-18T10:33:57.342Z</time></trkpt><trkpt lat="43.3568514" lon="10.7847169"><ele>60.0</ele><time>2026-04-18T10:33:58.346Z</time></trkpt><trkpt lat="43.3568083" lon="10.7844673"><ele>60.0</ele><time>2026-04-18T10:33:59.341Z</time></trkpt><trkpt lat="43.3567709" lon="10.7842224"><ele>60.0</ele><time>2026-04-18T10:34:00.343Z</time></trkpt><trkpt lat="43.3567318" lon="10.7839791"><ele>60.0</ele><time>2026-04-18T10:34:01.345Z</time></trkpt><trkpt lat="43.3566933" lon="10.7837343"><ele>60.0</ele><time>2026-04-18T10:34:02.344Z</time></trkpt><trkpt lat="43.3566579" lon="10.7834957"><ele>60.0</ele><time>2026-04-18T10:34:03.347Z</time></trkpt><trkpt lat="43.3566243" lon="10.7832632"><ele>59.66666666666667</ele><time>2026-04-18T10:34:04.345Z</time></trkpt><trkpt lat="43.3565943" lon="10.7830459"><ele>59.333333333333336</ele><time>2026-04-18T10:34:05.342Z</time></trkpt><trkpt lat="43.3565659" lon="10.7828375"><ele>59.0</ele><time>2026-04-18T10:34:06.345Z</time></trkpt><trkpt lat="43.3565425" lon="10.7826249"><ele>58.66666666666667</ele><time>2026-04-18T10:34:07.347Z</time></trkpt><trkpt lat="43.3565215" lon="10.7824067"><ele>58.33333333333333</ele><time>2026-04-18T10:34:08.346Z</time></trkpt><trkpt lat="43.3565044" lon="10.7821819"><ele>58.0</ele><time>2026-04-18T10:34:09.343Z</time></trkpt><trkpt lat="43.3564928" lon="10.7819531"><ele>58.33333333333333</ele><time>2026-04-18T10:34:10.345Z</time></trkpt><trkpt lat="43.3564858" lon="10.7817206"><ele>58.66666666666667</ele><time>2026-04-18T10:34:11.346Z</time></trkpt><trkpt lat="43.3564781" lon="10.78148"><ele>59.0</ele><time>2026-04-18T10:34:12.345Z</time></trkpt><trkpt lat="43.3564726" lon="10.7812381"><ele>59.333333333333336</ele><time>2026-04-18T10:34:13.346Z</time></trkpt><trkpt lat="43.3564662" lon="10.7809938"><ele>59.66666666666667</ele><time>2026-04-18T10:34:14.346Z</time></trkpt><trkpt lat="43.356461" lon="10.7807489"><ele>60.0</ele><time>2026-04-18T10:34:15.343Z</time></trkpt><trkpt lat="43.3564569" lon="10.7805062"><ele>60.0</ele><time>2026-04-18T10:34:16.346Z</time></trkpt><trkpt lat="43.3564496" lon="10.7802664"><ele>60.0</ele><time>2026-04-18T10:34:17.343Z</time></trkpt><trkpt lat="43.3564415" lon="10.7800234"><ele>60.0</ele><time>2026-04-18T10:34:18.344Z</time></trkpt><trkpt lat="43.3564346" lon="10.7797757"><ele>60.0</ele><time>2026-04-18T10:34:19.344Z</time></trkpt><trkpt lat="43.3564269" lon="10.7795251"><ele>60.0</ele><time>2026-04-18T10:34:20.345Z</time></trkpt><trkpt lat="43.3564168" lon="10.7792736"><ele>60.0</ele><time>2026-04-18T10:34:21.345Z</time></trkpt><trkpt lat="43.3564021" lon="10.7790203"><ele>59.33333333333333</ele><time>2026-04-18T10:34:22.346Z</time></trkpt><trkpt lat="43.3563777" lon="10.7787742"><ele>58.666666666666664</ele><time>2026-04-18T10:34:23.344Z</time></trkpt><trkpt lat="43.356341" lon="10.778536"><ele>58.0</ele><time>2026-04-18T10:34:24.346Z</time></trkpt><trkpt lat="43.3562866" lon="10.778303"><ele>58.0</ele><time>2026-04-18T10:34:25.345Z</time></trkpt><trkpt lat="43.3562152" lon="10.7780732"><ele>58.0</ele><time>2026-04-18T10:34:26.346Z</time></trkpt><trkpt lat="43.3561302" lon="10.7778446"><ele>58.0</ele><time>2026-04-18T10:34:27.346Z</time></trkpt><trkpt lat="43.3560308" lon="10.7776217"><ele>59.33333333333333</ele><time>2026-04-18T10:34:28.346Z</time></trkpt><trkpt lat="43.3559183" lon="10.777403"><ele>60.66666666666667</ele><time>2026-04-18T10:34:29.343Z</time></trkpt><trkpt lat="43.3557981" lon="10.7771956"><ele>62.0</ele><time>2026-04-18T10:34:30.342Z</time></trkpt><trkpt lat="43.3556617" lon="10.7770156"><ele>61.0</ele><time>2026-04-18T10:34:31.342Z</time></trkpt><trkpt lat="43.3555157" lon="10.7768633"><ele>60.0</ele><time>2026-04-18T10:34:32.342Z</time></trkpt><trkpt lat="43.3553758" lon="10.7767317"><ele>59.0</ele><time>2026-04-18T10:34:33.344Z</time></trkpt><trkpt lat="43.3552458" lon="10.776632"><ele>59.0</ele><time>2026-04-18T10:34:34.344Z</time></trkpt><trkpt lat="43.3551211" lon="10.7765496"><ele>59.0</ele><time>2026-04-18T10:34:35.342Z</time></trkpt><trkpt lat="43.3549993" lon="10.7764816"><ele>59.0</ele><time>2026-04-18T10:34:36.351Z</time></trkpt><trkpt lat="43.3548846" lon="10.7764162"><ele>59.0</ele><time>2026-04-18T10:34:37.342Z</time></trkpt><trkpt lat="43.3547746" lon="10.7763501"><ele>58.6</ele><time>2026-04-18T10:34:38.342Z</time></trkpt><trkpt lat="43.3546695" lon="10.7762876"><ele>58.2</ele><time>2026-04-18T10:34:39.343Z</time></trkpt><trkpt lat="43.3545694" lon="10.7762263"><ele>57.800000000000004</ele><time>2026-04-18T10:34:40.342Z</time></trkpt><trkpt lat="43.3544699" lon="10.7761693"><ele>57.400000000000006</ele><time>2026-04-18T10:34:41.343Z</time></trkpt><trkpt lat="43.3543698" lon="10.7761086"><ele>57.0</ele><time>2026-04-18T10:34:42.342Z</time></trkpt><trkpt lat="43.3542682" lon="10.7760452"><ele>56.75</ele><time>2026-04-18T10:34:43.342Z</time></trkpt><trkpt lat="43.3541606" lon="10.775983"><ele>56.5</ele><time>2026-04-18T10:34:44.343Z</time></trkpt><trkpt lat="43.3540473" lon="10.775917"><ele>56.25</ele><time>2026-04-18T10:34:45.342Z</time></trkpt><trkpt lat="43.3539258" lon="10.7758361"><ele>56.0</ele><time>2026-04-18T10:34:46.344Z</time></trkpt><trkpt lat="43.3538048" lon="10.7757374"><ele>56.0</ele><time>2026-04-18T10:34:47.342Z</time></trkpt><trkpt lat="43.3536908" lon="10.7756252"><ele>56.0</ele><time>2026-04-18T10:34:48.346Z</time></trkpt><trkpt lat="43.3535856" lon="10.7754945"><ele>56.0</ele><time>2026-04-18T10:34:49.343Z</time></trkpt><trkpt lat="43.3534903" lon="10.775347"><ele>56.0</ele><time>2026-04-18T10:34:50.342Z</time></trkpt><trkpt lat="43.3533995" lon="10.7751942"><ele>56.25</ele><time>2026-04-18T10:34:51.342Z</time></trkpt><trkpt lat="43.3533144" lon="10.7750434"><ele>56.5</ele><time>2026-04-18T10:34:52.342Z</time></trkpt><trkpt lat="43.3532334" lon="10.7748973"><ele>56.75</ele><time>2026-04-18T10:34:53.343Z</time></trkpt><trkpt lat="43.3531587" lon="10.7747556"><ele>57.0</ele><time>2026-04-18T10:34:54.343Z</time></trkpt><trkpt lat="43.3530888" lon="10.774616"><ele>57.0</ele><time>2026-04-18T10:34:55.342Z</time></trkpt><trkpt lat="43.3530163" lon="10.7744814"><ele>57.0</ele><time>2026-04-18T10:34:56.347Z</time></trkpt><trkpt lat="43.3529405" lon="10.7743504"><ele>57.0</ele><time>2026-04-18T10:34:57.343Z</time></trkpt><trkpt lat="43.352857" lon="10.7742124"><ele>57.0</ele><time>2026-04-18T10:34:58.351Z</time></trkpt><trkpt lat="43.3527655" lon="10.7740689"><ele>56.66666666666667</ele><time>2026-04-18T10:34:59.344Z</time></trkpt><trkpt lat="43.35267" lon="10.7739177"><ele>56.333333333333336</ele><time>2026-04-18T10:35:00.345Z</time></trkpt><trkpt lat="43.3525763" lon="10.7737558"><ele>56.0</ele><time>2026-04-18T10:35:01.344Z</time></trkpt><trkpt lat="43.3524815" lon="10.773589"><ele>56.333333333333336</ele><time>2026-04-18T10:35:02.345Z</time></trkpt><trkpt lat="43.3523862" lon="10.7734111"><ele>56.66666666666667</ele><time>2026-04-18T10:35:03.347Z</time></trkpt><trkpt lat="43.3522835" lon="10.7732261"><ele>57.0</ele><time>2026-04-18T10:35:04.344Z</time></trkpt><trkpt lat="43.3521725" lon="10.7730355"><ele>56.33333333333333</ele><time>2026-04-18T10:35:05.344Z</time></trkpt><trkpt lat="43.3520574" lon="10.7728385"><ele>55.666666666666664</ele><time>2026-04-18T10:35:06.346Z</time></trkpt><trkpt lat="43.3519389" lon="10.7726376"><ele>55.0</ele><time>2026-04-18T10:35:07.345Z</time></trkpt><trkpt lat="43.3518185" lon="10.7724323"><ele>55.0</ele><time>2026-04-18T10:35:08.346Z</time></trkpt><trkpt lat="43.3516983" lon="10.7722256"><ele>55.0</ele><time>2026-04-18T10:35:09.345Z</time></trkpt><trkpt lat="43.3515781" lon="10.7720171"><ele>55.0</ele><time>2026-04-18T10:35:10.345Z</time></trkpt><trkpt lat="43.3514568" lon="10.7718103"><ele>54.666666666666664</ele><time>2026-04-18T10:35:11.343Z</time></trkpt><trkpt lat="43.3513365" lon="10.7716022"><ele>54.33333333333333</ele><time>2026-04-18T10:35:12.346Z</time></trkpt><trkpt lat="43.351218" lon="10.7713955"><ele>54.0</ele><time>2026-04-18T10:35:13.345Z</time></trkpt><trkpt lat="43.3510995" lon="10.7711957"><ele>55.0</ele><time>2026-04-18T10:35:14.344Z</time></trkpt><trkpt lat="43.3509866" lon="10.7709963"><ele>56.0</ele><time>2026-04-18T10:35:15.343Z</time></trkpt><trkpt lat="43.3508794" lon="10.7708072"><ele>57.0</ele><time>2026-04-18T10:35:16.345Z</time></trkpt><trkpt lat="43.3507809" lon="10.7706174"><ele>57.0</ele><time>2026-04-18T10:35:17.344Z</time></trkpt><trkpt lat="43.3506829" lon="10.7704254"><ele>57.0</ele><time>2026-04-18T10:35:18.343Z</time></trkpt><trkpt lat="43.3505845" lon="10.7702249"><ele>57.0</ele><time>2026-04-18T10:35:19.344Z</time></trkpt><trkpt lat="43.3504765" lon="10.7700239"><ele>56.66666666666667</ele><time>2026-04-18T10:35:20.346Z</time></trkpt><trkpt lat="43.3503654" lon="10.7698126"><ele>56.333333333333336</ele><time>2026-04-18T10:35:21.344Z</time></trkpt><trkpt lat="43.3502533" lon="10.7695944"><ele>56.0</ele><time>2026-04-18T10:35:22.345Z</time></trkpt><trkpt lat="43.3501444" lon="10.7693706"><ele>56.0</ele><time>2026-04-18T10:35:23.346Z</time></trkpt><trkpt lat="43.3500416" lon="10.7691572"><ele>56.0</ele><time>2026-04-18T10:35:24.345Z</time></trkpt><trkpt lat="43.3499459" lon="10.7689548"><ele>56.0</ele><time>2026-04-18T10:35:25.347Z</time></trkpt><trkpt lat="43.3498494" lon="10.7687556"><ele>56.0</ele><time>2026-04-18T10:35:26.344Z</time></trkpt><trkpt lat="43.3497606" lon="10.7685603"><ele>56.0</ele><time>2026-04-18T10:35:27.345Z</time></trkpt><trkpt lat="43.3496787" lon="10.7683566"><ele>56.0</ele><time>2026-04-18T10:35:28.348Z</time></trkpt><trkpt lat="43.3496118" lon="10.7681464"><ele>55.66666666666667</ele><time>2026-04-18T10:35:29.346Z</time></trkpt><trkpt lat="43.3495612" lon="10.7679265"><ele>55.33333333333333</ele><time>2026-04-18T10:35:30.346Z</time></trkpt><trkpt lat="43.349524" lon="10.7677044"><ele>55.0</ele><time>2026-04-18T10:35:31.342Z</time></trkpt><trkpt lat="43.3494966" lon="10.7674897"><ele>55.0</ele><time>2026-04-18T10:35:32.343Z</time></trkpt><trkpt lat="43.3494788" lon="10.7672826"><ele>55.0</ele><time>2026-04-18T10:35:33.347Z</time></trkpt><trkpt lat="43.3494796" lon="10.7670896"><ele>55.0</ele><time>2026-04-18T10:35:34.347Z</time></trkpt><trkpt lat="43.3494968" lon="10.7669119"><ele>55.0</ele><time>2026-04-18T10:35:35.346Z</time></trkpt><trkpt lat="43.3495088" lon="10.7667489"><ele>55.25</ele><time>2026-04-18T10:35:36.346Z</time></trkpt><trkpt lat="43.3495014" lon="10.7665865"><ele>55.5</ele><time>2026-04-18T10:35:37.346Z</time></trkpt><trkpt lat="43.3494671" lon="10.7664222"><ele>55.75</ele><time>2026-04-18T10:35:38.343Z</time></trkpt><trkpt lat="43.349407" lon="10.7662534"><ele>56.0</ele><time>2026-04-18T10:35:39.349Z</time></trkpt><trkpt lat="43.3493253" lon="10.766089"><ele>57.66666666666667</ele><time>2026-04-18T10:35:40.344Z</time></trkpt><trkpt lat="43.3492201" lon="10.7659252"><ele>59.33333333333333</ele><time>2026-04-18T10:35:41.343Z</time></trkpt><trkpt lat="43.349112" lon="10.7657631"><ele>61.0</ele><time>2026-04-18T10:35:42.342Z</time></trkpt><trkpt lat="43.3490048" lon="10.7656025"><ele>61.0</ele><time>2026-04-18T10:35:43.343Z</time></trkpt><trkpt lat="43.3489013" lon="10.7654387"><ele>61.0</ele><time>2026-04-18T10:35:44.343Z</time></trkpt><trkpt lat="43.3488026" lon="10.7652702"><ele>61.0</ele><time>2026-04-18T10:35:45.344Z</time></trkpt><trkpt lat="43.3487095" lon="10.7650988"><ele>60.75</ele><time>2026-04-18T10:35:46.342Z</time></trkpt><trkpt lat="43.3486272" lon="10.7649265"><ele>60.5</ele><time>2026-04-18T10:35:47.342Z</time></trkpt><trkpt lat="43.348555" lon="10.7647523"><ele>60.25</ele><time>2026-04-18T10:35:48.343Z</time></trkpt><trkpt lat="43.3484907" lon="10.7645758"><ele>60.0</ele><time>2026-04-18T10:35:49.346Z</time></trkpt><trkpt lat="43.3484297" lon="10.7643986"><ele>61.25</ele><time>2026-04-18T10:35:50.342Z</time></trkpt><trkpt lat="43.3483699" lon="10.7642144"><ele>62.5</ele><time>2026-04-18T10:35:51.343Z</time></trkpt><trkpt lat="43.3483098" lon="10.7640238"><ele>63.75</ele><time>2026-04-18T10:35:52.342Z</time></trkpt><trkpt lat="43.3482498" lon="10.763835"><ele>65.0</ele><time>2026-04-18T10:35:53.344Z</time></trkpt><trkpt lat="43.3481914" lon="10.7636528"><ele>65.5</ele><time>2026-04-18T10:35:54.342Z</time></trkpt><trkpt lat="43.3481354" lon="10.763478"><ele>66.0</ele><time>2026-04-18T10:35:55.343Z</time></trkpt><trkpt lat="43.3480781" lon="10.7633008"><ele>66.5</ele><time>2026-04-18T10:35:56.345Z</time></trkpt><trkpt lat="43.3480168" lon="10.7631119"><ele>67.0</ele><time>2026-04-18T10:35:57.343Z</time></trkpt><trkpt lat="43.3479549" lon="10.7629153"><ele>64.33333333333333</ele><time>2026-04-18T10:35:58.342Z</time></trkpt><trkpt lat="43.3478909" lon="10.7627051"><ele>61.66666666666667</ele><time>2026-04-18T10:35:59.344Z</time></trkpt><trkpt lat="43.3478289" lon="10.762485"><ele>59.0</ele><time>2026-04-18T10:36:00.343Z</time></trkpt><trkpt lat="43.347773" lon="10.7622583"><ele>59.0</ele><time>2026-04-18T10:36:01.345Z</time></trkpt><trkpt lat="43.3477311" lon="10.7620219"><ele>59.0</ele><time>2026-04-18T10:36:02.343Z</time></trkpt><trkpt lat="43.3476996" lon="10.7617779"><ele>59.0</ele><time>2026-04-18T10:36:03.346Z</time></trkpt><trkpt lat="43.3476724" lon="10.7615302"><ele>59.0</ele><time>2026-04-18T10:36:04.348Z</time></trkpt><trkpt lat="43.3476411" lon="10.7612822"><ele>59.0</ele><time>2026-04-18T10:36:05.342Z</time></trkpt><trkpt lat="43.3476089" lon="10.7610321"><ele>59.0</ele><time>2026-04-18T10:36:06.342Z</time></trkpt><trkpt lat="43.3475818" lon="10.7607847"><ele>58.66666666666667</ele><time>2026-04-18T10:36:07.345Z</time></trkpt><trkpt lat="43.3475575" lon="10.7605377"><ele>58.33333333333333</ele><time>2026-04-18T10:36:08.346Z</time></trkpt><trkpt lat="43.3475325" lon="10.7602936"><ele>58.0</ele><time>2026-04-18T10:36:09.347Z</time></trkpt><trkpt lat="43.3474973" lon="10.7600633"><ele>57.33333333333333</ele><time>2026-04-18T10:36:10.348Z</time></trkpt><trkpt lat="43.3474489" lon="10.7598508"><ele>56.66666666666667</ele><time>2026-04-18T10:36:11.346Z</time></trkpt><trkpt lat="43.3473888" lon="10.7596449"><ele>56.0</ele><time>2026-04-18T10:36:12.346Z</time></trkpt><trkpt lat="43.3473202" lon="10.7594451"><ele>56.333333333333336</ele><time>2026-04-18T10:36:13.344Z</time></trkpt><trkpt lat="43.3472453" lon="10.7592454"><ele>56.66666666666667</ele><time>2026-04-18T10:36:14.343Z</time></trkpt><trkpt lat="43.3471623" lon="10.7590512"><ele>57.0</ele><time>2026-04-18T10:36:15.343Z</time></trkpt><trkpt lat="43.3470735" lon="10.758864"><ele>57.0</ele><time>2026-04-18T10:36:16.343Z</time></trkpt><trkpt lat="43.3469827" lon="10.7586869"><ele>57.0</ele><time>2026-04-18T10:36:17.346Z</time></trkpt><trkpt lat="43.3468901" lon="10.7585173"><ele>57.0</ele><time>2026-04-18T10:36:18.343Z</time></trkpt><trkpt lat="43.3467982" lon="10.758346"><ele>58.33333333333333</ele><time>2026-04-18T10:36:19.343Z</time></trkpt><trkpt lat="43.3467036" lon="10.75817"><ele>59.666666666666664</ele><time>2026-04-18T10:36:20.343Z</time></trkpt><trkpt lat="43.3466071" lon="10.757993"><ele>61.0</ele><time>2026-04-18T10:36:21.345Z</time></trkpt><trkpt lat="43.3465054" lon="10.7578196"><ele>61.666666666666664</ele><time>2026-04-18T10:36:22.344Z</time></trkpt><trkpt lat="43.3464064" lon="10.7576428"><ele>62.33333333333333</ele><time>2026-04-18T10:36:23.344Z</time></trkpt><trkpt lat="43.3463096" lon="10.7574671"><ele>63.0</ele><time>2026-04-18T10:36:24.343Z</time></trkpt><trkpt lat="43.3462143" lon="10.7572974"><ele>61.0</ele><time>2026-04-18T10:36:25.343Z</time></trkpt><trkpt lat="43.3461171" lon="10.7571314"><ele>59.0</ele><time>2026-04-18T10:36:26.342Z</time></trkpt><trkpt lat="43.3460185" lon="10.7569693"><ele>57.0</ele><time>2026-04-18T10:36:27.344Z</time></trkpt><trkpt lat="43.3459167" lon="10.7568155"><ele>57.0</ele><time>2026-04-18T10:36:28.344Z</time></trkpt><trkpt lat="43.3458132" lon="10.7566738"><ele>57.0</ele><time>2026-04-18T10:36:29.343Z</time></trkpt><trkpt lat="43.3457078" lon="10.7565399"><ele>57.0</ele><time>2026-04-18T10:36:30.345Z</time></trkpt><trkpt lat="43.3456074" lon="10.7564113"><ele>57.0</ele><time>2026-04-18T10:36:31.347Z</time></trkpt><trkpt lat="43.3455098" lon="10.7562844"><ele>56.8</ele><time>2026-04-18T10:36:32.344Z</time></trkpt><trkpt lat="43.3454215" lon="10.7561759"><ele>56.6</ele><time>2026-04-18T10:36:33.343Z</time></trkpt><trkpt lat="43.3453518" lon="10.7560911"><ele>56.39999999999999</ele><time>2026-04-18T10:36:34.347Z</time></trkpt><trkpt lat="43.345294" lon="10.7560235"><ele>56.199999999999996</ele><time>2026-04-18T10:36:35.343Z</time></trkpt><trkpt lat="43.3452484" lon="10.7559609"><ele>56.0</ele><time>2026-04-18T10:36:36.347Z</time></trkpt><trkpt lat="43.3451912" lon="10.7558162"><ele>56.00000000000001</ele><time>2026-04-18T10:36:38.344Z</time></trkpt><trkpt lat="43.3452137" lon="10.7556514"><ele>56.0</ele><time>2026-04-18T10:36:40.347Z</time></trkpt><trkpt lat="43.3452468" lon="10.755567"><ele>56.0</ele><time>2026-04-18T10:36:41.342Z</time></trkpt><trkpt lat="43.3452782" lon="10.7554723"><ele>56.0</ele><time>2026-04-18T10:36:42.346Z</time></trkpt><trkpt lat="43.3452942" lon="10.7553732"><ele>56.00000000000001</ele><time>2026-04-18T10:36:43.347Z</time></trkpt><trkpt lat="43.3452846" lon="10.7552815"><ele>56.0</ele><time>2026-04-18T10:36:44.348Z</time></trkpt><trkpt lat="43.3452483" lon="10.755209"><ele>56.00000000000001</ele><time>2026-04-18T10:36:45.343Z</time></trkpt><trkpt lat="43.3451916" lon="10.755145"><ele>56.0</ele><time>2026-04-18T10:36:46.345Z</time></trkpt><trkpt lat="43.3451181" lon="10.7550828"><ele>56.0</ele><time>2026-04-18T10:36:47.343Z</time></trkpt><trkpt lat="43.3450365" lon="10.7550111"><ele>56.0</ele><time>2026-04-18T10:36:48.344Z</time></trkpt><trkpt lat="43.3449681" lon="10.7549194"><ele>56.00000000000001</ele><time>2026-04-18T10:36:49.344Z</time></trkpt><trkpt lat="43.3449218" lon="10.754811"><ele>56.0</ele><time>2026-04-18T10:36:50.343Z</time></trkpt><trkpt lat="43.344888" lon="10.7546993"><ele>56.0</ele><time>2026-04-18T10:36:51.343Z</time></trkpt><trkpt lat="43.344856" lon="10.7545779"><ele>55.99999999999999</ele><time>2026-04-18T10:36:52.342Z</time></trkpt><trkpt lat="43.3448261" lon="10.7544504"><ele>55.99999999999999</ele><time>2026-04-18T10:36:53.342Z</time></trkpt><trkpt lat="43.3447977" lon="10.7543234"><ele>56.0</ele><time>2026-04-18T10:36:54.342Z</time></trkpt><trkpt lat="43.3447683" lon="10.7541999"><ele>56.0</ele><time>2026-04-18T10:36:55.343Z</time></trkpt><trkpt lat="43.3447327" lon="10.75408"><ele>55.833333333333336</ele><time>2026-04-18T10:36:56.345Z</time></trkpt><trkpt lat="43.3446967" lon="10.7539612"><ele>55.66666666666667</ele><time>2026-04-18T10:36:57.343Z</time></trkpt><trkpt lat="43.3446603" lon="10.7538539"><ele>55.5</ele><time>2026-04-18T10:36:58.344Z</time></trkpt><trkpt lat="43.3446233" lon="10.7537598"><ele>55.33333333333333</ele><time>2026-04-18T10:36:59.343Z</time></trkpt><trkpt lat="43.3445882" lon="10.7536856"><ele>55.166666666666664</ele><time>2026-04-18T10:37:00.344Z</time></trkpt><trkpt lat="43.3445462" lon="10.7535882"><ele>55.0</ele><time>2026-04-18T10:37:02.344Z</time></trkpt><trkpt lat="43.3445342" lon="10.7534893"><ele>55.28571428571428</ele><time>2026-04-18T10:37:05.343Z</time></trkpt><trkpt lat="43.3445453" lon="10.7533941"><ele>55.57142857142857</ele><time>2026-04-18T10:37:09.347Z</time></trkpt><trkpt lat="43.3444969" lon="10.7533065"><ele>55.857142857142854</ele><time>2026-04-18T10:37:13.344Z</time></trkpt><trkpt lat="43.3444438" lon="10.7532279"><ele>56.14285714285714</ele><time>2026-04-18T10:37:18.344Z</time></trkpt><trkpt lat="43.3443887" lon="10.7531559"><ele>56.42857142857142</ele><time>2026-04-18T10:37:22.344Z</time></trkpt><trkpt lat="43.3443549" lon="10.7530772"><ele>56.71428571428571</ele><time>2026-04-18T10:37:25.344Z</time></trkpt><trkpt lat="43.3443138" lon="10.7529931"><ele>57.0</ele><time>2026-04-18T10:37:30.345Z</time></trkpt><trkpt lat="43.3442449" lon="10.7529854"><ele>57.0</ele><time>2026-04-18T10:37:34.345Z</time></trkpt></trkseg></trk></gpx>